<?xml version='1.0' encoding='UTF-8'?><gpx version="1.1" creator="JPX - https://github.com/jenetics/jpx" xmlns="http://www.topografix.com/GPX/1/1"><trk><trkseg><trkpt lat="45.5772087565925" lon="10.755546014371374"><ele>206.00000000000003</ele><time>2026-04-26T06:41:09.999Z</time></trkpt><trkpt lat="45.57721727851393" lon="10.755649097421141"><ele>206.0</ele><time>2026-04-26T06:41:12.999Z</time></trkpt><trkpt lat="45.577215530673605" lon="10.755758974227907"><ele>206.0</ele><time>2026-04-26T06:41:16.999Z</time></trkpt><trkpt lat="45.57721534187766" lon="10.755857010401124"><ele>206.0</ele><time>2026-04-26T06:41:22.999Z</time></trkpt><trkpt lat="45.577195523308625" lon="10.755972209476335"><ele>206.00000000000003</ele><time>2026-04-26T06:41:38.998Z</time></trkpt><trkpt lat="45.577173112439894" lon="10.756082888749335"><ele>206.0</ele><time>2026-04-26T06:42:36.999Z</time></trkpt><trkpt lat="45.57715457531515" lon="10.756183190804043"><ele>206.00000000000003</ele><time>2026-04-26T06:42:55.999Z</time></trkpt><trkpt lat="45.57712814031961" lon="10.756274560772423"><ele>206.0</ele><time>2026-04-26T06:43:14.999Z</time></trkpt><trkpt lat="45.577096133693544" lon="10.756354075928572"><ele>206.0</ele><time>2026-04-26T06:43:30.999Z</time></trkpt><trkpt lat="45.57703690282338" lon="10.756455685282086"><ele>206.0</ele><time>2026-04-26T06:43:46.998Z</time></trkpt><trkpt lat="45.57698019686217" lon="10.756563757482606"><ele>206.00000000000003</ele><time>2026-04-26T06:43:48.998Z</time></trkpt><trkpt lat="45.5769327616298" lon="10.756640585593379"><ele>206.0</ele><time>2026-04-26T06:43:51.998Z</time></trkpt><trkpt lat="45.57684349809278" lon="10.756743719802111"><ele>206.0</ele><time>2026-04-26T06:43:54.998Z</time></trkpt><trkpt lat="45.576770728716355" lon="10.756782975526052"><ele>206.0</ele><time>2026-04-26T06:43:55.998Z</time></trkpt><trkpt lat="45.57669213448394" lon="10.75681887269219"><ele>206.0</ele><time>2026-04-26T06:43:56.998Z</time></trkpt><trkpt lat="45.57662625071014" lon="10.756831987496678"><ele>206.0</ele><time>2026-04-26T06:43:57.998Z</time></trkpt><trkpt lat="45.57646582697896" lon="10.75689593656004"><ele>206.0</ele><time>2026-04-26T06:43:59.998Z</time></trkpt><trkpt lat="45.576389582528876" lon="10.75692140990743"><ele>206.00000000000003</ele><time>2026-04-26T06:44:00.998Z</time></trkpt><trkpt lat="45.57630959693928" lon="10.756944976710773"><ele>206.0</ele><time>2026-04-26T06:44:01.998Z</time></trkpt><trkpt lat="45.57622209048178" lon="10.756970729977068"><ele>206.0</ele><time>2026-04-26T06:44:02.998Z</time></trkpt><trkpt lat="45.57613757386294" lon="10.757002462920514"><ele>206.0</ele><time>2026-04-26T06:44:03.998Z</time></trkpt><trkpt lat="45.57605024000725" lon="10.75703682682103"><ele>206.00000000000003</ele><time>2026-04-26T06:44:04.998Z</time></trkpt><trkpt lat="45.57595842759977" lon="10.75706830309254"><ele>206.0</ele><time>2026-04-26T06:44:05.998Z</time></trkpt><trkpt lat="45.57585781632803" lon="10.757105116957437"><ele>206.4</ele><time>2026-04-26T06:44:06.998Z</time></trkpt><trkpt lat="45.575756881458325" lon="10.757142524978446"><ele>206.8</ele><time>2026-04-26T06:44:07.998Z</time></trkpt><trkpt lat="45.57565534911777" lon="10.757175854476078"><ele>207.20000000000002</ele><time>2026-04-26T06:44:08.998Z</time></trkpt><trkpt lat="45.57555601834048" lon="10.757207572818652"><ele>207.60000000000002</ele><time>2026-04-26T06:44:09.998Z</time></trkpt><trkpt lat="45.575458415483475" lon="10.757238519865586"><ele>208.0</ele><time>2026-04-26T06:44:10.998Z</time></trkpt><trkpt lat="45.57535910408011" lon="10.757267722416861"><ele>207.8</ele><time>2026-04-26T06:44:11.999Z</time></trkpt><trkpt lat="45.57525987522837" lon="10.75729819385454"><ele>207.60000000000002</ele><time>2026-04-26T06:44:12.999Z</time></trkpt><trkpt lat="45.57516357875968" lon="10.757329818599194"><ele>207.39999999999998</ele><time>2026-04-26T06:44:13.999Z</time></trkpt><trkpt lat="45.57506069002184" lon="10.757364159938426"><ele>207.2</ele><time>2026-04-26T06:44:14.999Z</time></trkpt><trkpt lat="45.57495161356924" lon="10.757396136184878"><ele>207.0</ele><time>2026-04-26T06:44:15.999Z</time></trkpt><trkpt lat="45.57483240512903" lon="10.75743917366085"><ele>207.0</ele><time>2026-04-26T06:44:16.999Z</time></trkpt><trkpt lat="45.57472341454578" lon="10.757476740636838"><ele>207.0</ele><time>2026-04-26T06:44:17.999Z</time></trkpt><trkpt lat="45.57461517607252" lon="10.757513293910122"><ele>207.0</ele><time>2026-04-26T06:44:18.999Z</time></trkpt><trkpt lat="45.57449989206829" lon="10.757551098864687"><ele>207.0</ele><time>2026-04-26T06:44:19.999Z</time></trkpt><trkpt lat="45.57438549778637" lon="10.75759111931161"><ele>206.6</ele><time>2026-04-26T06:44:20.999Z</time></trkpt><trkpt lat="45.57428516114524" lon="10.757625294998103"><ele>206.2</ele><time>2026-04-26T06:44:21.999Z</time></trkpt><trkpt lat="45.574189067326174" lon="10.757664366887873"><ele>205.8</ele><time>2026-04-26T06:44:22.999Z</time></trkpt><trkpt lat="45.5740902007719" lon="10.757695234891331"><ele>205.4</ele><time>2026-04-26T06:44:23.999Z</time></trkpt><trkpt lat="45.57400072796093" lon="10.757723390908"><ele>205.0</ele><time>2026-04-26T06:44:24.999Z</time></trkpt><trkpt lat="45.57391489973174" lon="10.75775032661255"><ele>204.8</ele><time>2026-04-26T06:44:25.999Z</time></trkpt><trkpt lat="45.57381468126658" lon="10.757779951003489"><ele>204.6</ele><time>2026-04-26T06:44:26.999Z</time></trkpt><trkpt lat="45.5737129934986" lon="10.75780987576809"><ele>204.39999999999998</ele><time>2026-04-26T06:44:27.999Z</time></trkpt><trkpt lat="45.57361602313029" lon="10.757841249854211"><ele>204.2</ele><time>2026-04-26T06:44:28.999Z</time></trkpt><trkpt lat="45.57352469685483" lon="10.757871025329402"><ele>204.0</ele><time>2026-04-26T06:44:29.999Z</time></trkpt><trkpt lat="45.57343854933632" lon="10.757898758288295"><ele>204.33333333333334</ele><time>2026-04-26T06:44:30.999Z</time></trkpt><trkpt lat="45.57335263421979" lon="10.757923432208745"><ele>204.66666666666669</ele><time>2026-04-26T06:44:31.999Z</time></trkpt><trkpt lat="45.57326827253078" lon="10.7579439031625"><ele>205.0</ele><time>2026-04-26T06:44:32.999Z</time></trkpt><trkpt lat="45.573193192856614" lon="10.757958642708946"><ele>205.33333333333334</ele><time>2026-04-26T06:44:33.999Z</time></trkpt><trkpt lat="45.57312259802279" lon="10.757976820434141"><ele>205.66666666666669</ele><time>2026-04-26T06:44:34.999Z</time></trkpt><trkpt lat="45.57305970512686" lon="10.757993106463024"><ele>206.0</ele><time>2026-04-26T06:44:35.999Z</time></trkpt><trkpt lat="45.572965656621626" lon="10.758019373488688"><ele>206.0</ele><time>2026-04-26T06:44:37.999Z</time></trkpt><trkpt lat="45.57290000910407" lon="10.758039667815563"><ele>206.0</ele><time>2026-04-26T06:44:39.999Z</time></trkpt><trkpt lat="45.5728082074781" lon="10.758066034161596"><ele>206.0</ele><time>2026-04-26T06:44:42.999Z</time></trkpt><trkpt lat="45.572723121048114" lon="10.758093080095653"><ele>206.0</ele><time>2026-04-26T06:44:44.999Z</time></trkpt><trkpt lat="45.57262737081024" lon="10.758116613787678"><ele>206.0</ele><time>2026-04-26T06:44:46.999Z</time></trkpt><trkpt lat="45.572508998369344" lon="10.758161318100388"><ele>206.16666666666669</ele><time>2026-04-26T06:44:48.999Z</time></trkpt><trkpt lat="45.57244235693996" lon="10.758184919656635"><ele>206.33333333333334</ele><time>2026-04-26T06:44:49.999Z</time></trkpt><trkpt lat="45.57234502950376" lon="10.758219355337136"><ele>206.5</ele><time>2026-04-26T06:44:51.999Z</time></trkpt><trkpt lat="45.57226884472399" lon="10.75825125301107"><ele>206.66666666666669</ele><time>2026-04-26T06:44:53.999Z</time></trkpt><trkpt lat="45.57217574929308" lon="10.758276521316127"><ele>206.83333333333334</ele><time>2026-04-26T06:44:55.999Z</time></trkpt><trkpt lat="45.57207035825931" lon="10.758293199289568"><ele>207.0</ele><time>2026-04-26T06:44:57.999Z</time></trkpt><trkpt lat="45.57195814498417" lon="10.758375485021222"><ele>207.2</ele><time>2026-04-26T06:44:59.999Z</time></trkpt><trkpt lat="45.57189739366964" lon="10.75845025913589"><ele>207.39999999999998</ele><time>2026-04-26T06:45:00.999Z</time></trkpt><trkpt lat="45.57182570752454" lon="10.758532342375869"><ele>207.60000000000002</ele><time>2026-04-26T06:45:01.999Z</time></trkpt><trkpt lat="45.57174769950169" lon="10.758611026904717"><ele>207.8</ele><time>2026-04-26T06:45:02.999Z</time></trkpt><trkpt lat="45.57164923910623" lon="10.758692215172683"><ele>208.0</ele><time>2026-04-26T06:45:03.999Z</time></trkpt><trkpt lat="45.57154797212268" lon="10.758771786137428"><ele>207.75</ele><time>2026-04-26T06:45:04.999Z</time></trkpt><trkpt lat="45.571443594681625" lon="10.758853111971538"><ele>207.5</ele><time>2026-04-26T06:45:05.999Z</time></trkpt><trkpt lat="45.57133475923401" lon="10.758939302105103"><ele>207.25</ele><time>2026-04-26T06:45:06.999Z</time></trkpt><trkpt lat="45.57122872858494" lon="10.759023891200652"><ele>207.0</ele><time>2026-04-26T06:45:07.999Z</time></trkpt><trkpt lat="45.57110846859594" lon="10.759121818134918"><ele>207.0</ele><time>2026-04-26T06:45:08.999Z</time></trkpt><trkpt lat="45.570983644279444" lon="10.759216194015291"><ele>207.0</ele><time>2026-04-26T06:45:09.999Z</time></trkpt><trkpt lat="45.570862241830966" lon="10.759310201682295"><ele>207.0</ele><time>2026-04-26T06:45:10.999Z</time></trkpt><trkpt lat="45.5707455859913" lon="10.759400528349307"><ele>207.0</ele><time>2026-04-26T06:45:11.999Z</time></trkpt><trkpt lat="45.570632540811054" lon="10.759490728734459"><ele>206.2</ele><time>2026-04-26T06:45:12.999Z</time></trkpt><trkpt lat="45.57052538641069" lon="10.759575361952884"><ele>205.39999999999998</ele><time>2026-04-26T06:45:13.999Z</time></trkpt><trkpt lat="45.570424649467206" lon="10.759655939714662"><ele>204.60000000000002</ele><time>2026-04-26T06:45:14.999Z</time></trkpt><trkpt lat="45.57033279225996" lon="10.759730495779833"><ele>203.8</ele><time>2026-04-26T06:45:15.999Z</time></trkpt><trkpt lat="45.570246331812506" lon="10.759797836521395"><ele>203.0</ele><time>2026-04-26T06:45:16.999Z</time></trkpt><trkpt lat="45.570175086896015" lon="10.759855999030538"><ele>202.83333333333334</ele><time>2026-04-26T06:45:17.999Z</time></trkpt><trkpt lat="45.570107375037416" lon="10.759908040122204"><ele>202.66666666666669</ele><time>2026-04-26T06:45:18.999Z</time></trkpt><trkpt lat="45.57005137241649" lon="10.759952483706039"><ele>202.5</ele><time>2026-04-26T06:45:19.999Z</time></trkpt><trkpt lat="45.56995524798819" lon="10.760033587128946"><ele>202.33333333333331</ele><time>2026-04-26T06:45:21.999Z</time></trkpt><trkpt lat="45.569849825984036" lon="10.760116098499775"><ele>202.16666666666666</ele><time>2026-04-26T06:45:23.999Z</time></trkpt><trkpt lat="45.56978286225761" lon="10.760166902703778"><ele>202.0</ele><time>2026-04-26T06:45:24.999Z</time></trkpt><trkpt lat="45.569708535804416" lon="10.760226386067668"><ele>202.0</ele><time>2026-04-26T06:45:25.999Z</time></trkpt><trkpt lat="45.56962660827193" lon="10.760290378581512"><ele>202.0</ele><time>2026-04-26T06:45:26.999Z</time></trkpt><trkpt lat="45.56954311104248" lon="10.760357927864076"><ele>202.0</ele><time>2026-04-26T06:45:27.999Z</time></trkpt><trkpt lat="45.569454073679616" lon="10.760426036812357"><ele>202.0</ele><time>2026-04-26T06:45:28.999Z</time></trkpt><trkpt lat="45.5693580338992" lon="10.760498193342995"><ele>202.0</ele><time>2026-04-26T06:45:29.999Z</time></trkpt><trkpt lat="45.56926360207811" lon="10.760571809448194"><ele>202.0</ele><time>2026-04-26T06:45:30.999Z</time></trkpt><trkpt lat="45.56917356712314" lon="10.76064534247657"><ele>202.0</ele><time>2026-04-26T06:45:31.999Z</time></trkpt><trkpt lat="45.569077574935086" lon="10.760723611632594"><ele>202.0</ele><time>2026-04-26T06:45:32.999Z</time></trkpt><trkpt lat="45.568977154670286" lon="10.76080613788483"><ele>202.0</ele><time>2026-04-26T06:45:33.999Z</time></trkpt><trkpt lat="45.56886891766441" lon="10.760893749555375"><ele>202.0</ele><time>2026-04-26T06:45:34.999Z</time></trkpt><trkpt lat="45.568749302452176" lon="10.760986405096352"><ele>202.0</ele><time>2026-04-26T06:45:35.999Z</time></trkpt><trkpt lat="45.568620015060695" lon="10.761086210869125"><ele>202.0</ele><time>2026-04-26T06:45:36.999Z</time></trkpt><trkpt lat="45.568487683336656" lon="10.761189113334607"><ele>202.0</ele><time>2026-04-26T06:45:37.999Z</time></trkpt><trkpt lat="45.56835129491116" lon="10.761298248767694"><ele>201.33333333333331</ele><time>2026-04-26T06:45:38.999Z</time></trkpt><trkpt lat="45.5682211141248" lon="10.761409457824088"><ele>200.66666666666669</ele><time>2026-04-26T06:45:39.999Z</time></trkpt><trkpt lat="45.56808365613727" lon="10.761514550890556"><ele>200.0</ele><time>2026-04-26T06:45:40.999Z</time></trkpt><trkpt lat="45.56795247694193" lon="10.761618612460628"><ele>200.5</ele><time>2026-04-26T06:45:41.999Z</time></trkpt><trkpt lat="45.5678223169091" lon="10.761724329017728"><ele>201.0</ele><time>2026-04-26T06:45:42.999Z</time></trkpt><trkpt lat="45.56769908029019" lon="10.76182415893442"><ele>201.5</ele><time>2026-04-26T06:45:43.999Z</time></trkpt><trkpt lat="45.56757463976588" lon="10.761920895617203"><ele>202.0</ele><time>2026-04-26T06:45:44.999Z</time></trkpt><trkpt lat="45.56744972687281" lon="10.762019421824709"><ele>201.75</ele><time>2026-04-26T06:45:45.998Z</time></trkpt><trkpt lat="45.56732384660196" lon="10.76212164208391"><ele>201.5</ele><time>2026-04-26T06:45:46.998Z</time></trkpt><trkpt lat="45.567198813241305" lon="10.762222619133386"><ele>201.25</ele><time>2026-04-26T06:45:47.998Z</time></trkpt><trkpt lat="45.56707237225567" lon="10.762321631633773"><ele>201.0</ele><time>2026-04-26T06:45:48.998Z</time></trkpt><trkpt lat="45.5669466087372" lon="10.762419375689419"><ele>201.0</ele><time>2026-04-26T06:45:49.998Z</time></trkpt><trkpt lat="45.566822009110766" lon="10.762513264327415"><ele>201.0</ele><time>2026-04-26T06:45:50.998Z</time></trkpt><trkpt lat="45.5666952670976" lon="10.762600984637874"><ele>201.0</ele><time>2026-04-26T06:45:51.998Z</time></trkpt><trkpt lat="45.56656525153706" lon="10.762687455851696"><ele>201.0</ele><time>2026-04-26T06:45:52.998Z</time></trkpt><trkpt lat="45.56643195523034" lon="10.762765867601098"><ele>200.75</ele><time>2026-04-26T06:45:53.998Z</time></trkpt><trkpt lat="45.5662920780899" lon="10.762842446533734"><ele>200.5</ele><time>2026-04-26T06:45:54.998Z</time></trkpt><trkpt lat="45.56615193088347" lon="10.762906078077021"><ele>200.25</ele><time>2026-04-26T06:45:55.998Z</time></trkpt><trkpt lat="45.56602271550756" lon="10.762953731417369"><ele>200.0</ele><time>2026-04-26T06:45:56.998Z</time></trkpt><trkpt lat="45.565904959006694" lon="10.762989109791942"><ele>200.0</ele><time>2026-04-26T06:45:57.998Z</time></trkpt><trkpt lat="45.56579298963538" lon="10.763016141386032"><ele>200.0</ele><time>2026-04-26T06:45:58.998Z</time></trkpt><trkpt lat="45.56567461977507" lon="10.763043222525013"><ele>200.0</ele><time>2026-04-26T06:45:59.998Z</time></trkpt><trkpt lat="45.5655574914312" lon="10.763066355080245"><ele>200.0</ele><time>2026-04-26T06:46:00.998Z</time></trkpt><trkpt lat="45.565435873008205" lon="10.76309058969621"><ele>200.5</ele><time>2026-04-26T06:46:01.998Z</time></trkpt><trkpt lat="45.565308983676196" lon="10.763115935349616"><ele>201.0</ele><time>2026-04-26T06:46:02.998Z</time></trkpt><trkpt lat="45.56518000920364" lon="10.763142712492865"><ele>201.5</ele><time>2026-04-26T06:46:03.998Z</time></trkpt><trkpt lat="45.5650498367068" lon="10.763170782596855"><ele>202.0</ele><time>2026-04-26T06:46:04.998Z</time></trkpt><trkpt lat="45.56492242052035" lon="10.763198938704786"><ele>202.0</ele><time>2026-04-26T06:46:05.998Z</time></trkpt><trkpt lat="45.56480256044499" lon="10.763227364692188"><ele>202.0</ele><time>2026-04-26T06:46:06.998Z</time></trkpt><trkpt lat="45.56468265205861" lon="10.763258792939123"><ele>202.0</ele><time>2026-04-26T06:46:07.998Z</time></trkpt><trkpt lat="45.564556236640165" lon="10.7633028592353"><ele>202.0</ele><time>2026-04-26T06:46:08.998Z</time></trkpt><trkpt lat="45.56442844769221" lon="10.763358123431736"><ele>202.0</ele><time>2026-04-26T06:46:09.998Z</time></trkpt><trkpt lat="45.56429623480522" lon="10.7634215385657"><ele>202.0</ele><time>2026-04-26T06:46:10.998Z</time></trkpt><trkpt lat="45.56416022425871" lon="10.763491545854771"><ele>202.0</ele><time>2026-04-26T06:46:11.998Z</time></trkpt><trkpt lat="45.564014449187326" lon="10.763567244941632"><ele>202.0</ele><time>2026-04-26T06:46:12.998Z</time></trkpt><trkpt lat="45.56386698030667" lon="10.763641321503725"><ele>201.5</ele><time>2026-04-26T06:46:13.998Z</time></trkpt><trkpt lat="45.56372440538851" lon="10.763713661831106"><ele>201.0</ele><time>2026-04-26T06:46:14.998Z</time></trkpt><trkpt lat="45.5635865357771" lon="10.763779718024278"><ele>200.5</ele><time>2026-04-26T06:46:15.998Z</time></trkpt><trkpt lat="45.563450074771545" lon="10.763849702124533"><ele>200.0</ele><time>2026-04-26T06:46:16.998Z</time></trkpt><trkpt lat="45.56330692432225" lon="10.763920163419058"><ele>199.66666666666669</ele><time>2026-04-26T06:46:17.999Z</time></trkpt><trkpt lat="45.56316240677808" lon="10.763992135249746"><ele>199.33333333333331</ele><time>2026-04-26T06:46:18.999Z</time></trkpt><trkpt lat="45.56300993569035" lon="10.764067560390444"><ele>199.0</ele><time>2026-04-26T06:46:19.999Z</time></trkpt><trkpt lat="45.56285706315594" lon="10.764149505155661"><ele>198.66666666666666</ele><time>2026-04-26T06:46:20.999Z</time></trkpt><trkpt lat="45.56270336840539" lon="10.764232292826469"><ele>198.33333333333331</ele><time>2026-04-26T06:46:21.999Z</time></trkpt><trkpt lat="45.5625604795291" lon="10.764309106689224"><ele>198.0</ele><time>2026-04-26T06:46:22.999Z</time></trkpt><trkpt lat="45.56242716833206" lon="10.764381198907024"><ele>198.0</ele><time>2026-04-26T06:46:23.999Z</time></trkpt><trkpt lat="45.5622926709161" lon="10.764454320643434"><ele>198.0</ele><time>2026-04-26T06:46:24.999Z</time></trkpt><trkpt lat="45.56216289471931" lon="10.764524902097644"><ele>198.0</ele><time>2026-04-26T06:46:25.999Z</time></trkpt><trkpt lat="45.562042380694294" lon="10.76459621195041"><ele>198.0</ele><time>2026-04-26T06:46:26.999Z</time></trkpt><trkpt lat="45.56192963821578" lon="10.764670273220919"><ele>198.5</ele><time>2026-04-26T06:46:27.999Z</time></trkpt><trkpt lat="45.561837934148066" lon="10.764745683426742"><ele>199.0</ele><time>2026-04-26T06:46:28.999Z</time></trkpt><trkpt lat="45.56175567308951" lon="10.764824890285443"><ele>199.5</ele><time>2026-04-26T06:46:29.999Z</time></trkpt><trkpt lat="45.56168764402092" lon="10.76489501441609"><ele>200.0</ele><time>2026-04-26T06:46:30.999Z</time></trkpt><trkpt lat="45.561636194419776" lon="10.764949766898518"><ele>200.5</ele><time>2026-04-26T06:46:31.999Z</time></trkpt><trkpt lat="45.56156931923509" lon="10.765016812695277"><ele>201.0</ele><time>2026-04-26T06:46:34.999Z</time></trkpt><trkpt lat="45.561491716193494" lon="10.765040531452083"><ele>201.0</ele><time>2026-04-26T06:46:37.999Z</time></trkpt><trkpt lat="45.56148350462696" lon="10.764864990855612"><ele>201.0</ele><time>2026-04-26T06:46:40.999Z</time></trkpt><trkpt lat="45.56148382502317" lon="10.764760385092371"><ele>201.0</ele><time>2026-04-26T06:46:41.999Z</time></trkpt><trkpt lat="45.561487140254684" lon="10.764642187112653"><ele>201.0</ele><time>2026-04-26T06:46:42.999Z</time></trkpt><trkpt lat="45.56149175066336" lon="10.764512849317647"><ele>201.0</ele><time>2026-04-26T06:46:43.999Z</time></trkpt><trkpt lat="45.561480988077385" lon="10.764382833030655"><ele>201.20000000000002</ele><time>2026-04-26T06:46:44.999Z</time></trkpt><trkpt lat="45.56149403832362" lon="10.76426115822398"><ele>201.4</ele><time>2026-04-26T06:46:45.999Z</time></trkpt><trkpt lat="45.561523370895706" lon="10.764129036747814"><ele>201.6</ele><time>2026-04-26T06:46:46.999Z</time></trkpt><trkpt lat="45.561535282619445" lon="10.76398930853259"><ele>201.8</ele><time>2026-04-26T06:46:47.999Z</time></trkpt><trkpt lat="45.56150551930302" lon="10.763792520847522"><ele>202.0</ele><time>2026-04-26T06:46:48.999Z</time></trkpt><trkpt lat="45.56150135887752" lon="10.763611996202554"><ele>202.25</ele><time>2026-04-26T06:46:49.999Z</time></trkpt><trkpt lat="45.561492342688716" lon="10.763422508852393"><ele>202.5</ele><time>2026-04-26T06:46:50.999Z</time></trkpt><trkpt lat="45.56148382595983" lon="10.763237399053134"><ele>202.75</ele><time>2026-04-26T06:46:51.999Z</time></trkpt><trkpt lat="45.561473991494566" lon="10.76304439360143"><ele>203.0</ele><time>2026-04-26T06:46:52.999Z</time></trkpt><trkpt lat="45.561456258581956" lon="10.762864158837429"><ele>204.0</ele><time>2026-04-26T06:46:53.999Z</time></trkpt><trkpt lat="45.56141739769792" lon="10.762683787378197"><ele>205.0</ele><time>2026-04-26T06:46:54.999Z</time></trkpt><trkpt lat="45.561377459429" lon="10.762503263773807"><ele>206.0</ele><time>2026-04-26T06:46:55.999Z</time></trkpt><trkpt lat="45.561336158683375" lon="10.762322063011432"><ele>207.0</ele><time>2026-04-26T06:46:56.999Z</time></trkpt><trkpt lat="45.56129026272976" lon="10.762134503291497"><ele>207.0</ele><time>2026-04-26T06:46:57.999Z</time></trkpt><trkpt lat="45.56124837157923" lon="10.761952228919439"><ele>207.0</ele><time>2026-04-26T06:46:58.999Z</time></trkpt><trkpt lat="45.561212584139376" lon="10.761780730163773"><ele>207.0</ele><time>2026-04-26T06:46:59.999Z</time></trkpt><trkpt lat="45.56117705420931" lon="10.761613637669155"><ele>207.0</ele><time>2026-04-26T06:47:00.999Z</time></trkpt><trkpt lat="45.561138908899586" lon="10.761449248083268"><ele>210.8</ele><time>2026-04-26T06:47:01.999Z</time></trkpt><trkpt lat="45.561099202546124" lon="10.761287562272654"><ele>214.6</ele><time>2026-04-26T06:47:02.999Z</time></trkpt><trkpt lat="45.56105940571065" lon="10.761141228658097"><ele>218.40000000000003</ele><time>2026-04-26T06:47:03.999Z</time></trkpt><trkpt lat="45.561024117684184" lon="10.760997613746127"><ele>222.20000000000002</ele><time>2026-04-26T06:47:04.999Z</time></trkpt><trkpt lat="45.561003059587314" lon="10.760860816821761"><ele>226.0</ele><time>2026-04-26T06:47:05.999Z</time></trkpt><trkpt lat="45.5609818864754" lon="10.76074467850916"><ele>225.99999999999997</ele><time>2026-04-26T06:47:06.999Z</time></trkpt><trkpt lat="45.56096153285637" lon="10.760649764366763"><ele>226.0</ele><time>2026-04-26T06:47:07.999Z</time></trkpt><trkpt lat="45.56095657229988" lon="10.760513329701979"><ele>226.0</ele><time>2026-04-26T06:47:08.999Z</time></trkpt><trkpt lat="45.560949235669085" lon="10.76040085895021"><ele>226.0</ele><time>2026-04-26T06:47:10.999Z</time></trkpt><trkpt lat="45.56093575748505" lon="10.760292404290258"><ele>225.99999999999997</ele><time>2026-04-26T06:47:12.999Z</time></trkpt><trkpt lat="45.56089601750984" lon="10.760130552395593"><ele>226.0</ele><time>2026-04-26T06:47:14.999Z</time></trkpt><trkpt lat="45.56085158210209" lon="10.760031958904982"><ele>224.4</ele><time>2026-04-26T06:47:15.999Z</time></trkpt><trkpt lat="45.560795628884776" lon="10.759925711792546"><ele>222.8</ele><time>2026-04-26T06:47:16.999Z</time></trkpt><trkpt lat="45.56072802338255" lon="10.759809764933912"><ele>221.20000000000002</ele><time>2026-04-26T06:47:17.999Z</time></trkpt><trkpt lat="45.5606527776621" lon="10.759687321286284"><ele>219.60000000000002</ele><time>2026-04-26T06:47:18.999Z</time></trkpt><trkpt lat="45.560570034040104" lon="10.759553058165613"><ele>218.0</ele><time>2026-04-26T06:47:19.999Z</time></trkpt><trkpt lat="45.560484075542234" lon="10.759413123410788"><ele>216.75</ele><time>2026-04-26T06:47:20.999Z</time></trkpt><trkpt lat="45.560394666188024" lon="10.759267570881528"><ele>215.5</ele><time>2026-04-26T06:47:21.999Z</time></trkpt><trkpt lat="45.56030431448249" lon="10.759116405281787"><ele>214.25</ele><time>2026-04-26T06:47:22.999Z</time></trkpt><trkpt lat="45.56021248274169" lon="10.758963460486973"><ele>213.0</ele><time>2026-04-26T06:47:23.999Z</time></trkpt><trkpt lat="45.56011753360733" lon="10.758810110635205"><ele>213.5</ele><time>2026-04-26T06:47:24.999Z</time></trkpt><trkpt lat="45.56002015222771" lon="10.75865827321707"><ele>214.0</ele><time>2026-04-26T06:47:25.999Z</time></trkpt><trkpt lat="45.559917627728936" lon="10.758504603570843"><ele>214.5</ele><time>2026-04-26T06:47:26.999Z</time></trkpt><trkpt lat="45.55982024314798" lon="10.758365497106613"><ele>215.0</ele><time>2026-04-26T06:47:27.999Z</time></trkpt><trkpt lat="45.55971718990832" lon="10.7582448630046"><ele>215.0</ele><time>2026-04-26T06:47:28.999Z</time></trkpt><trkpt lat="45.55963522728654" lon="10.758094013893174"><ele>215.0</ele><time>2026-04-26T06:47:29.999Z</time></trkpt><trkpt lat="45.55954949533785" lon="10.757966307544471"><ele>215.0</ele><time>2026-04-26T06:47:30.999Z</time></trkpt><trkpt lat="45.559455824496446" lon="10.757828766807146"><ele>215.0</ele><time>2026-04-26T06:47:31.999Z</time></trkpt><trkpt lat="45.55935921601829" lon="10.757714697215453"><ele>217.75</ele><time>2026-04-26T06:47:32.999Z</time></trkpt><trkpt lat="45.559273359818704" lon="10.757583412675663"><ele>220.5</ele><time>2026-04-26T06:47:33.999Z</time></trkpt><trkpt lat="45.55918738294114" lon="10.757436888747263"><ele>223.25</ele><time>2026-04-26T06:47:34.999Z</time></trkpt><trkpt lat="45.55910004105323" lon="10.75727404754114"><ele>226.0</ele><time>2026-04-26T06:47:35.999Z</time></trkpt><trkpt lat="45.55901913978745" lon="10.757081971002343"><ele>226.0</ele><time>2026-04-26T06:47:36.999Z</time></trkpt><trkpt lat="45.558947181992416" lon="10.756882277703534"><ele>226.0</ele><time>2026-04-26T06:47:37.999Z</time></trkpt><trkpt lat="45.55886910590037" lon="10.756685971969786"><ele>226.0</ele><time>2026-04-26T06:47:38.999Z</time></trkpt><trkpt lat="45.558802176693675" lon="10.756490253205984"><ele>226.33333333333331</ele><time>2026-04-26T06:47:39.999Z</time></trkpt><trkpt lat="45.558736336417525" lon="10.75630253363497"><ele>226.66666666666669</ele><time>2026-04-26T06:47:40.999Z</time></trkpt><trkpt lat="45.558660833760875" lon="10.756115838431858"><ele>227.0</ele><time>2026-04-26T06:47:41.999Z</time></trkpt><trkpt lat="45.55857405274451" lon="10.755927432253712"><ele>227.0</ele><time>2026-04-26T06:47:42.999Z</time></trkpt><trkpt lat="45.5584878054552" lon="10.755737998375757"><ele>227.0</ele><time>2026-04-26T06:47:43.999Z</time></trkpt><trkpt lat="45.558401690085475" lon="10.755544334820316"><ele>227.0</ele><time>2026-04-26T06:47:44.999Z</time></trkpt><trkpt lat="45.55833751566591" lon="10.755340142052711"><ele>227.5</ele><time>2026-04-26T06:47:45.999Z</time></trkpt><trkpt lat="45.55826418432828" lon="10.755141008386255"><ele>228.0</ele><time>2026-04-26T06:47:46.999Z</time></trkpt><trkpt lat="45.558190430182584" lon="10.754951652390876"><ele>228.5</ele><time>2026-04-26T06:47:47.999Z</time></trkpt><trkpt lat="45.55811957367956" lon="10.754787170235868"><ele>229.0</ele><time>2026-04-26T06:47:48.999Z</time></trkpt><trkpt lat="45.55805755100335" lon="10.754632578801752"><ele>229.0</ele><time>2026-04-26T06:47:49.999Z</time></trkpt><trkpt lat="45.558008299011306" lon="10.75448731554532"><ele>229.0</ele><time>2026-04-26T06:47:50.999Z</time></trkpt><trkpt lat="45.557981589557976" lon="10.754327526405927"><ele>229.0</ele><time>2026-04-26T06:47:51.999Z</time></trkpt><trkpt lat="45.55798339557057" lon="10.754144111571431"><ele>229.0</ele><time>2026-04-26T06:47:52.999Z</time></trkpt><trkpt lat="45.55796079996505" lon="10.7539522507614"><ele>229.25</ele><time>2026-04-26T06:47:53.999Z</time></trkpt><trkpt lat="45.55789517694398" lon="10.75377561978477"><ele>229.5</ele><time>2026-04-26T06:47:54.998Z</time></trkpt><trkpt lat="45.557837309321286" lon="10.753597091658428"><ele>229.75</ele><time>2026-04-26T06:47:55.998Z</time></trkpt><trkpt lat="45.557726788374694" lon="10.753458344917394"><ele>230.0</ele><time>2026-04-26T06:47:56.998Z</time></trkpt><trkpt lat="45.55762239724741" lon="10.753314716499803"><ele>229.25</ele><time>2026-04-26T06:47:57.998Z</time></trkpt><trkpt lat="45.55750876349467" lon="10.753173273321732"><ele>228.5</ele><time>2026-04-26T06:47:58.998Z</time></trkpt><trkpt lat="45.55739118080868" lon="10.753037604730162"><ele>227.75</ele><time>2026-04-26T06:47:59.998Z</time></trkpt><trkpt lat="45.55729473807861" lon="10.752897606790752"><ele>227.0</ele><time>2026-04-26T06:48:00.998Z</time></trkpt><trkpt lat="45.55719502723673" lon="10.752802024400674"><ele>227.0</ele><time>2026-04-26T06:48:01.998Z</time></trkpt><trkpt lat="45.55709451699901" lon="10.75273453033626"><ele>227.0</ele><time>2026-04-26T06:48:02.998Z</time></trkpt><trkpt lat="45.556988007703495" lon="10.752632397643575"><ele>227.0</ele><time>2026-04-26T06:48:03.998Z</time></trkpt><trkpt lat="45.55688194398732" lon="10.752549906506252"><ele>227.0</ele><time>2026-04-26T06:48:04.998Z</time></trkpt><trkpt lat="45.55678151244199" lon="10.752446769854492"><ele>227.5</ele><time>2026-04-26T06:48:05.998Z</time></trkpt><trkpt lat="45.556675468794545" lon="10.752368680146413"><ele>228.0</ele><time>2026-04-26T06:48:06.998Z</time></trkpt><trkpt lat="45.55655482181662" lon="10.7523327520083"><ele>228.5</ele><time>2026-04-26T06:48:07.998Z</time></trkpt><trkpt lat="45.55643021049507" lon="10.752292917931502"><ele>229.0</ele><time>2026-04-26T06:48:08.998Z</time></trkpt><trkpt lat="45.5563044893252" lon="10.752253312706676"><ele>230.0</ele><time>2026-04-26T06:48:09.998Z</time></trkpt><trkpt lat="45.55618526705705" lon="10.752188473443738"><ele>231.0</ele><time>2026-04-26T06:48:10.998Z</time></trkpt><trkpt lat="45.55605184897997" lon="10.752158754312061"><ele>232.0</ele><time>2026-04-26T06:48:11.998Z</time></trkpt><trkpt lat="45.555950177155935" lon="10.752090002049636"><ele>233.0</ele><time>2026-04-26T06:48:12.998Z</time></trkpt><trkpt lat="45.55585680652179" lon="10.752029562524921"><ele>233.0</ele><time>2026-04-26T06:48:13.998Z</time></trkpt><trkpt lat="45.555767778367866" lon="10.751965660720376"><ele>233.0</ele><time>2026-04-26T06:48:14.998Z</time></trkpt><trkpt lat="45.55568663625131" lon="10.751900411173747"><ele>233.0</ele><time>2026-04-26T06:48:15.998Z</time></trkpt><trkpt lat="45.55561643886702" lon="10.751827389010167"><ele>233.0</ele><time>2026-04-26T06:48:16.998Z</time></trkpt><trkpt lat="45.55556744249084" lon="10.751707817341822"><ele>233.0</ele><time>2026-04-26T06:48:18.998Z</time></trkpt><trkpt lat="45.555566098150294" lon="10.75159794039638"><ele>233.66666666666669</ele><time>2026-04-26T06:48:21.998Z</time></trkpt><trkpt lat="45.555561846285364" lon="10.751507986111607"><ele>234.33333333333334</ele><time>2026-04-26T06:48:24.999Z</time></trkpt><trkpt lat="45.55558096916717" lon="10.7515938001337"><ele>235.0</ele><time>2026-04-26T06:48:26.999Z</time></trkpt><trkpt lat="45.55559832125258" lon="10.75168096241646"><ele>235.66666666666669</ele><time>2026-04-26T06:48:28.999Z</time></trkpt><trkpt lat="45.55553868823486" lon="10.75154893248977"><ele>236.33333333333334</ele><time>2026-04-26T06:48:29.999Z</time></trkpt><trkpt lat="45.555581138339164" lon="10.751640976141749"><ele>237.0</ele><time>2026-04-26T06:49:13.999Z</time></trkpt><trkpt lat="45.55571405772117" lon="10.751676406582908"><ele>237.0</ele><time>2026-04-26T06:49:15.999Z</time></trkpt><trkpt lat="45.55580398485314" lon="10.751688593176532"><ele>237.0</ele><time>2026-04-26T06:49:17.999Z</time></trkpt><trkpt lat="45.55592388065169" lon="10.751666516800364"><ele>237.0</ele><time>2026-04-26T06:49:19.999Z</time></trkpt><trkpt lat="45.55598702119712" lon="10.751651766620876"><ele>237.0</ele><time>2026-04-26T06:49:20.999Z</time></trkpt><trkpt lat="45.556053476169126" lon="10.75162771393471"><ele>237.0</ele><time>2026-04-26T06:49:21.999Z</time></trkpt><trkpt lat="45.55611574925111" lon="10.751598049171822"><ele>237.0</ele><time>2026-04-26T06:49:22.999Z</time></trkpt><trkpt lat="45.55621672954398" lon="10.751526141756418"><ele>236.6</ele><time>2026-04-26T06:49:24.999Z</time></trkpt><trkpt lat="45.55632016907662" lon="10.751456410418557"><ele>236.2</ele><time>2026-04-26T06:49:26.999Z</time></trkpt><trkpt lat="45.55640829036235" lon="10.751465308345345"><ele>235.8</ele><time>2026-04-26T06:49:27.999Z</time></trkpt><trkpt lat="45.556497368341084" lon="10.751449389833843"><ele>235.4</ele><time>2026-04-26T06:49:28.999Z</time></trkpt><trkpt lat="45.55658939779539" lon="10.75143294385268"><ele>235.0</ele><time>2026-04-26T06:49:29.999Z</time></trkpt><trkpt lat="45.556689678422394" lon="10.751415023377543"><ele>235.0</ele><time>2026-04-26T06:49:30.999Z</time></trkpt><trkpt lat="45.55678105174994" lon="10.751398694650112"><ele>235.0</ele><time>2026-04-26T06:49:31.999Z</time></trkpt><trkpt lat="45.556864405526795" lon="10.751383108966028"><ele>235.0</ele><time>2026-04-26T06:49:32.999Z</time></trkpt><trkpt lat="45.55695171306571" lon="10.751365104054758"><ele>235.0</ele><time>2026-04-26T06:49:33.999Z</time></trkpt><trkpt lat="45.55704925822245" lon="10.751329367707086"><ele>235.0</ele><time>2026-04-26T06:49:34.999Z</time></trkpt><trkpt lat="45.557151857619864" lon="10.751311159499348"><ele>234.4</ele><time>2026-04-26T06:49:35.999Z</time></trkpt><trkpt lat="45.55727045291836" lon="10.751281786827493"><ele>233.8</ele><time>2026-04-26T06:49:36.999Z</time></trkpt><trkpt lat="45.557373869976786" lon="10.7512694906065"><ele>233.2</ele><time>2026-04-26T06:49:37.999Z</time></trkpt><trkpt lat="45.557473470937374" lon="10.75126439940493"><ele>232.6</ele><time>2026-04-26T06:49:38.999Z</time></trkpt><trkpt lat="45.55756491308525" lon="10.751286259298102"><ele>232.0</ele><time>2026-04-26T06:49:39.999Z</time></trkpt><trkpt lat="45.557666089297655" lon="10.751295060435417"><ele>232.0</ele><time>2026-04-26T06:49:40.999Z</time></trkpt><trkpt lat="45.55776197375478" lon="10.751306586155609"><ele>232.0</ele><time>2026-04-26T06:49:41.999Z</time></trkpt><trkpt lat="45.55786958640783" lon="10.751338181783023"><ele>232.0</ele><time>2026-04-26T06:49:42.999Z</time></trkpt><trkpt lat="45.55798743874864" lon="10.751370981312112"><ele>232.0</ele><time>2026-04-26T06:49:43.999Z</time></trkpt><trkpt lat="45.5581039130131" lon="10.751422824718075"><ele>232.0</ele><time>2026-04-26T06:49:44.999Z</time></trkpt><trkpt lat="45.558214613148664" lon="10.751473981743775"><ele>233.2</ele><time>2026-04-26T06:49:45.999Z</time></trkpt><trkpt lat="45.55831370594815" lon="10.751537769048554"><ele>234.39999999999998</ele><time>2026-04-26T06:49:46.999Z</time></trkpt><trkpt lat="45.55840661106804" lon="10.751602013538184"><ele>235.60000000000002</ele><time>2026-04-26T06:49:47.999Z</time></trkpt><trkpt lat="45.558495002180535" lon="10.751678339431615"><ele>236.8</ele><time>2026-04-26T06:49:48.999Z</time></trkpt><trkpt lat="45.55857944343767" lon="10.751768423136365"><ele>238.0</ele><time>2026-04-26T06:49:49.999Z</time></trkpt><trkpt lat="45.55865832958591" lon="10.751862654113923"><ele>237.25</ele><time>2026-04-26T06:49:50.999Z</time></trkpt><trkpt lat="45.558752323292936" lon="10.751952137604908"><ele>236.5</ele><time>2026-04-26T06:49:51.999Z</time></trkpt><trkpt lat="45.558853467884084" lon="10.75203749793784"><ele>235.75</ele><time>2026-04-26T06:49:52.999Z</time></trkpt><trkpt lat="45.55896025078652" lon="10.752116886113335"><ele>235.0</ele><time>2026-04-26T06:49:53.999Z</time></trkpt><trkpt lat="45.55907207399009" lon="10.752207831261767"><ele>235.0</ele><time>2026-04-26T06:49:54.999Z</time></trkpt><trkpt lat="45.5591788442884" lon="10.752308908302767"><ele>235.0</ele><time>2026-04-26T06:49:55.999Z</time></trkpt><trkpt lat="45.55927533282553" lon="10.752408662822713"><ele>235.0</ele><time>2026-04-26T06:49:56.999Z</time></trkpt><trkpt lat="45.55936584369159" lon="10.752511244053323"><ele>235.0</ele><time>2026-04-26T06:49:57.999Z</time></trkpt><trkpt lat="45.559466421432056" lon="10.752609601245402"><ele>234.0</ele><time>2026-04-26T06:49:58.999Z</time></trkpt><trkpt lat="45.559577972753786" lon="10.752700730547835"><ele>233.0</ele><time>2026-04-26T06:49:59.999Z</time></trkpt><trkpt lat="45.559712781909134" lon="10.7528045325504"><ele>232.0</ele><time>2026-04-26T06:50:00.999Z</time></trkpt><trkpt lat="45.5598398907358" lon="10.752890786693758"><ele>231.0</ele><time>2026-04-26T06:50:01.999Z</time></trkpt><trkpt lat="45.55995437618803" lon="10.75297623218042"><ele>231.0</ele><time>2026-04-26T06:50:02.999Z</time></trkpt><trkpt lat="45.56008304801199" lon="10.753035570289011"><ele>231.0</ele><time>2026-04-26T06:50:03.999Z</time></trkpt><trkpt lat="45.56020969397603" lon="10.7530712878143"><ele>231.0</ele><time>2026-04-26T06:50:04.999Z</time></trkpt><trkpt lat="45.560331964115235" lon="10.753103004066029"><ele>231.0</ele><time>2026-04-26T06:50:05.999Z</time></trkpt><trkpt lat="45.56045573970695" lon="10.753115774566183"><ele>232.0</ele><time>2026-04-26T06:50:06.998Z</time></trkpt><trkpt lat="45.560570638612894" lon="10.753122385618424"><ele>233.00000000000003</ele><time>2026-04-26T06:50:07.998Z</time></trkpt><trkpt lat="45.56067119861618" lon="10.75311676654387"><ele>234.00000000000003</ele><time>2026-04-26T06:50:08.998Z</time></trkpt><trkpt lat="45.5607614271619" lon="10.753120900560647"><ele>235.0</ele><time>2026-04-26T06:50:09.998Z</time></trkpt><trkpt lat="45.56082839787098" lon="10.753131034471474"><ele>236.0</ele><time>2026-04-26T06:50:10.998Z</time></trkpt><trkpt lat="45.56090344419219" lon="10.753162292775867"><ele>236.00000000000003</ele><time>2026-04-26T06:50:11.998Z</time></trkpt><trkpt lat="45.5610028327986" lon="10.753214962022481"><ele>236.0</ele><time>2026-04-26T06:50:12.998Z</time></trkpt><trkpt lat="45.56110264699906" lon="10.753259841751758"><ele>236.0</ele><time>2026-04-26T06:50:13.998Z</time></trkpt><trkpt lat="45.561180907353354" lon="10.753291737235127"><ele>236.0</ele><time>2026-04-26T06:50:14.998Z</time></trkpt><trkpt lat="45.56124694505068" lon="10.753322679383896"><ele>236.00000000000003</ele><time>2026-04-26T06:50:15.998Z</time></trkpt><trkpt lat="45.56131660342873" lon="10.753378875858328"><ele>236.0</ele><time>2026-04-26T06:50:16.998Z</time></trkpt><trkpt lat="45.56140514960638" lon="10.753470979752459"><ele>234.60000000000002</ele><time>2026-04-26T06:50:17.998Z</time></trkpt><trkpt lat="45.56150282992726" lon="10.753562594523004"><ele>233.20000000000002</ele><time>2026-04-26T06:50:18.998Z</time></trkpt><trkpt lat="45.56160569210581" lon="10.753623984571574"><ele>231.79999999999998</ele><time>2026-04-26T06:50:19.998Z</time></trkpt><trkpt lat="45.56169408664559" lon="10.753652150033393"><ele>230.39999999999998</ele><time>2026-04-26T06:50:20.998Z</time></trkpt><trkpt lat="45.56178188056159" lon="10.753666974878639"><ele>229.0</ele><time>2026-04-26T06:50:21.998Z</time></trkpt><trkpt lat="45.561879048087754" lon="10.75367173539919"><ele>229.0</ele><time>2026-04-26T06:50:22.998Z</time></trkpt><trkpt lat="45.56199913727679" lon="10.75366517798993"><ele>228.99999999999997</ele><time>2026-04-26T06:50:23.998Z</time></trkpt><trkpt lat="45.56211865753177" lon="10.75364851571212"><ele>228.99999999999997</ele><time>2026-04-26T06:50:24.998Z</time></trkpt><trkpt lat="45.56220968102572" lon="10.7536369031543"><ele>229.0</ele><time>2026-04-26T06:50:25.998Z</time></trkpt><trkpt lat="45.562290474685724" lon="10.753626751178667"><ele>229.0</ele><time>2026-04-26T06:50:26.998Z</time></trkpt><trkpt lat="45.562375031600524" lon="10.753633192646987"><ele>229.79999999999998</ele><time>2026-04-26T06:50:27.998Z</time></trkpt><trkpt lat="45.562460731951994" lon="10.753649654564555"><ele>230.59999999999997</ele><time>2026-04-26T06:50:28.998Z</time></trkpt><trkpt lat="45.562557541685315" lon="10.753682024317456"><ele>231.4</ele><time>2026-04-26T06:50:29.999Z</time></trkpt><trkpt lat="45.56265014535522" lon="10.753715306188585"><ele>232.2</ele><time>2026-04-26T06:50:30.999Z</time></trkpt><trkpt lat="45.562741185313165" lon="10.75375081689594"><ele>233.0</ele><time>2026-04-26T06:50:31.999Z</time></trkpt><trkpt lat="45.56282127259209" lon="10.753772249387167"><ele>233.8</ele><time>2026-04-26T06:50:32.999Z</time></trkpt><trkpt lat="45.5629011539925" lon="10.753774545978128"><ele>234.60000000000002</ele><time>2026-04-26T06:50:33.999Z</time></trkpt><trkpt lat="45.56299471977605" lon="10.753755068825685"><ele>235.39999999999998</ele><time>2026-04-26T06:50:34.999Z</time></trkpt><trkpt lat="45.563087375416536" lon="10.753713836024618"><ele>236.2</ele><time>2026-04-26T06:50:35.999Z</time></trkpt><trkpt lat="45.56318113356696" lon="10.753653061324767"><ele>237.0</ele><time>2026-04-26T06:50:36.999Z</time></trkpt><trkpt lat="45.56326966934653" lon="10.753597843928059"><ele>239.16666666666666</ele><time>2026-04-26T06:50:37.999Z</time></trkpt><trkpt lat="45.56333018021898" lon="10.753491900245978"><ele>241.33333333333331</ele><time>2026-04-26T06:50:38.999Z</time></trkpt><trkpt lat="45.56340203833995" lon="10.753413054644941"><ele>243.5</ele><time>2026-04-26T06:50:39.999Z</time></trkpt><trkpt lat="45.563457172097245" lon="10.753302754627915"><ele>245.66666666666666</ele><time>2026-04-26T06:50:40.999Z</time></trkpt><trkpt lat="45.563492262874725" lon="10.753200924293251"><ele>247.83333333333331</ele><time>2026-04-26T06:50:41.999Z</time></trkpt><trkpt lat="45.56355913248988" lon="10.753144686557969"><ele>250.0</ele><time>2026-04-26T06:50:42.999Z</time></trkpt><trkpt lat="45.56363658712986" lon="10.753101122564644"><ele>250.0</ele><time>2026-04-26T06:50:43.999Z</time></trkpt><trkpt lat="45.56366731783694" lon="10.75299514756246"><ele>250.0</ele><time>2026-04-26T06:50:44.999Z</time></trkpt><trkpt lat="45.56366034462017" lon="10.752865442140449"><ele>250.0</ele><time>2026-04-26T06:50:45.999Z</time></trkpt><trkpt lat="45.56364365782365" lon="10.752762454035192"><ele>250.0</ele><time>2026-04-26T06:50:46.999Z</time></trkpt><trkpt lat="45.56366415130432" lon="10.752632700108347"><ele>250.0</ele><time>2026-04-26T06:50:48.999Z</time></trkpt><trkpt lat="45.56376904804352" lon="10.752717499518013"><ele>251.2</ele><time>2026-04-26T06:50:50.999Z</time></trkpt><trkpt lat="45.563802719351386" lon="10.752840249878089"><ele>252.4</ele><time>2026-04-26T06:50:51.999Z</time></trkpt><trkpt lat="45.56381545347496" lon="10.753019155927992"><ele>253.60000000000002</ele><time>2026-04-26T06:50:52.999Z</time></trkpt><trkpt lat="45.563828173384614" lon="10.753177261550466"><ele>254.8</ele><time>2026-04-26T06:50:53.999Z</time></trkpt><trkpt lat="45.5639123838794" lon="10.75324920988231"><ele>256.0</ele><time>2026-04-26T06:50:55.999Z</time></trkpt><trkpt lat="45.56399340582768" lon="10.753116359747347"><ele>256.0</ele><time>2026-04-26T06:50:57.999Z</time></trkpt><trkpt lat="45.56394028091286" lon="10.752920735502006"><ele>256.0</ele><time>2026-04-26T06:50:58.999Z</time></trkpt><trkpt lat="45.563920029763864" lon="10.752704669289693"><ele>256.0</ele><time>2026-04-26T06:50:59.999Z</time></trkpt><trkpt lat="45.563885641709156" lon="10.752488193729173"><ele>257.0</ele><time>2026-04-26T06:51:00.999Z</time></trkpt><trkpt lat="45.56386445271097" lon="10.752316530682174"><ele>258.0</ele><time>2026-04-26T06:51:01.999Z</time></trkpt><trkpt lat="45.56386963467334" lon="10.752200191099371"><ele>259.0</ele><time>2026-04-26T06:51:02.999Z</time></trkpt><trkpt lat="45.56391025220821" lon="10.752088896533962"><ele>260.0</ele><time>2026-04-26T06:51:03.999Z</time></trkpt><trkpt lat="45.56396440825973" lon="10.751973043020826"><ele>261.0</ele><time>2026-04-26T06:51:04.999Z</time></trkpt><trkpt lat="45.56407153309667" lon="10.751895031487015"><ele>263.0</ele><time>2026-04-26T06:51:05.999Z</time></trkpt><trkpt lat="45.56417559219713" lon="10.751834363663411"><ele>265.0</ele><time>2026-04-26T06:51:06.999Z</time></trkpt><trkpt lat="45.564278060365304" lon="10.75176909851551"><ele>267.0</ele><time>2026-04-26T06:51:07.999Z</time></trkpt><trkpt lat="45.56440731086298" lon="10.751685999044962"><ele>269.0</ele><time>2026-04-26T06:51:08.999Z</time></trkpt><trkpt lat="45.564546911942834" lon="10.751563711340085"><ele>270.75</ele><time>2026-04-26T06:51:09.999Z</time></trkpt><trkpt lat="45.5646595909618" lon="10.751464487530006"><ele>272.5</ele><time>2026-04-26T06:51:10.999Z</time></trkpt><trkpt lat="45.56474879922849" lon="10.75134278810648"><ele>274.25</ele><time>2026-04-26T06:51:11.999Z</time></trkpt><trkpt lat="45.56482139323368" lon="10.751204437253568"><ele>276.0</ele><time>2026-04-26T06:51:12.999Z</time></trkpt><trkpt lat="45.5649006071886" lon="10.751079623413071"><ele>275.8</ele><time>2026-04-26T06:51:13.999Z</time></trkpt><trkpt lat="45.56497293329039" lon="10.75097334381167"><ele>275.6</ele><time>2026-04-26T06:51:14.999Z</time></trkpt><trkpt lat="45.56506351275249" lon="10.75090389650197"><ele>275.4</ele><time>2026-04-26T06:51:15.999Z</time></trkpt><trkpt lat="45.56516854862953" lon="10.750838053260283"><ele>275.2</ele><time>2026-04-26T06:51:16.999Z</time></trkpt><trkpt lat="45.5652803233335" lon="10.750806129545595"><ele>275.0</ele><time>2026-04-26T06:51:17.999Z</time></trkpt><trkpt lat="45.56538944509784" lon="10.750755172136147"><ele>274.6</ele><time>2026-04-26T06:51:18.999Z</time></trkpt><trkpt lat="45.56547744001668" lon="10.75067206267934"><ele>274.2</ele><time>2026-04-26T06:51:19.999Z</time></trkpt><trkpt lat="45.565563955411484" lon="10.750580867231001"><ele>273.8</ele><time>2026-04-26T06:51:20.999Z</time></trkpt><trkpt lat="45.56563633402825" lon="10.750491538402377"><ele>273.4</ele><time>2026-04-26T06:51:21.999Z</time></trkpt><trkpt lat="45.565710415397675" lon="10.750441724276113"><ele>273.0</ele><time>2026-04-26T06:51:22.999Z</time></trkpt><trkpt lat="45.565766023754996" lon="10.750384424505507"><ele>273.0</ele><time>2026-04-26T06:51:23.999Z</time></trkpt><trkpt lat="45.56584575437369" lon="10.750302472438444"><ele>273.0</ele><time>2026-04-26T06:51:24.999Z</time></trkpt><trkpt lat="45.56591700620203" lon="10.750229881489348"><ele>273.0</ele><time>2026-04-26T06:51:25.999Z</time></trkpt><trkpt lat="45.56597780187402" lon="10.750169345886306"><ele>273.0</ele><time>2026-04-26T06:51:26.999Z</time></trkpt><trkpt lat="45.56604388763447" lon="10.75010620882213"><ele>273.0</ele><time>2026-04-26T06:51:27.999Z</time></trkpt><trkpt lat="45.56612711694025" lon="10.750026693089943"><ele>273.0</ele><time>2026-04-26T06:51:28.999Z</time></trkpt><trkpt lat="45.566205333800774" lon="10.749951966269316"><ele>272.8</ele><time>2026-04-26T06:51:29.999Z</time></trkpt><trkpt lat="45.566288158801996" lon="10.749870179229786"><ele>272.6</ele><time>2026-04-26T06:51:30.999Z</time></trkpt><trkpt lat="45.56636936447132" lon="10.749789319522367"><ele>272.4</ele><time>2026-04-26T06:51:31.999Z</time></trkpt><trkpt lat="45.56643958532749" lon="10.7496893144429"><ele>272.2</ele><time>2026-04-26T06:51:32.999Z</time></trkpt><trkpt lat="45.56652411842216" lon="10.749631991234239"><ele>272.0</ele><time>2026-04-26T06:51:33.999Z</time></trkpt><trkpt lat="45.56658640449323" lon="10.749566964494074"><ele>272.0</ele><time>2026-04-26T06:51:34.999Z</time></trkpt><trkpt lat="45.56664093497298" lon="10.749496323955256"><ele>272.0</ele><time>2026-04-26T06:51:35.999Z</time></trkpt><trkpt lat="45.56669225914435" lon="10.749416844507746"><ele>272.0</ele><time>2026-04-26T06:51:36.999Z</time></trkpt><trkpt lat="45.56671259236548" lon="10.749331364752875"><ele>272.0</ele><time>2026-04-26T06:51:37.999Z</time></trkpt><trkpt lat="45.566739050065785" lon="10.74920397362751"><ele>272.0</ele><time>2026-04-26T06:51:39.999Z</time></trkpt><trkpt lat="45.56669926601399" lon="10.749022285190447"><ele>272.0</ele><time>2026-04-26T06:51:41.999Z</time></trkpt><trkpt lat="45.566686714753246" lon="10.748922371426405"><ele>271.0</ele><time>2026-04-26T06:51:42.999Z</time></trkpt><trkpt lat="45.56661458211748" lon="10.748769996964242"><ele>270.0</ele><time>2026-04-26T06:51:44.999Z</time></trkpt><trkpt lat="45.566572785501485" lon="10.748688850410186"><ele>269.0</ele><time>2026-04-26T06:51:45.999Z</time></trkpt><trkpt lat="45.56652267666407" lon="10.748623791787336"><ele>268.0</ele><time>2026-04-26T06:51:46.999Z</time></trkpt><trkpt lat="45.566463779886" lon="10.74846945484439"><ele>267.0</ele><time>2026-04-26T06:51:48.999Z</time></trkpt><trkpt lat="45.56644492834116" lon="10.748382354519276"><ele>264.4</ele><time>2026-04-26T06:51:49.999Z</time></trkpt><trkpt lat="45.56641743274358" lon="10.748297702649321"><ele>261.79999999999995</ele><time>2026-04-26T06:51:50.999Z</time></trkpt><trkpt lat="45.5663776441471" lon="10.748145988702932"><ele>259.2</ele><time>2026-04-26T06:51:52.999Z</time></trkpt><trkpt lat="45.56635222194205" lon="10.74802610036212"><ele>256.59999999999997</ele><time>2026-04-26T06:51:54.999Z</time></trkpt><trkpt lat="45.566354222963454" lon="10.747887277712469"><ele>254.0</ele><time>2026-04-26T06:51:56.999Z</time></trkpt><trkpt lat="45.56638512210659" lon="10.747769846652917"><ele>253.00000000000003</ele><time>2026-04-26T06:51:58.999Z</time></trkpt><trkpt lat="45.56642663708097" lon="10.747681155252224"><ele>252.0</ele><time>2026-04-26T06:52:00.999Z</time></trkpt><trkpt lat="45.56649965104359" lon="10.747616400262501"><ele>251.0</ele><time>2026-04-26T06:52:02.999Z</time></trkpt><trkpt lat="45.56658188615652" lon="10.747541483215018"><ele>250.0</ele><time>2026-04-26T06:52:04.999Z</time></trkpt><trkpt lat="45.566645379836054" lon="10.747495709411654"><ele>249.00000000000003</ele><time>2026-04-26T06:52:06.999Z</time></trkpt><trkpt lat="45.566718744203186" lon="10.747452421151971"><ele>248.0</ele><time>2026-04-26T06:52:08.999Z</time></trkpt><trkpt lat="45.56678365618299" lon="10.747413769224794"><ele>248.0</ele><time>2026-04-26T06:52:10.999Z</time></trkpt><trkpt lat="45.56684715869499" lon="10.747392033879903"><ele>248.0</ele><time>2026-04-26T06:52:12.999Z</time></trkpt><trkpt lat="45.56693198276937" lon="10.747393821321904"><ele>248.0</ele><time>2026-04-26T06:52:14.999Z</time></trkpt><trkpt lat="45.56702979996703" lon="10.747418788844723"><ele>248.0</ele><time>2026-04-26T06:52:16.999Z</time></trkpt><trkpt lat="45.567132962873146" lon="10.747442786447888"><ele>248.0</ele><time>2026-04-26T06:52:18.999Z</time></trkpt><trkpt lat="45.56724504444069" lon="10.747432530018497"><ele>246.2857142857143</ele><time>2026-04-26T06:52:20.999Z</time></trkpt><trkpt lat="45.567362952714525" lon="10.747396354085572"><ele>244.5714285714286</ele><time>2026-04-26T06:52:22.999Z</time></trkpt><trkpt lat="45.56742768166627" lon="10.747384295526643"><ele>242.85714285714286</ele><time>2026-04-26T06:52:23.999Z</time></trkpt><trkpt lat="45.567495115713434" lon="10.74736988297706"><ele>241.14285714285717</ele><time>2026-04-26T06:52:24.999Z</time></trkpt><trkpt lat="45.56756045069467" lon="10.747360813386893"><ele>239.42857142857144</ele><time>2026-04-26T06:52:25.999Z</time></trkpt><trkpt lat="45.567625116780405" lon="10.747358254611404"><ele>237.71428571428572</ele><time>2026-04-26T06:52:26.999Z</time></trkpt><trkpt lat="45.567689145599246" lon="10.747354728786227"><ele>236.0</ele><time>2026-04-26T06:52:27.999Z</time></trkpt><trkpt lat="45.567758732049214" lon="10.747351142987078"><ele>236.0</ele><time>2026-04-26T06:52:28.999Z</time></trkpt><trkpt lat="45.567831286012" lon="10.747339827759602"><ele>236.0</ele><time>2026-04-26T06:52:29.999Z</time></trkpt><trkpt lat="45.56790584551256" lon="10.747340078225085"><ele>236.0</ele><time>2026-04-26T06:52:30.999Z</time></trkpt><trkpt lat="45.56797361119883" lon="10.747341867640516"><ele>236.0</ele><time>2026-04-26T06:52:31.999Z</time></trkpt><trkpt lat="45.568043850549735" lon="10.747338744909863"><ele>236.0</ele><time>2026-04-26T06:52:32.999Z</time></trkpt><trkpt lat="45.568112727344506" lon="10.747334884788389"><ele>236.0</ele><time>2026-04-26T06:52:33.999Z</time></trkpt><trkpt lat="45.56817945948139" lon="10.747335874891313"><ele>236.0</ele><time>2026-04-26T06:52:34.999Z</time></trkpt><trkpt lat="45.56824894592904" lon="10.747341240807955"><ele>235.16666666666669</ele><time>2026-04-26T06:52:35.999Z</time></trkpt><trkpt lat="45.56831609578057" lon="10.747352951525079"><ele>234.33333333333334</ele><time>2026-04-26T06:52:36.999Z</time></trkpt><trkpt lat="45.568437570992366" lon="10.74740673449942"><ele>233.5</ele><time>2026-04-26T06:52:38.999Z</time></trkpt><trkpt lat="45.56850242337462" lon="10.747438634491466"><ele>232.66666666666669</ele><time>2026-04-26T06:52:39.999Z</time></trkpt><trkpt lat="45.56856200634924" lon="10.747468247893966"><ele>231.83333333333334</ele><time>2026-04-26T06:52:40.999Z</time></trkpt><trkpt lat="45.56866896309748" lon="10.74752032718146"><ele>231.0</ele><time>2026-04-26T06:52:42.999Z</time></trkpt><trkpt lat="45.56873325099601" lon="10.747568510505406"><ele>230.16666666666666</ele><time>2026-04-26T06:52:43.999Z</time></trkpt><trkpt lat="45.56880210310751" lon="10.747633465884931"><ele>229.33333333333331</ele><time>2026-04-26T06:52:44.999Z</time></trkpt><trkpt lat="45.56887337905579" lon="10.74771993295327"><ele>228.5</ele><time>2026-04-26T06:52:45.999Z</time></trkpt><trkpt lat="45.56893597819827" lon="10.747802860667553"><ele>227.66666666666666</ele><time>2026-04-26T06:52:46.999Z</time></trkpt><trkpt lat="45.56899423468176" lon="10.747878357145272"><ele>226.83333333333331</ele><time>2026-04-26T06:52:48Z</time></trkpt><trkpt lat="45.56905115005627" lon="10.747950319543826"><ele>226.0</ele><time>2026-04-26T06:52:49Z</time></trkpt><trkpt lat="45.56910987660639" lon="10.74802130968966"><ele>225.99999999999997</ele><time>2026-04-26T06:52:50Z</time></trkpt><trkpt lat="45.56917001633049" lon="10.748093180096843"><ele>226.0</ele><time>2026-04-26T06:52:51Z</time></trkpt><trkpt lat="45.56923632908423" lon="10.74816214253822"><ele>226.0</ele><time>2026-04-26T06:52:52Z</time></trkpt><trkpt lat="45.56929949897105" lon="10.748224549225919"><ele>226.0</ele><time>2026-04-26T06:52:53Z</time></trkpt><trkpt lat="45.56934035357359" lon="10.748305876221918"><ele>225.99999999999997</ele><time>2026-04-26T06:52:54Z</time></trkpt><trkpt lat="45.56935922838398" lon="10.748418846247526"><ele>226.0</ele><time>2026-04-26T06:52:55Z</time></trkpt><trkpt lat="45.56936480106223" lon="10.748571148130127"><ele>226.0</ele><time>2026-04-26T06:52:56Z</time></trkpt><trkpt lat="45.56936396817921" lon="10.748746498428785"><ele>226.0</ele><time>2026-04-26T06:52:57Z</time></trkpt><trkpt lat="45.56937833354483" lon="10.74891900736349"><ele>226.0</ele><time>2026-04-26T06:52:58Z</time></trkpt><trkpt lat="45.569399125002064" lon="10.749092859622204"><ele>226.0</ele><time>2026-04-26T06:52:59Z</time></trkpt><trkpt lat="45.5694217862772" lon="10.749263046590276"><ele>226.20000000000002</ele><time>2026-04-26T06:53:00Z</time></trkpt><trkpt lat="45.569445493759204" lon="10.74942887625015"><ele>226.40000000000003</ele><time>2026-04-26T06:53:01Z</time></trkpt><trkpt lat="45.56947390390053" lon="10.749582590113928"><ele>226.6</ele><time>2026-04-26T06:53:02Z</time></trkpt><trkpt lat="45.5695052033885" lon="10.749720927960055"><ele>226.8</ele><time>2026-04-26T06:53:03Z</time></trkpt><trkpt lat="45.56954079399825" lon="10.749848179980422"><ele>227.0</ele><time>2026-04-26T06:53:04Z</time></trkpt><trkpt lat="45.56957575987542" lon="10.749969220995084"><ele>227.0</ele><time>2026-04-26T06:53:05Z</time></trkpt><trkpt lat="45.56960098362745" lon="10.750063182892902"><ele>227.0</ele><time>2026-04-26T06:53:06Z</time></trkpt><trkpt lat="45.5696234674153" lon="10.7501474641675"><ele>227.0</ele><time>2026-04-26T06:53:07Z</time></trkpt><trkpt lat="45.56966101366988" lon="10.75028636768568"><ele>227.0</ele><time>2026-04-26T06:53:09Z</time></trkpt><trkpt lat="45.56969696013232" lon="10.750366120682854"><ele>227.0</ele><time>2026-04-26T06:53:11Z</time></trkpt><trkpt lat="45.56982714744111" lon="10.750235910129796"><ele>227.0</ele><time>2026-04-26T06:53:14Z</time></trkpt><trkpt lat="45.56986518373546" lon="10.750158241510968"><ele>227.0</ele><time>2026-04-26T06:53:15Z</time></trkpt><trkpt lat="45.56993575244716" lon="10.750057807971599"><ele>227.0</ele><time>2026-04-26T06:53:17Z</time></trkpt><trkpt lat="45.57000189888188" lon="10.749876897226054"><ele>227.0</ele><time>2026-04-26T06:53:19Z</time></trkpt><trkpt lat="45.57003342541506" lon="10.749777148231354"><ele>227.0</ele><time>2026-04-26T06:53:20Z</time></trkpt><trkpt lat="45.570060554437916" lon="10.749669695721991"><ele>227.0</ele><time>2026-04-26T06:53:21Z</time></trkpt><trkpt lat="45.570100371732984" lon="10.749546438518953"><ele>227.0</ele><time>2026-04-26T06:53:22Z</time></trkpt><trkpt lat="45.57011467779394" lon="10.749390716510584"><ele>227.0</ele><time>2026-04-26T06:53:22.999Z</time></trkpt><trkpt lat="45.57011871259901" lon="10.749212392481668"><ele>227.0</ele><time>2026-04-26T06:53:23.999Z</time></trkpt><trkpt lat="45.57014568540292" lon="10.74902759036389"><ele>227.0</ele><time>2026-04-26T06:53:24.999Z</time></trkpt><trkpt lat="45.57016800101976" lon="10.748852969641277"><ele>227.0</ele><time>2026-04-26T06:53:25.999Z</time></trkpt><trkpt lat="45.57022522643117" lon="10.748704084269399"><ele>227.0</ele><time>2026-04-26T06:53:26.999Z</time></trkpt><trkpt lat="45.570283049998956" lon="10.748570736222016"><ele>227.0</ele><time>2026-04-26T06:53:27.999Z</time></trkpt><trkpt lat="45.57034553332791" lon="10.748456367649963"><ele>223.0</ele><time>2026-04-26T06:53:28.999Z</time></trkpt><trkpt lat="45.570411499494284" lon="10.748346372193035"><ele>219.0</ele><time>2026-04-26T06:53:29.999Z</time></trkpt><trkpt lat="45.57048730907229" lon="10.748231713786762"><ele>215.0</ele><time>2026-04-26T06:53:30.999Z</time></trkpt><trkpt lat="45.57055881291526" lon="10.748130345901398"><ele>211.0</ele><time>2026-04-26T06:53:31.999Z</time></trkpt><trkpt lat="45.570634493998575" lon="10.74805367164697"><ele>207.0</ele><time>2026-04-26T06:53:32.999Z</time></trkpt><trkpt lat="45.57070192507806" lon="10.748012534964994"><ele>207.0</ele><time>2026-04-26T06:53:33.999Z</time></trkpt><trkpt lat="45.570767965448475" lon="10.747999637173718"><ele>207.0</ele><time>2026-04-26T06:53:34.999Z</time></trkpt><trkpt lat="45.57087543398341" lon="10.748048590266604"><ele>207.0</ele><time>2026-04-26T06:53:36.999Z</time></trkpt><trkpt lat="45.57094926171579" lon="10.748089190298593"><ele>207.0</ele><time>2026-04-26T06:53:37.999Z</time></trkpt><trkpt lat="45.57102241730897" lon="10.748187422339752"><ele>207.0</ele><time>2026-04-26T06:53:39.999Z</time></trkpt><trkpt lat="45.57113339627719" lon="10.748097536553912"><ele>207.0</ele><time>2026-04-26T06:53:43.999Z</time></trkpt><trkpt lat="45.571159178601874" lon="10.747989654439143"><ele>207.0</ele><time>2026-04-26T06:53:44.999Z</time></trkpt><trkpt lat="45.57116673773633" lon="10.747837041250389"><ele>207.0</ele><time>2026-04-26T06:53:45.999Z</time></trkpt><trkpt lat="45.57119213157639" lon="10.747674512595461"><ele>207.0</ele><time>2026-04-26T06:53:46.999Z</time></trkpt><trkpt lat="45.57123861987611" lon="10.747480389035498"><ele>207.0</ele><time>2026-04-26T06:53:47.999Z</time></trkpt><trkpt lat="45.571272471580336" lon="10.747293317412268"><ele>207.5</ele><time>2026-04-26T06:53:48.999Z</time></trkpt><trkpt lat="45.5713113062157" lon="10.747082928142037"><ele>208.0</ele><time>2026-04-26T06:53:49.999Z</time></trkpt><trkpt lat="45.571331001769856" lon="10.746870230902552"><ele>208.5</ele><time>2026-04-26T06:53:50.999Z</time></trkpt><trkpt lat="45.571365700646865" lon="10.746681299831728"><ele>209.0</ele><time>2026-04-26T06:53:51.999Z</time></trkpt><trkpt lat="45.57139481883547" lon="10.746490731540659"><ele>209.0</ele><time>2026-04-26T06:53:52.999Z</time></trkpt><trkpt lat="45.57141471631358" lon="10.746308534327211"><ele>209.0</ele><time>2026-04-26T06:53:53.999Z</time></trkpt><trkpt lat="45.57144616586882" lon="10.746150720451379"><ele>209.0</ele><time>2026-04-26T06:53:54.999Z</time></trkpt><trkpt lat="45.571466398624146" lon="10.746004852547795"><ele>209.0</ele><time>2026-04-26T06:53:55.999Z</time></trkpt><trkpt lat="45.57148745797914" lon="10.745871553653085"><ele>209.0</ele><time>2026-04-26T06:53:56.999Z</time></trkpt><trkpt lat="45.57149869808172" lon="10.745736492733474"><ele>209.16666666666669</ele><time>2026-04-26T06:53:57.999Z</time></trkpt><trkpt lat="45.57152717529969" lon="10.74560409591209"><ele>209.33333333333334</ele><time>2026-04-26T06:53:58.999Z</time></trkpt><trkpt lat="45.57156018626825" lon="10.745475466419375"><ele>209.5</ele><time>2026-04-26T06:53:59.999Z</time></trkpt><trkpt lat="45.57159371755096" lon="10.745358154814916"><ele>209.66666666666669</ele><time>2026-04-26T06:54:00.999Z</time></trkpt><trkpt lat="45.57162512469912" lon="10.745260806179738"><ele>209.83333333333334</ele><time>2026-04-26T06:54:01.999Z</time></trkpt><trkpt lat="45.57165135911267" lon="10.745174094063556"><ele>210.0</ele><time>2026-04-26T06:54:02.999Z</time></trkpt><trkpt lat="45.571700169570974" lon="10.745031886280152"><ele>210.0</ele><time>2026-04-26T06:54:04.999Z</time></trkpt><trkpt lat="45.57173757113635" lon="10.744932674704497"><ele>210.0</ele><time>2026-04-26T06:54:07.999Z</time></trkpt><trkpt lat="45.57179372387903" lon="10.744837374965263"><ele>210.0</ele><time>2026-04-26T06:54:51Z</time></trkpt><trkpt lat="45.571862661744035" lon="10.744834580293823"><ele>210.0</ele><time>2026-04-26T06:54:55Z</time></trkpt><trkpt lat="45.57171274883907" lon="10.744961695539896"><ele>210.0</ele><time>2026-04-26T06:54:57Z</time></trkpt><trkpt lat="45.57175850560331" lon="10.744860761364912"><ele>210.0</ele><time>2026-04-26T06:55:00Z</time></trkpt><trkpt lat="45.57180168612273" lon="10.744788673990328"><ele>210.0</ele><time>2026-04-26T06:55:24Z</time></trkpt><trkpt lat="45.57185639624296" lon="10.744715757777259"><ele>210.0</ele><time>2026-04-26T06:55:27Z</time></trkpt><trkpt lat="45.57184785431164" lon="10.744537274905744"><ele>210.0</ele><time>2026-04-26T06:55:31Z</time></trkpt><trkpt lat="45.57183400989142" lon="10.744410208982595"><ele>210.0</ele><time>2026-04-26T06:55:34Z</time></trkpt><trkpt lat="45.57181560670949" lon="10.74430522056423"><ele>210.0</ele><time>2026-04-26T06:55:37Z</time></trkpt><trkpt lat="45.57179575256632" lon="10.74421968951352"><ele>210.33333333333334</ele><time>2026-04-26T06:55:42Z</time></trkpt><trkpt lat="45.57178888721744" lon="10.744129639811382"><ele>210.66666666666669</ele><time>2026-04-26T06:55:45Z</time></trkpt><trkpt lat="45.571763400164485" lon="10.744031023619213"><ele>211.0</ele><time>2026-04-26T06:55:49Z</time></trkpt><trkpt lat="45.57173595351441" lon="10.743938117348202"><ele>211.33333333333334</ele><time>2026-04-26T06:55:52Z</time></trkpt><trkpt lat="45.571703664986806" lon="10.743829040262408"><ele>211.66666666666669</ele><time>2026-04-26T06:55:55Z</time></trkpt><trkpt lat="45.57167552684136" lon="10.74373398403535"><ele>212.0</ele><time>2026-04-26T06:55:58Z</time></trkpt><trkpt lat="45.57164071118888" lon="10.743616245101334"><ele>212.0</ele><time>2026-04-26T06:56:01Z</time></trkpt><trkpt lat="45.57160800254293" lon="10.743501461908265"><ele>212.0</ele><time>2026-04-26T06:56:03.999Z</time></trkpt><trkpt lat="45.57158307547029" lon="10.743418455954645"><ele>212.0</ele><time>2026-04-26T06:56:06.999Z</time></trkpt><trkpt lat="45.571553098400024" lon="10.743322028786581"><ele>212.0</ele><time>2026-04-26T06:56:09.999Z</time></trkpt><trkpt lat="45.57199463913367" lon="10.742962425663032"><ele>212.0</ele><time>2026-04-26T06:56:11.999Z</time></trkpt><trkpt lat="45.5720209960846" lon="10.742867532170855"><ele>212.0</ele><time>2026-04-26T06:56:13.999Z</time></trkpt><trkpt lat="45.57205478004402" lon="10.742769458276927"><ele>212.0</ele><time>2026-04-26T06:56:15.999Z</time></trkpt><trkpt lat="45.572088053398176" lon="10.742677377310914"><ele>212.0</ele><time>2026-04-26T06:56:17.999Z</time></trkpt><trkpt lat="45.572119212541594" lon="10.742584911579218"><ele>212.0</ele><time>2026-04-26T06:56:19.999Z</time></trkpt><trkpt lat="45.572158892957845" lon="10.742511827130649"><ele>212.0</ele><time>2026-04-26T06:56:21.999Z</time></trkpt><trkpt lat="45.57224934948346" lon="10.74249016356943"><ele>212.0</ele><time>2026-04-26T06:56:24.999Z</time></trkpt><trkpt lat="45.572330597399706" lon="10.742549931204495"><ele>211.00000000000003</ele><time>2026-04-26T06:56:26.999Z</time></trkpt><trkpt lat="45.57241224255219" lon="10.74264585412993"><ele>210.0</ele><time>2026-04-26T06:56:28.999Z</time></trkpt><trkpt lat="45.57250251060119" lon="10.74274797935381"><ele>209.0</ele><time>2026-04-26T06:56:30.999Z</time></trkpt><trkpt lat="45.57256484556024" lon="10.742807565259247"><ele>208.0</ele><time>2026-04-26T06:56:31.999Z</time></trkpt><trkpt lat="45.5726224582418" lon="10.742862178866774"><ele>207.00000000000003</ele><time>2026-04-26T06:56:32.999Z</time></trkpt><trkpt lat="45.57267952438051" lon="10.74292104658163"><ele>206.0</ele><time>2026-04-26T06:56:33.999Z</time></trkpt><trkpt lat="45.57274270821939" lon="10.742980089265476"><ele>205.8</ele><time>2026-04-26T06:56:34.999Z</time></trkpt><trkpt lat="45.572809749933114" lon="10.74303887419733"><ele>205.60000000000002</ele><time>2026-04-26T06:56:35.999Z</time></trkpt><trkpt lat="45.57287575206711" lon="10.743104772885719"><ele>205.4</ele><time>2026-04-26T06:56:36.999Z</time></trkpt><trkpt lat="45.57296335392556" lon="10.743180970863554"><ele>205.2</ele><time>2026-04-26T06:56:37.999Z</time></trkpt><trkpt lat="45.5730522826915" lon="10.743267547684972"><ele>205.0</ele><time>2026-04-26T06:56:38.999Z</time></trkpt><trkpt lat="45.57313394807717" lon="10.743359613950664"><ele>205.0</ele><time>2026-04-26T06:56:39.999Z</time></trkpt><trkpt lat="45.57319939029407" lon="10.743435975216027"><ele>205.0</ele><time>2026-04-26T06:56:40.999Z</time></trkpt><trkpt lat="45.57325823019503" lon="10.743497547994174"><ele>205.0</ele><time>2026-04-26T06:56:41.999Z</time></trkpt><trkpt lat="45.57332029198763" lon="10.743557262412418"><ele>205.0</ele><time>2026-04-26T06:56:42.999Z</time></trkpt><trkpt lat="45.57337757569811" lon="10.743616397369838"><ele>205.0</ele><time>2026-04-26T06:56:43.999Z</time></trkpt><trkpt lat="45.57342515113005" lon="10.743679050385019"><ele>205.0</ele><time>2026-04-26T06:56:44.999Z</time></trkpt><trkpt lat="45.57347616218061" lon="10.74374656408808"><ele>205.0</ele><time>2026-04-26T06:56:45.999Z</time></trkpt><trkpt lat="45.573533039267716" lon="10.743824537440315"><ele>204.66666666666666</ele><time>2026-04-26T06:56:47Z</time></trkpt><trkpt lat="45.57357651792941" lon="10.743909468743775"><ele>204.33333333333331</ele><time>2026-04-26T06:56:48Z</time></trkpt><trkpt lat="45.57362678615102" lon="10.743972682266708"><ele>204.0</ele><time>2026-04-26T06:56:49Z</time></trkpt><trkpt lat="45.57369992433161" lon="10.744048942577882"><ele>203.66666666666669</ele><time>2026-04-26T06:56:51Z</time></trkpt><trkpt lat="45.57375681850297" lon="10.744104546408222"><ele>203.33333333333334</ele><time>2026-04-26T06:56:54Z</time></trkpt><trkpt lat="45.57382716028929" lon="10.744137452611794"><ele>203.0</ele><time>2026-04-26T06:57:15Z</time></trkpt><trkpt lat="45.573914885525845" lon="10.74417944609309"><ele>203.00000000000003</ele><time>2026-04-26T06:57:18Z</time></trkpt><trkpt lat="45.57398343257327" lon="10.744200928471791"><ele>203.0</ele><time>2026-04-26T06:57:20Z</time></trkpt><trkpt lat="45.57403809784297" lon="10.74426003963127"><ele>203.0</ele><time>2026-04-26T06:57:22Z</time></trkpt><trkpt lat="45.574099051026266" lon="10.74431324159256"><ele>203.0</ele><time>2026-04-26T06:57:24Z</time></trkpt><trkpt lat="45.574166455897554" lon="10.744355386887984"><ele>203.00000000000003</ele><time>2026-04-26T06:57:26Z</time></trkpt><trkpt lat="45.57423474996617" lon="10.74441870080231"><ele>203.0</ele><time>2026-04-26T06:57:28Z</time></trkpt><trkpt lat="45.57432911068007" lon="10.744476769272607"><ele>203.4</ele><time>2026-04-26T06:57:30Z</time></trkpt><trkpt lat="45.574434008687554" lon="10.744548027619839"><ele>203.8</ele><time>2026-04-26T06:57:32Z</time></trkpt><trkpt lat="45.5745220131826" lon="10.744601631490516"><ele>204.2</ele><time>2026-04-26T06:57:34Z</time></trkpt><trkpt lat="45.57461710343572" lon="10.744595031729977"><ele>204.6</ele><time>2026-04-26T06:57:36Z</time></trkpt><trkpt lat="45.57469190314411" lon="10.744570550314187"><ele>205.0</ele><time>2026-04-26T06:57:38Z</time></trkpt><trkpt lat="45.574778827212356" lon="10.744606106761571"><ele>205.0</ele><time>2026-04-26T06:57:40Z</time></trkpt><trkpt lat="45.57488429063974" lon="10.744661938614929"><ele>205.0</ele><time>2026-04-26T06:57:42Z</time></trkpt><trkpt lat="45.574983672250724" lon="10.744703129588673"><ele>205.0</ele><time>2026-04-26T06:57:44Z</time></trkpt><trkpt lat="45.57508226109866" lon="10.744734970405602"><ele>205.0</ele><time>2026-04-26T06:57:46Z</time></trkpt><trkpt lat="45.57516444851198" lon="10.744756142846777"><ele>205.0</ele><time>2026-04-26T06:57:48Z</time></trkpt><trkpt lat="45.57526027749352" lon="10.744765322793299"><ele>204.99999999999997</ele><time>2026-04-26T06:57:51Z</time></trkpt><trkpt lat="45.57532890501806" lon="10.74478902912641"><ele>205.0</ele><time>2026-04-26T06:57:53Z</time></trkpt><trkpt lat="45.5754114318021" lon="10.744799628013284"><ele>205.0</ele><time>2026-04-26T06:58:02Z</time></trkpt><trkpt lat="45.57548567041757" lon="10.744818598123892"><ele>205.0</ele><time>2026-04-26T06:58:23Z</time></trkpt><trkpt lat="45.57555005248759" lon="10.74484178036257"><ele>204.99999999999997</ele><time>2026-04-26T06:59:42Z</time></trkpt><trkpt lat="45.57544848081819" lon="10.744801150342722"><ele>205.0</ele><time>2026-04-26T07:00:06Z</time></trkpt><trkpt lat="45.575287115102164" lon="10.744774220555811"><ele>205.0</ele><time>2026-04-26T07:00:08Z</time></trkpt><trkpt lat="45.57520475621742" lon="10.744746375993127"><ele>205.0</ele><time>2026-04-26T07:00:09Z</time></trkpt><trkpt lat="45.57508350428313" lon="10.744704312721282"><ele>205.0</ele><time>2026-04-26T07:00:11Z</time></trkpt><trkpt lat="45.57498520515222" lon="10.744678913783819"><ele>205.0</ele><time>2026-04-26T07:00:13Z</time></trkpt><trkpt lat="45.574919238814495" lon="10.744638511947885"><ele>205.0</ele><time>2026-04-26T07:00:55Z</time></trkpt><trkpt lat="45.57483108553142" lon="10.744612811500001"><ele>205.0</ele><time>2026-04-26T07:00:58Z</time></trkpt><trkpt lat="45.57472818301381" lon="10.744573225271948"><ele>205.0</ele><time>2026-04-26T07:01:00.001Z</time></trkpt><trkpt lat="45.57465032310552" lon="10.744575970827286"><ele>205.0</ele><time>2026-04-26T07:01:02.001Z</time></trkpt><trkpt lat="45.5745637419001" lon="10.744603231273599"><ele>205.0</ele><time>2026-04-26T07:01:04.001Z</time></trkpt><trkpt lat="45.57447182096889" lon="10.74456383494191"><ele>205.0</ele><time>2026-04-26T07:01:06.001Z</time></trkpt><trkpt lat="45.57437688928746" lon="10.744492803380089"><ele>204.66666666666666</ele><time>2026-04-26T07:01:08.001Z</time></trkpt><trkpt lat="45.57431802279504" lon="10.744454429496916"><ele>204.33333333333331</ele><time>2026-04-26T07:01:10.001Z</time></trkpt><trkpt lat="45.57425860988442" lon="10.744414435624103"><ele>204.0</ele><time>2026-04-26T07:01:13.001Z</time></trkpt><trkpt lat="45.57415973087105" lon="10.744343876581189"><ele>203.66666666666669</ele><time>2026-04-26T07:01:15.001Z</time></trkpt><trkpt lat="45.57406786111142" lon="10.744273224151208"><ele>203.33333333333334</ele><time>2026-04-26T07:01:17.001Z</time></trkpt><trkpt lat="45.57399302672672" lon="10.744198691874095"><ele>203.0</ele><time>2026-04-26T07:01:19.001Z</time></trkpt><trkpt lat="45.573917732108946" lon="10.744156033214143"><ele>203.0</ele><time>2026-04-26T07:01:22.001Z</time></trkpt><trkpt lat="45.57391170370316" lon="10.744273942004321"><ele>203.0</ele><time>2026-04-26T07:01:35Z</time></trkpt><trkpt lat="45.57400637820604" lon="10.744388122258263"><ele>203.0</ele><time>2026-04-26T07:01:37Z</time></trkpt><trkpt lat="45.57408095361594" lon="10.744465402028721"><ele>203.0</ele><time>2026-04-26T07:01:38Z</time></trkpt><trkpt lat="45.57414865672921" lon="10.744538560336482"><ele>203.0</ele><time>2026-04-26T07:01:39Z</time></trkpt><trkpt lat="45.57421855041015" lon="10.744624408285716"><ele>203.33333333333334</ele><time>2026-04-26T07:01:40Z</time></trkpt><trkpt lat="45.574286262454926" lon="10.744710802754753"><ele>203.66666666666669</ele><time>2026-04-26T07:01:41Z</time></trkpt><trkpt lat="45.574356392598276" lon="10.744803940228637"><ele>204.0</ele><time>2026-04-26T07:01:42Z</time></trkpt><trkpt lat="45.57442116474633" lon="10.744885899296188"><ele>204.33333333333331</ele><time>2026-04-26T07:01:43Z</time></trkpt><trkpt lat="45.57448504611081" lon="10.744958825647965"><ele>204.66666666666666</ele><time>2026-04-26T07:01:44Z</time></trkpt><trkpt lat="45.57455767792238" lon="10.745043419896687"><ele>205.0</ele><time>2026-04-26T07:01:45Z</time></trkpt><trkpt lat="45.57461724208637" lon="10.745122570615214"><ele>208.8</ele><time>2026-04-26T07:01:46Z</time></trkpt><trkpt lat="45.57470099556818" lon="10.745228720637801"><ele>212.6</ele><time>2026-04-26T07:01:48Z</time></trkpt><trkpt lat="45.574747607333265" lon="10.745293363836561"><ele>216.39999999999998</ele><time>2026-04-26T07:01:49Z</time></trkpt><trkpt lat="45.574793135315254" lon="10.74535775889274"><ele>220.2</ele><time>2026-04-26T07:01:50Z</time></trkpt><trkpt lat="45.574871808399266" lon="10.74548646197114"><ele>224.0</ele><time>2026-04-26T07:01:52Z</time></trkpt><trkpt lat="45.57491659944076" lon="10.745647377127582"><ele>224.00000000000003</ele><time>2026-04-26T07:01:54Z</time></trkpt><trkpt lat="45.57496002845846" lon="10.745742798339016"><ele>224.0</ele><time>2026-04-26T07:01:55Z</time></trkpt><trkpt lat="45.575024776252555" lon="10.74583249180278"><ele>224.0</ele><time>2026-04-26T07:01:56Z</time></trkpt><trkpt lat="45.575106659162955" lon="10.745902026535223"><ele>224.0</ele><time>2026-04-26T07:01:57Z</time></trkpt><trkpt lat="45.57517995213784" lon="10.745952362975716"><ele>224.00000000000003</ele><time>2026-04-26T07:01:58Z</time></trkpt><trkpt lat="45.575241624657075" lon="10.745996741867414"><ele>224.0</ele><time>2026-04-26T07:01:59Z</time></trkpt><trkpt lat="45.575308161477466" lon="10.746046368151015"><ele>225.79999999999998</ele><time>2026-04-26T07:02:00Z</time></trkpt><trkpt lat="45.57538383151703" lon="10.7461001332809"><ele>227.59999999999997</ele><time>2026-04-26T07:02:01Z</time></trkpt><trkpt lat="45.5754666148381" lon="10.746155376843195"><ele>229.4</ele><time>2026-04-26T07:02:02Z</time></trkpt><trkpt lat="45.5755563761241" lon="10.746201913871428"><ele>231.2</ele><time>2026-04-26T07:02:03Z</time></trkpt><trkpt lat="45.57565490084606" lon="10.74624232735254"><ele>233.0</ele><time>2026-04-26T07:02:04Z</time></trkpt><trkpt lat="45.5757447287473" lon="10.746273139089071"><ele>233.0</ele><time>2026-04-26T07:02:05Z</time></trkpt><trkpt lat="45.575842234362476" lon="10.746294247183412"><ele>233.0</ele><time>2026-04-26T07:02:06Z</time></trkpt><trkpt lat="45.575931538575325" lon="10.746298771986213"><ele>233.0</ele><time>2026-04-26T07:02:07Z</time></trkpt><trkpt lat="45.576027435413074" lon="10.74629966204377"><ele>233.0</ele><time>2026-04-26T07:02:08Z</time></trkpt><trkpt lat="45.57613430363743" lon="10.746449489303576"><ele>233.0</ele><time>2026-04-26T07:02:09Z</time></trkpt><trkpt lat="45.57622044312899" lon="10.746432479419662"><ele>233.33333333333334</ele><time>2026-04-26T07:02:10Z</time></trkpt><trkpt lat="45.57629700696833" lon="10.746428400903135"><ele>233.66666666666669</ele><time>2026-04-26T07:02:11Z</time></trkpt><trkpt lat="45.57636211134223" lon="10.746438350739306"><ele>234.0</ele><time>2026-04-26T07:02:12Z</time></trkpt><trkpt lat="45.576425303891206" lon="10.74645493346739"><ele>234.33333333333331</ele><time>2026-04-26T07:02:13Z</time></trkpt><trkpt lat="45.576491697386906" lon="10.746473322865596"><ele>234.66666666666666</ele><time>2026-04-26T07:02:14Z</time></trkpt><trkpt lat="45.57658658104657" lon="10.746483764894384"><ele>235.0</ele><time>2026-04-26T07:02:16Z</time></trkpt><trkpt lat="45.57667003401716" lon="10.746541451755052"><ele>234.99999999999997</ele><time>2026-04-26T07:02:18Z</time></trkpt><trkpt lat="45.576685779552875" lon="10.74664366621199"><ele>235.0</ele><time>2026-04-26T07:02:19Z</time></trkpt><trkpt lat="45.57670975151778" lon="10.746750918288404"><ele>235.0</ele><time>2026-04-26T07:02:20Z</time></trkpt><trkpt lat="45.57675414614792" lon="10.7468340374811"><ele>235.0</ele><time>2026-04-26T07:02:21Z</time></trkpt><trkpt lat="45.576827547942" lon="10.746877555967867"><ele>234.99999999999997</ele><time>2026-04-26T07:02:22Z</time></trkpt><trkpt lat="45.576918376692156" lon="10.746894188417155"><ele>235.0</ele><time>2026-04-26T07:02:23Z</time></trkpt><trkpt lat="45.577036674183425" lon="10.746873774932423"><ele>234.8</ele><time>2026-04-26T07:02:24Z</time></trkpt><trkpt lat="45.57714041560146" lon="10.746836639900037"><ele>234.6</ele><time>2026-04-26T07:02:25Z</time></trkpt><trkpt lat="45.57722809645276" lon="10.74680026988002"><ele>234.39999999999998</ele><time>2026-04-26T07:02:26Z</time></trkpt><trkpt lat="45.5773017712275" lon="10.746759916329527"><ele>234.2</ele><time>2026-04-26T07:02:27Z</time></trkpt><trkpt lat="45.57737689855877" lon="10.746709929844535"><ele>234.0</ele><time>2026-04-26T07:02:28Z</time></trkpt><trkpt lat="45.5774610960234" lon="10.74664329235766"><ele>234.0</ele><time>2026-04-26T07:02:29Z</time></trkpt><trkpt lat="45.57754663555422" lon="10.746563262718865"><ele>233.99999999999997</ele><time>2026-04-26T07:02:30Z</time></trkpt><trkpt lat="45.5776191686063" lon="10.746485419424339"><ele>233.99999999999997</ele><time>2026-04-26T07:02:31Z</time></trkpt><trkpt lat="45.577684704197644" lon="10.746410831743162"><ele>234.0</ele><time>2026-04-26T07:02:32Z</time></trkpt><trkpt lat="45.577753206611085" lon="10.746337454991883"><ele>234.0</ele><time>2026-04-26T07:02:33Z</time></trkpt><trkpt lat="45.577827543678985" lon="10.746252489939213"><ele>233.0</ele><time>2026-04-26T07:02:34Z</time></trkpt><trkpt lat="45.57790926054523" lon="10.746196436576753"><ele>232.0</ele><time>2026-04-26T07:02:35Z</time></trkpt><trkpt lat="45.57797289335686" lon="10.746135228233301"><ele>231.0</ele><time>2026-04-26T07:02:36Z</time></trkpt><trkpt lat="45.57803010090337" lon="10.746084749692846"><ele>230.0</ele><time>2026-04-26T07:02:37Z</time></trkpt><trkpt lat="45.57808970001522" lon="10.74603350977317"><ele>229.0</ele><time>2026-04-26T07:02:38Z</time></trkpt><trkpt lat="45.578150549874564" lon="10.745955700878424"><ele>228.0</ele><time>2026-04-26T07:02:39Z</time></trkpt><trkpt lat="45.578230021107494" lon="10.745895951405961"><ele>227.8</ele><time>2026-04-26T07:02:40Z</time></trkpt><trkpt lat="45.578312620419474" lon="10.74582810811051"><ele>227.60000000000002</ele><time>2026-04-26T07:02:41Z</time></trkpt><trkpt lat="45.57839968168392" lon="10.745758036393628"><ele>227.39999999999998</ele><time>2026-04-26T07:02:42Z</time></trkpt><trkpt lat="45.57847787020255" lon="10.745695885340115"><ele>227.2</ele><time>2026-04-26T07:02:43Z</time></trkpt><trkpt lat="45.578551420917336" lon="10.745632854468834"><ele>227.0</ele><time>2026-04-26T07:02:44Z</time></trkpt><trkpt lat="45.578624694034254" lon="10.745566922034465"><ele>226.6</ele><time>2026-04-26T07:02:45Z</time></trkpt><trkpt lat="45.57869631755606" lon="10.74549018145656"><ele>226.2</ele><time>2026-04-26T07:02:46Z</time></trkpt><trkpt lat="45.57877635081189" lon="10.745406745776931"><ele>225.8</ele><time>2026-04-26T07:02:47Z</time></trkpt><trkpt lat="45.57884753499968" lon="10.745314890109157"><ele>225.4</ele><time>2026-04-26T07:02:48Z</time></trkpt><trkpt lat="45.578914912474396" lon="10.7452087256782"><ele>225.0</ele><time>2026-04-26T07:02:49Z</time></trkpt><trkpt lat="45.57899502525294" lon="10.745078051772552"><ele>224.16666666666666</ele><time>2026-04-26T07:02:50Z</time></trkpt><trkpt lat="45.57905562821018" lon="10.744984788592934"><ele>223.33333333333331</ele><time>2026-04-26T07:02:51Z</time></trkpt><trkpt lat="45.57912934960043" lon="10.744895745485326"><ele>222.5</ele><time>2026-04-26T07:02:52Z</time></trkpt><trkpt lat="45.57919104065151" lon="10.744803477739284"><ele>221.66666666666666</ele><time>2026-04-26T07:02:53Z</time></trkpt><trkpt lat="45.57924796764725" lon="10.744727060671416"><ele>220.83333333333331</ele><time>2026-04-26T07:02:54Z</time></trkpt><trkpt lat="45.57930647383885" lon="10.744667119337441"><ele>220.0</ele><time>2026-04-26T07:02:55Z</time></trkpt><trkpt lat="45.57937434082936" lon="10.744606675408233"><ele>220.0</ele><time>2026-04-26T07:02:56Z</time></trkpt><trkpt lat="45.57945481745382" lon="10.744621838852318"><ele>220.0</ele><time>2026-04-26T07:02:57Z</time></trkpt><trkpt lat="45.5795277882999" lon="10.744715838543174"><ele>220.0</ele><time>2026-04-26T07:02:58Z</time></trkpt><trkpt lat="45.57962603595792" lon="10.744764724004815"><ele>220.0</ele><time>2026-04-26T07:02:59Z</time></trkpt><trkpt lat="45.57972015689374" lon="10.744844189097876"><ele>220.0</ele><time>2026-04-26T07:03:00Z</time></trkpt><trkpt lat="45.579818737685486" lon="10.744925668418665"><ele>219.4</ele><time>2026-04-26T07:03:01Z</time></trkpt><trkpt lat="45.57990811775951" lon="10.74499559860104"><ele>218.8</ele><time>2026-04-26T07:03:02Z</time></trkpt><trkpt lat="45.57998149260602" lon="10.745062303435281"><ele>218.2</ele><time>2026-04-26T07:03:03Z</time></trkpt><trkpt lat="45.58005793770099" lon="10.745150864368183"><ele>217.6</ele><time>2026-04-26T07:03:04Z</time></trkpt><trkpt lat="45.58014024462833" lon="10.745241634983588"><ele>217.0</ele><time>2026-04-26T07:03:05.001Z</time></trkpt><trkpt lat="45.58024252999695" lon="10.74532802369231"><ele>221.0</ele><time>2026-04-26T07:03:06.001Z</time></trkpt><trkpt lat="45.58036114280591" lon="10.745396122766039"><ele>225.0</ele><time>2026-04-26T07:03:07.001Z</time></trkpt><trkpt lat="45.58048032689022" lon="10.745438977966392"><ele>229.0</ele><time>2026-04-26T07:03:08.001Z</time></trkpt><trkpt lat="45.58058675102611" lon="10.745460136641768"><ele>233.0</ele><time>2026-04-26T07:03:09.001Z</time></trkpt><trkpt lat="45.58068077918059" lon="10.745473395079783"><ele>233.00000000000003</ele><time>2026-04-26T07:03:10.001Z</time></trkpt><trkpt lat="45.58076622117271" lon="10.745497286669206"><ele>233.0</ele><time>2026-04-26T07:03:11.001Z</time></trkpt><trkpt lat="45.58086954169146" lon="10.745529217161808"><ele>233.0</ele><time>2026-04-26T07:03:12.001Z</time></trkpt><trkpt lat="45.580967117921574" lon="10.745552353222372"><ele>233.0</ele><time>2026-04-26T07:03:13.001Z</time></trkpt><trkpt lat="45.58104242988298" lon="10.745581788361193"><ele>233.00000000000003</ele><time>2026-04-26T07:03:14.001Z</time></trkpt><trkpt lat="45.5811140194166" lon="10.745620598460045"><ele>233.0</ele><time>2026-04-26T07:03:15.001Z</time></trkpt><trkpt lat="45.581182252854916" lon="10.745618500312096"><ele>231.2</ele><time>2026-04-26T07:03:16.001Z</time></trkpt><trkpt lat="45.581251267057134" lon="10.745570601212222"><ele>229.4</ele><time>2026-04-26T07:03:17.001Z</time></trkpt><trkpt lat="45.58132689153855" lon="10.745507405372111"><ele>227.59999999999997</ele><time>2026-04-26T07:03:18.001Z</time></trkpt><trkpt lat="45.581356018838896" lon="10.745345794834213"><ele>225.79999999999998</ele><time>2026-04-26T07:03:19.001Z</time></trkpt><trkpt lat="45.58139031993019" lon="10.745195757378132"><ele>224.0</ele><time>2026-04-26T07:03:20.001Z</time></trkpt><trkpt lat="45.58141555979289" lon="10.745053505966332"><ele>223.6</ele><time>2026-04-26T07:03:21.001Z</time></trkpt><trkpt lat="45.581458025668155" lon="10.744941380528838"><ele>223.2</ele><time>2026-04-26T07:03:22.001Z</time></trkpt><trkpt lat="45.581486934603575" lon="10.744828941015419"><ele>222.79999999999998</ele><time>2026-04-26T07:03:23Z</time></trkpt><trkpt lat="45.581563273824656" lon="10.74475837680333"><ele>222.39999999999998</ele><time>2026-04-26T07:03:24Z</time></trkpt><trkpt lat="45.58166384954893" lon="10.74473916759381"><ele>222.0</ele><time>2026-04-26T07:03:25Z</time></trkpt><trkpt lat="45.58178221950765" lon="10.7447550840553"><ele>222.0</ele><time>2026-04-26T07:03:26Z</time></trkpt><trkpt lat="45.58192582386808" lon="10.744800608020403"><ele>222.0</ele><time>2026-04-26T07:03:27Z</time></trkpt><trkpt lat="45.58206926978491" lon="10.744823631917251"><ele>222.0</ele><time>2026-04-26T07:03:28Z</time></trkpt><trkpt lat="45.58219570075026" lon="10.744824586491823"><ele>222.0</ele><time>2026-04-26T07:03:29Z</time></trkpt><trkpt lat="45.582323926877606" lon="10.74481399702836"><ele>223.0</ele><time>2026-04-26T07:03:30Z</time></trkpt><trkpt lat="45.582441424264495" lon="10.744793010969664"><ele>224.0</ele><time>2026-04-26T07:03:31Z</time></trkpt><trkpt lat="45.582559100024326" lon="10.744749446663624"><ele>225.0</ele><time>2026-04-26T07:03:32Z</time></trkpt><trkpt lat="45.58267493000662" lon="10.744707739921044"><ele>226.0</ele><time>2026-04-26T07:03:33Z</time></trkpt><trkpt lat="45.58278222871146" lon="10.74466824244288"><ele>226.4</ele><time>2026-04-26T07:03:34Z</time></trkpt><trkpt lat="45.582881803467174" lon="10.744632161413346"><ele>226.8</ele><time>2026-04-26T07:03:35Z</time></trkpt><trkpt lat="45.5829767240007" lon="10.74460151798983"><ele>227.20000000000002</ele><time>2026-04-26T07:03:36Z</time></trkpt><trkpt lat="45.583066433329336" lon="10.744587657591314"><ele>227.60000000000002</ele><time>2026-04-26T07:03:37Z</time></trkpt><trkpt lat="45.583154759625785" lon="10.744602142291884"><ele>228.0</ele><time>2026-04-26T07:03:38Z</time></trkpt><trkpt lat="45.583242659472575" lon="10.744643152067828"><ele>228.0</ele><time>2026-04-26T07:03:39Z</time></trkpt><trkpt lat="45.583335949978675" lon="10.74470030711405"><ele>228.0</ele><time>2026-04-26T07:03:40Z</time></trkpt><trkpt lat="45.5834346877878" lon="10.744760422887436"><ele>228.0</ele><time>2026-04-26T07:03:41Z</time></trkpt><trkpt lat="45.58353573668093" lon="10.744804873312319"><ele>228.0</ele><time>2026-04-26T07:03:42Z</time></trkpt><trkpt lat="45.58364267707418" lon="10.74483319967502"><ele>228.0</ele><time>2026-04-26T07:03:43Z</time></trkpt><trkpt lat="45.583758012845394" lon="10.74481464771131"><ele>229.0</ele><time>2026-04-26T07:03:44Z</time></trkpt><trkpt lat="45.583878092921275" lon="10.74478998488191"><ele>230.0</ele><time>2026-04-26T07:03:45Z</time></trkpt><trkpt lat="45.583998459399226" lon="10.744762651713671"><ele>231.0</ele><time>2026-04-26T07:03:46Z</time></trkpt><trkpt lat="45.58412418928968" lon="10.744725180659454"><ele>232.0</ele><time>2026-04-26T07:03:47Z</time></trkpt><trkpt lat="45.58426350281764" lon="10.744661526715182"><ele>232.0</ele><time>2026-04-26T07:03:48Z</time></trkpt><trkpt lat="45.58442633956833" lon="10.744566140330411"><ele>232.0</ele><time>2026-04-26T07:03:49Z</time></trkpt><trkpt lat="45.58458767267371" lon="10.744460680731553"><ele>232.0</ele><time>2026-04-26T07:03:50Z</time></trkpt><trkpt lat="45.58474999180117" lon="10.744357769134245"><ele>232.75</ele><time>2026-04-26T07:03:51Z</time></trkpt><trkpt lat="45.58489697879575" lon="10.744260298854096"><ele>233.5</ele><time>2026-04-26T07:03:52Z</time></trkpt><trkpt lat="45.58502286265302" lon="10.74415558959221"><ele>234.25</ele><time>2026-04-26T07:03:53Z</time></trkpt><trkpt lat="45.58512938028049" lon="10.744039080394323"><ele>235.0</ele><time>2026-04-26T07:03:54Z</time></trkpt><trkpt lat="45.58521805904535" lon="10.743931824475487"><ele>234.99999999999997</ele><time>2026-04-26T07:03:55Z</time></trkpt><trkpt lat="45.585286189643554" lon="10.743841777053753"><ele>235.0</ele><time>2026-04-26T07:03:56Z</time></trkpt><trkpt lat="45.58533579806445" lon="10.743776077791392"><ele>235.0</ele><time>2026-04-26T07:03:57Z</time></trkpt><trkpt lat="45.58541741470294" lon="10.743672393410199"><ele>235.0</ele><time>2026-04-26T07:03:59Z</time></trkpt><trkpt lat="45.58548282214433" lon="10.743591708912744"><ele>234.99999999999997</ele><time>2026-04-26T07:04:01Z</time></trkpt><trkpt lat="45.58553771761837" lon="10.743523099921532"><ele>235.0</ele><time>2026-04-26T07:04:05Z</time></trkpt><trkpt lat="45.58559318219384" lon="10.743469968570402"><ele>235.66666666666666</ele><time>2026-04-26T07:04:08Z</time></trkpt><trkpt lat="45.58564299484218" lon="10.743410178966444"><ele>236.33333333333331</ele><time>2026-04-26T07:04:12Z</time></trkpt><trkpt lat="45.58570993170009" lon="10.743393695043148"><ele>237.0</ele><time>2026-04-26T07:04:15Z</time></trkpt><trkpt lat="45.58577310507043" lon="10.743371689416069"><ele>237.66666666666669</ele><time>2026-04-26T07:04:35Z</time></trkpt><trkpt lat="45.58583865249862" lon="10.743316887482566"><ele>238.33333333333334</ele><time>2026-04-26T07:04:40Z</time></trkpt><trkpt lat="45.58583043093643" lon="10.743128672355503"><ele>239.0</ele><time>2026-04-26T07:04:41Z</time></trkpt><trkpt lat="45.58583649151285" lon="10.742982095457187"><ele>239.0</ele><time>2026-04-26T07:04:42Z</time></trkpt><trkpt lat="45.585844747373756" lon="10.742823528295636"><ele>238.99999999999997</ele><time>2026-04-26T07:04:43Z</time></trkpt><trkpt lat="45.5858553963781" lon="10.742662635064857"><ele>238.99999999999997</ele><time>2026-04-26T07:04:44Z</time></trkpt><trkpt lat="45.585868361570014" lon="10.742501050977577"><ele>239.0</ele><time>2026-04-26T07:04:45Z</time></trkpt><trkpt lat="45.58587552689794" lon="10.74236206105276"><ele>239.0</ele><time>2026-04-26T07:04:46Z</time></trkpt><trkpt lat="45.585878440992275" lon="10.742243809053265"><ele>238.0</ele><time>2026-04-26T07:04:47Z</time></trkpt><trkpt lat="45.58587451819452" lon="10.742135140858661"><ele>236.99999999999997</ele><time>2026-04-26T07:04:48Z</time></trkpt><trkpt lat="45.58587032031855" lon="10.742017280242667"><ele>235.99999999999997</ele><time>2026-04-26T07:04:49Z</time></trkpt><trkpt lat="45.585865003698984" lon="10.741874299994222"><ele>235.0</ele><time>2026-04-26T07:04:50Z</time></trkpt><trkpt lat="45.58585159483747" lon="10.741718420345464"><ele>234.0</ele><time>2026-04-26T07:04:51Z</time></trkpt><trkpt lat="45.58584212987828" lon="10.74155714155334"><ele>232.79999999999998</ele><time>2026-04-26T07:04:52Z</time></trkpt><trkpt lat="45.585844085735566" lon="10.741410739616747"><ele>231.59999999999997</ele><time>2026-04-26T07:04:53Z</time></trkpt><trkpt lat="45.58584553385297" lon="10.741268019758573"><ele>230.4</ele><time>2026-04-26T07:04:54Z</time></trkpt><trkpt lat="45.58583711094908" lon="10.741115535458162"><ele>229.2</ele><time>2026-04-26T07:04:55Z</time></trkpt><trkpt lat="45.58582066454317" lon="10.740947647715311"><ele>228.0</ele><time>2026-04-26T07:04:56Z</time></trkpt><trkpt lat="45.585801158142736" lon="10.740766041878434"><ele>227.8</ele><time>2026-04-26T07:04:57Z</time></trkpt><trkpt lat="45.585783328202744" lon="10.740589702293125"><ele>227.60000000000002</ele><time>2026-04-26T07:04:58Z</time></trkpt><trkpt lat="45.585767864178415" lon="10.740432459538278"><ele>227.39999999999998</ele><time>2026-04-26T07:04:59Z</time></trkpt><trkpt lat="45.585761440942825" lon="10.740297705855593"><ele>227.2</ele><time>2026-04-26T07:05:00Z</time></trkpt><trkpt lat="45.58576870777034" lon="10.740168269437405"><ele>227.0</ele><time>2026-04-26T07:05:01Z</time></trkpt><trkpt lat="45.58579764497129" lon="10.740054612128542"><ele>227.0</ele><time>2026-04-26T07:05:02Z</time></trkpt><trkpt lat="45.58580388366232" lon="10.739923448704507"><ele>227.0</ele><time>2026-04-26T07:05:03Z</time></trkpt><trkpt lat="45.58582285219304" lon="10.739760516804193"><ele>227.0</ele><time>2026-04-26T07:05:04Z</time></trkpt><trkpt lat="45.585788166046946" lon="10.739597137116741"><ele>227.0</ele><time>2026-04-26T07:05:05Z</time></trkpt><trkpt lat="45.58576116656276" lon="10.739405217472562"><ele>227.0</ele><time>2026-04-26T07:05:06Z</time></trkpt><trkpt lat="45.58565468061278" lon="10.739206447480333"><ele>227.0</ele><time>2026-04-26T07:05:07Z</time></trkpt><trkpt lat="45.585597903999975" lon="10.738993042928934"><ele>227.0</ele><time>2026-04-26T07:05:08Z</time></trkpt><trkpt lat="45.58552875124228" lon="10.738781962809762"><ele>227.0</ele><time>2026-04-26T07:05:09Z</time></trkpt><trkpt lat="45.585472837123845" lon="10.738574123985707"><ele>227.0</ele><time>2026-04-26T07:05:10Z</time></trkpt><trkpt lat="45.58542041442604" lon="10.738365609714672"><ele>227.0</ele><time>2026-04-26T07:05:11Z</time></trkpt><trkpt lat="45.58536982708527" lon="10.738168674280368"><ele>223.75</ele><time>2026-04-26T07:05:12Z</time></trkpt><trkpt lat="45.58532127827142" lon="10.737969062020944"><ele>220.5</ele><time>2026-04-26T07:05:13Z</time></trkpt><trkpt lat="45.58527709848865" lon="10.737772919962987"><ele>217.25</ele><time>2026-04-26T07:05:14Z</time></trkpt><trkpt lat="45.58524606505124" lon="10.737576969330346"><ele>214.0</ele><time>2026-04-26T07:05:15Z</time></trkpt><trkpt lat="45.58522940665373" lon="10.73736959318319"><ele>213.0</ele><time>2026-04-26T07:05:16Z</time></trkpt><trkpt lat="45.58522566665831" lon="10.737166329123767"><ele>212.0</ele><time>2026-04-26T07:05:17Z</time></trkpt><trkpt lat="45.58523377498094" lon="10.736971530094474"><ele>211.0</ele><time>2026-04-26T07:05:18Z</time></trkpt><trkpt lat="45.58526486179586" lon="10.73677438280822"><ele>210.0</ele><time>2026-04-26T07:05:19Z</time></trkpt><trkpt lat="45.58529829325407" lon="10.736585072510318"><ele>210.75</ele><time>2026-04-26T07:05:20Z</time></trkpt><trkpt lat="45.58534636126961" lon="10.73641186251765"><ele>211.5</ele><time>2026-04-26T07:05:21Z</time></trkpt><trkpt lat="45.585396681188314" lon="10.736234911862937"><ele>212.25</ele><time>2026-04-26T07:05:22Z</time></trkpt><trkpt lat="45.58544993420305" lon="10.736057737465234"><ele>213.0</ele><time>2026-04-26T07:05:23Z</time></trkpt><trkpt lat="45.58550711311514" lon="10.735868634535672"><ele>213.0</ele><time>2026-04-26T07:05:24Z</time></trkpt><trkpt lat="45.58556349859493" lon="10.735671300286043"><ele>213.0</ele><time>2026-04-26T07:05:25Z</time></trkpt><trkpt lat="45.58561507117022" lon="10.735463054368195"><ele>213.0</ele><time>2026-04-26T07:05:26Z</time></trkpt><trkpt lat="45.585656343809994" lon="10.735249165354638"><ele>211.0</ele><time>2026-04-26T07:05:26.999Z</time></trkpt><trkpt lat="45.58568697210456" lon="10.735027580437015"><ele>209.0</ele><time>2026-04-26T07:05:27.999Z</time></trkpt><trkpt lat="45.585709442270414" lon="10.734791417722056"><ele>207.0</ele><time>2026-04-26T07:05:28.999Z</time></trkpt><trkpt lat="45.5857220584565" lon="10.734560670768882"><ele>205.25</ele><time>2026-04-26T07:05:29.999Z</time></trkpt><trkpt lat="45.585732941391825" lon="10.734338119621388"><ele>203.5</ele><time>2026-04-26T07:05:30.999Z</time></trkpt><trkpt lat="45.585741998093845" lon="10.734122890388095"><ele>201.75</ele><time>2026-04-26T07:05:31.999Z</time></trkpt><trkpt lat="45.585753125287674" lon="10.733920906344794"><ele>200.0</ele><time>2026-04-26T07:05:32.999Z</time></trkpt><trkpt lat="45.585763743772134" lon="10.733724496418462"><ele>199.75</ele><time>2026-04-26T07:05:33.999Z</time></trkpt><trkpt lat="45.58574636643535" lon="10.73353778251314"><ele>199.5</ele><time>2026-04-26T07:05:34.999Z</time></trkpt><trkpt lat="45.58572353511176" lon="10.733362422905792"><ele>199.25</ele><time>2026-04-26T07:05:35.999Z</time></trkpt><trkpt lat="45.58562037275156" lon="10.73323784001243"><ele>199.0</ele><time>2026-04-26T07:05:36.999Z</time></trkpt><trkpt lat="45.58551896466364" lon="10.733139522856684"><ele>199.0</ele><time>2026-04-26T07:05:37.999Z</time></trkpt><trkpt lat="45.585403630826605" lon="10.733060246613215"><ele>199.0</ele><time>2026-04-26T07:05:38.999Z</time></trkpt><trkpt lat="45.58528485526638" lon="10.732970121010972"><ele>199.0</ele><time>2026-04-26T07:05:39.999Z</time></trkpt><trkpt lat="45.585179215995666" lon="10.732857955325231"><ele>199.0</ele><time>2026-04-26T07:05:40.999Z</time></trkpt><trkpt lat="45.58508981860831" lon="10.732724394276268"><ele>195.5</ele><time>2026-04-26T07:05:41.999Z</time></trkpt><trkpt lat="45.58501685205722" lon="10.732570809918277"><ele>192.0</ele><time>2026-04-26T07:05:42.999Z</time></trkpt><trkpt lat="45.58496553594425" lon="10.732406558512714"><ele>188.5</ele><time>2026-04-26T07:05:43.999Z</time></trkpt><trkpt lat="45.5849328900391" lon="10.732249726993741"><ele>185.0</ele><time>2026-04-26T07:05:44.999Z</time></trkpt><trkpt lat="45.58492269688678" lon="10.732111655467333"><ele>185.0</ele><time>2026-04-26T07:05:45.999Z</time></trkpt><trkpt lat="45.58492208004253" lon="10.73199648160689"><ele>185.0</ele><time>2026-04-26T07:05:46.999Z</time></trkpt><trkpt lat="45.58489592165496" lon="10.731900386183279"><ele>185.0</ele><time>2026-04-26T07:05:47.999Z</time></trkpt><trkpt lat="45.58484041633675" lon="10.731836885524032"><ele>185.0</ele><time>2026-04-26T07:05:48.999Z</time></trkpt><trkpt lat="45.58472572323078" lon="10.731869498728383"><ele>185.0</ele><time>2026-04-26T07:05:50.999Z</time></trkpt><trkpt lat="45.58468834783291" lon="10.731952741975013"><ele>185.0</ele><time>2026-04-26T07:05:51.999Z</time></trkpt><trkpt lat="45.58466685133153" lon="10.732054737653886"><ele>185.0</ele><time>2026-04-26T07:05:52.999Z</time></trkpt><trkpt lat="45.584654624603026" lon="10.732167367279141"><ele>185.0</ele><time>2026-04-26T07:05:53.999Z</time></trkpt><trkpt lat="45.58464402977995" lon="10.732293981145885"><ele>185.0</ele><time>2026-04-26T07:05:54.999Z</time></trkpt><trkpt lat="45.58463329824845" lon="10.732413629858826"><ele>185.0</ele><time>2026-04-26T07:05:55.999Z</time></trkpt><trkpt lat="45.584628534539924" lon="10.732523530143634"><ele>185.0</ele><time>2026-04-26T07:05:56.999Z</time></trkpt><trkpt lat="45.58462471245872" lon="10.732618791258131"><ele>185.0</ele><time>2026-04-26T07:05:57.999Z</time></trkpt><trkpt lat="45.584565705551164" lon="10.732734078413941"><ele>185.0</ele><time>2026-04-26T07:05:59.999Z</time></trkpt><trkpt lat="45.58447856508418" lon="10.732642133089096"><ele>185.0</ele><time>2026-04-26T07:06:01.999Z</time></trkpt><trkpt lat="45.58448652540894" lon="10.732522467848696"><ele>185.0</ele><time>2026-04-26T07:06:02.999Z</time></trkpt><trkpt lat="45.58450448283623" lon="10.732384863884283"><ele>185.0</ele><time>2026-04-26T07:06:03.999Z</time></trkpt><trkpt lat="45.584509423524615" lon="10.732234144971533"><ele>185.0</ele><time>2026-04-26T07:06:04.999Z</time></trkpt><trkpt lat="45.584515904630905" lon="10.732064592515176"><ele>185.0</ele><time>2026-04-26T07:06:05.999Z</time></trkpt><trkpt lat="45.58452778986267" lon="10.731871020062878"><ele>185.0</ele><time>2026-04-26T07:06:06.999Z</time></trkpt><trkpt lat="45.58451222838016" lon="10.731741462587388"><ele>185.0</ele><time>2026-04-26T07:06:07.999Z</time></trkpt><trkpt lat="45.58451124545965" lon="10.731558878696635"><ele>185.0</ele><time>2026-04-26T07:06:08.999Z</time></trkpt><trkpt lat="45.58450192448818" lon="10.731391246970585"><ele>179.4</ele><time>2026-04-26T07:06:09.999Z</time></trkpt><trkpt lat="45.58447374134776" lon="10.731239061311598"><ele>173.8</ele><time>2026-04-26T07:06:10.999Z</time></trkpt><trkpt lat="45.58444971412681" lon="10.731086251421754"><ele>168.2</ele><time>2026-04-26T07:06:11.999Z</time></trkpt><trkpt lat="45.58442678316216" lon="10.730941909961217"><ele>162.6</ele><time>2026-04-26T07:06:12.999Z</time></trkpt><trkpt lat="45.58440744097512" lon="10.73079780217445"><ele>157.0</ele><time>2026-04-26T07:06:13.999Z</time></trkpt><trkpt lat="45.58438855154769" lon="10.73066364721381"><ele>157.0</ele><time>2026-04-26T07:06:14.999Z</time></trkpt><trkpt lat="45.58437270521189" lon="10.730530378056208"><ele>157.0</ele><time>2026-04-26T07:06:15.999Z</time></trkpt><trkpt lat="45.58435929527528" lon="10.730402124739761"><ele>157.0</ele><time>2026-04-26T07:06:16.999Z</time></trkpt><trkpt lat="45.58434576140612" lon="10.730278009230194"><ele>157.0</ele><time>2026-04-26T07:06:17.999Z</time></trkpt><trkpt lat="45.58433038046036" lon="10.7301559343378"><ele>157.0</ele><time>2026-04-26T07:06:18.999Z</time></trkpt><trkpt lat="45.58432616766204" lon="10.730030777876086"><ele>157.0</ele><time>2026-04-26T07:06:19.999Z</time></trkpt><trkpt lat="45.584294746242136" lon="10.729917022459746"><ele>156.6</ele><time>2026-04-26T07:06:20.999Z</time></trkpt><trkpt lat="45.5842821496823" lon="10.729797384050238"><ele>156.2</ele><time>2026-04-26T07:06:21.999Z</time></trkpt><trkpt lat="45.58426560244509" lon="10.729668350647868"><ele>155.8</ele><time>2026-04-26T07:06:22.999Z</time></trkpt><trkpt lat="45.58424273576711" lon="10.729511700419001"><ele>155.4</ele><time>2026-04-26T07:06:23.999Z</time></trkpt><trkpt lat="45.58422133260316" lon="10.729342027790135"><ele>155.0</ele><time>2026-04-26T07:06:24.999Z</time></trkpt><trkpt lat="45.5842008665948" lon="10.729177717972663"><ele>154.25</ele><time>2026-04-26T07:06:25.999Z</time></trkpt><trkpt lat="45.584175764436495" lon="10.729018145097902"><ele>153.5</ele><time>2026-04-26T07:06:26.999Z</time></trkpt><trkpt lat="45.58413870089918" lon="10.72886791079316"><ele>152.75</ele><time>2026-04-26T07:06:27.999Z</time></trkpt><trkpt lat="45.58407412728058" lon="10.728717130769454"><ele>152.0</ele><time>2026-04-26T07:06:28.999Z</time></trkpt><trkpt lat="45.583975964886484" lon="10.72858665576179"><ele>151.25</ele><time>2026-04-26T07:06:29.999Z</time></trkpt><trkpt lat="45.58388151572058" lon="10.72846937201795"><ele>150.5</ele><time>2026-04-26T07:06:30.999Z</time></trkpt><trkpt lat="45.58378303400572" lon="10.728357577750772"><ele>149.75</ele><time>2026-04-26T07:06:31.999Z</time></trkpt><trkpt lat="45.583696172756575" lon="10.728237236630028"><ele>149.0</ele><time>2026-04-26T07:06:32.999Z</time></trkpt><trkpt lat="45.58363124011775" lon="10.728099393291334"><ele>146.0</ele><time>2026-04-26T07:06:33.999Z</time></trkpt><trkpt lat="45.58360125893722" lon="10.727948420993446"><ele>143.0</ele><time>2026-04-26T07:06:34.999Z</time></trkpt><trkpt lat="45.583581001113885" lon="10.727799343392395"><ele>140.0</ele><time>2026-04-26T07:06:35.999Z</time></trkpt><trkpt lat="45.58356621809836" lon="10.727652864287268"><ele>137.0</ele><time>2026-04-26T07:06:36.999Z</time></trkpt><trkpt lat="45.5835489573065" lon="10.727511734226992"><ele>134.0</ele><time>2026-04-26T07:06:37.999Z</time></trkpt><trkpt lat="45.583531345325746" lon="10.72737712616215"><ele>133.4</ele><time>2026-04-26T07:06:38.999Z</time></trkpt><trkpt lat="45.58351533391529" lon="10.727245822843258"><ele>132.8</ele><time>2026-04-26T07:06:39.999Z</time></trkpt><trkpt lat="45.58349815353292" lon="10.727119264996766"><ele>132.2</ele><time>2026-04-26T07:06:40.999Z</time></trkpt><trkpt lat="45.583482971593384" lon="10.726998612485449"><ele>131.6</ele><time>2026-04-26T07:06:41.999Z</time></trkpt><trkpt lat="45.58346567016746" lon="10.726869770349374"><ele>131.0</ele><time>2026-04-26T07:06:42.999Z</time></trkpt><trkpt lat="45.583448893878305" lon="10.726737198993158"><ele>130.66666666666666</ele><time>2026-04-26T07:06:43.999Z</time></trkpt><trkpt lat="45.583432540359865" lon="10.726610671846334"><ele>130.33333333333331</ele><time>2026-04-26T07:06:44.999Z</time></trkpt><trkpt lat="45.58341689705704" lon="10.726492052437147"><ele>130.0</ele><time>2026-04-26T07:06:45.999Z</time></trkpt><trkpt lat="45.58340249390127" lon="10.726376069987326"><ele>129.66666666666666</ele><time>2026-04-26T07:06:46.999Z</time></trkpt><trkpt lat="45.58338908591901" lon="10.726266749665353"><ele>129.33333333333334</ele><time>2026-04-26T07:06:47.999Z</time></trkpt><trkpt lat="45.58337251729535" lon="10.726158050857189"><ele>129.0</ele><time>2026-04-26T07:06:48.999Z</time></trkpt><trkpt lat="45.58335680645214" lon="10.726056100975665"><ele>128.83333333333334</ele><time>2026-04-26T07:06:49.999Z</time></trkpt><trkpt lat="45.58333450421914" lon="10.725966790622268"><ele>128.66666666666666</ele><time>2026-04-26T07:06:50.999Z</time></trkpt><trkpt lat="45.583304876612914" lon="10.725887210280769"><ele>128.5</ele><time>2026-04-26T07:06:51.999Z</time></trkpt><trkpt lat="45.58322957459897" lon="10.725762193333653"><ele>128.33333333333331</ele><time>2026-04-26T07:06:53.999Z</time></trkpt><trkpt lat="45.58315752103148" lon="10.725643965995133"><ele>128.16666666666666</ele><time>2026-04-26T07:06:55.999Z</time></trkpt><trkpt lat="45.58311675183827" lon="10.725544267542064"><ele>128.0</ele><time>2026-04-26T07:06:57.999Z</time></trkpt><trkpt lat="45.583221088780924" lon="10.725476047588517"><ele>128.0</ele><time>2026-04-26T07:07:00.999Z</time></trkpt><trkpt lat="45.58329814296263" lon="10.725491632045244"><ele>128.0</ele><time>2026-04-26T07:07:02.999Z</time></trkpt><trkpt lat="45.5833681409079" lon="10.725460015552938"><ele>128.0</ele><time>2026-04-26T07:07:42.999Z</time></trkpt><trkpt lat="45.58344039417668" lon="10.725428011671701"><ele>128.0</ele><time>2026-04-26T07:07:54.999Z</time></trkpt><trkpt lat="45.58352628032894" lon="10.725413585258721"><ele>128.0</ele><time>2026-04-26T07:07:56.999Z</time></trkpt><trkpt lat="45.583577630817544" lon="10.725229310340545"><ele>127.66666666666666</ele><time>2026-04-26T07:07:58.999Z</time></trkpt><trkpt lat="45.58361503035631" lon="10.725091135780652"><ele>127.33333333333333</ele><time>2026-04-26T07:08:00.999Z</time></trkpt><trkpt lat="45.58363437052147" lon="10.724999255303814"><ele>127.0</ele><time>2026-04-26T07:08:01.999Z</time></trkpt><trkpt lat="45.58365247720565" lon="10.72491181342691"><ele>126.66666666666666</ele><time>2026-04-26T07:08:02.999Z</time></trkpt><trkpt lat="45.58369245442069" lon="10.724743770362174"><ele>126.33333333333333</ele><time>2026-04-26T07:08:04.999Z</time></trkpt><trkpt lat="45.58371524892492" lon="10.724656777286617"><ele>126.0</ele><time>2026-04-26T07:08:05.999Z</time></trkpt><trkpt lat="45.58374307135989" lon="10.724575905167057"><ele>126.66666666666667</ele><time>2026-04-26T07:08:06.999Z</time></trkpt><trkpt lat="45.58378176946834" lon="10.724490411927599"><ele>127.33333333333334</ele><time>2026-04-26T07:08:07.999Z</time></trkpt><trkpt lat="45.58382362458197" lon="10.724408223377132"><ele>128.0</ele><time>2026-04-26T07:08:08.999Z</time></trkpt><trkpt lat="45.583878600114055" lon="10.724326785126106"><ele>128.66666666666669</ele><time>2026-04-26T07:08:09.999Z</time></trkpt><trkpt lat="45.583931505985916" lon="10.724246506822977"><ele>129.33333333333334</ele><time>2026-04-26T07:08:10.999Z</time></trkpt><trkpt lat="45.58398094480197" lon="10.724157021999227"><ele>130.0</ele><time>2026-04-26T07:08:11.999Z</time></trkpt><trkpt lat="45.58402801940915" lon="10.724071954742188"><ele>130.16666666666669</ele><time>2026-04-26T07:08:12.999Z</time></trkpt><trkpt lat="45.584078219427305" lon="10.723994041185268"><ele>130.33333333333334</ele><time>2026-04-26T07:08:13.999Z</time></trkpt><trkpt lat="45.5841353568186" lon="10.723911730575916"><ele>130.5</ele><time>2026-04-26T07:08:14.999Z</time></trkpt><trkpt lat="45.58419746349007" lon="10.723836383852344"><ele>130.66666666666666</ele><time>2026-04-26T07:08:15.999Z</time></trkpt><trkpt lat="45.58425845261774" lon="10.723756890445273"><ele>130.83333333333331</ele><time>2026-04-26T07:08:16.999Z</time></trkpt><trkpt lat="45.584315451584516" lon="10.723677703522627"><ele>131.0</ele><time>2026-04-26T07:08:17.999Z</time></trkpt><trkpt lat="45.5843732523298" lon="10.723613334141195"><ele>131.33333333333331</ele><time>2026-04-26T07:08:18.999Z</time></trkpt><trkpt lat="45.584491612699296" lon="10.72355048142223"><ele>131.66666666666666</ele><time>2026-04-26T07:08:20.999Z</time></trkpt><trkpt lat="45.58455415422552" lon="10.723530901989976"><ele>132.0</ele><time>2026-04-26T07:08:21.999Z</time></trkpt><trkpt lat="45.584626038539845" lon="10.723538257315814"><ele>132.33333333333334</ele><time>2026-04-26T07:08:22.999Z</time></trkpt><trkpt lat="45.58468889514606" lon="10.723593834683943"><ele>132.66666666666669</ele><time>2026-04-26T07:08:23.999Z</time></trkpt><trkpt lat="45.58473980353756" lon="10.723695216168043"><ele>133.0</ele><time>2026-04-26T07:08:24.999Z</time></trkpt><trkpt lat="45.584791188827595" lon="10.72382168517272"><ele>135.66666666666669</ele><time>2026-04-26T07:08:25.999Z</time></trkpt><trkpt lat="45.58487052606676" lon="10.72395011216825"><ele>138.33333333333334</ele><time>2026-04-26T07:08:26.999Z</time></trkpt><trkpt lat="45.58494695020371" lon="10.724030988005483"><ele>141.0</ele><time>2026-04-26T07:08:27.999Z</time></trkpt><trkpt lat="45.58501148335709" lon="10.724076479392393"><ele>143.66666666666666</ele><time>2026-04-26T07:08:28.999Z</time></trkpt><trkpt lat="45.585081188412076" lon="10.724086922204377"><ele>146.33333333333331</ele><time>2026-04-26T07:08:29.999Z</time></trkpt><trkpt lat="45.58515939198161" lon="10.724073287674585"><ele>149.0</ele><time>2026-04-26T07:08:30.999Z</time></trkpt><trkpt lat="45.585245660286745" lon="10.724052735065998"><ele>149.0</ele><time>2026-04-26T07:08:31.999Z</time></trkpt><trkpt lat="45.58532032941753" lon="10.724052895157811"><ele>149.0</ele><time>2026-04-26T07:08:32.999Z</time></trkpt><trkpt lat="45.58539175884957" lon="10.7240858722643"><ele>149.0</ele><time>2026-04-26T07:08:33.999Z</time></trkpt><trkpt lat="45.58547051427327" lon="10.724157802017643"><ele>149.0</ele><time>2026-04-26T07:08:34.999Z</time></trkpt><trkpt lat="45.58556475783835" lon="10.724233755321679"><ele>149.0</ele><time>2026-04-26T07:08:35.999Z</time></trkpt><trkpt lat="45.58563106180789" lon="10.724299811809905"><ele>149.0</ele><time>2026-04-26T07:08:36.999Z</time></trkpt><trkpt lat="45.585704998654755" lon="10.724377773443718"><ele>150.0</ele><time>2026-04-26T07:08:38.999Z</time></trkpt><trkpt lat="45.585770805718894" lon="10.724406231723329"><ele>151.0</ele><time>2026-04-26T07:08:41.999Z</time></trkpt><trkpt lat="45.585846264189556" lon="10.72442319568684"><ele>152.0</ele><time>2026-04-26T07:08:43.999Z</time></trkpt><trkpt lat="45.58595048380749" lon="10.72445787565955"><ele>153.0</ele><time>2026-04-26T07:08:45.999Z</time></trkpt><trkpt lat="45.58598592093639" lon="10.724533826937705"><ele>154.0</ele><time>2026-04-26T07:08:46.999Z</time></trkpt><trkpt lat="45.586047219471695" lon="10.7245745716153"><ele>155.0</ele><time>2026-04-26T07:08:47.999Z</time></trkpt><trkpt lat="45.586130043522815" lon="10.724665849075873"><ele>160.0</ele><time>2026-04-26T07:08:49.999Z</time></trkpt><trkpt lat="45.58619293778797" lon="10.724721615770491"><ele>165.0</ele><time>2026-04-26T07:08:50.999Z</time></trkpt><trkpt lat="45.58628288854532" lon="10.724777919494374"><ele>170.0</ele><time>2026-04-26T07:08:51.999Z</time></trkpt><trkpt lat="45.586384365444076" lon="10.724830850148033"><ele>175.0</ele><time>2026-04-26T07:08:52.999Z</time></trkpt><trkpt lat="45.58648670709033" lon="10.724874528337677"><ele>180.0</ele><time>2026-04-26T07:08:53.999Z</time></trkpt><trkpt lat="45.586583584541856" lon="10.724914295427167"><ele>180.0</ele><time>2026-04-26T07:08:54.999Z</time></trkpt><trkpt lat="45.58666751095933" lon="10.72495219978977"><ele>180.0</ele><time>2026-04-26T07:08:55.998Z</time></trkpt><trkpt lat="45.586734354037056" lon="10.724981795791695"><ele>180.0</ele><time>2026-04-26T07:08:56.998Z</time></trkpt><trkpt lat="45.58680372693256" lon="10.725016303784747"><ele>180.0</ele><time>2026-04-26T07:08:57.998Z</time></trkpt><trkpt lat="45.58686391184071" lon="10.725046093977767"><ele>180.0</ele><time>2026-04-26T07:08:58.998Z</time></trkpt><trkpt lat="45.5869590041533" lon="10.725107769841355"><ele>180.0</ele><time>2026-04-26T07:09:00.998Z</time></trkpt><trkpt lat="45.587025221341854" lon="10.725100533111782"><ele>184.8</ele><time>2026-04-26T07:09:02.998Z</time></trkpt><trkpt lat="45.58709727583418" lon="10.724918360468964"><ele>189.6</ele><time>2026-04-26T07:09:05.998Z</time></trkpt><trkpt lat="45.58711254276783" lon="10.724822470205261"><ele>194.39999999999998</ele><time>2026-04-26T07:09:06.998Z</time></trkpt><trkpt lat="45.587137902199856" lon="10.724641735982742"><ele>199.2</ele><time>2026-04-26T07:09:08.998Z</time></trkpt><trkpt lat="45.58715207298627" lon="10.724540742155359"><ele>204.0</ele><time>2026-04-26T07:09:09.998Z</time></trkpt><trkpt lat="45.58716898540578" lon="10.724420208933424"><ele>203.5</ele><time>2026-04-26T07:09:10.998Z</time></trkpt><trkpt lat="45.58718509548462" lon="10.724293768400305"><ele>203.0</ele><time>2026-04-26T07:09:11.998Z</time></trkpt><trkpt lat="45.58719983720404" lon="10.724168011078447"><ele>202.5</ele><time>2026-04-26T07:09:12.998Z</time></trkpt><trkpt lat="45.587212691468636" lon="10.724045833126485"><ele>202.0</ele><time>2026-04-26T07:09:13.998Z</time></trkpt><trkpt lat="45.58722226004783" lon="10.723928984001832"><ele>201.5</ele><time>2026-04-26T07:09:14.998Z</time></trkpt><trkpt lat="45.58722955885296" lon="10.723824634684991"><ele>201.0</ele><time>2026-04-26T07:09:15.998Z</time></trkpt><trkpt lat="45.5872368204208" lon="10.723714019447867"><ele>201.0</ele><time>2026-04-26T07:09:16.998Z</time></trkpt><trkpt lat="45.58724155945274" lon="10.723583306469731"><ele>201.0</ele><time>2026-04-26T07:09:17.998Z</time></trkpt><trkpt lat="45.5872304210562" lon="10.723437240701127"><ele>201.0</ele><time>2026-04-26T07:09:18.998Z</time></trkpt><trkpt lat="45.58723089202518" lon="10.723305937505977"><ele>201.0</ele><time>2026-04-26T07:09:19.998Z</time></trkpt><trkpt lat="45.587231828075886" lon="10.723186392641406"><ele>201.0</ele><time>2026-04-26T07:09:20.998Z</time></trkpt><trkpt lat="45.58721827817128" lon="10.723046109625809"><ele>200.83333333333334</ele><time>2026-04-26T07:09:21.998Z</time></trkpt><trkpt lat="45.58720852130742" lon="10.722912822510157"><ele>200.66666666666669</ele><time>2026-04-26T07:09:22.999Z</time></trkpt><trkpt lat="45.587201445870335" lon="10.722795535626968"><ele>200.5</ele><time>2026-04-26T07:09:23.999Z</time></trkpt><trkpt lat="45.58719967032443" lon="10.722698476764334"><ele>200.33333333333334</ele><time>2026-04-26T07:09:24.999Z</time></trkpt><trkpt lat="45.58719121848362" lon="10.722605137966488"><ele>200.16666666666669</ele><time>2026-04-26T07:09:25.999Z</time></trkpt><trkpt lat="45.58715153588405" lon="10.72245672375561"><ele>200.0</ele><time>2026-04-26T07:09:27.999Z</time></trkpt><trkpt lat="45.58714815207668" lon="10.722366759762222"><ele>200.00000000000003</ele><time>2026-04-26T07:09:28.999Z</time></trkpt><trkpt lat="45.58707027088023" lon="10.722233927389794"><ele>200.0</ele><time>2026-04-26T07:09:30.999Z</time></trkpt><trkpt lat="45.58700410161812" lon="10.722209404699683"><ele>200.0</ele><time>2026-04-26T07:09:31.999Z</time></trkpt><trkpt lat="45.58692750318162" lon="10.722244871912919"><ele>200.0</ele><time>2026-04-26T07:09:32.999Z</time></trkpt><trkpt lat="45.58686142801646" lon="10.722258997215953"><ele>200.00000000000003</ele><time>2026-04-26T07:09:33.999Z</time></trkpt><trkpt lat="45.58679567109032" lon="10.722245127418416"><ele>200.0</ele><time>2026-04-26T07:09:34.999Z</time></trkpt><trkpt lat="45.586731868827265" lon="10.722249738246473"><ele>196.50000000000003</ele><time>2026-04-26T07:09:35.999Z</time></trkpt><trkpt lat="45.58663313607647" lon="10.722253015193404"><ele>193.0</ele><time>2026-04-26T07:09:37.999Z</time></trkpt><trkpt lat="45.586551130290935" lon="10.72220209856445"><ele>189.5</ele><time>2026-04-26T07:09:39.999Z</time></trkpt><trkpt lat="45.58654669069523" lon="10.722098228679167"><ele>186.0</ele><time>2026-04-26T07:09:40.999Z</time></trkpt><trkpt lat="45.58649936489703" lon="10.72201689427048"><ele>182.5</ele><time>2026-04-26T07:09:41.999Z</time></trkpt><trkpt lat="45.58647829994773" lon="10.721888191411047"><ele>179.0</ele><time>2026-04-26T07:09:42.999Z</time></trkpt><trkpt lat="45.58646813367573" lon="10.721748472051448"><ele>179.0</ele><time>2026-04-26T07:09:43.999Z</time></trkpt><trkpt lat="45.58646103203102" lon="10.721594531370933"><ele>179.0</ele><time>2026-04-26T07:09:44.999Z</time></trkpt><trkpt lat="45.58645563860988" lon="10.721441828674077"><ele>179.0</ele><time>2026-04-26T07:09:45.999Z</time></trkpt><trkpt lat="45.58643962906915" lon="10.721285594216479"><ele>179.0</ele><time>2026-04-26T07:09:46.999Z</time></trkpt><trkpt lat="45.58642210981803" lon="10.721138295604376"><ele>179.0</ele><time>2026-04-26T07:09:47.999Z</time></trkpt><trkpt lat="45.58641115569338" lon="10.721010645369354"><ele>179.6</ele><time>2026-04-26T07:09:48.999Z</time></trkpt><trkpt lat="45.58640478528582" lon="10.720894663390244"><ele>180.2</ele><time>2026-04-26T07:09:49.999Z</time></trkpt><trkpt lat="45.58641368963106" lon="10.720776340561983"><ele>180.79999999999998</ele><time>2026-04-26T07:09:50.999Z</time></trkpt><trkpt lat="45.58639920854515" lon="10.720633090387137"><ele>181.39999999999998</ele><time>2026-04-26T07:09:51.999Z</time></trkpt><trkpt lat="45.586397995772444" lon="10.720473037094237"><ele>182.0</ele><time>2026-04-26T07:09:52.999Z</time></trkpt><trkpt lat="45.586394026295174" lon="10.720292764202293"><ele>182.5</ele><time>2026-04-26T07:09:53.999Z</time></trkpt><trkpt lat="45.58638657201672" lon="10.720093216663635"><ele>183.0</ele><time>2026-04-26T07:09:54.999Z</time></trkpt><trkpt lat="45.58637848475089" lon="10.719922585044104"><ele>183.5</ele><time>2026-04-26T07:09:55.999Z</time></trkpt><trkpt lat="45.58637325025771" lon="10.719779119140462"><ele>184.0</ele><time>2026-04-26T07:09:56.999Z</time></trkpt><trkpt lat="45.58636812267008" lon="10.719630769250154"><ele>184.0</ele><time>2026-04-26T07:09:57.999Z</time></trkpt><trkpt lat="45.58636394477856" lon="10.719499643751327"><ele>184.0</ele><time>2026-04-26T07:09:58.999Z</time></trkpt><trkpt lat="45.58636008295078" lon="10.719398266991654"><ele>184.0</ele><time>2026-04-26T07:09:59.999Z</time></trkpt><trkpt lat="45.58635399779854" lon="10.719273746754856"><ele>184.0</ele><time>2026-04-26T07:10:01.999Z</time></trkpt><trkpt lat="45.586200436009854" lon="10.719259380821095"><ele>184.0</ele><time>2026-04-26T07:10:04.999Z</time></trkpt><trkpt lat="45.58612619246555" lon="10.719266987711432"><ele>181.79999999999998</ele><time>2026-04-26T07:10:05.999Z</time></trkpt><trkpt lat="45.58601915825277" lon="10.71926751577458"><ele>179.6</ele><time>2026-04-26T07:10:06.999Z</time></trkpt><trkpt lat="45.58592119017774" lon="10.719268698431923"><ele>177.4</ele><time>2026-04-26T07:10:07.999Z</time></trkpt><trkpt lat="45.585830008700654" lon="10.719268305136023"><ele>175.2</ele><time>2026-04-26T07:10:08.999Z</time></trkpt><trkpt lat="45.58574297890298" lon="10.719231083771406"><ele>173.0</ele><time>2026-04-26T07:10:09.999Z</time></trkpt><trkpt lat="45.585658438374274" lon="10.719187532968375"><ele>173.0</ele><time>2026-04-26T07:10:10.999Z</time></trkpt><trkpt lat="45.58558509679284" lon="10.71912249788624"><ele>173.0</ele><time>2026-04-26T07:10:11.999Z</time></trkpt><trkpt lat="45.58551643772452" lon="10.719070684171566"><ele>173.0</ele><time>2026-04-26T07:10:12.999Z</time></trkpt><trkpt lat="45.58549057784164" lon="10.718978682382557"><ele>173.0</ele><time>2026-04-26T07:10:13.999Z</time></trkpt><trkpt lat="45.58550354337666" lon="10.718872745815665"><ele>173.0</ele><time>2026-04-26T07:10:14.999Z</time></trkpt><trkpt lat="45.58546136134751" lon="10.718788629251598"><ele>173.0</ele><time>2026-04-26T07:10:15.999Z</time></trkpt><trkpt lat="45.58540957251991" lon="10.718734159409651"><ele>173.0</ele><time>2026-04-26T07:10:16.999Z</time></trkpt><trkpt lat="45.58533102434695" lon="10.718690858129511"><ele>169.6</ele><time>2026-04-26T07:10:20.999Z</time></trkpt><trkpt lat="45.5852391885541" lon="10.718681042092067"><ele>166.20000000000002</ele><time>2026-04-26T07:10:37.999Z</time></trkpt><trkpt lat="45.58515443857857" lon="10.718744590586942"><ele>162.8</ele><time>2026-04-26T07:10:46.999Z</time></trkpt><trkpt lat="45.58506514585723" lon="10.718781460123791"><ele>159.4</ele><time>2026-04-26T07:10:48.999Z</time></trkpt><trkpt lat="45.58495563454049" lon="10.718788633848893"><ele>156.0</ele><time>2026-04-26T07:10:50.999Z</time></trkpt><trkpt lat="45.58484207668869" lon="10.71873099869679"><ele>156.0</ele><time>2026-04-26T07:10:52.999Z</time></trkpt><trkpt lat="45.58478789556594" lon="10.718683395571713"><ele>156.0</ele><time>2026-04-26T07:10:53.999Z</time></trkpt><trkpt lat="45.58473405273913" lon="10.718629062262517"><ele>156.0</ele><time>2026-04-26T07:10:54.999Z</time></trkpt><trkpt lat="45.58467327227023" lon="10.718556380399297"><ele>156.0</ele><time>2026-04-26T07:10:55.999Z</time></trkpt><trkpt lat="45.58461197120481" lon="10.718443785166135"><ele>156.0</ele><time>2026-04-26T07:10:56.999Z</time></trkpt><trkpt lat="45.58457270876285" lon="10.71830071108677"><ele>156.0</ele><time>2026-04-26T07:10:57.999Z</time></trkpt><trkpt lat="45.584516663561054" lon="10.718174692484464"><ele>152.4</ele><time>2026-04-26T07:10:58.999Z</time></trkpt><trkpt lat="45.584449587616454" lon="10.71805819152465"><ele>148.8</ele><time>2026-04-26T07:10:59.999Z</time></trkpt><trkpt lat="45.58439184340518" lon="10.71793188841524"><ele>145.20000000000002</ele><time>2026-04-26T07:11:00.999Z</time></trkpt><trkpt lat="45.58433156686478" lon="10.717807398246453"><ele>141.6</ele><time>2026-04-26T07:11:01.999Z</time></trkpt><trkpt lat="45.584272886740706" lon="10.717685602478156"><ele>138.0</ele><time>2026-04-26T07:11:02.999Z</time></trkpt><trkpt lat="45.58422408490435" lon="10.717572970404134"><ele>138.0</ele><time>2026-04-26T07:11:03.999Z</time></trkpt><trkpt lat="45.58417772798292" lon="10.717467085541246"><ele>138.0</ele><time>2026-04-26T07:11:04.999Z</time></trkpt><trkpt lat="45.58412851782756" lon="10.717360507746044"><ele>138.0</ele><time>2026-04-26T07:11:05.999Z</time></trkpt><trkpt lat="45.5840794032903" lon="10.717249017812223"><ele>138.0</ele><time>2026-04-26T07:11:06.999Z</time></trkpt><trkpt lat="45.58403189195829" lon="10.71713242502062"><ele>138.0</ele><time>2026-04-26T07:11:07.999Z</time></trkpt><trkpt lat="45.583992759927824" lon="10.717008228362708"><ele>137.66666666666666</ele><time>2026-04-26T07:11:08.999Z</time></trkpt><trkpt lat="45.58395266540196" lon="10.716892827929387"><ele>137.33333333333334</ele><time>2026-04-26T07:11:09.999Z</time></trkpt><trkpt lat="45.583918302994164" lon="10.71678149688091"><ele>137.0</ele><time>2026-04-26T07:11:10.999Z</time></trkpt><trkpt lat="45.58387759593279" lon="10.716676815875193"><ele>136.66666666666669</ele><time>2026-04-26T07:11:11.999Z</time></trkpt><trkpt lat="45.5838270333178" lon="10.716592084346855"><ele>136.33333333333334</ele><time>2026-04-26T07:11:12.999Z</time></trkpt><trkpt lat="45.58375745158064" lon="10.716545616493061"><ele>136.0</ele><time>2026-04-26T07:11:13.999Z</time></trkpt><trkpt lat="45.583675111640645" lon="10.716542040831312"><ele>131.8</ele><time>2026-04-26T07:11:14.999Z</time></trkpt><trkpt lat="45.58358170182103" lon="10.716562832347572"><ele>127.6</ele><time>2026-04-26T07:11:15.999Z</time></trkpt><trkpt lat="45.583465412493275" lon="10.716586465604806"><ele>123.4</ele><time>2026-04-26T07:11:16.999Z</time></trkpt><trkpt lat="45.583358657306306" lon="10.716602228678315"><ele>119.2</ele><time>2026-04-26T07:11:17.999Z</time></trkpt><trkpt lat="45.58324980423235" lon="10.716614665253386"><ele>115.0</ele><time>2026-04-26T07:11:18.999Z</time></trkpt><trkpt lat="45.583140883088646" lon="10.716630548066906"><ele>115.0</ele><time>2026-04-26T07:11:19.999Z</time></trkpt><trkpt lat="45.583030442110264" lon="10.716615269303672"><ele>115.0</ele><time>2026-04-26T07:11:20.999Z</time></trkpt><trkpt lat="45.58292848015679" lon="10.716614188629187"><ele>115.0</ele><time>2026-04-26T07:11:21.999Z</time></trkpt><trkpt lat="45.582822705629724" lon="10.716611752826982"><ele>115.0</ele><time>2026-04-26T07:11:22.999Z</time></trkpt><trkpt lat="45.58272272455621" lon="10.716607560681371"><ele>115.0</ele><time>2026-04-26T07:11:23.999Z</time></trkpt><trkpt lat="45.58262558923248" lon="10.71660216628024"><ele>113.50000000000001</ele><time>2026-04-26T07:11:24.999Z</time></trkpt><trkpt lat="45.58253339145383" lon="10.71659161099086"><ele>112.0</ele><time>2026-04-26T07:11:25.999Z</time></trkpt><trkpt lat="45.582447306304495" lon="10.716575492124006"><ele>110.5</ele><time>2026-04-26T07:11:26.999Z</time></trkpt><trkpt lat="45.58236840870093" lon="10.716557274182588"><ele>109.0</ele><time>2026-04-26T07:11:27.999Z</time></trkpt><trkpt lat="45.58229788229431" lon="10.716538444725517"><ele>107.50000000000001</ele><time>2026-04-26T07:11:29Z</time></trkpt><trkpt lat="45.58223444296908" lon="10.716521478976565"><ele>106.0</ele><time>2026-04-26T07:11:30Z</time></trkpt><trkpt lat="45.58211992263694" lon="10.716500012342124"><ele>106.0</ele><time>2026-04-26T07:11:32Z</time></trkpt><trkpt lat="45.582051346981814" lon="10.716485169468855"><ele>106.0</ele><time>2026-04-26T07:11:34Z</time></trkpt><trkpt lat="45.58210136253489" lon="10.716305654960333"><ele>106.0</ele><time>2026-04-26T07:11:37Z</time></trkpt><trkpt lat="45.58218479686668" lon="10.716272618373727"><ele>106.0</ele><time>2026-04-26T07:11:38Z</time></trkpt><trkpt lat="45.58223233214178" lon="10.716197973630713"><ele>106.0</ele><time>2026-04-26T07:11:39Z</time></trkpt><trkpt lat="45.58225543400522" lon="10.716054332969321"><ele>106.6</ele><time>2026-04-26T07:11:41Z</time></trkpt><trkpt lat="45.58223902966845" lon="10.715923350953114"><ele>107.19999999999999</ele><time>2026-04-26T07:11:43Z</time></trkpt><trkpt lat="45.58222020319462" lon="10.715748147287174"><ele>107.80000000000001</ele><time>2026-04-26T07:11:45Z</time></trkpt><trkpt lat="45.58220686705557" lon="10.715642689762998"><ele>108.4</ele><time>2026-04-26T07:11:46Z</time></trkpt><trkpt lat="45.58219554915872" lon="10.715538588751242"><ele>109.0</ele><time>2026-04-26T07:11:47Z</time></trkpt><trkpt lat="45.58217764062589" lon="10.715380639804422"><ele>109.00000000000001</ele><time>2026-04-26T07:11:49Z</time></trkpt><trkpt lat="45.58217180860717" lon="10.715255872873856"><ele>109.0</ele><time>2026-04-26T07:11:51Z</time></trkpt><trkpt lat="45.582225194022875" lon="10.715118042872486"><ele>109.0</ele><time>2026-04-26T07:11:53Z</time></trkpt><trkpt lat="45.582284962080855" lon="10.715058959357362"><ele>109.0</ele><time>2026-04-26T07:11:54Z</time></trkpt><trkpt lat="45.58232230733151" lon="10.714965608834746"><ele>109.00000000000001</ele><time>2026-04-26T07:11:55Z</time></trkpt><trkpt lat="45.58237303190804" lon="10.71490371802792"><ele>109.0</ele><time>2026-04-26T07:11:56Z</time></trkpt><trkpt lat="45.58243943800732" lon="10.714841071306811"><ele>109.6</ele><time>2026-04-26T07:11:58Z</time></trkpt><trkpt lat="45.58250974986528" lon="10.71477825315253"><ele>110.2</ele><time>2026-04-26T07:12:01Z</time></trkpt><trkpt lat="45.58258168295643" lon="10.714727336897292"><ele>110.79999999999998</ele><time>2026-04-26T07:12:04Z</time></trkpt><trkpt lat="45.58257374625993" lon="10.714527463352105"><ele>111.39999999999999</ele><time>2026-04-26T07:12:09.999Z</time></trkpt><trkpt lat="45.582561598902174" lon="10.714412128586806"><ele>112.0</ele><time>2026-04-26T07:12:10.999Z</time></trkpt><trkpt lat="45.58253685036978" lon="10.714298147949107"><ele>112.0</ele><time>2026-04-26T07:12:11.999Z</time></trkpt><trkpt lat="45.582496375981236" lon="10.714186290692295"><ele>112.0</ele><time>2026-04-26T07:12:12.999Z</time></trkpt><trkpt lat="45.582490543012995" lon="10.714073589960252"><ele>112.0</ele><time>2026-04-26T07:12:13.999Z</time></trkpt><trkpt lat="45.582471539685905" lon="10.71397901600593"><ele>112.0</ele><time>2026-04-26T07:12:14.999Z</time></trkpt><trkpt lat="45.582451772318024" lon="10.713888273198002"><ele>112.0</ele><time>2026-04-26T07:12:15.999Z</time></trkpt><trkpt lat="45.582414316301424" lon="10.71380195828268"><ele>112.0</ele><time>2026-04-26T07:12:16.999Z</time></trkpt><trkpt lat="45.58239008174639" lon="10.713704942501453"><ele>112.0</ele><time>2026-04-26T07:12:17.999Z</time></trkpt><trkpt lat="45.582369234236765" lon="10.713588414494797"><ele>112.57142857142857</ele><time>2026-04-26T07:12:18.999Z</time></trkpt><trkpt lat="45.582320997353676" lon="10.713492069011572"><ele>113.14285714285714</ele><time>2026-04-26T07:12:19.999Z</time></trkpt><trkpt lat="45.58228563453325" lon="10.713384688136964"><ele>113.71428571428572</ele><time>2026-04-26T07:12:20.999Z</time></trkpt><trkpt lat="45.58224962488786" lon="10.713292896021068"><ele>114.28571428571429</ele><time>2026-04-26T07:12:21.999Z</time></trkpt><trkpt lat="45.58222849661783" lon="10.71319788926966"><ele>114.85714285714286</ele><time>2026-04-26T07:12:22.999Z</time></trkpt><trkpt lat="45.58219659269492" lon="10.71311800981282"><ele>115.42857142857144</ele><time>2026-04-26T07:12:23.999Z</time></trkpt><trkpt lat="45.58216882954002" lon="10.713035714034367"><ele>116.00000000000001</ele><time>2026-04-26T07:12:24.999Z</time></trkpt><trkpt lat="45.58214858689761" lon="10.712947955075718"><ele>115.99999999999999</ele><time>2026-04-26T07:12:25.999Z</time></trkpt><trkpt lat="45.58209453357896" lon="10.712786793150356"><ele>116.0</ele><time>2026-04-26T07:12:27.999Z</time></trkpt><trkpt lat="45.582084857611854" lon="10.712687179440312"><ele>116.0</ele><time>2026-04-26T07:12:28.999Z</time></trkpt><trkpt lat="45.5820657908002" lon="10.712593271272892"><ele>116.0</ele><time>2026-04-26T07:12:29.999Z</time></trkpt><trkpt lat="45.582036007324724" lon="10.712499761494112"><ele>115.99999999999999</ele><time>2026-04-26T07:12:30.999Z</time></trkpt><trkpt lat="45.58199612085535" lon="10.712417090638539"><ele>116.0</ele><time>2026-04-26T07:12:31.999Z</time></trkpt><trkpt lat="45.58197119437986" lon="10.712325942075752"><ele>115.99999999999999</ele><time>2026-04-26T07:12:32.999Z</time></trkpt><trkpt lat="45.581945980749936" lon="10.712231715750601"><ele>116.0</ele><time>2026-04-26T07:12:33.999Z</time></trkpt><trkpt lat="45.581919466288745" lon="10.712138350201725"><ele>116.0</ele><time>2026-04-26T07:12:34.999Z</time></trkpt><trkpt lat="45.58189861268126" lon="10.71205014657917"><ele>116.0</ele><time>2026-04-26T07:12:35.999Z</time></trkpt><trkpt lat="45.58185576113457" lon="10.711889903930404"><ele>115.99999999999999</ele><time>2026-04-26T07:12:37.999Z</time></trkpt><trkpt lat="45.58180738705131" lon="10.71175401424178"><ele>116.0</ele><time>2026-04-26T07:12:39.999Z</time></trkpt><trkpt lat="45.58178233391083" lon="10.711670029318663"><ele>115.99999999999999</ele><time>2026-04-26T07:12:40.999Z</time></trkpt><trkpt lat="45.58176171631432" lon="10.711578052260858"><ele>116.0</ele><time>2026-04-26T07:12:41.999Z</time></trkpt><trkpt lat="45.58175119380249" lon="10.711484838221272"><ele>116.0</ele><time>2026-04-26T07:12:42.999Z</time></trkpt><trkpt lat="45.58174720397742" lon="10.711370887548181"><ele>116.0</ele><time>2026-04-26T07:12:43.999Z</time></trkpt><trkpt lat="45.58174200209523" lon="10.711278145963702"><ele>115.99999999999999</ele><time>2026-04-26T07:12:44.999Z</time></trkpt><trkpt lat="45.581727943355524" lon="10.711125444507212"><ele>116.0</ele><time>2026-04-26T07:12:46.999Z</time></trkpt><trkpt lat="45.5817147021023" lon="10.710956599223111"><ele>116.49999999999999</ele><time>2026-04-26T07:12:48.999Z</time></trkpt><trkpt lat="45.58170699953639" lon="10.71081541687159"><ele>117.0</ele><time>2026-04-26T07:12:50.999Z</time></trkpt><trkpt lat="45.58170275072609" lon="10.710708251458092"><ele>117.5</ele><time>2026-04-26T07:12:52.999Z</time></trkpt><trkpt lat="45.581698689923776" lon="10.710618488346404"><ele>118.0</ele><time>2026-04-26T07:12:54.999Z</time></trkpt><trkpt lat="45.58169799803074" lon="10.710509375898615"><ele>118.49999999999999</ele><time>2026-04-26T07:12:59.999Z</time></trkpt><trkpt lat="45.58169384461553" lon="10.710400640568226"><ele>119.0</ele><time>2026-04-26T07:13:02.999Z</time></trkpt><trkpt lat="45.58176138921243" lon="10.710319502483394"><ele>118.99999999999999</ele><time>2026-04-26T07:13:06.999Z</time></trkpt><trkpt lat="45.581899976335784" lon="10.710379526644324"><ele>119.0</ele><time>2026-04-26T07:13:08.999Z</time></trkpt><trkpt lat="45.58197464873695" lon="10.710414724807896"><ele>119.0</ele><time>2026-04-26T07:13:09.999Z</time></trkpt><trkpt lat="45.58204657206796" lon="10.7104341995885"><ele>119.0</ele><time>2026-04-26T07:13:10.999Z</time></trkpt><trkpt lat="45.58212039589326" lon="10.710447671826433"><ele>118.99999999999999</ele><time>2026-04-26T07:13:11.999Z</time></trkpt><trkpt lat="45.582190566483845" lon="10.710455721475268"><ele>119.0</ele><time>2026-04-26T07:13:12.999Z</time></trkpt><trkpt lat="45.58226257182318" lon="10.710463250519298"><ele>120.66666666666666</ele><time>2026-04-26T07:13:13.999Z</time></trkpt><trkpt lat="45.58233599879849" lon="10.71046773324101"><ele>122.33333333333333</ele><time>2026-04-26T07:13:14.999Z</time></trkpt><trkpt lat="45.58241670461598" lon="10.710474315843978"><ele>124.0</ele><time>2026-04-26T07:13:15.999Z</time></trkpt><trkpt lat="45.58250378479611" lon="10.710479874043259"><ele>125.66666666666666</ele><time>2026-04-26T07:13:16.999Z</time></trkpt><trkpt lat="45.58258950874497" lon="10.710484875574183"><ele>127.33333333333333</ele><time>2026-04-26T07:13:17.999Z</time></trkpt><trkpt lat="45.582684156606945" lon="10.710485550007725"><ele>129.0</ele><time>2026-04-26T07:13:18.999Z</time></trkpt><trkpt lat="45.58279081479085" lon="10.710474779352364"><ele>131.2</ele><time>2026-04-26T07:13:19.999Z</time></trkpt><trkpt lat="45.58290205643797" lon="10.710460696669676"><ele>133.4</ele><time>2026-04-26T07:13:20.999Z</time></trkpt><trkpt lat="45.583011952641236" lon="10.710436670608106"><ele>135.6</ele><time>2026-04-26T07:13:21.999Z</time></trkpt><trkpt lat="45.583119238330845" lon="10.710412798962295"><ele>137.8</ele><time>2026-04-26T07:13:22.999Z</time></trkpt><trkpt lat="45.58322223058288" lon="10.71039038545046"><ele>140.0</ele><time>2026-04-26T07:13:23.999Z</time></trkpt><trkpt lat="45.58332266926546" lon="10.710370688309332"><ele>140.0</ele><time>2026-04-26T07:13:24.999Z</time></trkpt><trkpt lat="45.583425303973875" lon="10.710349622077905"><ele>140.0</ele><time>2026-04-26T07:13:25.999Z</time></trkpt><trkpt lat="45.58353989813137" lon="10.710331435700203"><ele>140.0</ele><time>2026-04-26T07:13:26.999Z</time></trkpt><trkpt lat="45.583660143272965" lon="10.710315657673863"><ele>140.0</ele><time>2026-04-26T07:13:27.999Z</time></trkpt><trkpt lat="45.58378113328638" lon="10.710318322073052"><ele>142.5</ele><time>2026-04-26T07:13:28.999Z</time></trkpt><trkpt lat="45.583905625694605" lon="10.710333601455588"><ele>145.0</ele><time>2026-04-26T07:13:29.999Z</time></trkpt><trkpt lat="45.584034051454104" lon="10.710362138561582"><ele>147.5</ele><time>2026-04-26T07:13:30.999Z</time></trkpt><trkpt lat="45.58416859313287" lon="10.710401731121353"><ele>150.0</ele><time>2026-04-26T07:13:31.999Z</time></trkpt><trkpt lat="45.58429837440422" lon="10.71044617621724"><ele>150.0</ele><time>2026-04-26T07:13:32.999Z</time></trkpt><trkpt lat="45.584415251987956" lon="10.710487630163255"><ele>150.0</ele><time>2026-04-26T07:13:33.999Z</time></trkpt><trkpt lat="45.584518937573385" lon="10.710524646894665"><ele>150.0</ele><time>2026-04-26T07:13:35Z</time></trkpt><trkpt lat="45.58462035558189" lon="10.710559821799185"><ele>150.0</ele><time>2026-04-26T07:13:36Z</time></trkpt><trkpt lat="45.584719435521386" lon="10.710590408213964"><ele>150.0</ele><time>2026-04-26T07:13:37Z</time></trkpt><trkpt lat="45.584818342862924" lon="10.710615677094529"><ele>152.8</ele><time>2026-04-26T07:13:38Z</time></trkpt><trkpt lat="45.5849192928251" lon="10.710634353583137"><ele>155.6</ele><time>2026-04-26T07:13:39Z</time></trkpt><trkpt lat="45.5850262399375" lon="10.71063902138065"><ele>158.39999999999998</ele><time>2026-04-26T07:13:40Z</time></trkpt><trkpt lat="45.58512090410837" lon="10.710638812210165"><ele>161.2</ele><time>2026-04-26T07:13:41Z</time></trkpt><trkpt lat="45.5851894001322" lon="10.710634888878543"><ele>164.0</ele><time>2026-04-26T07:13:42Z</time></trkpt><trkpt lat="45.585308681904834" lon="10.71062086653195"><ele>167.0</ele><time>2026-04-26T07:13:44Z</time></trkpt><trkpt lat="45.58542022669885" lon="10.71058222291215"><ele>170.0</ele><time>2026-04-26T07:13:46Z</time></trkpt><trkpt lat="45.58548804772421" lon="10.710551892399733"><ele>173.0</ele><time>2026-04-26T07:13:47Z</time></trkpt><trkpt lat="45.58556502261332" lon="10.710517252844326"><ele>176.0</ele><time>2026-04-26T07:13:48Z</time></trkpt><trkpt lat="45.58564909858006" lon="10.71048087297973"><ele>179.0</ele><time>2026-04-26T07:13:49Z</time></trkpt><trkpt lat="45.58573171309507" lon="10.710447583045111"><ele>182.0</ele><time>2026-04-26T07:13:50Z</time></trkpt><trkpt lat="45.5858171384304" lon="10.71041798163561"><ele>182.0</ele><time>2026-04-26T07:13:51Z</time></trkpt><trkpt lat="45.58590625041751" lon="10.710397002639445"><ele>182.0</ele><time>2026-04-26T07:13:52Z</time></trkpt><trkpt lat="45.585998887049136" lon="10.710384527439372"><ele>182.0</ele><time>2026-04-26T07:13:53Z</time></trkpt><trkpt lat="45.58609468936725" lon="10.710381390801864"><ele>182.0</ele><time>2026-04-26T07:13:54Z</time></trkpt><trkpt lat="45.58618576171462" lon="10.710384354148553"><ele>182.0</ele><time>2026-04-26T07:13:55Z</time></trkpt><trkpt lat="45.58627046942578" lon="10.710392075336802"><ele>185.5</ele><time>2026-04-26T07:13:56Z</time></trkpt><trkpt lat="45.58633411839059" lon="10.710403732503558"><ele>189.0</ele><time>2026-04-26T07:13:57Z</time></trkpt><trkpt lat="45.58641198483465" lon="10.710407880826672"><ele>192.5</ele><time>2026-04-26T07:13:58Z</time></trkpt><trkpt lat="45.5865019742441" lon="10.710420865696811"><ele>196.0</ele><time>2026-04-26T07:13:59Z</time></trkpt><trkpt lat="45.58658813926001" lon="10.710423435710421"><ele>199.50000000000003</ele><time>2026-04-26T07:14:00Z</time></trkpt><trkpt lat="45.58667497740747" lon="10.710400292126067"><ele>203.0</ele><time>2026-04-26T07:14:01Z</time></trkpt><trkpt lat="45.58676585647486" lon="10.71037898094307"><ele>203.0</ele><time>2026-04-26T07:14:02Z</time></trkpt><trkpt lat="45.586842005689675" lon="10.710314508498898"><ele>203.0</ele><time>2026-04-26T07:14:03Z</time></trkpt><trkpt lat="45.58692761429134" lon="10.710273299924108"><ele>203.0</ele><time>2026-04-26T07:14:04Z</time></trkpt><trkpt lat="45.58701002167557" lon="10.71022285943692"><ele>203.0</ele><time>2026-04-26T07:14:05Z</time></trkpt><trkpt lat="45.58708175470368" lon="10.710182475863164"><ele>203.0</ele><time>2026-04-26T07:14:06Z</time></trkpt><trkpt lat="45.58718687341854" lon="10.710168815471166"><ele>205.83333333333334</ele><time>2026-04-26T07:14:08Z</time></trkpt><trkpt lat="45.58723574547531" lon="10.710242719221492"><ele>208.66666666666669</ele><time>2026-04-26T07:14:10Z</time></trkpt><trkpt lat="45.58723217545573" lon="10.710334246845918"><ele>211.5</ele><time>2026-04-26T07:14:11Z</time></trkpt><trkpt lat="45.58717281590331" lon="10.710429459292463"><ele>214.33333333333331</ele><time>2026-04-26T07:14:12Z</time></trkpt><trkpt lat="45.58711334441604" lon="10.71049404500169"><ele>217.16666666666666</ele><time>2026-04-26T07:14:13Z</time></trkpt><trkpt lat="45.58705046308154" lon="10.710556530778671"><ele>220.0</ele><time>2026-04-26T07:14:14Z</time></trkpt><trkpt lat="45.58701963479432" lon="10.710704194871175"><ele>220.0</ele><time>2026-04-26T07:14:16Z</time></trkpt><trkpt lat="45.58711074606193" lon="10.710806650693268"><ele>220.0</ele><time>2026-04-26T07:14:18Z</time></trkpt><trkpt lat="45.58719573188957" lon="10.71078712815954"><ele>220.0</ele><time>2026-04-26T07:14:19Z</time></trkpt><trkpt lat="45.58727364326602" lon="10.71072573448215"><ele>220.0</ele><time>2026-04-26T07:14:20Z</time></trkpt><trkpt lat="45.58735459694544" lon="10.710644517375666"><ele>220.0</ele><time>2026-04-26T07:14:21Z</time></trkpt><trkpt lat="45.58743615743109" lon="10.71055811408805"><ele>220.0</ele><time>2026-04-26T07:14:22Z</time></trkpt><trkpt lat="45.58751689244305" lon="10.710474108195728"><ele>220.0</ele><time>2026-04-26T07:14:23Z</time></trkpt><trkpt lat="45.587608544223585" lon="10.71040543208547"><ele>220.0</ele><time>2026-04-26T07:14:24Z</time></trkpt><trkpt lat="45.587684848500345" lon="10.710326414000507"><ele>220.0</ele><time>2026-04-26T07:14:25Z</time></trkpt><trkpt lat="45.58776615118646" lon="10.710290562166099"><ele>220.0</ele><time>2026-04-26T07:14:26Z</time></trkpt><trkpt lat="45.587843311065434" lon="10.71027191121426"><ele>223.0</ele><time>2026-04-26T07:14:27Z</time></trkpt><trkpt lat="45.587940544567296" lon="10.710279391169102"><ele>226.0</ele><time>2026-04-26T07:14:28Z</time></trkpt><trkpt lat="45.58803157330443" lon="10.71031820119101"><ele>229.0</ele><time>2026-04-26T07:14:28.999Z</time></trkpt><trkpt lat="45.58810550339672" lon="10.710365516150548"><ele>232.0</ele><time>2026-04-26T07:14:29.999Z</time></trkpt><trkpt lat="45.58822272190079" lon="10.710419599093223"><ele>235.0</ele><time>2026-04-26T07:14:31.999Z</time></trkpt><trkpt lat="45.58830217018114" lon="10.710443536342606"><ele>235.0</ele><time>2026-04-26T07:14:32.999Z</time></trkpt><trkpt lat="45.58837593573941" lon="10.710447838412454"><ele>235.0</ele><time>2026-04-26T07:14:33.999Z</time></trkpt><trkpt lat="45.58845646685358" lon="10.710432376762848"><ele>235.0</ele><time>2026-04-26T07:14:34.999Z</time></trkpt><trkpt lat="45.58854288210472" lon="10.710393773771573"><ele>235.0</ele><time>2026-04-26T07:14:35.999Z</time></trkpt><trkpt lat="45.58863661776076" lon="10.710322229299623"><ele>235.0</ele><time>2026-04-26T07:14:36.999Z</time></trkpt><trkpt lat="45.58869503131621" lon="10.710209461376095"><ele>235.2</ele><time>2026-04-26T07:14:37.999Z</time></trkpt><trkpt lat="45.588719653397966" lon="10.71007765724592"><ele>235.4</ele><time>2026-04-26T07:14:38.999Z</time></trkpt><trkpt lat="45.588714121941514" lon="10.709932469948487"><ele>235.60000000000002</ele><time>2026-04-26T07:14:39.999Z</time></trkpt><trkpt lat="45.58868050696318" lon="10.709794135731496"><ele>235.8</ele><time>2026-04-26T07:14:40.999Z</time></trkpt><trkpt lat="45.58862866832366" lon="10.70965356897686"><ele>236.0</ele><time>2026-04-26T07:14:41.999Z</time></trkpt><trkpt lat="45.58856826229714" lon="10.709528548269274"><ele>234.00000000000003</ele><time>2026-04-26T07:14:42.999Z</time></trkpt><trkpt lat="45.58852307546887" lon="10.709403247895569"><ele>232.0</ele><time>2026-04-26T07:14:43.999Z</time></trkpt><trkpt lat="45.588474303646215" lon="10.709303373956521"><ele>230.0</ele><time>2026-04-26T07:14:44.999Z</time></trkpt><trkpt lat="45.588436626677684" lon="10.70921653520795"><ele>228.0</ele><time>2026-04-26T07:14:45.999Z</time></trkpt><trkpt lat="45.58842832992652" lon="10.709051564523051"><ele>226.00000000000003</ele><time>2026-04-26T07:14:47.999Z</time></trkpt><trkpt lat="45.58847889940396" lon="10.708979303273809"><ele>224.0</ele><time>2026-04-26T07:14:48.999Z</time></trkpt><trkpt lat="45.588550923684544" lon="10.708948611010527"><ele>224.0</ele><time>2026-04-26T07:14:49.999Z</time></trkpt><trkpt lat="45.58863065412286" lon="10.70897858491601"><ele>223.99999999999997</ele><time>2026-04-26T07:14:50.999Z</time></trkpt><trkpt lat="45.588699029697516" lon="10.709051024093007"><ele>223.99999999999997</ele><time>2026-04-26T07:14:51.999Z</time></trkpt><trkpt lat="45.588771134629866" lon="10.709134137450874"><ele>224.0</ele><time>2026-04-26T07:14:52.999Z</time></trkpt><trkpt lat="45.588843147472325" lon="10.709210284062218"><ele>224.0</ele><time>2026-04-26T07:14:53.999Z</time></trkpt><trkpt lat="45.5889225030926" lon="10.70930088245311"><ele>226.39999999999998</ele><time>2026-04-26T07:14:54.999Z</time></trkpt><trkpt lat="45.589013443127335" lon="10.709402641595915"><ele>228.79999999999998</ele><time>2026-04-26T07:14:55.999Z</time></trkpt><trkpt lat="45.58908909342685" lon="10.709543126751381"><ele>231.20000000000002</ele><time>2026-04-26T07:14:56.999Z</time></trkpt><trkpt lat="45.58914975694046" lon="10.709649142073607"><ele>233.60000000000002</ele><time>2026-04-26T07:14:57.999Z</time></trkpt><trkpt lat="45.58921107674145" lon="10.709747482300203"><ele>236.0</ele><time>2026-04-26T07:14:58.999Z</time></trkpt><trkpt lat="45.58926410928561" lon="10.709874124183868"><ele>236.0</ele><time>2026-04-26T07:14:59.999Z</time></trkpt><trkpt lat="45.58931270409507" lon="10.710006726167704"><ele>236.00000000000003</ele><time>2026-04-26T07:15:00.999Z</time></trkpt><trkpt lat="45.5893644611572" lon="10.710141613090752"><ele>236.00000000000003</ele><time>2026-04-26T07:15:01.999Z</time></trkpt><trkpt lat="45.589409945230244" lon="10.710262660619241"><ele>236.0</ele><time>2026-04-26T07:15:02.999Z</time></trkpt><trkpt lat="45.58945500246821" lon="10.710359354020559"><ele>236.0</ele><time>2026-04-26T07:15:03.999Z</time></trkpt><trkpt lat="45.589481847750726" lon="10.710465278482156"><ele>238.8</ele><time>2026-04-26T07:15:04.999Z</time></trkpt><trkpt lat="45.589517057808834" lon="10.710580645313179"><ele>241.60000000000002</ele><time>2026-04-26T07:15:05.999Z</time></trkpt><trkpt lat="45.589556132254465" lon="10.710775943981654"><ele>244.4</ele><time>2026-04-26T07:15:06.999Z</time></trkpt><trkpt lat="45.589541768317034" lon="10.710879481178916"><ele>247.2</ele><time>2026-04-26T07:15:07.999Z</time></trkpt><trkpt lat="45.58952073433435" lon="10.711006655498503"><ele>250.0</ele><time>2026-04-26T07:15:08.999Z</time></trkpt><trkpt lat="45.58947505128091" lon="10.711127326348041"><ele>250.0</ele><time>2026-04-26T07:15:09.999Z</time></trkpt><trkpt lat="45.58943187264988" lon="10.711243898075942"><ele>250.0</ele><time>2026-04-26T07:15:10.999Z</time></trkpt><trkpt lat="45.58939517420543" lon="10.711389917519888"><ele>250.0</ele><time>2026-04-26T07:15:11.999Z</time></trkpt><trkpt lat="45.589339038226754" lon="10.711525759216068"><ele>250.0</ele><time>2026-04-26T07:15:12.999Z</time></trkpt><trkpt lat="45.58928031821923" lon="10.711629235257567"><ele>250.0</ele><time>2026-04-26T07:15:13.999Z</time></trkpt><trkpt lat="45.5892337647921" lon="10.711743835586208"><ele>250.0</ele><time>2026-04-26T07:15:14.999Z</time></trkpt><trkpt lat="45.58917199746862" lon="10.7117737526417"><ele>250.0</ele><time>2026-04-26T07:15:15.999Z</time></trkpt><trkpt lat="45.589030567437376" lon="10.711775820305336"><ele>250.0</ele><time>2026-04-26T07:15:17.999Z</time></trkpt><trkpt lat="45.58894911833037" lon="10.711799386746828"><ele>250.0</ele><time>2026-04-26T07:15:18.999Z</time></trkpt><trkpt lat="45.58883624315732" lon="10.711838909164452"><ele>250.0</ele><time>2026-04-26T07:15:20.999Z</time></trkpt><trkpt lat="45.58873510931852" lon="10.711887299416253"><ele>253.2</ele><time>2026-04-26T07:15:22.999Z</time></trkpt><trkpt lat="45.58869231322909" lon="10.71202289216854"><ele>256.4</ele><time>2026-04-26T07:15:24.999Z</time></trkpt><trkpt lat="45.588805154257" lon="10.712129646679662"><ele>259.6</ele><time>2026-04-26T07:15:25.999Z</time></trkpt><trkpt lat="45.58889956890285" lon="10.71216481753742"><ele>262.8</ele><time>2026-04-26T07:15:26.999Z</time></trkpt><trkpt lat="45.589001461079654" lon="10.712195838603838"><ele>266.0</ele><time>2026-04-26T07:15:27.999Z</time></trkpt><trkpt lat="45.589098566837635" lon="10.712241196257754"><ele>266.0</ele><time>2026-04-26T07:15:28.999Z</time></trkpt><trkpt lat="45.589197432872446" lon="10.712274152746533"><ele>266.0</ele><time>2026-04-26T07:15:29.999Z</time></trkpt><trkpt lat="45.58930823019502" lon="10.712280319158703"><ele>266.0</ele><time>2026-04-26T07:15:30.999Z</time></trkpt><trkpt lat="45.58942138621978" lon="10.712259770764796"><ele>266.0</ele><time>2026-04-26T07:15:31.999Z</time></trkpt><trkpt lat="45.58953965046745" lon="10.712227750723931"><ele>266.0</ele><time>2026-04-26T07:15:32.999Z</time></trkpt><trkpt lat="45.58966207571734" lon="10.712186474521586"><ele>266.6</ele><time>2026-04-26T07:15:33.999Z</time></trkpt><trkpt lat="45.58977963848952" lon="10.712129616809397"><ele>267.20000000000005</ele><time>2026-04-26T07:15:34.999Z</time></trkpt><trkpt lat="45.58988768292312" lon="10.712063083909893"><ele>267.79999999999995</ele><time>2026-04-26T07:15:35.999Z</time></trkpt><trkpt lat="45.58997885835313" lon="10.711997371248154"><ele>268.4</ele><time>2026-04-26T07:15:36.999Z</time></trkpt><trkpt lat="45.5900739033878" lon="10.71193208652558"><ele>269.0</ele><time>2026-04-26T07:15:37.999Z</time></trkpt><trkpt lat="45.590162195867016" lon="10.711837488927713"><ele>269.0</ele><time>2026-04-26T07:15:38.999Z</time></trkpt><trkpt lat="45.59024457004179" lon="10.711744903932939"><ele>269.0</ele><time>2026-04-26T07:15:39.999Z</time></trkpt><trkpt lat="45.590330177543535" lon="10.711668625994177"><ele>269.0</ele><time>2026-04-26T07:15:41Z</time></trkpt><trkpt lat="45.59041402826719" lon="10.711608529998651"><ele>269.0</ele><time>2026-04-26T07:15:42Z</time></trkpt><trkpt lat="45.590494393089706" lon="10.711572823049561"><ele>269.0</ele><time>2026-04-26T07:15:43Z</time></trkpt><trkpt lat="45.590575184917824" lon="10.711560697934647"><ele>271.4</ele><time>2026-04-26T07:15:44Z</time></trkpt><trkpt lat="45.59065434663834" lon="10.71158418807659"><ele>273.79999999999995</ele><time>2026-04-26T07:15:45Z</time></trkpt><trkpt lat="45.59074447032875" lon="10.711632742910034"><ele>276.20000000000005</ele><time>2026-04-26T07:15:46Z</time></trkpt><trkpt lat="45.59084012215496" lon="10.711690655358334"><ele>278.6</ele><time>2026-04-26T07:15:47Z</time></trkpt><trkpt lat="45.59094397574044" lon="10.711749228462658"><ele>281.0</ele><time>2026-04-26T07:15:48Z</time></trkpt><trkpt lat="45.591040462807584" lon="10.711808541899902"><ele>281.0</ele><time>2026-04-26T07:15:49Z</time></trkpt><trkpt lat="45.591126159528336" lon="10.711875433104849"><ele>281.0</ele><time>2026-04-26T07:15:50Z</time></trkpt><trkpt lat="45.5911908784746" lon="10.71187893723699"><ele>281.0</ele><time>2026-04-26T07:15:51Z</time></trkpt><trkpt lat="45.59131313044173" lon="10.711947597805658"><ele>281.0</ele><time>2026-04-26T07:15:52Z</time></trkpt><trkpt lat="45.591419380812944" lon="10.711986011283443"><ele>281.0</ele><time>2026-04-26T07:15:53Z</time></trkpt><trkpt lat="45.59152208441533" lon="10.71205552384442"><ele>281.5</ele><time>2026-04-26T07:15:54Z</time></trkpt><trkpt lat="45.591632473561354" lon="10.712101535482498"><ele>282.0</ele><time>2026-04-26T07:15:55Z</time></trkpt><trkpt lat="45.591741346518006" lon="10.712129135412765"><ele>282.5</ele><time>2026-04-26T07:15:56Z</time></trkpt><trkpt lat="45.591854887027246" lon="10.712147355328524"><ele>283.0</ele><time>2026-04-26T07:15:57Z</time></trkpt><trkpt lat="45.591972693910044" lon="10.712175661039419"><ele>283.4</ele><time>2026-04-26T07:15:58Z</time></trkpt><trkpt lat="45.59207575101688" lon="10.712205943378116"><ele>283.8</ele><time>2026-04-26T07:15:59Z</time></trkpt><trkpt lat="45.59217402084172" lon="10.712205212190533"><ele>284.2</ele><time>2026-04-26T07:16:00Z</time></trkpt><trkpt lat="45.59225832649788" lon="10.712239285095382"><ele>284.6</ele><time>2026-04-26T07:16:01Z</time></trkpt><trkpt lat="45.59231934055858" lon="10.712271856422282"><ele>285.0</ele><time>2026-04-26T07:16:02Z</time></trkpt><trkpt lat="45.59245401669023" lon="10.712265190763665"><ele>285.0</ele><time>2026-04-26T07:16:04Z</time></trkpt><trkpt lat="45.59252792694428" lon="10.71230536584414"><ele>285.0</ele><time>2026-04-26T07:16:05Z</time></trkpt><trkpt lat="45.59260260306769" lon="10.712304637025644"><ele>285.0</ele><time>2026-04-26T07:16:06Z</time></trkpt><trkpt lat="45.59269294845788" lon="10.712304912464882"><ele>285.0</ele><time>2026-04-26T07:16:07Z</time></trkpt><trkpt lat="45.592789655100326" lon="10.71233417868356"><ele>285.0</ele><time>2026-04-26T07:16:08Z</time></trkpt><trkpt lat="45.59289224710075" lon="10.71237044170984"><ele>285.0</ele><time>2026-04-26T07:16:09Z</time></trkpt><trkpt lat="45.59301959836901" lon="10.712391930096429"><ele>285.25</ele><time>2026-04-26T07:16:10Z</time></trkpt><trkpt lat="45.593138101973146" lon="10.7124169338477"><ele>285.5</ele><time>2026-04-26T07:16:11Z</time></trkpt><trkpt lat="45.59325776310484" lon="10.712440504846517"><ele>285.75</ele><time>2026-04-26T07:16:12Z</time></trkpt><trkpt lat="45.593372124292124" lon="10.712459517752812"><ele>286.0</ele><time>2026-04-26T07:16:13Z</time></trkpt><trkpt lat="45.59347679373248" lon="10.71247704637562"><ele>286.0</ele><time>2026-04-26T07:16:14Z</time></trkpt><trkpt lat="45.593586183862726" lon="10.71249777838557"><ele>286.0</ele><time>2026-04-26T07:16:15Z</time></trkpt><trkpt lat="45.59369092527381" lon="10.712523351598456"><ele>286.0</ele><time>2026-04-26T07:16:16Z</time></trkpt><trkpt lat="45.5937875558222" lon="10.712560757520846"><ele>286.0</ele><time>2026-04-26T07:16:17Z</time></trkpt><trkpt lat="45.5938628184161" lon="10.712618160198957"><ele>286.0</ele><time>2026-04-26T07:16:18Z</time></trkpt><trkpt lat="45.59392587596487" lon="10.712705981678385"><ele>288.8</ele><time>2026-04-26T07:16:19Z</time></trkpt><trkpt lat="45.59397450095234" lon="10.712826452597163"><ele>291.6</ele><time>2026-04-26T07:16:20Z</time></trkpt><trkpt lat="45.594006115441914" lon="10.712951869263016"><ele>294.4</ele><time>2026-04-26T07:16:21Z</time></trkpt><trkpt lat="45.5940353800606" lon="10.713086334179403"><ele>297.2</ele><time>2026-04-26T07:16:22Z</time></trkpt><trkpt lat="45.594070920691905" lon="10.713212936143647"><ele>300.0</ele><time>2026-04-26T07:16:23Z</time></trkpt><trkpt lat="45.5941069192054" lon="10.713304819162888"><ele>300.0</ele><time>2026-04-26T07:16:24Z</time></trkpt><trkpt lat="45.59417254802828" lon="10.713424132329836"><ele>300.0</ele><time>2026-04-26T07:16:26Z</time></trkpt><trkpt lat="45.5942294258967" lon="10.713508784680174"><ele>300.0</ele><time>2026-04-26T07:16:28Z</time></trkpt><trkpt lat="45.59427755918797" lon="10.713570926231258"><ele>300.0</ele><time>2026-04-26T07:16:35Z</time></trkpt><trkpt lat="45.59433227442734" lon="10.713642836191017"><ele>300.0</ele><time>2026-04-26T07:16:37Z</time></trkpt><trkpt lat="45.5942593983043" lon="10.713741206445153"><ele>300.0</ele><time>2026-04-26T07:16:40Z</time></trkpt><trkpt lat="45.59420354508566" lon="10.713787629883473"><ele>300.0</ele><time>2026-04-26T07:16:41Z</time></trkpt><trkpt lat="45.59415874011964" lon="10.713852983539814"><ele>300.0</ele><time>2026-04-26T07:16:42Z</time></trkpt><trkpt lat="45.59410312019505" lon="10.713898818281713"><ele>300.0</ele><time>2026-04-26T07:16:43Z</time></trkpt><trkpt lat="45.59402933496992" lon="10.713999139212916"><ele>300.0</ele><time>2026-04-26T07:16:45Z</time></trkpt><trkpt lat="45.593967179421625" lon="10.714124716079636"><ele>300.0</ele><time>2026-04-26T07:16:47Z</time></trkpt><trkpt lat="45.5939736352452" lon="10.71429244848266"><ele>299.25</ele><time>2026-04-26T07:16:49Z</time></trkpt><trkpt lat="45.593965702126766" lon="10.71445408596606"><ele>298.5</ele><time>2026-04-26T07:16:51Z</time></trkpt><trkpt lat="45.59394962597168" lon="10.71461767393616"><ele>297.75</ele><time>2026-04-26T07:16:53Z</time></trkpt><trkpt lat="45.59392694474108" lon="10.714796953986706"><ele>297.0</ele><time>2026-04-26T07:16:55Z</time></trkpt><trkpt lat="45.593898373145954" lon="10.7149689759588"><ele>297.0</ele><time>2026-04-26T07:16:57Z</time></trkpt><trkpt lat="45.59388533541719" lon="10.715060019513698"><ele>297.0</ele><time>2026-04-26T07:16:58Z</time></trkpt><trkpt lat="45.59386758270123" lon="10.715153684619212"><ele>297.0</ele><time>2026-04-26T07:16:59Z</time></trkpt><trkpt lat="45.59383590993898" lon="10.71523377156901"><ele>297.0</ele><time>2026-04-26T07:17:00Z</time></trkpt><trkpt lat="45.5937883792693" lon="10.715391742216527"><ele>297.0</ele><time>2026-04-26T07:17:02Z</time></trkpt><trkpt lat="45.59372646589525" lon="10.715543385336934"><ele>297.0</ele><time>2026-04-26T07:17:04Z</time></trkpt><trkpt lat="45.593694318521486" lon="10.71568380429568"><ele>294.8333333333333</ele><time>2026-04-26T07:17:05.999Z</time></trkpt><trkpt lat="45.59366271304649" lon="10.715768282791437"><ele>292.6666666666667</ele><time>2026-04-26T07:17:07.999Z</time></trkpt><trkpt lat="45.59363242876642" lon="10.715863414687082"><ele>290.5</ele><time>2026-04-26T07:17:10.999Z</time></trkpt><trkpt lat="45.59359216453921" lon="10.715932680736726"><ele>288.33333333333337</ele><time>2026-04-26T07:17:13.999Z</time></trkpt><trkpt lat="45.593569008966206" lon="10.716035114412696"><ele>286.1666666666667</ele><time>2026-04-26T07:17:24.999Z</time></trkpt><trkpt lat="45.59356012877967" lon="10.716126313512827"><ele>284.0</ele><time>2026-04-26T07:17:29.999Z</time></trkpt><trkpt lat="45.593374467735885" lon="10.7160692898556"><ele>283.59999999999997</ele><time>2026-04-26T07:17:33.999Z</time></trkpt><trkpt lat="45.593355563644906" lon="10.716247042003975"><ele>283.2</ele><time>2026-04-26T07:17:34.999Z</time></trkpt><trkpt lat="45.593338695345594" lon="10.71637097787407"><ele>282.79999999999995</ele><time>2026-04-26T07:17:36.999Z</time></trkpt><trkpt lat="45.593323798953385" lon="10.716483226407025"><ele>282.4</ele><time>2026-04-26T07:17:39.999Z</time></trkpt><trkpt lat="45.5932753273262" lon="10.716643869144848"><ele>282.0</ele><time>2026-04-26T07:17:41.999Z</time></trkpt><trkpt lat="45.593226130901364" lon="10.716771480263409"><ele>282.0</ele><time>2026-04-26T07:17:43.999Z</time></trkpt><trkpt lat="45.59317022420793" lon="10.716820635819252"><ele>282.0</ele><time>2026-04-26T07:17:44.999Z</time></trkpt><trkpt lat="45.59311260383118" lon="10.716869799030954"><ele>282.0</ele><time>2026-04-26T07:17:46Z</time></trkpt><trkpt lat="45.59302352842193" lon="10.716946075845382"><ele>282.0</ele><time>2026-04-26T07:17:48Z</time></trkpt><trkpt lat="45.59294891235857" lon="10.717000874448065"><ele>282.0</ele><time>2026-04-26T07:17:50Z</time></trkpt><trkpt lat="45.592864388659194" lon="10.717007489257306"><ele>282.0</ele><time>2026-04-26T07:17:51Z</time></trkpt><trkpt lat="45.59279860743947" lon="10.717057265213777"><ele>279.8333333333333</ele><time>2026-04-26T07:17:52Z</time></trkpt><trkpt lat="45.5927375810955" lon="10.717083472197125"><ele>277.6666666666667</ele><time>2026-04-26T07:17:53Z</time></trkpt><trkpt lat="45.59264216120353" lon="10.717089094428106"><ele>275.5</ele><time>2026-04-26T07:17:55Z</time></trkpt><trkpt lat="45.592573147921925" lon="10.71706533871438"><ele>273.33333333333337</ele><time>2026-04-26T07:17:57Z</time></trkpt><trkpt lat="45.59249915038125" lon="10.717042420102416"><ele>271.1666666666667</ele><time>2026-04-26T07:17:59Z</time></trkpt><trkpt lat="45.59241891792354" lon="10.71703493243361"><ele>269.0</ele><time>2026-04-26T07:18:02Z</time></trkpt><trkpt lat="45.59237936381181" lon="10.71717216702702"><ele>269.0</ele><time>2026-04-26T07:18:06Z</time></trkpt><trkpt lat="45.592340765327236" lon="10.717281675712767"><ele>269.0</ele><time>2026-04-26T07:18:07Z</time></trkpt><trkpt lat="45.59230721494836" lon="10.717359330352314"><ele>269.0</ele><time>2026-04-26T07:18:08Z</time></trkpt><trkpt lat="45.59222323894979" lon="10.717384964689526"><ele>269.0</ele><time>2026-04-26T07:18:09Z</time></trkpt><trkpt lat="45.59214299678371" lon="10.717527085845225"><ele>269.0</ele><time>2026-04-26T07:18:11Z</time></trkpt><trkpt lat="45.592087075012785" lon="10.717596430270843"><ele>269.0</ele><time>2026-04-26T07:18:12Z</time></trkpt><trkpt lat="45.592008219631985" lon="10.717644404089505"><ele>268.42857142857144</ele><time>2026-04-26T07:18:13Z</time></trkpt><trkpt lat="45.59194069186838" lon="10.717719373617648"><ele>267.8571428571429</ele><time>2026-04-26T07:18:14Z</time></trkpt><trkpt lat="45.59187589480562" lon="10.717787538996816"><ele>267.2857142857143</ele><time>2026-04-26T07:18:15Z</time></trkpt><trkpt lat="45.591822504409514" lon="10.717866680827496"><ele>266.7142857142857</ele><time>2026-04-26T07:18:16Z</time></trkpt><trkpt lat="45.59175745688803" lon="10.71791193091772"><ele>266.1428571428571</ele><time>2026-04-26T07:18:17Z</time></trkpt><trkpt lat="45.59169495811304" lon="10.717946455135522"><ele>265.57142857142856</ele><time>2026-04-26T07:18:18Z</time></trkpt><trkpt lat="45.59163265237126" lon="10.717967652965102"><ele>265.0</ele><time>2026-04-26T07:18:19Z</time></trkpt><trkpt lat="45.59154034966643" lon="10.717997207381908"><ele>264.6</ele><time>2026-04-26T07:18:21Z</time></trkpt><trkpt lat="45.591469464532274" lon="10.71812296794271"><ele>264.2</ele><time>2026-04-26T07:18:23Z</time></trkpt><trkpt lat="45.59142882223215" lon="10.718210935217641"><ele>263.8</ele><time>2026-04-26T07:18:24Z</time></trkpt><trkpt lat="45.59134899137829" lon="10.718339194795433"><ele>263.4</ele><time>2026-04-26T07:18:26Z</time></trkpt><trkpt lat="45.59126025557416" lon="10.718441782494244"><ele>263.0</ele><time>2026-04-26T07:18:28Z</time></trkpt><trkpt lat="45.59116261350473" lon="10.718529813030216"><ele>263.0</ele><time>2026-04-26T07:18:30Z</time></trkpt><trkpt lat="45.591100432255104" lon="10.718564182597818"><ele>263.0</ele><time>2026-04-26T07:18:31Z</time></trkpt><trkpt lat="45.59103009816116" lon="10.71859197328639"><ele>263.0</ele><time>2026-04-26T07:18:32Z</time></trkpt><trkpt lat="45.59096032480851" lon="10.718615945863641"><ele>263.0</ele><time>2026-04-26T07:18:33Z</time></trkpt><trkpt lat="45.590893954144896" lon="10.718637630444727"><ele>263.0</ele><time>2026-04-26T07:18:34Z</time></trkpt><trkpt lat="45.59078766469152" lon="10.718673892722729"><ele>263.0</ele><time>2026-04-26T07:18:36Z</time></trkpt><trkpt lat="45.59072378457581" lon="10.718740332475198"><ele>262.6</ele><time>2026-04-26T07:18:38Z</time></trkpt><trkpt lat="45.59072839541659" lon="10.71890224548774"><ele>262.20000000000005</ele><time>2026-04-26T07:18:41Z</time></trkpt><trkpt lat="45.59082963165388" lon="10.719000462515917"><ele>261.8</ele><time>2026-04-26T07:18:43Z</time></trkpt><trkpt lat="45.5909395018724" lon="10.719073809372707"><ele>261.40000000000003</ele><time>2026-04-26T07:18:45Z</time></trkpt><trkpt lat="45.591001448850655" lon="10.719118182244296"><ele>261.0</ele><time>2026-04-26T07:18:46Z</time></trkpt><trkpt lat="45.59106416197049" lon="10.719168990035062"><ele>261.0</ele><time>2026-04-26T07:18:47Z</time></trkpt><trkpt lat="45.59112038077709" lon="10.719233741803423"><ele>261.0</ele><time>2026-04-26T07:18:48Z</time></trkpt><trkpt lat="45.591184167986796" lon="10.719321868236495"><ele>261.0</ele><time>2026-04-26T07:18:49Z</time></trkpt><trkpt lat="45.59124839180269" lon="10.719407533765693"><ele>261.0</ele><time>2026-04-26T07:18:50Z</time></trkpt><trkpt lat="45.59130743343192" lon="10.719486287401937"><ele>261.0</ele><time>2026-04-26T07:18:51Z</time></trkpt><trkpt lat="45.59138163079283" lon="10.719545465519733"><ele>261.0</ele><time>2026-04-26T07:18:52Z</time></trkpt><trkpt lat="45.591447896560005" lon="10.719621171891838"><ele>261.0</ele><time>2026-04-26T07:18:53Z</time></trkpt><trkpt lat="45.59151377340001" lon="10.719693349625869"><ele>261.0</ele><time>2026-04-26T07:18:54Z</time></trkpt><trkpt lat="45.59158329822385" lon="10.719770139600211"><ele>261.0</ele><time>2026-04-26T07:18:55Z</time></trkpt><trkpt lat="45.59163294961503" lon="10.719868961780186"><ele>261.0</ele><time>2026-04-26T07:18:56Z</time></trkpt><trkpt lat="45.59169494571636" lon="10.719955007244417"><ele>261.0</ele><time>2026-04-26T07:18:57Z</time></trkpt><trkpt lat="45.59176285318074" lon="10.720012614114337"><ele>261.0</ele><time>2026-04-26T07:18:58Z</time></trkpt><trkpt lat="45.59181515235208" lon="10.720087477897888"><ele>261.0</ele><time>2026-04-26T07:18:59Z</time></trkpt><trkpt lat="45.59186571463922" lon="10.720157692511817"><ele>261.0</ele><time>2026-04-26T07:19:00Z</time></trkpt><trkpt lat="45.59192062801139" lon="10.72023028865077"><ele>261.0</ele><time>2026-04-26T07:19:01Z</time></trkpt><trkpt lat="45.591983742174676" lon="10.72030645752461"><ele>261.0</ele><time>2026-04-26T07:19:02Z</time></trkpt><trkpt lat="45.59204349913241" lon="10.720380891544604"><ele>261.0</ele><time>2026-04-26T07:19:03Z</time></trkpt><trkpt lat="45.59210578991457" lon="10.72045470231397"><ele>261.0</ele><time>2026-04-26T07:19:04Z</time></trkpt><trkpt lat="45.59216864975099" lon="10.720535373475629"><ele>261.3333333333333</ele><time>2026-04-26T07:19:05Z</time></trkpt><trkpt lat="45.59223404286331" lon="10.720615970371874"><ele>261.6666666666667</ele><time>2026-04-26T07:19:06Z</time></trkpt><trkpt lat="45.592302205995246" lon="10.720688994071644"><ele>262.0</ele><time>2026-04-26T07:19:07Z</time></trkpt><trkpt lat="45.59237944217507" lon="10.720756320187508"><ele>262.33333333333337</ele><time>2026-04-26T07:19:08Z</time></trkpt><trkpt lat="45.592461770971305" lon="10.720810189514234"><ele>262.6666666666667</ele><time>2026-04-26T07:19:09Z</time></trkpt><trkpt lat="45.592547379540186" lon="10.72085540361841"><ele>263.0</ele><time>2026-04-26T07:19:10Z</time></trkpt><trkpt lat="45.59263555674566" lon="10.720891435096743"><ele>263.0</ele><time>2026-04-26T07:19:11Z</time></trkpt><trkpt lat="45.59271088949247" lon="10.720976630218425"><ele>263.0</ele><time>2026-04-26T07:19:12Z</time></trkpt><trkpt lat="45.59278276812739" lon="10.721031045048411"><ele>263.0</ele><time>2026-04-26T07:19:13Z</time></trkpt><trkpt lat="45.59281228954713" lon="10.721112433743887"><ele>263.0</ele><time>2026-04-26T07:19:14Z</time></trkpt><trkpt lat="45.592861599150666" lon="10.72119404736384"><ele>263.0</ele><time>2026-04-26T07:19:15Z</time></trkpt><trkpt lat="45.5929280212653" lon="10.721298296362765"><ele>263.0</ele><time>2026-04-26T07:19:16Z</time></trkpt><trkpt lat="45.59298271787206" lon="10.721405209222137"><ele>262.8</ele><time>2026-04-26T07:19:17Z</time></trkpt><trkpt lat="45.59304179201908" lon="10.721536358403721"><ele>262.6</ele><time>2026-04-26T07:19:18Z</time></trkpt><trkpt lat="45.593099700070766" lon="10.72165633408145"><ele>262.4</ele><time>2026-04-26T07:19:19Z</time></trkpt><trkpt lat="45.59316289487442" lon="10.721775451959676"><ele>262.2</ele><time>2026-04-26T07:19:20Z</time></trkpt><trkpt lat="45.5932263972956" lon="10.72188540250374"><ele>262.0</ele><time>2026-04-26T07:19:21Z</time></trkpt><trkpt lat="45.59329212933894" lon="10.721999350705891"><ele>262.0</ele><time>2026-04-26T07:19:22Z</time></trkpt><trkpt lat="45.59334940411647" lon="10.72210874599737"><ele>262.0</ele><time>2026-04-26T07:19:23Z</time></trkpt><trkpt lat="45.593396985340654" lon="10.722218127305357"><ele>262.0</ele><time>2026-04-26T07:19:24Z</time></trkpt><trkpt lat="45.5934480960737" lon="10.722333200846515"><ele>262.0</ele><time>2026-04-26T07:19:25Z</time></trkpt><trkpt lat="45.59348920411354" lon="10.722419765603194"><ele>262.0</ele><time>2026-04-26T07:19:26Z</time></trkpt><trkpt lat="45.59353107526327" lon="10.72249727808504"><ele>262.0</ele><time>2026-04-26T07:19:27Z</time></trkpt><trkpt lat="45.593606682399496" lon="10.72262538526686"><ele>262.0</ele><time>2026-04-26T07:19:28.999Z</time></trkpt><trkpt lat="45.59365519460549" lon="10.722704739691865"><ele>262.0</ele><time>2026-04-26T07:19:29.999Z</time></trkpt><trkpt lat="45.593705227972755" lon="10.722799038357888"><ele>262.0</ele><time>2026-04-26T07:19:30.999Z</time></trkpt><trkpt lat="45.593757386900585" lon="10.72291267463042"><ele>262.0</ele><time>2026-04-26T07:19:31.999Z</time></trkpt><trkpt lat="45.593805545471845" lon="10.723029144127018"><ele>262.0</ele><time>2026-04-26T07:19:32.999Z</time></trkpt><trkpt lat="45.59385982887183" lon="10.723143282221027"><ele>262.0</ele><time>2026-04-26T07:19:33.999Z</time></trkpt><trkpt lat="45.593919141222074" lon="10.723252239680923"><ele>261.3333333333333</ele><time>2026-04-26T07:19:34.999Z</time></trkpt><trkpt lat="45.59398184954835" lon="10.72335888313836"><ele>260.66666666666663</ele><time>2026-04-26T07:19:35.999Z</time></trkpt><trkpt lat="45.594044375336296" lon="10.723452305548147"><ele>260.0</ele><time>2026-04-26T07:19:36.999Z</time></trkpt><trkpt lat="45.594110188137655" lon="10.723537682630369"><ele>259.3333333333333</ele><time>2026-04-26T07:19:37.999Z</time></trkpt><trkpt lat="45.59417589143233" lon="10.723615403248234"><ele>258.6666666666667</ele><time>2026-04-26T07:19:38.999Z</time></trkpt><trkpt lat="45.59423142345066" lon="10.72367544514749"><ele>258.0</ele><time>2026-04-26T07:19:39.999Z</time></trkpt><trkpt lat="45.594288752442004" lon="10.72372883653335"><ele>258.0</ele><time>2026-04-26T07:19:40.999Z</time></trkpt><trkpt lat="45.59438884503087" lon="10.72376957120875"><ele>258.0</ele><time>2026-04-26T07:19:42.999Z</time></trkpt><trkpt lat="45.59447384596769" lon="10.723792408473498"><ele>258.0</ele><time>2026-04-26T07:19:44.999Z</time></trkpt><trkpt lat="45.59455026739825" lon="10.72384633118444"><ele>258.0</ele><time>2026-04-26T07:19:47.999Z</time></trkpt><trkpt lat="45.594625036165716" lon="10.72388836518245"><ele>258.0</ele><time>2026-04-26T07:19:50.999Z</time></trkpt><trkpt lat="45.59474308966548" lon="10.723798505221165"><ele>258.0</ele><time>2026-04-26T07:19:53Z</time></trkpt><trkpt lat="45.5948425815103" lon="10.723696042379597"><ele>258.0</ele><time>2026-04-26T07:19:55Z</time></trkpt><trkpt lat="45.59487692884721" lon="10.723549941232873"><ele>258.0</ele><time>2026-04-26T07:19:57Z</time></trkpt><trkpt lat="45.59492134265842" lon="10.72338151713085"><ele>258.0</ele><time>2026-04-26T07:20:03Z</time></trkpt><trkpt lat="45.59495988603615" lon="10.723278399584679"><ele>258.0</ele><time>2026-04-26T07:20:04Z</time></trkpt><trkpt lat="45.59497486383818" lon="10.72319094251592"><ele>258.0</ele><time>2026-04-26T07:20:05Z</time></trkpt><trkpt lat="45.59497351181492" lon="10.723064315615929"><ele>258.0</ele><time>2026-04-26T07:20:06Z</time></trkpt><trkpt lat="45.594990627160094" lon="10.722968311186198"><ele>258.0</ele><time>2026-04-26T07:20:07Z</time></trkpt><trkpt lat="45.59497645780737" lon="10.722825368235531"><ele>258.0</ele><time>2026-04-26T07:20:08Z</time></trkpt><trkpt lat="45.59495139246191" lon="10.722667572008548"><ele>258.0</ele><time>2026-04-26T07:20:09Z</time></trkpt><trkpt lat="45.594908367275536" lon="10.722444863152937"><ele>258.0</ele><time>2026-04-26T07:20:10Z</time></trkpt><trkpt lat="45.59485661241031" lon="10.722265338619016"><ele>258.0</ele><time>2026-04-26T07:20:11Z</time></trkpt><trkpt lat="45.59484795930007" lon="10.722111677723847"><ele>258.0</ele><time>2026-04-26T07:20:12Z</time></trkpt><trkpt lat="45.594835766601975" lon="10.721994728235268"><ele>258.0</ele><time>2026-04-26T07:20:13Z</time></trkpt><trkpt lat="45.594821500642155" lon="10.721883302248514"><ele>258.0</ele><time>2026-04-26T07:20:15Z</time></trkpt><trkpt lat="45.594834300347145" lon="10.72198050248719"><ele>258.0</ele><time>2026-04-26T07:20:33Z</time></trkpt><trkpt lat="45.594845887473106" lon="10.722099991693305"><ele>258.0</ele><time>2026-04-26T07:20:35Z</time></trkpt><trkpt lat="45.59484564316591" lon="10.722251585347037"><ele>258.0</ele><time>2026-04-26T07:20:36Z</time></trkpt><trkpt lat="45.59487934701128" lon="10.722438741386728"><ele>258.0</ele><time>2026-04-26T07:20:37Z</time></trkpt><trkpt lat="45.594923869680315" lon="10.722658364394801"><ele>258.0</ele><time>2026-04-26T07:20:38Z</time></trkpt><trkpt lat="45.594960999622856" lon="10.722860325241891"><ele>258.0</ele><time>2026-04-26T07:20:39Z</time></trkpt><trkpt lat="45.59497304428899" lon="10.72303853741034"><ele>258.0</ele><time>2026-04-26T07:20:40Z</time></trkpt><trkpt lat="45.594943426007006" lon="10.723181375430181"><ele>258.0</ele><time>2026-04-26T07:20:41Z</time></trkpt><trkpt lat="45.59491875943807" lon="10.723315548643953"><ele>258.0</ele><time>2026-04-26T07:20:42Z</time></trkpt><trkpt lat="45.59487506818726" lon="10.723468450288225"><ele>258.0</ele><time>2026-04-26T07:20:43Z</time></trkpt><trkpt lat="45.594853528854124" lon="10.723604588461594"><ele>258.0</ele><time>2026-04-26T07:20:44Z</time></trkpt><trkpt lat="45.59481953783095" lon="10.72368317846006"><ele>258.0</ele><time>2026-04-26T07:20:45Z</time></trkpt><trkpt lat="45.59476612821049" lon="10.723768976974027"><ele>258.0</ele><time>2026-04-26T07:20:48Z</time></trkpt><trkpt lat="45.59469518356363" lon="10.723808956567852"><ele>258.0</ele><time>2026-04-26T07:20:50Z</time></trkpt><trkpt lat="45.5946226464264" lon="10.723827198661203"><ele>258.2</ele><time>2026-04-26T07:20:52Z</time></trkpt><trkpt lat="45.59455284513348" lon="10.723880640302362"><ele>258.4</ele><time>2026-04-26T07:20:55Z</time></trkpt><trkpt lat="45.59471816972336" lon="10.723790007058989"><ele>258.59999999999997</ele><time>2026-04-26T07:21:08Z</time></trkpt><trkpt lat="45.59479699424666" lon="10.723753727044281"><ele>258.8</ele><time>2026-04-26T07:21:10Z</time></trkpt><trkpt lat="45.594893161876534" lon="10.723773061178518"><ele>259.0</ele><time>2026-04-26T07:21:13Z</time></trkpt><trkpt lat="45.594988342149954" lon="10.723814280437935"><ele>259.0</ele><time>2026-04-26T07:21:15Z</time></trkpt><trkpt lat="45.59508594348026" lon="10.72384758489918"><ele>259.0</ele><time>2026-04-26T07:21:17Z</time></trkpt><trkpt lat="45.595196109065775" lon="10.723866117023288"><ele>259.0</ele><time>2026-04-26T07:21:19Z</time></trkpt><trkpt lat="45.595311722274424" lon="10.723917829246101"><ele>259.0</ele><time>2026-04-26T07:21:21Z</time></trkpt><trkpt lat="45.59539234910902" lon="10.723948795957236"><ele>259.0</ele><time>2026-04-26T07:21:22Z</time></trkpt><trkpt lat="45.59546435883208" lon="10.723979875084671"><ele>258.8333333333333</ele><time>2026-04-26T07:21:23Z</time></trkpt><trkpt lat="45.59553139292218" lon="10.724018044862794"><ele>258.66666666666663</ele><time>2026-04-26T07:21:24Z</time></trkpt><trkpt lat="45.59560693573531" lon="10.724046889864008"><ele>258.5</ele><time>2026-04-26T07:21:25Z</time></trkpt><trkpt lat="45.5956836018442" lon="10.724081422170142"><ele>258.3333333333333</ele><time>2026-04-26T07:21:26Z</time></trkpt><trkpt lat="45.59580450945644" lon="10.724134828722118"><ele>258.1666666666667</ele><time>2026-04-26T07:21:28Z</time></trkpt><trkpt lat="45.59587509218014" lon="10.724163723714426"><ele>258.0</ele><time>2026-04-26T07:21:29Z</time></trkpt><trkpt lat="45.595945851639456" lon="10.724204643250225"><ele>258.0</ele><time>2026-04-26T07:21:30Z</time></trkpt><trkpt lat="45.596030842676264" lon="10.724255066581803"><ele>258.0</ele><time>2026-04-26T07:21:31Z</time></trkpt><trkpt lat="45.59612829109712" lon="10.724326648142927"><ele>258.0</ele><time>2026-04-26T07:21:32Z</time></trkpt><trkpt lat="45.5962134588848" lon="10.724388698901432"><ele>258.0</ele><time>2026-04-26T07:21:33Z</time></trkpt><trkpt lat="45.59629826686808" lon="10.724458119865899"><ele>258.0</ele><time>2026-04-26T07:21:34Z</time></trkpt><trkpt lat="45.59638770441223" lon="10.724531836133613"><ele>258.4</ele><time>2026-04-26T07:21:35Z</time></trkpt><trkpt lat="45.5964757266436" lon="10.724604909123348"><ele>258.8</ele><time>2026-04-26T07:21:36Z</time></trkpt><trkpt lat="45.59656537180132" lon="10.724673640469225"><ele>259.2</ele><time>2026-04-26T07:21:37Z</time></trkpt><trkpt lat="45.59664507025643" lon="10.724731599290772"><ele>259.6</ele><time>2026-04-26T07:21:38Z</time></trkpt><trkpt lat="45.59672715756324" lon="10.724781344443084"><ele>260.0</ele><time>2026-04-26T07:21:39Z</time></trkpt><trkpt lat="45.596801852662985" lon="10.724806710982616"><ele>260.0</ele><time>2026-04-26T07:21:40Z</time></trkpt><trkpt lat="45.59686603441307" lon="10.724824657584357"><ele>260.0</ele><time>2026-04-26T07:21:41Z</time></trkpt><trkpt lat="45.59693744087971" lon="10.72484495006843"><ele>260.0</ele><time>2026-04-26T07:21:42Z</time></trkpt><trkpt lat="45.59700140032413" lon="10.724859385964367"><ele>260.0</ele><time>2026-04-26T07:21:43Z</time></trkpt><trkpt lat="45.597105054022066" lon="10.72487370887935"><ele>260.0</ele><time>2026-04-26T07:21:45Z</time></trkpt><trkpt lat="45.597207137731615" lon="10.724844489060953"><ele>260.0</ele><time>2026-04-26T07:21:47Z</time></trkpt><trkpt lat="45.59727161345382" lon="10.72473635605311"><ele>260.2</ele><time>2026-04-26T07:21:49Z</time></trkpt><trkpt lat="45.59731509817804" lon="10.724578745163134"><ele>260.4</ele><time>2026-04-26T07:21:51Z</time></trkpt><trkpt lat="45.5974001862219" lon="10.72447759488505"><ele>260.6</ele><time>2026-04-26T07:21:53Z</time></trkpt><trkpt lat="45.59748003077622" lon="10.724414954249099"><ele>260.8</ele><time>2026-04-26T07:21:55Z</time></trkpt><trkpt lat="45.59751610776177" lon="10.724273554171646"><ele>261.0</ele><time>2026-04-26T07:21:57Z</time></trkpt><trkpt lat="45.59754057995007" lon="10.72417297864463"><ele>261.5</ele><time>2026-04-26T07:21:58Z</time></trkpt><trkpt lat="45.59756556874016" lon="10.724059869374447"><ele>262.0</ele><time>2026-04-26T07:21:59Z</time></trkpt><trkpt lat="45.597596048032656" lon="10.723943664354515"><ele>262.5</ele><time>2026-04-26T07:22:00Z</time></trkpt><trkpt lat="45.59762855595079" lon="10.723820458532575"><ele>263.0</ele><time>2026-04-26T07:22:01Z</time></trkpt><trkpt lat="45.59765525811572" lon="10.723721951768885"><ele>263.5</ele><time>2026-04-26T07:22:02Z</time></trkpt><trkpt lat="45.5976837873461" lon="10.723619184190897"><ele>264.0</ele><time>2026-04-26T07:22:03Z</time></trkpt><trkpt lat="45.59770214385663" lon="10.723518131349614"><ele>264.2</ele><time>2026-04-26T07:22:04Z</time></trkpt><trkpt lat="45.59772887023165" lon="10.723394007654877"><ele>264.4</ele><time>2026-04-26T07:22:05Z</time></trkpt><trkpt lat="45.59777064316307" lon="10.723252037965711"><ele>264.6</ele><time>2026-04-26T07:22:06Z</time></trkpt><trkpt lat="45.597814594544914" lon="10.723103072340088"><ele>264.8</ele><time>2026-04-26T07:22:07Z</time></trkpt><trkpt lat="45.597851189720586" lon="10.722989303615202"><ele>265.0</ele><time>2026-04-26T07:22:08Z</time></trkpt><trkpt lat="45.59788243885642" lon="10.722867361949845"><ele>265.0</ele><time>2026-04-26T07:22:09Z</time></trkpt><trkpt lat="45.597912250608694" lon="10.722734706686984"><ele>265.0</ele><time>2026-04-26T07:22:10Z</time></trkpt><trkpt lat="45.59793970829304" lon="10.722615113448262"><ele>265.0</ele><time>2026-04-26T07:22:11Z</time></trkpt><trkpt lat="45.59796498135325" lon="10.722510194800769"><ele>265.0</ele><time>2026-04-26T07:22:12Z</time></trkpt><trkpt lat="45.597987247814345" lon="10.722422473790093"><ele>265.0</ele><time>2026-04-26T07:22:13Z</time></trkpt><trkpt lat="45.598012374314735" lon="10.72231151854236"><ele>265.0</ele><time>2026-04-26T07:22:14Z</time></trkpt><trkpt lat="45.59805783178229" lon="10.722201686493905"><ele>265.0</ele><time>2026-04-26T07:22:15Z</time></trkpt><trkpt lat="45.598120059422776" lon="10.722083888689236"><ele>265.0</ele><time>2026-04-26T07:22:16Z</time></trkpt><trkpt lat="45.59819214901214" lon="10.721971421272213"><ele>265.0</ele><time>2026-04-26T07:22:17Z</time></trkpt><trkpt lat="45.59826879362239" lon="10.7218458893104"><ele>265.0</ele><time>2026-04-26T07:22:18Z</time></trkpt><trkpt lat="45.598342584472945" lon="10.721726660277463"><ele>265.0</ele><time>2026-04-26T07:22:19Z</time></trkpt><trkpt lat="45.5984218569714" lon="10.72161025831537"><ele>265.8</ele><time>2026-04-26T07:22:20Z</time></trkpt><trkpt lat="45.598498207023205" lon="10.721492492181902"><ele>266.6</ele><time>2026-04-26T07:22:21Z</time></trkpt><trkpt lat="45.5985725057057" lon="10.721372784099117"><ele>267.4</ele><time>2026-04-26T07:22:22Z</time></trkpt><trkpt lat="45.5986451518262" lon="10.721253945781445"><ele>268.2</ele><time>2026-04-26T07:22:23Z</time></trkpt><trkpt lat="45.59871207443324" lon="10.721125523233889"><ele>269.0</ele><time>2026-04-26T07:22:24Z</time></trkpt><trkpt lat="45.59877685368803" lon="10.721030139569168"><ele>269.8</ele><time>2026-04-26T07:22:25Z</time></trkpt><trkpt lat="45.59884977981011" lon="10.720906530809017"><ele>270.59999999999997</ele><time>2026-04-26T07:22:26Z</time></trkpt><trkpt lat="45.59890606527741" lon="10.72079311783014"><ele>271.4</ele><time>2026-04-26T07:22:27Z</time></trkpt><trkpt lat="45.59896574845979" lon="10.72069097562346"><ele>272.2</ele><time>2026-04-26T07:22:28Z</time></trkpt><trkpt lat="45.59901270165122" lon="10.720561350332844"><ele>273.0</ele><time>2026-04-26T07:22:29Z</time></trkpt><trkpt lat="45.59906855861584" lon="10.720420953210947"><ele>273.0</ele><time>2026-04-26T07:22:30Z</time></trkpt><trkpt lat="45.59911643071058" lon="10.720279107766034"><ele>273.0</ele><time>2026-04-26T07:22:31Z</time></trkpt><trkpt lat="45.59915674321062" lon="10.720157132824706"><ele>273.0</ele><time>2026-04-26T07:22:32Z</time></trkpt><trkpt lat="45.5991966674821" lon="10.720044395849284"><ele>273.0</ele><time>2026-04-26T07:22:33Z</time></trkpt><trkpt lat="45.599235975381" lon="10.719940864121488"><ele>273.0</ele><time>2026-04-26T07:22:34Z</time></trkpt><trkpt lat="45.59928768736913" lon="10.719812886659533"><ele>273.5</ele><time>2026-04-26T07:22:35Z</time></trkpt><trkpt lat="45.59933375831857" lon="10.719695686809061"><ele>274.0</ele><time>2026-04-26T07:22:36Z</time></trkpt><trkpt lat="45.59937080725371" lon="10.719589144259913"><ele>274.5</ele><time>2026-04-26T07:22:37Z</time></trkpt><trkpt lat="45.599398912756634" lon="10.71948991343887"><ele>275.0</ele><time>2026-04-26T07:22:38Z</time></trkpt><trkpt lat="45.59942463966647" lon="10.71938127035141"><ele>275.5</ele><time>2026-04-26T07:22:39Z</time></trkpt><trkpt lat="45.599468157325546" lon="10.71924145574972"><ele>276.0</ele><time>2026-04-26T07:22:41Z</time></trkpt><trkpt lat="45.599489493003134" lon="10.719106354751167"><ele>276.3333333333333</ele><time>2026-04-26T07:22:54Z</time></trkpt><trkpt lat="45.59949702418522" lon="10.718944607734246"><ele>276.6666666666667</ele><time>2026-04-26T07:22:56Z</time></trkpt><trkpt lat="45.59950619196873" lon="10.718849410682244"><ele>277.0</ele><time>2026-04-26T07:22:57Z</time></trkpt><trkpt lat="45.599544182263806" lon="10.718753698558432"><ele>277.33333333333337</ele><time>2026-04-26T07:22:58Z</time></trkpt><trkpt lat="45.59960218839192" lon="10.718671742133722"><ele>277.6666666666667</ele><time>2026-04-26T07:22:59Z</time></trkpt><trkpt lat="45.5996465719926" lon="10.718573735471317"><ele>278.0</ele><time>2026-04-26T07:23:00Z</time></trkpt><trkpt lat="45.59968796955929" lon="10.718475283766521"><ele>279.1666666666667</ele><time>2026-04-26T07:23:01Z</time></trkpt><trkpt lat="45.59972609390863" lon="10.718380864425292"><ele>280.33333333333337</ele><time>2026-04-26T07:23:02Z</time></trkpt><trkpt lat="45.5997653213018" lon="10.718282220761585"><ele>281.5</ele><time>2026-04-26T07:23:03Z</time></trkpt><trkpt lat="45.599803598658674" lon="10.718185966192324"><ele>282.6666666666667</ele><time>2026-04-26T07:23:04Z</time></trkpt><trkpt lat="45.59984447396247" lon="10.718086868604278"><ele>283.8333333333333</ele><time>2026-04-26T07:23:05Z</time></trkpt><trkpt lat="45.59988991652519" lon="10.717987277339772"><ele>285.0</ele><time>2026-04-26T07:23:06Z</time></trkpt><trkpt lat="45.599935944526436" lon="10.717887448788396"><ele>285.0</ele><time>2026-04-26T07:23:07Z</time></trkpt><trkpt lat="45.599979515997205" lon="10.717783786671417"><ele>285.0</ele><time>2026-04-26T07:23:08Z</time></trkpt><trkpt lat="45.60001215460846" lon="10.71767073448723"><ele>285.0</ele><time>2026-04-26T07:23:09Z</time></trkpt><trkpt lat="45.60007373021971" lon="10.717590304979991"><ele>285.0</ele><time>2026-04-26T07:23:10Z</time></trkpt><trkpt lat="45.600128588393645" lon="10.717501210904198"><ele>285.0</ele><time>2026-04-26T07:23:11Z</time></trkpt><trkpt lat="45.60019302796475" lon="10.717426319893697"><ele>285.0</ele><time>2026-04-26T07:23:12Z</time></trkpt><trkpt lat="45.60026697511923" lon="10.717353097702466"><ele>286.2</ele><time>2026-04-26T07:23:13Z</time></trkpt><trkpt lat="45.600351406188196" lon="10.717291324859055"><ele>287.4</ele><time>2026-04-26T07:23:14Z</time></trkpt><trkpt lat="45.60043835423507" lon="10.717231671530625"><ele>288.6</ele><time>2026-04-26T07:23:15Z</time></trkpt><trkpt lat="45.60052783823768" lon="10.71714824407135"><ele>289.8</ele><time>2026-04-26T07:23:16Z</time></trkpt><trkpt lat="45.600623208251186" lon="10.717095240036102"><ele>291.0</ele><time>2026-04-26T07:23:17Z</time></trkpt><trkpt lat="45.600720488241734" lon="10.717038925968644"><ele>291.0</ele><time>2026-04-26T07:23:18Z</time></trkpt><trkpt lat="45.60082761296251" lon="10.716980180376101"><ele>291.0</ele><time>2026-04-26T07:23:19Z</time></trkpt><trkpt lat="45.600912675554625" lon="10.716935579218042"><ele>291.0</ele><time>2026-04-26T07:23:20Z</time></trkpt><trkpt lat="45.60098877916797" lon="10.7168581202274"><ele>291.0</ele><time>2026-04-26T07:23:21Z</time></trkpt><trkpt lat="45.60104348000057" lon="10.716788536407094"><ele>291.0</ele><time>2026-04-26T07:23:22Z</time></trkpt><trkpt lat="45.6011118080677" lon="10.716741947443664"><ele>291.0</ele><time>2026-04-26T07:23:24Z</time></trkpt><trkpt lat="45.60118468448607" lon="10.716787581218801"><ele>292.2</ele><time>2026-04-26T07:23:29Z</time></trkpt><trkpt lat="45.60122160944086" lon="10.716873697076153"><ele>293.40000000000003</ele><time>2026-04-26T07:23:32Z</time></trkpt><trkpt lat="45.60128274958146" lon="10.716932210544206"><ele>294.6</ele><time>2026-04-26T07:23:36Z</time></trkpt><trkpt lat="45.601374262457945" lon="10.716723808891789"><ele>295.8</ele><time>2026-04-26T07:23:37Z</time></trkpt><trkpt lat="45.60144606757168" lon="10.716780621302155"><ele>297.0</ele><time>2026-04-26T07:23:38Z</time></trkpt><trkpt lat="45.601494231076565" lon="10.71669820350155"><ele>297.0</ele><time>2026-04-26T07:23:39Z</time></trkpt><trkpt lat="45.60158667261011" lon="10.716685954427684"><ele>297.0</ele><time>2026-04-26T07:23:41Z</time></trkpt><trkpt lat="45.60160883018216" lon="10.716851902348758"><ele>297.0</ele><time>2026-04-26T07:23:42Z</time></trkpt><trkpt lat="45.601671234235084" lon="10.716587435579122"><ele>297.0</ele><time>2026-04-26T07:23:43Z</time></trkpt><trkpt lat="45.601728540221536" lon="10.716449875611458"><ele>297.0</ele><time>2026-04-26T07:23:45Z</time></trkpt><trkpt lat="45.60175356733624" lon="10.716286716409735"><ele>297.0</ele><time>2026-04-26T07:23:47Z</time></trkpt><trkpt lat="45.601783295771696" lon="10.716138605598065"><ele>297.0</ele><time>2026-04-26T07:23:49Z</time></trkpt><trkpt lat="45.601848272534255" lon="10.716023825751876"><ele>297.0</ele><time>2026-04-26T07:23:51Z</time></trkpt><trkpt lat="45.60195472883694" lon="10.715994286478512"><ele>297.0</ele><time>2026-04-26T07:23:53Z</time></trkpt><trkpt lat="45.602032268715234" lon="10.715999404831802"><ele>297.3333333333333</ele><time>2026-04-26T07:23:54Z</time></trkpt><trkpt lat="45.60212306384421" lon="10.716005926785707"><ele>297.6666666666667</ele><time>2026-04-26T07:23:55Z</time></trkpt><trkpt lat="45.60221623489357" lon="10.716012936152401"><ele>298.0</ele><time>2026-04-26T07:23:56Z</time></trkpt><trkpt lat="45.6023057058602" lon="10.716027240167838"><ele>298.33333333333337</ele><time>2026-04-26T07:23:57Z</time></trkpt><trkpt lat="45.60238460819217" lon="10.716034594919638"><ele>298.6666666666667</ele><time>2026-04-26T07:23:58Z</time></trkpt><trkpt lat="45.602459989798376" lon="10.716044223008742"><ele>299.0</ele><time>2026-04-26T07:23:59Z</time></trkpt><trkpt lat="45.60253052931691" lon="10.716045817682321"><ele>299.0</ele><time>2026-04-26T07:24:00Z</time></trkpt><trkpt lat="45.60259909300738" lon="10.716035637807881"><ele>299.0</ele><time>2026-04-26T07:24:01Z</time></trkpt><trkpt lat="45.602667339853305" lon="10.716028597731587"><ele>299.0</ele><time>2026-04-26T07:24:02Z</time></trkpt><trkpt lat="45.60274183692033" lon="10.716021459559826"><ele>299.0</ele><time>2026-04-26T07:24:03Z</time></trkpt><trkpt lat="45.60281426411923" lon="10.716008956693575"><ele>299.0</ele><time>2026-04-26T07:24:04Z</time></trkpt><trkpt lat="45.60288462180318" lon="10.715986029653122"><ele>299.0</ele><time>2026-04-26T07:24:05Z</time></trkpt><trkpt lat="45.60294676353335" lon="10.71594498228311"><ele>299.0</ele><time>2026-04-26T07:24:06Z</time></trkpt><trkpt lat="45.60300656874271" lon="10.715889208779734"><ele>301.2</ele><time>2026-04-26T07:24:07Z</time></trkpt><trkpt lat="45.60306569257616" lon="10.715822049561101"><ele>303.4</ele><time>2026-04-26T07:24:08Z</time></trkpt><trkpt lat="45.60313216846047" lon="10.71575241917391"><ele>305.6</ele><time>2026-04-26T07:24:09Z</time></trkpt><trkpt lat="45.60321558998198" lon="10.715684454911445"><ele>307.8</ele><time>2026-04-26T07:24:10Z</time></trkpt><trkpt lat="45.60331099418118" lon="10.71562761936571"><ele>310.0</ele><time>2026-04-26T07:24:11Z</time></trkpt><trkpt lat="45.60339944632056" lon="10.715588144412198"><ele>310.0</ele><time>2026-04-26T07:24:12Z</time></trkpt><trkpt lat="45.60347154787675" lon="10.715567766270528"><ele>310.0</ele><time>2026-04-26T07:24:13Z</time></trkpt><trkpt lat="45.60353590920164" lon="10.715555126234253"><ele>310.0</ele><time>2026-04-26T07:24:14Z</time></trkpt><trkpt lat="45.60362749932568" lon="10.715567599940673"><ele>310.0</ele><time>2026-04-26T07:24:16Z</time></trkpt><trkpt lat="45.603718287407496" lon="10.715558319938113"><ele>310.0</ele><time>2026-04-26T07:24:18Z</time></trkpt><trkpt lat="45.60384302563865" lon="10.715543781789663"><ele>310.0</ele><time>2026-04-26T07:24:20Z</time></trkpt><trkpt lat="45.603916015030045" lon="10.715541168884625"><ele>310.8333333333333</ele><time>2026-04-26T07:24:21Z</time></trkpt><trkpt lat="45.60398360498023" lon="10.715549208583552"><ele>311.66666666666663</ele><time>2026-04-26T07:24:22Z</time></trkpt><trkpt lat="45.60406228318939" lon="10.715558927530141"><ele>312.5</ele><time>2026-04-26T07:24:23Z</time></trkpt><trkpt lat="45.604144554350164" lon="10.715570045439094"><ele>313.3333333333333</ele><time>2026-04-26T07:24:24Z</time></trkpt><trkpt lat="45.60424371687536" lon="10.715574131084786"><ele>314.1666666666667</ele><time>2026-04-26T07:24:25Z</time></trkpt><trkpt lat="45.6043424438625" lon="10.715571153447241"><ele>315.0</ele><time>2026-04-26T07:24:26Z</time></trkpt><trkpt lat="45.60444060237992" lon="10.715570017518061"><ele>316.0</ele><time>2026-04-26T07:24:27Z</time></trkpt><trkpt lat="45.60453727843912" lon="10.715561428978152"><ele>317.0</ele><time>2026-04-26T07:24:28Z</time></trkpt><trkpt lat="45.6046341965911" lon="10.715551063244783"><ele>318.0</ele><time>2026-04-26T07:24:29Z</time></trkpt><trkpt lat="45.60472757505769" lon="10.715540988669709"><ele>319.0</ele><time>2026-04-26T07:24:30Z</time></trkpt><trkpt lat="45.604816378384584" lon="10.715526805160104"><ele>320.0</ele><time>2026-04-26T07:24:31Z</time></trkpt><trkpt lat="45.604901603709244" lon="10.715514788268283"><ele>320.0</ele><time>2026-04-26T07:24:32Z</time></trkpt><trkpt lat="45.60498825608887" lon="10.715507566469322"><ele>320.0</ele><time>2026-04-26T07:24:33Z</time></trkpt><trkpt lat="45.60506499066942" lon="10.715512118184954"><ele>320.0</ele><time>2026-04-26T07:24:34Z</time></trkpt><trkpt lat="45.60514140117757" lon="10.715519749108019"><ele>320.0</ele><time>2026-04-26T07:24:35Z</time></trkpt><trkpt lat="45.60521280126823" lon="10.715523897026651"><ele>320.0</ele><time>2026-04-26T07:24:36Z</time></trkpt><trkpt lat="45.60531975196365" lon="10.715527978697788"><ele>320.0</ele><time>2026-04-26T07:24:38Z</time></trkpt><trkpt lat="45.605404522964044" lon="10.715526333619815"><ele>320.7142857142857</ele><time>2026-04-26T07:24:40Z</time></trkpt><trkpt lat="45.605468764573246" lon="10.715499268240778"><ele>321.42857142857144</ele><time>2026-04-26T07:24:42Z</time></trkpt><trkpt lat="45.60555509846753" lon="10.715472725656186"><ele>322.1428571428571</ele><time>2026-04-26T07:24:45Z</time></trkpt><trkpt lat="45.60562188541591" lon="10.71547291607038"><ele>322.8571428571429</ele><time>2026-04-26T07:24:48Z</time></trkpt><trkpt lat="45.60568979804254" lon="10.715473516424092"><ele>323.5714285714286</ele><time>2026-04-26T07:25:03Z</time></trkpt><trkpt lat="45.60574849393557" lon="10.715434480448959"><ele>324.2857142857143</ele><time>2026-04-26T07:25:08Z</time></trkpt><trkpt lat="45.60582565010006" lon="10.715406707854669"><ele>325.0</ele><time>2026-04-26T07:25:40Z</time></trkpt><trkpt lat="45.605899469986554" lon="10.715371623334866"><ele>325.0</ele><time>2026-04-26T07:25:43Z</time></trkpt><trkpt lat="45.60596596110089" lon="10.715325501598702"><ele>325.0</ele><time>2026-04-26T07:27:45Z</time></trkpt><trkpt lat="45.60603787536102" lon="10.715284866520731"><ele>325.0</ele><time>2026-04-26T07:28:26.001Z</time></trkpt><trkpt lat="45.60611567835702" lon="10.715241178345515"><ele>325.0</ele><time>2026-04-26T07:28:41.001Z</time></trkpt><trkpt lat="45.606179473207646" lon="10.715192574516994"><ele>325.0</ele><time>2026-04-26T07:28:43.001Z</time></trkpt><trkpt lat="45.60624121744163" lon="10.715150965485131"><ele>325.0</ele><time>2026-04-26T07:28:52Z</time></trkpt><trkpt lat="45.60630528085048" lon="10.715128491818414"><ele>325.0</ele><time>2026-04-26T07:28:58Z</time></trkpt><trkpt lat="45.60640319150302" lon="10.715099581797269"><ele>324.8333333333333</ele><time>2026-04-26T07:35:14.999Z</time></trkpt><trkpt lat="45.60647790933461" lon="10.715053516250673"><ele>324.66666666666663</ele><time>2026-04-26T07:35:17.999Z</time></trkpt><trkpt lat="45.60653545932981" lon="10.71500036152771"><ele>324.5</ele><time>2026-04-26T07:35:19.999Z</time></trkpt><trkpt lat="45.60647547392653" lon="10.715031221437975"><ele>324.3333333333333</ele><time>2026-04-26T07:35:54.999Z</time></trkpt><trkpt lat="45.60640786541503" lon="10.715088392205299"><ele>324.1666666666667</ele><time>2026-04-26T07:35:57.999Z</time></trkpt><trkpt lat="45.6063056741011" lon="10.715211669659206"><ele>324.0</ele><time>2026-04-26T07:36:01.999Z</time></trkpt><trkpt lat="45.6063871908651" lon="10.71507771190697"><ele>324.0</ele><time>2026-04-26T07:36:03.999Z</time></trkpt><trkpt lat="45.606498778949785" lon="10.715011895269736"><ele>324.0</ele><time>2026-04-26T07:36:38.999Z</time></trkpt><trkpt lat="45.60655323391243" lon="10.714954294821165"><ele>324.0</ele><time>2026-04-26T07:36:58.999Z</time></trkpt><trkpt lat="45.60657344997418" lon="10.715051249881922"><ele>324.0</ele><time>2026-04-26T07:37:10.999Z</time></trkpt><trkpt lat="45.60659557108505" lon="10.714965189588497"><ele>324.0</ele><time>2026-04-26T07:37:22.999Z</time></trkpt><trkpt lat="45.606577613092306" lon="10.715059847452332"><ele>324.0</ele><time>2026-04-26T07:37:24.999Z</time></trkpt><trkpt lat="45.60658692192576" lon="10.715199395346998"><ele>324.8333333333333</ele><time>2026-04-26T07:37:26.999Z</time></trkpt><trkpt lat="45.60655092236768" lon="10.715300688424442"><ele>325.6666666666667</ele><time>2026-04-26T07:37:28.999Z</time></trkpt><trkpt lat="45.606531447274754" lon="10.715429877516492"><ele>326.5</ele><time>2026-04-26T07:37:30.999Z</time></trkpt><trkpt lat="45.606511210212595" lon="10.715517077621916"><ele>327.33333333333337</ele><time>2026-04-26T07:37:32.999Z</time></trkpt><trkpt lat="45.606453695623955" lon="10.715594923912777"><ele>328.1666666666667</ele><time>2026-04-26T07:37:35.999Z</time></trkpt><trkpt lat="45.60638807682571" lon="10.715639248284173"><ele>329.0</ele><time>2026-04-26T07:37:38.999Z</time></trkpt><trkpt lat="45.60632105160527" lon="10.71566165918881"><ele>329.0</ele><time>2026-04-26T07:37:42.999Z</time></trkpt><trkpt lat="45.60624830901886" lon="10.7156979881833"><ele>329.0</ele><time>2026-04-26T07:38:19.999Z</time></trkpt><trkpt lat="45.60618317311887" lon="10.715696045307086"><ele>329.0</ele><time>2026-04-26T07:38:21.999Z</time></trkpt><trkpt lat="45.60611765642147" lon="10.715709439436775"><ele>329.0</ele><time>2026-04-26T07:38:23.999Z</time></trkpt><trkpt lat="45.606045392039626" lon="10.715755674963027"><ele>329.0</ele><time>2026-04-26T07:38:25.999Z</time></trkpt><trkpt lat="45.60596315515463" lon="10.715780216243962"><ele>329.0</ele><time>2026-04-26T07:38:27.999Z</time></trkpt><trkpt lat="45.60584197844854" lon="10.715804073729757"><ele>328.2</ele><time>2026-04-26T07:38:29.999Z</time></trkpt><trkpt lat="45.605762652338775" lon="10.715855082048568"><ele>327.4</ele><time>2026-04-26T07:38:31.999Z</time></trkpt><trkpt lat="45.605651660528196" lon="10.715870611727716"><ele>326.6</ele><time>2026-04-26T07:38:33.999Z</time></trkpt><trkpt lat="45.605569544415076" lon="10.715882483126236"><ele>325.8</ele><time>2026-04-26T07:38:35.999Z</time></trkpt><trkpt lat="45.60546992708132" lon="10.715902041491084"><ele>325.0</ele><time>2026-04-26T07:38:37.999Z</time></trkpt><trkpt lat="45.6053436605883" lon="10.715919219463734"><ele>324.16666666666663</ele><time>2026-04-26T07:38:39.999Z</time></trkpt><trkpt lat="45.60522999675503" lon="10.715923367012536"><ele>323.3333333333333</ele><time>2026-04-26T07:38:41.999Z</time></trkpt><trkpt lat="45.60512110400528" lon="10.715933283648141"><ele>322.5</ele><time>2026-04-26T07:38:43.999Z</time></trkpt><trkpt lat="45.60505797690554" lon="10.715940368716955"><ele>321.6666666666667</ele><time>2026-04-26T07:38:44.999Z</time></trkpt><trkpt lat="45.6049867186249" lon="10.71593648111328"><ele>320.83333333333337</ele><time>2026-04-26T07:38:45.999Z</time></trkpt><trkpt lat="45.604913999012574" lon="10.715976575242781"><ele>320.0</ele><time>2026-04-26T07:38:46.999Z</time></trkpt><trkpt lat="45.604844384284355" lon="10.716002061830737"><ele>320.0</ele><time>2026-04-26T07:38:47.999Z</time></trkpt><trkpt lat="45.604763269834535" lon="10.716008096431265"><ele>320.0</ele><time>2026-04-26T07:38:48.999Z</time></trkpt><trkpt lat="45.60468728984916" lon="10.7160318426344"><ele>320.0</ele><time>2026-04-26T07:38:49.999Z</time></trkpt><trkpt lat="45.60462038379153" lon="10.7160462640526"><ele>320.0</ele><time>2026-04-26T07:38:50.999Z</time></trkpt><trkpt lat="45.604554300523255" lon="10.716053409500157"><ele>320.0</ele><time>2026-04-26T07:38:51.999Z</time></trkpt><trkpt lat="45.60448356511164" lon="10.716060081317368"><ele>320.0</ele><time>2026-04-26T07:38:52.999Z</time></trkpt><trkpt lat="45.604410864891776" lon="10.71606433539601"><ele>320.0</ele><time>2026-04-26T07:38:53.999Z</time></trkpt><trkpt lat="45.604335721741855" lon="10.7160874332848"><ele>321.5</ele><time>2026-04-26T07:38:55Z</time></trkpt><trkpt lat="45.604266673543044" lon="10.716083759099714"><ele>323.0</ele><time>2026-04-26T07:38:56Z</time></trkpt><trkpt lat="45.60419611182982" lon="10.716081919852726"><ele>324.5</ele><time>2026-04-26T07:38:57Z</time></trkpt><trkpt lat="45.60411909867039" lon="10.716100241528922"><ele>326.0</ele><time>2026-04-26T07:38:58Z</time></trkpt><trkpt lat="45.60403985096591" lon="10.716114143846864"><ele>327.5</ele><time>2026-04-26T07:38:59Z</time></trkpt><trkpt lat="45.603957699220764" lon="10.716114738987475"><ele>329.0</ele><time>2026-04-26T07:39:00Z</time></trkpt><trkpt lat="45.60388746511675" lon="10.71612981967523"><ele>329.0</ele><time>2026-04-26T07:39:01Z</time></trkpt><trkpt lat="45.60376734347664" lon="10.71616712335028"><ele>329.0</ele><time>2026-04-26T07:39:03Z</time></trkpt><trkpt lat="45.60367191938488" lon="10.71625842324117"><ele>329.0</ele><time>2026-04-26T07:39:05Z</time></trkpt><trkpt lat="45.60361152057111" lon="10.716368356420046"><ele>329.0</ele><time>2026-04-26T07:39:07Z</time></trkpt><trkpt lat="45.60357116436178" lon="10.71647395326461"><ele>329.0</ele><time>2026-04-26T07:39:09Z</time></trkpt><trkpt lat="45.60354427298835" lon="10.716633544691916"><ele>326.59999999999997</ele><time>2026-04-26T07:39:11Z</time></trkpt><trkpt lat="45.60354163419847" lon="10.71672420748434"><ele>324.2</ele><time>2026-04-26T07:39:12Z</time></trkpt><trkpt lat="45.60354896881183" lon="10.716871421806564"><ele>321.79999999999995</ele><time>2026-04-26T07:39:14Z</time></trkpt><trkpt lat="45.60353819914509" lon="10.717033521263241"><ele>319.4</ele><time>2026-04-26T07:39:16Z</time></trkpt><trkpt lat="45.60352333954573" lon="10.717189683295015"><ele>317.0</ele><time>2026-04-26T07:39:18Z</time></trkpt><trkpt lat="45.6035201865299" lon="10.71731813837592"><ele>317.0</ele><time>2026-04-26T07:39:20Z</time></trkpt><trkpt lat="45.60352803822304" lon="10.71744936029823"><ele>317.0</ele><time>2026-04-26T07:39:22Z</time></trkpt><trkpt lat="45.60356202056177" lon="10.717607772679417"><ele>317.0</ele><time>2026-04-26T07:39:24Z</time></trkpt><trkpt lat="45.60359859129539" lon="10.717726958030154"><ele>317.0</ele><time>2026-04-26T07:39:26Z</time></trkpt><trkpt lat="45.603622260705826" lon="10.71782952692079"><ele>317.0</ele><time>2026-04-26T07:39:28Z</time></trkpt><trkpt lat="45.603638917182295" lon="10.717954120314953"><ele>316.83333333333337</ele><time>2026-04-26T07:39:30Z</time></trkpt><trkpt lat="45.603584829189465" lon="10.71808909665196"><ele>316.6666666666667</ele><time>2026-04-26T07:39:32Z</time></trkpt><trkpt lat="45.60354425937685" lon="10.718162634512774"><ele>316.5</ele><time>2026-04-26T07:39:33Z</time></trkpt><trkpt lat="45.603500060011136" lon="10.718235271185018"><ele>316.3333333333333</ele><time>2026-04-26T07:39:34Z</time></trkpt><trkpt lat="45.60347172117841" lon="10.718318089899409"><ele>316.16666666666663</ele><time>2026-04-26T07:39:35Z</time></trkpt><trkpt lat="45.60339638954332" lon="10.718416506017101"><ele>316.0</ele><time>2026-04-26T07:39:37Z</time></trkpt><trkpt lat="45.60334593345812" lon="10.71849578528537"><ele>316.66666666666663</ele><time>2026-04-26T07:39:39Z</time></trkpt><trkpt lat="45.60330260314704" lon="10.718597210596503"><ele>317.3333333333333</ele><time>2026-04-26T07:39:43Z</time></trkpt><trkpt lat="45.60325176965097" lon="10.718692981578645"><ele>318.0</ele><time>2026-04-26T07:39:59Z</time></trkpt><trkpt lat="45.60324289174988" lon="10.71880722924942"><ele>318.6666666666667</ele><time>2026-04-26T07:40:02Z</time></trkpt><trkpt lat="45.60327737265989" lon="10.718915919805601"><ele>319.33333333333337</ele><time>2026-04-26T07:40:04Z</time></trkpt><trkpt lat="45.60330311978088" lon="10.719057911618963"><ele>320.0</ele><time>2026-04-26T07:40:06Z</time></trkpt><trkpt lat="45.6033226928455" lon="10.719146267577292"><ele>320.0</ele><time>2026-04-26T07:40:08Z</time></trkpt><trkpt lat="45.6033397974311" lon="10.719255811365661"><ele>320.0</ele><time>2026-04-26T07:40:11Z</time></trkpt><trkpt lat="45.60335693142646" lon="10.719363042477655"><ele>320.0</ele><time>2026-04-26T07:40:14Z</time></trkpt><trkpt lat="45.60350029797541" lon="10.719409209393135"><ele>320.0</ele><time>2026-04-26T07:42:45Z</time></trkpt><trkpt lat="45.60355947280066" lon="10.719444606626025"><ele>320.0</ele><time>2026-04-26T07:42:46Z</time></trkpt><trkpt lat="45.60365043211011" lon="10.719522819727908"><ele>319.2</ele><time>2026-04-26T07:42:48Z</time></trkpt><trkpt lat="45.603731674334924" lon="10.719607929310273"><ele>318.4</ele><time>2026-04-26T07:42:50Z</time></trkpt><trkpt lat="45.603834922399194" lon="10.719644684631183"><ele>317.6</ele><time>2026-04-26T07:42:52Z</time></trkpt><trkpt lat="45.60394517232145" lon="10.719648510154494"><ele>316.8</ele><time>2026-04-26T07:42:54Z</time></trkpt><trkpt lat="45.60406081917446" lon="10.71965915351136"><ele>316.0</ele><time>2026-04-26T07:42:56Z</time></trkpt><trkpt lat="45.60417747976273" lon="10.719719729857918"><ele>316.00000000000006</ele><time>2026-04-26T07:42:58.001Z</time></trkpt><trkpt lat="45.604237174024135" lon="10.719782193740048"><ele>316.0</ele><time>2026-04-26T07:42:59.001Z</time></trkpt><trkpt lat="45.60429851734085" lon="10.719845657182145"><ele>316.0</ele><time>2026-04-26T07:43:00.001Z</time></trkpt><trkpt lat="45.60435504797716" lon="10.719914877985143"><ele>316.0</ele><time>2026-04-26T07:43:01.001Z</time></trkpt><trkpt lat="45.60440523312652" lon="10.719981987241189"><ele>316.0</ele><time>2026-04-26T07:43:02.001Z</time></trkpt><trkpt lat="45.60446147560625" lon="10.720049409806059"><ele>316.00000000000006</ele><time>2026-04-26T07:43:03.001Z</time></trkpt><trkpt lat="45.604516948597166" lon="10.720119236342605"><ele>316.0</ele><time>2026-04-26T07:43:04.001Z</time></trkpt><trkpt lat="45.6045714265485" lon="10.720193497629403"><ele>317.20000000000005</ele><time>2026-04-26T07:43:05.001Z</time></trkpt><trkpt lat="45.60462955145614" lon="10.720277887785224"><ele>318.40000000000003</ele><time>2026-04-26T07:43:06.001Z</time></trkpt><trkpt lat="45.60468704234345" lon="10.720363252637066"><ele>319.6</ele><time>2026-04-26T07:43:07Z</time></trkpt><trkpt lat="45.60474885278988" lon="10.720461264748668"><ele>320.8</ele><time>2026-04-26T07:43:08Z</time></trkpt><trkpt lat="45.604808928475734" lon="10.720582511980107"><ele>322.0</ele><time>2026-04-26T07:43:09Z</time></trkpt><trkpt lat="45.6048526176737" lon="10.720721839514962"><ele>322.0</ele><time>2026-04-26T07:43:10Z</time></trkpt><trkpt lat="45.60489575277303" lon="10.72086126774023"><ele>322.0</ele><time>2026-04-26T07:43:11Z</time></trkpt><trkpt lat="45.60493596461356" lon="10.720994882773835"><ele>322.0</ele><time>2026-04-26T07:43:12Z</time></trkpt><trkpt lat="45.604970962297934" lon="10.721119803898091"><ele>322.0</ele><time>2026-04-26T07:43:13Z</time></trkpt><trkpt lat="45.6050050967872" lon="10.721238945415925"><ele>322.0</ele><time>2026-04-26T07:43:14Z</time></trkpt><trkpt lat="45.605038365696316" lon="10.721358978869024"><ele>321.8333333333333</ele><time>2026-04-26T07:43:15Z</time></trkpt><trkpt lat="45.60507018522642" lon="10.721476223531491"><ele>321.66666666666663</ele><time>2026-04-26T07:43:16Z</time></trkpt><trkpt lat="45.60510246241167" lon="10.721578645147545"><ele>321.5</ele><time>2026-04-26T07:43:17Z</time></trkpt><trkpt lat="45.6051472565918" lon="10.721705408643285"><ele>321.3333333333333</ele><time>2026-04-26T07:43:19Z</time></trkpt><trkpt lat="45.60518954145417" lon="10.721772120502454"><ele>321.1666666666667</ele><time>2026-04-26T07:43:21Z</time></trkpt><trkpt lat="45.60523482485617" lon="10.721887309356095"><ele>321.0</ele><time>2026-04-26T07:43:23Z</time></trkpt><trkpt lat="45.605269299758184" lon="10.72206306907773"><ele>319.8</ele><time>2026-04-26T07:43:25Z</time></trkpt><trkpt lat="45.60529306266425" lon="10.722153617267391"><ele>318.6</ele><time>2026-04-26T07:43:26Z</time></trkpt><trkpt lat="45.60531689661647" lon="10.72223826101098"><ele>317.4</ele><time>2026-04-26T07:43:27Z</time></trkpt><trkpt lat="45.605430744906926" lon="10.722341564625495"><ele>316.2</ele><time>2026-04-26T07:43:29Z</time></trkpt><trkpt lat="45.605518551112716" lon="10.722365469623268"><ele>315.0</ele><time>2026-04-26T07:43:30Z</time></trkpt><trkpt lat="45.60561688167155" lon="10.722382632396155"><ele>315.0</ele><time>2026-04-26T07:43:31Z</time></trkpt><trkpt lat="45.605717953375205" lon="10.722410924545189"><ele>315.0</ele><time>2026-04-26T07:43:32Z</time></trkpt><trkpt lat="45.605814819544996" lon="10.722442635731381"><ele>315.0</ele><time>2026-04-26T07:43:33Z</time></trkpt><trkpt lat="45.605912014554335" lon="10.722473407644909"><ele>315.0</ele><time>2026-04-26T07:43:34Z</time></trkpt><trkpt lat="45.606013614619606" lon="10.722493882130976"><ele>315.0</ele><time>2026-04-26T07:43:35Z</time></trkpt><trkpt lat="45.606118471732714" lon="10.722506125019857"><ele>314.4</ele><time>2026-04-26T07:43:36Z</time></trkpt><trkpt lat="45.60621353067233" lon="10.722555585006898"><ele>313.8</ele><time>2026-04-26T07:43:37Z</time></trkpt><trkpt lat="45.60630953309755" lon="10.722598127839579"><ele>313.2</ele><time>2026-04-26T07:43:38Z</time></trkpt><trkpt lat="45.60640529585381" lon="10.722630098610997"><ele>312.6</ele><time>2026-04-26T07:43:39Z</time></trkpt><trkpt lat="45.60648173742422" lon="10.722692288282957"><ele>312.0</ele><time>2026-04-26T07:43:40Z</time></trkpt><trkpt lat="45.60655405313766" lon="10.722741094920616"><ele>310.0</ele><time>2026-04-26T07:43:41Z</time></trkpt><trkpt lat="45.60661600615736" lon="10.722793069663682"><ele>308.0</ele><time>2026-04-26T07:43:42Z</time></trkpt><trkpt lat="45.60670834074731" lon="10.722905821595662"><ele>306.0</ele><time>2026-04-26T07:43:44Z</time></trkpt><trkpt lat="45.60675439917745" lon="10.723061261353974"><ele>304.0</ele><time>2026-04-26T07:43:46Z</time></trkpt><trkpt lat="45.606695882450914" lon="10.723150154993126"><ele>302.0</ele><time>2026-04-26T07:43:47Z</time></trkpt><trkpt lat="45.60664782945813" lon="10.723216905783406"><ele>302.00000000000006</ele><time>2026-04-26T07:43:48Z</time></trkpt><trkpt lat="45.60660965609427" lon="10.723300147688311"><ele>302.0</ele><time>2026-04-26T07:43:49Z</time></trkpt><trkpt lat="45.606598242632685" lon="10.72340945709774"><ele>302.0</ele><time>2026-04-26T07:43:50Z</time></trkpt><trkpt lat="45.606623768675064" lon="10.723503077066225"><ele>302.0</ele><time>2026-04-26T07:43:51Z</time></trkpt><trkpt lat="45.60668596001912" lon="10.72356751296301"><ele>302.0</ele><time>2026-04-26T07:43:52Z</time></trkpt><trkpt lat="45.6067635799206" lon="10.723609776526649"><ele>302.00000000000006</ele><time>2026-04-26T07:43:53Z</time></trkpt><trkpt lat="45.60683269191669" lon="10.723601010104902"><ele>302.0</ele><time>2026-04-26T07:43:54Z</time></trkpt><trkpt lat="45.60686955809252" lon="10.72374971076271"><ele>302.2</ele><time>2026-04-26T07:43:55Z</time></trkpt><trkpt lat="45.6068958995849" lon="10.723844280991331"><ele>302.4</ele><time>2026-04-26T07:43:56Z</time></trkpt><trkpt lat="45.606896437988645" lon="10.723962551998095"><ele>302.6</ele><time>2026-04-26T07:43:57Z</time></trkpt><trkpt lat="45.60686286579651" lon="10.724101498174305"><ele>302.8</ele><time>2026-04-26T07:43:58Z</time></trkpt><trkpt lat="45.606808145236016" lon="10.724255758170264"><ele>303.0</ele><time>2026-04-26T07:43:59Z</time></trkpt><trkpt lat="45.60674470901661" lon="10.724411406725276"><ele>305.3333333333333</ele><time>2026-04-26T07:44:00Z</time></trkpt><trkpt lat="45.60665110992975" lon="10.724591508540133"><ele>307.66666666666663</ele><time>2026-04-26T07:44:01Z</time></trkpt><trkpt lat="45.60656058576518" lon="10.7248122048887"><ele>310.0</ele><time>2026-04-26T07:44:02Z</time></trkpt><trkpt lat="45.60649822341008" lon="10.725036563539014"><ele>311.25</ele><time>2026-04-26T07:44:03Z</time></trkpt><trkpt lat="45.60644613095278" lon="10.725246939188692"><ele>312.5</ele><time>2026-04-26T07:44:04Z</time></trkpt><trkpt lat="45.6064136792432" lon="10.725456782149706"><ele>313.75</ele><time>2026-04-26T07:44:05Z</time></trkpt><trkpt lat="45.60640425066555" lon="10.725649741171116"><ele>315.0</ele><time>2026-04-26T07:44:06Z</time></trkpt><trkpt lat="45.60641604128987" lon="10.725821911796803"><ele>315.0</ele><time>2026-04-26T07:44:07Z</time></trkpt><trkpt lat="45.60643924647261" lon="10.725980047527216"><ele>315.0</ele><time>2026-04-26T07:44:08Z</time></trkpt><trkpt lat="45.6064684580294" lon="10.726149191551144"><ele>315.0</ele><time>2026-04-26T07:44:09Z</time></trkpt><trkpt lat="45.606492238674846" lon="10.726289127344593"><ele>315.0</ele><time>2026-04-26T07:44:10Z</time></trkpt><trkpt lat="45.606508427884705" lon="10.726404803839156"><ele>315.0</ele><time>2026-04-26T07:44:11Z</time></trkpt><trkpt lat="45.60651795177687" lon="10.72651254695763"><ele>315.2</ele><time>2026-04-26T07:44:12Z</time></trkpt><trkpt lat="45.60654095333897" lon="10.726667100568676"><ele>315.4</ele><time>2026-04-26T07:44:14Z</time></trkpt><trkpt lat="45.60656522673046" lon="10.726751704295518"><ele>315.6</ele><time>2026-04-26T07:44:16Z</time></trkpt><trkpt lat="45.60652018264146" lon="10.726887383225847"><ele>315.8</ele><time>2026-04-26T07:44:19Z</time></trkpt><trkpt lat="45.60639852374454" lon="10.7269304521557"><ele>316.0</ele><time>2026-04-26T07:44:20Z</time></trkpt><trkpt lat="45.6063048946183" lon="10.727004976308912"><ele>316.0</ele><time>2026-04-26T07:44:21Z</time></trkpt><trkpt lat="45.606215803246954" lon="10.727079185362571"><ele>316.0</ele><time>2026-04-26T07:44:22Z</time></trkpt><trkpt lat="45.606130294259934" lon="10.727147047697395"><ele>316.0</ele><time>2026-04-26T07:44:23Z</time></trkpt><trkpt lat="45.60604746068579" lon="10.727207987623077"><ele>316.0</ele><time>2026-04-26T07:44:24Z</time></trkpt><trkpt lat="45.60594993783118" lon="10.72723319216657"><ele>316.0</ele><time>2026-04-26T07:44:25Z</time></trkpt><trkpt lat="45.60584987025209" lon="10.727265559635253"><ele>315.40000000000003</ele><time>2026-04-26T07:44:26Z</time></trkpt><trkpt lat="45.60574729886158" lon="10.727301379116682"><ele>314.8</ele><time>2026-04-26T07:44:27Z</time></trkpt><trkpt lat="45.60564582014289" lon="10.727310344750485"><ele>314.20000000000005</ele><time>2026-04-26T07:44:28Z</time></trkpt><trkpt lat="45.605554751686604" lon="10.727303226667242"><ele>313.6</ele><time>2026-04-26T07:44:29Z</time></trkpt><trkpt lat="45.6054616521993" lon="10.727291794621053"><ele>313.0</ele><time>2026-04-26T07:44:30Z</time></trkpt><trkpt lat="45.605362784198256" lon="10.727281477198945"><ele>313.2</ele><time>2026-04-26T07:44:31Z</time></trkpt><trkpt lat="45.60525215188474" lon="10.727268526582083"><ele>313.4</ele><time>2026-04-26T07:44:32Z</time></trkpt><trkpt lat="45.605141107555184" lon="10.727255378963129"><ele>313.59999999999997</ele><time>2026-04-26T07:44:33Z</time></trkpt><trkpt lat="45.6050467571013" lon="10.727243488646785"><ele>313.8</ele><time>2026-04-26T07:44:34Z</time></trkpt><trkpt lat="45.60495742676701" lon="10.727229281914456"><ele>314.0</ele><time>2026-04-26T07:44:35Z</time></trkpt><trkpt lat="45.604872892014924" lon="10.727217460735167"><ele>314.0</ele><time>2026-04-26T07:44:36Z</time></trkpt><trkpt lat="45.604779408226" lon="10.7272124901416"><ele>314.0</ele><time>2026-04-26T07:44:37Z</time></trkpt><trkpt lat="45.60469070025399" lon="10.727208506072673"><ele>314.0</ele><time>2026-04-26T07:44:38Z</time></trkpt><trkpt lat="45.60459228890739" lon="10.72720960688403"><ele>314.0</ele><time>2026-04-26T07:44:39Z</time></trkpt><trkpt lat="45.60449521116307" lon="10.727224097441841"><ele>314.0</ele><time>2026-04-26T07:44:40Z</time></trkpt><trkpt lat="45.60439557246536" lon="10.72725047730217"><ele>314.0</ele><time>2026-04-26T07:44:41Z</time></trkpt><trkpt lat="45.60428795565138" lon="10.72729052601245"><ele>314.0</ele><time>2026-04-26T07:44:42Z</time></trkpt><trkpt lat="45.60419052912164" lon="10.727329998290363"><ele>314.0</ele><time>2026-04-26T07:44:43Z</time></trkpt><trkpt lat="45.60409462368727" lon="10.727367219652848"><ele>314.0</ele><time>2026-04-26T07:44:44Z</time></trkpt><trkpt lat="45.6039999186045" lon="10.727400224089436"><ele>314.0</ele><time>2026-04-26T07:44:45Z</time></trkpt><trkpt lat="45.60391136367512" lon="10.727423214405485"><ele>314.0</ele><time>2026-04-26T07:44:46Z</time></trkpt><trkpt lat="45.603826907551166" lon="10.727447621592553"><ele>314.0</ele><time>2026-04-26T07:44:47Z</time></trkpt><trkpt lat="45.60374794431239" lon="10.727464323458207"><ele>314.0</ele><time>2026-04-26T07:44:48Z</time></trkpt><trkpt lat="45.60366271706832" lon="10.727482055657262"><ele>314.0</ele><time>2026-04-26T07:44:49Z</time></trkpt><trkpt lat="45.60358697846232" lon="10.727500921131417"><ele>314.0</ele><time>2026-04-26T07:44:50Z</time></trkpt><trkpt lat="45.60351885629464" lon="10.727521022048451"><ele>314.0</ele><time>2026-04-26T07:44:51Z</time></trkpt><trkpt lat="45.603454327349176" lon="10.727544338112185"><ele>314.1428571428571</ele><time>2026-04-26T07:44:52Z</time></trkpt><trkpt lat="45.603388734091794" lon="10.727572901601988"><ele>314.2857142857143</ele><time>2026-04-26T07:44:53Z</time></trkpt><trkpt lat="45.60332613010284" lon="10.72760316224371"><ele>314.42857142857144</ele><time>2026-04-26T07:44:54Z</time></trkpt><trkpt lat="45.603258343365574" lon="10.727640633332753"><ele>314.57142857142856</ele><time>2026-04-26T07:44:55Z</time></trkpt><trkpt lat="45.60319286057558" lon="10.727679265874823"><ele>314.7142857142857</ele><time>2026-04-26T07:44:56Z</time></trkpt><trkpt lat="45.60312576496872" lon="10.727717428223977"><ele>314.85714285714283</ele><time>2026-04-26T07:44:57Z</time></trkpt><trkpt lat="45.60306028580426" lon="10.727755028431156"><ele>315.0</ele><time>2026-04-26T07:44:58Z</time></trkpt><trkpt lat="45.603000886360505" lon="10.727787701501208"><ele>315.0</ele><time>2026-04-26T07:44:59Z</time></trkpt><trkpt lat="45.602870115305926" lon="10.727862577245137"><ele>315.0</ele><time>2026-04-26T07:45:01Z</time></trkpt><trkpt lat="45.60278105147948" lon="10.727916200561072"><ele>315.0</ele><time>2026-04-26T07:45:02Z</time></trkpt><trkpt lat="45.60268756895962" lon="10.727974450908992"><ele>315.0</ele><time>2026-04-26T07:45:03Z</time></trkpt><trkpt lat="45.60260527084455" lon="10.728024486963951"><ele>315.0</ele><time>2026-04-26T07:45:04Z</time></trkpt><trkpt lat="45.60252801475363" lon="10.728067221209002"><ele>314.1666666666667</ele><time>2026-04-26T07:45:05Z</time></trkpt><trkpt lat="45.602458769433" lon="10.728102945647935"><ele>313.3333333333333</ele><time>2026-04-26T07:45:06Z</time></trkpt><trkpt lat="45.60237559522184" lon="10.728146751507696"><ele>312.5</ele><time>2026-04-26T07:45:08Z</time></trkpt><trkpt lat="45.602313685275185" lon="10.728177183422554"><ele>311.66666666666663</ele><time>2026-04-26T07:45:11Z</time></trkpt><trkpt lat="45.602229651071625" lon="10.728207846217606"><ele>310.8333333333333</ele><time>2026-04-26T07:45:17Z</time></trkpt><trkpt lat="45.60210407021971" lon="10.728263718135755"><ele>310.0</ele><time>2026-04-26T07:45:19Z</time></trkpt><trkpt lat="45.60202802182791" lon="10.728312748530882"><ele>309.0</ele><time>2026-04-26T07:45:20Z</time></trkpt><trkpt lat="45.6019473938629" lon="10.728334975007574"><ele>308.0</ele><time>2026-04-26T07:45:21Z</time></trkpt><trkpt lat="45.60186761829255" lon="10.728356040036106"><ele>307.0</ele><time>2026-04-26T07:45:22Z</time></trkpt><trkpt lat="45.60178774052321" lon="10.72837760913336"><ele>306.0</ele><time>2026-04-26T07:45:23Z</time></trkpt><trkpt lat="45.601717628514" lon="10.728388017995199"><ele>305.0</ele><time>2026-04-26T07:45:24Z</time></trkpt><trkpt lat="45.60162077645754" lon="10.72838874687264"><ele>304.0</ele><time>2026-04-26T07:45:26Z</time></trkpt><trkpt lat="45.601708525509274" lon="10.72845977360143"><ele>304.0</ele><time>2026-04-26T07:45:31Z</time></trkpt><trkpt lat="45.6017711523399" lon="10.728425002737785"><ele>304.0</ele><time>2026-04-26T07:45:34Z</time></trkpt><trkpt lat="45.60184990622415" lon="10.728415906738933"><ele>304.0</ele><time>2026-04-26T07:45:38Z</time></trkpt><trkpt lat="45.60191597792924" lon="10.728392759417597"><ele>304.0</ele><time>2026-04-26T07:46:08Z</time></trkpt><trkpt lat="45.60202492400368" lon="10.728353619641808"><ele>304.0</ele><time>2026-04-26T07:46:10Z</time></trkpt><trkpt lat="45.6020935288535" lon="10.728322885075078"><ele>304.0</ele><time>2026-04-26T07:46:11Z</time></trkpt><trkpt lat="45.60216271510787" lon="10.728274900053094"><ele>306.0</ele><time>2026-04-26T07:46:13Z</time></trkpt><trkpt lat="45.602379562766906" lon="10.728212804524818"><ele>308.0</ele><time>2026-04-26T07:46:19Z</time></trkpt><trkpt lat="45.602272284946" lon="10.728418556727451"><ele>310.0</ele><time>2026-04-26T07:46:20Z</time></trkpt><trkpt lat="45.60222359534505" lon="10.728583929890569"><ele>310.66666666666663</ele><time>2026-04-26T07:46:21Z</time></trkpt><trkpt lat="45.60218919149426" lon="10.728720335798277"><ele>311.3333333333333</ele><time>2026-04-26T07:46:22Z</time></trkpt><trkpt lat="45.60216940355633" lon="10.728835682685267"><ele>312.0</ele><time>2026-04-26T07:46:23Z</time></trkpt><trkpt lat="45.60215795849446" lon="10.72893260719183"><ele>312.6666666666667</ele><time>2026-04-26T07:46:24Z</time></trkpt><trkpt lat="45.602151528242565" lon="10.72908329977549"><ele>313.33333333333337</ele><time>2026-04-26T07:46:26Z</time></trkpt><trkpt lat="45.60214759846473" lon="10.729175362534559"><ele>314.0</ele><time>2026-04-26T07:46:27Z</time></trkpt><trkpt lat="45.60215433523522" lon="10.729271020965905"><ele>313.4</ele><time>2026-04-26T07:46:28Z</time></trkpt><trkpt lat="45.6021707957092" lon="10.729414932708647"><ele>312.79999999999995</ele><time>2026-04-26T07:46:30Z</time></trkpt><trkpt lat="45.602189534642186" lon="10.729559966019336"><ele>312.20000000000005</ele><time>2026-04-26T07:46:32Z</time></trkpt><trkpt lat="45.602201579560706" lon="10.729713912643021"><ele>311.6</ele><time>2026-04-26T07:46:34Z</time></trkpt><trkpt lat="45.602195052614505" lon="10.729858673587378"><ele>311.0</ele><time>2026-04-26T07:46:36Z</time></trkpt><trkpt lat="45.60218587090304" lon="10.730013968395232"><ele>311.0</ele><time>2026-04-26T07:46:38Z</time></trkpt><trkpt lat="45.602125215616326" lon="10.730170562364949"><ele>311.0</ele><time>2026-04-26T07:46:40Z</time></trkpt><trkpt lat="45.60202234381888" lon="10.73024281020042"><ele>311.0</ele><time>2026-04-26T07:46:42Z</time></trkpt><trkpt lat="45.60195326153412" lon="10.730286695833419"><ele>311.0</ele><time>2026-04-26T07:46:43Z</time></trkpt><trkpt lat="45.60187613568603" lon="10.730346492797382"><ele>311.0</ele><time>2026-04-26T07:46:44Z</time></trkpt><trkpt lat="45.60179667771576" lon="10.73041035113865"><ele>311.0</ele><time>2026-04-26T07:46:45Z</time></trkpt><trkpt lat="45.60171800398247" lon="10.73047549519575"><ele>311.0</ele><time>2026-04-26T07:46:46Z</time></trkpt><trkpt lat="45.601646684721345" lon="10.730535707322929"><ele>311.0</ele><time>2026-04-26T07:46:47Z</time></trkpt><trkpt lat="45.60157897484418" lon="10.73058092849061"><ele>311.0</ele><time>2026-04-26T07:46:48Z</time></trkpt><trkpt lat="45.601513574822725" lon="10.730627274850649"><ele>311.0</ele><time>2026-04-26T07:46:49Z</time></trkpt><trkpt lat="45.60144702615135" lon="10.73067781378603"><ele>311.0</ele><time>2026-04-26T07:46:50Z</time></trkpt><trkpt lat="45.601379347545496" lon="10.730731658236385"><ele>311.0</ele><time>2026-04-26T07:46:51Z</time></trkpt><trkpt lat="45.60131379191477" lon="10.73079696682041"><ele>311.0</ele><time>2026-04-26T07:46:52Z</time></trkpt><trkpt lat="45.60125212228509" lon="10.730871853045734"><ele>311.0</ele><time>2026-04-26T07:46:53Z</time></trkpt><trkpt lat="45.60120178671432" lon="10.73093673275741"><ele>311.0</ele><time>2026-04-26T07:46:54Z</time></trkpt><trkpt lat="45.601108423470116" lon="10.731040321210985"><ele>311.0</ele><time>2026-04-26T07:46:56Z</time></trkpt><trkpt lat="45.60100138416827" lon="10.731112101668971"><ele>310.0</ele><time>2026-04-26T07:46:58Z</time></trkpt><trkpt lat="45.600877409567495" lon="10.731175501291991"><ele>309.0</ele><time>2026-04-26T07:47:00Z</time></trkpt><trkpt lat="45.600818243114965" lon="10.73120777472558"><ele>308.0</ele><time>2026-04-26T07:47:01Z</time></trkpt><trkpt lat="45.6007106554695" lon="10.731266299066675"><ele>307.0</ele><time>2026-04-26T07:47:03Z</time></trkpt><trkpt lat="45.600618384317826" lon="10.731325020879435"><ele>306.0</ele><time>2026-04-26T07:47:05Z</time></trkpt><trkpt lat="45.60051647455805" lon="10.73137559818274"><ele>306.0</ele><time>2026-04-26T07:47:07Z</time></trkpt><trkpt lat="45.600449320000656" lon="10.73141196156768"><ele>306.0</ele><time>2026-04-26T07:47:08Z</time></trkpt><trkpt lat="45.60038099327309" lon="10.731438590394204"><ele>306.0</ele><time>2026-04-26T07:47:09Z</time></trkpt><trkpt lat="45.600318976030884" lon="10.73147777504767"><ele>306.0</ele><time>2026-04-26T07:47:10Z</time></trkpt><trkpt lat="45.60024580827329" lon="10.731515498534883"><ele>306.0</ele><time>2026-04-26T07:47:11Z</time></trkpt><trkpt lat="45.60017121212362" lon="10.73155526053894"><ele>306.0</ele><time>2026-04-26T07:47:12Z</time></trkpt><trkpt lat="45.60009508124404" lon="10.731592164432618"><ele>306.0</ele><time>2026-04-26T07:47:13Z</time></trkpt><trkpt lat="45.600026960466174" lon="10.731630692776648"><ele>306.0</ele><time>2026-04-26T07:47:14Z</time></trkpt><trkpt lat="45.599954898064304" lon="10.731667820019325"><ele>306.0</ele><time>2026-04-26T07:47:15Z</time></trkpt><trkpt lat="45.59984198730767" lon="10.731732611523853"><ele>306.0</ele><time>2026-04-26T07:47:17Z</time></trkpt><trkpt lat="45.599765870038944" lon="10.731787537148808"><ele>306.0</ele><time>2026-04-26T07:47:18Z</time></trkpt><trkpt lat="45.59969425955263" lon="10.731825820287765"><ele>306.0</ele><time>2026-04-26T07:47:19Z</time></trkpt><trkpt lat="45.59962081965318" lon="10.731887692782887"><ele>306.0</ele><time>2026-04-26T07:47:20Z</time></trkpt><trkpt lat="45.59953894476989" lon="10.731941184894612"><ele>305.3333333333333</ele><time>2026-04-26T07:47:21Z</time></trkpt><trkpt lat="45.59946009268135" lon="10.731998922783056"><ele>304.6666666666667</ele><time>2026-04-26T07:47:22Z</time></trkpt><trkpt lat="45.599382663638785" lon="10.732064141559343"><ele>304.0</ele><time>2026-04-26T07:47:23Z</time></trkpt><trkpt lat="45.59930666526825" lon="10.732135156553777"><ele>303.33333333333337</ele><time>2026-04-26T07:47:24Z</time></trkpt><trkpt lat="45.599231350840945" lon="10.732203070533425"><ele>302.6666666666667</ele><time>2026-04-26T07:47:25Z</time></trkpt><trkpt lat="45.599161070319404" lon="10.732260587175526"><ele>302.0</ele><time>2026-04-26T07:47:26Z</time></trkpt><trkpt lat="45.599089094382684" lon="10.732319157367641"><ele>302.0</ele><time>2026-04-26T07:47:27Z</time></trkpt><trkpt lat="45.59903164322311" lon="10.732383933841819"><ele>302.0</ele><time>2026-04-26T07:47:28Z</time></trkpt><trkpt lat="45.59898218969164" lon="10.7324491458854"><ele>302.0</ele><time>2026-04-26T07:47:29Z</time></trkpt><trkpt lat="45.59893596476961" lon="10.732517826878023"><ele>302.0</ele><time>2026-04-26T07:47:30Z</time></trkpt><trkpt lat="45.598848638485116" lon="10.73262392863005"><ele>302.0</ele><time>2026-04-26T07:47:32Z</time></trkpt><trkpt lat="45.59879051068788" lon="10.732700537918939"><ele>302.0</ele><time>2026-04-26T07:47:33Z</time></trkpt><trkpt lat="45.59872712656247" lon="10.732751598596472"><ele>301.33333333333337</ele><time>2026-04-26T07:47:34Z</time></trkpt><trkpt lat="45.598655946956164" lon="10.732792492185158"><ele>300.6666666666667</ele><time>2026-04-26T07:47:35Z</time></trkpt><trkpt lat="45.59859104497885" lon="10.732837561098345"><ele>300.0</ele><time>2026-04-26T07:47:36Z</time></trkpt><trkpt lat="45.59853216686222" lon="10.732881158092832"><ele>299.3333333333333</ele><time>2026-04-26T07:47:37Z</time></trkpt><trkpt lat="45.59843668498065" lon="10.732986045109252"><ele>298.66666666666663</ele><time>2026-04-26T07:47:39Z</time></trkpt><trkpt lat="45.59838237571523" lon="10.733042790171542"><ele>298.0</ele><time>2026-04-26T07:47:40Z</time></trkpt><trkpt lat="45.598310630741956" lon="10.733125885048755"><ele>298.0</ele><time>2026-04-26T07:47:41Z</time></trkpt><trkpt lat="45.59822327355122" lon="10.733204174824568"><ele>298.0</ele><time>2026-04-26T07:47:42Z</time></trkpt><trkpt lat="45.5981587809571" lon="10.733262336020827"><ele>298.0</ele><time>2026-04-26T07:47:43Z</time></trkpt><trkpt lat="45.59807368970086" lon="10.733325013524144"><ele>298.0</ele><time>2026-04-26T07:47:44Z</time></trkpt><trkpt lat="45.59797702605076" lon="10.733385876391848"><ele>298.0</ele><time>2026-04-26T07:47:45Z</time></trkpt><trkpt lat="45.597838383136526" lon="10.733424308727257"><ele>297.0</ele><time>2026-04-26T07:47:46Z</time></trkpt><trkpt lat="45.59769418634596" lon="10.733447814031761"><ele>296.0</ele><time>2026-04-26T07:47:47Z</time></trkpt><trkpt lat="45.59753489804426" lon="10.733469628799392"><ele>295.0</ele><time>2026-04-26T07:47:48Z</time></trkpt><trkpt lat="45.59724164783431" lon="10.733544271879996"><ele>292.2</ele><time>2026-04-26T07:47:50Z</time></trkpt><trkpt lat="45.59712625476482" lon="10.733587044628502"><ele>289.4</ele><time>2026-04-26T07:47:51Z</time></trkpt><trkpt lat="45.59702917898807" lon="10.733631062797757"><ele>286.6</ele><time>2026-04-26T07:47:52Z</time></trkpt><trkpt lat="45.59695568813753" lon="10.733692693294683"><ele>283.8</ele><time>2026-04-26T07:47:53Z</time></trkpt><trkpt lat="45.596892100255836" lon="10.733764954807697"><ele>281.0</ele><time>2026-04-26T07:47:54Z</time></trkpt><trkpt lat="45.59683075794371" lon="10.733826880912316"><ele>280.25</ele><time>2026-04-26T07:47:55Z</time></trkpt><trkpt lat="45.59676669109571" lon="10.733861946718118"><ele>279.5</ele><time>2026-04-26T07:47:56Z</time></trkpt><trkpt lat="45.59671378897455" lon="10.733682746874102"><ele>278.75</ele><time>2026-04-26T07:47:59Z</time></trkpt><trkpt lat="45.59673751751153" lon="10.733465802141998"><ele>278.0</ele><time>2026-04-26T07:48:01Z</time></trkpt><trkpt lat="45.5967655729551" lon="10.733306098510575"><ele>278.0</ele><time>2026-04-26T07:48:02Z</time></trkpt><trkpt lat="45.59681322363686" lon="10.733157836728292"><ele>278.0</ele><time>2026-04-26T07:48:03Z</time></trkpt><trkpt lat="45.596875499628005" lon="10.73301365261169"><ele>278.0</ele><time>2026-04-26T07:48:04Z</time></trkpt><trkpt lat="45.596937511828834" lon="10.73289191413251"><ele>278.0</ele><time>2026-04-26T07:48:05Z</time></trkpt><trkpt lat="45.59699465951354" lon="10.732798679976137"><ele>278.0</ele><time>2026-04-26T07:48:06Z</time></trkpt><trkpt lat="45.59705118631318" lon="10.732720011616406"><ele>280.6666666666667</ele><time>2026-04-26T07:48:07Z</time></trkpt><trkpt lat="45.597113471097195" lon="10.732639050240223"><ele>283.33333333333337</ele><time>2026-04-26T07:48:08Z</time></trkpt><trkpt lat="45.597179912944235" lon="10.732552759576643"><ele>286.0</ele><time>2026-04-26T07:48:09Z</time></trkpt><trkpt lat="45.597238125001645" lon="10.73245011957084"><ele>288.6666666666667</ele><time>2026-04-26T07:48:10Z</time></trkpt><trkpt lat="45.59726935550173" lon="10.732346401058209"><ele>291.3333333333333</ele><time>2026-04-26T07:48:11Z</time></trkpt><trkpt lat="45.59727802020065" lon="10.732238338277355"><ele>294.0</ele><time>2026-04-26T07:48:12Z</time></trkpt><trkpt lat="45.59728643180223" lon="10.732129262884806"><ele>294.0</ele><time>2026-04-26T07:48:13Z</time></trkpt><trkpt lat="45.59729805174049" lon="10.732021360941015"><ele>294.0</ele><time>2026-04-26T07:48:14Z</time></trkpt><trkpt lat="45.59731195877261" lon="10.73191534280681"><ele>294.0</ele><time>2026-04-26T07:48:15Z</time></trkpt><trkpt lat="45.5973238997237" lon="10.731816524358177"><ele>294.0</ele><time>2026-04-26T07:48:16Z</time></trkpt><trkpt lat="45.59732074581468" lon="10.731681964697591"><ele>294.0</ele><time>2026-04-26T07:48:18Z</time></trkpt><trkpt lat="45.5972569197361" lon="10.731616428127936"><ele>294.0</ele><time>2026-04-26T07:48:21Z</time></trkpt><trkpt lat="45.597128246029804" lon="10.731729934896897"><ele>291.0</ele><time>2026-04-26T07:48:23Z</time></trkpt><trkpt lat="45.59705364696301" lon="10.731837523538996"><ele>288.0</ele><time>2026-04-26T07:48:24Z</time></trkpt><trkpt lat="45.59697475102967" lon="10.73195376620182"><ele>285.0</ele><time>2026-04-26T07:48:25Z</time></trkpt><trkpt lat="45.59688565133005" lon="10.732080229146092"><ele>282.0</ele><time>2026-04-26T07:48:26Z</time></trkpt><trkpt lat="45.596801255335166" lon="10.732211580021866"><ele>279.5</ele><time>2026-04-26T07:48:27Z</time></trkpt><trkpt lat="45.596724559617385" lon="10.732336671215451"><ele>277.0</ele><time>2026-04-26T07:48:28Z</time></trkpt><trkpt lat="45.59665447863643" lon="10.73245966694374"><ele>274.5</ele><time>2026-04-26T07:48:29Z</time></trkpt><trkpt lat="45.596583795779445" lon="10.732590270904186"><ele>272.0</ele><time>2026-04-26T07:48:30Z</time></trkpt><trkpt lat="45.596505430510106" lon="10.732707008524663"><ele>273.2</ele><time>2026-04-26T07:48:31Z</time></trkpt><trkpt lat="45.5964195581836" lon="10.732814939885737"><ele>274.4</ele><time>2026-04-26T07:48:32Z</time></trkpt><trkpt lat="45.596332582885935" lon="10.73289589822891"><ele>275.6</ele><time>2026-04-26T07:48:33Z</time></trkpt><trkpt lat="45.596238337651535" lon="10.732919864416967"><ele>276.8</ele><time>2026-04-26T07:48:34Z</time></trkpt><trkpt lat="45.59615903261358" lon="10.732914689218948"><ele>278.0</ele><time>2026-04-26T07:48:35Z</time></trkpt><trkpt lat="45.596095196187605" lon="10.73290091202243"><ele>274.2</ele><time>2026-04-26T07:48:36Z</time></trkpt><trkpt lat="45.596012187825785" lon="10.732907616130305"><ele>270.4</ele><time>2026-04-26T07:48:38Z</time></trkpt><trkpt lat="45.59600172883665" lon="10.733095336650402"><ele>266.59999999999997</ele><time>2026-04-26T07:48:39Z</time></trkpt><trkpt lat="45.5960041307365" lon="10.733196639744008"><ele>262.8</ele><time>2026-04-26T07:48:40Z</time></trkpt><trkpt lat="45.59598589648562" lon="10.733340741211489"><ele>259.0</ele><time>2026-04-26T07:48:42Z</time></trkpt><trkpt lat="45.59597481825895" lon="10.733488591068859"><ele>259.4</ele><time>2026-04-26T07:48:44Z</time></trkpt><trkpt lat="45.59598646193982" lon="10.733658001206274"><ele>259.79999999999995</ele><time>2026-04-26T07:48:46Z</time></trkpt><trkpt lat="45.59596104311244" lon="10.733821440200389"><ele>260.20000000000005</ele><time>2026-04-26T07:48:48Z</time></trkpt><trkpt lat="45.59593686125869" lon="10.733960239726208"><ele>260.6</ele><time>2026-04-26T07:48:50Z</time></trkpt><trkpt lat="45.59591168873259" lon="10.734082868165011"><ele>261.0</ele><time>2026-04-26T07:48:52Z</time></trkpt><trkpt lat="45.59588786624998" lon="10.73421769057006"><ele>261.0</ele><time>2026-04-26T07:48:54Z</time></trkpt><trkpt lat="45.595857488277304" lon="10.734359851817896"><ele>261.0</ele><time>2026-04-26T07:48:56Z</time></trkpt><trkpt lat="45.59583259903514" lon="10.734500250312378"><ele>261.0</ele><time>2026-04-26T07:48:58Z</time></trkpt><trkpt lat="45.59581026888287" lon="10.734627779123587"><ele>261.0</ele><time>2026-04-26T07:49:00Z</time></trkpt><trkpt lat="45.595769898079666" lon="10.734755094257507"><ele>261.0</ele><time>2026-04-26T07:49:02Z</time></trkpt><trkpt lat="45.59575463240547" lon="10.734890834312283"><ele>260.40000000000003</ele><time>2026-04-26T07:49:04Z</time></trkpt><trkpt lat="45.59571365184939" lon="10.735032360952147"><ele>259.8</ele><time>2026-04-26T07:49:06Z</time></trkpt><trkpt lat="45.595658023933844" lon="10.735154923080628"><ele>259.20000000000005</ele><time>2026-04-26T07:49:08Z</time></trkpt><trkpt lat="45.5955937816825" lon="10.735248478980017"><ele>258.6</ele><time>2026-04-26T07:49:10Z</time></trkpt><trkpt lat="45.59555978714915" lon="10.735331520777226"><ele>258.0</ele><time>2026-04-26T07:49:12Z</time></trkpt><trkpt lat="45.59555304793515" lon="10.735460152359007"><ele>256.1666666666667</ele><time>2026-04-26T07:49:14Z</time></trkpt><trkpt lat="45.595604795451855" lon="10.735588866754393"><ele>254.33333333333331</ele><time>2026-04-26T07:49:16Z</time></trkpt><trkpt lat="45.59569292496612" lon="10.735660475432196"><ele>252.5</ele><time>2026-04-26T07:49:18Z</time></trkpt><trkpt lat="45.59576366186295" lon="10.735705335067042"><ele>250.66666666666666</ele><time>2026-04-26T07:49:20Z</time></trkpt><trkpt lat="45.59583594650321" lon="10.735753756244808"><ele>248.83333333333331</ele><time>2026-04-26T07:49:22Z</time></trkpt><trkpt lat="45.5958943655294" lon="10.735837328948284"><ele>247.0</ele><time>2026-04-26T07:49:25Z</time></trkpt><trkpt lat="45.59583189234405" lon="10.735937203940942"><ele>247.0</ele><time>2026-04-26T07:49:27Z</time></trkpt><trkpt lat="45.59572767015074" lon="10.735949204994212"><ele>247.0</ele><time>2026-04-26T07:49:29Z</time></trkpt><trkpt lat="45.595612959845724" lon="10.735850607920646"><ele>247.0</ele><time>2026-04-26T07:49:31Z</time></trkpt><trkpt lat="45.59554839959264" lon="10.73580751725632"><ele>247.0</ele><time>2026-04-26T07:49:32Z</time></trkpt><trkpt lat="45.59548743355177" lon="10.735765016357668"><ele>247.0</ele><time>2026-04-26T07:49:33Z</time></trkpt><trkpt lat="45.595393128149055" lon="10.735698901738811"><ele>246.99999999999997</ele><time>2026-04-26T07:49:35Z</time></trkpt><trkpt lat="45.595324142067454" lon="10.735683314115752"><ele>247.0</ele><time>2026-04-26T07:49:37Z</time></trkpt><trkpt lat="45.59525212187383" lon="10.735621217569193"><ele>247.0</ele><time>2026-04-26T07:49:40Z</time></trkpt><trkpt lat="45.595185380693735" lon="10.735604732388728"><ele>247.0</ele><time>2026-04-26T07:49:44Z</time></trkpt><trkpt lat="45.595211636811776" lon="10.735741918463791"><ele>246.99999999999997</ele><time>2026-04-26T07:49:48Z</time></trkpt><trkpt lat="45.595275808523134" lon="10.735829703287518"><ele>247.0</ele><time>2026-04-26T07:49:50Z</time></trkpt><trkpt lat="45.59534085586703" lon="10.73590437006946"><ele>247.0</ele><time>2026-04-26T07:49:52Z</time></trkpt><trkpt lat="45.59536328502758" lon="10.736012603861942"><ele>247.0</ele><time>2026-04-26T07:49:54Z</time></trkpt><trkpt lat="45.595393967611756" lon="10.736136361732507"><ele>247.0</ele><time>2026-04-26T07:49:56Z</time></trkpt><trkpt lat="45.59541469372834" lon="10.736245442830798"><ele>247.0</ele><time>2026-04-26T07:49:58Z</time></trkpt><trkpt lat="45.59539465835721" lon="10.73635919325427"><ele>247.0</ele><time>2026-04-26T07:50:00Z</time></trkpt><trkpt lat="45.59532007626823" lon="10.736498470693475"><ele>245.66666666666666</ele><time>2026-04-26T07:50:02Z</time></trkpt><trkpt lat="45.595265604796225" lon="10.736581461455264"><ele>244.33333333333331</ele><time>2026-04-26T07:50:03Z</time></trkpt><trkpt lat="45.59521442149688" lon="10.736702476055964"><ele>243.0</ele><time>2026-04-26T07:50:05Z</time></trkpt><trkpt lat="45.59512497090456" lon="10.73672945108281"><ele>241.66666666666669</ele><time>2026-04-26T07:50:07Z</time></trkpt><trkpt lat="45.59506026346677" lon="10.736698459801984"><ele>240.33333333333334</ele><time>2026-04-26T07:50:08Z</time></trkpt><trkpt lat="45.59496598908075" lon="10.736652392974642"><ele>239.0</ele><time>2026-04-26T07:50:09Z</time></trkpt><trkpt lat="45.59487264475116" lon="10.736567683509502"><ele>239.0</ele><time>2026-04-26T07:50:10Z</time></trkpt><trkpt lat="45.59477945281622" lon="10.736517012490102"><ele>238.99999999999997</ele><time>2026-04-26T07:50:11Z</time></trkpt><trkpt lat="45.59468961024205" lon="10.736441852773421"><ele>238.99999999999997</ele><time>2026-04-26T07:50:12Z</time></trkpt><trkpt lat="45.594598756550454" lon="10.736372282060099"><ele>239.0</ele><time>2026-04-26T07:50:13Z</time></trkpt><trkpt lat="45.59452999011681" lon="10.736324327102386"><ele>239.0</ele><time>2026-04-26T07:50:14Z</time></trkpt><trkpt lat="45.594415369231996" lon="10.73626611526662"><ele>239.83333333333334</ele><time>2026-04-26T07:50:16Z</time></trkpt><trkpt lat="45.59429980222009" lon="10.73622939237412"><ele>240.66666666666669</ele><time>2026-04-26T07:50:18Z</time></trkpt><trkpt lat="45.59420434310933" lon="10.736210280838126"><ele>241.5</ele><time>2026-04-26T07:50:20Z</time></trkpt><trkpt lat="45.59413573901138" lon="10.73617048767806"><ele>242.33333333333331</ele><time>2026-04-26T07:50:22Z</time></trkpt><trkpt lat="45.59409056869896" lon="10.73609158236835"><ele>243.16666666666666</ele><time>2026-04-26T07:50:24Z</time></trkpt><trkpt lat="45.59401801454263" lon="10.736067094850045"><ele>244.0</ele><time>2026-04-26T07:50:27Z</time></trkpt><trkpt lat="45.594112969800825" lon="10.736274785000248"><ele>243.99999999999997</ele><time>2026-04-26T07:50:30Z</time></trkpt><trkpt lat="45.59417549468595" lon="10.736359793467868"><ele>244.0</ele><time>2026-04-26T07:50:31Z</time></trkpt><trkpt lat="45.59423598838545" lon="10.736439728357235"><ele>244.0</ele><time>2026-04-26T07:50:32Z</time></trkpt><trkpt lat="45.59431027231299" lon="10.736515201672528"><ele>244.0</ele><time>2026-04-26T07:50:33Z</time></trkpt><trkpt lat="45.59437674340079" lon="10.736621253833606"><ele>243.99999999999997</ele><time>2026-04-26T07:50:34Z</time></trkpt><trkpt lat="45.59443170579497" lon="10.736717111982394"><ele>244.0</ele><time>2026-04-26T07:50:35Z</time></trkpt><trkpt lat="45.59448470895929" lon="10.73678782183487"><ele>244.39999999999998</ele><time>2026-04-26T07:50:36Z</time></trkpt><trkpt lat="45.59454693569135" lon="10.736864969715457"><ele>244.79999999999998</ele><time>2026-04-26T07:50:37Z</time></trkpt><trkpt lat="45.59461156494731" lon="10.73694784740901"><ele>245.20000000000002</ele><time>2026-04-26T07:50:38Z</time></trkpt><trkpt lat="45.59468088118386" lon="10.737037325561879"><ele>245.60000000000002</ele><time>2026-04-26T07:50:39Z</time></trkpt><trkpt lat="45.59476014227149" lon="10.737138584825635"><ele>246.0</ele><time>2026-04-26T07:50:40Z</time></trkpt><trkpt lat="45.59485492761683" lon="10.737253279781031"><ele>246.0</ele><time>2026-04-26T07:50:41Z</time></trkpt><trkpt lat="45.59495343567414" lon="10.737373370828204"><ele>246.00000000000003</ele><time>2026-04-26T07:50:42Z</time></trkpt><trkpt lat="45.59500357514082" lon="10.737447034028447"><ele>246.00000000000003</ele><time>2026-04-26T07:50:43Z</time></trkpt><trkpt lat="45.595073004465455" lon="10.737573890378364"><ele>246.0</ele><time>2026-04-26T07:50:44Z</time></trkpt><trkpt lat="45.59512512009019" lon="10.737692932033696"><ele>246.0</ele><time>2026-04-26T07:50:45Z</time></trkpt><trkpt lat="45.59516630726038" lon="10.737803928241629"><ele>245.83333333333334</ele><time>2026-04-26T07:50:46Z</time></trkpt><trkpt lat="45.59520074927768" lon="10.737905661096892"><ele>245.66666666666669</ele><time>2026-04-26T07:50:47Z</time></trkpt><trkpt lat="45.595235837062155" lon="10.738002866020762"><ele>245.5</ele><time>2026-04-26T07:50:48Z</time></trkpt><trkpt lat="45.59526135922006" lon="10.738087914507508"><ele>245.33333333333334</ele><time>2026-04-26T07:50:49Z</time></trkpt><trkpt lat="45.595310203878405" lon="10.738243567530485"><ele>245.16666666666669</ele><time>2026-04-26T07:50:51Z</time></trkpt><trkpt lat="45.59533657989737" lon="10.738328419496815"><ele>245.0</ele><time>2026-04-26T07:50:52Z</time></trkpt><trkpt lat="45.59536573778106" lon="10.73843215572426"><ele>245.16666666666669</ele><time>2026-04-26T07:50:53Z</time></trkpt><trkpt lat="45.59539455157907" lon="10.738525114728825"><ele>245.33333333333334</ele><time>2026-04-26T07:50:54Z</time></trkpt><trkpt lat="45.595433454381954" lon="10.738639172850872"><ele>245.5</ele><time>2026-04-26T07:50:56Z</time></trkpt><trkpt lat="45.59545821043801" lon="10.738728910618223"><ele>245.66666666666669</ele><time>2026-04-26T07:51:16Z</time></trkpt><trkpt lat="45.595484871332175" lon="10.738822729738226"><ele>245.83333333333334</ele><time>2026-04-26T07:51:20Z</time></trkpt><trkpt lat="45.5955160713171" lon="10.738917681298584"><ele>246.0</ele><time>2026-04-26T07:51:21Z</time></trkpt><trkpt lat="45.59555282936813" lon="10.73901659012981"><ele>246.0</ele><time>2026-04-26T07:51:22Z</time></trkpt><trkpt lat="45.59558458892373" lon="10.739113462552487"><ele>246.0</ele><time>2026-04-26T07:51:23Z</time></trkpt><trkpt lat="45.59561719356349" lon="10.739214350144424"><ele>246.0</ele><time>2026-04-26T07:51:24Z</time></trkpt><trkpt lat="45.595657057610836" lon="10.739329840644073"><ele>246.0</ele><time>2026-04-26T07:51:25Z</time></trkpt><trkpt lat="45.59570813021847" lon="10.739444642993245"><ele>246.0</ele><time>2026-04-26T07:51:26Z</time></trkpt><trkpt lat="45.59574253127965" lon="10.739559287712837"><ele>246.0</ele><time>2026-04-26T07:51:27Z</time></trkpt><trkpt lat="45.59577322784757" lon="10.739682853635545"><ele>245.60000000000002</ele><time>2026-04-26T07:51:28Z</time></trkpt><trkpt lat="45.59582725847271" lon="10.739783941545133"><ele>245.20000000000002</ele><time>2026-04-26T07:51:29Z</time></trkpt><trkpt lat="45.59586437560235" lon="10.739897496431592"><ele>244.79999999999998</ele><time>2026-04-26T07:51:30Z</time></trkpt><trkpt lat="45.59590713391216" lon="10.74002157871256"><ele>244.39999999999998</ele><time>2026-04-26T07:51:31Z</time></trkpt><trkpt lat="45.595960439053314" lon="10.740172339783715"><ele>244.0</ele><time>2026-04-26T07:51:32Z</time></trkpt><trkpt lat="45.59601267013604" lon="10.74030944842446"><ele>243.79999999999998</ele><time>2026-04-26T07:51:33Z</time></trkpt><trkpt lat="45.59606122815886" lon="10.740440397712778"><ele>243.59999999999997</ele><time>2026-04-26T07:51:34Z</time></trkpt><trkpt lat="45.5960952624386" lon="10.740565176400406"><ele>243.4</ele><time>2026-04-26T07:51:35Z</time></trkpt><trkpt lat="45.59613717019661" lon="10.740674800045191"><ele>243.2</ele><time>2026-04-26T07:51:36Z</time></trkpt><trkpt lat="45.596183960482854" lon="10.74077648954535"><ele>243.0</ele><time>2026-04-26T07:51:37Z</time></trkpt><trkpt lat="45.596224273800836" lon="10.740875248074026"><ele>243.42857142857142</ele><time>2026-04-26T07:51:38Z</time></trkpt><trkpt lat="45.59626369992428" lon="10.740972839795175"><ele>243.8571428571429</ele><time>2026-04-26T07:51:39Z</time></trkpt><trkpt lat="45.596302440103834" lon="10.741069065675344"><ele>244.2857142857143</ele><time>2026-04-26T07:51:40Z</time></trkpt><trkpt lat="45.596337100990056" lon="10.741160008143398"><ele>244.71428571428572</ele><time>2026-04-26T07:51:41Z</time></trkpt><trkpt lat="45.59636845511937" lon="10.741257527781325"><ele>245.14285714285717</ele><time>2026-04-26T07:51:42Z</time></trkpt><trkpt lat="45.59640128860922" lon="10.741351476335428"><ele>245.5714285714286</ele><time>2026-04-26T07:51:43Z</time></trkpt><trkpt lat="45.59643238535723" lon="10.74144110765148"><ele>246.00000000000003</ele><time>2026-04-26T07:51:44Z</time></trkpt><trkpt lat="45.59646147256399" lon="10.741529371826896"><ele>246.0</ele><time>2026-04-26T07:51:45Z</time></trkpt><trkpt lat="45.59649480162866" lon="10.741607681177992"><ele>246.00000000000003</ele><time>2026-04-26T07:51:46Z</time></trkpt><trkpt lat="45.59660049775099" lon="10.741657956441124"><ele>246.00000000000003</ele><time>2026-04-26T07:51:48Z</time></trkpt><trkpt lat="45.59670932792753" lon="10.741638159144468"><ele>246.0</ele><time>2026-04-26T07:51:50Z</time></trkpt><trkpt lat="45.596771333277" lon="10.741772751306307"><ele>246.0</ele><time>2026-04-26T07:51:52Z</time></trkpt><trkpt lat="45.59679879980584" lon="10.74188305961484"><ele>246.0</ele><time>2026-04-26T07:51:54Z</time></trkpt><trkpt lat="45.59683352329244" lon="10.741971435949216"><ele>246.0</ele><time>2026-04-26T07:51:55Z</time></trkpt><trkpt lat="45.59685869673339" lon="10.742068940097402"><ele>246.0</ele><time>2026-04-26T07:51:56Z</time></trkpt><trkpt lat="45.59689681212722" lon="10.742185224643661"><ele>246.0</ele><time>2026-04-26T07:51:57Z</time></trkpt><trkpt lat="45.59694875400853" lon="10.742289003689962"><ele>246.0</ele><time>2026-04-26T07:51:58Z</time></trkpt><trkpt lat="45.597007524206994" lon="10.742388686260908"><ele>246.0</ele><time>2026-04-26T07:51:59Z</time></trkpt><trkpt lat="45.59707831100222" lon="10.742497277006473"><ele>247.0</ele><time>2026-04-26T07:52:00Z</time></trkpt><trkpt lat="45.59716443919489" lon="10.742614475104293"><ele>248.00000000000003</ele><time>2026-04-26T07:52:01Z</time></trkpt><trkpt lat="45.59725307967902" lon="10.742721548306163"><ele>249.00000000000003</ele><time>2026-04-26T07:52:02Z</time></trkpt><trkpt lat="45.59732538066428" lon="10.74282028606794"><ele>250.0</ele><time>2026-04-26T07:52:03Z</time></trkpt><trkpt lat="45.59738785649709" lon="10.742893836998816"><ele>251.0</ele><time>2026-04-26T07:52:04Z</time></trkpt><trkpt lat="45.59743721647813" lon="10.742965094361521"><ele>251.20000000000002</ele><time>2026-04-26T07:52:05Z</time></trkpt><trkpt lat="45.597525509978375" lon="10.743083257680736"><ele>251.40000000000003</ele><time>2026-04-26T07:52:07Z</time></trkpt><trkpt lat="45.5975895388267" lon="10.743132264318813"><ele>251.6</ele><time>2026-04-26T07:52:08Z</time></trkpt><trkpt lat="45.5976676433454" lon="10.743167352190358"><ele>251.8</ele><time>2026-04-26T07:52:09Z</time></trkpt><trkpt lat="45.597733636588494" lon="10.743212112268974"><ele>252.0</ele><time>2026-04-26T07:52:10Z</time></trkpt><trkpt lat="45.59783780525812" lon="10.743269310603916"><ele>254.0</ele><time>2026-04-26T07:52:12Z</time></trkpt><trkpt lat="45.597886148734325" lon="10.743354882154431"><ele>256.0</ele><time>2026-04-26T07:52:14Z</time></trkpt><trkpt lat="45.59788197343544" lon="10.743471489071615"><ele>258.0</ele><time>2026-04-26T07:52:16Z</time></trkpt><trkpt lat="45.59786585710457" lon="10.743648905969264"><ele>260.0</ele><time>2026-04-26T07:52:18Z</time></trkpt><trkpt lat="45.59788026907192" lon="10.743803759184965"><ele>262.0</ele><time>2026-04-26T07:52:20Z</time></trkpt><trkpt lat="45.59789234466718" lon="10.743961814362006"><ele>262.25</ele><time>2026-04-26T07:52:22Z</time></trkpt><trkpt lat="45.59791085002282" lon="10.744082306960184"><ele>262.5</ele><time>2026-04-26T07:52:24Z</time></trkpt><trkpt lat="45.59799233603338" lon="10.7442404903847"><ele>262.75</ele><time>2026-04-26T07:52:26Z</time></trkpt><trkpt lat="45.59805095698359" lon="10.744361628015417"><ele>263.0</ele><time>2026-04-26T07:52:27Z</time></trkpt><trkpt lat="45.59813415450077" lon="10.744500001035812"><ele>261.0</ele><time>2026-04-26T07:52:28Z</time></trkpt><trkpt lat="45.59822542294061" lon="10.744616696729725"><ele>259.0</ele><time>2026-04-26T07:52:29Z</time></trkpt><trkpt lat="45.59831403117718" lon="10.744722703575311"><ele>257.0</ele><time>2026-04-26T07:52:30Z</time></trkpt><trkpt lat="45.598401363980116" lon="10.744833109462439"><ele>255.0</ele><time>2026-04-26T07:52:31Z</time></trkpt><trkpt lat="45.598487634040325" lon="10.744941951403572"><ele>255.0</ele><time>2026-04-26T07:52:32Z</time></trkpt><trkpt lat="45.598573414369646" lon="10.745049009058866"><ele>255.0</ele><time>2026-04-26T07:52:33Z</time></trkpt><trkpt lat="45.59873175092496" lon="10.74527544872502"><ele>255.0</ele><time>2026-04-26T07:52:35Z</time></trkpt><trkpt lat="45.598802335517966" lon="10.74537664092422"><ele>255.0</ele><time>2026-04-26T07:52:36Z</time></trkpt><trkpt lat="45.59885478168947" lon="10.745486027729651"><ele>255.5</ele><time>2026-04-26T07:52:37Z</time></trkpt><trkpt lat="45.598902729816416" lon="10.74558834765947"><ele>256.0</ele><time>2026-04-26T07:52:38Z</time></trkpt><trkpt lat="45.598942514603415" lon="10.74569172911582"><ele>256.5</ele><time>2026-04-26T07:52:39Z</time></trkpt><trkpt lat="45.59897226651138" lon="10.745789035275344"><ele>257.0</ele><time>2026-04-26T07:52:40Z</time></trkpt><trkpt lat="45.59899461030916" lon="10.745884400182407"><ele>257.5</ele><time>2026-04-26T07:52:41Z</time></trkpt><trkpt lat="45.59900971677993" lon="10.745971886711684"><ele>258.0</ele><time>2026-04-26T07:52:42Z</time></trkpt><trkpt lat="45.59902957154056" lon="10.746120053721146"><ele>258.4</ele><time>2026-04-26T07:52:44Z</time></trkpt><trkpt lat="45.59903374067308" lon="10.746220066935747"><ele>258.8</ele><time>2026-04-26T07:52:46Z</time></trkpt><trkpt lat="45.5990351683417" lon="10.746348299017274"><ele>259.2</ele><time>2026-04-26T07:53:03Z</time></trkpt><trkpt lat="45.599040579987395" lon="10.74651130352063"><ele>259.6</ele><time>2026-04-26T07:53:05Z</time></trkpt><trkpt lat="45.599022795632585" lon="10.74663900316624"><ele>260.0</ele><time>2026-04-26T07:53:07Z</time></trkpt><trkpt lat="45.59902119191463" lon="10.746791263075284"><ele>260.0</ele><time>2026-04-26T07:53:11Z</time></trkpt><trkpt lat="45.59906902679823" lon="10.74650592017185"><ele>260.0</ele><time>2026-04-26T07:53:12Z</time></trkpt><trkpt lat="45.59905388187264" lon="10.746393775143591"><ele>260.0</ele><time>2026-04-26T07:53:13Z</time></trkpt><trkpt lat="45.59905469790805" lon="10.74625004161848"><ele>260.0</ele><time>2026-04-26T07:53:15Z</time></trkpt><trkpt lat="45.599051272906586" lon="10.746157554007544"><ele>260.0</ele><time>2026-04-26T07:53:16Z</time></trkpt><trkpt lat="45.599040674240165" lon="10.746068118642988"><ele>260.0</ele><time>2026-04-26T07:53:17Z</time></trkpt><trkpt lat="45.599044803739446" lon="10.74594501983841"><ele>260.0</ele><time>2026-04-26T07:53:19Z</time></trkpt><trkpt lat="45.59900154115414" lon="10.745846204669224"><ele>260.0</ele><time>2026-04-26T07:53:21Z</time></trkpt><trkpt lat="45.5989707442083" lon="10.745726395932877"><ele>260.0</ele><time>2026-04-26T07:53:23Z</time></trkpt><trkpt lat="45.598919251011765" lon="10.745583402389707"><ele>260.0</ele><time>2026-04-26T07:53:25Z</time></trkpt><trkpt lat="45.59888259040243" lon="10.745503408403263"><ele>259.5</ele><time>2026-04-26T07:53:26Z</time></trkpt><trkpt lat="45.59882691264036" lon="10.74540492238036"><ele>259.0</ele><time>2026-04-26T07:53:27Z</time></trkpt><trkpt lat="45.598757613197094" lon="10.745290484835321"><ele>258.5</ele><time>2026-04-26T07:53:28Z</time></trkpt><trkpt lat="45.59867044384456" lon="10.745162512552506"><ele>258.0</ele><time>2026-04-26T07:53:29Z</time></trkpt><trkpt lat="45.59858238540518" lon="10.745013190776547"><ele>257.25</ele><time>2026-04-26T07:53:30Z</time></trkpt><trkpt lat="45.59848000119141" lon="10.744884437197811"><ele>256.5</ele><time>2026-04-26T07:53:31Z</time></trkpt><trkpt lat="45.59837468474297" lon="10.744775323800797"><ele>255.75</ele><time>2026-04-26T07:53:32Z</time></trkpt><trkpt lat="45.598279886703295" lon="10.744652606322386"><ele>255.0</ele><time>2026-04-26T07:53:33Z</time></trkpt><trkpt lat="45.59818244382107" lon="10.744528243878754"><ele>255.0</ele><time>2026-04-26T07:53:34Z</time></trkpt><trkpt lat="45.59809416404191" lon="10.744406888038682"><ele>255.0</ele><time>2026-04-26T07:53:35Z</time></trkpt><trkpt lat="45.59805080716901" lon="10.744286423826757"><ele>255.0</ele><time>2026-04-26T07:53:36Z</time></trkpt><trkpt lat="45.59800344898728" lon="10.744207387848279"><ele>255.0</ele><time>2026-04-26T07:53:37Z</time></trkpt><trkpt lat="45.597961086031034" lon="10.744117217128643"><ele>255.0</ele><time>2026-04-26T07:53:38Z</time></trkpt><trkpt lat="45.59796975565075" lon="10.744011598060466"><ele>255.0</ele><time>2026-04-26T07:53:39Z</time></trkpt><trkpt lat="45.59796773580648" lon="10.74391313285804"><ele>256.1666666666667</ele><time>2026-04-26T07:53:42Z</time></trkpt><trkpt lat="45.59800039657545" lon="10.74374014732294"><ele>257.3333333333333</ele><time>2026-04-26T07:53:46Z</time></trkpt><trkpt lat="45.598054054540135" lon="10.743641651419304"><ele>258.5</ele><time>2026-04-26T07:53:47Z</time></trkpt><trkpt lat="45.59810239568784" lon="10.743564299780962"><ele>259.66666666666663</ele><time>2026-04-26T07:53:48Z</time></trkpt><trkpt lat="45.598158042759415" lon="10.743485636004587"><ele>260.8333333333333</ele><time>2026-04-26T07:53:50Z</time></trkpt><trkpt lat="45.598205312007714" lon="10.74339229326158"><ele>262.0</ele><time>2026-04-26T07:53:52Z</time></trkpt><trkpt lat="45.59825777434789" lon="10.743300808946788"><ele>262.0</ele><time>2026-04-26T07:53:54Z</time></trkpt><trkpt lat="45.598298284705535" lon="10.743226829398827"><ele>262.0</ele><time>2026-04-26T07:53:56Z</time></trkpt><trkpt lat="45.59834339390715" lon="10.743145999752148"><ele>262.0</ele><time>2026-04-26T07:53:59Z</time></trkpt><trkpt lat="45.59829333932387" lon="10.74323483373626"><ele>262.0</ele><time>2026-04-26T07:54:08Z</time></trkpt><trkpt lat="45.59818345197421" lon="10.743390953006454"><ele>262.0</ele><time>2026-04-26T07:54:09Z</time></trkpt><trkpt lat="45.59810643370842" lon="10.743528787942964"><ele>262.25</ele><time>2026-04-26T07:54:10Z</time></trkpt><trkpt lat="45.59804461602678" lon="10.743641511240034"><ele>262.5</ele><time>2026-04-26T07:54:11Z</time></trkpt><trkpt lat="45.59797293993275" lon="10.743770369411559"><ele>262.75</ele><time>2026-04-26T07:54:12Z</time></trkpt><trkpt lat="45.597923698400635" lon="10.743954542363879"><ele>263.0</ele><time>2026-04-26T07:54:14Z</time></trkpt><trkpt lat="45.59796987229331" lon="10.744077360414703"><ele>263.0</ele><time>2026-04-26T07:54:16Z</time></trkpt><trkpt lat="45.597911891795256" lon="10.744029526654643"><ele>263.0</ele><time>2026-04-26T07:54:29Z</time></trkpt><trkpt lat="45.59789472767072" lon="10.743914297171251"><ele>263.0</ele><time>2026-04-26T07:54:31Z</time></trkpt><trkpt lat="45.59788162020227" lon="10.743814093088107"><ele>263.0</ele><time>2026-04-26T07:54:37Z</time></trkpt><trkpt lat="45.597847293075475" lon="10.743715497228747"><ele>263.0</ele><time>2026-04-26T07:54:44Z</time></trkpt><trkpt lat="45.59778266928698" lon="10.743707935000257"><ele>263.0</ele><time>2026-04-26T07:54:47Z</time></trkpt><trkpt lat="45.59770345506146" lon="10.743686847929169"><ele>263.0</ele><time>2026-04-26T07:54:50Z</time></trkpt><trkpt lat="45.59763333831137" lon="10.743663727875528"><ele>261.1666666666667</ele><time>2026-04-26T07:54:52Z</time></trkpt><trkpt lat="45.59755214511033" lon="10.743604207378223"><ele>259.33333333333337</ele><time>2026-04-26T07:54:55Z</time></trkpt><trkpt lat="45.59750806260198" lon="10.743526003395525"><ele>257.5</ele><time>2026-04-26T07:54:58Z</time></trkpt><trkpt lat="45.597459792604596" lon="10.743463072524973"><ele>255.66666666666669</ele><time>2026-04-26T07:55:05Z</time></trkpt><trkpt lat="45.59740771124062" lon="10.743523030176556"><ele>253.83333333333334</ele><time>2026-04-26T07:55:08Z</time></trkpt><trkpt lat="45.597397380424" lon="10.743632957653611"><ele>252.0</ele><time>2026-04-26T07:55:10Z</time></trkpt><trkpt lat="45.597391603121295" lon="10.743761419747525"><ele>251.39999999999998</ele><time>2026-04-26T07:55:12Z</time></trkpt><trkpt lat="45.597373705970824" lon="10.743909870483197"><ele>250.79999999999998</ele><time>2026-04-26T07:55:14Z</time></trkpt><trkpt lat="45.59736386216886" lon="10.744067610296037"><ele>250.2</ele><time>2026-04-26T07:55:16Z</time></trkpt><trkpt lat="45.59736371233109" lon="10.744191971834955"><ele>249.6</ele><time>2026-04-26T07:55:18Z</time></trkpt><trkpt lat="45.59737331043493" lon="10.74435274402379"><ele>249.0</ele><time>2026-04-26T07:55:20Z</time></trkpt><trkpt lat="45.59738606674117" lon="10.744468027294058"><ele>248.57142857142856</ele><time>2026-04-26T07:55:21Z</time></trkpt><trkpt lat="45.59739961204202" lon="10.744581290998825"><ele>248.1428571428571</ele><time>2026-04-26T07:55:22Z</time></trkpt><trkpt lat="45.597413959765476" lon="10.744688898939588"><ele>247.71428571428572</ele><time>2026-04-26T07:55:23Z</time></trkpt><trkpt lat="45.59742127894845" lon="10.744790773249333"><ele>247.28571428571428</ele><time>2026-04-26T07:55:24Z</time></trkpt><trkpt lat="45.59742304968905" lon="10.744888469678468"><ele>246.85714285714286</ele><time>2026-04-26T07:55:25Z</time></trkpt><trkpt lat="45.59741980380242" lon="10.744988865420067"><ele>246.42857142857144</ele><time>2026-04-26T07:55:26Z</time></trkpt><trkpt lat="45.59740811863973" lon="10.745097611719233"><ele>246.00000000000003</ele><time>2026-04-26T07:55:27Z</time></trkpt><trkpt lat="45.5973923885677" lon="10.74520528056513"><ele>245.33333333333334</ele><time>2026-04-26T07:55:28Z</time></trkpt><trkpt lat="45.59736396264978" lon="10.745319605574016"><ele>244.66666666666669</ele><time>2026-04-26T07:55:29Z</time></trkpt><trkpt lat="45.597338175688044" lon="10.745432897748081"><ele>244.0</ele><time>2026-04-26T07:55:30Z</time></trkpt><trkpt lat="45.597315426706" lon="10.74554648959488"><ele>243.33333333333334</ele><time>2026-04-26T07:55:31Z</time></trkpt><trkpt lat="45.59729528259165" lon="10.745663736704511"><ele>242.66666666666669</ele><time>2026-04-26T07:55:32Z</time></trkpt><trkpt lat="45.597278999670735" lon="10.745790863540757"><ele>242.0</ele><time>2026-04-26T07:55:33Z</time></trkpt><trkpt lat="45.59725718457667" lon="10.745915650904404"><ele>242.00000000000003</ele><time>2026-04-26T07:55:34Z</time></trkpt><trkpt lat="45.59723110846335" lon="10.74603665753954"><ele>242.0</ele><time>2026-04-26T07:55:35Z</time></trkpt><trkpt lat="45.59722635547555" lon="10.746166027805847"><ele>242.0</ele><time>2026-04-26T07:55:36Z</time></trkpt><trkpt lat="45.59724576256482" lon="10.746271842136686"><ele>242.0</ele><time>2026-04-26T07:55:37Z</time></trkpt><trkpt lat="45.597264884132514" lon="10.746389725933197"><ele>242.00000000000003</ele><time>2026-04-26T07:55:39Z</time></trkpt><trkpt lat="45.59728228024422" lon="10.746495254475985"><ele>242.0</ele><time>2026-04-26T07:55:41Z</time></trkpt><trkpt lat="45.59719398210591" lon="10.746685733853486"><ele>242.25</ele><time>2026-04-26T07:55:43Z</time></trkpt><trkpt lat="45.59717275417078" lon="10.746846440254428"><ele>242.5</ele><time>2026-04-26T07:55:44Z</time></trkpt><trkpt lat="45.597158595695525" lon="10.746997039681077"><ele>242.75</ele><time>2026-04-26T07:55:45Z</time></trkpt><trkpt lat="45.59714372771636" lon="10.747160235638198"><ele>243.0</ele><time>2026-04-26T07:55:46Z</time></trkpt><trkpt lat="45.5971259613761" lon="10.747349535304863"><ele>243.0</ele><time>2026-04-26T07:55:47Z</time></trkpt><trkpt lat="45.5971087492043" lon="10.747557319583052"><ele>243.0</ele><time>2026-04-26T07:55:48Z</time></trkpt><trkpt lat="45.59709488116602" lon="10.747768693125519"><ele>243.0</ele><time>2026-04-26T07:55:49Z</time></trkpt><trkpt lat="45.59708287825923" lon="10.74796896697637"><ele>243.0</ele><time>2026-04-26T07:55:50Z</time></trkpt><trkpt lat="45.5970709586678" lon="10.748154168530517"><ele>242.5</ele><time>2026-04-26T07:55:51Z</time></trkpt><trkpt lat="45.59705719511059" lon="10.748328314057868"><ele>242.0</ele><time>2026-04-26T07:55:52Z</time></trkpt><trkpt lat="45.59701888433123" lon="10.748498898288556"><ele>241.5</ele><time>2026-04-26T07:55:53Z</time></trkpt><trkpt lat="45.59697376522305" lon="10.748663060357224"><ele>241.0</ele><time>2026-04-26T07:55:54Z</time></trkpt><trkpt lat="45.596926568588714" lon="10.748827295375431"><ele>240.25</ele><time>2026-04-26T07:55:55Z</time></trkpt><trkpt lat="45.5968621338446" lon="10.748987648770214"><ele>239.5</ele><time>2026-04-26T07:55:56Z</time></trkpt><trkpt lat="45.59681015794612" lon="10.749165574040038"><ele>238.75</ele><time>2026-04-26T07:55:57Z</time></trkpt><trkpt lat="45.596771291479364" lon="10.749359195882763"><ele>238.0</ele><time>2026-04-26T07:55:58Z</time></trkpt><trkpt lat="45.59673010778309" lon="10.749547666348064"><ele>238.0</ele><time>2026-04-26T07:55:59Z</time></trkpt><trkpt lat="45.596681981490484" lon="10.749736353847764"><ele>238.0</ele><time>2026-04-26T07:56:00Z</time></trkpt><trkpt lat="45.59662268855216" lon="10.749917108063642"><ele>238.0</ele><time>2026-04-26T07:56:01Z</time></trkpt><trkpt lat="45.596556480587005" lon="10.750083694659434"><ele>238.0</ele><time>2026-04-26T07:56:02Z</time></trkpt><trkpt lat="45.59649352765075" lon="10.750237373813711"><ele>238.2</ele><time>2026-04-26T07:56:03Z</time></trkpt><trkpt lat="45.59643695702938" lon="10.750397936441525"><ele>238.4</ele><time>2026-04-26T07:56:04Z</time></trkpt><trkpt lat="45.59639338000078" lon="10.750541419992745"><ele>238.59999999999997</ele><time>2026-04-26T07:56:05Z</time></trkpt><trkpt lat="45.596368742062786" lon="10.750647032670141"><ele>238.79999999999998</ele><time>2026-04-26T07:56:06Z</time></trkpt><trkpt lat="45.59634754810368" lon="10.75076709472396"><ele>239.0</ele><time>2026-04-26T07:56:08Z</time></trkpt><trkpt lat="45.596327229496374" lon="10.750911562944859"><ele>238.6</ele><time>2026-04-26T07:56:10Z</time></trkpt><trkpt lat="45.596289454404356" lon="10.751051240545756"><ele>238.2</ele><time>2026-04-26T07:56:11Z</time></trkpt><trkpt lat="45.59626096310121" lon="10.751214686189899"><ele>237.79999999999998</ele><time>2026-04-26T07:56:12Z</time></trkpt><trkpt lat="45.59624910217814" lon="10.751362159206549"><ele>237.39999999999998</ele><time>2026-04-26T07:56:13Z</time></trkpt><trkpt lat="45.596230101875044" lon="10.751452964063432"><ele>237.0</ele><time>2026-04-26T07:56:14Z</time></trkpt><trkpt lat="45.59620379911636" lon="10.751605387026814"><ele>235.75</ele><time>2026-04-26T07:56:16Z</time></trkpt><trkpt lat="45.596131437978244" lon="10.751705794943023"><ele>234.5</ele><time>2026-04-26T07:56:17Z</time></trkpt><trkpt lat="45.59608096576675" lon="10.751848802002037"><ele>233.25</ele><time>2026-04-26T07:56:18Z</time></trkpt><trkpt lat="45.59601641810752" lon="10.752030161386006"><ele>232.0</ele><time>2026-04-26T07:56:19Z</time></trkpt><trkpt lat="45.59592125319396" lon="10.752174458850597"><ele>232.0</ele><time>2026-04-26T07:56:20Z</time></trkpt><trkpt lat="45.595836611211745" lon="10.752293405575811"><ele>232.0</ele><time>2026-04-26T07:56:21Z</time></trkpt><trkpt lat="45.59576858372141" lon="10.752403419836238"><ele>232.0</ele><time>2026-04-26T07:56:22Z</time></trkpt><trkpt lat="45.59570142553065" lon="10.752486407788785"><ele>232.0</ele><time>2026-04-26T07:56:23Z</time></trkpt><trkpt lat="45.59564569352728" lon="10.752553259788135"><ele>232.0</ele><time>2026-04-26T07:56:24Z</time></trkpt><trkpt lat="45.59558765672101" lon="10.75261555397943"><ele>232.5</ele><time>2026-04-26T07:56:27Z</time></trkpt><trkpt lat="45.595691406219" lon="10.752806996190609"><ele>233.0</ele><time>2026-04-26T07:56:31Z</time></trkpt><trkpt lat="45.5957936714747" lon="10.752883359712486"><ele>233.5</ele><time>2026-04-26T07:56:32Z</time></trkpt><trkpt lat="45.595854403120725" lon="10.752965520187889"><ele>234.0</ele><time>2026-04-26T07:56:34Z</time></trkpt><trkpt lat="45.59577333279934" lon="10.753099818690544"><ele>234.0</ele><time>2026-04-26T07:56:36Z</time></trkpt><trkpt lat="45.59569598327295" lon="10.75313374666316"><ele>234.0</ele><time>2026-04-26T07:56:37Z</time></trkpt><trkpt lat="45.595612167555664" lon="10.753151834952568"><ele>234.0</ele><time>2026-04-26T07:56:38Z</time></trkpt><trkpt lat="45.59554012792941" lon="10.753163252565786"><ele>234.0</ele><time>2026-04-26T07:56:39Z</time></trkpt><trkpt lat="45.5954444660567" lon="10.753200580724856"><ele>234.0</ele><time>2026-04-26T07:56:41Z</time></trkpt><trkpt lat="45.595375445369164" lon="10.75322083972258"><ele>234.0</ele><time>2026-04-26T07:56:45Z</time></trkpt><trkpt lat="45.595313745844834" lon="10.75325463086099"><ele>232.6</ele><time>2026-04-26T07:56:51Z</time></trkpt><trkpt lat="45.59525413834727" lon="10.753295429250219"><ele>231.2</ele><time>2026-04-26T07:56:52Z</time></trkpt><trkpt lat="45.59517650974772" lon="10.753351706920988"><ele>229.79999999999998</ele><time>2026-04-26T07:56:53Z</time></trkpt><trkpt lat="45.59509886011774" lon="10.753413509228594"><ele>228.39999999999998</ele><time>2026-04-26T07:56:54Z</time></trkpt><trkpt lat="45.59500976780627" lon="10.75348497625804"><ele>227.0</ele><time>2026-04-26T07:56:55Z</time></trkpt><trkpt lat="45.59491081232625" lon="10.753563111579039"><ele>227.0</ele><time>2026-04-26T07:56:56Z</time></trkpt><trkpt lat="45.59480891877697" lon="10.75364311382354"><ele>227.0</ele><time>2026-04-26T07:56:57Z</time></trkpt><trkpt lat="45.59469327737101" lon="10.753732112699993"><ele>227.0</ele><time>2026-04-26T07:56:58Z</time></trkpt><trkpt lat="45.5945701483502" lon="10.753827669479168"><ele>227.0</ele><time>2026-04-26T07:56:59Z</time></trkpt><trkpt lat="45.594439128430615" lon="10.753931116504225"><ele>226.5</ele><time>2026-04-26T07:57:00Z</time></trkpt><trkpt lat="45.59431073151214" lon="10.75403512131962"><ele>226.0</ele><time>2026-04-26T07:57:01Z</time></trkpt><trkpt lat="45.59418081549161" lon="10.754139773199915"><ele>225.5</ele><time>2026-04-26T07:57:02Z</time></trkpt><trkpt lat="45.594047392582574" lon="10.754243959004407"><ele>225.0</ele><time>2026-04-26T07:57:03Z</time></trkpt><trkpt lat="45.5939102362423" lon="10.75434987401667"><ele>224.33333333333331</ele><time>2026-04-26T07:57:04Z</time></trkpt><trkpt lat="45.59376736540432" lon="10.754461994990095"><ele>223.66666666666666</ele><time>2026-04-26T07:57:05Z</time></trkpt><trkpt lat="45.59361952049682" lon="10.754578090101338"><ele>223.0</ele><time>2026-04-26T07:57:06Z</time></trkpt><trkpt lat="45.59346740925583" lon="10.75469406847795"><ele>222.33333333333331</ele><time>2026-04-26T07:57:07Z</time></trkpt><trkpt lat="45.59331741411711" lon="10.754811063666923"><ele>221.66666666666669</ele><time>2026-04-26T07:57:08Z</time></trkpt><trkpt lat="45.593162640704975" lon="10.754904245125841"><ele>221.0</ele><time>2026-04-26T07:57:09Z</time></trkpt><trkpt lat="45.593013156621936" lon="10.75502116507055"><ele>221.0</ele><time>2026-04-26T07:57:10Z</time></trkpt><trkpt lat="45.59287715012456" lon="10.75515428630382"><ele>221.0</ele><time>2026-04-26T07:57:11Z</time></trkpt><trkpt lat="45.592737314238605" lon="10.755260533315507"><ele>221.0</ele><time>2026-04-26T07:57:12Z</time></trkpt><trkpt lat="45.59260655347049" lon="10.755363219188306"><ele>219.75</ele><time>2026-04-26T07:57:13Z</time></trkpt><trkpt lat="45.592485641970626" lon="10.755459596957163"><ele>218.5</ele><time>2026-04-26T07:57:14Z</time></trkpt><trkpt lat="45.59237283348939" lon="10.75555085960015"><ele>217.25</ele><time>2026-04-26T07:57:15Z</time></trkpt><trkpt lat="45.59225517846039" lon="10.755642676390472"><ele>216.0</ele><time>2026-04-26T07:57:16Z</time></trkpt><trkpt lat="45.59212887708176" lon="10.755744314408348"><ele>216.0</ele><time>2026-04-26T07:57:17Z</time></trkpt><trkpt lat="45.59199816607146" lon="10.755847551809747"><ele>216.0</ele><time>2026-04-26T07:57:18Z</time></trkpt><trkpt lat="45.59186496440081" lon="10.755947819513958"><ele>216.0</ele><time>2026-04-26T07:57:19Z</time></trkpt><trkpt lat="45.591731539523195" lon="10.756044837787366"><ele>216.0</ele><time>2026-04-26T07:57:20Z</time></trkpt><trkpt lat="45.59160637120413" lon="10.756135603872698"><ele>216.0</ele><time>2026-04-26T07:57:21Z</time></trkpt><trkpt lat="45.59148507792106" lon="10.756226384715646"><ele>216.0</ele><time>2026-04-26T07:57:22Z</time></trkpt><trkpt lat="45.591373087952114" lon="10.756311820058007"><ele>216.0</ele><time>2026-04-26T07:57:23Z</time></trkpt><trkpt lat="45.59126331704767" lon="10.756395310349179"><ele>215.8</ele><time>2026-04-26T07:57:24Z</time></trkpt><trkpt lat="45.59116015940689" lon="10.756471533689023"><ele>215.60000000000002</ele><time>2026-04-26T07:57:25Z</time></trkpt><trkpt lat="45.59106373592481" lon="10.756544054873714"><ele>215.4</ele><time>2026-04-26T07:57:26Z</time></trkpt><trkpt lat="45.59097962386962" lon="10.756607600192476"><ele>215.2</ele><time>2026-04-26T07:57:27Z</time></trkpt><trkpt lat="45.59090409027524" lon="10.756665904270863"><ele>215.0</ele><time>2026-04-26T07:57:28Z</time></trkpt><trkpt lat="45.590825521530185" lon="10.756711315170085"><ele>215.0</ele><time>2026-04-26T07:57:29Z</time></trkpt><trkpt lat="45.590749930868576" lon="10.75673037454039"><ele>215.0</ele><time>2026-04-26T07:57:30Z</time></trkpt><trkpt lat="45.59069024296426" lon="10.75678793333137"><ele>215.0</ele><time>2026-04-26T07:57:31Z</time></trkpt><trkpt lat="45.590630914185326" lon="10.756828051138495"><ele>215.0</ele><time>2026-04-26T07:57:32Z</time></trkpt><trkpt lat="45.59056370480914" lon="10.756873497821267"><ele>215.0</ele><time>2026-04-26T07:57:33Z</time></trkpt><trkpt lat="45.590500481856346" lon="10.756916251312383"><ele>215.0</ele><time>2026-04-26T07:57:34Z</time></trkpt><trkpt lat="45.59044970788885" lon="10.756993073722807"><ele>215.0</ele><time>2026-04-26T07:57:36Z</time></trkpt><trkpt lat="45.59053444281379" lon="10.757065689731048"><ele>215.0</ele><time>2026-04-26T07:57:37Z</time></trkpt><trkpt lat="45.59059144260134" lon="10.757213114919955"><ele>215.0</ele><time>2026-04-26T07:57:38Z</time></trkpt><trkpt lat="45.590708094936275" lon="10.757378508450403"><ele>215.0</ele><time>2026-04-26T07:57:39Z</time></trkpt><trkpt lat="45.59081463511577" lon="10.757605040818893"><ele>214.33333333333334</ele><time>2026-04-26T07:57:40Z</time></trkpt><trkpt lat="45.59090714401951" lon="10.757864950254989"><ele>213.66666666666669</ele><time>2026-04-26T07:57:41Z</time></trkpt><trkpt lat="45.59100352453963" lon="10.758124630706728"><ele>213.0</ele><time>2026-04-26T07:57:42Z</time></trkpt><trkpt lat="45.591103295481645" lon="10.758386627577687"><ele>213.0</ele><time>2026-04-26T07:57:43Z</time></trkpt><trkpt lat="45.59120421235781" lon="10.758651419157074"><ele>213.0</ele><time>2026-04-26T07:57:44Z</time></trkpt><trkpt lat="45.59130519822315" lon="10.758922900060819"><ele>213.0</ele><time>2026-04-26T07:57:45Z</time></trkpt><trkpt lat="45.591407179351755" lon="10.759194899875947"><ele>213.33333333333331</ele><time>2026-04-26T07:57:46Z</time></trkpt><trkpt lat="45.591510947781686" lon="10.759471549438405"><ele>213.66666666666666</ele><time>2026-04-26T07:57:47Z</time></trkpt><trkpt lat="45.5916154217995" lon="10.759748816985335"><ele>214.0</ele><time>2026-04-26T07:57:48Z</time></trkpt><trkpt lat="45.59172118619566" lon="10.760027817748842"><ele>214.0</ele><time>2026-04-26T07:57:49Z</time></trkpt><trkpt lat="45.59182599368964" lon="10.760305602857267"><ele>214.0</ele><time>2026-04-26T07:57:50Z</time></trkpt><trkpt lat="45.59193126983653" lon="10.760585559469979"><ele>214.0</ele><time>2026-04-26T07:57:51Z</time></trkpt><trkpt lat="45.59203407163784" lon="10.760860360464076"><ele>214.0</ele><time>2026-04-26T07:57:52Z</time></trkpt><trkpt lat="45.59213741791766" lon="10.761133911980206"><ele>214.0</ele><time>2026-04-26T07:57:53Z</time></trkpt><trkpt lat="45.59224140650632" lon="10.76140043290754"><ele>214.0</ele><time>2026-04-26T07:57:54Z</time></trkpt><trkpt lat="45.59234368294232" lon="10.761666015487453"><ele>214.33333333333331</ele><time>2026-04-26T07:57:55Z</time></trkpt><trkpt lat="45.59243903095963" lon="10.761916423900047"><ele>214.66666666666669</ele><time>2026-04-26T07:57:56Z</time></trkpt><trkpt lat="45.59252603613005" lon="10.762149088251926"><ele>215.0</ele><time>2026-04-26T07:57:57Z</time></trkpt><trkpt lat="45.59260981148214" lon="10.762371098079841"><ele>215.0</ele><time>2026-04-26T07:57:58Z</time></trkpt><trkpt lat="45.59268833407663" lon="10.762576167561653"><ele>215.0</ele><time>2026-04-26T07:57:59Z</time></trkpt><trkpt lat="45.59276130845492" lon="10.762769833937629"><ele>215.0</ele><time>2026-04-26T07:58:00Z</time></trkpt><trkpt lat="45.59283116352933" lon="10.762953999366689"><ele>215.25</ele><time>2026-04-26T07:58:01Z</time></trkpt><trkpt lat="45.59289976986813" lon="10.763136713492884"><ele>215.5</ele><time>2026-04-26T07:58:02Z</time></trkpt><trkpt lat="45.59296651747992" lon="10.763317038154268"><ele>215.75</ele><time>2026-04-26T07:58:03Z</time></trkpt><trkpt lat="45.59303291356523" lon="10.763492312239913"><ele>216.0</ele><time>2026-04-26T07:58:04Z</time></trkpt><trkpt lat="45.59309766097379" lon="10.763662358021666"><ele>216.0</ele><time>2026-04-26T07:58:05Z</time></trkpt><trkpt lat="45.59315859525372" lon="10.763822249391767"><ele>216.0</ele><time>2026-04-26T07:58:06Z</time></trkpt><trkpt lat="45.593099681515206" lon="10.76390765953251"><ele>216.0</ele><time>2026-04-26T07:58:10Z</time></trkpt><trkpt lat="45.592997740758015" lon="10.763983656267184"><ele>216.0</ele><time>2026-04-26T07:58:12Z</time></trkpt><trkpt lat="45.592905667773685" lon="10.764106556990699"><ele>216.0</ele><time>2026-04-26T07:58:14Z</time></trkpt><trkpt lat="45.59280846457089" lon="10.76419952130151"><ele>216.00000000000003</ele><time>2026-04-26T07:58:16Z</time></trkpt><trkpt lat="45.592731655951425" lon="10.764315525707781"><ele>216.00000000000003</ele><time>2026-04-26T07:58:18Z</time></trkpt><trkpt lat="45.59269275938615" lon="10.764390310628828"><ele>216.0</ele><time>2026-04-26T07:58:19Z</time></trkpt><trkpt lat="45.59265783124356" lon="10.764468895123128"><ele>216.0</ele><time>2026-04-26T07:58:20Z</time></trkpt><trkpt lat="45.592588489849" lon="10.764583686802585"><ele>216.0</ele><time>2026-04-26T07:58:22Z</time></trkpt><trkpt lat="45.59258973425109" lon="10.76469230017815"><ele>216.0</ele><time>2026-04-26T07:58:24Z</time></trkpt><trkpt lat="45.59260802598229" lon="10.764829896783217"><ele>216.0</ele><time>2026-04-26T07:58:26Z</time></trkpt><trkpt lat="45.592584189685645" lon="10.764967361110843"><ele>216.0</ele><time>2026-04-26T07:58:28Z</time></trkpt><trkpt lat="45.59254242719141" lon="10.76503712317581"><ele>216.0</ele><time>2026-04-26T07:58:29Z</time></trkpt><trkpt lat="45.59249291062952" lon="10.765126083174302"><ele>216.0</ele><time>2026-04-26T07:58:30Z</time></trkpt><trkpt lat="45.592421303544604" lon="10.765238692278988"><ele>216.0</ele><time>2026-04-26T07:58:31Z</time></trkpt><trkpt lat="45.592349971734755" lon="10.765348687839051"><ele>216.00000000000003</ele><time>2026-04-26T07:58:32Z</time></trkpt><trkpt lat="45.59228212558821" lon="10.765450173049015"><ele>216.00000000000003</ele><time>2026-04-26T07:58:33Z</time></trkpt><trkpt lat="45.59221429694928" lon="10.765551822850096"><ele>216.0</ele><time>2026-04-26T07:58:34Z</time></trkpt><trkpt lat="45.59214637697298" lon="10.765655967010767"><ele>216.0</ele><time>2026-04-26T07:58:35Z</time></trkpt><trkpt lat="45.59209395315985" lon="10.765744315424463"><ele>216.0</ele><time>2026-04-26T07:58:36Z</time></trkpt><trkpt lat="45.59204708650933" lon="10.765835574471792"><ele>216.0</ele><time>2026-04-26T07:58:37Z</time></trkpt><trkpt lat="45.59199580750953" lon="10.76592392399682"><ele>216.0</ele><time>2026-04-26T07:58:38Z</time></trkpt><trkpt lat="45.59194421088319" lon="10.766023710356551"><ele>216.0</ele><time>2026-04-26T07:58:39Z</time></trkpt><trkpt lat="45.591898888067554" lon="10.766124205334922"><ele>216.0</ele><time>2026-04-26T07:58:40Z</time></trkpt><trkpt lat="45.59186171300285" lon="10.76622207122188"><ele>216.0</ele><time>2026-04-26T07:58:41Z</time></trkpt><trkpt lat="45.59182325587712" lon="10.766340808196423"><ele>216.0</ele><time>2026-04-26T07:58:42Z</time></trkpt><trkpt lat="45.59178158444464" lon="10.766462409727243"><ele>216.00000000000003</ele><time>2026-04-26T07:58:43Z</time></trkpt><trkpt lat="45.5917359749478" lon="10.76658585292689"><ele>216.00000000000003</ele><time>2026-04-26T07:58:44Z</time></trkpt><trkpt lat="45.59169726144372" lon="10.76669844895168"><ele>216.0</ele><time>2026-04-26T07:58:45Z</time></trkpt><trkpt lat="45.591645929591984" lon="10.766816047334105"><ele>216.0</ele><time>2026-04-26T07:58:46Z</time></trkpt><trkpt lat="45.59159789443257" lon="10.766928826637772"><ele>216.33333333333334</ele><time>2026-04-26T07:58:47Z</time></trkpt><trkpt lat="45.591572649080184" lon="10.767035540652858"><ele>216.66666666666669</ele><time>2026-04-26T07:58:48Z</time></trkpt><trkpt lat="45.59155422421028" lon="10.76713952643049"><ele>217.0</ele><time>2026-04-26T07:58:49Z</time></trkpt><trkpt lat="45.59153454401473" lon="10.767248099579895"><ele>217.33333333333334</ele><time>2026-04-26T07:58:50Z</time></trkpt><trkpt lat="45.59151667065014" lon="10.767372089065946"><ele>217.66666666666669</ele><time>2026-04-26T07:58:51Z</time></trkpt><trkpt lat="45.591502711612094" lon="10.767476857476627"><ele>218.0</ele><time>2026-04-26T07:58:52Z</time></trkpt><trkpt lat="45.59148609040384" lon="10.767595113803086"><ele>217.8</ele><time>2026-04-26T07:58:53Z</time></trkpt><trkpt lat="45.59149541532247" lon="10.767728234796044"><ele>217.60000000000002</ele><time>2026-04-26T07:58:54Z</time></trkpt><trkpt lat="45.591504515608634" lon="10.767863697222662"><ele>217.39999999999998</ele><time>2026-04-26T07:58:55Z</time></trkpt><trkpt lat="45.59152018306861" lon="10.768000074932393"><ele>217.2</ele><time>2026-04-26T07:58:56Z</time></trkpt><trkpt lat="45.59152866305131" lon="10.768118401724067"><ele>217.0</ele><time>2026-04-26T07:58:57Z</time></trkpt><trkpt lat="45.59153610589154" lon="10.76823691317023"><ele>216.99999999999997</ele><time>2026-04-26T07:58:58Z</time></trkpt><trkpt lat="45.59155210231794" lon="10.768346185797299"><ele>217.0</ele><time>2026-04-26T07:58:59Z</time></trkpt><trkpt lat="45.59158403586674" lon="10.768462327297065"><ele>217.0</ele><time>2026-04-26T07:59:00Z</time></trkpt><trkpt lat="45.591624919157574" lon="10.76857389208549"><ele>217.0</ele><time>2026-04-26T07:59:01Z</time></trkpt><trkpt lat="45.59165622361359" lon="10.76868192491344"><ele>216.99999999999997</ele><time>2026-04-26T07:59:02Z</time></trkpt><trkpt lat="45.59168984529221" lon="10.768794208572853"><ele>217.0</ele><time>2026-04-26T07:59:03Z</time></trkpt><trkpt lat="45.5917136056311" lon="10.76889831801997"><ele>217.0</ele><time>2026-04-26T07:59:04Z</time></trkpt><trkpt lat="45.59174232781638" lon="10.769009231901999"><ele>217.0</ele><time>2026-04-26T07:59:05Z</time></trkpt><trkpt lat="45.591774877460196" lon="10.769129792421065"><ele>217.0</ele><time>2026-04-26T07:59:06Z</time></trkpt><trkpt lat="45.59181614492632" lon="10.769229791047291"><ele>217.0</ele><time>2026-04-26T07:59:07Z</time></trkpt><trkpt lat="45.59186704542385" lon="10.769330582882608"><ele>217.0</ele><time>2026-04-26T07:59:08Z</time></trkpt><trkpt lat="45.59194111716003" lon="10.769466606661071"><ele>217.5</ele><time>2026-04-26T07:59:09Z</time></trkpt><trkpt lat="45.59203527809888" lon="10.769670232051919"><ele>218.0</ele><time>2026-04-26T07:59:10Z</time></trkpt><trkpt lat="45.59212400633354" lon="10.769823658080329"><ele>218.5</ele><time>2026-04-26T07:59:11Z</time></trkpt><trkpt lat="45.59220429806466" lon="10.769961094119187"><ele>219.0</ele><time>2026-04-26T07:59:12Z</time></trkpt><trkpt lat="45.59227570518005" lon="10.770090503361518"><ele>219.0</ele><time>2026-04-26T07:59:13Z</time></trkpt><trkpt lat="45.5923313949521" lon="10.770202001420438"><ele>219.0</ele><time>2026-04-26T07:59:14Z</time></trkpt><trkpt lat="45.59237802782966" lon="10.770304703425555"><ele>219.0</ele><time>2026-04-26T07:59:15Z</time></trkpt><trkpt lat="45.59242086701061" lon="10.770395738199216"><ele>219.0</ele><time>2026-04-26T07:59:16Z</time></trkpt><trkpt lat="45.59247383241586" lon="10.770490409855785"><ele>219.0</ele><time>2026-04-26T07:59:17Z</time></trkpt><trkpt lat="45.59252549116966" lon="10.770562329004663"><ele>219.0</ele><time>2026-04-26T07:59:18Z</time></trkpt><trkpt lat="45.59259819186213" lon="10.770642818746587"><ele>219.0</ele><time>2026-04-26T07:59:19Z</time></trkpt><trkpt lat="45.592676087177615" lon="10.770721174612017"><ele>219.0</ele><time>2026-04-26T07:59:20Z</time></trkpt><trkpt lat="45.59273944351115" lon="10.77079573393292"><ele>219.0</ele><time>2026-04-26T07:59:21Z</time></trkpt><trkpt lat="45.59279921301321" lon="10.770890426649649"><ele>219.0</ele><time>2026-04-26T07:59:22Z</time></trkpt><trkpt lat="45.59285478488551" lon="10.770984760890459"><ele>219.0</ele><time>2026-04-26T07:59:23Z</time></trkpt><trkpt lat="45.592912631355674" lon="10.771077885623757"><ele>219.0</ele><time>2026-04-26T07:59:24Z</time></trkpt><trkpt lat="45.59299262919695" lon="10.77117510859501"><ele>219.2</ele><time>2026-04-26T07:59:25Z</time></trkpt><trkpt lat="45.59308925359278" lon="10.771267113643946"><ele>219.39999999999998</ele><time>2026-04-26T07:59:26Z</time></trkpt><trkpt lat="45.59318541405165" lon="10.771356175762813"><ele>219.6</ele><time>2026-04-26T07:59:27Z</time></trkpt><trkpt lat="45.593264975688" lon="10.771438767018163"><ele>219.8</ele><time>2026-04-26T07:59:28Z</time></trkpt><trkpt lat="45.59334298090983" lon="10.771529131305257"><ele>220.0</ele><time>2026-04-26T07:59:29Z</time></trkpt><trkpt lat="45.593419893993726" lon="10.771638013805195"><ele>220.0</ele><time>2026-04-26T07:59:30Z</time></trkpt><trkpt lat="45.593495733567444" lon="10.77174837490053"><ele>220.0</ele><time>2026-04-26T07:59:31Z</time></trkpt><trkpt lat="45.593569986730415" lon="10.771850074301877"><ele>220.0</ele><time>2026-04-26T07:59:32Z</time></trkpt><trkpt lat="45.593648038561994" lon="10.771961452728226"><ele>220.0</ele><time>2026-04-26T07:59:33Z</time></trkpt><trkpt lat="45.59372922951726" lon="10.772060638471858"><ele>220.0</ele><time>2026-04-26T07:59:34Z</time></trkpt><trkpt lat="45.593819960655686" lon="10.772136561191028"><ele>220.2</ele><time>2026-04-26T07:59:35Z</time></trkpt><trkpt lat="45.59391723505593" lon="10.772209483738877"><ele>220.4</ele><time>2026-04-26T07:59:36Z</time></trkpt><trkpt lat="45.59400991614925" lon="10.77228545465277"><ele>220.60000000000002</ele><time>2026-04-26T07:59:37Z</time></trkpt><trkpt lat="45.594102028809516" lon="10.772377739213674"><ele>220.8</ele><time>2026-04-26T07:59:38Z</time></trkpt><trkpt lat="45.59418772929048" lon="10.772456425971937"><ele>221.0</ele><time>2026-04-26T07:59:39Z</time></trkpt><trkpt lat="45.59427345517557" lon="10.772519738395124"><ele>221.00000000000003</ele><time>2026-04-26T07:59:40Z</time></trkpt><trkpt lat="45.59435075609205" lon="10.772564872019121"><ele>221.0</ele><time>2026-04-26T07:59:41Z</time></trkpt><trkpt lat="45.59442328686682" lon="10.772604074927452"><ele>221.0</ele><time>2026-04-26T07:59:42Z</time></trkpt><trkpt lat="45.59448351490007" lon="10.772639710546647"><ele>221.0</ele><time>2026-04-26T07:59:43Z</time></trkpt><trkpt lat="45.594588429506125" lon="10.772732322032558"><ele>221.00000000000003</ele><time>2026-04-26T07:59:45.001Z</time></trkpt><trkpt lat="45.59464260009285" lon="10.772784121361276"><ele>221.0</ele><time>2026-04-26T07:59:46.001Z</time></trkpt><trkpt lat="45.59470177649832" lon="10.772884242374543"><ele>221.4</ele><time>2026-04-26T07:59:47.001Z</time></trkpt><trkpt lat="45.59477022924766" lon="10.772944352841428"><ele>221.8</ele><time>2026-04-26T07:59:48.001Z</time></trkpt><trkpt lat="45.5948380940923" lon="10.773003941556862"><ele>222.20000000000002</ele><time>2026-04-26T07:59:49.001Z</time></trkpt><trkpt lat="45.5949181510652" lon="10.773066325769122"><ele>222.60000000000002</ele><time>2026-04-26T07:59:50.001Z</time></trkpt><trkpt lat="45.59503037212097" lon="10.77310548159142"><ele>223.0</ele><time>2026-04-26T07:59:51.001Z</time></trkpt><trkpt lat="45.59513550481138" lon="10.773155343071005"><ele>223.0</ele><time>2026-04-26T07:59:52.001Z</time></trkpt><trkpt lat="45.595232693943636" lon="10.773207992052544"><ele>223.0</ele><time>2026-04-26T07:59:53.001Z</time></trkpt><trkpt lat="45.59532507839165" lon="10.773237415044404"><ele>223.0</ele><time>2026-04-26T07:59:54.001Z</time></trkpt><trkpt lat="45.595418224031526" lon="10.773257186388351"><ele>223.0</ele><time>2026-04-26T07:59:55.001Z</time></trkpt><trkpt lat="45.59552753306707" lon="10.773258330339152"><ele>223.0</ele><time>2026-04-26T07:59:56.001Z</time></trkpt><trkpt lat="45.59563050387839" lon="10.773243120357645"><ele>222.8</ele><time>2026-04-26T07:59:57.001Z</time></trkpt><trkpt lat="45.59573894221071" lon="10.773244481717795"><ele>222.60000000000002</ele><time>2026-04-26T07:59:58.001Z</time></trkpt><trkpt lat="45.59583224524639" lon="10.773277004877658"><ele>222.39999999999998</ele><time>2026-04-26T07:59:59.001Z</time></trkpt><trkpt lat="45.59593064793973" lon="10.773359485076908"><ele>222.2</ele><time>2026-04-26T08:00:00Z</time></trkpt><trkpt lat="45.596036985444165" lon="10.773450154464346"><ele>222.0</ele><time>2026-04-26T08:00:01Z</time></trkpt><trkpt lat="45.5961398460237" lon="10.773582619583495"><ele>222.39999999999998</ele><time>2026-04-26T08:00:02Z</time></trkpt><trkpt lat="45.5962476044989" lon="10.77367570761382"><ele>222.79999999999998</ele><time>2026-04-26T08:00:03Z</time></trkpt><trkpt lat="45.5963359782575" lon="10.7737698709381"><ele>223.2</ele><time>2026-04-26T08:00:04Z</time></trkpt><trkpt lat="45.596422737589684" lon="10.773851271706548"><ele>223.6</ele><time>2026-04-26T08:00:05Z</time></trkpt><trkpt lat="45.59649767868382" lon="10.773894814699103"><ele>224.0</ele><time>2026-04-26T08:00:06Z</time></trkpt><trkpt lat="45.59658998546193" lon="10.773960196749568"><ele>224.00000000000003</ele><time>2026-04-26T08:00:08Z</time></trkpt><trkpt lat="45.59663667425431" lon="10.774023295105456"><ele>224.0</ele><time>2026-04-26T08:00:11Z</time></trkpt><trkpt lat="45.59656955424101" lon="10.774064256877933"><ele>224.0</ele><time>2026-04-26T08:00:12Z</time></trkpt><trkpt lat="45.59651362953985" lon="10.77412775080345"><ele>224.0</ele><time>2026-04-26T08:00:13Z</time></trkpt><trkpt lat="45.59644835285572" lon="10.774205819124898"><ele>224.00000000000003</ele><time>2026-04-26T08:00:14Z</time></trkpt><trkpt lat="45.596391963903756" lon="10.774278521691434"><ele>224.0</ele><time>2026-04-26T08:00:15Z</time></trkpt><trkpt lat="45.59632312528244" lon="10.774371786392527"><ele>224.0</ele><time>2026-04-26T08:00:16Z</time></trkpt><trkpt lat="45.59623179189007" lon="10.774537288929178"><ele>224.0</ele><time>2026-04-26T08:00:17Z</time></trkpt><trkpt lat="45.596122968443375" lon="10.774716743715233"><ele>224.0</ele><time>2026-04-26T08:00:18Z</time></trkpt><trkpt lat="45.59601205698699" lon="10.774913882173612"><ele>223.66666666666669</ele><time>2026-04-26T08:00:19Z</time></trkpt><trkpt lat="45.595883945533345" lon="10.775063090137287"><ele>223.33333333333331</ele><time>2026-04-26T08:00:20Z</time></trkpt><trkpt lat="45.595746159268565" lon="10.77518243973528"><ele>223.0</ele><time>2026-04-26T08:00:21Z</time></trkpt><trkpt lat="45.59559713870121" lon="10.775315809175687"><ele>224.0</ele><time>2026-04-26T08:00:22Z</time></trkpt><trkpt lat="45.59544019967258" lon="10.775421177488454"><ele>225.0</ele><time>2026-04-26T08:00:23Z</time></trkpt><trkpt lat="45.59529546355426" lon="10.775547412947127"><ele>226.0</ele><time>2026-04-26T08:00:24Z</time></trkpt><trkpt lat="45.59515043913878" lon="10.775682159392924"><ele>226.0</ele><time>2026-04-26T08:00:25Z</time></trkpt><trkpt lat="45.594999508040615" lon="10.77582062022623"><ele>226.0</ele><time>2026-04-26T08:00:26Z</time></trkpt><trkpt lat="45.59485372555526" lon="10.775966250249985"><ele>226.0</ele><time>2026-04-26T08:00:27Z</time></trkpt><trkpt lat="45.59471270262087" lon="10.77611831799158"><ele>226.33333333333331</ele><time>2026-04-26T08:00:28Z</time></trkpt><trkpt lat="45.59457139512617" lon="10.776286147780345"><ele>226.66666666666669</ele><time>2026-04-26T08:00:29Z</time></trkpt><trkpt lat="45.59443551912462" lon="10.776455865053052"><ele>227.0</ele><time>2026-04-26T08:00:30Z</time></trkpt><trkpt lat="45.59429897528828" lon="10.776630385961477"><ele>226.33333333333334</ele><time>2026-04-26T08:00:31Z</time></trkpt><trkpt lat="45.594157129395676" lon="10.77680816649873"><ele>225.66666666666669</ele><time>2026-04-26T08:00:32Z</time></trkpt><trkpt lat="45.59402336809292" lon="10.776973387477184"><ele>225.0</ele><time>2026-04-26T08:00:33Z</time></trkpt><trkpt lat="45.59389388800651" lon="10.777126507376455"><ele>224.66666666666669</ele><time>2026-04-26T08:00:34Z</time></trkpt><trkpt lat="45.59376957194376" lon="10.77727943250161"><ele>224.33333333333334</ele><time>2026-04-26T08:00:35Z</time></trkpt><trkpt lat="45.59363916840938" lon="10.777442283620136"><ele>224.0</ele><time>2026-04-26T08:00:36Z</time></trkpt><trkpt lat="45.59350211013149" lon="10.777614046563068"><ele>224.0</ele><time>2026-04-26T08:00:37Z</time></trkpt><trkpt lat="45.59335843830212" lon="10.777784763950635"><ele>224.0</ele><time>2026-04-26T08:00:38Z</time></trkpt><trkpt lat="45.593211117800905" lon="10.777948859693137"><ele>224.0</ele><time>2026-04-26T08:00:39Z</time></trkpt><trkpt lat="45.59307720406364" lon="10.778095840864973"><ele>224.0</ele><time>2026-04-26T08:00:40Z</time></trkpt><trkpt lat="45.59294942461784" lon="10.778245837556112"><ele>224.0</ele><time>2026-04-26T08:00:41Z</time></trkpt><trkpt lat="45.59282327722272" lon="10.7783930862437"><ele>224.0</ele><time>2026-04-26T08:00:42Z</time></trkpt><trkpt lat="45.59269647084131" lon="10.778542067561887"><ele>224.5</ele><time>2026-04-26T08:00:43Z</time></trkpt><trkpt lat="45.59258267296619" lon="10.778688522131"><ele>225.0</ele><time>2026-04-26T08:00:44Z</time></trkpt><trkpt lat="45.59248459384698" lon="10.778832599384673"><ele>225.5</ele><time>2026-04-26T08:00:45Z</time></trkpt><trkpt lat="45.59240945700381" lon="10.77897179066478"><ele>226.0</ele><time>2026-04-26T08:00:46Z</time></trkpt><trkpt lat="45.59237357748016" lon="10.779108156913846"><ele>226.0</ele><time>2026-04-26T08:00:47Z</time></trkpt><trkpt lat="45.59234791977001" lon="10.779240256264465"><ele>226.00000000000003</ele><time>2026-04-26T08:00:48Z</time></trkpt><trkpt lat="45.59230875214798" lon="10.779362127984973"><ele>226.00000000000003</ele><time>2026-04-26T08:00:49Z</time></trkpt><trkpt lat="45.59229535126274" lon="10.77950319674006"><ele>226.0</ele><time>2026-04-26T08:00:50Z</time></trkpt><trkpt lat="45.59224153416265" lon="10.779630894736151"><ele>226.0</ele><time>2026-04-26T08:00:51Z</time></trkpt><trkpt lat="45.59216973565557" lon="10.77974460130128"><ele>226.5</ele><time>2026-04-26T08:00:52Z</time></trkpt><trkpt lat="45.59209809823768" lon="10.779862811142367"><ele>227.0</ele><time>2026-04-26T08:00:53Z</time></trkpt><trkpt lat="45.59202373802255" lon="10.780000949182014"><ele>227.5</ele><time>2026-04-26T08:00:54Z</time></trkpt><trkpt lat="45.59192314691134" lon="10.780155614276087"><ele>228.0</ele><time>2026-04-26T08:00:54.999Z</time></trkpt><trkpt lat="45.59182795849288" lon="10.780303162270519"><ele>229.2</ele><time>2026-04-26T08:00:55.999Z</time></trkpt><trkpt lat="45.59175299503751" lon="10.780438515353515"><ele>230.4</ele><time>2026-04-26T08:00:56.999Z</time></trkpt><trkpt lat="45.59169473402041" lon="10.780559940447143"><ele>231.59999999999997</ele><time>2026-04-26T08:00:57.999Z</time></trkpt><trkpt lat="45.59165660204804" lon="10.780655622780714"><ele>232.79999999999998</ele><time>2026-04-26T08:00:58.999Z</time></trkpt><trkpt lat="45.59164191740278" lon="10.780784911699048"><ele>234.0</ele><time>2026-04-26T08:01:00.999Z</time></trkpt><trkpt lat="45.59167061954741" lon="10.780875258486443"><ele>235.2</ele><time>2026-04-26T08:01:02.999Z</time></trkpt><trkpt lat="45.591610261741245" lon="10.781043151207935"><ele>236.39999999999998</ele><time>2026-04-26T08:01:05.999Z</time></trkpt><trkpt lat="45.591546719139934" lon="10.781200606478299"><ele>237.6</ele><time>2026-04-26T08:01:07.999Z</time></trkpt><trkpt lat="45.59151771275862" lon="10.781281105695944"><ele>238.8</ele><time>2026-04-26T08:01:08.999Z</time></trkpt><trkpt lat="45.59147490402163" lon="10.781430259713995"><ele>240.0</ele><time>2026-04-26T08:01:10.999Z</time></trkpt><trkpt lat="45.59143997534392" lon="10.78154957912798"><ele>240.0</ele><time>2026-04-26T08:01:12.999Z</time></trkpt><trkpt lat="45.591416508551184" lon="10.781679229396369"><ele>240.0</ele><time>2026-04-26T08:01:14.999Z</time></trkpt><trkpt lat="45.591398187561026" lon="10.781831555870351"><ele>240.0</ele><time>2026-04-26T08:01:16.999Z</time></trkpt><trkpt lat="45.59137229024161" lon="10.781975262095495"><ele>240.0</ele><time>2026-04-26T08:01:19.999Z</time></trkpt><trkpt lat="45.59133883804355" lon="10.782057798204274"><ele>240.0</ele><time>2026-04-26T08:01:21.999Z</time></trkpt><trkpt lat="45.591252416245865" lon="10.782051462483848"><ele>241.0</ele><time>2026-04-26T08:01:23.999Z</time></trkpt><trkpt lat="45.59117624371399" lon="10.78198990819932"><ele>242.0</ele><time>2026-04-26T08:01:25.999Z</time></trkpt><trkpt lat="45.59108484202694" lon="10.78191753905183"><ele>243.0</ele><time>2026-04-26T08:01:27.999Z</time></trkpt><trkpt lat="45.590990098537354" lon="10.781795753384896"><ele>244.0</ele><time>2026-04-26T08:01:29.999Z</time></trkpt><trkpt lat="45.590900448952" lon="10.781706388409509"><ele>245.0</ele><time>2026-04-26T08:01:31.999Z</time></trkpt><trkpt lat="45.59083195080128" lon="10.781631797621866"><ele>245.4</ele><time>2026-04-26T08:01:33.999Z</time></trkpt><trkpt lat="45.59076141589078" lon="10.781552746323676"><ele>245.8</ele><time>2026-04-26T08:01:35.999Z</time></trkpt><trkpt lat="45.59067464615976" lon="10.781454030128591"><ele>246.2</ele><time>2026-04-26T08:01:37.999Z</time></trkpt><trkpt lat="45.59055741414114" lon="10.781357731015756"><ele>246.6</ele><time>2026-04-26T08:01:39.999Z</time></trkpt><trkpt lat="45.59049575115214" lon="10.781307459944598"><ele>247.0</ele><time>2026-04-26T08:01:40.999Z</time></trkpt><trkpt lat="45.59043961567962" lon="10.78124985981284"><ele>247.0</ele><time>2026-04-26T08:01:41.999Z</time></trkpt><trkpt lat="45.59039206724973" lon="10.78117646965668"><ele>247.0</ele><time>2026-04-26T08:01:42.999Z</time></trkpt><trkpt lat="45.59032909316709" lon="10.78113827817608"><ele>247.0</ele><time>2026-04-26T08:01:43.999Z</time></trkpt><trkpt lat="45.59023150902468" lon="10.781035585157086"><ele>247.0</ele><time>2026-04-26T08:01:45.999Z</time></trkpt><trkpt lat="45.590145523385814" lon="10.780944374459711"><ele>247.0</ele><time>2026-04-26T08:01:47.999Z</time></trkpt><trkpt lat="45.59007832947111" lon="10.780873005949234"><ele>246.8</ele><time>2026-04-26T08:01:50Z</time></trkpt><trkpt lat="45.59002650454642" lon="10.780801394298116"><ele>246.6</ele><time>2026-04-26T08:01:54Z</time></trkpt><trkpt lat="45.58993172092202" lon="10.78094599570836"><ele>246.40000000000003</ele><time>2026-04-26T08:01:56Z</time></trkpt><trkpt lat="45.58987141141414" lon="10.781060694248385"><ele>246.20000000000002</ele><time>2026-04-26T08:03:05Z</time></trkpt><trkpt lat="45.58980810350132" lon="10.781201282921014"><ele>246.0</ele><time>2026-04-26T08:03:07Z</time></trkpt><trkpt lat="45.589771384420914" lon="10.781279328104564"><ele>246.0</ele><time>2026-04-26T08:03:08Z</time></trkpt><trkpt lat="45.58975131421272" lon="10.781371641580325"><ele>246.0</ele><time>2026-04-26T08:03:09Z</time></trkpt><trkpt lat="45.589736309888536" lon="10.781464483230504"><ele>246.0</ele><time>2026-04-26T08:03:10Z</time></trkpt><trkpt lat="45.58972021727404" lon="10.781569235397729"><ele>246.0</ele><time>2026-04-26T08:03:11Z</time></trkpt><trkpt lat="45.58970385443683" lon="10.781678871986008"><ele>246.0</ele><time>2026-04-26T08:03:12Z</time></trkpt><trkpt lat="45.5896909738206" lon="10.781769361031655"><ele>246.0</ele><time>2026-04-26T08:03:13Z</time></trkpt><trkpt lat="45.58966214298623" lon="10.78196256516719"><ele>246.16666666666666</ele><time>2026-04-26T08:03:15Z</time></trkpt><trkpt lat="45.58963760581815" lon="10.782079667526782"><ele>246.33333333333331</ele><time>2026-04-26T08:03:16Z</time></trkpt><trkpt lat="45.58960409651998" lon="10.782193831032188"><ele>246.5</ele><time>2026-04-26T08:03:17Z</time></trkpt><trkpt lat="45.5895743911658" lon="10.78229205883937"><ele>246.66666666666666</ele><time>2026-04-26T08:03:18Z</time></trkpt><trkpt lat="45.58954021336433" lon="10.782407323970697"><ele>246.83333333333331</ele><time>2026-04-26T08:03:20Z</time></trkpt><trkpt lat="45.58951522658497" lon="10.782491591002378"><ele>247.0</ele><time>2026-04-26T08:03:23Z</time></trkpt><trkpt lat="45.58949177781486" lon="10.782582136827818"><ele>247.39999999999998</ele><time>2026-04-26T08:05:35Z</time></trkpt><trkpt lat="45.58943138879321" lon="10.78267460618535"><ele>247.79999999999998</ele><time>2026-04-26T08:05:47Z</time></trkpt><trkpt lat="45.58933955979293" lon="10.782795744400568"><ele>248.2</ele><time>2026-04-26T08:05:49Z</time></trkpt><trkpt lat="45.5892877574096" lon="10.782888666496474"><ele>248.6</ele><time>2026-04-26T08:05:50Z</time></trkpt><trkpt lat="45.5892344822248" lon="10.782992461272379"><ele>249.0</ele><time>2026-04-26T08:05:51Z</time></trkpt><trkpt lat="45.589179299067" lon="10.783112127825223"><ele>250.75</ele><time>2026-04-26T08:05:52Z</time></trkpt><trkpt lat="45.589117198746784" lon="10.783241779297194"><ele>252.5</ele><time>2026-04-26T08:05:53Z</time></trkpt><trkpt lat="45.58907560675036" lon="10.783354584635031"><ele>254.25</ele><time>2026-04-26T08:05:54Z</time></trkpt><trkpt lat="45.58897956961421" lon="10.783500264860884"><ele>256.0</ele><time>2026-04-26T08:05:55Z</time></trkpt><trkpt lat="45.58888312499872" lon="10.783672242380892"><ele>256.40000000000003</ele><time>2026-04-26T08:05:56Z</time></trkpt><trkpt lat="45.58880948513972" lon="10.783803486539691"><ele>256.8</ele><time>2026-04-26T08:05:57Z</time></trkpt><trkpt lat="45.58876509183919" lon="10.783882606163605"><ele>257.20000000000005</ele><time>2026-04-26T08:05:58Z</time></trkpt><trkpt lat="45.588712079507644" lon="10.78397708715164"><ele>257.6</ele><time>2026-04-26T08:06:00Z</time></trkpt><trkpt lat="45.58866519133141" lon="10.784060653303598"><ele>258.0</ele><time>2026-04-26T08:06:02Z</time></trkpt><trkpt lat="45.58860987537775" lon="10.784196693869161"><ele>257.99999999999994</ele><time>2026-04-26T08:06:04Z</time></trkpt><trkpt lat="45.58854594641583" lon="10.784271372407689"><ele>258.0</ele><time>2026-04-26T08:06:07Z</time></trkpt><trkpt lat="45.58850710766831" lon="10.784342302286808"><ele>258.0</ele><time>2026-04-26T08:06:09Z</time></trkpt><trkpt lat="45.588465157198556" lon="10.784417162863075"><ele>258.0</ele><time>2026-04-26T08:06:11Z</time></trkpt><trkpt lat="45.588524061175974" lon="10.784496766277243"><ele>258.0</ele><time>2026-04-26T08:06:12Z</time></trkpt><trkpt lat="45.588562865707004" lon="10.78459619223204"><ele>257.99999999999994</ele><time>2026-04-26T08:06:14Z</time></trkpt><trkpt lat="45.588628436920786" lon="10.784611608394583"><ele>258.0</ele><time>2026-04-26T08:06:15Z</time></trkpt><trkpt lat="45.58870876142754" lon="10.784699425005373"><ele>258.5</ele><time>2026-04-26T08:06:16Z</time></trkpt><trkpt lat="45.588798870419836" lon="10.784731146413534"><ele>259.0</ele><time>2026-04-26T08:06:17Z</time></trkpt><trkpt lat="45.588866812020804" lon="10.784779826180563"><ele>259.5</ele><time>2026-04-26T08:06:18Z</time></trkpt><trkpt lat="45.588930510419935" lon="10.7848234350965"><ele>260.0</ele><time>2026-04-26T08:06:19Z</time></trkpt><trkpt lat="45.58899162102982" lon="10.78487452104451"><ele>260.5</ele><time>2026-04-26T08:06:20Z</time></trkpt><trkpt lat="45.589047228079615" lon="10.784937261110223"><ele>261.0</ele><time>2026-04-26T08:06:21Z</time></trkpt><trkpt lat="45.58910502265174" lon="10.784997835024402"><ele>261.0</ele><time>2026-04-26T08:06:22Z</time></trkpt><trkpt lat="45.58916194673621" lon="10.785073574594229"><ele>261.0</ele><time>2026-04-26T08:06:23Z</time></trkpt><trkpt lat="45.58921555783977" lon="10.785151061716723"><ele>261.0</ele><time>2026-04-26T08:06:24Z</time></trkpt><trkpt lat="45.589279559374525" lon="10.78522198307249"><ele>261.0</ele><time>2026-04-26T08:06:25Z</time></trkpt><trkpt lat="45.5893426246572" lon="10.785300089199385"><ele>261.0</ele><time>2026-04-26T08:06:26Z</time></trkpt><trkpt lat="45.589411667145534" lon="10.785383028573289"><ele>261.0</ele><time>2026-04-26T08:06:27Z</time></trkpt><trkpt lat="45.58947984516945" lon="10.785470775155055"><ele>261.6666666666667</ele><time>2026-04-26T08:06:28Z</time></trkpt><trkpt lat="45.58954300152201" lon="10.785553968941446"><ele>262.3333333333333</ele><time>2026-04-26T08:06:29Z</time></trkpt><trkpt lat="45.58960534768584" lon="10.785635109328899"><ele>263.0</ele><time>2026-04-26T08:06:30Z</time></trkpt><trkpt lat="45.58967085077863" lon="10.78572509400196"><ele>263.66666666666663</ele><time>2026-04-26T08:06:31Z</time></trkpt><trkpt lat="45.58974775446197" lon="10.78580671589794"><ele>264.3333333333333</ele><time>2026-04-26T08:06:32Z</time></trkpt><trkpt lat="45.58982350852893" lon="10.785871306564092"><ele>265.0</ele><time>2026-04-26T08:06:33Z</time></trkpt><trkpt lat="45.5899013299644" lon="10.785939497597909"><ele>265.6</ele><time>2026-04-26T08:06:34Z</time></trkpt><trkpt lat="45.589982628655726" lon="10.786015956228294"><ele>266.2</ele><time>2026-04-26T08:06:35Z</time></trkpt><trkpt lat="45.590057865009555" lon="10.786091040953709"><ele>266.8</ele><time>2026-04-26T08:06:36Z</time></trkpt><trkpt lat="45.59013669685254" lon="10.786173245639356"><ele>267.4</ele><time>2026-04-26T08:06:37Z</time></trkpt><trkpt lat="45.59021422541516" lon="10.78625237006532"><ele>268.0</ele><time>2026-04-26T08:06:38Z</time></trkpt><trkpt lat="45.590294117979546" lon="10.786339479238992"><ele>267.75</ele><time>2026-04-26T08:06:39Z</time></trkpt><trkpt lat="45.59037939221969" lon="10.786436868228447"><ele>267.5</ele><time>2026-04-26T08:06:40Z</time></trkpt><trkpt lat="45.59043391673155" lon="10.786510150453473"><ele>267.25</ele><time>2026-04-26T08:06:41Z</time></trkpt><trkpt lat="45.59061454995535" lon="10.786692087136135"><ele>267.0</ele><time>2026-04-26T08:06:43Z</time></trkpt><trkpt lat="45.590675551452776" lon="10.786766401480953"><ele>268.2</ele><time>2026-04-26T08:06:44Z</time></trkpt><trkpt lat="45.59074045077214" lon="10.786852139189923"><ele>269.4</ele><time>2026-04-26T08:06:45Z</time></trkpt><trkpt lat="45.59079549662379" lon="10.78695250524327"><ele>270.6</ele><time>2026-04-26T08:06:46Z</time></trkpt><trkpt lat="45.59085855883304" lon="10.78703495584918"><ele>271.8</ele><time>2026-04-26T08:06:47Z</time></trkpt><trkpt lat="45.59092720605466" lon="10.787096288151812"><ele>273.0</ele><time>2026-04-26T08:06:48Z</time></trkpt><trkpt lat="45.59101217756346" lon="10.787210330740988"><ele>273.0</ele><time>2026-04-26T08:06:49Z</time></trkpt><trkpt lat="45.59108925042298" lon="10.787332711805924"><ele>273.0</ele><time>2026-04-26T08:06:50Z</time></trkpt><trkpt lat="45.59118438978614" lon="10.787428324310152"><ele>273.0</ele><time>2026-04-26T08:06:51Z</time></trkpt><trkpt lat="45.591287613589856" lon="10.78754438442455"><ele>273.0</ele><time>2026-04-26T08:06:52Z</time></trkpt><trkpt lat="45.59138985687869" lon="10.787667830356996"><ele>272.75</ele><time>2026-04-26T08:06:53Z</time></trkpt><trkpt lat="45.591471915610136" lon="10.787782257818417"><ele>272.5</ele><time>2026-04-26T08:06:54Z</time></trkpt><trkpt lat="45.59155606403253" lon="10.787880821066272"><ele>272.25</ele><time>2026-04-26T08:06:55Z</time></trkpt><trkpt lat="45.591641964950554" lon="10.788013093510589"><ele>272.0</ele><time>2026-04-26T08:06:56Z</time></trkpt><trkpt lat="45.591748068244776" lon="10.78812735163053"><ele>272.0</ele><time>2026-04-26T08:06:57Z</time></trkpt><trkpt lat="45.59186221028062" lon="10.788218553383688"><ele>272.0</ele><time>2026-04-26T08:06:58Z</time></trkpt><trkpt lat="45.5919522707206" lon="10.788340480385408"><ele>272.0</ele><time>2026-04-26T08:06:59Z</time></trkpt><trkpt lat="45.59203044308232" lon="10.78842047390459"><ele>272.0</ele><time>2026-04-26T08:07:00Z</time></trkpt><trkpt lat="45.59209697929048" lon="10.788470191752845"><ele>272.0</ele><time>2026-04-26T08:07:01Z</time></trkpt><trkpt lat="45.59216227760575" lon="10.788551545136244"><ele>272.1666666666667</ele><time>2026-04-26T08:07:02Z</time></trkpt><trkpt lat="45.592206144143724" lon="10.788658222633172"><ele>272.33333333333337</ele><time>2026-04-26T08:07:03Z</time></trkpt><trkpt lat="45.59226360374882" lon="10.788728049319154"><ele>272.5</ele><time>2026-04-26T08:07:04Z</time></trkpt><trkpt lat="45.592313375321076" lon="10.788803817236447"><ele>272.6666666666667</ele><time>2026-04-26T08:07:05Z</time></trkpt><trkpt lat="45.59236924553245" lon="10.78885732155131"><ele>272.8333333333333</ele><time>2026-04-26T08:07:06Z</time></trkpt><trkpt lat="45.59244552904507" lon="10.788896646288674"><ele>273.0</ele><time>2026-04-26T08:07:07Z</time></trkpt><trkpt lat="45.59253182182213" lon="10.788934980935991"><ele>273.0</ele><time>2026-04-26T08:07:08Z</time></trkpt><trkpt lat="45.59259179465701" lon="10.789027771349804"><ele>273.0</ele><time>2026-04-26T08:07:09Z</time></trkpt><trkpt lat="45.59265951441488" lon="10.789119292804749"><ele>273.0</ele><time>2026-04-26T08:07:10Z</time></trkpt><trkpt lat="45.59274898710268" lon="10.78920439102046"><ele>273.0</ele><time>2026-04-26T08:07:11Z</time></trkpt><trkpt lat="45.59281408886051" lon="10.789314806238606"><ele>273.0</ele><time>2026-04-26T08:07:12Z</time></trkpt><trkpt lat="45.592881315691955" lon="10.789398220656892"><ele>273.8</ele><time>2026-04-26T08:07:13Z</time></trkpt><trkpt lat="45.59294696063718" lon="10.789450703890141"><ele>274.6</ele><time>2026-04-26T08:07:14Z</time></trkpt><trkpt lat="45.5930286405434" lon="10.789565311060572"><ele>275.4</ele><time>2026-04-26T08:07:16Z</time></trkpt><trkpt lat="45.593067912967015" lon="10.789700304598558"><ele>276.2</ele><time>2026-04-26T08:07:18Z</time></trkpt><trkpt lat="45.59299747489321" lon="10.78979510653809"><ele>277.0</ele><time>2026-04-26T08:07:20Z</time></trkpt><trkpt lat="45.59290905563917" lon="10.789923099206941"><ele>277.0</ele><time>2026-04-26T08:07:22Z</time></trkpt><trkpt lat="45.59285448473356" lon="10.789988315054917"><ele>277.0</ele><time>2026-04-26T08:07:23Z</time></trkpt><trkpt lat="45.5927992294185" lon="10.790063817547153"><ele>277.0</ele><time>2026-04-26T08:07:25Z</time></trkpt><trkpt lat="45.592883636408715" lon="10.790187583045013"><ele>277.0</ele><time>2026-04-26T08:07:27Z</time></trkpt><trkpt lat="45.592942323687794" lon="10.790253778669745"><ele>277.0</ele><time>2026-04-26T08:07:28Z</time></trkpt><trkpt lat="45.59300876377225" lon="10.790336038395514"><ele>277.0</ele><time>2026-04-26T08:07:29Z</time></trkpt><trkpt lat="45.59306307131211" lon="10.790405484616173"><ele>277.4</ele><time>2026-04-26T08:07:30Z</time></trkpt><trkpt lat="45.593145482323145" lon="10.790513802949777"><ele>277.79999999999995</ele><time>2026-04-26T08:07:32Z</time></trkpt><trkpt lat="45.593215455860545" lon="10.790637166692354"><ele>278.2</ele><time>2026-04-26T08:07:34Z</time></trkpt><trkpt lat="45.59330274205599" lon="10.790718950622951"><ele>278.59999999999997</ele><time>2026-04-26T08:07:36Z</time></trkpt><trkpt lat="45.593344538864976" lon="10.790794052276343"><ele>279.0</ele><time>2026-04-26T08:07:37Z</time></trkpt><trkpt lat="45.59341877619776" lon="10.790838856271817"><ele>279.0</ele><time>2026-04-26T08:07:38Z</time></trkpt><trkpt lat="45.59344201141376" lon="10.791000366051168"><ele>279.0</ele><time>2026-04-26T08:07:39Z</time></trkpt><trkpt lat="45.59349636336806" lon="10.79109806988553"><ele>279.0</ele><time>2026-04-26T08:07:40Z</time></trkpt><trkpt lat="45.593549117618196" lon="10.791172087394264"><ele>279.0</ele><time>2026-04-26T08:07:41Z</time></trkpt><trkpt lat="45.59361770677048" lon="10.791248582378088"><ele>279.0</ele><time>2026-04-26T08:07:42Z</time></trkpt><trkpt lat="45.59369175707871" lon="10.791334352932385"><ele>279.5</ele><time>2026-04-26T08:07:43Z</time></trkpt><trkpt lat="45.59375370588076" lon="10.791420527972969"><ele>280.0</ele><time>2026-04-26T08:07:44Z</time></trkpt><trkpt lat="45.5938073069503" lon="10.791489745242094"><ele>280.5</ele><time>2026-04-26T08:07:45Z</time></trkpt><trkpt lat="45.593854154364045" lon="10.79155671430921"><ele>281.0</ele><time>2026-04-26T08:07:46Z</time></trkpt><trkpt lat="45.59390206697274" lon="10.791639490023263"><ele>281.5</ele><time>2026-04-26T08:07:47Z</time></trkpt><trkpt lat="45.59394378380212" lon="10.791738306841877"><ele>282.0</ele><time>2026-04-26T08:07:48Z</time></trkpt><trkpt lat="45.593980848814" lon="10.791861617390738"><ele>282.6666666666667</ele><time>2026-04-26T08:07:49Z</time></trkpt><trkpt lat="45.594014984130915" lon="10.791992065239787"><ele>283.3333333333333</ele><time>2026-04-26T08:07:50Z</time></trkpt><trkpt lat="45.59405081543488" lon="10.792098278645465"><ele>284.0</ele><time>2026-04-26T08:07:51Z</time></trkpt><trkpt lat="45.59410023907305" lon="10.79218772735521"><ele>284.66666666666663</ele><time>2026-04-26T08:07:52Z</time></trkpt><trkpt lat="45.59415746391568" lon="10.7922646011519"><ele>285.3333333333333</ele><time>2026-04-26T08:07:53Z</time></trkpt><trkpt lat="45.59421237615449" lon="10.79233466285588"><ele>286.0</ele><time>2026-04-26T08:07:54Z</time></trkpt><trkpt lat="45.59431907873502" lon="10.792435093695046"><ele>286.0</ele><time>2026-04-26T08:07:56Z</time></trkpt><trkpt lat="45.594366878624406" lon="10.792510297760526"><ele>286.0</ele><time>2026-04-26T08:07:57Z</time></trkpt><trkpt lat="45.594425394672406" lon="10.792609884719363"><ele>286.0</ele><time>2026-04-26T08:07:58Z</time></trkpt><trkpt lat="45.59448684674572" lon="10.79270038711533"><ele>286.0</ele><time>2026-04-26T08:07:59Z</time></trkpt><trkpt lat="45.59455123725101" lon="10.7928055527553"><ele>286.0</ele><time>2026-04-26T08:08:00Z</time></trkpt><trkpt lat="45.59460299617776" lon="10.792899406533241"><ele>286.0</ele><time>2026-04-26T08:08:01Z</time></trkpt><trkpt lat="45.594652844615325" lon="10.7929877380441"><ele>285.8333333333333</ele><time>2026-04-26T08:08:02Z</time></trkpt><trkpt lat="45.59474500740906" lon="10.793136118863371"><ele>285.66666666666663</ele><time>2026-04-26T08:08:04Z</time></trkpt><trkpt lat="45.59478978688424" lon="10.793232823954988"><ele>285.5</ele><time>2026-04-26T08:08:05Z</time></trkpt><trkpt lat="45.59482962003626" lon="10.793314736974324"><ele>285.3333333333333</ele><time>2026-04-26T08:08:06Z</time></trkpt><trkpt lat="45.59487615625954" lon="10.79339655028835"><ele>285.1666666666667</ele><time>2026-04-26T08:08:07Z</time></trkpt><trkpt lat="45.594928456759284" lon="10.793477043605316"><ele>285.0</ele><time>2026-04-26T08:08:08Z</time></trkpt><trkpt lat="45.59498761796671" lon="10.793560435464185"><ele>284.5</ele><time>2026-04-26T08:08:09Z</time></trkpt><trkpt lat="45.59503937022744" lon="10.793629561883275"><ele>284.0</ele><time>2026-04-26T08:08:10Z</time></trkpt><trkpt lat="45.59509779090138" lon="10.793697371039954"><ele>283.5</ele><time>2026-04-26T08:08:11Z</time></trkpt><trkpt lat="45.59515020164824" lon="10.793764094685839"><ele>283.0</ele><time>2026-04-26T08:08:12Z</time></trkpt><trkpt lat="45.59520345415588" lon="10.793833259576513"><ele>282.5</ele><time>2026-04-26T08:08:13Z</time></trkpt><trkpt lat="45.59527702657489" lon="10.793937901940952"><ele>282.0</ele><time>2026-04-26T08:08:15Z</time></trkpt><trkpt lat="45.59534323925066" lon="10.794035933373017"><ele>282.0</ele><time>2026-04-26T08:08:17Z</time></trkpt><trkpt lat="45.59539236370716" lon="10.79410110800848"><ele>282.0</ele><time>2026-04-26T08:08:18Z</time></trkpt><trkpt lat="45.59543525037194" lon="10.794176288199697"><ele>282.0</ele><time>2026-04-26T08:08:19Z</time></trkpt><trkpt lat="45.59550458360934" lon="10.794308158290853"><ele>282.0</ele><time>2026-04-26T08:08:21Z</time></trkpt><trkpt lat="45.59556421923158" lon="10.794396644926605"><ele>282.0</ele><time>2026-04-26T08:08:23Z</time></trkpt><trkpt lat="45.59560703541248" lon="10.794481454552418"><ele>282.0</ele><time>2026-04-26T08:08:26Z</time></trkpt><trkpt lat="45.59570562272164" lon="10.794522910797996"><ele>282.3333333333333</ele><time>2026-04-26T08:08:29Z</time></trkpt><trkpt lat="45.5957848326175" lon="10.794514904526105"><ele>282.6666666666667</ele><time>2026-04-26T08:08:31Z</time></trkpt><trkpt lat="45.59584656540306" lon="10.794480769638653"><ele>283.0</ele><time>2026-04-26T08:08:33Z</time></trkpt><trkpt lat="45.59592440651276" lon="10.794482228204135"><ele>283.33333333333337</ele><time>2026-04-26T08:09:10Z</time></trkpt><trkpt lat="45.5960181587945" lon="10.794464598204286"><ele>283.6666666666667</ele><time>2026-04-26T08:09:12Z</time></trkpt><trkpt lat="45.596082900045324" lon="10.79445741451586"><ele>284.0</ele><time>2026-04-26T08:09:13Z</time></trkpt><trkpt lat="45.596150791912656" lon="10.794452253125415"><ele>282.83333333333337</ele><time>2026-04-26T08:09:14Z</time></trkpt><trkpt lat="45.59621852731488" lon="10.794428893980664"><ele>281.6666666666667</ele><time>2026-04-26T08:09:15Z</time></trkpt><trkpt lat="45.59628203291644" lon="10.79441229599474"><ele>280.5</ele><time>2026-04-26T08:09:16Z</time></trkpt><trkpt lat="45.59635928150416" lon="10.79438402754861"><ele>279.3333333333333</ele><time>2026-04-26T08:09:17Z</time></trkpt><trkpt lat="45.59644767629064" lon="10.794368346008739"><ele>278.16666666666663</ele><time>2026-04-26T08:09:18Z</time></trkpt><trkpt lat="45.59652545588581" lon="10.794328129287294"><ele>277.0</ele><time>2026-04-26T08:09:19Z</time></trkpt><trkpt lat="45.59661054905338" lon="10.794305134716268"><ele>276.5</ele><time>2026-04-26T08:09:20Z</time></trkpt><trkpt lat="45.596708303882515" lon="10.794296321971974"><ele>276.0</ele><time>2026-04-26T08:09:21Z</time></trkpt><trkpt lat="45.596798761527474" lon="10.79428597788045"><ele>275.5</ele><time>2026-04-26T08:09:22Z</time></trkpt><trkpt lat="45.59688887016465" lon="10.794279970305094"><ele>275.0</ele><time>2026-04-26T08:09:23Z</time></trkpt><trkpt lat="45.59696941564877" lon="10.794279550920605"><ele>274.5</ele><time>2026-04-26T08:09:24Z</time></trkpt><trkpt lat="45.5970443262321" lon="10.794282910807409"><ele>274.0</ele><time>2026-04-26T08:09:25Z</time></trkpt><trkpt lat="45.597116801897684" lon="10.794289891388342"><ele>272.4</ele><time>2026-04-26T08:09:26Z</time></trkpt><trkpt lat="45.59719649148973" lon="10.794306116082055"><ele>270.79999999999995</ele><time>2026-04-26T08:09:27Z</time></trkpt><trkpt lat="45.59728379155862" lon="10.794345871433825"><ele>269.20000000000005</ele><time>2026-04-26T08:09:28Z</time></trkpt><trkpt lat="45.597391805992544" lon="10.794432678135022"><ele>267.6</ele><time>2026-04-26T08:09:29Z</time></trkpt><trkpt lat="45.59752119858455" lon="10.794540506388858"><ele>266.0</ele><time>2026-04-26T08:09:30Z</time></trkpt><trkpt lat="45.59765484168981" lon="10.79462815066022"><ele>266.0</ele><time>2026-04-26T08:09:31Z</time></trkpt><trkpt lat="45.59777247766007" lon="10.794698296004261"><ele>266.0</ele><time>2026-04-26T08:09:32Z</time></trkpt><trkpt lat="45.59787599947603" lon="10.794757709247305"><ele>266.0</ele><time>2026-04-26T08:09:33Z</time></trkpt><trkpt lat="45.59797125563309" lon="10.79481573422243"><ele>266.0</ele><time>2026-04-26T08:09:34Z</time></trkpt><trkpt lat="45.598051176247786" lon="10.794868167108927"><ele>266.0</ele><time>2026-04-26T08:09:35Z</time></trkpt><trkpt lat="45.5981116402325" lon="10.794933187056476"><ele>263.8</ele><time>2026-04-26T08:09:36Z</time></trkpt><trkpt lat="45.59816318602888" lon="10.795017184351668"><ele>261.6</ele><time>2026-04-26T08:09:37Z</time></trkpt><trkpt lat="45.598214413491576" lon="10.795088106433493"><ele>259.4</ele><time>2026-04-26T08:09:38Z</time></trkpt><trkpt lat="45.59828313631213" lon="10.795115880923149"><ele>257.2</ele><time>2026-04-26T08:09:39Z</time></trkpt><trkpt lat="45.59838105069226" lon="10.79513660888102"><ele>255.0</ele><time>2026-04-26T08:09:40Z</time></trkpt><trkpt lat="45.598524176943414" lon="10.795084716601298"><ele>253.75</ele><time>2026-04-26T08:09:41Z</time></trkpt><trkpt lat="45.59868070136219" lon="10.795025826603274"><ele>252.5</ele><time>2026-04-26T08:09:42Z</time></trkpt><trkpt lat="45.598817851120096" lon="10.79499056631766"><ele>251.25</ele><time>2026-04-26T08:09:43Z</time></trkpt><trkpt lat="45.59893174430858" lon="10.794917326772808"><ele>250.0</ele><time>2026-04-26T08:09:44Z</time></trkpt><trkpt lat="45.59901953075623" lon="10.794854935765345"><ele>250.0</ele><time>2026-04-26T08:09:45Z</time></trkpt><trkpt lat="45.59907762763785" lon="10.794814485984327"><ele>250.0</ele><time>2026-04-26T08:09:46Z</time></trkpt><trkpt lat="45.59913676078983" lon="10.794781566229558"><ele>250.0</ele><time>2026-04-26T08:09:47Z</time></trkpt><trkpt lat="45.599210865519495" lon="10.794757909711214"><ele>250.0</ele><time>2026-04-26T08:09:48Z</time></trkpt><trkpt lat="45.59928914394767" lon="10.794749491418232"><ele>250.0</ele><time>2026-04-26T08:09:49Z</time></trkpt><trkpt lat="45.599375242141605" lon="10.794751610022962"><ele>250.0</ele><time>2026-04-26T08:09:50Z</time></trkpt><trkpt lat="45.599452544498156" lon="10.79473938504439"><ele>250.0</ele><time>2026-04-26T08:09:51Z</time></trkpt><trkpt lat="45.59953120506378" lon="10.794761442527145"><ele>249.8</ele><time>2026-04-26T08:09:52Z</time></trkpt><trkpt lat="45.59959459520751" lon="10.794763482789273"><ele>249.6</ele><time>2026-04-26T08:09:53Z</time></trkpt><trkpt lat="45.599680207472" lon="10.794721658208658"><ele>249.39999999999998</ele><time>2026-04-26T08:09:55Z</time></trkpt><trkpt lat="45.59976092306251" lon="10.79471163767709"><ele>249.2</ele><time>2026-04-26T08:10:00.999Z</time></trkpt><trkpt lat="45.59989512946073" lon="10.794672411283656"><ele>249.0</ele><time>2026-04-26T08:10:02.999Z</time></trkpt><trkpt lat="45.59997698930765" lon="10.794664068847009"><ele>249.0</ele><time>2026-04-26T08:10:03.999Z</time></trkpt><trkpt lat="45.60009307666882" lon="10.794644379618594"><ele>248.99999999999997</ele><time>2026-04-26T08:10:04.999Z</time></trkpt><trkpt lat="45.600196543197946" lon="10.79462251591944"><ele>248.99999999999997</ele><time>2026-04-26T08:10:05.999Z</time></trkpt><trkpt lat="45.600295015621235" lon="10.794602644969418"><ele>249.0</ele><time>2026-04-26T08:10:06.999Z</time></trkpt><trkpt lat="45.60037793419231" lon="10.794583837924012"><ele>249.0</ele><time>2026-04-26T08:10:07.999Z</time></trkpt><trkpt lat="45.600444461916275" lon="10.794568503122818"><ele>249.0</ele><time>2026-04-26T08:10:08.999Z</time></trkpt><trkpt lat="45.600539699110854" lon="10.794550468543331"><ele>248.99999999999997</ele><time>2026-04-26T08:10:10.999Z</time></trkpt><trkpt lat="45.60062614116633" lon="10.794520366748497"><ele>248.99999999999997</ele><time>2026-04-26T08:10:13Z</time></trkpt><trkpt lat="45.60071431166107" lon="10.794475636608823"><ele>249.0</ele><time>2026-04-26T08:10:15Z</time></trkpt><trkpt lat="45.600831046094584" lon="10.794535965675472"><ele>249.0</ele><time>2026-04-26T08:10:17Z</time></trkpt><trkpt lat="45.60091935466861" lon="10.794657306403472"><ele>249.0</ele><time>2026-04-26T08:10:18Z</time></trkpt><trkpt lat="45.60102641625126" lon="10.7948073533377"><ele>249.0</ele><time>2026-04-26T08:10:19Z</time></trkpt><trkpt lat="45.60112978901566" lon="10.794917737958302"><ele>249.0</ele><time>2026-04-26T08:10:20Z</time></trkpt><trkpt lat="45.6012125640546" lon="10.795006532067573"><ele>249.0</ele><time>2026-04-26T08:10:21Z</time></trkpt><trkpt lat="45.60128794828157" lon="10.795075779297502"><ele>248.79999999999998</ele><time>2026-04-26T08:10:22Z</time></trkpt><trkpt lat="45.601367750798374" lon="10.795122031603702"><ele>248.59999999999997</ele><time>2026-04-26T08:10:23Z</time></trkpt><trkpt lat="45.60146887579761" lon="10.795155793624955"><ele>248.4</ele><time>2026-04-26T08:10:24Z</time></trkpt><trkpt lat="45.60157786556092" lon="10.795171242790136"><ele>248.2</ele><time>2026-04-26T08:10:25Z</time></trkpt><trkpt lat="45.6016826776844" lon="10.795175794996824"><ele>248.0</ele><time>2026-04-26T08:10:26Z</time></trkpt><trkpt lat="45.6017736146473" lon="10.79516992542626"><ele>248.4</ele><time>2026-04-26T08:10:27Z</time></trkpt><trkpt lat="45.60186414532757" lon="10.795172234612938"><ele>248.8</ele><time>2026-04-26T08:10:28Z</time></trkpt><trkpt lat="45.60195088807211" lon="10.795173521609543"><ele>249.2</ele><time>2026-04-26T08:10:29Z</time></trkpt><trkpt lat="45.60202366332752" lon="10.795167894826474"><ele>249.6</ele><time>2026-04-26T08:10:30Z</time></trkpt><trkpt lat="45.60213888764947" lon="10.795170756777202"><ele>250.0</ele><time>2026-04-26T08:10:32Z</time></trkpt><trkpt lat="45.60225233083146" lon="10.795179810316077"><ele>250.16666666666666</ele><time>2026-04-26T08:10:34Z</time></trkpt><trkpt lat="45.60236429530888" lon="10.795189262020873"><ele>250.33333333333331</ele><time>2026-04-26T08:10:36Z</time></trkpt><trkpt lat="45.602467693605604" lon="10.79521709567293"><ele>250.5</ele><time>2026-04-26T08:10:38Z</time></trkpt><trkpt lat="45.602524977666846" lon="10.795270442020659"><ele>250.66666666666669</ele><time>2026-04-26T08:10:39Z</time></trkpt><trkpt lat="45.602577198055975" lon="10.795333049086175"><ele>250.83333333333334</ele><time>2026-04-26T08:10:40Z</time></trkpt><trkpt lat="45.60262506034273" lon="10.79539790722881"><ele>251.0</ele><time>2026-04-26T08:10:41Z</time></trkpt><trkpt lat="45.60268880542369" lon="10.795549102157805"><ele>251.00000000000003</ele><time>2026-04-26T08:10:43Z</time></trkpt><trkpt lat="45.60270168125812" lon="10.795714187919822"><ele>251.0</ele><time>2026-04-26T08:10:45Z</time></trkpt><trkpt lat="45.6027007666467" lon="10.79581502423584"><ele>251.0</ele><time>2026-04-26T08:10:46Z</time></trkpt><trkpt lat="45.60270164510725" lon="10.795929673391546"><ele>251.0</ele><time>2026-04-26T08:10:47Z</time></trkpt><trkpt lat="45.60270026201862" lon="10.796041884711036"><ele>251.00000000000003</ele><time>2026-04-26T08:10:48Z</time></trkpt><trkpt lat="45.60269992527928" lon="10.796156655040281"><ele>251.0</ele><time>2026-04-26T08:10:49Z</time></trkpt><trkpt lat="45.60270257097396" lon="10.796276873293358"><ele>251.00000000000003</ele><time>2026-04-26T08:10:50Z</time></trkpt><trkpt lat="45.60270680068181" lon="10.79638860630273"><ele>251.0</ele><time>2026-04-26T08:10:51Z</time></trkpt><trkpt lat="45.602713697588435" lon="10.796491251433045"><ele>251.0</ele><time>2026-04-26T08:10:52Z</time></trkpt><trkpt lat="45.60272205815699" lon="10.796595126442131"><ele>251.0</ele><time>2026-04-26T08:10:53Z</time></trkpt><trkpt lat="45.602730463546216" lon="10.796707663575022"><ele>251.00000000000003</ele><time>2026-04-26T08:10:54Z</time></trkpt><trkpt lat="45.60274019753392" lon="10.796821924258147"><ele>251.0</ele><time>2026-04-26T08:10:55Z</time></trkpt><trkpt lat="45.60274853429121" lon="10.796916404544286"><ele>251.0</ele><time>2026-04-26T08:10:56Z</time></trkpt><trkpt lat="45.6027692946634" lon="10.797073580796326"><ele>251.00000000000003</ele><time>2026-04-26T08:10:58Z</time></trkpt><trkpt lat="45.602816598992874" lon="10.797153025720917"><ele>251.00000000000003</ele><time>2026-04-26T08:10:59Z</time></trkpt><trkpt lat="45.602889030736215" lon="10.797221493994265"><ele>251.0</ele><time>2026-04-26T08:11:00Z</time></trkpt><trkpt lat="45.60296581383404" lon="10.797287264847029"><ele>251.0</ele><time>2026-04-26T08:11:01Z</time></trkpt><trkpt lat="45.603046944452664" lon="10.797339018235453"><ele>251.0</ele><time>2026-04-26T08:11:03Z</time></trkpt><trkpt lat="45.60319977938396" lon="10.79748726078235"><ele>251.0</ele><time>2026-04-26T08:11:05Z</time></trkpt><trkpt lat="45.60321508667982" lon="10.797602308248242"><ele>251.0</ele><time>2026-04-26T08:11:06Z</time></trkpt><trkpt lat="45.60318973530137" lon="10.797748159361563"><ele>251.0</ele><time>2026-04-26T08:11:07Z</time></trkpt><trkpt lat="45.60320233611437" lon="10.797910255386405"><ele>251.0</ele><time>2026-04-26T08:11:08Z</time></trkpt><trkpt lat="45.60319360206631" lon="10.798039726776858"><ele>251.00000000000003</ele><time>2026-04-26T08:11:09Z</time></trkpt><trkpt lat="45.60322973622315" lon="10.798130956706807"><ele>251.00000000000003</ele><time>2026-04-26T08:11:10Z</time></trkpt><trkpt lat="45.60330332935396" lon="10.798185021784864"><ele>251.0</ele><time>2026-04-26T08:11:11Z</time></trkpt><trkpt lat="45.60341698149058" lon="10.798237211267578"><ele>251.0</ele><time>2026-04-26T08:11:12Z</time></trkpt><trkpt lat="45.60353355838838" lon="10.798284108438734"><ele>251.0</ele><time>2026-04-26T08:11:13Z</time></trkpt><trkpt lat="45.60364498574897" lon="10.798335025822066"><ele>251.00000000000003</ele><time>2026-04-26T08:11:14Z</time></trkpt><trkpt lat="45.60373964577546" lon="10.798387210025185"><ele>251.00000000000003</ele><time>2026-04-26T08:11:15Z</time></trkpt><trkpt lat="45.6038321194062" lon="10.798436927158766"><ele>251.0</ele><time>2026-04-26T08:11:16Z</time></trkpt><trkpt lat="45.60392313439027" lon="10.798485255175928"><ele>251.0</ele><time>2026-04-26T08:11:17Z</time></trkpt><trkpt lat="45.60401347666931" lon="10.798534297115998"><ele>251.20000000000002</ele><time>2026-04-26T08:11:18Z</time></trkpt><trkpt lat="45.60410008434522" lon="10.798582857428727"><ele>251.40000000000003</ele><time>2026-04-26T08:11:19Z</time></trkpt><trkpt lat="45.60419634540799" lon="10.798637142344322"><ele>251.6</ele><time>2026-04-26T08:11:20Z</time></trkpt><trkpt lat="45.60429382727269" lon="10.79869221617349"><ele>251.8</ele><time>2026-04-26T08:11:21Z</time></trkpt><trkpt lat="45.60439116233573" lon="10.79874914318974"><ele>252.0</ele><time>2026-04-26T08:11:22Z</time></trkpt><trkpt lat="45.60448414840309" lon="10.79880504160805"><ele>252.0</ele><time>2026-04-26T08:11:23Z</time></trkpt><trkpt lat="45.604585292480266" lon="10.798867521096867"><ele>252.0</ele><time>2026-04-26T08:11:24Z</time></trkpt><trkpt lat="45.604689011623066" lon="10.79893276750303"><ele>252.0</ele><time>2026-04-26T08:11:25Z</time></trkpt><trkpt lat="45.60477997125783" lon="10.798982008066249"><ele>252.0</ele><time>2026-04-26T08:11:26Z</time></trkpt><trkpt lat="45.60486231265194" lon="10.799031590800263"><ele>252.0</ele><time>2026-04-26T08:11:27Z</time></trkpt><trkpt lat="45.604942561230835" lon="10.799077124864834"><ele>252.0</ele><time>2026-04-26T08:11:28Z</time></trkpt><trkpt lat="45.60502640860114" lon="10.799126917893032"><ele>252.0</ele><time>2026-04-26T08:11:29Z</time></trkpt><trkpt lat="45.60510800080101" lon="10.799176111536822"><ele>252.0</ele><time>2026-04-26T08:11:30Z</time></trkpt><trkpt lat="45.605191648931225" lon="10.799228496474003"><ele>252.0</ele><time>2026-04-26T08:11:31Z</time></trkpt><trkpt lat="45.605274823508616" lon="10.799272957846904"><ele>252.0</ele><time>2026-04-26T08:11:32Z</time></trkpt><trkpt lat="45.605347279865" lon="10.799321184445024"><ele>252.0</ele><time>2026-04-26T08:11:33Z</time></trkpt><trkpt lat="45.60543032906059" lon="10.799353859111827"><ele>254.25</ele><time>2026-04-26T08:11:34Z</time></trkpt><trkpt lat="45.605495892949506" lon="10.799367310749249"><ele>256.5</ele><time>2026-04-26T08:11:35Z</time></trkpt><trkpt lat="45.60553611446821" lon="10.799719345622249"><ele>258.75</ele><time>2026-04-26T08:11:37Z</time></trkpt><trkpt lat="45.60553483580204" lon="10.799887362583968"><ele>261.0</ele><time>2026-04-26T08:11:38Z</time></trkpt><trkpt lat="45.60551595099715" lon="10.80007685326324"><ele>261.5</ele><time>2026-04-26T08:11:39Z</time></trkpt><trkpt lat="45.60548774256089" lon="10.800264505173589"><ele>262.0</ele><time>2026-04-26T08:11:40Z</time></trkpt><trkpt lat="45.60545650098944" lon="10.800454663468342"><ele>262.5</ele><time>2026-04-26T08:11:41Z</time></trkpt><trkpt lat="45.60542208510962" lon="10.800659409420069"><ele>263.0</ele><time>2026-04-26T08:11:42Z</time></trkpt><trkpt lat="45.60539604689468" lon="10.800886608422475"><ele>264.6666666666667</ele><time>2026-04-26T08:11:43Z</time></trkpt><trkpt lat="45.60537978759559" lon="10.801103706594333"><ele>266.3333333333333</ele><time>2026-04-26T08:11:44Z</time></trkpt><trkpt lat="45.60535988070553" lon="10.801314794920616"><ele>268.0</ele><time>2026-04-26T08:11:45Z</time></trkpt><trkpt lat="45.60534069951526" lon="10.801524319266811"><ele>265.25</ele><time>2026-04-26T08:11:46Z</time></trkpt><trkpt lat="45.605323650746854" lon="10.801730568277955"><ele>262.5</ele><time>2026-04-26T08:11:47Z</time></trkpt><trkpt lat="45.60531183318626" lon="10.801931495188791"><ele>259.75</ele><time>2026-04-26T08:11:48Z</time></trkpt><trkpt lat="45.60529731884458" lon="10.802121376319933"><ele>257.0</ele><time>2026-04-26T08:11:49Z</time></trkpt><trkpt lat="45.60528524506777" lon="10.802302526490692"><ele>257.0</ele><time>2026-04-26T08:11:50Z</time></trkpt><trkpt lat="45.60526598254015" lon="10.80249735054448"><ele>257.0</ele><time>2026-04-26T08:11:51Z</time></trkpt><trkpt lat="45.60525405003341" lon="10.802696532926554"><ele>257.0</ele><time>2026-04-26T08:11:52Z</time></trkpt><trkpt lat="45.60522519248354" lon="10.802900527115401"><ele>257.0</ele><time>2026-04-26T08:11:52.999Z</time></trkpt><trkpt lat="45.605226891811874" lon="10.803104816363645"><ele>257.0</ele><time>2026-04-26T08:11:53.999Z</time></trkpt><trkpt lat="45.60521172106111" lon="10.803305771260831"><ele>257.0</ele><time>2026-04-26T08:11:54.999Z</time></trkpt><trkpt lat="45.605196992068755" lon="10.803504517411664"><ele>257.0</ele><time>2026-04-26T08:11:55.999Z</time></trkpt><trkpt lat="45.60518292919048" lon="10.803705357080606"><ele>257.0</ele><time>2026-04-26T08:11:56.999Z</time></trkpt><trkpt lat="45.60516554833484" lon="10.803913292046978"><ele>257.75</ele><time>2026-04-26T08:11:57.999Z</time></trkpt><trkpt lat="45.605143694543706" lon="10.804127691057156"><ele>258.5</ele><time>2026-04-26T08:11:58.999Z</time></trkpt><trkpt lat="45.60512320788649" lon="10.804335667226244"><ele>259.25</ele><time>2026-04-26T08:11:59.999Z</time></trkpt><trkpt lat="45.60510559381397" lon="10.804528963101502"><ele>260.0</ele><time>2026-04-26T08:12:00.999Z</time></trkpt><trkpt lat="45.60509543751526" lon="10.804715439158281"><ele>260.1666666666667</ele><time>2026-04-26T08:12:01.999Z</time></trkpt><trkpt lat="45.60509539117697" lon="10.804870099409516"><ele>260.33333333333337</ele><time>2026-04-26T08:12:02.999Z</time></trkpt><trkpt lat="45.60509983174786" lon="10.804985966711085"><ele>260.5</ele><time>2026-04-26T08:12:03.999Z</time></trkpt><trkpt lat="45.60511147632834" lon="10.805083294448245"><ele>260.6666666666667</ele><time>2026-04-26T08:12:04.999Z</time></trkpt><trkpt lat="45.60512625742822" lon="10.805177568131127"><ele>260.8333333333333</ele><time>2026-04-26T08:12:05.999Z</time></trkpt><trkpt lat="45.6051475650634" lon="10.805264191732132"><ele>261.0</ele><time>2026-04-26T08:12:06.999Z</time></trkpt><trkpt lat="45.60519731117836" lon="10.80534026581291"><ele>261.0</ele><time>2026-04-26T08:12:07.999Z</time></trkpt><trkpt lat="45.60527428228781" lon="10.805418597842849"><ele>261.0</ele><time>2026-04-26T08:12:08.999Z</time></trkpt><trkpt lat="45.60535364840683" lon="10.805523589310763"><ele>261.0</ele><time>2026-04-26T08:12:09.999Z</time></trkpt><trkpt lat="45.60543603151152" lon="10.805624176207072"><ele>261.0</ele><time>2026-04-26T08:12:10.999Z</time></trkpt><trkpt lat="45.605500675368624" lon="10.805742073291093"><ele>261.0</ele><time>2026-04-26T08:12:11.999Z</time></trkpt><trkpt lat="45.60555286652133" lon="10.805889682274906"><ele>262.0</ele><time>2026-04-26T08:12:12.999Z</time></trkpt><trkpt lat="45.60561383214831" lon="10.80606143127502"><ele>263.0</ele><time>2026-04-26T08:12:13.999Z</time></trkpt><trkpt lat="45.605663555852075" lon="10.80624947018837"><ele>264.0</ele><time>2026-04-26T08:12:14.999Z</time></trkpt><trkpt lat="45.605712528626455" lon="10.806443508403163"><ele>265.0</ele><time>2026-04-26T08:12:15.999Z</time></trkpt><trkpt lat="45.60575866799794" lon="10.806636963408426"><ele>265.0</ele><time>2026-04-26T08:12:16.999Z</time></trkpt><trkpt lat="45.60580362866147" lon="10.80682149311868"><ele>265.0</ele><time>2026-04-26T08:12:18Z</time></trkpt><trkpt lat="45.60584936699908" lon="10.80700393700146"><ele>265.0</ele><time>2026-04-26T08:12:19Z</time></trkpt><trkpt lat="45.605893421682886" lon="10.807177220670724"><ele>265.0</ele><time>2026-04-26T08:12:20Z</time></trkpt><trkpt lat="45.60593774134529" lon="10.807338064519724"><ele>264.8</ele><time>2026-04-26T08:12:21Z</time></trkpt><trkpt lat="45.60598087322039" lon="10.807496825056715"><ele>264.6</ele><time>2026-04-26T08:12:22Z</time></trkpt><trkpt lat="45.60602381867338" lon="10.807647054736009"><ele>264.4</ele><time>2026-04-26T08:12:23Z</time></trkpt><trkpt lat="45.60606313106921" lon="10.807782116957318"><ele>264.2</ele><time>2026-04-26T08:12:24Z</time></trkpt><trkpt lat="45.606098520626155" lon="10.807904345296262"><ele>264.0</ele><time>2026-04-26T08:12:25Z</time></trkpt><trkpt lat="45.606126499059506" lon="10.808004669953318"><ele>264.59999999999997</ele><time>2026-04-26T08:12:26Z</time></trkpt><trkpt lat="45.606164470203616" lon="10.808175691372247"><ele>265.2</ele><time>2026-04-26T08:12:28Z</time></trkpt><trkpt lat="45.60617965399371" lon="10.808271607172195"><ele>265.79999999999995</ele><time>2026-04-26T08:12:29Z</time></trkpt><trkpt lat="45.606198865617635" lon="10.808382810170887"><ele>266.4</ele><time>2026-04-26T08:12:30Z</time></trkpt><trkpt lat="45.606230109594456" lon="10.80850282712742"><ele>267.0</ele><time>2026-04-26T08:12:31Z</time></trkpt><trkpt lat="45.60627560227022" lon="10.808616962080535"><ele>267.0</ele><time>2026-04-26T08:12:32Z</time></trkpt><trkpt lat="45.60633668876081" lon="10.80872144858157"><ele>267.0</ele><time>2026-04-26T08:12:33Z</time></trkpt><trkpt lat="45.60641398559701" lon="10.808825433923039"><ele>267.0</ele><time>2026-04-26T08:12:34Z</time></trkpt><trkpt lat="45.60648537405624" lon="10.80894951321659"><ele>267.0</ele><time>2026-04-26T08:12:35Z</time></trkpt><trkpt lat="45.606574183543465" lon="10.809037851628881"><ele>267.0</ele><time>2026-04-26T08:12:36Z</time></trkpt><trkpt lat="45.60666102628309" lon="10.80915148505509"><ele>267.0</ele><time>2026-04-26T08:12:37Z</time></trkpt><trkpt lat="45.6067428451089" lon="10.809275146304106"><ele>267.0</ele><time>2026-04-26T08:12:38Z</time></trkpt><trkpt lat="45.606821156912595" lon="10.809375056319329"><ele>267.0</ele><time>2026-04-26T08:12:39Z</time></trkpt><trkpt lat="45.60688258181344" lon="10.809463594955337"><ele>267.0</ele><time>2026-04-26T08:12:40Z</time></trkpt><trkpt lat="45.606928326602834" lon="10.809541688299895"><ele>267.0</ele><time>2026-04-26T08:12:41Z</time></trkpt><trkpt lat="45.60700535954498" lon="10.809656485043327"><ele>267.0</ele><time>2026-04-26T08:12:43Z</time></trkpt><trkpt lat="45.60704363603867" lon="10.80973437863137"><ele>267.0</ele><time>2026-04-26T08:12:45Z</time></trkpt><trkpt lat="45.60700179124549" lon="10.809805976853296"><ele>267.0</ele><time>2026-04-26T08:12:47Z</time></trkpt><trkpt lat="45.60689374103972" lon="10.809890886400522"><ele>267.0</ele><time>2026-04-26T08:12:49Z</time></trkpt><trkpt lat="45.6068265251447" lon="10.809941107900178"><ele>267.0</ele><time>2026-04-26T08:12:50Z</time></trkpt><trkpt lat="45.60675649535816" lon="10.809967705415053"><ele>267.0</ele><time>2026-04-26T08:12:51Z</time></trkpt><trkpt lat="45.6066579314238" lon="10.810021689837015"><ele>267.0</ele><time>2026-04-26T08:12:53Z</time></trkpt><trkpt lat="45.60655716545088" lon="10.810112147291822"><ele>267.0</ele><time>2026-04-26T08:12:55Z</time></trkpt><trkpt lat="45.60649791684687" lon="10.810200656649283"><ele>267.0</ele><time>2026-04-26T08:12:57Z</time></trkpt><trkpt lat="45.60644416941702" lon="10.810363871954918"><ele>267.0</ele><time>2026-04-26T08:12:59Z</time></trkpt><trkpt lat="45.60640171987366" lon="10.810456077794628"><ele>267.0</ele><time>2026-04-26T08:13:00Z</time></trkpt><trkpt lat="45.606355824182344" lon="10.810546302572128"><ele>267.0</ele><time>2026-04-26T08:13:01Z</time></trkpt><trkpt lat="45.606303957833646" lon="10.810637634419624"><ele>267.0</ele><time>2026-04-26T08:13:02Z</time></trkpt><trkpt lat="45.60625111810005" lon="10.810729904270135"><ele>267.0</ele><time>2026-04-26T08:13:03Z</time></trkpt><trkpt lat="45.60620407050272" lon="10.810822302585033"><ele>267.0</ele><time>2026-04-26T08:13:04Z</time></trkpt><trkpt lat="45.60615796425582" lon="10.810915731199064"><ele>267.0</ele><time>2026-04-26T08:13:05Z</time></trkpt><trkpt lat="45.606111390967826" lon="10.81099277784877"><ele>267.0</ele><time>2026-04-26T08:13:06Z</time></trkpt><trkpt lat="45.606038530774605" lon="10.81112098891295"><ele>267.3333333333333</ele><time>2026-04-26T08:13:08Z</time></trkpt><trkpt lat="45.60598415644012" lon="10.811205763806477"><ele>267.6666666666667</ele><time>2026-04-26T08:13:09Z</time></trkpt><trkpt lat="45.60591254099562" lon="10.811319343800633"><ele>268.0</ele><time>2026-04-26T08:13:10Z</time></trkpt><trkpt lat="45.60583900743654" lon="10.811424145210143"><ele>268.33333333333337</ele><time>2026-04-26T08:13:11Z</time></trkpt><trkpt lat="45.605779843822155" lon="10.811508996259434"><ele>268.6666666666667</ele><time>2026-04-26T08:13:12Z</time></trkpt><trkpt lat="45.60573382520791" lon="10.811589773480947"><ele>269.0</ele><time>2026-04-26T08:13:13Z</time></trkpt><trkpt lat="45.60569049451867" lon="10.811680314106194"><ele>269.0</ele><time>2026-04-26T08:13:14Z</time></trkpt><trkpt lat="45.605652241360985" lon="10.811761368183324"><ele>269.0</ele><time>2026-04-26T08:13:15Z</time></trkpt><trkpt lat="45.60562201028701" lon="10.81192743077164"><ele>269.0</ele><time>2026-04-26T08:13:17Z</time></trkpt><trkpt lat="45.605591659256525" lon="10.812097904555829"><ele>269.0</ele><time>2026-04-26T08:13:19Z</time></trkpt><trkpt lat="45.60555991347928" lon="10.81223652569377"><ele>269.0</ele><time>2026-04-26T08:13:21Z</time></trkpt><trkpt lat="45.60554142436867" lon="10.812339732647972"><ele>269.2</ele><time>2026-04-26T08:13:23Z</time></trkpt><trkpt lat="45.60549540535703" lon="10.812457709213323"><ele>269.4</ele><time>2026-04-26T08:13:26Z</time></trkpt><trkpt lat="45.605436953756616" lon="10.812553862647682"><ele>269.6</ele><time>2026-04-26T08:13:28Z</time></trkpt><trkpt lat="45.60535686777618" lon="10.81264537512847"><ele>269.8</ele><time>2026-04-26T08:14:33Z</time></trkpt><trkpt lat="45.60530469743836" lon="10.812761991664813"><ele>270.0</ele><time>2026-04-26T08:14:34Z</time></trkpt><trkpt lat="45.60525700656205" lon="10.812885368734982"><ele>269.5</ele><time>2026-04-26T08:14:35Z</time></trkpt><trkpt lat="45.60519106171154" lon="10.813057102100476"><ele>269.0</ele><time>2026-04-26T08:14:36Z</time></trkpt><trkpt lat="45.6051292466393" lon="10.81324582174034"><ele>268.5</ele><time>2026-04-26T08:14:37Z</time></trkpt><trkpt lat="45.60508300083453" lon="10.813406369458956"><ele>268.0</ele><time>2026-04-26T08:14:38Z</time></trkpt><trkpt lat="45.605037158382515" lon="10.813567422201318"><ele>268.0</ele><time>2026-04-26T08:14:39Z</time></trkpt><trkpt lat="45.60499370978158" lon="10.81373221379204"><ele>268.0</ele><time>2026-04-26T08:14:40Z</time></trkpt><trkpt lat="45.604949784767896" lon="10.813902870463737"><ele>268.0</ele><time>2026-04-26T08:14:41Z</time></trkpt><trkpt lat="45.60490493928915" lon="10.8140708989092"><ele>268.0</ele><time>2026-04-26T08:14:42Z</time></trkpt><trkpt lat="45.604866337496375" lon="10.814234527866994"><ele>268.25</ele><time>2026-04-26T08:14:43Z</time></trkpt><trkpt lat="45.604838527167765" lon="10.81436784519609"><ele>268.5</ele><time>2026-04-26T08:14:44Z</time></trkpt><trkpt lat="45.6047938282457" lon="10.814533045725689"><ele>268.75</ele><time>2026-04-26T08:14:45Z</time></trkpt><trkpt lat="45.60476167818631" lon="10.814689579276429"><ele>269.0</ele><time>2026-04-26T08:14:46Z</time></trkpt><trkpt lat="45.604735193797254" lon="10.814854404278837"><ele>269.0</ele><time>2026-04-26T08:14:47Z</time></trkpt><trkpt lat="45.60469705521247" lon="10.815022750991702"><ele>269.0</ele><time>2026-04-26T08:14:48Z</time></trkpt><trkpt lat="45.6046711947542" lon="10.815185088012012"><ele>269.0</ele><time>2026-04-26T08:14:49Z</time></trkpt><trkpt lat="45.604642955256466" lon="10.815336398472105"><ele>269.0</ele><time>2026-04-26T08:14:50Z</time></trkpt><trkpt lat="45.60462748155103" lon="10.815468372288171"><ele>269.0</ele><time>2026-04-26T08:14:51Z</time></trkpt><trkpt lat="45.60462086100147" lon="10.815586235712349"><ele>269.0</ele><time>2026-04-26T08:14:52Z</time></trkpt><trkpt lat="45.60462119621962" lon="10.815705759260934"><ele>269.0</ele><time>2026-04-26T08:14:53Z</time></trkpt><trkpt lat="45.604624329817426" lon="10.815808209830323"><ele>269.0</ele><time>2026-04-26T08:14:54Z</time></trkpt><trkpt lat="45.604647340899994" lon="10.815922966585216"><ele>269.0</ele><time>2026-04-26T08:15:00Z</time></trkpt><trkpt lat="45.60471300105648" lon="10.816089419905905"><ele>269.0</ele><time>2026-04-26T08:15:02Z</time></trkpt><trkpt lat="45.60472302145399" lon="10.81618855101774"><ele>269.0</ele><time>2026-04-26T08:15:03Z</time></trkpt><trkpt lat="45.60471911428627" lon="10.816294141635998"><ele>269.0</ele><time>2026-04-26T08:15:04Z</time></trkpt><trkpt lat="45.60462825072592" lon="10.816407417767369"><ele>269.0</ele><time>2026-04-26T08:15:05Z</time></trkpt><trkpt lat="45.604627350210734" lon="10.816561727104306"><ele>269.0</ele><time>2026-04-26T08:15:06Z</time></trkpt><trkpt lat="45.60463101370933" lon="10.81669939087426"><ele>269.0</ele><time>2026-04-26T08:15:07Z</time></trkpt><trkpt lat="45.6046431528707" lon="10.816853248397525"><ele>269.0</ele><time>2026-04-26T08:15:08Z</time></trkpt><trkpt lat="45.604661773017725" lon="10.81697779518759"><ele>269.6666666666667</ele><time>2026-04-26T08:15:09Z</time></trkpt><trkpt lat="45.604684272582304" lon="10.81708626772289"><ele>270.33333333333337</ele><time>2026-04-26T08:15:10Z</time></trkpt><trkpt lat="45.60471421463167" lon="10.817208617891437"><ele>271.0</ele><time>2026-04-26T08:15:11Z</time></trkpt><trkpt lat="45.604748656426864" lon="10.817338592408445"><ele>271.6666666666667</ele><time>2026-04-26T08:15:12Z</time></trkpt><trkpt lat="45.60477480356291" lon="10.817457471167579"><ele>272.3333333333333</ele><time>2026-04-26T08:15:13Z</time></trkpt><trkpt lat="45.604790731708576" lon="10.817545894327049"><ele>273.0</ele><time>2026-04-26T08:15:14Z</time></trkpt><trkpt lat="45.60480101188023" lon="10.817669770057353"><ele>273.2</ele><time>2026-04-26T08:15:16Z</time></trkpt><trkpt lat="45.60473866666391" lon="10.81783583397987"><ele>273.4</ele><time>2026-04-26T08:15:19Z</time></trkpt><trkpt lat="45.60469594033136" lon="10.817950534254594"><ele>273.59999999999997</ele><time>2026-04-26T08:15:20Z</time></trkpt><trkpt lat="45.604653422653264" lon="10.818052207007865"><ele>273.8</ele><time>2026-04-26T08:15:21Z</time></trkpt><trkpt lat="45.604605396976524" lon="10.81816706475471"><ele>274.0</ele><time>2026-04-26T08:15:22Z</time></trkpt><trkpt lat="45.604560391981" lon="10.8182826432092"><ele>274.0</ele><time>2026-04-26T08:15:23Z</time></trkpt><trkpt lat="45.60452467017894" lon="10.818376489674595"><ele>274.0</ele><time>2026-04-26T08:15:24Z</time></trkpt><trkpt lat="45.604494819434464" lon="10.818458586092472"><ele>274.0</ele><time>2026-04-26T08:15:25Z</time></trkpt><trkpt lat="45.6044641909138" lon="10.81854700530784"><ele>274.0</ele><time>2026-04-26T08:15:26Z</time></trkpt><trkpt lat="45.604435867763215" lon="10.818641779560389"><ele>274.0</ele><time>2026-04-26T08:15:27Z</time></trkpt><trkpt lat="45.60441512787712" lon="10.818748286428434"><ele>274.0</ele><time>2026-04-26T08:15:28Z</time></trkpt><trkpt lat="45.604395972632176" lon="10.818912640249163"><ele>273.8</ele><time>2026-04-26T08:15:30Z</time></trkpt><trkpt lat="45.60439032841716" lon="10.819073308185265"><ele>273.59999999999997</ele><time>2026-04-26T08:15:32Z</time></trkpt><trkpt lat="45.604393768928915" lon="10.819199846901657"><ele>273.4</ele><time>2026-04-26T08:15:34Z</time></trkpt><trkpt lat="45.60440352596598" lon="10.819291090994575"><ele>273.2</ele><time>2026-04-26T08:15:35Z</time></trkpt><trkpt lat="45.60444111072651" lon="10.81943790293363"><ele>273.0</ele><time>2026-04-26T08:15:37Z</time></trkpt><trkpt lat="45.604486545987186" lon="10.819595177807859"><ele>273.0</ele><time>2026-04-26T08:15:39Z</time></trkpt><trkpt lat="45.604506273257336" lon="10.819724480911175"><ele>273.0</ele><time>2026-04-26T08:15:41Z</time></trkpt><trkpt lat="45.60451223136869" lon="10.81983806695015"><ele>273.0</ele><time>2026-04-26T08:15:42Z</time></trkpt><trkpt lat="45.604503975813074" lon="10.819980793745218"><ele>273.0</ele><time>2026-04-26T08:15:43Z</time></trkpt><trkpt lat="45.60448700656182" lon="10.820092605840125"><ele>273.0</ele><time>2026-04-26T08:15:44Z</time></trkpt><trkpt lat="45.60446625532957" lon="10.820207144601838"><ele>273.0</ele><time>2026-04-26T08:15:45Z</time></trkpt><trkpt lat="45.60444610456539" lon="10.820317689566924"><ele>273.6666666666667</ele><time>2026-04-26T08:15:46Z</time></trkpt><trkpt lat="45.60442315464101" lon="10.820443683592629"><ele>274.3333333333333</ele><time>2026-04-26T08:15:47Z</time></trkpt><trkpt lat="45.60439718371368" lon="10.820580733248182"><ele>275.0</ele><time>2026-04-26T08:15:48Z</time></trkpt><trkpt lat="45.60437338727624" lon="10.820706308045429"><ele>275.66666666666663</ele><time>2026-04-26T08:15:49Z</time></trkpt><trkpt lat="45.604354465896385" lon="10.820810823365735"><ele>276.3333333333333</ele><time>2026-04-26T08:15:50Z</time></trkpt><trkpt lat="45.60433710850982" lon="10.820913660078952"><ele>277.0</ele><time>2026-04-26T08:15:51Z</time></trkpt><trkpt lat="45.60432092800562" lon="10.821011230399877"><ele>277.66666666666663</ele><time>2026-04-26T08:15:52Z</time></trkpt><trkpt lat="45.604307577671754" lon="10.82110098940417"><ele>278.3333333333333</ele><time>2026-04-26T08:15:53Z</time></trkpt><trkpt lat="45.604291709981226" lon="10.821204195306295"><ele>279.0</ele><time>2026-04-26T08:15:54Z</time></trkpt><trkpt lat="45.604275549543395" lon="10.821329196146033"><ele>279.6666666666667</ele><time>2026-04-26T08:15:55Z</time></trkpt><trkpt lat="45.60425140826219" lon="10.821490221734155"><ele>280.33333333333337</ele><time>2026-04-26T08:15:56Z</time></trkpt><trkpt lat="45.60424647531552" lon="10.821609908158878"><ele>281.0</ele><time>2026-04-26T08:15:57Z</time></trkpt><trkpt lat="45.60423600763929" lon="10.821783809640376"><ele>281.75</ele><time>2026-04-26T08:15:59Z</time></trkpt><trkpt lat="45.60420882675817" lon="10.821876646724679"><ele>282.5</ele><time>2026-04-26T08:16:01Z</time></trkpt><trkpt lat="45.604077410260984" lon="10.821842366724281"><ele>283.25</ele><time>2026-04-26T08:16:05Z</time></trkpt><trkpt lat="45.60395337459694" lon="10.821857642577767"><ele>284.0</ele><time>2026-04-26T08:16:06Z</time></trkpt><trkpt lat="45.60380336685433" lon="10.821876117071943"><ele>284.0</ele><time>2026-04-26T08:16:07Z</time></trkpt><trkpt lat="45.6036722956232" lon="10.822088292014062"><ele>284.0</ele><time>2026-04-26T08:16:08Z</time></trkpt><trkpt lat="45.60356718220603" lon="10.822119421100705"><ele>284.0</ele><time>2026-04-26T08:16:09Z</time></trkpt><trkpt lat="45.60346473413231" lon="10.82218320777137"><ele>284.0</ele><time>2026-04-26T08:16:10Z</time></trkpt><trkpt lat="45.60333947312391" lon="10.822184988739755"><ele>282.8</ele><time>2026-04-26T08:16:11Z</time></trkpt><trkpt lat="45.603228599577186" lon="10.822239670443935"><ele>281.59999999999997</ele><time>2026-04-26T08:16:12Z</time></trkpt><trkpt lat="45.60311777600402" lon="10.822282110186926"><ele>280.4</ele><time>2026-04-26T08:16:13Z</time></trkpt><trkpt lat="45.603031681767725" lon="10.822326801915182"><ele>279.2</ele><time>2026-04-26T08:16:14Z</time></trkpt><trkpt lat="45.60293261187094" lon="10.822373161935479"><ele>278.0</ele><time>2026-04-26T08:16:15Z</time></trkpt><trkpt lat="45.602836236778145" lon="10.822430540839887"><ele>277.6</ele><time>2026-04-26T08:16:16Z</time></trkpt><trkpt lat="45.60273361226244" lon="10.822484576822221"><ele>277.20000000000005</ele><time>2026-04-26T08:16:17Z</time></trkpt><trkpt lat="45.60263924429897" lon="10.822532006182396"><ele>276.8</ele><time>2026-04-26T08:16:18Z</time></trkpt><trkpt lat="45.602548007666755" lon="10.822586676395074"><ele>276.40000000000003</ele><time>2026-04-26T08:16:19Z</time></trkpt><trkpt lat="45.60247278575709" lon="10.822643796615406"><ele>276.0</ele><time>2026-04-26T08:16:20Z</time></trkpt><trkpt lat="45.602406403510784" lon="10.822697205325357"><ele>276.6666666666667</ele><time>2026-04-26T08:16:21Z</time></trkpt><trkpt lat="45.602322894993094" lon="10.822763400202996"><ele>277.3333333333333</ele><time>2026-04-26T08:16:22Z</time></trkpt><trkpt lat="45.60224871067848" lon="10.82282498002065"><ele>278.0</ele><time>2026-04-26T08:16:23Z</time></trkpt><trkpt lat="45.602184757430244" lon="10.822875302965661"><ele>278.66666666666663</ele><time>2026-04-26T08:16:24Z</time></trkpt><trkpt lat="45.60211977140658" lon="10.822924274102137"><ele>279.3333333333333</ele><time>2026-04-26T08:16:25Z</time></trkpt><trkpt lat="45.60205953120651" lon="10.822964310861929"><ele>280.0</ele><time>2026-04-26T08:16:26Z</time></trkpt><trkpt lat="45.60193308860025" lon="10.823053281020046"><ele>280.0</ele><time>2026-04-26T08:16:28Z</time></trkpt><trkpt lat="45.601854697424145" lon="10.823110913133112"><ele>280.0</ele><time>2026-04-26T08:16:29Z</time></trkpt><trkpt lat="45.6017871159447" lon="10.823160665550372"><ele>280.0</ele><time>2026-04-26T08:16:30Z</time></trkpt><trkpt lat="45.60172148305523" lon="10.823214803990242"><ele>280.0</ele><time>2026-04-26T08:16:31Z</time></trkpt><trkpt lat="45.60165542093339" lon="10.823289321289634"><ele>280.0</ele><time>2026-04-26T08:16:32Z</time></trkpt><trkpt lat="45.601599277129836" lon="10.82336277642122"><ele>280.0</ele><time>2026-04-26T08:16:33Z</time></trkpt><trkpt lat="45.60155472876341" lon="10.823437385530672"><ele>281.66666666666663</ele><time>2026-04-26T08:16:34Z</time></trkpt><trkpt lat="45.60149300831467" lon="10.823556590228668"><ele>283.3333333333333</ele><time>2026-04-26T08:16:36Z</time></trkpt><trkpt lat="45.601419995871005" lon="10.823592665559689"><ele>285.0</ele><time>2026-04-26T08:16:39Z</time></trkpt><trkpt lat="45.60134758940819" lon="10.823642936342361"><ele>286.6666666666667</ele><time>2026-04-26T08:16:42Z</time></trkpt><trkpt lat="45.601290380592324" lon="10.823689344447889"><ele>288.33333333333337</ele><time>2026-04-26T08:16:45Z</time></trkpt><trkpt lat="45.6012218426191" lon="10.823749713714554"><ele>290.0</ele><time>2026-04-26T08:16:47Z</time></trkpt><trkpt lat="45.601153714551955" lon="10.82378344900883"><ele>290.1666666666667</ele><time>2026-04-26T08:16:49Z</time></trkpt><trkpt lat="45.60106321565477" lon="10.823838888113006"><ele>290.33333333333337</ele><time>2026-04-26T08:16:52Z</time></trkpt><trkpt lat="45.6009966020601" lon="10.823877553584966"><ele>290.5</ele><time>2026-04-26T08:16:54Z</time></trkpt><trkpt lat="45.60091414652175" lon="10.823925315700544"><ele>290.6666666666667</ele><time>2026-04-26T08:16:56Z</time></trkpt><trkpt lat="45.60081871198599" lon="10.823965438904658"><ele>290.8333333333333</ele><time>2026-04-26T08:16:58Z</time></trkpt><trkpt lat="45.60076231568631" lon="10.824019450660062"><ele>291.0</ele><time>2026-04-26T08:16:59Z</time></trkpt><trkpt lat="45.600686048994596" lon="10.824031387687155"><ele>291.0</ele><time>2026-04-26T08:17:00Z</time></trkpt><trkpt lat="45.600593369030264" lon="10.8240690678469"><ele>291.0</ele><time>2026-04-26T08:17:02Z</time></trkpt><trkpt lat="45.60062374546443" lon="10.823975533212126"><ele>291.0</ele><time>2026-04-26T08:17:13Z</time></trkpt><trkpt lat="45.600549031230855" lon="10.823991902799055"><ele>291.0</ele><time>2026-04-26T08:17:14Z</time></trkpt><trkpt lat="45.6004728116795" lon="10.823941410818632"><ele>291.0</ele><time>2026-04-26T08:17:15Z</time></trkpt><trkpt lat="45.60036847152185" lon="10.823871889552859"><ele>291.0</ele><time>2026-04-26T08:17:16Z</time></trkpt><trkpt lat="45.60025384809952" lon="10.823789732470578"><ele>291.5</ele><time>2026-04-26T08:17:17Z</time></trkpt><trkpt lat="45.60014197867167" lon="10.82368373740933"><ele>292.0</ele><time>2026-04-26T08:17:18Z</time></trkpt><trkpt lat="45.60003209144729" lon="10.82364817098966"><ele>292.5</ele><time>2026-04-26T08:17:19Z</time></trkpt><trkpt lat="45.59992024523718" lon="10.823534468684308"><ele>293.0</ele><time>2026-04-26T08:17:20Z</time></trkpt><trkpt lat="45.59983067837955" lon="10.823498619459823"><ele>291.83333333333337</ele><time>2026-04-26T08:17:21Z</time></trkpt><trkpt lat="45.599755002731214" lon="10.823451526581863"><ele>290.6666666666667</ele><time>2026-04-26T08:17:22Z</time></trkpt><trkpt lat="45.59967522360829" lon="10.823382227960996"><ele>289.5</ele><time>2026-04-26T08:17:23Z</time></trkpt><trkpt lat="45.59959561891435" lon="10.823294765543434"><ele>288.3333333333333</ele><time>2026-04-26T08:17:24Z</time></trkpt><trkpt lat="45.59951772396446" lon="10.823264693491954"><ele>287.16666666666663</ele><time>2026-04-26T08:17:25Z</time></trkpt><trkpt lat="45.59945183236313" lon="10.823226899199032"><ele>286.0</ele><time>2026-04-26T08:17:26Z</time></trkpt><trkpt lat="45.59937136800317" lon="10.823211473748028"><ele>286.0</ele><time>2026-04-26T08:17:27Z</time></trkpt><trkpt lat="45.599297657649004" lon="10.82322025945161"><ele>286.0</ele><time>2026-04-26T08:17:28Z</time></trkpt><trkpt lat="45.59915824126294" lon="10.82319997633526"><ele>286.0</ele><time>2026-04-26T08:17:29Z</time></trkpt><trkpt lat="45.59903686615947" lon="10.823180159582838"><ele>286.0</ele><time>2026-04-26T08:17:30Z</time></trkpt><trkpt lat="45.598902920434746" lon="10.823122247042289"><ele>286.0</ele><time>2026-04-26T08:17:31Z</time></trkpt><trkpt lat="45.59874289378814" lon="10.823082435906331"><ele>286.0</ele><time>2026-04-26T08:17:32Z</time></trkpt><trkpt lat="45.598596854051145" lon="10.8230083194914"><ele>286.0</ele><time>2026-04-26T08:17:33Z</time></trkpt><trkpt lat="45.5984735809855" lon="10.822956954021507"><ele>286.0</ele><time>2026-04-26T08:17:34Z</time></trkpt><trkpt lat="45.59835513002451" lon="10.822939214350118"><ele>286.75</ele><time>2026-04-26T08:17:35Z</time></trkpt><trkpt lat="45.598235936996645" lon="10.822908378106659"><ele>287.5</ele><time>2026-04-26T08:17:36Z</time></trkpt><trkpt lat="45.59811598158621" lon="10.822882883588536"><ele>288.25</ele><time>2026-04-26T08:17:37Z</time></trkpt><trkpt lat="45.59800484352425" lon="10.822856745982346"><ele>289.0</ele><time>2026-04-26T08:17:38Z</time></trkpt><trkpt lat="45.59789543203362" lon="10.8228412098293"><ele>287.5</ele><time>2026-04-26T08:17:39Z</time></trkpt><trkpt lat="45.597786336102445" lon="10.82282414918023"><ele>286.0</ele><time>2026-04-26T08:17:40Z</time></trkpt><trkpt lat="45.59768191812618" lon="10.822791500158212"><ele>284.5</ele><time>2026-04-26T08:17:41Z</time></trkpt><trkpt lat="45.59755363916582" lon="10.82270507779751"><ele>283.0</ele><time>2026-04-26T08:17:42Z</time></trkpt><trkpt lat="45.59739893987836" lon="10.82263112742514"><ele>280.5</ele><time>2026-04-26T08:17:43Z</time></trkpt><trkpt lat="45.597268611612236" lon="10.82260257886385"><ele>278.0</ele><time>2026-04-26T08:17:44Z</time></trkpt><trkpt lat="45.59718715277039" lon="10.822562509565087"><ele>275.5</ele><time>2026-04-26T08:17:45Z</time></trkpt><trkpt lat="45.597081764516034" lon="10.822473975889913"><ele>273.0</ele><time>2026-04-26T08:17:47Z</time></trkpt><trkpt lat="45.596971354283085" lon="10.822376762162172"><ele>273.0</ele><time>2026-04-26T08:17:49Z</time></trkpt><trkpt lat="45.596901907802646" lon="10.822237417836043"><ele>273.0</ele><time>2026-04-26T08:17:51Z</time></trkpt><trkpt lat="45.596852307236695" lon="10.822156097721562"><ele>273.0</ele><time>2026-04-26T08:17:52Z</time></trkpt><trkpt lat="45.5967961061486" lon="10.822098246475427"><ele>273.0</ele><time>2026-04-26T08:17:53Z</time></trkpt><trkpt lat="45.59677533283204" lon="10.822009768146685"><ele>273.0</ele><time>2026-04-26T08:17:54Z</time></trkpt><trkpt lat="45.59675416255899" lon="10.821904935204"><ele>273.0</ele><time>2026-04-26T08:17:56Z</time></trkpt><trkpt lat="45.59679113152148" lon="10.821827249087733"><ele>272.6666666666667</ele><time>2026-04-26T08:17:59Z</time></trkpt><trkpt lat="45.59688885174639" lon="10.821745333096052"><ele>272.3333333333333</ele><time>2026-04-26T08:18:03Z</time></trkpt><trkpt lat="45.59695362909933" lon="10.821724374365614"><ele>272.0</ele><time>2026-04-26T08:18:04Z</time></trkpt><trkpt lat="45.597012406444534" lon="10.821683813664833"><ele>271.66666666666663</ele><time>2026-04-26T08:18:05Z</time></trkpt><trkpt lat="45.597075134996224" lon="10.821612234369534"><ele>271.3333333333333</ele><time>2026-04-26T08:18:06Z</time></trkpt><trkpt lat="45.597142844739345" lon="10.821567013960907"><ele>271.0</ele><time>2026-04-26T08:18:07Z</time></trkpt><trkpt lat="45.59721201980045" lon="10.821510644866851"><ele>271.0</ele><time>2026-04-26T08:18:08Z</time></trkpt><trkpt lat="45.59729518357548" lon="10.821433534665642"><ele>271.0</ele><time>2026-04-26T08:18:09Z</time></trkpt><trkpt lat="45.59735529022772" lon="10.821329607211398"><ele>271.0</ele><time>2026-04-26T08:18:10Z</time></trkpt><trkpt lat="45.59745919961014" lon="10.821207777557008"><ele>271.0</ele><time>2026-04-26T08:18:11Z</time></trkpt><trkpt lat="45.5975280878337" lon="10.821060037488332"><ele>271.0</ele><time>2026-04-26T08:18:12Z</time></trkpt><trkpt lat="45.597609449744894" lon="10.8209228868457"><ele>271.0</ele><time>2026-04-26T08:18:13Z</time></trkpt><trkpt lat="45.597680626448444" lon="10.820837227164679"><ele>271.0</ele><time>2026-04-26T08:18:14Z</time></trkpt><trkpt lat="45.59775788413588" lon="10.820750672038802"><ele>271.0</ele><time>2026-04-26T08:18:15Z</time></trkpt><trkpt lat="45.597845437116014" lon="10.820649916039615"><ele>271.0</ele><time>2026-04-26T08:18:16Z</time></trkpt><trkpt lat="45.597936025718255" lon="10.820557040415167"><ele>270.5</ele><time>2026-04-26T08:18:17Z</time></trkpt><trkpt lat="45.598046404931814" lon="10.820416694374776"><ele>270.0</ele><time>2026-04-26T08:18:18Z</time></trkpt><trkpt lat="45.598168481136845" lon="10.820279387068338"><ele>269.5</ele><time>2026-04-26T08:18:19Z</time></trkpt><trkpt lat="45.59826806313215" lon="10.8201615874092"><ele>269.0</ele><time>2026-04-26T08:18:20Z</time></trkpt><trkpt lat="45.598353707128695" lon="10.820059802155116"><ele>269.0</ele><time>2026-04-26T08:18:21Z</time></trkpt><trkpt lat="45.598410085558214" lon="10.819975928935701"><ele>269.0</ele><time>2026-04-26T08:18:22Z</time></trkpt><trkpt lat="45.598479832537535" lon="10.819915260867193"><ele>269.0</ele><time>2026-04-26T08:18:23Z</time></trkpt><trkpt lat="45.59858529683239" lon="10.819817853085052"><ele>269.0</ele><time>2026-04-26T08:18:25Z</time></trkpt><trkpt lat="45.598666497671296" lon="10.819728074630346"><ele>269.0</ele><time>2026-04-26T08:18:26Z</time></trkpt><trkpt lat="45.598778440402306" lon="10.81965269381219"><ele>268.75</ele><time>2026-04-26T08:18:27Z</time></trkpt><trkpt lat="45.5989074906521" lon="10.819562527098757"><ele>268.5</ele><time>2026-04-26T08:18:28Z</time></trkpt><trkpt lat="45.59904101166109" lon="10.819435819194842"><ele>268.25</ele><time>2026-04-26T08:18:29Z</time></trkpt><trkpt lat="45.599137253958844" lon="10.819371033123346"><ele>268.0</ele><time>2026-04-26T08:18:30Z</time></trkpt><trkpt lat="45.599208256593144" lon="10.819323082644296"><ele>268.2</ele><time>2026-04-26T08:18:31Z</time></trkpt><trkpt lat="45.59933504357759" lon="10.819244639566508"><ele>268.4</ele><time>2026-04-26T08:18:33Z</time></trkpt><trkpt lat="45.59940567157664" lon="10.8192074788611"><ele>268.59999999999997</ele><time>2026-04-26T08:18:34Z</time></trkpt><trkpt lat="45.59947060675268" lon="10.81917743477963"><ele>268.8</ele><time>2026-04-26T08:18:35Z</time></trkpt><trkpt lat="45.59954316580021" lon="10.819149461357437"><ele>269.0</ele><time>2026-04-26T08:18:36Z</time></trkpt><trkpt lat="45.599644228809176" lon="10.819129559813057"><ele>269.0</ele><time>2026-04-26T08:18:37Z</time></trkpt><trkpt lat="45.599766232683876" lon="10.819113391466349"><ele>269.0</ele><time>2026-04-26T08:18:38Z</time></trkpt><trkpt lat="45.59987262749382" lon="10.819067549710304"><ele>269.0</ele><time>2026-04-26T08:18:39Z</time></trkpt><trkpt lat="45.59994777621984" lon="10.819070354356835"><ele>269.0</ele><time>2026-04-26T08:18:40Z</time></trkpt><trkpt lat="45.60002502832317" lon="10.819059296286047"><ele>269.0</ele><time>2026-04-26T08:18:42Z</time></trkpt><trkpt lat="45.60010713339156" lon="10.819028764321756"><ele>269.0</ele><time>2026-04-26T08:19:04Z</time></trkpt><trkpt lat="45.600171308098396" lon="10.819012274837032"><ele>269.0</ele><time>2026-04-26T08:19:05Z</time></trkpt><trkpt lat="45.60025716020695" lon="10.819000115203375"><ele>269.0</ele><time>2026-04-26T08:19:06Z</time></trkpt><trkpt lat="45.60036040620165" lon="10.818967090586964"><ele>269.0</ele><time>2026-04-26T08:19:07Z</time></trkpt><trkpt lat="45.60047350071025" lon="10.818930069264827"><ele>269.0</ele><time>2026-04-26T08:19:08Z</time></trkpt><trkpt lat="45.60058909711822" lon="10.81889776671171"><ele>268.8</ele><time>2026-04-26T08:19:09Z</time></trkpt><trkpt lat="45.600703102699676" lon="10.81888277845363"><ele>268.59999999999997</ele><time>2026-04-26T08:19:10Z</time></trkpt><trkpt lat="45.600800984342555" lon="10.81882085530454"><ele>268.4</ele><time>2026-04-26T08:19:11Z</time></trkpt><trkpt lat="45.60089609539321" lon="10.818767048894449"><ele>268.2</ele><time>2026-04-26T08:19:12Z</time></trkpt><trkpt lat="45.60099204017593" lon="10.818703521311553"><ele>268.0</ele><time>2026-04-26T08:19:13Z</time></trkpt><trkpt lat="45.60108513553535" lon="10.818603566898867"><ele>267.75</ele><time>2026-04-26T08:19:14Z</time></trkpt><trkpt lat="45.601180327088834" lon="10.818465556507693"><ele>267.5</ele><time>2026-04-26T08:19:15Z</time></trkpt><trkpt lat="45.60129875093954" lon="10.818364774320974"><ele>267.25</ele><time>2026-04-26T08:19:16Z</time></trkpt><trkpt lat="45.601412902293646" lon="10.818256442098784"><ele>267.0</ele><time>2026-04-26T08:19:17Z</time></trkpt><trkpt lat="45.60151796862396" lon="10.8181498448645"><ele>267.0</ele><time>2026-04-26T08:19:18Z</time></trkpt><trkpt lat="45.60162245525246" lon="10.818035254062284"><ele>267.0</ele><time>2026-04-26T08:19:19Z</time></trkpt><trkpt lat="45.601724744691644" lon="10.817920005891372"><ele>267.0</ele><time>2026-04-26T08:19:20Z</time></trkpt><trkpt lat="45.60183093168371" lon="10.817794528161386"><ele>267.0</ele><time>2026-04-26T08:19:21Z</time></trkpt><trkpt lat="45.601924833234165" lon="10.817663283431362"><ele>267.0</ele><time>2026-04-26T08:19:22Z</time></trkpt><trkpt lat="45.60198364123969" lon="10.81752222206476"><ele>267.0</ele><time>2026-04-26T08:19:23Z</time></trkpt><trkpt lat="45.60204597866447" lon="10.817382493737517"><ele>267.0</ele><time>2026-04-26T08:19:24Z</time></trkpt><trkpt lat="45.60212567517084" lon="10.817246203423755"><ele>267.0</ele><time>2026-04-26T08:19:25Z</time></trkpt><trkpt lat="45.60217959983618" lon="10.817127864140001"><ele>267.0</ele><time>2026-04-26T08:19:26Z</time></trkpt><trkpt lat="45.602210072148324" lon="10.817026988153865"><ele>267.0</ele><time>2026-04-26T08:19:27Z</time></trkpt><trkpt lat="45.602231116586076" lon="10.816918535207563"><ele>267.0</ele><time>2026-04-26T08:19:28Z</time></trkpt><trkpt lat="45.602228017583556" lon="10.816761260341819"><ele>267.0</ele><time>2026-04-26T08:19:29Z</time></trkpt><trkpt lat="45.6022133649204" lon="10.816588261517692"><ele>267.0</ele><time>2026-04-26T08:19:30Z</time></trkpt><trkpt lat="45.60220495650743" lon="10.816464625053984"><ele>267.3333333333333</ele><time>2026-04-26T08:19:31Z</time></trkpt><trkpt lat="45.60220424443694" lon="10.816372750107965"><ele>267.6666666666667</ele><time>2026-04-26T08:19:32Z</time></trkpt><trkpt lat="45.60223068157381" lon="10.81625075912832"><ele>268.0</ele><time>2026-04-26T08:19:34Z</time></trkpt><trkpt lat="45.60227120677114" lon="10.816170383450869"><ele>268.33333333333337</ele><time>2026-04-26T08:19:35Z</time></trkpt><trkpt lat="45.60233034022449" lon="10.816113793228222"><ele>268.6666666666667</ele><time>2026-04-26T08:19:51Z</time></trkpt><trkpt lat="45.602428196838076" lon="10.816064935593223"><ele>269.0</ele><time>2026-04-26T08:19:53Z</time></trkpt><trkpt lat="45.602520133411" lon="10.816044424060058"><ele>269.0</ele><time>2026-04-26T08:19:54Z</time></trkpt><trkpt lat="45.60260451330174" lon="10.81601741433666"><ele>269.0</ele><time>2026-04-26T08:19:55Z</time></trkpt><trkpt lat="45.602682154202" lon="10.815976438126992"><ele>269.0</ele><time>2026-04-26T08:19:56Z</time></trkpt><trkpt lat="45.602754938882455" lon="10.815922456914453"><ele>269.0</ele><time>2026-04-26T08:19:59Z</time></trkpt><trkpt lat="45.60285672903513" lon="10.815822829849076"><ele>269.0</ele><time>2026-04-26T08:20:02Z</time></trkpt><trkpt lat="45.6029279686304" lon="10.815711357784373"><ele>268.59999999999997</ele><time>2026-04-26T08:20:03Z</time></trkpt><trkpt lat="45.60298752997633" lon="10.815590120761463"><ele>268.2</ele><time>2026-04-26T08:20:04Z</time></trkpt><trkpt lat="45.60302415667192" lon="10.815506741638917"><ele>267.79999999999995</ele><time>2026-04-26T08:20:06Z</time></trkpt><trkpt lat="45.60304903817069" lon="10.81541409616725"><ele>267.4</ele><time>2026-04-26T08:20:47Z</time></trkpt><trkpt lat="45.60292462120727" lon="10.815286279752137"><ele>267.0</ele><time>2026-04-26T08:20:48Z</time></trkpt><trkpt lat="45.602856510780796" lon="10.815244998737453"><ele>267.1666666666667</ele><time>2026-04-26T08:20:49Z</time></trkpt><trkpt lat="45.60278367935641" lon="10.815209741704257"><ele>267.3333333333333</ele><time>2026-04-26T08:20:50Z</time></trkpt><trkpt lat="45.60272243705945" lon="10.815184134265554"><ele>267.5</ele><time>2026-04-26T08:20:51Z</time></trkpt><trkpt lat="45.602606804234476" lon="10.815138617000128"><ele>267.66666666666663</ele><time>2026-04-26T08:20:53Z</time></trkpt><trkpt lat="45.602513483073636" lon="10.815097356344845"><ele>267.8333333333333</ele><time>2026-04-26T08:20:55Z</time></trkpt><trkpt lat="45.60242565918319" lon="10.815069159690742"><ele>268.0</ele><time>2026-04-26T08:20:57Z</time></trkpt><trkpt lat="45.602361421880744" lon="10.815054610680477"><ele>267.8333333333333</ele><time>2026-04-26T08:20:58Z</time></trkpt><trkpt lat="45.60229440822719" lon="10.815022842053677"><ele>267.66666666666663</ele><time>2026-04-26T08:20:59Z</time></trkpt><trkpt lat="45.60221813327459" lon="10.814982288185696"><ele>267.5</ele><time>2026-04-26T08:21:00Z</time></trkpt><trkpt lat="45.60213491832929" lon="10.814953917573478"><ele>267.3333333333333</ele><time>2026-04-26T08:21:01Z</time></trkpt><trkpt lat="45.60204949268737" lon="10.81492606207508"><ele>267.1666666666667</ele><time>2026-04-26T08:21:02Z</time></trkpt><trkpt lat="45.6019613246656" lon="10.814887535138796"><ele>267.0</ele><time>2026-04-26T08:21:03Z</time></trkpt><trkpt lat="45.601864412448336" lon="10.814836821108926"><ele>267.0</ele><time>2026-04-26T08:21:04Z</time></trkpt><trkpt lat="45.60176226080841" lon="10.814789374859044"><ele>267.0</ele><time>2026-04-26T08:21:05Z</time></trkpt><trkpt lat="45.60165346685273" lon="10.814745051891924"><ele>267.0</ele><time>2026-04-26T08:21:06Z</time></trkpt><trkpt lat="45.60153960234673" lon="10.81469701513035"><ele>267.0</ele><time>2026-04-26T08:21:07Z</time></trkpt><trkpt lat="45.601420678782276" lon="10.814645044823449"><ele>267.0</ele><time>2026-04-26T08:21:08Z</time></trkpt><trkpt lat="45.60129587327401" lon="10.814593177330417"><ele>267.0</ele><time>2026-04-26T08:21:09Z</time></trkpt><trkpt lat="45.60116502960238" lon="10.814539467578111"><ele>267.0</ele><time>2026-04-26T08:21:10Z</time></trkpt><trkpt lat="45.60103482151162" lon="10.814483893775849"><ele>267.0</ele><time>2026-04-26T08:21:11Z</time></trkpt><trkpt lat="45.600900802306604" lon="10.814428152783988"><ele>267.3333333333333</ele><time>2026-04-26T08:21:12Z</time></trkpt><trkpt lat="45.60076314991689" lon="10.814372371723142"><ele>267.66666666666663</ele><time>2026-04-26T08:21:13Z</time></trkpt><trkpt lat="45.60061731158489" lon="10.814313042869268"><ele>268.0</ele><time>2026-04-26T08:21:14Z</time></trkpt><trkpt lat="45.60046649269369" lon="10.814248777817902"><ele>267.66666666666663</ele><time>2026-04-26T08:21:15Z</time></trkpt><trkpt lat="45.60031817862702" lon="10.814183673057792"><ele>267.3333333333333</ele><time>2026-04-26T08:21:16Z</time></trkpt><trkpt lat="45.60016786744854" lon="10.81411977457552"><ele>267.0</ele><time>2026-04-26T08:21:17Z</time></trkpt><trkpt lat="45.60001866838935" lon="10.814055261556577"><ele>267.0</ele><time>2026-04-26T08:21:18Z</time></trkpt><trkpt lat="45.59986968183157" lon="10.813992977852404"><ele>267.0</ele><time>2026-04-26T08:21:19Z</time></trkpt><trkpt lat="45.59971771739675" lon="10.81393063067872"><ele>267.0</ele><time>2026-04-26T08:21:20Z</time></trkpt><trkpt lat="45.59956917393346" lon="10.81386763301637"><ele>267.0</ele><time>2026-04-26T08:21:21Z</time></trkpt><trkpt lat="45.59943254911925" lon="10.813807803329569"><ele>267.0</ele><time>2026-04-26T08:21:22Z</time></trkpt><trkpt lat="45.599302584691166" lon="10.81375201073334"><ele>267.0</ele><time>2026-04-26T08:21:23Z</time></trkpt><trkpt lat="45.59916857316538" lon="10.813706721309789"><ele>267.0</ele><time>2026-04-26T08:21:24Z</time></trkpt><trkpt lat="45.599037832610335" lon="10.813680093190682"><ele>267.0</ele><time>2026-04-26T08:21:25Z</time></trkpt><trkpt lat="45.59890762164616" lon="10.813701514335415"><ele>267.0</ele><time>2026-04-26T08:21:26Z</time></trkpt><trkpt lat="45.598777960216026" lon="10.813770239816622"><ele>267.0</ele><time>2026-04-26T08:21:27Z</time></trkpt><trkpt lat="45.59865035439565" lon="10.813872819795998"><ele>267.0</ele><time>2026-04-26T08:21:28Z</time></trkpt><trkpt lat="45.59853059620396" lon="10.813990268428794"><ele>266.5</ele><time>2026-04-26T08:21:29Z</time></trkpt><trkpt lat="45.59841416538177" lon="10.814113798357607"><ele>266.0</ele><time>2026-04-26T08:21:30Z</time></trkpt><trkpt lat="45.59830458071838" lon="10.814224259732923"><ele>265.5</ele><time>2026-04-26T08:21:31Z</time></trkpt><trkpt lat="45.59819191425858" lon="10.814335091199295"><ele>265.0</ele><time>2026-04-26T08:21:32Z</time></trkpt><trkpt lat="45.598080247922645" lon="10.814442944024703"><ele>266.0</ele><time>2026-04-26T08:21:33Z</time></trkpt><trkpt lat="45.59797958727199" lon="10.814541393178779"><ele>267.0</ele><time>2026-04-26T08:21:34Z</time></trkpt><trkpt lat="45.59788212249812" lon="10.814633405665264"><ele>268.0</ele><time>2026-04-26T08:21:35Z</time></trkpt><trkpt lat="45.59772651765293" lon="10.814765837130507"><ele>269.0</ele><time>2026-04-26T08:21:36Z</time></trkpt><trkpt lat="45.59759808657266" lon="10.814838267270938"><ele>270.0</ele><time>2026-04-26T08:21:37Z</time></trkpt><trkpt lat="45.597453944491356" lon="10.814853891318041"><ele>271.0</ele><time>2026-04-26T08:21:38Z</time></trkpt><trkpt lat="45.59730998458486" lon="10.814908831011289"><ele>272.0</ele><time>2026-04-26T08:21:39Z</time></trkpt><trkpt lat="45.59715751835208" lon="10.814939742451235"><ele>273.0</ele><time>2026-04-26T08:21:40Z</time></trkpt><trkpt lat="45.59699919843311" lon="10.814967792957766"><ele>273.3333333333333</ele><time>2026-04-26T08:21:41Z</time></trkpt><trkpt lat="45.596834890597876" lon="10.814995924830395"><ele>273.66666666666663</ele><time>2026-04-26T08:21:42Z</time></trkpt><trkpt lat="45.59666889920503" lon="10.815027892502995"><ele>274.0</ele><time>2026-04-26T08:21:43Z</time></trkpt><trkpt lat="45.59650668938818" lon="10.815066216135268"><ele>274.0</ele><time>2026-04-26T08:21:44Z</time></trkpt><trkpt lat="45.59634748091782" lon="10.815102113720815"><ele>274.0</ele><time>2026-04-26T08:21:45Z</time></trkpt><trkpt lat="45.59619120912824" lon="10.81514226615261"><ele>274.0</ele><time>2026-04-26T08:21:46Z</time></trkpt><trkpt lat="45.59605077102518" lon="10.815161702511157"><ele>272.5</ele><time>2026-04-26T08:21:47Z</time></trkpt><trkpt lat="45.59593486996103" lon="10.815142412041517"><ele>271.0</ele><time>2026-04-26T08:21:48Z</time></trkpt><trkpt lat="45.59584409146152" lon="10.815046048875718"><ele>269.5</ele><time>2026-04-26T08:21:49Z</time></trkpt><trkpt lat="45.59575564526906" lon="10.81494185079199"><ele>268.0</ele><time>2026-04-26T08:21:50Z</time></trkpt><trkpt lat="45.59568141385481" lon="10.814801240821208"><ele>268.0</ele><time>2026-04-26T08:21:51Z</time></trkpt><trkpt lat="45.59558565912146" lon="10.814645924474561"><ele>268.0</ele><time>2026-04-26T08:21:52Z</time></trkpt><trkpt lat="45.595487350425906" lon="10.8144865641259"><ele>268.0</ele><time>2026-04-26T08:21:53Z</time></trkpt><trkpt lat="45.595387047575755" lon="10.814323988210255"><ele>268.0</ele><time>2026-04-26T08:21:54Z</time></trkpt><trkpt lat="45.59528049619577" lon="10.814175349044746"><ele>264.5</ele><time>2026-04-26T08:21:55Z</time></trkpt><trkpt lat="45.5951870749419" lon="10.814021236614924"><ele>261.0</ele><time>2026-04-26T08:21:56Z</time></trkpt><trkpt lat="45.59509376717428" lon="10.813862446392573"><ele>257.5</ele><time>2026-04-26T08:21:57Z</time></trkpt><trkpt lat="45.59499620272637" lon="10.813700673515159"><ele>254.0</ele><time>2026-04-26T08:21:58Z</time></trkpt><trkpt lat="45.594883580627766" lon="10.813556476391557"><ele>254.33333333333334</ele><time>2026-04-26T08:21:59Z</time></trkpt><trkpt lat="45.59475819039037" lon="10.81343829057011"><ele>254.66666666666669</ele><time>2026-04-26T08:22:00Z</time></trkpt><trkpt lat="45.594613087661465" lon="10.813366253114804"><ele>255.0</ele><time>2026-04-26T08:22:01Z</time></trkpt><trkpt lat="45.59445696414158" lon="10.813332174387897"><ele>251.0</ele><time>2026-04-26T08:22:02Z</time></trkpt><trkpt lat="45.59429421526185" lon="10.813308901493071"><ele>247.0</ele><time>2026-04-26T08:22:03Z</time></trkpt><trkpt lat="45.594130128922686" lon="10.813272473130551"><ele>243.0</ele><time>2026-04-26T08:22:04Z</time></trkpt><trkpt lat="45.59396894612146" lon="10.813229901527041"><ele>243.0</ele><time>2026-04-26T08:22:05Z</time></trkpt><trkpt lat="45.59380908276355" lon="10.813183573149212"><ele>243.0</ele><time>2026-04-26T08:22:06Z</time></trkpt><trkpt lat="45.593654774229556" lon="10.813142125369525"><ele>243.0</ele><time>2026-04-26T08:22:07Z</time></trkpt><trkpt lat="45.59350590793481" lon="10.813104343372093"><ele>241.25</ele><time>2026-04-26T08:22:08Z</time></trkpt><trkpt lat="45.59336455037706" lon="10.813065850110524"><ele>239.5</ele><time>2026-04-26T08:22:09Z</time></trkpt><trkpt lat="45.593223874591125" lon="10.813030041889448"><ele>237.75</ele><time>2026-04-26T08:22:10Z</time></trkpt><trkpt lat="45.593087131813924" lon="10.81300263327296"><ele>236.0</ele><time>2026-04-26T08:22:11Z</time></trkpt><trkpt lat="45.592940207620885" lon="10.812999590443438"><ele>232.66666666666669</ele><time>2026-04-26T08:22:12Z</time></trkpt><trkpt lat="45.592790503961965" lon="10.81304599043878"><ele>229.33333333333331</ele><time>2026-04-26T08:22:13Z</time></trkpt><trkpt lat="45.59264400116687" lon="10.813137982757775"><ele>226.0</ele><time>2026-04-26T08:22:14Z</time></trkpt><trkpt lat="45.59249482331114" lon="10.813248977041184"><ele>226.0</ele><time>2026-04-26T08:22:15Z</time></trkpt><trkpt lat="45.59234991479378" lon="10.813363419768427"><ele>226.0</ele><time>2026-04-26T08:22:16Z</time></trkpt><trkpt lat="45.59220877969736" lon="10.813471811080069"><ele>226.0</ele><time>2026-04-26T08:22:17Z</time></trkpt><trkpt lat="45.592071292560455" lon="10.813573591840811"><ele>224.33333333333331</ele><time>2026-04-26T08:22:18Z</time></trkpt><trkpt lat="45.59193570407268" lon="10.813675347080991"><ele>222.66666666666669</ele><time>2026-04-26T08:22:19Z</time></trkpt><trkpt lat="45.59179927346158" lon="10.813780154117664"><ele>221.0</ele><time>2026-04-26T08:22:20Z</time></trkpt><trkpt lat="45.591661761592384" lon="10.813878911232493"><ele>221.0</ele><time>2026-04-26T08:22:21Z</time></trkpt><trkpt lat="45.5915271117696" lon="10.813963915023205"><ele>221.0</ele><time>2026-04-26T08:22:22Z</time></trkpt><trkpt lat="45.59136955005857" lon="10.81401336104361"><ele>221.0</ele><time>2026-04-26T08:22:23Z</time></trkpt><trkpt lat="45.59120032556209" lon="10.814011634702691"><ele>219.66666666666669</ele><time>2026-04-26T08:22:24Z</time></trkpt><trkpt lat="45.59102308017094" lon="10.813998797553843"><ele>218.33333333333331</ele><time>2026-04-26T08:22:25Z</time></trkpt><trkpt lat="45.59083409351285" lon="10.813972077046799"><ele>217.0</ele><time>2026-04-26T08:22:26Z</time></trkpt><trkpt lat="45.59064407894503" lon="10.813927248354934"><ele>217.0</ele><time>2026-04-26T08:22:27Z</time></trkpt><trkpt lat="45.59046107549152" lon="10.81389905232545"><ele>217.0</ele><time>2026-04-26T08:22:28Z</time></trkpt><trkpt lat="45.590281052463965" lon="10.813868470564522"><ele>217.0</ele><time>2026-04-26T08:22:29Z</time></trkpt><trkpt lat="45.59013375987056" lon="10.813826476654757"><ele>215.0</ele><time>2026-04-26T08:22:30Z</time></trkpt><trkpt lat="45.589977426361045" lon="10.813756399229453"><ele>213.0</ele><time>2026-04-26T08:22:31Z</time></trkpt><trkpt lat="45.58982111402714" lon="10.813675269415352"><ele>211.0</ele><time>2026-04-26T08:22:32Z</time></trkpt><trkpt lat="45.58965953819227" lon="10.813590300080172"><ele>211.0</ele><time>2026-04-26T08:22:33Z</time></trkpt><trkpt lat="45.58949670817681" lon="10.813504669534671"><ele>211.0</ele><time>2026-04-26T08:22:34Z</time></trkpt><trkpt lat="45.589330320768624" lon="10.813430723476179"><ele>211.0</ele><time>2026-04-26T08:22:35Z</time></trkpt><trkpt lat="45.589163613240174" lon="10.813344517107849"><ele>211.0</ele><time>2026-04-26T08:22:36Z</time></trkpt><trkpt lat="45.58899906292211" lon="10.813257483101598"><ele>211.0</ele><time>2026-04-26T08:22:37Z</time></trkpt><trkpt lat="45.588836474653725" lon="10.813170043964563"><ele>211.0</ele><time>2026-04-26T08:22:38Z</time></trkpt><trkpt lat="45.588694934659095" lon="10.813094464791728"><ele>210.60000000000002</ele><time>2026-04-26T08:22:39Z</time></trkpt><trkpt lat="45.58857691411528" lon="10.813035493215196"><ele>210.2</ele><time>2026-04-26T08:22:40Z</time></trkpt><trkpt lat="45.5884744567086" lon="10.812983314952014"><ele>209.8</ele><time>2026-04-26T08:22:41Z</time></trkpt><trkpt lat="45.588392174189615" lon="10.812939908357514"><ele>209.39999999999998</ele><time>2026-04-26T08:22:42Z</time></trkpt><trkpt lat="45.588328829259034" lon="10.812907264504773"><ele>209.0</ele><time>2026-04-26T08:22:43Z</time></trkpt><trkpt lat="45.58825539621225" lon="10.813031000320692"><ele>209.00000000000003</ele><time>2026-04-26T08:22:47Z</time></trkpt><trkpt lat="45.588257584918104" lon="10.813128962739187"><ele>209.0</ele><time>2026-04-26T08:22:48Z</time></trkpt><trkpt lat="45.58826218542896" lon="10.813225173802406"><ele>209.0</ele><time>2026-04-26T08:22:49Z</time></trkpt><trkpt lat="45.588272607117474" lon="10.813316326935892"><ele>209.0</ele><time>2026-04-26T08:22:50Z</time></trkpt><trkpt lat="45.58829692896581" lon="10.813417366079387"><ele>209.00000000000003</ele><time>2026-04-26T08:22:51Z</time></trkpt><trkpt lat="45.588341804863674" lon="10.813517964302957"><ele>209.0</ele><time>2026-04-26T08:22:52Z</time></trkpt><trkpt lat="45.588413789708326" lon="10.81360383783086"><ele>209.0</ele><time>2026-04-26T08:22:53Z</time></trkpt><trkpt lat="45.58849695589254" lon="10.81368166681578"><ele>209.0</ele><time>2026-04-26T08:22:54Z</time></trkpt><trkpt lat="45.58858501175909" lon="10.813764404433687"><ele>209.0</ele><time>2026-04-26T08:22:55Z</time></trkpt><trkpt lat="45.5886700237894" lon="10.813850355981891"><ele>209.0</ele><time>2026-04-26T08:22:56Z</time></trkpt><trkpt lat="45.588757743064875" lon="10.81394874051764"><ele>209.0</ele><time>2026-04-26T08:22:57Z</time></trkpt><trkpt lat="45.58884039435768" lon="10.814048816072447"><ele>209.2</ele><time>2026-04-26T08:22:58Z</time></trkpt><trkpt lat="45.5889250187892" lon="10.814156834399364"><ele>209.39999999999998</ele><time>2026-04-26T08:22:59Z</time></trkpt><trkpt lat="45.58900105448195" lon="10.814257296912443"><ele>209.6</ele><time>2026-04-26T08:23:00Z</time></trkpt><trkpt lat="45.58907816940427" lon="10.814370266223994"><ele>209.8</ele><time>2026-04-26T08:23:01Z</time></trkpt><trkpt lat="45.58915651829289" lon="10.8144868906642"><ele>210.0</ele><time>2026-04-26T08:23:02Z</time></trkpt><trkpt lat="45.58923476683547" lon="10.814609756139564"><ele>210.25</ele><time>2026-04-26T08:23:03Z</time></trkpt><trkpt lat="45.58931645101527" lon="10.814738179444216"><ele>210.5</ele><time>2026-04-26T08:23:04Z</time></trkpt><trkpt lat="45.58940000477833" lon="10.814866789106576"><ele>210.75</ele><time>2026-04-26T08:23:05Z</time></trkpt><trkpt lat="45.58948288697285" lon="10.814999355854102"><ele>211.0</ele><time>2026-04-26T08:23:06Z</time></trkpt><trkpt lat="45.58956242734315" lon="10.815134342387443"><ele>210.75</ele><time>2026-04-26T08:23:07Z</time></trkpt><trkpt lat="45.589639898863915" lon="10.815269764521549"><ele>210.5</ele><time>2026-04-26T08:23:08Z</time></trkpt><trkpt lat="45.589720187342984" lon="10.815411657974884"><ele>210.25</ele><time>2026-04-26T08:23:09Z</time></trkpt><trkpt lat="45.589806328488756" lon="10.815552100582508"><ele>210.0</ele><time>2026-04-26T08:23:10Z</time></trkpt><trkpt lat="45.58989577839754" lon="10.81569032985591"><ele>210.0</ele><time>2026-04-26T08:23:11Z</time></trkpt><trkpt lat="45.58998971067902" lon="10.815827856265551"><ele>210.0</ele><time>2026-04-26T08:23:12Z</time></trkpt><trkpt lat="45.59008520091179" lon="10.81596226813375"><ele>210.0</ele><time>2026-04-26T08:23:13Z</time></trkpt><trkpt lat="45.590180327720965" lon="10.816099265447724"><ele>210.0</ele><time>2026-04-26T08:23:14Z</time></trkpt><trkpt lat="45.59027338954907" lon="10.816244769686174"><ele>211.75</ele><time>2026-04-26T08:23:15Z</time></trkpt><trkpt lat="45.59035952029303" lon="10.81639211502356"><ele>213.5</ele><time>2026-04-26T08:23:16Z</time></trkpt><trkpt lat="45.590438017910735" lon="10.816542311213373"><ele>215.25</ele><time>2026-04-26T08:23:17Z</time></trkpt><trkpt lat="45.590518900651055" lon="10.816689628411906"><ele>217.0</ele><time>2026-04-26T08:23:18Z</time></trkpt><trkpt lat="45.59059900124329" lon="10.816835891825807"><ele>217.0</ele><time>2026-04-26T08:23:19Z</time></trkpt><trkpt lat="45.5906791604138" lon="10.816981504702717"><ele>217.0</ele><time>2026-04-26T08:23:20Z</time></trkpt><trkpt lat="45.5907520280517" lon="10.817128301055194"><ele>217.0</ele><time>2026-04-26T08:23:21Z</time></trkpt><trkpt lat="45.5908063643371" lon="10.817245297138067"><ele>217.0</ele><time>2026-04-26T08:23:22Z</time></trkpt><trkpt lat="45.59083805672067" lon="10.817345751441147"><ele>217.0</ele><time>2026-04-26T08:23:23Z</time></trkpt><trkpt lat="45.590873293346526" lon="10.817445234792272"><ele>216.99999999999997</ele><time>2026-04-26T08:23:24Z</time></trkpt><trkpt lat="45.59090541978725" lon="10.817533334012504"><ele>217.0</ele><time>2026-04-26T08:23:25Z</time></trkpt><trkpt lat="45.59093174082711" lon="10.81761754537755"><ele>217.0</ele><time>2026-04-26T08:23:26Z</time></trkpt><trkpt lat="45.59094619465976" lon="10.817714219042042"><ele>217.0</ele><time>2026-04-26T08:23:27Z</time></trkpt><trkpt lat="45.590947208785416" lon="10.817827616096922"><ele>216.99999999999997</ele><time>2026-04-26T08:23:28Z</time></trkpt><trkpt lat="45.59093041340329" lon="10.81795137503711"><ele>217.0</ele><time>2026-04-26T08:23:29Z</time></trkpt><trkpt lat="45.59090194888433" lon="10.818075285433688"><ele>217.0</ele><time>2026-04-26T08:23:30Z</time></trkpt><trkpt lat="45.59086364649448" lon="10.818209538801673"><ele>217.0</ele><time>2026-04-26T08:23:31Z</time></trkpt><trkpt lat="45.59082190283564" lon="10.818348361987264"><ele>217.0</ele><time>2026-04-26T08:23:32Z</time></trkpt><trkpt lat="45.590776369352525" lon="10.818502768334039"><ele>217.0</ele><time>2026-04-26T08:23:33Z</time></trkpt><trkpt lat="45.59073842091579" lon="10.818657295690274"><ele>217.0</ele><time>2026-04-26T08:23:34Z</time></trkpt><trkpt lat="45.590705557827164" lon="10.818818892019781"><ele>217.0</ele><time>2026-04-26T08:23:35Z</time></trkpt><trkpt lat="45.5906673355341" lon="10.818973769979195"><ele>217.0</ele><time>2026-04-26T08:23:36Z</time></trkpt><trkpt lat="45.59063072080276" lon="10.81912194353052"><ele>217.0</ele><time>2026-04-26T08:23:37Z</time></trkpt><trkpt lat="45.59059913474596" lon="10.819263882931173"><ele>217.0</ele><time>2026-04-26T08:23:38Z</time></trkpt><trkpt lat="45.59057141057912" lon="10.819398424070465"><ele>217.0</ele><time>2026-04-26T08:23:39Z</time></trkpt><trkpt lat="45.59054652685183" lon="10.8195313836506"><ele>217.2</ele><time>2026-04-26T08:23:40Z</time></trkpt><trkpt lat="45.59053720740872" lon="10.819662258330702"><ele>217.39999999999998</ele><time>2026-04-26T08:23:41Z</time></trkpt><trkpt lat="45.59053260234668" lon="10.819805481159843"><ele>217.60000000000002</ele><time>2026-04-26T08:23:42Z</time></trkpt><trkpt lat="45.59053173821142" lon="10.819951480219382"><ele>217.8</ele><time>2026-04-26T08:23:43Z</time></trkpt><trkpt lat="45.590520928903835" lon="10.82009452420373"><ele>218.0</ele><time>2026-04-26T08:23:44Z</time></trkpt><trkpt lat="45.59049575667357" lon="10.820234113516829"><ele>218.25</ele><time>2026-04-26T08:23:45Z</time></trkpt><trkpt lat="45.59044728198158" lon="10.82037098537005"><ele>218.5</ele><time>2026-04-26T08:23:46Z</time></trkpt><trkpt lat="45.59039212519457" lon="10.820514989299136"><ele>218.75</ele><time>2026-04-26T08:23:47Z</time></trkpt><trkpt lat="45.59033084230015" lon="10.820654348593745"><ele>219.0</ele><time>2026-04-26T08:23:48Z</time></trkpt><trkpt lat="45.59025980849729" lon="10.820785549944128"><ele>218.66666666666666</ele><time>2026-04-26T08:23:49Z</time></trkpt><trkpt lat="45.590190634829874" lon="10.820916361170204"><ele>218.33333333333331</ele><time>2026-04-26T08:23:50Z</time></trkpt><trkpt lat="45.590122560722065" lon="10.821024359566149"><ele>218.0</ele><time>2026-04-26T08:23:51Z</time></trkpt><trkpt lat="45.59006597212527" lon="10.821114790908103"><ele>217.66666666666666</ele><time>2026-04-26T08:23:52Z</time></trkpt><trkpt lat="45.590013154047185" lon="10.821194852059929"><ele>217.33333333333331</ele><time>2026-04-26T08:23:53Z</time></trkpt><trkpt lat="45.5899676041579" lon="10.821265356017616"><ele>217.0</ele><time>2026-04-26T08:23:54Z</time></trkpt><trkpt lat="45.58989084657562" lon="10.821407824441241"><ele>218.0</ele><time>2026-04-26T08:23:56Z</time></trkpt><trkpt lat="45.589828441305464" lon="10.821507876190406"><ele>219.0</ele><time>2026-04-26T08:23:58Z</time></trkpt><trkpt lat="45.58972022334221" lon="10.821527819933769"><ele>220.0</ele><time>2026-04-26T08:24:00Z</time></trkpt><trkpt lat="45.58963689845993" lon="10.821524406818874"><ele>221.0</ele><time>2026-04-26T08:24:01Z</time></trkpt><trkpt lat="45.58954438690232" lon="10.821544345806492"><ele>222.0</ele><time>2026-04-26T08:24:02Z</time></trkpt><trkpt lat="45.58944796714805" lon="10.821573270193324"><ele>222.0</ele><time>2026-04-26T08:24:03Z</time></trkpt><trkpt lat="45.589369136289505" lon="10.821650954233233"><ele>222.0</ele><time>2026-04-26T08:24:04Z</time></trkpt><trkpt lat="45.58926296131205" lon="10.82160623228673"><ele>222.0</ele><time>2026-04-26T08:24:05Z</time></trkpt><trkpt lat="45.58918073498699" lon="10.821621568119646"><ele>222.0</ele><time>2026-04-26T08:24:06Z</time></trkpt><trkpt lat="45.58909376349499" lon="10.8216480488902"><ele>222.0</ele><time>2026-04-26T08:24:07Z</time></trkpt><trkpt lat="45.58900878973142" lon="10.821673471437968"><ele>222.0</ele><time>2026-04-26T08:24:08Z</time></trkpt><trkpt lat="45.58891582371807" lon="10.821700600201334"><ele>222.0</ele><time>2026-04-26T08:24:09Z</time></trkpt><trkpt lat="45.58882737523632" lon="10.821718242264367"><ele>222.0</ele><time>2026-04-26T08:24:10Z</time></trkpt><trkpt lat="45.58875519724821" lon="10.821721896346235"><ele>222.0</ele><time>2026-04-26T08:24:11Z</time></trkpt><trkpt lat="45.58868154413823" lon="10.821740131861715"><ele>222.0</ele><time>2026-04-26T08:24:12Z</time></trkpt><trkpt lat="45.58861409327496" lon="10.821759084230692"><ele>222.0</ele><time>2026-04-26T08:24:13Z</time></trkpt><trkpt lat="45.588525130825346" lon="10.821842385496009"><ele>221.33333333333334</ele><time>2026-04-26T08:24:15Z</time></trkpt><trkpt lat="45.58844526875292" lon="10.821725872108255"><ele>220.66666666666669</ele><time>2026-04-26T08:24:16Z</time></trkpt><trkpt lat="45.58838259246844" lon="10.821714434860633"><ele>220.0</ele><time>2026-04-26T08:24:17Z</time></trkpt><trkpt lat="45.588262744104895" lon="10.82169156412688"><ele>219.33333333333334</ele><time>2026-04-26T08:24:19Z</time></trkpt><trkpt lat="45.58818747142651" lon="10.821695081889626"><ele>218.66666666666669</ele><time>2026-04-26T08:24:20Z</time></trkpt><trkpt lat="45.588120689132516" lon="10.821656365156475"><ele>218.0</ele><time>2026-04-26T08:24:21Z</time></trkpt><trkpt lat="45.588010203112376" lon="10.82164360059916"><ele>218.0</ele><time>2026-04-26T08:24:23Z</time></trkpt><trkpt lat="45.5878994481499" lon="10.82161813162365"><ele>218.0</ele><time>2026-04-26T08:24:25Z</time></trkpt><trkpt lat="45.58777253375474" lon="10.821589293099397"><ele>218.0</ele><time>2026-04-26T08:24:27Z</time></trkpt><trkpt lat="45.58765333927833" lon="10.821573032858025"><ele>218.0</ele><time>2026-04-26T08:24:29Z</time></trkpt><trkpt lat="45.587559573760075" lon="10.821556331220537"><ele>217.50000000000003</ele><time>2026-04-26T08:24:31Z</time></trkpt><trkpt lat="45.587481213790696" lon="10.821552167357433"><ele>217.0</ele><time>2026-04-26T08:24:33Z</time></trkpt><trkpt lat="45.587390890091456" lon="10.821553513470965"><ele>216.5</ele><time>2026-04-26T08:24:35Z</time></trkpt><trkpt lat="45.58733243406041" lon="10.8215137508422"><ele>216.0</ele><time>2026-04-26T08:24:38Z</time></trkpt><trkpt lat="45.58733092641304" lon="10.821370970223313"><ele>215.50000000000003</ele><time>2026-04-26T08:24:42Z</time></trkpt><trkpt lat="45.587324638443896" lon="10.821256563859292"><ele>215.0</ele><time>2026-04-26T08:24:44Z</time></trkpt><trkpt lat="45.58724568798939" lon="10.821152462255748"><ele>215.00000000000003</ele><time>2026-04-26T08:24:46Z</time></trkpt><trkpt lat="45.58716564248788" lon="10.82113076738209"><ele>215.0</ele><time>2026-04-26T08:24:48Z</time></trkpt><trkpt lat="45.58707916749847" lon="10.8210790579786"><ele>215.0</ele><time>2026-04-26T08:24:50Z</time></trkpt><trkpt lat="45.58700822330765" lon="10.821034899412153"><ele>215.0</ele><time>2026-04-26T08:24:52Z</time></trkpt><trkpt lat="45.586914778760516" lon="10.820970052380055"><ele>215.00000000000003</ele><time>2026-04-26T08:24:54Z</time></trkpt><trkpt lat="45.58683289562909" lon="10.82090720056677"><ele>215.0</ele><time>2026-04-26T08:24:56Z</time></trkpt><trkpt lat="45.58675141024181" lon="10.820845366013188"><ele>213.6</ele><time>2026-04-26T08:24:58Z</time></trkpt><trkpt lat="45.586762965175794" lon="10.820711891533618"><ele>212.2</ele><time>2026-04-26T08:25:00Z</time></trkpt><trkpt lat="45.5868342142511" lon="10.82065311629204"><ele>210.8</ele><time>2026-04-26T08:25:02Z</time></trkpt><trkpt lat="45.5869331906762" lon="10.820655410308513"><ele>209.4</ele><time>2026-04-26T08:25:04Z</time></trkpt><trkpt lat="45.58704563229768" lon="10.82061912861184"><ele>208.0</ele><time>2026-04-26T08:25:06Z</time></trkpt><trkpt lat="45.58712052381978" lon="10.82056729687306"><ele>207.99999999999997</ele><time>2026-04-26T08:25:08Z</time></trkpt><trkpt lat="45.58714799389012" lon="10.820448494013435"><ele>208.0</ele><time>2026-04-26T08:25:10Z</time></trkpt><trkpt lat="45.58710960273568" lon="10.820367762715335"><ele>208.0</ele><time>2026-04-26T08:25:11Z</time></trkpt><trkpt lat="45.587013780558074" lon="10.820283946480757"><ele>208.0</ele><time>2026-04-26T08:25:13Z</time></trkpt><trkpt lat="45.586957006634705" lon="10.820228951836995"><ele>207.99999999999997</ele><time>2026-04-26T08:25:14Z</time></trkpt><trkpt lat="45.586871684956726" lon="10.820141534927497"><ele>208.0</ele><time>2026-04-26T08:25:16Z</time></trkpt><trkpt lat="45.58683536018813" lon="10.820049269969784"><ele>205.60000000000002</ele><time>2026-04-26T08:25:18Z</time></trkpt><trkpt lat="45.586807752284486" lon="10.819957624597668"><ele>203.20000000000002</ele><time>2026-04-26T08:25:20Z</time></trkpt><trkpt lat="45.58679280702179" lon="10.819866504553879"><ele>200.8</ele><time>2026-04-26T08:25:21Z</time></trkpt><trkpt lat="45.58678749765746" lon="10.81969925626602"><ele>198.4</ele><time>2026-04-26T08:25:23Z</time></trkpt><trkpt lat="45.5867798017731" lon="10.81951985968067"><ele>196.0</ele><time>2026-04-26T08:25:25Z</time></trkpt><trkpt lat="45.586758692954874" lon="10.819358129831446"><ele>195.0</ele><time>2026-04-26T08:25:27Z</time></trkpt><trkpt lat="45.586766632379664" lon="10.819154825303865"><ele>194.0</ele><time>2026-04-26T08:25:29Z</time></trkpt><trkpt lat="45.586745024085246" lon="10.819004673047244"><ele>193.0</ele><time>2026-04-26T08:25:30Z</time></trkpt><trkpt lat="45.58675586091267" lon="10.818837812447661"><ele>192.0</ele><time>2026-04-26T08:25:31Z</time></trkpt><trkpt lat="45.58673527176566" lon="10.818701012299126"><ele>192.0</ele><time>2026-04-26T08:25:32Z</time></trkpt><trkpt lat="45.586735063914084" lon="10.818570570373545"><ele>192.0</ele><time>2026-04-26T08:25:33Z</time></trkpt><trkpt lat="45.586737857315974" lon="10.81843811412099"><ele>192.0</ele><time>2026-04-26T08:25:34Z</time></trkpt><trkpt lat="45.586724692824305" lon="10.818330456429978"><ele>192.0</ele><time>2026-04-26T08:25:35Z</time></trkpt><trkpt lat="45.58671502301119" lon="10.818226651541899"><ele>192.0</ele><time>2026-04-26T08:25:36Z</time></trkpt><trkpt lat="45.58670001914466" lon="10.818114269152383"><ele>192.0</ele><time>2026-04-26T08:25:37Z</time></trkpt><trkpt lat="45.58668769157974" lon="10.818008965224758"><ele>192.16666666666666</ele><time>2026-04-26T08:25:38Z</time></trkpt><trkpt lat="45.58666137556446" lon="10.817903224474719"><ele>192.33333333333331</ele><time>2026-04-26T08:25:39Z</time></trkpt><trkpt lat="45.58663113244762" lon="10.817802500319685"><ele>192.5</ele><time>2026-04-26T08:25:40Z</time></trkpt><trkpt lat="45.58664091751283" lon="10.817697192384982"><ele>192.66666666666666</ele><time>2026-04-26T08:25:41Z</time></trkpt><trkpt lat="45.586646615029736" lon="10.817582014032862"><ele>192.83333333333331</ele><time>2026-04-26T08:25:42Z</time></trkpt><trkpt lat="45.58665544650435" lon="10.817460532325113"><ele>193.0</ele><time>2026-04-26T08:25:43Z</time></trkpt><trkpt lat="45.586665055291114" lon="10.81733728918667"><ele>193.00000000000003</ele><time>2026-04-26T08:25:44Z</time></trkpt><trkpt lat="45.586670579613255" lon="10.817233301067677"><ele>193.0</ele><time>2026-04-26T08:25:45Z</time></trkpt><trkpt lat="45.58667164468235" lon="10.817132643942847"><ele>193.0</ele><time>2026-04-26T08:25:46Z</time></trkpt><trkpt lat="45.58666726294523" lon="10.817036913772327"><ele>193.0</ele><time>2026-04-26T08:25:47Z</time></trkpt><trkpt lat="45.58665358528067" lon="10.816931389191458"><ele>193.0</ele><time>2026-04-26T08:25:48Z</time></trkpt><trkpt lat="45.58662003028223" lon="10.816839632655714"><ele>193.00000000000003</ele><time>2026-04-26T08:25:49Z</time></trkpt><trkpt lat="45.58657156661937" lon="10.816747400630256"><ele>193.0</ele><time>2026-04-26T08:25:50Z</time></trkpt><trkpt lat="45.58650130748838" lon="10.816664747097224"><ele>192.4</ele><time>2026-04-26T08:25:51Z</time></trkpt><trkpt lat="45.58643559552175" lon="10.816564453660986"><ele>191.8</ele><time>2026-04-26T08:25:52Z</time></trkpt><trkpt lat="45.58636768127393" lon="10.816456415334681"><ele>191.2</ele><time>2026-04-26T08:25:53Z</time></trkpt><trkpt lat="45.586297917840305" lon="10.816352871395427"><ele>190.6</ele><time>2026-04-26T08:25:54Z</time></trkpt><trkpt lat="45.58623460007085" lon="10.816242303803934"><ele>190.0</ele><time>2026-04-26T08:25:55Z</time></trkpt><trkpt lat="45.58616851821016" lon="10.816132326035431"><ele>189.2</ele><time>2026-04-26T08:25:56Z</time></trkpt><trkpt lat="45.58610070278044" lon="10.816020638052962"><ele>188.4</ele><time>2026-04-26T08:25:57Z</time></trkpt><trkpt lat="45.58603857287938" lon="10.815894054489224"><ele>187.60000000000002</ele><time>2026-04-26T08:25:58Z</time></trkpt><trkpt lat="45.58595437744136" lon="10.815787456109879"><ele>186.8</ele><time>2026-04-26T08:25:59Z</time></trkpt><trkpt lat="45.585890160614106" lon="10.815651075927853"><ele>186.0</ele><time>2026-04-26T08:26:00Z</time></trkpt><trkpt lat="45.58580301326278" lon="10.815540613432152"><ele>186.0</ele><time>2026-04-26T08:26:01Z</time></trkpt><trkpt lat="45.58572453099409" lon="10.815409943052671"><ele>186.0</ele><time>2026-04-26T08:26:02Z</time></trkpt><trkpt lat="45.58564438175294" lon="10.815281544157235"><ele>186.0</ele><time>2026-04-26T08:26:03Z</time></trkpt><trkpt lat="45.58556095761872" lon="10.815149518624539"><ele>186.0</ele><time>2026-04-26T08:26:04Z</time></trkpt><trkpt lat="45.585487015424974" lon="10.815013315088743"><ele>186.20000000000002</ele><time>2026-04-26T08:26:05Z</time></trkpt><trkpt lat="45.5853990073662" lon="10.814905272158652"><ele>186.4</ele><time>2026-04-26T08:26:06Z</time></trkpt><trkpt lat="45.58533147163852" lon="10.81479523294668"><ele>186.6</ele><time>2026-04-26T08:26:07Z</time></trkpt><trkpt lat="45.585274225462044" lon="10.814701722331785"><ele>186.8</ele><time>2026-04-26T08:26:08Z</time></trkpt><trkpt lat="45.58520987857283" lon="10.814596933258915"><ele>187.0</ele><time>2026-04-26T08:26:09Z</time></trkpt><trkpt lat="45.58514820973347" lon="10.814492026220087"><ele>186.66666666666669</ele><time>2026-04-26T08:26:10Z</time></trkpt><trkpt lat="45.585103573784856" lon="10.814371613148277"><ele>186.33333333333334</ele><time>2026-04-26T08:26:11Z</time></trkpt><trkpt lat="45.585052619452945" lon="10.814274911165159"><ele>186.0</ele><time>2026-04-26T08:26:12Z</time></trkpt><trkpt lat="45.5850089872307" lon="10.81419210530194"><ele>185.66666666666666</ele><time>2026-04-26T08:26:13Z</time></trkpt><trkpt lat="45.584965783231574" lon="10.814119457718675"><ele>185.33333333333331</ele><time>2026-04-26T08:26:14Z</time></trkpt><trkpt lat="45.584874633388274" lon="10.814024781082308"><ele>185.0</ele><time>2026-04-26T08:26:16Z</time></trkpt><trkpt lat="45.584828256211786" lon="10.813957251428917"><ele>185.0</ele><time>2026-04-26T08:26:18Z</time></trkpt><trkpt lat="45.58476555590933" lon="10.814153233913354"><ele>185.0</ele><time>2026-04-26T08:26:26Z</time></trkpt><trkpt lat="45.584813550211955" lon="10.814295216402774"><ele>185.0</ele><time>2026-04-26T08:26:27Z</time></trkpt><trkpt lat="45.58485782061536" lon="10.814427588875159"><ele>185.0</ele><time>2026-04-26T08:26:28Z</time></trkpt><trkpt lat="45.58489809456382" lon="10.814564790020855"><ele>184.0</ele><time>2026-04-26T08:26:29Z</time></trkpt><trkpt lat="45.58493296274755" lon="10.814724425000168"><ele>183.0</ele><time>2026-04-26T08:26:30Z</time></trkpt><trkpt lat="45.58494934121621" lon="10.814898129203387"><ele>182.0</ele><time>2026-04-26T08:26:31Z</time></trkpt><trkpt lat="45.584940713619176" lon="10.81508303497274"><ele>181.0</ele><time>2026-04-26T08:26:32Z</time></trkpt><trkpt lat="45.58491108960189" lon="10.815272908600651"><ele>181.0</ele><time>2026-04-26T08:26:33Z</time></trkpt><trkpt lat="45.5848782081357" lon="10.815463284245343"><ele>181.0</ele><time>2026-04-26T08:26:34Z</time></trkpt><trkpt lat="45.58484162198513" lon="10.815655809185888"><ele>181.0</ele><time>2026-04-26T08:26:35Z</time></trkpt><trkpt lat="45.58478855705185" lon="10.815837614430961"><ele>181.0</ele><time>2026-04-26T08:26:36Z</time></trkpt><trkpt lat="45.58471734127364" lon="10.816011697575956"><ele>182.25</ele><time>2026-04-26T08:26:37Z</time></trkpt><trkpt lat="45.58462929487059" lon="10.816168653124217"><ele>183.5</ele><time>2026-04-26T08:26:38Z</time></trkpt><trkpt lat="45.584538703363165" lon="10.81631175610655"><ele>184.75</ele><time>2026-04-26T08:26:39Z</time></trkpt><trkpt lat="45.58445610321203" lon="10.816452391815327"><ele>186.0</ele><time>2026-04-26T08:26:40Z</time></trkpt><trkpt lat="45.58436971290029" lon="10.816601705846619"><ele>182.75</ele><time>2026-04-26T08:26:41Z</time></trkpt><trkpt lat="45.58428722906947" lon="10.816742163095658"><ele>179.5</ele><time>2026-04-26T08:26:42Z</time></trkpt><trkpt lat="45.58421614877111" lon="10.816888449466841"><ele>176.25</ele><time>2026-04-26T08:26:43Z</time></trkpt><trkpt lat="45.58416450553474" lon="10.817052648982335"><ele>173.0</ele><time>2026-04-26T08:26:44Z</time></trkpt><trkpt lat="45.58414384244534" lon="10.817252699679015"><ele>173.0</ele><time>2026-04-26T08:26:45Z</time></trkpt><trkpt lat="45.58414425312545" lon="10.817466290905111"><ele>173.0</ele><time>2026-04-26T08:26:46Z</time></trkpt><trkpt lat="45.58415069473136" lon="10.817686706094195"><ele>173.0</ele><time>2026-04-26T08:26:47Z</time></trkpt><trkpt lat="45.584151030177914" lon="10.817923048377821"><ele>171.33333333333331</ele><time>2026-04-26T08:26:48Z</time></trkpt><trkpt lat="45.58413476286273" lon="10.818148562093958"><ele>169.66666666666666</ele><time>2026-04-26T08:26:49Z</time></trkpt><trkpt lat="45.58411011218409" lon="10.818377805080711"><ele>168.0</ele><time>2026-04-26T08:26:50Z</time></trkpt><trkpt lat="45.58408466837377" lon="10.818607706075209"><ele>167.4</ele><time>2026-04-26T08:26:51Z</time></trkpt><trkpt lat="45.584075419836644" lon="10.818711772501727"><ele>166.8</ele><time>2026-04-26T08:26:52Z</time></trkpt><trkpt lat="45.58406059776618" lon="10.818883455477556"><ele>166.2</ele><time>2026-04-26T08:26:53Z</time></trkpt><trkpt lat="45.58405903921769" lon="10.819022290601634"><ele>165.6</ele><time>2026-04-26T08:26:54Z</time></trkpt><trkpt lat="45.584077369613475" lon="10.819179961430638"><ele>165.0</ele><time>2026-04-26T08:26:55Z</time></trkpt><trkpt lat="45.584115784576085" lon="10.819355665596612"><ele>164.0</ele><time>2026-04-26T08:26:56Z</time></trkpt><trkpt lat="45.58415700919193" lon="10.819530942743565"><ele>163.0</ele><time>2026-04-26T08:26:57Z</time></trkpt><trkpt lat="45.58421722281641" lon="10.819790889653813"><ele>162.0</ele><time>2026-04-26T08:26:58Z</time></trkpt><trkpt lat="45.58424864261099" lon="10.819920228851737"><ele>161.0</ele><time>2026-04-26T08:26:59Z</time></trkpt><trkpt lat="45.58427899559152" lon="10.820060886137858"><ele>158.60000000000002</ele><time>2026-04-26T08:27:00.001Z</time></trkpt><trkpt lat="45.58430263226103" lon="10.820180692418251"><ele>156.20000000000002</ele><time>2026-04-26T08:27:01.001Z</time></trkpt><trkpt lat="45.584271151366224" lon="10.820280243842358"><ele>153.8</ele><time>2026-04-26T08:27:02.001Z</time></trkpt><trkpt lat="45.584202510509925" lon="10.820351167217998"><ele>151.4</ele><time>2026-04-26T08:27:03.001Z</time></trkpt><trkpt lat="45.584104892353686" lon="10.820341967379628"><ele>149.0</ele><time>2026-04-26T08:27:04.001Z</time></trkpt><trkpt lat="45.58400705735463" lon="10.820258884503895"><ele>152.0</ele><time>2026-04-26T08:27:05.001Z</time></trkpt><trkpt lat="45.58395706836175" lon="10.820092089786138"><ele>155.0</ele><time>2026-04-26T08:27:06.001Z</time></trkpt><trkpt lat="45.583883015658756" lon="10.819934261500231"><ele>158.0</ele><time>2026-04-26T08:27:07.001Z</time></trkpt><trkpt lat="45.58379638866839" lon="10.819773747754851"><ele>161.0</ele><time>2026-04-26T08:27:08.001Z</time></trkpt><trkpt lat="45.583746176378504" lon="10.819581622436687"><ele>161.0</ele><time>2026-04-26T08:27:09.001Z</time></trkpt><trkpt lat="45.58370639492387" lon="10.819377007909946"><ele>161.0</ele><time>2026-04-26T08:27:10.001Z</time></trkpt><trkpt lat="45.58367380903629" lon="10.819184139400186"><ele>161.0</ele><time>2026-04-26T08:27:11.001Z</time></trkpt><trkpt lat="45.58365991109336" lon="10.819008683543819"><ele>161.0</ele><time>2026-04-26T08:27:12.001Z</time></trkpt><trkpt lat="45.5836462030341" lon="10.818833777463498"><ele>158.0</ele><time>2026-04-26T08:27:13.001Z</time></trkpt><trkpt lat="45.58362259344638" lon="10.818680533631525"><ele>155.0</ele><time>2026-04-26T08:27:14.001Z</time></trkpt><trkpt lat="45.5835877697241" lon="10.818546431427142"><ele>152.0</ele><time>2026-04-26T08:27:15.001Z</time></trkpt><trkpt lat="45.58352950540534" lon="10.818434095402944"><ele>149.0</ele><time>2026-04-26T08:27:16.001Z</time></trkpt><trkpt lat="45.58343252012327" lon="10.818389144186321"><ele>146.0</ele><time>2026-04-26T08:27:17.001Z</time></trkpt><trkpt lat="45.58331823707363" lon="10.818430788262154"><ele>146.0</ele><time>2026-04-26T08:27:18.001Z</time></trkpt><trkpt lat="45.58322556552414" lon="10.818546704418639"><ele>146.0</ele><time>2026-04-26T08:27:19.001Z</time></trkpt><trkpt lat="45.5831855922589" lon="10.818712460338608"><ele>146.0</ele><time>2026-04-26T08:27:20.001Z</time></trkpt><trkpt lat="45.58319932058991" lon="10.818890469885188"><ele>146.0</ele><time>2026-04-26T08:27:21.001Z</time></trkpt><trkpt lat="45.58324674940106" lon="10.819056178149129"><ele>146.0</ele><time>2026-04-26T08:27:22.001Z</time></trkpt><trkpt lat="45.58328563149184" lon="10.819227475072138"><ele>146.0</ele><time>2026-04-26T08:27:23.001Z</time></trkpt><trkpt lat="45.5833002301791" lon="10.819408480734172"><ele>146.0</ele><time>2026-04-26T08:27:24.001Z</time></trkpt><trkpt lat="45.58328174109747" lon="10.819587927367168"><ele>146.0</ele><time>2026-04-26T08:27:25.001Z</time></trkpt><trkpt lat="45.583233650166605" lon="10.819758508937745"><ele>144.25</ele><time>2026-04-26T08:27:26.001Z</time></trkpt><trkpt lat="45.58314822141875" lon="10.819911614891753"><ele>142.5</ele><time>2026-04-26T08:27:27.001Z</time></trkpt><trkpt lat="45.58306148219099" lon="10.820029670617634"><ele>140.75</ele><time>2026-04-26T08:27:28.001Z</time></trkpt><trkpt lat="45.582981205743415" lon="10.820133226948615"><ele>139.0</ele><time>2026-04-26T08:27:29.001Z</time></trkpt><trkpt lat="45.58290635456647" lon="10.820255863300279"><ele>138.0</ele><time>2026-04-26T08:27:30.001Z</time></trkpt><trkpt lat="45.58286430196576" lon="10.82041580249293"><ele>137.0</ele><time>2026-04-26T08:27:31.001Z</time></trkpt><trkpt lat="45.58284651502847" lon="10.820601287460512"><ele>136.0</ele><time>2026-04-26T08:27:32.001Z</time></trkpt><trkpt lat="45.582838488250275" lon="10.820802618628617"><ele>135.0</ele><time>2026-04-26T08:27:33.001Z</time></trkpt><trkpt lat="45.582839335895756" lon="10.82102253799226"><ele>133.0</ele><time>2026-04-26T08:27:34.001Z</time></trkpt><trkpt lat="45.58286572681353" lon="10.821275526559834"><ele>131.0</ele><time>2026-04-26T08:27:35.001Z</time></trkpt><trkpt lat="45.582906177416476" lon="10.821546178487843"><ele>129.0</ele><time>2026-04-26T08:27:36.001Z</time></trkpt><trkpt lat="45.58295439770547" lon="10.82180380509764"><ele>127.0</ele><time>2026-04-26T08:27:37.001Z</time></trkpt><trkpt lat="45.58299651937276" lon="10.82205060128432"><ele>125.0</ele><time>2026-04-26T08:27:38.001Z</time></trkpt><trkpt lat="45.58303612256257" lon="10.822286600638343"><ele>123.0</ele><time>2026-04-26T08:27:39Z</time></trkpt><trkpt lat="45.58307529925718" lon="10.822515173276248"><ele>122.0</ele><time>2026-04-26T08:27:40Z</time></trkpt><trkpt lat="45.5831122740198" lon="10.822737984791246"><ele>121.0</ele><time>2026-04-26T08:27:41Z</time></trkpt><trkpt lat="45.583148360817816" lon="10.822954958057602"><ele>120.0</ele><time>2026-04-26T08:27:42Z</time></trkpt><trkpt lat="45.58318009317637" lon="10.823164457899644"><ele>120.0</ele><time>2026-04-26T08:27:43Z</time></trkpt><trkpt lat="45.58322578146459" lon="10.823339847217133"><ele>120.0</ele><time>2026-04-26T08:27:44Z</time></trkpt><trkpt lat="45.58331234546909" lon="10.82347747548825"><ele>120.0</ele><time>2026-04-26T08:27:45Z</time></trkpt><trkpt lat="45.58343883748942" lon="10.823570250859914"><ele>120.0</ele><time>2026-04-26T08:27:46Z</time></trkpt><trkpt lat="45.58359164385344" lon="10.823616856195422"><ele>116.33333333333334</ele><time>2026-04-26T08:27:47Z</time></trkpt><trkpt lat="45.58375548524658" lon="10.823640105886783"><ele>112.66666666666667</ele><time>2026-04-26T08:27:48Z</time></trkpt><trkpt lat="45.583924210041154" lon="10.823678334111683"><ele>109.0</ele><time>2026-04-26T08:27:49Z</time></trkpt><trkpt lat="45.584082713387986" lon="10.82372978332923"><ele>109.0</ele><time>2026-04-26T08:27:50Z</time></trkpt><trkpt lat="45.584232744338905" lon="10.823771344507422"><ele>109.0</ele><time>2026-04-26T08:27:51Z</time></trkpt><trkpt lat="45.584377802714585" lon="10.823824612476843"><ele>109.0</ele><time>2026-04-26T08:27:52Z</time></trkpt><trkpt lat="45.58450269650237" lon="10.823922750023915"><ele>109.0</ele><time>2026-04-26T08:27:53Z</time></trkpt><trkpt lat="45.58460351954805" lon="10.824072382445118"><ele>118.66666666666667</ele><time>2026-04-26T08:27:54Z</time></trkpt><trkpt lat="45.584677430233604" lon="10.824286399705354"><ele>128.33333333333334</ele><time>2026-04-26T08:27:55Z</time></trkpt><trkpt lat="45.584746038699045" lon="10.824515016141191"><ele>138.0</ele><time>2026-04-26T08:27:56Z</time></trkpt><trkpt lat="45.58481950274143" lon="10.82474212541285"><ele>138.0</ele><time>2026-04-26T08:27:57Z</time></trkpt><trkpt lat="45.584897222007605" lon="10.824956354373894"><ele>138.0</ele><time>2026-04-26T08:27:58Z</time></trkpt><trkpt lat="45.58497430665067" lon="10.825170671077611"><ele>138.0</ele><time>2026-04-26T08:27:59Z</time></trkpt><trkpt lat="45.58504987897064" lon="10.825381320206052"><ele>129.0</ele><time>2026-04-26T08:28:00Z</time></trkpt><trkpt lat="45.585124800297784" lon="10.825593403577551"><ele>120.0</ele><time>2026-04-26T08:28:01Z</time></trkpt><trkpt lat="45.58520329769524" lon="10.825810309726899"><ele>111.0</ele><time>2026-04-26T08:28:02Z</time></trkpt><trkpt lat="45.58527979481097" lon="10.826032837786798"><ele>123.33333333333334</ele><time>2026-04-26T08:28:03Z</time></trkpt><trkpt lat="45.58535334987181" lon="10.826248841069654"><ele>135.66666666666669</ele><time>2026-04-26T08:28:04Z</time></trkpt><trkpt lat="45.58542447248821" lon="10.826468584590602"><ele>148.0</ele><time>2026-04-26T08:28:05Z</time></trkpt><trkpt lat="45.585474736341425" lon="10.826681364198262"><ele>138.0</ele><time>2026-04-26T08:28:06Z</time></trkpt><trkpt lat="45.585495603169896" lon="10.826905069493511"><ele>128.0</ele><time>2026-04-26T08:28:06.999Z</time></trkpt><trkpt lat="45.58548624315265" lon="10.827141468638489"><ele>118.0</ele><time>2026-04-26T08:28:07.999Z</time></trkpt><trkpt lat="45.585455743429364" lon="10.827375490878039"><ele>118.0</ele><time>2026-04-26T08:28:08.999Z</time></trkpt><trkpt lat="45.585400652149254" lon="10.827607384024349"><ele>118.0</ele><time>2026-04-26T08:28:09.999Z</time></trkpt><trkpt lat="45.58532481590191" lon="10.827828645006502"><ele>118.0</ele><time>2026-04-26T08:28:10.999Z</time></trkpt><trkpt lat="45.58523748350692" lon="10.828034874182416"><ele>112.0</ele><time>2026-04-26T08:28:11.999Z</time></trkpt><trkpt lat="45.58514516174504" lon="10.828244494650916"><ele>106.0</ele><time>2026-04-26T08:28:12.999Z</time></trkpt><trkpt lat="45.585058437755464" lon="10.828456513298185"><ele>100.0</ele><time>2026-04-26T08:28:13.999Z</time></trkpt><trkpt lat="45.58497555502353" lon="10.828665606176708"><ele>100.0</ele><time>2026-04-26T08:28:14.999Z</time></trkpt><trkpt lat="45.584893283249414" lon="10.82887154179964"><ele>100.0</ele><time>2026-04-26T08:28:15.999Z</time></trkpt><trkpt lat="45.58481089258846" lon="10.829074991007543"><ele>100.0</ele><time>2026-04-26T08:28:16.999Z</time></trkpt><trkpt lat="45.58473530656579" lon="10.829262400586018"><ele>99.8</ele><time>2026-04-26T08:28:17.999Z</time></trkpt><trkpt lat="45.584671548263785" lon="10.829421228339655"><ele>99.6</ele><time>2026-04-26T08:28:18.999Z</time></trkpt><trkpt lat="45.58461447010621" lon="10.82956096985526"><ele>99.4</ele><time>2026-04-26T08:28:19.999Z</time></trkpt><trkpt lat="45.584564641575" lon="10.829690983224545"><ele>99.2</ele><time>2026-04-26T08:28:20.999Z</time></trkpt><trkpt lat="45.58453194953056" lon="10.829802040063347"><ele>99.0</ele><time>2026-04-26T08:28:21.999Z</time></trkpt><trkpt lat="45.58449568202423" lon="10.829920950208429"><ele>99.0</ele><time>2026-04-26T08:28:22.999Z</time></trkpt><trkpt lat="45.58444199552999" lon="10.830001767554595"><ele>99.0</ele><time>2026-04-26T08:28:23.999Z</time></trkpt><trkpt lat="45.58440072207354" lon="10.830117768936354"><ele>99.0</ele><time>2026-04-26T08:28:24.999Z</time></trkpt><trkpt lat="45.58437165188576" lon="10.83027212240954"><ele>99.0</ele><time>2026-04-26T08:28:25.999Z</time></trkpt><trkpt lat="45.58434213167325" lon="10.830446670478855"><ele>99.0</ele><time>2026-04-26T08:28:26.999Z</time></trkpt><trkpt lat="45.58433682125807" lon="10.830630489285271"><ele>98.75</ele><time>2026-04-26T08:28:27.999Z</time></trkpt><trkpt lat="45.58434688412645" lon="10.830817480187735"><ele>98.5</ele><time>2026-04-26T08:28:28.999Z</time></trkpt><trkpt lat="45.58437528217646" lon="10.830998742126035"><ele>98.25</ele><time>2026-04-26T08:28:29.999Z</time></trkpt><trkpt lat="45.58442332429691" lon="10.831174390812356"><ele>98.0</ele><time>2026-04-26T08:28:30.999Z</time></trkpt><trkpt lat="45.58448709324557" lon="10.831339484668003"><ele>98.75</ele><time>2026-04-26T08:28:31.999Z</time></trkpt><trkpt lat="45.58456857909374" lon="10.83148738381972"><ele>99.5</ele><time>2026-04-26T08:28:32.999Z</time></trkpt><trkpt lat="45.58466476750196" lon="10.831615730447952"><ele>100.25</ele><time>2026-04-26T08:28:33.999Z</time></trkpt><trkpt lat="45.584767251507415" lon="10.831731896485133"><ele>101.0</ele><time>2026-04-26T08:28:34.999Z</time></trkpt><trkpt lat="45.58487569172261" lon="10.831847759889428"><ele>101.0</ele><time>2026-04-26T08:28:35.999Z</time></trkpt><trkpt lat="45.58500132856625" lon="10.831981467129976"><ele>101.0</ele><time>2026-04-26T08:28:36.999Z</time></trkpt><trkpt lat="45.58514455460996" lon="10.83213021535339"><ele>101.0</ele><time>2026-04-26T08:28:37.999Z</time></trkpt><trkpt lat="45.585294927491745" lon="10.832291300988924"><ele>100.66666666666666</ele><time>2026-04-26T08:28:38.999Z</time></trkpt><trkpt lat="45.585447961926874" lon="10.832455718163331"><ele>100.33333333333334</ele><time>2026-04-26T08:28:39.999Z</time></trkpt><trkpt lat="45.585595082868075" lon="10.832639370154924"><ele>100.0</ele><time>2026-04-26T08:28:40.999Z</time></trkpt><trkpt lat="45.58575773675623" lon="10.832790372932742"><ele>100.0</ele><time>2026-04-26T08:28:41.999Z</time></trkpt><trkpt lat="45.58592267619844" lon="10.832954725540079"><ele>100.0</ele><time>2026-04-26T08:28:42.999Z</time></trkpt><trkpt lat="45.5860812364328" lon="10.833130532942723"><ele>100.0</ele><time>2026-04-26T08:28:43.999Z</time></trkpt><trkpt lat="45.58623997982463" lon="10.833297596726856"><ele>101.0</ele><time>2026-04-26T08:28:44.999Z</time></trkpt><trkpt lat="45.586390554897676" lon="10.833457367258953"><ele>102.0</ele><time>2026-04-26T08:28:45.999Z</time></trkpt><trkpt lat="45.586542471614194" lon="10.833619712982237"><ele>103.0</ele><time>2026-04-26T08:28:46.999Z</time></trkpt><trkpt lat="45.58668594588023" lon="10.83377844812743"><ele>103.33333333333334</ele><time>2026-04-26T08:28:47.999Z</time></trkpt><trkpt lat="45.586832828060615" lon="10.833937888220097"><ele>103.66666666666666</ele><time>2026-04-26T08:28:48.999Z</time></trkpt><trkpt lat="45.586973937841755" lon="10.83408799627879"><ele>104.0</ele><time>2026-04-26T08:28:49.999Z</time></trkpt><trkpt lat="45.58711147917071" lon="10.834239457632458"><ele>103.33333333333333</ele><time>2026-04-26T08:28:50.999Z</time></trkpt><trkpt lat="45.587244503770755" lon="10.834379978248313"><ele>102.66666666666666</ele><time>2026-04-26T08:28:51.999Z</time></trkpt><trkpt lat="45.58736872879678" lon="10.834515339405467"><ele>102.0</ele><time>2026-04-26T08:28:52.999Z</time></trkpt><trkpt lat="45.587481234589745" lon="10.83463521842572"><ele>102.0</ele><time>2026-04-26T08:28:53.999Z</time></trkpt><trkpt lat="45.58758219822596" lon="10.834743990156234"><ele>102.0</ele><time>2026-04-26T08:28:54.999Z</time></trkpt><trkpt lat="45.58767186541561" lon="10.834842995166547"><ele>102.0</ele><time>2026-04-26T08:28:55.999Z</time></trkpt><trkpt lat="45.58774610048181" lon="10.834926690853921"><ele>102.0</ele><time>2026-04-26T08:28:56.999Z</time></trkpt><trkpt lat="45.58782007418013" lon="10.835002389952036"><ele>102.0</ele><time>2026-04-26T08:28:57.999Z</time></trkpt><trkpt lat="45.58788680262036" lon="10.83504764327434"><ele>102.5</ele><time>2026-04-26T08:28:58.999Z</time></trkpt><trkpt lat="45.58799079753733" lon="10.835131506806166"><ele>103.0</ele><time>2026-04-26T08:29:00.999Z</time></trkpt><trkpt lat="45.58813061267855" lon="10.834971292088664"><ele>103.5</ele><time>2026-04-26T08:29:03.999Z</time></trkpt><trkpt lat="45.58818101726808" lon="10.83481619895822"><ele>104.0</ele><time>2026-04-26T08:29:06Z</time></trkpt><trkpt lat="45.5882220951924" lon="10.834726446063286"><ele>104.0</ele><time>2026-04-26T08:29:08Z</time></trkpt><trkpt lat="45.58826515265881" lon="10.834657432681546"><ele>104.0</ele><time>2026-04-26T08:29:09Z</time></trkpt><trkpt lat="45.588311941762406" lon="10.834527494991606"><ele>104.0</ele><time>2026-04-26T08:29:11Z</time></trkpt><trkpt lat="45.58834613865123" lon="10.834450311864929"><ele>104.0</ele><time>2026-04-26T08:29:27Z</time></trkpt><trkpt lat="45.58838694090347" lon="10.83430053360727"><ele>104.0</ele><time>2026-04-26T08:29:30Z</time></trkpt><trkpt lat="45.5883589898552" lon="10.834144888702557"><ele>103.80000000000001</ele><time>2026-04-26T08:29:32Z</time></trkpt><trkpt lat="45.5882851266521" lon="10.834068390626337"><ele>103.60000000000001</ele><time>2026-04-26T08:29:35Z</time></trkpt><trkpt lat="45.58819899481051" lon="10.833894365020381"><ele>103.4</ele><time>2026-04-26T08:29:37Z</time></trkpt><trkpt lat="45.58816116194728" lon="10.833818564326236"><ele>103.2</ele><time>2026-04-26T08:29:38Z</time></trkpt><trkpt lat="45.58812937028801" lon="10.83372622451649"><ele>103.0</ele><time>2026-04-26T08:29:39Z</time></trkpt><trkpt lat="45.58806931381408" lon="10.83364319087887"><ele>103.0</ele><time>2026-04-26T08:29:40Z</time></trkpt><trkpt lat="45.58802520388979" lon="10.833528749906211"><ele>103.0</ele><time>2026-04-26T08:29:41Z</time></trkpt><trkpt lat="45.587980252632114" lon="10.8334425367907"><ele>103.0</ele><time>2026-04-26T08:29:42Z</time></trkpt><trkpt lat="45.58793335386439" lon="10.833337332569691"><ele>103.0</ele><time>2026-04-26T08:29:43Z</time></trkpt><trkpt lat="45.587881388316454" lon="10.833222752738045"><ele>103.0</ele><time>2026-04-26T08:29:44Z</time></trkpt><trkpt lat="45.587818176448025" lon="10.833099776282719"><ele>102.75</ele><time>2026-04-26T08:29:45Z</time></trkpt><trkpt lat="45.587752630758075" lon="10.832967474863532"><ele>102.5</ele><time>2026-04-26T08:29:46Z</time></trkpt><trkpt lat="45.58768459603909" lon="10.832833993128071"><ele>102.25</ele><time>2026-04-26T08:29:47Z</time></trkpt><trkpt lat="45.58760061329324" lon="10.832705338281402"><ele>102.0</ele><time>2026-04-26T08:29:48Z</time></trkpt><trkpt lat="45.587501587222675" lon="10.832570678229953"><ele>104.0</ele><time>2026-04-26T08:29:49Z</time></trkpt><trkpt lat="45.58738627459874" lon="10.832427426975887"><ele>106.0</ele><time>2026-04-26T08:29:50Z</time></trkpt><trkpt lat="45.58726344478013" lon="10.832283972770318"><ele>108.0</ele><time>2026-04-26T08:29:51Z</time></trkpt><trkpt lat="45.58713174934614" lon="10.83214384307502"><ele>106.33333333333334</ele><time>2026-04-26T08:29:52Z</time></trkpt><trkpt lat="45.587003448404694" lon="10.8319967252231"><ele>104.66666666666667</ele><time>2026-04-26T08:29:53Z</time></trkpt><trkpt lat="45.58689490931269" lon="10.831840384345249"><ele>103.0</ele><time>2026-04-26T08:29:54Z</time></trkpt><trkpt lat="45.586794091394374" lon="10.83165163671873"><ele>103.0</ele><time>2026-04-26T08:29:55Z</time></trkpt><trkpt lat="45.586706166246756" lon="10.831442097850472"><ele>103.0</ele><time>2026-04-26T08:29:56Z</time></trkpt><trkpt lat="45.58661506732985" lon="10.831219823059604"><ele>103.0</ele><time>2026-04-26T08:29:57Z</time></trkpt><trkpt lat="45.58653699852118" lon="10.830990446602696"><ele>105.0</ele><time>2026-04-26T08:29:58Z</time></trkpt><trkpt lat="45.586468677499674" lon="10.830746566466189"><ele>107.0</ele><time>2026-04-26T08:29:59Z</time></trkpt><trkpt lat="45.58640832451921" lon="10.830498798970982"><ele>109.0</ele><time>2026-04-26T08:30:00Z</time></trkpt><trkpt lat="45.586349651466556" lon="10.830250631189438"><ele>110.66666666666667</ele><time>2026-04-26T08:30:01Z</time></trkpt><trkpt lat="45.586291996695905" lon="10.830024893965255"><ele>112.33333333333334</ele><time>2026-04-26T08:30:02Z</time></trkpt><trkpt lat="45.586232845044094" lon="10.82982381722096"><ele>114.0</ele><time>2026-04-26T08:30:03Z</time></trkpt><trkpt lat="45.58616582467041" lon="10.829651474595298"><ele>111.25</ele><time>2026-04-26T08:30:04Z</time></trkpt><trkpt lat="45.58609663020883" lon="10.829494860259928"><ele>108.5</ele><time>2026-04-26T08:30:05Z</time></trkpt><trkpt lat="45.58604123944199" lon="10.829353489895668"><ele>105.75</ele><time>2026-04-26T08:30:06Z</time></trkpt><trkpt lat="45.58601047395458" lon="10.829204198510142"><ele>103.0</ele><time>2026-04-26T08:30:07Z</time></trkpt><trkpt lat="45.58599508572868" lon="10.829054095801405"><ele>103.0</ele><time>2026-04-26T08:30:08Z</time></trkpt><trkpt lat="45.585982411173056" lon="10.828908484371901"><ele>103.0</ele><time>2026-04-26T08:30:09Z</time></trkpt><trkpt lat="45.58597012072533" lon="10.828758512558464"><ele>103.0</ele><time>2026-04-26T08:30:10Z</time></trkpt><trkpt lat="45.58595879376277" lon="10.82861955447751"><ele>103.0</ele><time>2026-04-26T08:30:11Z</time></trkpt><trkpt lat="45.58594592486444" lon="10.828496982395839"><ele>103.0</ele><time>2026-04-26T08:30:12Z</time></trkpt><trkpt lat="45.585939073665664" lon="10.828390441651493"><ele>103.50000000000001</ele><time>2026-04-26T08:30:13Z</time></trkpt><trkpt lat="45.585959581979104" lon="10.828304097374595"><ele>104.0</ele><time>2026-04-26T08:30:14Z</time></trkpt><trkpt lat="45.586019788218024" lon="10.828256043219916"><ele>104.5</ele><time>2026-04-26T08:30:16Z</time></trkpt><trkpt lat="45.586056920452194" lon="10.828162358867376"><ele>105.0</ele><time>2026-04-26T08:30:19Z</time></trkpt><trkpt lat="45.586070886346825" lon="10.828057211171009"><ele>105.50000000000001</ele><time>2026-04-26T08:30:21.999Z</time></trkpt><trkpt lat="45.58602930583229" lon="10.82785460810661"><ele>106.0</ele><time>2026-04-26T08:30:26.999Z</time></trkpt><trkpt lat="45.58598139505623" lon="10.82771709105288"><ele>108.00000000000001</ele><time>2026-04-26T08:30:27.999Z</time></trkpt><trkpt lat="45.58593139073793" lon="10.827583540505165"><ele>110.0</ele><time>2026-04-26T08:30:28.999Z</time></trkpt><trkpt lat="45.58589208132711" lon="10.827477623251808"><ele>112.0</ele><time>2026-04-26T08:30:29.999Z</time></trkpt><trkpt lat="45.5858473876704" lon="10.827382296747295"><ele>114.0</ele><time>2026-04-26T08:30:30.999Z</time></trkpt><trkpt lat="45.58579804569822" lon="10.827274885451386"><ele>116.00000000000001</ele><time>2026-04-26T08:30:31.999Z</time></trkpt><trkpt lat="45.58574964192248" lon="10.827173806275539"><ele>118.0</ele><time>2026-04-26T08:30:32.999Z</time></trkpt><trkpt lat="45.58570720726973" lon="10.82709187994317"><ele>118.00000000000001</ele><time>2026-04-26T08:30:33.999Z</time></trkpt><trkpt lat="45.58564909837917" lon="10.826954370024689"><ele>118.0</ele><time>2026-04-26T08:30:35.999Z</time></trkpt><trkpt lat="45.5856040197109" lon="10.826868559868702"><ele>118.0</ele><time>2026-04-26T08:30:37.999Z</time></trkpt><trkpt lat="45.58556649780976" lon="10.826788045690675"><ele>118.0</ele><time>2026-04-26T08:31:26Z</time></trkpt><trkpt lat="45.58552742437463" lon="10.826713421885282"><ele>118.00000000000001</ele><time>2026-04-26T08:31:28Z</time></trkpt><trkpt lat="45.58549188936658" lon="10.826826349460854"><ele>118.0</ele><time>2026-04-26T08:31:31Z</time></trkpt><trkpt lat="45.58551132065085" lon="10.826967603306079"><ele>118.00000000000001</ele><time>2026-04-26T08:31:35Z</time></trkpt><trkpt lat="45.585493879145" lon="10.827066129436309"><ele>118.0</ele><time>2026-04-26T08:31:36Z</time></trkpt><trkpt lat="45.5854806566789" lon="10.82721899480312"><ele>118.0</ele><time>2026-04-26T08:31:38Z</time></trkpt><trkpt lat="45.58546246660611" lon="10.827363317649588"><ele>118.0</ele><time>2026-04-26T08:31:40Z</time></trkpt><trkpt lat="45.585439630720316" lon="10.82746816715167"><ele>118.00000000000001</ele><time>2026-04-26T08:31:42Z</time></trkpt><trkpt lat="45.58544177193153" lon="10.82757230752899"><ele>118.0</ele><time>2026-04-26T08:31:45Z</time></trkpt><trkpt lat="45.58602955137863" lon="10.827980430136867"><ele>116.00000000000001</ele><time>2026-04-26T08:31:47Z</time></trkpt><trkpt lat="45.58603523003152" lon="10.828086986093519"><ele>114.0</ele><time>2026-04-26T08:31:51Z</time></trkpt><trkpt lat="45.58602057753496" lon="10.828174883448352"><ele>112.0</ele><time>2026-04-26T08:31:52Z</time></trkpt><trkpt lat="45.58598070685792" lon="10.82827784838721"><ele>110.0</ele><time>2026-04-26T08:31:53Z</time></trkpt><trkpt lat="45.58593409504251" lon="10.828372301222712"><ele>108.00000000000001</ele><time>2026-04-26T08:31:54Z</time></trkpt><trkpt lat="45.58590885213453" lon="10.828464639044531"><ele>106.0</ele><time>2026-04-26T08:31:55Z</time></trkpt><trkpt lat="45.58591873830827" lon="10.828581489238578"><ele>105.50000000000001</ele><time>2026-04-26T08:31:56Z</time></trkpt><trkpt lat="45.58593434945555" lon="10.828708195703951"><ele>105.0</ele><time>2026-04-26T08:31:57Z</time></trkpt><trkpt lat="45.585948732643146" lon="10.828832110580587"><ele>104.5</ele><time>2026-04-26T08:31:58Z</time></trkpt><trkpt lat="45.58595910123165" lon="10.828958693581992"><ele>104.0</ele><time>2026-04-26T08:31:59Z</time></trkpt><trkpt lat="45.58597130599384" lon="10.82908551774628"><ele>103.50000000000001</ele><time>2026-04-26T08:32:00Z</time></trkpt><trkpt lat="45.5859868878908" lon="10.829215124574551"><ele>103.0</ele><time>2026-04-26T08:32:01Z</time></trkpt><trkpt lat="45.58600679555503" lon="10.829330673781454"><ele>102.33333333333334</ele><time>2026-04-26T08:32:02Z</time></trkpt><trkpt lat="45.58603415684511" lon="10.829434289169624"><ele>101.66666666666667</ele><time>2026-04-26T08:32:03Z</time></trkpt><trkpt lat="45.58606788396644" lon="10.829531360164822"><ele>101.0</ele><time>2026-04-26T08:32:04Z</time></trkpt><trkpt lat="45.586109073094974" lon="10.829629433945708"><ele>100.33333333333334</ele><time>2026-04-26T08:32:05Z</time></trkpt><trkpt lat="45.58615227291829" lon="10.829736738532722"><ele>99.66666666666667</ele><time>2026-04-26T08:32:06Z</time></trkpt><trkpt lat="45.58619519713821" lon="10.829855578895614"><ele>99.0</ele><time>2026-04-26T08:32:07Z</time></trkpt><trkpt lat="45.586243338262285" lon="10.829993163337312"><ele>101.5</ele><time>2026-04-26T08:32:08Z</time></trkpt><trkpt lat="45.58629162332339" lon="10.830144764606944"><ele>104.0</ele><time>2026-04-26T08:32:09Z</time></trkpt><trkpt lat="45.58633258137066" lon="10.830303693163732"><ele>106.5</ele><time>2026-04-26T08:32:10Z</time></trkpt><trkpt lat="45.58636534482948" lon="10.830460400516007"><ele>109.0</ele><time>2026-04-26T08:32:11Z</time></trkpt><trkpt lat="45.58640088627807" lon="10.830617579823821"><ele>109.0</ele><time>2026-04-26T08:32:12Z</time></trkpt><trkpt lat="45.58644258799183" lon="10.830775094045297"><ele>109.0</ele><time>2026-04-26T08:32:13Z</time></trkpt><trkpt lat="45.586487310017716" lon="10.83092614549197"><ele>109.0</ele><time>2026-04-26T08:32:13.999Z</time></trkpt><trkpt lat="45.5865335751131" lon="10.83107632439367"><ele>109.0</ele><time>2026-04-26T08:32:14.999Z</time></trkpt><trkpt lat="45.58658398767195" lon="10.831231411546847"><ele>107.5</ele><time>2026-04-26T08:32:15.999Z</time></trkpt><trkpt lat="45.58664148554681" lon="10.831383378442657"><ele>106.0</ele><time>2026-04-26T08:32:16.999Z</time></trkpt><trkpt lat="45.58670334251334" lon="10.83152989617099"><ele>104.5</ele><time>2026-04-26T08:32:17.999Z</time></trkpt><trkpt lat="45.586768843117106" lon="10.831674484161805"><ele>103.0</ele><time>2026-04-26T08:32:18.999Z</time></trkpt><trkpt lat="45.58683860780352" lon="10.831817556843593"><ele>103.0</ele><time>2026-04-26T08:32:19.999Z</time></trkpt><trkpt lat="45.58691264136179" lon="10.831954077760335"><ele>103.0</ele><time>2026-04-26T08:32:20.999Z</time></trkpt><trkpt lat="45.58699822919706" lon="10.83207507802024"><ele>103.0</ele><time>2026-04-26T08:32:21.999Z</time></trkpt><trkpt lat="45.587098958964624" lon="10.832182755179815"><ele>103.0</ele><time>2026-04-26T08:32:22.999Z</time></trkpt><trkpt lat="45.58721001083388" lon="10.832293130748765"><ele>102.75</ele><time>2026-04-26T08:32:23.999Z</time></trkpt><trkpt lat="45.58730096201396" lon="10.832400736426447"><ele>102.5</ele><time>2026-04-26T08:32:24.999Z</time></trkpt><trkpt lat="45.58741132826229" lon="10.832513536053902"><ele>102.25</ele><time>2026-04-26T08:32:25.999Z</time></trkpt><trkpt lat="45.58749619777356" lon="10.832631629781956"><ele>102.0</ele><time>2026-04-26T08:32:26.999Z</time></trkpt><trkpt lat="45.587579086186786" lon="10.832753863295594"><ele>102.0</ele><time>2026-04-26T08:32:27.999Z</time></trkpt><trkpt lat="45.58766199523333" lon="10.832881357451754"><ele>102.0</ele><time>2026-04-26T08:32:28.999Z</time></trkpt><trkpt lat="45.58773891853293" lon="10.833021533719881"><ele>102.0</ele><time>2026-04-26T08:32:29.999Z</time></trkpt><trkpt lat="45.58780267017649" lon="10.833178536035398"><ele>102.0</ele><time>2026-04-26T08:32:30.999Z</time></trkpt><trkpt lat="45.58787337532065" lon="10.833328269538434"><ele>102.25</ele><time>2026-04-26T08:32:31.999Z</time></trkpt><trkpt lat="45.58794481723097" lon="10.833478329832884"><ele>102.5</ele><time>2026-04-26T08:32:32.999Z</time></trkpt><trkpt lat="45.5880167837305" lon="10.833625076382829"><ele>102.75</ele><time>2026-04-26T08:32:33.999Z</time></trkpt><trkpt lat="45.58808769090685" lon="10.833775224654303"><ele>103.0</ele><time>2026-04-26T08:32:34.999Z</time></trkpt><trkpt lat="45.58815788039037" lon="10.833915761547438"><ele>103.0</ele><time>2026-04-26T08:32:35.999Z</time></trkpt><trkpt lat="45.58822071955953" lon="10.834045434460855"><ele>103.0</ele><time>2026-04-26T08:32:36.999Z</time></trkpt><trkpt lat="45.58826699952111" lon="10.834168923534772"><ele>103.0</ele><time>2026-04-26T08:32:37.999Z</time></trkpt><trkpt lat="45.58828792126137" lon="10.834291378798381"><ele>103.0</ele><time>2026-04-26T08:32:38.999Z</time></trkpt><trkpt lat="45.5882859150398" lon="10.834417513157156"><ele>103.0</ele><time>2026-04-26T08:32:39.999Z</time></trkpt><trkpt lat="45.588266511609525" lon="10.834522863836538"><ele>103.16666666666667</ele><time>2026-04-26T08:32:40.999Z</time></trkpt><trkpt lat="45.58823336346492" lon="10.834615523103878"><ele>103.33333333333334</ele><time>2026-04-26T08:32:41.999Z</time></trkpt><trkpt lat="45.58818757560736" lon="10.834716223077589"><ele>103.5</ele><time>2026-04-26T08:32:42.999Z</time></trkpt><trkpt lat="45.58814428350487" lon="10.834812605326373"><ele>103.66666666666666</ele><time>2026-04-26T08:32:43.999Z</time></trkpt><trkpt lat="45.58810333357289" lon="10.834903941274046"><ele>103.83333333333333</ele><time>2026-04-26T08:32:44.999Z</time></trkpt><trkpt lat="45.58806636159101" lon="10.834991166718574"><ele>104.0</ele><time>2026-04-26T08:32:45.999Z</time></trkpt><trkpt lat="45.588040556712095" lon="10.835098391616095"><ele>103.6</ele><time>2026-04-26T08:32:48.999Z</time></trkpt><trkpt lat="45.58814584880684" lon="10.835247723929987"><ele>103.2</ele><time>2026-04-26T08:32:50.999Z</time></trkpt><trkpt lat="45.588220460041654" lon="10.835310575211823"><ele>102.8</ele><time>2026-04-26T08:32:51.999Z</time></trkpt><trkpt lat="45.588306229388024" lon="10.835379467098132"><ele>102.39999999999999</ele><time>2026-04-26T08:32:52.999Z</time></trkpt><trkpt lat="45.58840088071317" lon="10.835457676333217"><ele>102.0</ele><time>2026-04-26T08:32:53.999Z</time></trkpt><trkpt lat="45.58850451205832" lon="10.835543807456967"><ele>102.0</ele><time>2026-04-26T08:32:54.999Z</time></trkpt><trkpt lat="45.588612543473566" lon="10.835632670128991"><ele>102.0</ele><time>2026-04-26T08:32:55.999Z</time></trkpt><trkpt lat="45.58872264464554" lon="10.835724650376898"><ele>102.0</ele><time>2026-04-26T08:32:56.999Z</time></trkpt><trkpt lat="45.58883982727312" lon="10.835823625907961"><ele>102.0</ele><time>2026-04-26T08:32:57.999Z</time></trkpt><trkpt lat="45.5889636957835" lon="10.835922444105398"><ele>102.0</ele><time>2026-04-26T08:32:58.999Z</time></trkpt><trkpt lat="45.58908915138411" lon="10.836021080806121"><ele>102.0</ele><time>2026-04-26T08:32:59.999Z</time></trkpt><trkpt lat="45.58921389325301" lon="10.836119917650297"><ele>102.0</ele><time>2026-04-26T08:33:00.999Z</time></trkpt><trkpt lat="45.589337276340935" lon="10.836220334525478"><ele>102.0</ele><time>2026-04-26T08:33:01.999Z</time></trkpt><trkpt lat="45.58946310785642" lon="10.836321605361778"><ele>102.5</ele><time>2026-04-26T08:33:02.999Z</time></trkpt><trkpt lat="45.58959032047464" lon="10.836421729661897"><ele>103.0</ele><time>2026-04-26T08:33:03.999Z</time></trkpt><trkpt lat="45.58972074675052" lon="10.836521951917591"><ele>103.5</ele><time>2026-04-26T08:33:04.999Z</time></trkpt><trkpt lat="45.58985195048541" lon="10.836623294439121"><ele>104.0</ele><time>2026-04-26T08:33:05.999Z</time></trkpt><trkpt lat="45.58999335191356" lon="10.836714136148341"><ele>104.0</ele><time>2026-04-26T08:33:06.999Z</time></trkpt><trkpt lat="45.59014201579881" lon="10.836786590252627"><ele>104.0</ele><time>2026-04-26T08:33:07.999Z</time></trkpt><trkpt lat="45.59029478546241" lon="10.836847426767847"><ele>104.0</ele><time>2026-04-26T08:33:08.999Z</time></trkpt><trkpt lat="45.590448081222576" lon="10.836906243551919"><ele>105.33333333333333</ele><time>2026-04-26T08:33:09.999Z</time></trkpt><trkpt lat="45.590594035222054" lon="10.836964938650652"><ele>106.66666666666666</ele><time>2026-04-26T08:33:10.999Z</time></trkpt><trkpt lat="45.59074070016041" lon="10.83702606707304"><ele>108.0</ele><time>2026-04-26T08:33:11.999Z</time></trkpt><trkpt lat="45.59088890018999" lon="10.83708339999626"><ele>108.0</ele><time>2026-04-26T08:33:12.999Z</time></trkpt><trkpt lat="45.59104743652081" lon="10.837143045533473"><ele>108.0</ele><time>2026-04-26T08:33:13.999Z</time></trkpt><trkpt lat="45.591205270644714" lon="10.837198568159145"><ele>108.0</ele><time>2026-04-26T08:33:14.999Z</time></trkpt><trkpt lat="45.591362889704286" lon="10.837255374203695"><ele>111.33333333333334</ele><time>2026-04-26T08:33:15.999Z</time></trkpt><trkpt lat="45.59151740703228" lon="10.83731319824931"><ele>114.66666666666667</ele><time>2026-04-26T08:33:16.999Z</time></trkpt><trkpt lat="45.591664752886274" lon="10.83737241174183"><ele>118.0</ele><time>2026-04-26T08:33:17.999Z</time></trkpt><trkpt lat="45.59181881787114" lon="10.837439779928308"><ele>118.0</ele><time>2026-04-26T08:33:18.999Z</time></trkpt><trkpt lat="45.591970407981044" lon="10.837519732722907"><ele>118.0</ele><time>2026-04-26T08:33:19.999Z</time></trkpt><trkpt lat="45.592118084893144" lon="10.837608116698583"><ele>118.0</ele><time>2026-04-26T08:33:20.999Z</time></trkpt><trkpt lat="45.59226758325168" lon="10.837698633526957"><ele>121.0</ele><time>2026-04-26T08:33:21.999Z</time></trkpt><trkpt lat="45.592416771180275" lon="10.83778934404461"><ele>124.0</ele><time>2026-04-26T08:33:22.999Z</time></trkpt><trkpt lat="45.59256763840288" lon="10.83788238995516"><ele>127.0</ele><time>2026-04-26T08:33:23.999Z</time></trkpt><trkpt lat="45.592717704254895" lon="10.837976243613625"><ele>126.66666666666667</ele><time>2026-04-26T08:33:24.999Z</time></trkpt><trkpt lat="45.592871656026524" lon="10.838070255292088"><ele>126.33333333333334</ele><time>2026-04-26T08:33:25.999Z</time></trkpt><trkpt lat="45.593024068354104" lon="10.838164430838042"><ele>126.0</ele><time>2026-04-26T08:33:26.999Z</time></trkpt><trkpt lat="45.593178439890934" lon="10.838257652643346"><ele>126.0</ele><time>2026-04-26T08:33:27.999Z</time></trkpt><trkpt lat="45.59333273171042" lon="10.838348895674665"><ele>126.0</ele><time>2026-04-26T08:33:28.999Z</time></trkpt><trkpt lat="45.59348674044945" lon="10.838441460922265"><ele>126.0</ele><time>2026-04-26T08:33:29.999Z</time></trkpt><trkpt lat="45.593643107385354" lon="10.838534212173244"><ele>127.0</ele><time>2026-04-26T08:33:30.999Z</time></trkpt><trkpt lat="45.59380300305921" lon="10.838629813575706"><ele>128.0</ele><time>2026-04-26T08:33:31.999Z</time></trkpt><trkpt lat="45.59396245743738" lon="10.838727250026158"><ele>129.0</ele><time>2026-04-26T08:33:32.999Z</time></trkpt><trkpt lat="45.594125103987956" lon="10.838825111162953"><ele>129.0</ele><time>2026-04-26T08:33:33.999Z</time></trkpt><trkpt lat="45.59429076335251" lon="10.838924374703174"><ele>129.0</ele><time>2026-04-26T08:33:34.999Z</time></trkpt><trkpt lat="45.59445677466026" lon="10.839028564483598"><ele>129.0</ele><time>2026-04-26T08:33:35.999Z</time></trkpt><trkpt lat="45.594627787978325" lon="10.839136778914183"><ele>128.66666666666666</ele><time>2026-04-26T08:33:36.999Z</time></trkpt><trkpt lat="45.59479804233133" lon="10.839241212750151"><ele>128.33333333333331</ele><time>2026-04-26T08:33:38Z</time></trkpt><trkpt lat="45.59496429611658" lon="10.839346044111078"><ele>128.0</ele><time>2026-04-26T08:33:39Z</time></trkpt><trkpt lat="45.59512944464753" lon="10.83945586363376"><ele>128.0</ele><time>2026-04-26T08:33:40Z</time></trkpt><trkpt lat="45.59529389864535" lon="10.839569035765724"><ele>128.0</ele><time>2026-04-26T08:33:41Z</time></trkpt><trkpt lat="45.59545570235432" lon="10.839695572355103"><ele>128.0</ele><time>2026-04-26T08:33:42Z</time></trkpt><trkpt lat="45.59561774358962" lon="10.839823139400895"><ele>128.0</ele><time>2026-04-26T08:33:43Z</time></trkpt><trkpt lat="45.595774655353765" lon="10.83995165714541"><ele>128.0</ele><time>2026-04-26T08:33:44Z</time></trkpt><trkpt lat="45.59592953580758" lon="10.840080215363594"><ele>128.0</ele><time>2026-04-26T08:33:45Z</time></trkpt><trkpt lat="45.59608310817904" lon="10.840206205591302"><ele>127.66666666666666</ele><time>2026-04-26T08:33:46Z</time></trkpt><trkpt lat="45.59623044848777" lon="10.84033111882619"><ele>127.33333333333334</ele><time>2026-04-26T08:33:47Z</time></trkpt><trkpt lat="45.59636818052701" lon="10.84045407800248"><ele>127.0</ele><time>2026-04-26T08:33:48Z</time></trkpt><trkpt lat="45.59650026079101" lon="10.840579583393314"><ele>127.0</ele><time>2026-04-26T08:33:49Z</time></trkpt><trkpt lat="45.596629174599016" lon="10.840719702153976"><ele>127.0</ele><time>2026-04-26T08:33:50Z</time></trkpt><trkpt lat="45.59675524033392" lon="10.840878851139276"><ele>127.0</ele><time>2026-04-26T08:33:51Z</time></trkpt><trkpt lat="45.5968734877482" lon="10.841056204615752"><ele>127.0</ele><time>2026-04-26T08:33:52Z</time></trkpt><trkpt lat="45.596992342037055" lon="10.841244430533076"><ele>127.0</ele><time>2026-04-26T08:33:53Z</time></trkpt><trkpt lat="45.59710985470061" lon="10.841437532435208"><ele>127.0</ele><time>2026-04-26T08:33:54Z</time></trkpt><trkpt lat="45.597228735514705" lon="10.841633050629179"><ele>126.0</ele><time>2026-04-26T08:33:55Z</time></trkpt><trkpt lat="45.597345641718626" lon="10.841832114384587"><ele>125.0</ele><time>2026-04-26T08:33:56Z</time></trkpt><trkpt lat="45.59746491199013" lon="10.842030558329569"><ele>124.0</ele><time>2026-04-26T08:33:57Z</time></trkpt><trkpt lat="45.59759184280026" lon="10.842219814508677"><ele>124.0</ele><time>2026-04-26T08:33:58Z</time></trkpt><trkpt lat="45.597730401968704" lon="10.842392028402392"><ele>124.0</ele><time>2026-04-26T08:33:59Z</time></trkpt><trkpt lat="45.597881982514366" lon="10.84253990624246"><ele>124.0</ele><time>2026-04-26T08:34:00Z</time></trkpt><trkpt lat="45.598041955319395" lon="10.842671088410883"><ele>123.0</ele><time>2026-04-26T08:34:01Z</time></trkpt><trkpt lat="45.59820622141471" lon="10.842790235320285"><ele>122.0</ele><time>2026-04-26T08:34:02Z</time></trkpt><trkpt lat="45.59837172888517" lon="10.842910556600739"><ele>121.0</ele><time>2026-04-26T08:34:03Z</time></trkpt><trkpt lat="45.59853662174014" lon="10.843026727431061"><ele>122.0</ele><time>2026-04-26T08:34:04Z</time></trkpt><trkpt lat="45.598700160672585" lon="10.843138514247654"><ele>123.0</ele><time>2026-04-26T08:34:05Z</time></trkpt><trkpt lat="45.59886396132822" lon="10.843252613035311"><ele>124.0</ele><time>2026-04-26T08:34:06Z</time></trkpt><trkpt lat="45.59902753199246" lon="10.843371732263632"><ele>123.33333333333334</ele><time>2026-04-26T08:34:07Z</time></trkpt><trkpt lat="45.599188835774754" lon="10.843492424676427"><ele>122.66666666666666</ele><time>2026-04-26T08:34:08Z</time></trkpt><trkpt lat="45.59935045576981" lon="10.84361211626107"><ele>122.0</ele><time>2026-04-26T08:34:09Z</time></trkpt><trkpt lat="45.59951191469815" lon="10.843728730278084"><ele>122.0</ele><time>2026-04-26T08:34:10Z</time></trkpt><trkpt lat="45.599676217993775" lon="10.843840025907493"><ele>122.0</ele><time>2026-04-26T08:34:11Z</time></trkpt><trkpt lat="45.59983860362215" lon="10.843946667000013"><ele>122.0</ele><time>2026-04-26T08:34:12Z</time></trkpt><trkpt lat="45.6000014399186" lon="10.844053078956952"><ele>122.0</ele><time>2026-04-26T08:34:12.999Z</time></trkpt><trkpt lat="45.600164390424005" lon="10.84416236397924"><ele>122.0</ele><time>2026-04-26T08:34:13.999Z</time></trkpt><trkpt lat="45.60031674828274" lon="10.844271847889534"><ele>122.0</ele><time>2026-04-26T08:34:14.999Z</time></trkpt><trkpt lat="45.60045556051366" lon="10.844379739530968"><ele>121.0</ele><time>2026-04-26T08:34:15.999Z</time></trkpt><trkpt lat="45.6005771231734" lon="10.844490299204207"><ele>120.0</ele><time>2026-04-26T08:34:16.999Z</time></trkpt><trkpt lat="45.600680698316104" lon="10.844597100971388"><ele>119.0</ele><time>2026-04-26T08:34:17.999Z</time></trkpt><trkpt lat="45.60076815147206" lon="10.844684489677705"><ele>118.0</ele><time>2026-04-26T08:34:18.999Z</time></trkpt><trkpt lat="45.60083674649171" lon="10.844754235803498"><ele>118.00000000000001</ele><time>2026-04-26T08:34:19.999Z</time></trkpt><trkpt lat="45.60089831990872" lon="10.84481353946002"><ele>118.0</ele><time>2026-04-26T08:34:20.999Z</time></trkpt><trkpt lat="45.60095839899237" lon="10.844868672820406"><ele>118.0</ele><time>2026-04-26T08:34:21.999Z</time></trkpt><trkpt lat="45.60101528472152" lon="10.844918749069166"><ele>118.0</ele><time>2026-04-26T08:34:22.999Z</time></trkpt><trkpt lat="45.60107107447923" lon="10.844964597784868"><ele>118.00000000000001</ele><time>2026-04-26T08:34:23.999Z</time></trkpt><trkpt lat="45.60117864419174" lon="10.845054978823683"><ele>118.0</ele><time>2026-04-26T08:34:25.999Z</time></trkpt><trkpt lat="45.60128147150938" lon="10.845144802200512"><ele>118.16666666666667</ele><time>2026-04-26T08:34:27.999Z</time></trkpt><trkpt lat="45.60135640017337" lon="10.845214807717838"><ele>118.33333333333334</ele><time>2026-04-26T08:34:29.999Z</time></trkpt><trkpt lat="45.60142475818965" lon="10.845267822703063"><ele>118.5</ele><time>2026-04-26T08:34:31.999Z</time></trkpt><trkpt lat="45.60148485015525" lon="10.84531992841578"><ele>118.66666666666666</ele><time>2026-04-26T08:34:33.999Z</time></trkpt><trkpt lat="45.601583312091485" lon="10.84539649924669"><ele>118.83333333333333</ele><time>2026-04-26T08:34:35.999Z</time></trkpt><trkpt lat="45.60164196585128" lon="10.845440555933008"><ele>119.0</ele><time>2026-04-26T08:34:36.999Z</time></trkpt><trkpt lat="45.601706516621384" lon="10.845489523176198"><ele>118.99999999999999</ele><time>2026-04-26T08:34:37.999Z</time></trkpt><trkpt lat="45.60177243553268" lon="10.845542341795781"><ele>119.0</ele><time>2026-04-26T08:34:38.999Z</time></trkpt><trkpt lat="45.60183905515981" lon="10.845595753975795"><ele>119.0</ele><time>2026-04-26T08:34:39.999Z</time></trkpt><trkpt lat="45.60191005704734" lon="10.845651727473362"><ele>119.0</ele><time>2026-04-26T08:34:40.999Z</time></trkpt><trkpt lat="45.601985205190516" lon="10.845708112491115"><ele>118.99999999999999</ele><time>2026-04-26T08:34:41.999Z</time></trkpt><trkpt lat="45.60206218117905" lon="10.845764055249235"><ele>119.0</ele><time>2026-04-26T08:34:42.999Z</time></trkpt><trkpt lat="45.60214145982636" lon="10.84582618930218"><ele>118.75</ele><time>2026-04-26T08:34:43.999Z</time></trkpt><trkpt lat="45.6022271285835" lon="10.84589423905722"><ele>118.5</ele><time>2026-04-26T08:34:44.999Z</time></trkpt><trkpt lat="45.60232710880687" lon="10.845972093967506"><ele>118.25</ele><time>2026-04-26T08:34:45.999Z</time></trkpt><trkpt lat="45.602432839398666" lon="10.846058495211567"><ele>118.0</ele><time>2026-04-26T08:34:46.999Z</time></trkpt><trkpt lat="45.602547867861475" lon="10.846155655379219"><ele>118.0</ele><time>2026-04-26T08:34:47.999Z</time></trkpt><trkpt lat="45.602674507596824" lon="10.846262372893392"><ele>118.0</ele><time>2026-04-26T08:34:48.999Z</time></trkpt><trkpt lat="45.60281090934218" lon="10.84637812881874"><ele>118.0</ele><time>2026-04-26T08:34:49.999Z</time></trkpt><trkpt lat="45.60295283201011" lon="10.846500397242412"><ele>117.33333333333334</ele><time>2026-04-26T08:34:50.999Z</time></trkpt><trkpt lat="45.60310033077414" lon="10.846627758642954"><ele>116.66666666666666</ele><time>2026-04-26T08:34:51.999Z</time></trkpt><trkpt lat="45.603244489973164" lon="10.846755231786139"><ele>116.0</ele><time>2026-04-26T08:34:52.999Z</time></trkpt><trkpt lat="45.60338755742625" lon="10.84688327023307"><ele>116.33333333333333</ele><time>2026-04-26T08:34:53.999Z</time></trkpt><trkpt lat="45.603529988202126" lon="10.847008153952341"><ele>116.66666666666666</ele><time>2026-04-26T08:34:54.999Z</time></trkpt><trkpt lat="45.603669579990346" lon="10.847130417393085"><ele>117.0</ele><time>2026-04-26T08:34:55.999Z</time></trkpt><trkpt lat="45.6038088725168" lon="10.847254005410786"><ele>117.0</ele><time>2026-04-26T08:34:56.999Z</time></trkpt><trkpt lat="45.60394981246252" lon="10.847377112637746"><ele>117.0</ele><time>2026-04-26T08:34:57.999Z</time></trkpt><trkpt lat="45.60409144761195" lon="10.847501895686467"><ele>117.0</ele><time>2026-04-26T08:34:58.999Z</time></trkpt><trkpt lat="45.60423257157985" lon="10.847627448632178"><ele>116.66666666666666</ele><time>2026-04-26T08:34:59.999Z</time></trkpt><trkpt lat="45.60437544980467" lon="10.847754583372014"><ele>116.33333333333333</ele><time>2026-04-26T08:35:00.999Z</time></trkpt><trkpt lat="45.60452202405629" lon="10.847881667662048"><ele>116.0</ele><time>2026-04-26T08:35:01.999Z</time></trkpt><trkpt lat="45.60466826352095" lon="10.84801242074411"><ele>116.0</ele><time>2026-04-26T08:35:02.999Z</time></trkpt><trkpt lat="45.60481659916485" lon="10.848142579392391"><ele>116.0</ele><time>2026-04-26T08:35:03.999Z</time></trkpt><trkpt lat="45.60496616421605" lon="10.848271395779827"><ele>116.0</ele><time>2026-04-26T08:35:04.999Z</time></trkpt><trkpt lat="45.60512241045387" lon="10.848397561466891"><ele>115.33333333333333</ele><time>2026-04-26T08:35:05.999Z</time></trkpt><trkpt lat="45.60527747810855" lon="10.848537147257973"><ele>114.66666666666666</ele><time>2026-04-26T08:35:06.999Z</time></trkpt><trkpt lat="45.60542988999226" lon="10.848674072752868"><ele>114.0</ele><time>2026-04-26T08:35:07.999Z</time></trkpt><trkpt lat="45.605575105662915" lon="10.848805712910753"><ele>114.0</ele><time>2026-04-26T08:35:08.999Z</time></trkpt><trkpt lat="45.60570517915398" lon="10.848923790791694"><ele>114.0</ele><time>2026-04-26T08:35:09.999Z</time></trkpt><trkpt lat="45.60582883316901" lon="10.849035128959462"><ele>114.0</ele><time>2026-04-26T08:35:10.999Z</time></trkpt><trkpt lat="45.60594618363122" lon="10.849138266006213"><ele>114.0</ele><time>2026-04-26T08:35:11.999Z</time></trkpt><trkpt lat="45.606066547065616" lon="10.84924250232072"><ele>114.0</ele><time>2026-04-26T08:35:12.999Z</time></trkpt><trkpt lat="45.60618593161869" lon="10.849348444821155"><ele>114.0</ele><time>2026-04-26T08:35:13.999Z</time></trkpt><trkpt lat="45.60630636111575" lon="10.849455833068852"><ele>114.0</ele><time>2026-04-26T08:35:14.999Z</time></trkpt><trkpt lat="45.60642706968705" lon="10.84956352359407"><ele>114.0</ele><time>2026-04-26T08:35:15.999Z</time></trkpt><trkpt lat="45.60654890055255" lon="10.849668548914266"><ele>114.0</ele><time>2026-04-26T08:35:16.999Z</time></trkpt><trkpt lat="45.606670561189695" lon="10.849766211214478"><ele>114.0</ele><time>2026-04-26T08:35:17.999Z</time></trkpt><trkpt lat="45.60679455475349" lon="10.849865987401266"><ele>114.0</ele><time>2026-04-26T08:35:18.999Z</time></trkpt><trkpt lat="45.60691222135931" lon="10.849961240977928"><ele>114.0</ele><time>2026-04-26T08:35:19.999Z</time></trkpt><trkpt lat="45.607031769607396" lon="10.850049546429096"><ele>113.5</ele><time>2026-04-26T08:35:20.999Z</time></trkpt><trkpt lat="45.60715787474698" lon="10.850132948974666"><ele>113.0</ele><time>2026-04-26T08:35:21.999Z</time></trkpt><trkpt lat="45.607282111831864" lon="10.850202448066751"><ele>112.5</ele><time>2026-04-26T08:35:22.999Z</time></trkpt><trkpt lat="45.607409515295416" lon="10.850272144270297"><ele>112.0</ele><time>2026-04-26T08:35:23.999Z</time></trkpt><trkpt lat="45.60753251600856" lon="10.85033882946726"><ele>112.0</ele><time>2026-04-26T08:35:24.999Z</time></trkpt><trkpt lat="45.607653235339626" lon="10.850394214347197"><ele>112.0</ele><time>2026-04-26T08:35:25.999Z</time></trkpt><trkpt lat="45.60777057491446" lon="10.850442343266145"><ele>112.0</ele><time>2026-04-26T08:35:26.999Z</time></trkpt><trkpt lat="45.60788746975817" lon="10.850495265022737"><ele>112.0</ele><time>2026-04-26T08:35:27.999Z</time></trkpt><trkpt lat="45.60800558713408" lon="10.850552446776117"><ele>112.0</ele><time>2026-04-26T08:35:28.999Z</time></trkpt><trkpt lat="45.60812577706472" lon="10.850609904188424"><ele>112.0</ele><time>2026-04-26T08:35:29.999Z</time></trkpt><trkpt lat="45.60824152747322" lon="10.85066216361954"><ele>112.0</ele><time>2026-04-26T08:35:30.999Z</time></trkpt><trkpt lat="45.608351419815165" lon="10.850711819296"><ele>112.0</ele><time>2026-04-26T08:35:31.999Z</time></trkpt><trkpt lat="45.608455472587636" lon="10.850761052304359"><ele>112.0</ele><time>2026-04-26T08:35:32.999Z</time></trkpt><trkpt lat="45.60856391410772" lon="10.850803513307067"><ele>111.99999999999999</ele><time>2026-04-26T08:35:33.999Z</time></trkpt><trkpt lat="45.60867036908432" lon="10.850854872351892"><ele>111.99999999999999</ele><time>2026-04-26T08:35:34.999Z</time></trkpt><trkpt lat="45.60877861325113" lon="10.850900493266664"><ele>112.0</ele><time>2026-04-26T08:35:35.999Z</time></trkpt><trkpt lat="45.60888461053647" lon="10.850944741783977"><ele>112.0</ele><time>2026-04-26T08:35:36.999Z</time></trkpt><trkpt lat="45.608984911198675" lon="10.850991886692647"><ele>112.0</ele><time>2026-04-26T08:35:37.999Z</time></trkpt><trkpt lat="45.60908657968549" lon="10.851037462333627"><ele>111.99999999999999</ele><time>2026-04-26T08:35:38.999Z</time></trkpt><trkpt lat="45.60919114060372" lon="10.851084751028024"><ele>111.99999999999999</ele><time>2026-04-26T08:35:39.999Z</time></trkpt><trkpt lat="45.60929130071" lon="10.851134662846494"><ele>112.0</ele><time>2026-04-26T08:35:40.999Z</time></trkpt><trkpt lat="45.60939118915822" lon="10.851185544811754"><ele>112.0</ele><time>2026-04-26T08:35:41.999Z</time></trkpt><trkpt lat="45.609501791064865" lon="10.851248225966167"><ele>112.0</ele><time>2026-04-26T08:35:42.999Z</time></trkpt><trkpt lat="45.60961116761883" lon="10.851313017454816"><ele>112.0</ele><time>2026-04-26T08:35:43.999Z</time></trkpt><trkpt lat="45.60972107473414" lon="10.851384372592962"><ele>112.0</ele><time>2026-04-26T08:35:44.999Z</time></trkpt><trkpt lat="45.609822029134" lon="10.851456573388187"><ele>112.0</ele><time>2026-04-26T08:35:45.999Z</time></trkpt><trkpt lat="45.60991874941973" lon="10.85153354041765"><ele>112.0</ele><time>2026-04-26T08:35:46.999Z</time></trkpt><trkpt lat="45.610030956363126" lon="10.851620242641276"><ele>112.0</ele><time>2026-04-26T08:35:47.999Z</time></trkpt><trkpt lat="45.61015371162329" lon="10.851710185162585"><ele>112.0</ele><time>2026-04-26T08:35:48.999Z</time></trkpt><trkpt lat="45.610286131834464" lon="10.85180427057563"><ele>112.0</ele><time>2026-04-26T08:35:49.999Z</time></trkpt><trkpt lat="45.6104204913435" lon="10.851895529849946"><ele>111.33333333333334</ele><time>2026-04-26T08:35:50.999Z</time></trkpt><trkpt lat="45.61055645516886" lon="10.852000407525303"><ele>110.66666666666666</ele><time>2026-04-26T08:35:51.999Z</time></trkpt><trkpt lat="45.61069314704951" lon="10.852112117247382"><ele>110.0</ele><time>2026-04-26T08:35:52.999Z</time></trkpt><trkpt lat="45.61082884658081" lon="10.852217049263688"><ele>110.0</ele><time>2026-04-26T08:35:54Z</time></trkpt><trkpt lat="45.61096087431421" lon="10.852317970717234"><ele>110.0</ele><time>2026-04-26T08:35:55Z</time></trkpt><trkpt lat="45.611086906925884" lon="10.852414503891778"><ele>110.0</ele><time>2026-04-26T08:35:56Z</time></trkpt><trkpt lat="45.61121752506808" lon="10.852506463366241"><ele>110.0</ele><time>2026-04-26T08:35:57Z</time></trkpt><trkpt lat="45.611353420624134" lon="10.852589752453527"><ele>109.5</ele><time>2026-04-26T08:35:58Z</time></trkpt><trkpt lat="45.61149007360093" lon="10.852633527361423"><ele>109.0</ele><time>2026-04-26T08:35:59Z</time></trkpt><trkpt lat="45.61163047355217" lon="10.852635618325825"><ele>108.5</ele><time>2026-04-26T08:36:00Z</time></trkpt><trkpt lat="45.61177182053374" lon="10.852608458214114"><ele>108.0</ele><time>2026-04-26T08:36:01Z</time></trkpt><trkpt lat="45.61191525609029" lon="10.852558033341461"><ele>107.33333333333334</ele><time>2026-04-26T08:36:02Z</time></trkpt><trkpt lat="45.61206096936268" lon="10.852490377319665"><ele>106.66666666666667</ele><time>2026-04-26T08:36:03Z</time></trkpt><trkpt lat="45.61221823571877" lon="10.852419773766993"><ele>106.0</ele><time>2026-04-26T08:36:04Z</time></trkpt><trkpt lat="45.61239184237438" lon="10.852341759549935"><ele>106.0</ele><time>2026-04-26T08:36:05Z</time></trkpt><trkpt lat="45.612562659203384" lon="10.852268253408765"><ele>106.0</ele><time>2026-04-26T08:36:06Z</time></trkpt><trkpt lat="45.61272316319566" lon="10.85221070030642"><ele>106.0</ele><time>2026-04-26T08:36:07Z</time></trkpt><trkpt lat="45.61288997701572" lon="10.852135001271973"><ele>104.66666666666667</ele><time>2026-04-26T08:36:08Z</time></trkpt><trkpt lat="45.61305306273939" lon="10.852068140059531"><ele>103.33333333333334</ele><time>2026-04-26T08:36:09Z</time></trkpt><trkpt lat="45.613208200123665" lon="10.851997813025658"><ele>102.0</ele><time>2026-04-26T08:36:10Z</time></trkpt><trkpt lat="45.613362354676745" lon="10.851929165883382"><ele>102.0</ele><time>2026-04-26T08:36:11Z</time></trkpt><trkpt lat="45.61350916783804" lon="10.851866192940099"><ele>102.0</ele><time>2026-04-26T08:36:12Z</time></trkpt><trkpt lat="45.61365452206509" lon="10.851810636506695"><ele>102.0</ele><time>2026-04-26T08:36:13Z</time></trkpt><trkpt lat="45.61381027723229" lon="10.851778560441138"><ele>102.0</ele><time>2026-04-26T08:36:14Z</time></trkpt><trkpt lat="45.61397466876804" lon="10.851791547098834"><ele>102.0</ele><time>2026-04-26T08:36:15Z</time></trkpt><trkpt lat="45.61414581979873" lon="10.851819288092054"><ele>102.0</ele><time>2026-04-26T08:36:16Z</time></trkpt><trkpt lat="45.61432639537599" lon="10.851844119962538"><ele>103.0</ele><time>2026-04-26T08:36:17Z</time></trkpt><trkpt lat="45.61450841899681" lon="10.851856238098115"><ele>104.0</ele><time>2026-04-26T08:36:18Z</time></trkpt><trkpt lat="45.61469802265708" lon="10.851883089706302"><ele>105.0</ele><time>2026-04-26T08:36:19Z</time></trkpt><trkpt lat="45.61488226990118" lon="10.851933795782362"><ele>105.0</ele><time>2026-04-26T08:36:20Z</time></trkpt><trkpt lat="45.61505982975869" lon="10.851989520982269"><ele>105.0</ele><time>2026-04-26T08:36:21Z</time></trkpt><trkpt lat="45.61523792936914" lon="10.852039267559256"><ele>105.0</ele><time>2026-04-26T08:36:22Z</time></trkpt><trkpt lat="45.61542233005523" lon="10.852084487102493"><ele>104.66666666666666</ele><time>2026-04-26T08:36:23Z</time></trkpt><trkpt lat="45.615605193804264" lon="10.852125071153024"><ele>104.33333333333333</ele><time>2026-04-26T08:36:24Z</time></trkpt><trkpt lat="45.615786813815724" lon="10.852160374858094"><ele>104.0</ele><time>2026-04-26T08:36:25Z</time></trkpt><trkpt lat="45.6159629278542" lon="10.852194526394639"><ele>104.0</ele><time>2026-04-26T08:36:26Z</time></trkpt><trkpt lat="45.61613863346887" lon="10.852210532379033"><ele>104.0</ele><time>2026-04-26T08:36:27Z</time></trkpt><trkpt lat="45.6163204700968" lon="10.852219671248235"><ele>104.0</ele><time>2026-04-26T08:36:28Z</time></trkpt><trkpt lat="45.61650171890568" lon="10.85223345506638"><ele>104.0</ele><time>2026-04-26T08:36:29Z</time></trkpt><trkpt lat="45.61668623983737" lon="10.85225856448903"><ele>104.0</ele><time>2026-04-26T08:36:30Z</time></trkpt><trkpt lat="45.6168739302934" lon="10.85229273466536"><ele>104.0</ele><time>2026-04-26T08:36:31Z</time></trkpt><trkpt lat="45.61705587925854" lon="10.852338779026509"><ele>105.0</ele><time>2026-04-26T08:36:32Z</time></trkpt><trkpt lat="45.617241450394864" lon="10.852386729186572"><ele>106.0</ele><time>2026-04-26T08:36:33Z</time></trkpt><trkpt lat="45.61742708746864" lon="10.852434673817418"><ele>107.0</ele><time>2026-04-26T08:36:34Z</time></trkpt><trkpt lat="45.61761088353737" lon="10.852484669977418"><ele>107.0</ele><time>2026-04-26T08:36:34.999Z</time></trkpt><trkpt lat="45.617793267846544" lon="10.852533251596846"><ele>107.0</ele><time>2026-04-26T08:36:35.999Z</time></trkpt><trkpt lat="45.617973112334305" lon="10.852581406815123"><ele>107.0</ele><time>2026-04-26T08:36:36.999Z</time></trkpt><trkpt lat="45.61814875673449" lon="10.852624599578371"><ele>105.33333333333333</ele><time>2026-04-26T08:36:37.999Z</time></trkpt><trkpt lat="45.618321865714016" lon="10.852667149913685"><ele>103.66666666666666</ele><time>2026-04-26T08:36:38.999Z</time></trkpt><trkpt lat="45.61849472425336" lon="10.852704499459577"><ele>102.0</ele><time>2026-04-26T08:36:39.999Z</time></trkpt><trkpt lat="45.61866416373745" lon="10.852732689857019"><ele>102.0</ele><time>2026-04-26T08:36:40.999Z</time></trkpt><trkpt lat="45.61882096417243" lon="10.852758378250448"><ele>102.0</ele><time>2026-04-26T08:36:41.999Z</time></trkpt><trkpt lat="45.61896797714682" lon="10.852807124006777"><ele>102.0</ele><time>2026-04-26T08:36:42.999Z</time></trkpt><trkpt lat="45.619126546084146" lon="10.852888152998295"><ele>102.0</ele><time>2026-04-26T08:36:43.999Z</time></trkpt><trkpt lat="45.61928019456726" lon="10.852975863825002"><ele>102.0</ele><time>2026-04-26T08:36:44.999Z</time></trkpt><trkpt lat="45.61943401940806" lon="10.853070476380667"><ele>102.0</ele><time>2026-04-26T08:36:45.999Z</time></trkpt><trkpt lat="45.619587660285376" lon="10.853164559937731"><ele>105.33333333333334</ele><time>2026-04-26T08:36:46.999Z</time></trkpt><trkpt lat="45.619743044377906" lon="10.853251968704622"><ele>108.66666666666667</ele><time>2026-04-26T08:36:47.999Z</time></trkpt><trkpt lat="45.619897687762496" lon="10.853337062925874"><ele>112.0</ele><time>2026-04-26T08:36:48.999Z</time></trkpt><trkpt lat="45.620052942923344" lon="10.853421933306517"><ele>110.33333333333334</ele><time>2026-04-26T08:36:49.999Z</time></trkpt><trkpt lat="45.62020395759447" lon="10.853511181661146"><ele>108.66666666666666</ele><time>2026-04-26T08:36:50.999Z</time></trkpt><trkpt lat="45.62035095643084" lon="10.853600088591627"><ele>107.0</ele><time>2026-04-26T08:36:51.999Z</time></trkpt><trkpt lat="45.62049459206942" lon="10.853687837143873"><ele>107.0</ele><time>2026-04-26T08:36:52.999Z</time></trkpt><trkpt lat="45.62063411885447" lon="10.853770683995297"><ele>107.0</ele><time>2026-04-26T08:36:53.999Z</time></trkpt><trkpt lat="45.62077499454358" lon="10.853850746846854"><ele>107.0</ele><time>2026-04-26T08:36:54.999Z</time></trkpt><trkpt lat="45.62091078785857" lon="10.853942195621793"><ele>107.0</ele><time>2026-04-26T08:36:55.999Z</time></trkpt><trkpt lat="45.621048476379954" lon="10.854058056470993"><ele>107.0</ele><time>2026-04-26T08:36:56.999Z</time></trkpt><trkpt lat="45.62118691245015" lon="10.854199516089178"><ele>107.0</ele><time>2026-04-26T08:36:57.999Z</time></trkpt><trkpt lat="45.62132516629228" lon="10.854354578286948"><ele>108.33333333333333</ele><time>2026-04-26T08:36:58.999Z</time></trkpt><trkpt lat="45.621465969836315" lon="10.854508999377936"><ele>109.66666666666666</ele><time>2026-04-26T08:36:59.999Z</time></trkpt><trkpt lat="45.62161242696612" lon="10.854666628938233"><ele>111.0</ele><time>2026-04-26T08:37:00.999Z</time></trkpt><trkpt lat="45.62175951872019" lon="10.85481937179516"><ele>111.0</ele><time>2026-04-26T08:37:01.999Z</time></trkpt><trkpt lat="45.62190519547356" lon="10.85497288944011"><ele>111.0</ele><time>2026-04-26T08:37:02.999Z</time></trkpt><trkpt lat="45.62203041951029" lon="10.855136073780038"><ele>111.0</ele><time>2026-04-26T08:37:03.999Z</time></trkpt><trkpt lat="45.622166599282565" lon="10.855331529765587"><ele>111.66666666666666</ele><time>2026-04-26T08:37:04.999Z</time></trkpt><trkpt lat="45.62227241756154" lon="10.85554158291195"><ele>112.33333333333333</ele><time>2026-04-26T08:37:05.999Z</time></trkpt><trkpt lat="45.62237990096749" lon="10.855746224330854"><ele>113.0</ele><time>2026-04-26T08:37:06.999Z</time></trkpt><trkpt lat="45.622477588618324" lon="10.855963313460158"><ele>113.0</ele><time>2026-04-26T08:37:07.999Z</time></trkpt><trkpt lat="45.622571391183094" lon="10.8561682790478"><ele>113.0</ele><time>2026-04-26T08:37:08.999Z</time></trkpt><trkpt lat="45.62266558197566" lon="10.85636899455708"><ele>113.0</ele><time>2026-04-26T08:37:09.999Z</time></trkpt><trkpt lat="45.62276239723658" lon="10.856567254517017"><ele>115.33333333333333</ele><time>2026-04-26T08:37:10.999Z</time></trkpt><trkpt lat="45.62285558194697" lon="10.856759804659168"><ele>117.66666666666666</ele><time>2026-04-26T08:37:11.999Z</time></trkpt><trkpt lat="45.622953405627655" lon="10.85694764349052"><ele>120.0</ele><time>2026-04-26T08:37:12.999Z</time></trkpt><trkpt lat="45.62304832330667" lon="10.857138675828697"><ele>120.0</ele><time>2026-04-26T08:37:13.999Z</time></trkpt><trkpt lat="45.6231428512312" lon="10.85732483455872"><ele>120.0</ele><time>2026-04-26T08:37:14.999Z</time></trkpt><trkpt lat="45.62323654851712" lon="10.857508921980964"><ele>120.0</ele><time>2026-04-26T08:37:15.999Z</time></trkpt><trkpt lat="45.62333431074595" lon="10.857688382260877"><ele>120.0</ele><time>2026-04-26T08:37:16.999Z</time></trkpt><trkpt lat="45.62341960714962" lon="10.857856179401605"><ele>120.0</ele><time>2026-04-26T08:37:17.999Z</time></trkpt><trkpt lat="45.62349802527404" lon="10.858019725408607"><ele>120.0</ele><time>2026-04-26T08:37:18.999Z</time></trkpt><trkpt lat="45.623574757331134" lon="10.858164656085041"><ele>120.0</ele><time>2026-04-26T08:37:19.999Z</time></trkpt><trkpt lat="45.62364258592251" lon="10.858302002055343"><ele>122.5</ele><time>2026-04-26T08:37:20.999Z</time></trkpt><trkpt lat="45.62371138980726" lon="10.85845419093418"><ele>125.0</ele><time>2026-04-26T08:37:21.999Z</time></trkpt><trkpt lat="45.623777295487045" lon="10.858617033863622"><ele>127.5</ele><time>2026-04-26T08:37:22.999Z</time></trkpt><trkpt lat="45.62383538991761" lon="10.85878964112975"><ele>130.0</ele><time>2026-04-26T08:37:23.999Z</time></trkpt><trkpt lat="45.62387534990799" lon="10.858973707457498"><ele>130.0</ele><time>2026-04-26T08:37:24.999Z</time></trkpt><trkpt lat="45.623918155742146" lon="10.859162472114079"><ele>130.0</ele><time>2026-04-26T08:37:25.999Z</time></trkpt><trkpt lat="45.62396137262094" lon="10.859352215471867"><ele>130.0</ele><time>2026-04-26T08:37:26.999Z</time></trkpt><trkpt lat="45.62399516147949" lon="10.859533991747611"><ele>130.0</ele><time>2026-04-26T08:37:27.999Z</time></trkpt><trkpt lat="45.624032280077216" lon="10.85969827405585"><ele>130.0</ele><time>2026-04-26T08:37:28.999Z</time></trkpt><trkpt lat="45.624064557523816" lon="10.859844937484619"><ele>130.0</ele><time>2026-04-26T08:37:29.999Z</time></trkpt><trkpt lat="45.62409382456397" lon="10.859982941037579"><ele>130.0</ele><time>2026-04-26T08:37:30.999Z</time></trkpt><trkpt lat="45.62412666071945" lon="10.860132939269235"><ele>130.0</ele><time>2026-04-26T08:37:31.999Z</time></trkpt><trkpt lat="45.62416223842258" lon="10.860308118048234"><ele>130.0</ele><time>2026-04-26T08:37:32.999Z</time></trkpt><trkpt lat="45.624202319089726" lon="10.860492729527584"><ele>130.66666666666669</ele><time>2026-04-26T08:37:33.999Z</time></trkpt><trkpt lat="45.62424862538236" lon="10.860703372801675"><ele>131.33333333333334</ele><time>2026-04-26T08:37:34.999Z</time></trkpt><trkpt lat="45.62430268931595" lon="10.86092130475838"><ele>132.0</ele><time>2026-04-26T08:37:35.999Z</time></trkpt><trkpt lat="45.62436354361966" lon="10.861124717155393"><ele>131.25</ele><time>2026-04-26T08:37:36.999Z</time></trkpt><trkpt lat="45.62443417523203" lon="10.86131398371522"><ele>130.5</ele><time>2026-04-26T08:37:37.999Z</time></trkpt><trkpt lat="45.62450258912291" lon="10.861488947626645"><ele>129.75</ele><time>2026-04-26T08:37:38.999Z</time></trkpt><trkpt lat="45.62456365469136" lon="10.861656511531617"><ele>129.0</ele><time>2026-04-26T08:37:39.999Z</time></trkpt><trkpt lat="45.62462077519631" lon="10.861803321584182"><ele>129.0</ele><time>2026-04-26T08:37:40.999Z</time></trkpt><trkpt lat="45.6246762084399" lon="10.861955134939773"><ele>129.0</ele><time>2026-04-26T08:37:41.999Z</time></trkpt><trkpt lat="45.62473213885279" lon="10.862108687725348"><ele>129.0</ele><time>2026-04-26T08:37:42.999Z</time></trkpt><trkpt lat="45.6247907734525" lon="10.862262949302377"><ele>129.0</ele><time>2026-04-26T08:37:43.999Z</time></trkpt><trkpt lat="45.62485130151986" lon="10.862418209447402"><ele>129.0</ele><time>2026-04-26T08:37:44.999Z</time></trkpt><trkpt lat="45.62492042480854" lon="10.862572511588308"><ele>129.0</ele><time>2026-04-26T08:37:45.999Z</time></trkpt><trkpt lat="45.62500291019846" lon="10.862723661927244"><ele>129.0</ele><time>2026-04-26T08:37:46.999Z</time></trkpt><trkpt lat="45.625103153049935" lon="10.862866502545444"><ele>129.0</ele><time>2026-04-26T08:37:47.999Z</time></trkpt><trkpt lat="45.6252215643601" lon="10.862993621675823"><ele>129.0</ele><time>2026-04-26T08:37:48.999Z</time></trkpt><trkpt lat="45.625342755931584" lon="10.86309713972196"><ele>129.0</ele><time>2026-04-26T08:37:49.999Z</time></trkpt><trkpt lat="45.62543030017623" lon="10.863169361424548"><ele>129.0</ele><time>2026-04-26T08:37:50.999Z</time></trkpt><trkpt lat="45.625489295038356" lon="10.863283514527296"><ele>129.0</ele><time>2026-04-26T08:37:52.999Z</time></trkpt><trkpt lat="45.62557838340587" lon="10.863320986894912"><ele>129.0</ele><time>2026-04-26T08:37:54.999Z</time></trkpt><trkpt lat="45.62566060977973" lon="10.863366654146295"><ele>129.0</ele><time>2026-04-26T08:37:57.999Z</time></trkpt><trkpt lat="45.62569600616142" lon="10.863441891259308"><ele>129.0</ele><time>2026-04-26T08:38:45.999Z</time></trkpt><trkpt lat="45.62576495347596" lon="10.863501060225639"><ele>129.0</ele><time>2026-04-26T08:38:47.999Z</time></trkpt><trkpt lat="45.625635523399204" lon="10.863512791984977"><ele>129.0</ele><time>2026-04-26T08:38:54.999Z</time></trkpt><trkpt lat="45.625582265110616" lon="10.863460893725275"><ele>129.0</ele><time>2026-04-26T08:38:55.999Z</time></trkpt><trkpt lat="45.625510818835004" lon="10.863385795847352"><ele>129.0</ele><time>2026-04-26T08:38:56.999Z</time></trkpt><trkpt lat="45.625432570158935" lon="10.86329962007667"><ele>129.0</ele><time>2026-04-26T08:38:57.999Z</time></trkpt><trkpt lat="45.625342858056" lon="10.863216309234343"><ele>129.0</ele><time>2026-04-26T08:38:58.999Z</time></trkpt><trkpt lat="45.62527216950578" lon="10.863151943013696"><ele>129.0</ele><time>2026-04-26T08:38:59.999Z</time></trkpt><trkpt lat="45.625151303806" lon="10.863028966016202"><ele>129.0</ele><time>2026-04-26T08:39:01.999Z</time></trkpt><trkpt lat="45.62513510802498" lon="10.862855848891678"><ele>128.75</ele><time>2026-04-26T08:39:03.999Z</time></trkpt><trkpt lat="45.62501315069205" lon="10.863087296910042"><ele>128.5</ele><time>2026-04-26T08:39:05.999Z</time></trkpt><trkpt lat="45.62499273637711" lon="10.863216014128353"><ele>128.25</ele><time>2026-04-26T08:39:06.999Z</time></trkpt><trkpt lat="45.62497093819234" lon="10.863338954850871"><ele>128.0</ele><time>2026-04-26T08:39:07.999Z</time></trkpt><trkpt lat="45.62495247897778" lon="10.863490944751199"><ele>127.60000000000001</ele><time>2026-04-26T08:39:08.999Z</time></trkpt><trkpt lat="45.624952636742584" lon="10.863651531597455"><ele>127.20000000000002</ele><time>2026-04-26T08:39:09.999Z</time></trkpt><trkpt lat="45.62496022572844" lon="10.86379536905389"><ele>126.8</ele><time>2026-04-26T08:39:10.999Z</time></trkpt><trkpt lat="45.62496149140899" lon="10.863931154366975"><ele>126.4</ele><time>2026-04-26T08:39:11.999Z</time></trkpt><trkpt lat="45.62494202373612" lon="10.86406948203289"><ele>126.0</ele><time>2026-04-26T08:39:12.999Z</time></trkpt><trkpt lat="45.624886801319164" lon="10.864196700794027"><ele>125.66666666666667</ele><time>2026-04-26T08:39:13.999Z</time></trkpt><trkpt lat="45.624837180683706" lon="10.864300368739416"><ele>125.33333333333334</ele><time>2026-04-26T08:39:14.999Z</time></trkpt><trkpt lat="45.62480105670895" lon="10.864417812667508"><ele>125.0</ele><time>2026-04-26T08:39:15.999Z</time></trkpt><trkpt lat="45.624758176495995" lon="10.864507969579787"><ele>124.66666666666667</ele><time>2026-04-26T08:39:16.999Z</time></trkpt><trkpt lat="45.624720184994565" lon="10.864602926075953"><ele>124.33333333333334</ele><time>2026-04-26T08:39:17.999Z</time></trkpt><trkpt lat="45.62468794980811" lon="10.864692788862707"><ele>124.0</ele><time>2026-04-26T08:39:18.999Z</time></trkpt><trkpt lat="45.62464231009403" lon="10.864811630751845"><ele>124.0</ele><time>2026-04-26T08:39:20.999Z</time></trkpt><trkpt lat="45.62462034447992" lon="10.864909261551995"><ele>124.0</ele><time>2026-04-26T08:39:23.999Z</time></trkpt><trkpt lat="45.62475290912039" lon="10.864966247009365"><ele>124.0</ele><time>2026-04-26T08:39:24.999Z</time></trkpt><trkpt lat="45.6248167832018" lon="10.864977670171108"><ele>124.0</ele><time>2026-04-26T08:39:25.999Z</time></trkpt><trkpt lat="45.62489990754644" lon="10.865031192283533"><ele>124.0</ele><time>2026-04-26T08:39:26.999Z</time></trkpt><trkpt lat="45.62500040700602" lon="10.865074512433758"><ele>124.0</ele><time>2026-04-26T08:39:27.999Z</time></trkpt><trkpt lat="45.625109898419566" lon="10.86509707397556"><ele>124.0</ele><time>2026-04-26T08:39:28.999Z</time></trkpt><trkpt lat="45.625199526587096" lon="10.865164496210502"><ele>124.0</ele><time>2026-04-26T08:39:29.999Z</time></trkpt><trkpt lat="45.62528083283306" lon="10.865209709273525"><ele>124.0</ele><time>2026-04-26T08:39:30.999Z</time></trkpt><trkpt lat="45.6253660931492" lon="10.865242053487552"><ele>124.0</ele><time>2026-04-26T08:39:31.999Z</time></trkpt><trkpt lat="45.62543726764054" lon="10.865319026013488"><ele>124.0</ele><time>2026-04-26T08:39:32.999Z</time></trkpt><trkpt lat="45.62553958670815" lon="10.865383967013024"><ele>124.0</ele><time>2026-04-26T08:39:33.999Z</time></trkpt><trkpt lat="45.62563219349027" lon="10.865481112227615"><ele>124.0</ele><time>2026-04-26T08:39:34.999Z</time></trkpt><trkpt lat="45.62572379861437" lon="10.86553758884645"><ele>124.0</ele><time>2026-04-26T08:39:35.999Z</time></trkpt><trkpt lat="45.625812970747546" lon="10.86561335868899"><ele>124.0</ele><time>2026-04-26T08:39:36.999Z</time></trkpt><trkpt lat="45.62590271414347" lon="10.86568533974147"><ele>124.0</ele><time>2026-04-26T08:39:37.999Z</time></trkpt><trkpt lat="45.625989756153785" lon="10.865751988321609"><ele>124.0</ele><time>2026-04-26T08:39:38.999Z</time></trkpt><trkpt lat="45.626064256440884" lon="10.86583666527177"><ele>124.0</ele><time>2026-04-26T08:39:39.999Z</time></trkpt><trkpt lat="45.62615475108147" lon="10.865916957913063"><ele>124.0</ele><time>2026-04-26T08:39:41Z</time></trkpt><trkpt lat="45.62625563440187" lon="10.865985345815911"><ele>124.0</ele><time>2026-04-26T08:39:42Z</time></trkpt><trkpt lat="45.62634133701467" lon="10.866078228971066"><ele>123.80000000000001</ele><time>2026-04-26T08:39:43Z</time></trkpt><trkpt lat="45.62644041171687" lon="10.866138298719415"><ele>123.60000000000001</ele><time>2026-04-26T08:39:44Z</time></trkpt><trkpt lat="45.62652804951044" lon="10.866217186160307"><ele>123.4</ele><time>2026-04-26T08:39:45Z</time></trkpt><trkpt lat="45.62661569799309" lon="10.866295900448243"><ele>123.2</ele><time>2026-04-26T08:39:46Z</time></trkpt><trkpt lat="45.62670092099785" lon="10.866396351922685"><ele>123.0</ele><time>2026-04-26T08:39:47Z</time></trkpt><trkpt lat="45.62680184875376" lon="10.866458958560917"><ele>123.0</ele><time>2026-04-26T08:39:48Z</time></trkpt><trkpt lat="45.62689578038369" lon="10.866538980222161"><ele>123.00000000000001</ele><time>2026-04-26T08:39:49Z</time></trkpt><trkpt lat="45.62698006052622" lon="10.866627479971356"><ele>123.00000000000001</ele><time>2026-04-26T08:39:50Z</time></trkpt><trkpt lat="45.62708149606063" lon="10.866683109720428"><ele>123.0</ele><time>2026-04-26T08:39:51Z</time></trkpt><trkpt lat="45.6271758343108" lon="10.866766060637568"><ele>123.0</ele><time>2026-04-26T08:39:52Z</time></trkpt><trkpt lat="45.627273660813046" lon="10.866850789226477"><ele>122.5</ele><time>2026-04-26T08:39:53Z</time></trkpt><trkpt lat="45.62735980805485" lon="10.866953685032348"><ele>122.0</ele><time>2026-04-26T08:39:54Z</time></trkpt><trkpt lat="45.627454452644976" lon="10.867036049603186"><ele>121.5</ele><time>2026-04-26T08:39:55Z</time></trkpt><trkpt lat="45.62756522988561" lon="10.867104628842213"><ele>121.0</ele><time>2026-04-26T08:39:56Z</time></trkpt><trkpt lat="45.62766463033929" lon="10.867190435053663"><ele>121.0</ele><time>2026-04-26T08:39:57Z</time></trkpt><trkpt lat="45.627768654592174" lon="10.86728169986025"><ele>121.0</ele><time>2026-04-26T08:39:58Z</time></trkpt><trkpt lat="45.62787233500953" lon="10.86736825474604"><ele>121.0</ele><time>2026-04-26T08:39:59Z</time></trkpt><trkpt lat="45.62797796095917" lon="10.867448674648307"><ele>121.0</ele><time>2026-04-26T08:40:00Z</time></trkpt><trkpt lat="45.62809377900037" lon="10.867544596205324"><ele>121.4</ele><time>2026-04-26T08:40:01Z</time></trkpt><trkpt lat="45.62820145094935" lon="10.86764042749895"><ele>121.8</ele><time>2026-04-26T08:40:02Z</time></trkpt><trkpt lat="45.628295748971475" lon="10.867727559673781"><ele>122.20000000000002</ele><time>2026-04-26T08:40:03Z</time></trkpt><trkpt lat="45.62837836582193" lon="10.867800217800017"><ele>122.60000000000001</ele><time>2026-04-26T08:40:04Z</time></trkpt><trkpt lat="45.62846859682664" lon="10.867870280040503"><ele>123.0</ele><time>2026-04-26T08:40:05Z</time></trkpt><trkpt lat="45.62855941983425" lon="10.867946632140495"><ele>123.4</ele><time>2026-04-26T08:40:06Z</time></trkpt><trkpt lat="45.62864403435998" lon="10.86803985981678"><ele>123.80000000000001</ele><time>2026-04-26T08:40:07Z</time></trkpt><trkpt lat="45.628725628020774" lon="10.868119790834402"><ele>124.2</ele><time>2026-04-26T08:40:08Z</time></trkpt><trkpt lat="45.628820730188785" lon="10.868175489026013"><ele>124.6</ele><time>2026-04-26T08:40:09Z</time></trkpt><trkpt lat="45.628905416401494" lon="10.868269140417995"><ele>125.0</ele><time>2026-04-26T08:40:10Z</time></trkpt><trkpt lat="45.62900229620632" lon="10.86834367590756"><ele>125.0</ele><time>2026-04-26T08:40:11Z</time></trkpt><trkpt lat="45.629091692910066" lon="10.86842204876321"><ele>125.0</ele><time>2026-04-26T08:40:12Z</time></trkpt><trkpt lat="45.629190331609294" lon="10.868500244082924"><ele>125.0</ele><time>2026-04-26T08:40:13Z</time></trkpt><trkpt lat="45.629293090373565" lon="10.868588582250041"><ele>125.0</ele><time>2026-04-26T08:40:14Z</time></trkpt><trkpt lat="45.62939279750944" lon="10.868682300326821"><ele>124.75</ele><time>2026-04-26T08:40:15Z</time></trkpt><trkpt lat="45.62948001031861" lon="10.868759280369831"><ele>124.5</ele><time>2026-04-26T08:40:16Z</time></trkpt><trkpt lat="45.629561492421544" lon="10.868851725819734"><ele>124.25</ele><time>2026-04-26T08:40:17Z</time></trkpt><trkpt lat="45.62966666243444" lon="10.868920025713141"><ele>124.0</ele><time>2026-04-26T08:40:18Z</time></trkpt><trkpt lat="45.629779913074096" lon="10.86901378336753"><ele>124.0</ele><time>2026-04-26T08:40:19Z</time></trkpt><trkpt lat="45.629899295423286" lon="10.869113053697543"><ele>124.0</ele><time>2026-04-26T08:40:20Z</time></trkpt><trkpt lat="45.63002232941974" lon="10.869216573024536"><ele>124.0</ele><time>2026-04-26T08:40:21Z</time></trkpt><trkpt lat="45.63012743840066" lon="10.869309728315702"><ele>124.0</ele><time>2026-04-26T08:40:22Z</time></trkpt><trkpt lat="45.63022051073817" lon="10.869382245505058"><ele>123.6</ele><time>2026-04-26T08:40:23Z</time></trkpt><trkpt lat="45.63029942763003" lon="10.869449834618395"><ele>123.2</ele><time>2026-04-26T08:40:24Z</time></trkpt><trkpt lat="45.63039205418897" lon="10.86952972577598"><ele>122.79999999999998</ele><time>2026-04-26T08:40:25Z</time></trkpt><trkpt lat="45.63049281200061" lon="10.869618007363128"><ele>122.39999999999999</ele><time>2026-04-26T08:40:26Z</time></trkpt><trkpt lat="45.63060037993735" lon="10.869707242744928"><ele>122.0</ele><time>2026-04-26T08:40:27Z</time></trkpt><trkpt lat="45.63071056202572" lon="10.869799805765538"><ele>122.0</ele><time>2026-04-26T08:40:28Z</time></trkpt><trkpt lat="45.63081904388841" lon="10.869891054617465"><ele>122.0</ele><time>2026-04-26T08:40:29Z</time></trkpt><trkpt lat="45.630929048170735" lon="10.86998504789184"><ele>122.0</ele><time>2026-04-26T08:40:30Z</time></trkpt><trkpt lat="45.631035825206176" lon="10.870080262373353"><ele>122.0</ele><time>2026-04-26T08:40:31Z</time></trkpt><trkpt lat="45.63114105889589" lon="10.87019414428982"><ele>122.0</ele><time>2026-04-26T08:40:32Z</time></trkpt><trkpt lat="45.631269866105576" lon="10.870327528985639"><ele>122.0</ele><time>2026-04-26T08:40:33Z</time></trkpt><trkpt lat="45.63142867427485" lon="10.870470267213133"><ele>122.0</ele><time>2026-04-26T08:40:34Z</time></trkpt><trkpt lat="45.63156319254648" lon="10.870611362438265"><ele>122.0</ele><time>2026-04-26T08:40:35Z</time></trkpt><trkpt lat="45.631680804841416" lon="10.870736177990839"><ele>122.0</ele><time>2026-04-26T08:40:36Z</time></trkpt><trkpt lat="45.63179647141663" lon="10.870859684705431"><ele>122.0</ele><time>2026-04-26T08:40:37Z</time></trkpt><trkpt lat="45.631899903622454" lon="10.870989194118664"><ele>122.0</ele><time>2026-04-26T08:40:38Z</time></trkpt><trkpt lat="45.63199646244027" lon="10.871089352972865"><ele>122.49999999999999</ele><time>2026-04-26T08:40:39Z</time></trkpt><trkpt lat="45.63208458195651" lon="10.871180757854013"><ele>123.0</ele><time>2026-04-26T08:40:40Z</time></trkpt><trkpt lat="45.63215817945905" lon="10.87125709913072"><ele>123.5</ele><time>2026-04-26T08:40:41Z</time></trkpt><trkpt lat="45.63222047923907" lon="10.871320087850993"><ele>124.0</ele><time>2026-04-26T08:40:42Z</time></trkpt><trkpt lat="45.63228037435561" lon="10.871377280523774"><ele>124.49999999999999</ele><time>2026-04-26T08:40:43Z</time></trkpt><trkpt lat="45.63233788915575" lon="10.871425270374976"><ele>125.0</ele><time>2026-04-26T08:40:45Z</time></trkpt><trkpt lat="45.632407700633244" lon="10.871496549960554"><ele>124.99999999999999</ele><time>2026-04-26T08:41:14Z</time></trkpt><trkpt lat="45.632422319687805" lon="10.871651452532943"><ele>125.0</ele><time>2026-04-26T08:41:16Z</time></trkpt><trkpt lat="45.632413961094514" lon="10.871755805914512"><ele>125.0</ele><time>2026-04-26T08:41:17Z</time></trkpt><trkpt lat="45.63240752129437" lon="10.871856254348604"><ele>125.0</ele><time>2026-04-26T08:41:18Z</time></trkpt><trkpt lat="45.63240391597756" lon="10.871968616030353"><ele>124.99999999999999</ele><time>2026-04-26T08:41:19Z</time></trkpt><trkpt lat="45.63240268058507" lon="10.872081111025208"><ele>125.0</ele><time>2026-04-26T08:41:20Z</time></trkpt><trkpt lat="45.63241395325939" lon="10.872185390993513"><ele>124.8</ele><time>2026-04-26T08:41:21Z</time></trkpt><trkpt lat="45.63243290102915" lon="10.872299806938138"><ele>124.6</ele><time>2026-04-26T08:41:22Z</time></trkpt><trkpt lat="45.632500173262166" lon="10.872407662196801"><ele>124.4</ele><time>2026-04-26T08:41:23Z</time></trkpt><trkpt lat="45.63260500861752" lon="10.872463678212132"><ele>124.2</ele><time>2026-04-26T08:41:24Z</time></trkpt><trkpt lat="45.63270416567649" lon="10.872532544443217"><ele>124.0</ele><time>2026-04-26T08:41:25Z</time></trkpt><trkpt lat="45.632803418600076" lon="10.87262327577098"><ele>124.25</ele><time>2026-04-26T08:41:26Z</time></trkpt><trkpt lat="45.63291429263335" lon="10.872698707026155"><ele>124.5</ele><time>2026-04-26T08:41:27Z</time></trkpt><trkpt lat="45.633026445878144" lon="10.872774446086135"><ele>124.75</ele><time>2026-04-26T08:41:28Z</time></trkpt><trkpt lat="45.63313087164274" lon="10.872842111038931"><ele>125.0</ele><time>2026-04-26T08:41:29Z</time></trkpt><trkpt lat="45.63323235252328" lon="10.872882381081736"><ele>124.99999999999999</ele><time>2026-04-26T08:41:30Z</time></trkpt><trkpt lat="45.63331709899389" lon="10.872940177045622"><ele>125.0</ele><time>2026-04-26T08:41:31Z</time></trkpt><trkpt lat="45.63339282598653" lon="10.872990093629896"><ele>125.0</ele><time>2026-04-26T08:41:32Z</time></trkpt><trkpt lat="45.633463065659974" lon="10.873039672126044"><ele>125.0</ele><time>2026-04-26T08:41:33Z</time></trkpt><trkpt lat="45.63353054010771" lon="10.873085596320452"><ele>124.99999999999999</ele><time>2026-04-26T08:41:34Z</time></trkpt><trkpt lat="45.63359851089889" lon="10.873132981999602"><ele>125.0</ele><time>2026-04-26T08:41:35Z</time></trkpt><trkpt lat="45.63366664893848" lon="10.873187478908651"><ele>124.4</ele><time>2026-04-26T08:41:36Z</time></trkpt><trkpt lat="45.63372554206696" lon="10.873230012668431"><ele>123.8</ele><time>2026-04-26T08:41:37Z</time></trkpt><trkpt lat="45.633819744038696" lon="10.87329956116648"><ele>123.19999999999999</ele><time>2026-04-26T08:41:39Z</time></trkpt><trkpt lat="45.633905521829554" lon="10.873372365924865"><ele>122.6</ele><time>2026-04-26T08:41:41Z</time></trkpt><trkpt lat="45.634006353034536" lon="10.873443606936668"><ele>122.0</ele><time>2026-04-26T08:41:43Z</time></trkpt><trkpt lat="45.63410689247594" lon="10.873514545757155"><ele>122.0</ele><time>2026-04-26T08:41:45Z</time></trkpt><trkpt lat="45.634212593314835" lon="10.873597155625196"><ele>121.99999999999999</ele><time>2026-04-26T08:41:47Z</time></trkpt><trkpt lat="45.63426906524575" lon="10.873640186775441"><ele>121.99999999999999</ele><time>2026-04-26T08:41:48Z</time></trkpt><trkpt lat="45.63438204162252" lon="10.87372477796561"><ele>122.0</ele><time>2026-04-26T08:41:50Z</time></trkpt><trkpt lat="45.63448737720225" lon="10.873811060373807"><ele>122.0</ele><time>2026-04-26T08:41:52Z</time></trkpt><trkpt lat="45.6345828867467" lon="10.873887367737185"><ele>121.99999999999999</ele><time>2026-04-26T08:41:54Z</time></trkpt><trkpt lat="45.63466276684827" lon="10.87392150079388"><ele>122.0</ele><time>2026-04-26T08:41:56Z</time></trkpt><trkpt lat="45.63473567784926" lon="10.873920024582082"><ele>122.0</ele><time>2026-04-26T08:41:59Z</time></trkpt><trkpt lat="45.634772914525485" lon="10.87384415861155"><ele>122.0</ele><time>2026-04-26T08:42:00Z</time></trkpt><trkpt lat="45.63482030724735" lon="10.873707964001792"><ele>121.99999999999999</ele><time>2026-04-26T08:42:02Z</time></trkpt><trkpt lat="45.634869850039074" lon="10.873588625307336"><ele>122.0</ele><time>2026-04-26T08:42:04Z</time></trkpt><trkpt lat="45.63491190798433" lon="10.873505055295906"><ele>122.0</ele><time>2026-04-26T08:42:06Z</time></trkpt><trkpt lat="45.63498229152575" lon="10.873453079982259"><ele>121.99999999999999</ele><time>2026-04-26T08:42:09Z</time></trkpt><trkpt lat="45.63505513902795" lon="10.873522204469092"><ele>121.99999999999999</ele><time>2026-04-26T08:42:12Z</time></trkpt><trkpt lat="45.63514207644927" lon="10.873597941289352"><ele>122.0</ele><time>2026-04-26T08:42:14Z</time></trkpt><trkpt lat="45.6352446743916" lon="10.8736817965666"><ele>122.0</ele><time>2026-04-26T08:42:16Z</time></trkpt><trkpt lat="45.63531438678901" lon="10.87373434143862"><ele>121.99999999999999</ele><time>2026-04-26T08:42:17Z</time></trkpt><trkpt lat="45.63538703664885" lon="10.873794467195399"><ele>122.0</ele><time>2026-04-26T08:42:18Z</time></trkpt><trkpt lat="45.635451684176246" lon="10.873846388561372"><ele>122.0</ele><time>2026-04-26T08:42:19Z</time></trkpt><trkpt lat="45.63551552864007" lon="10.873900564693844"><ele>122.0</ele><time>2026-04-26T08:42:20Z</time></trkpt><trkpt lat="45.635589299769805" lon="10.873963593889693"><ele>121.99999999999999</ele><time>2026-04-26T08:42:21Z</time></trkpt><trkpt lat="45.63566053390556" lon="10.874026517333382"><ele>122.0</ele><time>2026-04-26T08:42:22Z</time></trkpt><trkpt lat="45.63572688997918" lon="10.87409635797022"><ele>122.0</ele><time>2026-04-26T08:42:23Z</time></trkpt><trkpt lat="45.6358295242203" lon="10.874201633767612"><ele>121.99999999999999</ele><time>2026-04-26T08:42:25Z</time></trkpt><trkpt lat="45.63589982970572" lon="10.874269570255594"><ele>121.99999999999999</ele><time>2026-04-26T08:42:26Z</time></trkpt><trkpt lat="45.635983055631684" lon="10.874338005379729"><ele>122.0</ele><time>2026-04-26T08:42:27Z</time></trkpt><trkpt lat="45.63606404043979" lon="10.874409977883614"><ele>122.0</ele><time>2026-04-26T08:42:28Z</time></trkpt><trkpt lat="45.636149025355124" lon="10.874489767808083"><ele>121.8</ele><time>2026-04-26T08:42:29Z</time></trkpt><trkpt lat="45.6362228954017" lon="10.874562991025671"><ele>121.6</ele><time>2026-04-26T08:42:30Z</time></trkpt><trkpt lat="45.636293495704926" lon="10.87464132658983"><ele>121.39999999999999</ele><time>2026-04-26T08:42:31Z</time></trkpt><trkpt lat="45.636373209944416" lon="10.874727367504786"><ele>121.19999999999999</ele><time>2026-04-26T08:42:32Z</time></trkpt><trkpt lat="45.636456941702605" lon="10.87480179743631"><ele>121.0</ele><time>2026-04-26T08:42:33Z</time></trkpt><trkpt lat="45.636538920719225" lon="10.874877522783974"><ele>121.0</ele><time>2026-04-26T08:42:34Z</time></trkpt><trkpt lat="45.63661912684157" lon="10.874960756045082"><ele>121.0</ele><time>2026-04-26T08:42:35Z</time></trkpt><trkpt lat="45.63669455419301" lon="10.875035942637151"><ele>121.0</ele><time>2026-04-26T08:42:36Z</time></trkpt><trkpt lat="45.63676175427604" lon="10.875103401236375"><ele>121.0</ele><time>2026-04-26T08:42:37Z</time></trkpt><trkpt lat="45.63683790035737" lon="10.875176034018912"><ele>121.0</ele><time>2026-04-26T08:42:38Z</time></trkpt><trkpt lat="45.63692287921713" lon="10.875257668672177"><ele>121.0</ele><time>2026-04-26T08:42:39Z</time></trkpt><trkpt lat="45.6370084132831" lon="10.875340645353"><ele>121.0</ele><time>2026-04-26T08:42:40Z</time></trkpt><trkpt lat="45.63708833217812" lon="10.87542504197193"><ele>121.0</ele><time>2026-04-26T08:42:41Z</time></trkpt><trkpt lat="45.637166078152156" lon="10.875493577704608"><ele>121.0</ele><time>2026-04-26T08:42:42Z</time></trkpt><trkpt lat="45.637235972297745" lon="10.875561349660837"><ele>121.0</ele><time>2026-04-26T08:42:43Z</time></trkpt><trkpt lat="45.637300218178495" lon="10.875624757139772"><ele>121.00000000000001</ele><time>2026-04-26T08:42:44Z</time></trkpt><trkpt lat="45.63736390011186" lon="10.8756895086112"><ele>121.0</ele><time>2026-04-26T08:42:45Z</time></trkpt><trkpt lat="45.637418857018055" lon="10.875749789174233"><ele>121.0</ele><time>2026-04-26T08:42:46Z</time></trkpt><trkpt lat="45.637481495599864" lon="10.875803555358583"><ele>121.0</ele><time>2026-04-26T08:42:47Z</time></trkpt><trkpt lat="45.637524799994075" lon="10.875875973956589"><ele>121.00000000000001</ele><time>2026-04-26T08:42:48Z</time></trkpt><trkpt lat="45.63760408700213" lon="10.875964138973254"><ele>121.0</ele><time>2026-04-26T08:42:50Z</time></trkpt><trkpt lat="45.63759524422025" lon="10.876136102457625"><ele>120.85714285714285</ele><time>2026-04-26T08:42:52Z</time></trkpt><trkpt lat="45.637577992891465" lon="10.87623668511253"><ele>120.7142857142857</ele><time>2026-04-26T08:42:53Z</time></trkpt><trkpt lat="45.63758575382958" lon="10.876336831747299"><ele>120.57142857142857</ele><time>2026-04-26T08:42:54Z</time></trkpt><trkpt lat="45.63761037441587" lon="10.87642904480779"><ele>120.42857142857142</ele><time>2026-04-26T08:42:55Z</time></trkpt><trkpt lat="45.637652812614114" lon="10.876513217642497"><ele>120.28571428571428</ele><time>2026-04-26T08:42:56Z</time></trkpt><trkpt lat="45.63770907658452" lon="10.876573350842065"><ele>120.14285714285714</ele><time>2026-04-26T08:42:57Z</time></trkpt><trkpt lat="45.63778710439388" lon="10.876614743653903"><ele>120.0</ele><time>2026-04-26T08:42:58Z</time></trkpt><trkpt lat="45.637868913369736" lon="10.876648709027162"><ele>120.0</ele><time>2026-04-26T08:42:59Z</time></trkpt><trkpt lat="45.637934771843476" lon="10.876674758293186"><ele>120.0</ele><time>2026-04-26T08:43:00Z</time></trkpt><trkpt lat="45.638048509131984" lon="10.876723616283492"><ele>120.0</ele><time>2026-04-26T08:43:02Z</time></trkpt><trkpt lat="45.63811445724145" lon="10.876795489941205"><ele>120.0</ele><time>2026-04-26T08:43:04Z</time></trkpt><trkpt lat="45.63809353191171" lon="10.876900097421329"><ele>120.0</ele><time>2026-04-26T08:43:06Z</time></trkpt><trkpt lat="45.63811984895193" lon="10.876997911710665"><ele>120.0</ele><time>2026-04-26T08:43:08Z</time></trkpt><trkpt lat="45.638207402859685" lon="10.877053602168045"><ele>120.2</ele><time>2026-04-26T08:43:10Z</time></trkpt><trkpt lat="45.63831730795289" lon="10.877132397059055"><ele>120.4</ele><time>2026-04-26T08:43:12Z</time></trkpt><trkpt lat="45.63846238977721" lon="10.877115292044836"><ele>120.6</ele><time>2026-04-26T08:43:14Z</time></trkpt><trkpt lat="45.63856279591966" lon="10.877119646556467"><ele>120.8</ele><time>2026-04-26T08:43:16Z</time></trkpt><trkpt lat="45.63863584343263" lon="10.877154845657948"><ele>121.0</ele><time>2026-04-26T08:43:18Z</time></trkpt><trkpt lat="45.63881636741807" lon="10.877130876667835"><ele>121.00000000000001</ele><time>2026-04-26T08:43:20Z</time></trkpt><trkpt lat="45.63887182687124" lon="10.877201779314152"><ele>121.0</ele><time>2026-04-26T08:43:21Z</time></trkpt><trkpt lat="45.63892576728045" lon="10.877270740063372"><ele>121.0</ele><time>2026-04-26T08:43:22Z</time></trkpt><trkpt lat="45.638990465443314" lon="10.877353453994271"><ele>121.0</ele><time>2026-04-26T08:43:23Z</time></trkpt><trkpt lat="45.63906939923379" lon="10.87745436722003"><ele>121.00000000000001</ele><time>2026-04-26T08:43:24Z</time></trkpt><trkpt lat="45.63914186722165" lon="10.877545977695874"><ele>121.0</ele><time>2026-04-26T08:43:25Z</time></trkpt><trkpt lat="45.63920731100678" lon="10.877627235652273"><ele>120.8</ele><time>2026-04-26T08:43:26Z</time></trkpt><trkpt lat="45.63927314746141" lon="10.87770883758436"><ele>120.6</ele><time>2026-04-26T08:43:27Z</time></trkpt><trkpt lat="45.63934577320247" lon="10.877795522313141"><ele>120.4</ele><time>2026-04-26T08:43:28Z</time></trkpt><trkpt lat="45.63941749098159" lon="10.877877784268753"><ele>120.2</ele><time>2026-04-26T08:43:29Z</time></trkpt><trkpt lat="45.63949217809641" lon="10.877961892002071"><ele>120.0</ele><time>2026-04-26T08:43:30Z</time></trkpt><trkpt lat="45.63956560788578" lon="10.878044590197177"><ele>120.0</ele><time>2026-04-26T08:43:31Z</time></trkpt><trkpt lat="45.63964042059835" lon="10.878126355270068"><ele>120.0</ele><time>2026-04-26T08:43:32Z</time></trkpt><trkpt lat="45.639720831890905" lon="10.878212795943853"><ele>120.0</ele><time>2026-04-26T08:43:33Z</time></trkpt><trkpt lat="45.63980321885592" lon="10.87829729886562"><ele>120.0</ele><time>2026-04-26T08:43:34Z</time></trkpt><trkpt lat="45.639886189115636" lon="10.878379216643662"><ele>120.0</ele><time>2026-04-26T08:43:35Z</time></trkpt><trkpt lat="45.639975453815204" lon="10.87846438025143"><ele>119.4</ele><time>2026-04-26T08:43:36Z</time></trkpt><trkpt lat="45.640068193035006" lon="10.878551183372338"><ele>118.8</ele><time>2026-04-26T08:43:37Z</time></trkpt><trkpt lat="45.640161447689756" lon="10.878635686657786"><ele>118.19999999999999</ele><time>2026-04-26T08:43:38Z</time></trkpt><trkpt lat="45.640254224307085" lon="10.878718081773247"><ele>117.6</ele><time>2026-04-26T08:43:39Z</time></trkpt><trkpt lat="45.640340676382955" lon="10.878791210463282"><ele>117.0</ele><time>2026-04-26T08:43:40Z</time></trkpt><trkpt lat="45.64043343990697" lon="10.87886585652018"><ele>117.0</ele><time>2026-04-26T08:43:41Z</time></trkpt><trkpt lat="45.64052433334899" lon="10.878935454863209"><ele>116.99999999999999</ele><time>2026-04-26T08:43:42Z</time></trkpt><trkpt lat="45.64062004370729" lon="10.87900786483675"><ele>116.99999999999999</ele><time>2026-04-26T08:43:43Z</time></trkpt><trkpt lat="45.640720064260265" lon="10.879083196028681"><ele>117.0</ele><time>2026-04-26T08:43:44Z</time></trkpt><trkpt lat="45.64081999977789" lon="10.879157738426567"><ele>117.0</ele><time>2026-04-26T08:43:45Z</time></trkpt><trkpt lat="45.640918839170304" lon="10.879230461012298"><ele>116.8</ele><time>2026-04-26T08:43:46Z</time></trkpt><trkpt lat="45.64101850648045" lon="10.879303792730092"><ele>116.6</ele><time>2026-04-26T08:43:47Z</time></trkpt><trkpt lat="45.64111704003379" lon="10.879376290241348"><ele>116.39999999999999</ele><time>2026-04-26T08:43:48Z</time></trkpt><trkpt lat="45.64121294703709" lon="10.879446855250997"><ele>116.19999999999999</ele><time>2026-04-26T08:43:49Z</time></trkpt><trkpt lat="45.641305000013794" lon="10.879514584697116"><ele>116.0</ele><time>2026-04-26T08:43:50Z</time></trkpt><trkpt lat="45.64139622552982" lon="10.879581705028047"><ele>116.0</ele><time>2026-04-26T08:43:51Z</time></trkpt><trkpt lat="45.64148717375302" lon="10.879648621634482"><ele>116.0</ele><time>2026-04-26T08:43:52Z</time></trkpt><trkpt lat="45.64157242680165" lon="10.879712195580124"><ele>116.0</ele><time>2026-04-26T08:43:53Z</time></trkpt><trkpt lat="45.64165570850971" lon="10.879777581517331"><ele>116.0</ele><time>2026-04-26T08:43:54Z</time></trkpt><trkpt lat="45.641732957000265" lon="10.879840959553094"><ele>116.0</ele><time>2026-04-26T08:43:55Z</time></trkpt><trkpt lat="45.64181447520079" lon="10.879909455171136"><ele>116.0</ele><time>2026-04-26T08:43:56Z</time></trkpt><trkpt lat="45.641898707301884" lon="10.879980231086494"><ele>116.0</ele><time>2026-04-26T08:43:57Z</time></trkpt><trkpt lat="45.641987666935535" lon="10.880056844412145"><ele>116.0</ele><time>2026-04-26T08:43:58Z</time></trkpt><trkpt lat="45.6420730585552" lon="10.880132827484468"><ele>116.0</ele><time>2026-04-26T08:43:59Z</time></trkpt><trkpt lat="45.64215008190541" lon="10.88020414902788"><ele>116.0</ele><time>2026-04-26T08:44:00Z</time></trkpt><trkpt lat="45.64222847742717" lon="10.880276988516414"><ele>114.99999999999999</ele><time>2026-04-26T08:44:01Z</time></trkpt><trkpt lat="45.642315144817125" lon="10.880360211314514"><ele>114.0</ele><time>2026-04-26T08:44:02Z</time></trkpt><trkpt lat="45.64238172694908" lon="10.880424147429288"><ele>113.0</ele><time>2026-04-26T08:44:03Z</time></trkpt><trkpt lat="45.642435655967354" lon="10.880475933082117"><ele>112.0</ele><time>2026-04-26T08:44:04Z</time></trkpt><trkpt lat="45.642526035986116" lon="10.88056272094588"><ele>110.99999999999999</ele><time>2026-04-26T08:44:06Z</time></trkpt><trkpt lat="45.642591647048434" lon="10.880626301513717"><ele>110.0</ele><time>2026-04-26T08:44:08Z</time></trkpt><trkpt lat="45.64270282634794" lon="10.880578421335073"><ele>109.6</ele><time>2026-04-26T08:44:11Z</time></trkpt><trkpt lat="45.64281215348087" lon="10.88047331713996"><ele>109.2</ele><time>2026-04-26T08:44:13Z</time></trkpt><trkpt lat="45.64288232857815" lon="10.880447438029726"><ele>108.80000000000001</ele><time>2026-04-26T08:44:14Z</time></trkpt><trkpt lat="45.64296372048908" lon="10.880413880686781"><ele>108.4</ele><time>2026-04-26T08:44:15Z</time></trkpt><trkpt lat="45.64303099861867" lon="10.880359228614648"><ele>108.0</ele><time>2026-04-26T08:44:16Z</time></trkpt><trkpt lat="45.643107658075635" lon="10.880288824940752"><ele>108.0</ele><time>2026-04-26T08:44:17Z</time></trkpt><trkpt lat="45.643173581883254" lon="10.88022960339752"><ele>108.00000000000001</ele><time>2026-04-26T08:44:18Z</time></trkpt><trkpt lat="45.64326248877926" lon="10.88009548902059"><ele>108.00000000000001</ele><time>2026-04-26T08:44:20Z</time></trkpt><trkpt lat="45.64328539510995" lon="10.879987805834977"><ele>108.0</ele><time>2026-04-26T08:44:21Z</time></trkpt><trkpt lat="45.64329924915249" lon="10.879866406398564"><ele>108.0</ele><time>2026-04-26T08:44:22Z</time></trkpt><trkpt lat="45.643304216221686" lon="10.87972748776061"><ele>108.2</ele><time>2026-04-26T08:44:23Z</time></trkpt><trkpt lat="45.64331186971864" lon="10.87957930787269"><ele>108.4</ele><time>2026-04-26T08:44:24Z</time></trkpt><trkpt lat="45.643310357464465" lon="10.879413741342782"><ele>108.60000000000001</ele><time>2026-04-26T08:44:25Z</time></trkpt><trkpt lat="45.64329423895006" lon="10.879270793090445"><ele>108.80000000000001</ele><time>2026-04-26T08:44:26Z</time></trkpt><trkpt lat="45.64327245161515" lon="10.879143263896484"><ele>109.0</ele><time>2026-04-26T08:44:27Z</time></trkpt><trkpt lat="45.64325132304036" lon="10.879034737461518"><ele>109.83333333333334</ele><time>2026-04-26T08:44:28Z</time></trkpt><trkpt lat="45.6432269686883" lon="10.8789324064423"><ele>110.66666666666667</ele><time>2026-04-26T08:44:29Z</time></trkpt><trkpt lat="45.643200726630155" lon="10.878843603814895"><ele>111.5</ele><time>2026-04-26T08:44:30Z</time></trkpt><trkpt lat="45.64314518079369" lon="10.878710040318785"><ele>112.33333333333334</ele><time>2026-04-26T08:44:32Z</time></trkpt><trkpt lat="45.64310322380775" lon="10.878610989944265"><ele>113.16666666666667</ele><time>2026-04-26T08:44:34Z</time></trkpt><trkpt lat="45.6430709187215" lon="10.878524270520069"><ele>114.0</ele><time>2026-04-26T08:44:59Z</time></trkpt><trkpt lat="45.64304698859872" lon="10.878426633593087"><ele>114.0</ele><time>2026-04-26T08:45:01Z</time></trkpt><trkpt lat="45.64311141556029" lon="10.878370354977665"><ele>114.0</ele><time>2026-04-26T08:45:04Z</time></trkpt><trkpt lat="45.64317622580771" lon="10.878387515135348"><ele>114.0</ele><time>2026-04-26T08:45:05Z</time></trkpt><trkpt lat="45.64328333099545" lon="10.878446662205807"><ele>114.0</ele><time>2026-04-26T08:45:06Z</time></trkpt><trkpt lat="45.64341222895545" lon="10.878516993478346"><ele>114.0</ele><time>2026-04-26T08:45:07Z</time></trkpt><trkpt lat="45.64354756574209" lon="10.878571965602115"><ele>114.5</ele><time>2026-04-26T08:45:08Z</time></trkpt><trkpt lat="45.64368933469611" lon="10.878629061303002"><ele>115.0</ele><time>2026-04-26T08:45:09Z</time></trkpt><trkpt lat="45.64382044637971" lon="10.878676877117686"><ele>115.5</ele><time>2026-04-26T08:45:10Z</time></trkpt><trkpt lat="45.643935301270346" lon="10.878714015268471"><ele>116.0</ele><time>2026-04-26T08:45:11Z</time></trkpt><trkpt lat="45.644043320115244" lon="10.87874784603495"><ele>115.99999999999999</ele><time>2026-04-26T08:45:12Z</time></trkpt><trkpt lat="45.64413998365205" lon="10.878778675805519"><ele>116.0</ele><time>2026-04-26T08:45:13Z</time></trkpt><trkpt lat="45.644222926791386" lon="10.878808742728546"><ele>116.0</ele><time>2026-04-26T08:45:14Z</time></trkpt><trkpt lat="45.64428737935116" lon="10.878828429976412"><ele>116.0</ele><time>2026-04-26T08:45:15Z</time></trkpt><trkpt lat="45.64436957111437" lon="10.878867012049003"><ele>115.99999999999999</ele><time>2026-04-26T08:45:17Z</time></trkpt><trkpt lat="45.64443115928209" lon="10.878913408120786"><ele>116.0</ele><time>2026-04-26T08:45:19Z</time></trkpt><trkpt lat="45.644540119787244" lon="10.8789304404628"><ele>117.5</ele><time>2026-04-26T08:45:40Z</time></trkpt><trkpt lat="45.64462995748954" lon="10.878952849072554"><ele>119.0</ele><time>2026-04-26T08:45:41Z</time></trkpt><trkpt lat="45.64473587812242" lon="10.878997136487992"><ele>120.5</ele><time>2026-04-26T08:45:42Z</time></trkpt><trkpt lat="45.64485960339137" lon="10.879051031388032"><ele>122.0</ele><time>2026-04-26T08:45:43Z</time></trkpt><trkpt lat="45.644995284639165" lon="10.87909333293244"><ele>122.0</ele><time>2026-04-26T08:45:44Z</time></trkpt><trkpt lat="45.645151723705176" lon="10.879145818283195"><ele>122.0</ele><time>2026-04-26T08:45:45Z</time></trkpt><trkpt lat="45.64532241458246" lon="10.87920168758802"><ele>122.0</ele><time>2026-04-26T08:45:46Z</time></trkpt><trkpt lat="45.645488164263135" lon="10.879258144380213"><ele>118.66666666666666</ele><time>2026-04-26T08:45:47Z</time></trkpt><trkpt lat="45.64565220347159" lon="10.879320762143857"><ele>115.33333333333334</ele><time>2026-04-26T08:45:48Z</time></trkpt><trkpt lat="45.6458163852463" lon="10.879376209633854"><ele>112.0</ele><time>2026-04-26T08:45:49Z</time></trkpt><trkpt lat="45.64598487399877" lon="10.879428807849878"><ele>118.66666666666667</ele><time>2026-04-26T08:45:50Z</time></trkpt><trkpt lat="45.646154193695025" lon="10.879487372356177"><ele>125.33333333333334</ele><time>2026-04-26T08:45:51Z</time></trkpt><trkpt lat="45.64631669004499" lon="10.879569778175695"><ele>132.0</ele><time>2026-04-26T08:45:52Z</time></trkpt><trkpt lat="45.646470984057416" lon="10.879689360871776"><ele>132.0</ele><time>2026-04-26T08:45:53Z</time></trkpt><trkpt lat="45.64660542262491" lon="10.879864751955946"><ele>132.0</ele><time>2026-04-26T08:45:54Z</time></trkpt><trkpt lat="45.64672588314674" lon="10.88005864529544"><ele>132.0</ele><time>2026-04-26T08:45:55Z</time></trkpt><trkpt lat="45.64683823132098" lon="10.880277093521453"><ele>132.0</ele><time>2026-04-26T08:45:56Z</time></trkpt><trkpt lat="45.6469456682488" lon="10.880496811876883"><ele>132.0</ele><time>2026-04-26T08:45:57Z</time></trkpt><trkpt lat="45.64706062612991" lon="10.880712916763079"><ele>132.0</ele><time>2026-04-26T08:45:58Z</time></trkpt><trkpt lat="45.64716839395961" lon="10.880964998990205"><ele>132.0</ele><time>2026-04-26T08:45:59Z</time></trkpt><trkpt lat="45.647261620647" lon="10.881181366827173"><ele>132.0</ele><time>2026-04-26T08:46:00Z</time></trkpt><trkpt lat="45.64736468769933" lon="10.88139686878112"><ele>132.0</ele><time>2026-04-26T08:46:01Z</time></trkpt><trkpt lat="45.64746536566845" lon="10.881607308396521"><ele>132.25</ele><time>2026-04-26T08:46:02Z</time></trkpt><trkpt lat="45.647558208993935" lon="10.881790252241894"><ele>132.5</ele><time>2026-04-26T08:46:03Z</time></trkpt><trkpt lat="45.647640619411085" lon="10.881960473414296"><ele>132.75</ele><time>2026-04-26T08:46:04Z</time></trkpt><trkpt lat="45.64772343715847" lon="10.882128425502458"><ele>133.0</ele><time>2026-04-26T08:46:05Z</time></trkpt><trkpt lat="45.647813775635" lon="10.882299850168572"><ele>133.0</ele><time>2026-04-26T08:46:06Z</time></trkpt><trkpt lat="45.64790834341657" lon="10.882460180483879"><ele>133.0</ele><time>2026-04-26T08:46:07Z</time></trkpt><trkpt lat="45.64801143384661" lon="10.882600675303864"><ele>133.0</ele><time>2026-04-26T08:46:08Z</time></trkpt><trkpt lat="45.64810333833486" lon="10.882770770690485"><ele>133.0</ele><time>2026-04-26T08:46:09Z</time></trkpt><trkpt lat="45.64820439173727" lon="10.882921401495276"><ele>130.5</ele><time>2026-04-26T08:46:10Z</time></trkpt><trkpt lat="45.648312308304796" lon="10.883066459025015"><ele>128.0</ele><time>2026-04-26T08:46:11Z</time></trkpt><trkpt lat="45.648426003237304" lon="10.883201316034736"><ele>125.5</ele><time>2026-04-26T08:46:12Z</time></trkpt><trkpt lat="45.64853958239553" lon="10.883323426003724"><ele>123.0</ele><time>2026-04-26T08:46:13Z</time></trkpt><trkpt lat="45.64865918416693" lon="10.883441659679374"><ele>123.0</ele><time>2026-04-26T08:46:14Z</time></trkpt><trkpt lat="45.64877685138782" lon="10.883557968832113"><ele>123.0</ele><time>2026-04-26T08:46:15Z</time></trkpt><trkpt lat="45.648888832481745" lon="10.88365822981746"><ele>123.0</ele><time>2026-04-26T08:46:16Z</time></trkpt><trkpt lat="45.64899816289999" lon="10.883754774231358"><ele>123.0</ele><time>2026-04-26T08:46:17Z</time></trkpt><trkpt lat="45.649100518322584" lon="10.88384339927689"><ele>123.0</ele><time>2026-04-26T08:46:18Z</time></trkpt><trkpt lat="45.649204978158345" lon="10.883935259659921"><ele>123.0</ele><time>2026-04-26T08:46:19Z</time></trkpt><trkpt lat="45.649305060428894" lon="10.884026228180657"><ele>123.0</ele><time>2026-04-26T08:46:20Z</time></trkpt><trkpt lat="45.64940211301903" lon="10.884119097218528"><ele>123.0</ele><time>2026-04-26T08:46:21Z</time></trkpt><trkpt lat="45.649502387777666" lon="10.884210025747405"><ele>124.5</ele><time>2026-04-26T08:46:22Z</time></trkpt><trkpt lat="45.649597097957695" lon="10.884300285748427"><ele>126.0</ele><time>2026-04-26T08:46:23Z</time></trkpt><trkpt lat="45.649695871228055" lon="10.88439278598983"><ele>127.5</ele><time>2026-04-26T08:46:24Z</time></trkpt><trkpt lat="45.64979486654167" lon="10.884484709679981"><ele>129.0</ele><time>2026-04-26T08:46:25Z</time></trkpt><trkpt lat="45.6498961270158" lon="10.884582673476135"><ele>129.0</ele><time>2026-04-26T08:46:26Z</time></trkpt><trkpt lat="45.650005573912246" lon="10.884686077612484"><ele>129.0</ele><time>2026-04-26T08:46:27Z</time></trkpt><trkpt lat="45.65011972019201" lon="10.884794194177097"><ele>129.0</ele><time>2026-04-26T08:46:28Z</time></trkpt><trkpt lat="45.6502392812984" lon="10.884916210915222"><ele>129.0</ele><time>2026-04-26T08:46:29Z</time></trkpt><trkpt lat="45.650358356027844" lon="10.88504749266945"><ele>129.0</ele><time>2026-04-26T08:46:30Z</time></trkpt><trkpt lat="45.65047518872987" lon="10.885201231024334"><ele>129.0</ele><time>2026-04-26T08:46:31Z</time></trkpt><trkpt lat="45.65058588879305" lon="10.885364025026698"><ele>129.0</ele><time>2026-04-26T08:46:32Z</time></trkpt><trkpt lat="45.65070474327249" lon="10.885527523279668"><ele>129.0</ele><time>2026-04-26T08:46:33Z</time></trkpt><trkpt lat="45.65081734296038" lon="10.885697366397151"><ele>129.0</ele><time>2026-04-26T08:46:34Z</time></trkpt><trkpt lat="45.650930852547674" lon="10.88586653902624"><ele>129.0</ele><time>2026-04-26T08:46:35Z</time></trkpt><trkpt lat="45.65104570515261" lon="10.886028548885246"><ele>130.33333333333334</ele><time>2026-04-26T08:46:36Z</time></trkpt><trkpt lat="45.651156833538444" lon="10.886189371878189"><ele>131.66666666666669</ele><time>2026-04-26T08:46:37Z</time></trkpt><trkpt lat="45.65126398208349" lon="10.886342436036395"><ele>133.0</ele><time>2026-04-26T08:46:38Z</time></trkpt><trkpt lat="45.651366986907284" lon="10.886497846373333"><ele>133.0</ele><time>2026-04-26T08:46:39Z</time></trkpt><trkpt lat="45.65146708025746" lon="10.886647122493224"><ele>133.0</ele><time>2026-04-26T08:46:40Z</time></trkpt><trkpt lat="45.651561529357956" lon="10.88678602856205"><ele>133.0</ele><time>2026-04-26T08:46:41Z</time></trkpt><trkpt lat="45.65165133176876" lon="10.886919215310863"><ele>133.0</ele><time>2026-04-26T08:46:42Z</time></trkpt><trkpt lat="45.65174595714842" lon="10.887052632688498"><ele>133.0</ele><time>2026-04-26T08:46:43Z</time></trkpt><trkpt lat="45.65184009270234" lon="10.88718653356058"><ele>133.0</ele><time>2026-04-26T08:46:44Z</time></trkpt><trkpt lat="45.65193411046337" lon="10.887316149472623"><ele>133.0</ele><time>2026-04-26T08:46:45Z</time></trkpt><trkpt lat="45.65202354007788" lon="10.887435905043498"><ele>133.0</ele><time>2026-04-26T08:46:46Z</time></trkpt><trkpt lat="45.65211302176043" lon="10.88755136319165"><ele>132.75</ele><time>2026-04-26T08:46:47Z</time></trkpt><trkpt lat="45.65220444406998" lon="10.887667566201037"><ele>132.5</ele><time>2026-04-26T08:46:48Z</time></trkpt><trkpt lat="45.652298317550496" lon="10.887783053936333"><ele>132.25</ele><time>2026-04-26T08:46:49Z</time></trkpt><trkpt lat="45.652382052909594" lon="10.88788257934666"><ele>132.0</ele><time>2026-04-26T08:46:50Z</time></trkpt><trkpt lat="45.652465523098506" lon="10.887957935602886"><ele>132.0</ele><time>2026-04-26T08:46:51Z</time></trkpt><trkpt lat="45.652544050822655" lon="10.888034480333426"><ele>132.0</ele><time>2026-04-26T08:46:52Z</time></trkpt><trkpt lat="45.652618184746736" lon="10.888093988135314"><ele>132.0</ele><time>2026-04-26T08:46:53Z</time></trkpt><trkpt lat="45.65269757922873" lon="10.888167626513498"><ele>132.0</ele><time>2026-04-26T08:46:54Z</time></trkpt><trkpt lat="45.652771098814085" lon="10.88826310534154"><ele>132.0</ele><time>2026-04-26T08:46:55Z</time></trkpt><trkpt lat="45.65282294308396" lon="10.888403865904447"><ele>131.75</ele><time>2026-04-26T08:46:56Z</time></trkpt><trkpt lat="45.65286124075139" lon="10.888573315903875"><ele>131.5</ele><time>2026-04-26T08:46:57Z</time></trkpt><trkpt lat="45.65290063010647" lon="10.888762107776632"><ele>131.25</ele><time>2026-04-26T08:46:58Z</time></trkpt><trkpt lat="45.652947961805125" lon="10.888954241516664"><ele>131.0</ele><time>2026-04-26T08:46:59Z</time></trkpt><trkpt lat="45.6529988981778" lon="10.889144632821782"><ele>130.5</ele><time>2026-04-26T08:47:00Z</time></trkpt><trkpt lat="45.653045268069484" lon="10.889321909648475"><ele>130.0</ele><time>2026-04-26T08:47:01Z</time></trkpt><trkpt lat="45.65308765298729" lon="10.889493883775963"><ele>129.5</ele><time>2026-04-26T08:47:02Z</time></trkpt><trkpt lat="45.653131835234426" lon="10.8896713025916"><ele>129.0</ele><time>2026-04-26T08:47:03Z</time></trkpt><trkpt lat="45.6531789804093" lon="10.889854315165312"><ele>129.0</ele><time>2026-04-26T08:47:04Z</time></trkpt><trkpt lat="45.65322878383721" lon="10.89004122050343"><ele>129.0</ele><time>2026-04-26T08:47:05Z</time></trkpt><trkpt lat="45.65327269867457" lon="10.890228727801599"><ele>129.0</ele><time>2026-04-26T08:47:06Z</time></trkpt><trkpt lat="45.65331252246825" lon="10.890376130247818"><ele>129.0</ele><time>2026-04-26T08:47:07Z</time></trkpt><trkpt lat="45.6533645017216" lon="10.89054791750134"><ele>128.5</ele><time>2026-04-26T08:47:08Z</time></trkpt><trkpt lat="45.653418589716026" lon="10.890692593314403"><ele>128.0</ele><time>2026-04-26T08:47:09Z</time></trkpt><trkpt lat="45.65348035376344" lon="10.890832659384365"><ele>127.5</ele><time>2026-04-26T08:47:10Z</time></trkpt><trkpt lat="45.653557097646384" lon="10.890972534868547"><ele>127.0</ele><time>2026-04-26T08:47:11Z</time></trkpt><trkpt lat="45.65364642258533" lon="10.891125248846993"><ele>127.0</ele><time>2026-04-26T08:47:12Z</time></trkpt><trkpt lat="45.65374293395642" lon="10.891286698359432"><ele>127.0</ele><time>2026-04-26T08:47:13Z</time></trkpt><trkpt lat="45.653831704528734" lon="10.891435830050497"><ele>127.0</ele><time>2026-04-26T08:47:14Z</time></trkpt><trkpt lat="45.65391283975155" lon="10.891575162166516"><ele>127.0</ele><time>2026-04-26T08:47:15Z</time></trkpt><trkpt lat="45.653989377656885" lon="10.891714338151974"><ele>126.75</ele><time>2026-04-26T08:47:16Z</time></trkpt><trkpt lat="45.65406733416491" lon="10.891865749141404"><ele>126.5</ele><time>2026-04-26T08:47:17Z</time></trkpt><trkpt lat="45.65414130125776" lon="10.89202455048519"><ele>126.25</ele><time>2026-04-26T08:47:18Z</time></trkpt><trkpt lat="45.654208758654065" lon="10.892195835349026"><ele>126.0</ele><time>2026-04-26T08:47:19Z</time></trkpt><trkpt lat="45.65426255172239" lon="10.892369146543665"><ele>126.0</ele><time>2026-04-26T08:47:20Z</time></trkpt><trkpt lat="45.654297900336196" lon="10.89254134831856"><ele>126.0</ele><time>2026-04-26T08:47:21Z</time></trkpt><trkpt lat="45.654339622158375" lon="10.892711098039662"><ele>126.0</ele><time>2026-04-26T08:47:22Z</time></trkpt><trkpt lat="45.65438587921563" lon="10.892876730016676"><ele>126.0</ele><time>2026-04-26T08:47:23Z</time></trkpt><trkpt lat="45.65443721272782" lon="10.8930400763351"><ele>125.25</ele><time>2026-04-26T08:47:24Z</time></trkpt><trkpt lat="45.65449442254021" lon="10.893194773959685"><ele>124.5</ele><time>2026-04-26T08:47:25Z</time></trkpt><trkpt lat="45.65455871310615" lon="10.893338731313756"><ele>123.75</ele><time>2026-04-26T08:47:26Z</time></trkpt><trkpt lat="45.65463464517517" lon="10.893477261660259"><ele>123.0</ele><time>2026-04-26T08:47:27Z</time></trkpt><trkpt lat="45.65472475472082" lon="10.893607283329999"><ele>122.0</ele><time>2026-04-26T08:47:28Z</time></trkpt><trkpt lat="45.654833588660594" lon="10.89371050170454"><ele>121.0</ele><time>2026-04-26T08:47:29Z</time></trkpt><trkpt lat="45.65496282907795" lon="10.893779694693034"><ele>120.0</ele><time>2026-04-26T08:47:30Z</time></trkpt><trkpt lat="45.65510304629177" lon="10.893820754843718"><ele>119.0</ele><time>2026-04-26T08:47:31Z</time></trkpt><trkpt lat="45.655238018297794" lon="10.893852626284067"><ele>119.5</ele><time>2026-04-26T08:47:32Z</time></trkpt><trkpt lat="45.65537577203432" lon="10.893879977752"><ele>120.0</ele><time>2026-04-26T08:47:33Z</time></trkpt><trkpt lat="45.65551502787289" lon="10.8938951466377"><ele>120.5</ele><time>2026-04-26T08:47:34Z</time></trkpt><trkpt lat="45.6556556909297" lon="10.893897072756381"><ele>121.0</ele><time>2026-04-26T08:47:35Z</time></trkpt><trkpt lat="45.65579025852899" lon="10.893910469013006"><ele>121.0</ele><time>2026-04-26T08:47:36Z</time></trkpt><trkpt lat="45.655924208692355" lon="10.89394042858823"><ele>121.0</ele><time>2026-04-26T08:47:37Z</time></trkpt><trkpt lat="45.65604760200507" lon="10.893973869561268"><ele>121.0</ele><time>2026-04-26T08:47:38Z</time></trkpt><trkpt lat="45.65616067582641" lon="10.893994688797626"><ele>121.0</ele><time>2026-04-26T08:47:39Z</time></trkpt><trkpt lat="45.656264555507974" lon="10.894009600435743"><ele>120.6</ele><time>2026-04-26T08:47:40Z</time></trkpt><trkpt lat="45.656348932152426" lon="10.894015142605982"><ele>120.19999999999999</ele><time>2026-04-26T08:47:41Z</time></trkpt><trkpt lat="45.65643721996305" lon="10.894046782125791"><ele>119.80000000000001</ele><time>2026-04-26T08:47:42Z</time></trkpt><trkpt lat="45.6564992260195" lon="10.894065665829444"><ele>119.4</ele><time>2026-04-26T08:47:43Z</time></trkpt><trkpt lat="45.656607495120866" lon="10.894096678966019"><ele>119.0</ele><time>2026-04-26T08:47:45Z</time></trkpt><trkpt lat="45.656690717010314" lon="10.894183676254235"><ele>117.99999999999999</ele><time>2026-04-26T08:47:47Z</time></trkpt><trkpt lat="45.65670152110778" lon="10.894334638241387"><ele>117.0</ele><time>2026-04-26T08:47:49Z</time></trkpt><trkpt lat="45.656690363316876" lon="10.894430788727597"><ele>116.0</ele><time>2026-04-26T08:47:50Z</time></trkpt><trkpt lat="45.6566765675913" lon="10.894537135400823"><ele>115.0</ele><time>2026-04-26T08:47:51Z</time></trkpt><trkpt lat="45.656663408304375" lon="10.894657458721694"><ele>113.99999999999999</ele><time>2026-04-26T08:47:52Z</time></trkpt><trkpt lat="45.65665385253015" lon="10.89477395849032"><ele>113.0</ele><time>2026-04-26T08:47:53Z</time></trkpt><trkpt lat="45.656645981471044" lon="10.894884636894284"><ele>112.99999999999999</ele><time>2026-04-26T08:47:54Z</time></trkpt><trkpt lat="45.6566360907148" lon="10.89498917337647"><ele>113.0</ele><time>2026-04-26T08:47:55Z</time></trkpt><trkpt lat="45.65662630633397" lon="10.895089734890135"><ele>113.0</ele><time>2026-04-26T08:47:56Z</time></trkpt><trkpt lat="45.65661531256689" lon="10.89520071390785"><ele>113.0</ele><time>2026-04-26T08:47:57Z</time></trkpt><trkpt lat="45.656603372806075" lon="10.89531799842784"><ele>112.99999999999999</ele><time>2026-04-26T08:47:58Z</time></trkpt><trkpt lat="45.6565917111737" lon="10.895438541276079"><ele>113.0</ele><time>2026-04-26T08:47:59Z</time></trkpt><trkpt lat="45.656579664199064" lon="10.89556479115393"><ele>113.0</ele><time>2026-04-26T08:48:00Z</time></trkpt><trkpt lat="45.65656644384643" lon="10.895692225336017"><ele>113.00000000000001</ele><time>2026-04-26T08:48:01Z</time></trkpt><trkpt lat="45.65655157364165" lon="10.895824432404801"><ele>113.00000000000001</ele><time>2026-04-26T08:48:02Z</time></trkpt><trkpt lat="45.656537566223484" lon="10.89595941193351"><ele>113.0</ele><time>2026-04-26T08:48:03Z</time></trkpt><trkpt lat="45.65652288004553" lon="10.896086497636738"><ele>113.0</ele><time>2026-04-26T08:48:04Z</time></trkpt><trkpt lat="45.656505160470594" lon="10.896215663370334"><ele>113.80000000000001</ele><time>2026-04-26T08:48:05Z</time></trkpt><trkpt lat="45.656489399957955" lon="10.89634614616948"><ele>114.60000000000001</ele><time>2026-04-26T08:48:06Z</time></trkpt><trkpt lat="45.656474570213184" lon="10.896482721272166"><ele>115.39999999999999</ele><time>2026-04-26T08:48:07Z</time></trkpt><trkpt lat="45.65646399035847" lon="10.896628236402904"><ele>116.19999999999999</ele><time>2026-04-26T08:48:08Z</time></trkpt><trkpt lat="45.65645169366522" lon="10.896762740815712"><ele>117.0</ele><time>2026-04-26T08:48:09Z</time></trkpt><trkpt lat="45.6564384932812" lon="10.896884458362713"><ele>117.33333333333333</ele><time>2026-04-26T08:48:10Z</time></trkpt><trkpt lat="45.65642656831051" lon="10.8969898191177"><ele>117.66666666666666</ele><time>2026-04-26T08:48:11Z</time></trkpt><trkpt lat="45.6564201616619" lon="10.897087551195598"><ele>118.0</ele><time>2026-04-26T08:48:12Z</time></trkpt><trkpt lat="45.656409830765256" lon="10.89718211442584"><ele>118.33333333333333</ele><time>2026-04-26T08:48:13Z</time></trkpt><trkpt lat="45.65639247279003" lon="10.897350168671052"><ele>118.66666666666666</ele><time>2026-04-26T08:48:15Z</time></trkpt><trkpt lat="45.65637223604417" lon="10.897489718159788"><ele>119.0</ele><time>2026-04-26T08:48:17Z</time></trkpt><trkpt lat="45.65635376570904" lon="10.89759772117896"><ele>119.33333333333333</ele><time>2026-04-26T08:48:19Z</time></trkpt><trkpt lat="45.6563341414384" lon="10.897735989155219"><ele>119.66666666666666</ele><time>2026-04-26T08:48:22Z</time></trkpt><trkpt lat="45.65628519362844" lon="10.897888321313221"><ele>120.0</ele><time>2026-04-26T08:48:24Z</time></trkpt><trkpt lat="45.65624571956594" lon="10.897961081483984"><ele>120.33333333333334</ele><time>2026-04-26T08:48:25Z</time></trkpt><trkpt lat="45.65622081353303" lon="10.898053598281981"><ele>120.66666666666667</ele><time>2026-04-26T08:48:27Z</time></trkpt><trkpt lat="45.65627540134091" lon="10.897992043016448"><ele>121.0</ele><time>2026-04-26T08:48:30Z</time></trkpt><trkpt lat="45.65633357599196" lon="10.897943199634346"><ele>121.0</ele><time>2026-04-26T08:48:34Z</time></trkpt><trkpt lat="45.65633313378731" lon="10.897792392951807"><ele>121.0</ele><time>2026-04-26T08:48:38Z</time></trkpt><trkpt lat="45.656318930527014" lon="10.897658218266573"><ele>121.0</ele><time>2026-04-26T08:48:40Z</time></trkpt><trkpt lat="45.65631376180421" lon="10.897535687367245"><ele>121.0</ele><time>2026-04-26T08:48:42Z</time></trkpt><trkpt lat="45.65633186410979" lon="10.897345170066862"><ele>121.0</ele><time>2026-04-26T08:48:44Z</time></trkpt><trkpt lat="45.65634449468384" lon="10.89723165357012"><ele>120.6</ele><time>2026-04-26T08:48:45Z</time></trkpt><trkpt lat="45.65635668616941" lon="10.89710636306305"><ele>120.19999999999999</ele><time>2026-04-26T08:48:46Z</time></trkpt><trkpt lat="45.65637229387819" lon="10.896971136924202"><ele>119.80000000000001</ele><time>2026-04-26T08:48:47Z</time></trkpt><trkpt lat="45.656384800841174" lon="10.896835689911063"><ele>119.4</ele><time>2026-04-26T08:48:48Z</time></trkpt><trkpt lat="45.65639730628634" lon="10.896704149810807"><ele>119.0</ele><time>2026-04-26T08:48:49Z</time></trkpt><trkpt lat="45.65640760553562" lon="10.896558715367599"><ele>118.6</ele><time>2026-04-26T08:48:50Z</time></trkpt><trkpt lat="45.6564205567687" lon="10.896432919628122"><ele>118.2</ele><time>2026-04-26T08:48:51Z</time></trkpt><trkpt lat="45.656433507480486" lon="10.896305979937697"><ele>117.79999999999998</ele><time>2026-04-26T08:48:52Z</time></trkpt><trkpt lat="45.65654931892202" lon="10.896177936532368"><ele>117.39999999999999</ele><time>2026-04-26T08:48:53Z</time></trkpt><trkpt lat="45.65656195226577" lon="10.896047580497296"><ele>117.0</ele><time>2026-04-26T08:48:54Z</time></trkpt><trkpt lat="45.65657237782814" lon="10.895937634534038"><ele>116.19999999999999</ele><time>2026-04-26T08:48:55Z</time></trkpt><trkpt lat="45.65658125964296" lon="10.895843968692608"><ele>115.39999999999999</ele><time>2026-04-26T08:48:56Z</time></trkpt><trkpt lat="45.656595098331124" lon="10.895698020873482"><ele>114.60000000000001</ele><time>2026-04-26T08:48:58Z</time></trkpt><trkpt lat="45.65658744802208" lon="10.895603303547794"><ele>113.80000000000001</ele><time>2026-04-26T08:49:01Z</time></trkpt><trkpt lat="45.65640272154111" lon="10.895570509318414"><ele>113.0</ele><time>2026-04-26T08:49:02Z</time></trkpt><trkpt lat="45.65629844851308" lon="10.895540009510073"><ele>112.99999999999999</ele><time>2026-04-26T08:49:04Z</time></trkpt><trkpt lat="45.65622555001614" lon="10.895518753894201"><ele>113.0</ele><time>2026-04-26T08:49:05Z</time></trkpt><trkpt lat="45.656140942020414" lon="10.895503245307484"><ele>113.0</ele><time>2026-04-26T08:49:06Z</time></trkpt><trkpt lat="45.656049369504615" lon="10.89548854150241"><ele>113.0</ele><time>2026-04-26T08:49:07Z</time></trkpt><trkpt lat="45.65595539917296" lon="10.895479229427808"><ele>112.99999999999999</ele><time>2026-04-26T08:49:08Z</time></trkpt><trkpt lat="45.65585975143859" lon="10.895470535877259"><ele>113.0</ele><time>2026-04-26T08:49:09Z</time></trkpt><trkpt lat="45.655769342798614" lon="10.895460838291816"><ele>113.2</ele><time>2026-04-26T08:49:10Z</time></trkpt><trkpt lat="45.65568217657046" lon="10.895460708228478"><ele>113.4</ele><time>2026-04-26T08:49:11Z</time></trkpt><trkpt lat="45.655595374932304" lon="10.895464434359013"><ele>113.60000000000001</ele><time>2026-04-26T08:49:12Z</time></trkpt><trkpt lat="45.655488761699054" lon="10.89547685614953"><ele>113.80000000000001</ele><time>2026-04-26T08:49:13Z</time></trkpt><trkpt lat="45.655375642209854" lon="10.89549189326781"><ele>114.0</ele><time>2026-04-26T08:49:14Z</time></trkpt><trkpt lat="45.65528632539703" lon="10.895503731369187"><ele>114.0</ele><time>2026-04-26T08:49:15Z</time></trkpt><trkpt lat="45.655212274495405" lon="10.895507969554902"><ele>114.0</ele><time>2026-04-26T08:49:16Z</time></trkpt><trkpt lat="45.65514520607108" lon="10.895513585826825"><ele>114.0</ele><time>2026-04-26T08:49:17Z</time></trkpt><trkpt lat="45.6550289946485" lon="10.895518076672937"><ele>114.0</ele><time>2026-04-26T08:49:19Z</time></trkpt><trkpt lat="45.65496162711939" lon="10.895516955848095"><ele>114.0</ele><time>2026-04-26T08:49:20Z</time></trkpt><trkpt lat="45.65483712409412" lon="10.895525004388615"><ele>114.0</ele><time>2026-04-26T08:49:22Z</time></trkpt><trkpt lat="45.65477052817133" lon="10.895560570485557"><ele>114.0</ele><time>2026-04-26T08:49:23Z</time></trkpt><trkpt lat="45.654716834737954" lon="10.895637276523185"><ele>114.0</ele><time>2026-04-26T08:49:24Z</time></trkpt><trkpt lat="45.65467987681463" lon="10.895722823872534"><ele>114.0</ele><time>2026-04-26T08:49:25Z</time></trkpt><trkpt lat="45.654645718557525" lon="10.895886273664328"><ele>114.0</ele><time>2026-04-26T08:49:27Z</time></trkpt><trkpt lat="45.654593301628836" lon="10.896000840315967"><ele>114.0</ele><time>2026-04-26T08:49:29Z</time></trkpt><trkpt lat="45.654493778446444" lon="10.896019355397646"><ele>114.0</ele><time>2026-04-26T08:49:31Z</time></trkpt><trkpt lat="45.65439079535855" lon="10.895981259709272"><ele>114.0</ele><time>2026-04-26T08:49:33Z</time></trkpt><trkpt lat="45.654318937466144" lon="10.895885885228513"><ele>114.0</ele><time>2026-04-26T08:49:35Z</time></trkpt><trkpt lat="45.65429364398912" lon="10.895709996419107"><ele>114.0</ele><time>2026-04-26T08:49:37Z</time></trkpt><trkpt lat="45.65426779650688" lon="10.895588912893452"><ele>114.0</ele><time>2026-04-26T08:49:39Z</time></trkpt><trkpt lat="45.65417119589751" lon="10.895577700843509"><ele>114.0</ele><time>2026-04-26T08:49:41Z</time></trkpt><trkpt lat="45.65405405092866" lon="10.895609464032177"><ele>114.0</ele><time>2026-04-26T08:49:43Z</time></trkpt><trkpt lat="45.65397274114666" lon="10.895634471377829"><ele>114.0</ele><time>2026-04-26T08:49:44Z</time></trkpt><trkpt lat="45.65388944056961" lon="10.895664605070026"><ele>114.0</ele><time>2026-04-26T08:49:45Z</time></trkpt><trkpt lat="45.65380312410681" lon="10.895693836049213"><ele>114.0</ele><time>2026-04-26T08:49:46Z</time></trkpt><trkpt lat="45.65369599912996" lon="10.895711622872861"><ele>114.0</ele><time>2026-04-26T08:49:47Z</time></trkpt><trkpt lat="45.65359302674238" lon="10.895741529452769"><ele>114.0</ele><time>2026-04-26T08:49:48Z</time></trkpt><trkpt lat="45.65349746172628" lon="10.895761464358406"><ele>114.0</ele><time>2026-04-26T08:49:49Z</time></trkpt><trkpt lat="45.65340691742669" lon="10.895800746804737"><ele>114.0</ele><time>2026-04-26T08:49:50Z</time></trkpt><trkpt lat="45.653316187298486" lon="10.895834445714135"><ele>114.0</ele><time>2026-04-26T08:49:51Z</time></trkpt><trkpt lat="45.653237184032264" lon="10.895863733628072"><ele>114.0</ele><time>2026-04-26T08:49:52Z</time></trkpt><trkpt lat="45.65315582805582" lon="10.895895519481229"><ele>114.0</ele><time>2026-04-26T08:49:53Z</time></trkpt><trkpt lat="45.653081378872514" lon="10.895926576012025"><ele>114.0</ele><time>2026-04-26T08:49:54Z</time></trkpt><trkpt lat="45.65300671370352" lon="10.89596098603624"><ele>114.0</ele><time>2026-04-26T08:49:55Z</time></trkpt><trkpt lat="45.652928670331754" lon="10.895992742631861"><ele>114.0</ele><time>2026-04-26T08:49:56Z</time></trkpt><trkpt lat="45.65285153812332" lon="10.896021262204414"><ele>114.0</ele><time>2026-04-26T08:49:57Z</time></trkpt><trkpt lat="45.652784082993236" lon="10.896035296856939"><ele>114.33333333333333</ele><time>2026-04-26T08:49:58Z</time></trkpt><trkpt lat="45.65267830749206" lon="10.896065497773108"><ele>114.66666666666666</ele><time>2026-04-26T08:50:00Z</time></trkpt><trkpt lat="45.65261551226172" lon="10.896146997025667"><ele>115.0</ele><time>2026-04-26T08:50:02Z</time></trkpt><trkpt lat="45.65260581656158" lon="10.896272311696421"><ele>115.33333333333333</ele><time>2026-04-26T08:50:04Z</time></trkpt><trkpt lat="45.65264061624274" lon="10.89636889233194"><ele>115.66666666666666</ele><time>2026-04-26T08:50:05Z</time></trkpt><trkpt lat="45.65267244631846" lon="10.896492580795298"><ele>116.0</ele><time>2026-04-26T08:50:06Z</time></trkpt><trkpt lat="45.65269824626986" lon="10.896632738965728"><ele>115.8</ele><time>2026-04-26T08:50:07Z</time></trkpt><trkpt lat="45.65272424785967" lon="10.89676827698202"><ele>115.6</ele><time>2026-04-26T08:50:08Z</time></trkpt><trkpt lat="45.65274432624143" lon="10.896887932347608"><ele>115.4</ele><time>2026-04-26T08:50:09Z</time></trkpt><trkpt lat="45.65277202082512" lon="10.89698848272423"><ele>115.2</ele><time>2026-04-26T08:50:10Z</time></trkpt><trkpt lat="45.652788577392705" lon="10.897127769754196"><ele>115.0</ele><time>2026-04-26T08:50:11Z</time></trkpt><trkpt lat="45.652807215349796" lon="10.897265254906616"><ele>115.0</ele><time>2026-04-26T08:50:12Z</time></trkpt><trkpt lat="45.652819063505966" lon="10.89740368290616"><ele>115.0</ele><time>2026-04-26T08:50:13Z</time></trkpt><trkpt lat="45.652828187092936" lon="10.89756577496036"><ele>115.0</ele><time>2026-04-26T08:50:14Z</time></trkpt><trkpt lat="45.65282768343573" lon="10.897732418751366"><ele>115.0</ele><time>2026-04-26T08:50:15Z</time></trkpt><trkpt lat="45.652818733625175" lon="10.897876016359325"><ele>115.0</ele><time>2026-04-26T08:50:16Z</time></trkpt><trkpt lat="45.652812099082816" lon="10.898001686488778"><ele>115.33333333333334</ele><time>2026-04-26T08:50:17Z</time></trkpt><trkpt lat="45.652816592152384" lon="10.898120730301965"><ele>115.66666666666667</ele><time>2026-04-26T08:50:18Z</time></trkpt><trkpt lat="45.65281726901946" lon="10.8982246863732"><ele>116.0</ele><time>2026-04-26T08:50:19Z</time></trkpt><trkpt lat="45.65281087564901" lon="10.898337491268425"><ele>116.33333333333334</ele><time>2026-04-26T08:50:20Z</time></trkpt><trkpt lat="45.65279960705973" lon="10.898461234973388"><ele>116.66666666666667</ele><time>2026-04-26T08:50:21Z</time></trkpt><trkpt lat="45.65278217568569" lon="10.898568490110607"><ele>117.0</ele><time>2026-04-26T08:50:22Z</time></trkpt><trkpt lat="45.65275968919317" lon="10.898712118801853"><ele>118.0</ele><time>2026-04-26T08:50:23Z</time></trkpt><trkpt lat="45.65273361868336" lon="10.89888454001687"><ele>119.0</ele><time>2026-04-26T08:50:24Z</time></trkpt><trkpt lat="45.6527056809231" lon="10.89907593848858"><ele>120.0</ele><time>2026-04-26T08:50:25Z</time></trkpt><trkpt lat="45.6526817423422" lon="10.899248281788143"><ele>121.0</ele><time>2026-04-26T08:50:26Z</time></trkpt><trkpt lat="45.65265432284785" lon="10.899472982849547"><ele>121.0</ele><time>2026-04-26T08:50:27Z</time></trkpt><trkpt lat="45.65261994949112" lon="10.899648070177857"><ele>121.0</ele><time>2026-04-26T08:50:28Z</time></trkpt><trkpt lat="45.65263264931628" lon="10.899795908902313"><ele>121.0</ele><time>2026-04-26T08:50:29Z</time></trkpt><trkpt lat="45.652662661272124" lon="10.899892621339673"><ele>121.0</ele><time>2026-04-26T08:50:30Z</time></trkpt><trkpt lat="45.652723340396356" lon="10.899980954080382"><ele>121.0</ele><time>2026-04-26T08:50:31Z</time></trkpt><trkpt lat="45.652820472981205" lon="10.900029250551496"><ele>121.00000000000001</ele><time>2026-04-26T08:50:32Z</time></trkpt><trkpt lat="45.65291201652822" lon="10.900081934996779"><ele>121.0</ele><time>2026-04-26T08:50:33Z</time></trkpt><trkpt lat="45.65299151619202" lon="10.900143737260164"><ele>121.0</ele><time>2026-04-26T08:50:34Z</time></trkpt><trkpt lat="45.65304318381876" lon="10.900215830753732"><ele>121.0</ele><time>2026-04-26T08:50:35Z</time></trkpt><trkpt lat="45.65310748443535" lon="10.90028040059027"><ele>121.00000000000001</ele><time>2026-04-26T08:50:37Z</time></trkpt><trkpt lat="45.65309085925039" lon="10.900378226769062"><ele>121.0</ele><time>2026-04-26T08:50:44Z</time></trkpt><trkpt lat="45.65300413873649" lon="10.900398778064002"><ele>123.75</ele><time>2026-04-26T08:50:46Z</time></trkpt><trkpt lat="45.6529105311631" lon="10.900298772468345"><ele>126.5</ele><time>2026-04-26T08:50:47Z</time></trkpt><trkpt lat="45.65282027009868" lon="10.900206131770325"><ele>129.25</ele><time>2026-04-26T08:50:48Z</time></trkpt><trkpt lat="45.65270940629302" lon="10.900091847001862"><ele>132.0</ele><time>2026-04-26T08:50:49Z</time></trkpt><trkpt lat="45.65258735234468" lon="10.89997902215153"><ele>132.0</ele><time>2026-04-26T08:50:50Z</time></trkpt><trkpt lat="45.65245444166464" lon="10.899867679037634"><ele>132.0</ele><time>2026-04-26T08:50:51Z</time></trkpt><trkpt lat="45.652311908593944" lon="10.899754581977383"><ele>132.0</ele><time>2026-04-26T08:50:52Z</time></trkpt><trkpt lat="45.652160969946884" lon="10.899632232898188"><ele>132.0</ele><time>2026-04-26T08:50:53Z</time></trkpt><trkpt lat="45.652006611299655" lon="10.899508637752342"><ele>132.0</ele><time>2026-04-26T08:50:54Z</time></trkpt><trkpt lat="45.65184785475253" lon="10.899376802730819"><ele>132.0</ele><time>2026-04-26T08:50:55Z</time></trkpt><trkpt lat="45.65168608079089" lon="10.899246090478313"><ele>130.66666666666666</ele><time>2026-04-26T08:50:56Z</time></trkpt><trkpt lat="45.65152036308843" lon="10.899113784209238"><ele>129.33333333333331</ele><time>2026-04-26T08:50:57Z</time></trkpt><trkpt lat="45.65135064532945" lon="10.89899050780773"><ele>128.0</ele><time>2026-04-26T08:50:58Z</time></trkpt><trkpt lat="45.651176042963485" lon="10.898876483746934"><ele>133.0</ele><time>2026-04-26T08:50:59Z</time></trkpt><trkpt lat="45.651000460710115" lon="10.8987722653476"><ele>138.0</ele><time>2026-04-26T08:51:00Z</time></trkpt><trkpt lat="45.6508252075982" lon="10.898671663044777"><ele>143.0</ele><time>2026-04-26T08:51:01Z</time></trkpt><trkpt lat="45.6506507039115" lon="10.898574434612115"><ele>143.0</ele><time>2026-04-26T08:51:02Z</time></trkpt><trkpt lat="45.65048035082389" lon="10.898475900214434"><ele>143.0</ele><time>2026-04-26T08:51:03Z</time></trkpt><trkpt lat="45.65031124388295" lon="10.898376128316867"><ele>143.0</ele><time>2026-04-26T08:51:04Z</time></trkpt><trkpt lat="45.65014211123318" lon="10.898277858249479"><ele>138.66666666666666</ele><time>2026-04-26T08:51:05Z</time></trkpt><trkpt lat="45.649971379010324" lon="10.898180840780944"><ele>134.33333333333334</ele><time>2026-04-26T08:51:06Z</time></trkpt><trkpt lat="45.649799125770436" lon="10.898082518120807"><ele>130.0</ele><time>2026-04-26T08:51:07Z</time></trkpt><trkpt lat="45.649625432096094" lon="10.89798612986907"><ele>134.0</ele><time>2026-04-26T08:51:08Z</time></trkpt><trkpt lat="45.64944983226287" lon="10.897888379390944"><ele>138.0</ele><time>2026-04-26T08:51:09Z</time></trkpt><trkpt lat="45.64926753781424" lon="10.89778669492269"><ele>142.0</ele><time>2026-04-26T08:51:10Z</time></trkpt><trkpt lat="45.649081847742366" lon="10.897678516079752"><ele>139.66666666666669</ele><time>2026-04-26T08:51:11Z</time></trkpt><trkpt lat="45.648895182535924" lon="10.897567346084884"><ele>137.33333333333334</ele><time>2026-04-26T08:51:12Z</time></trkpt><trkpt lat="45.64870925425661" lon="10.89745271528406"><ele>135.0</ele><time>2026-04-26T08:51:13Z</time></trkpt><trkpt lat="45.64852863997135" lon="10.897334223672667"><ele>135.0</ele><time>2026-04-26T08:51:14Z</time></trkpt><trkpt lat="45.64835057400371" lon="10.897209043730806"><ele>135.0</ele><time>2026-04-26T08:51:15Z</time></trkpt><trkpt lat="45.648175205251114" lon="10.897078296248047"><ele>135.0</ele><time>2026-04-26T08:51:16Z</time></trkpt><trkpt lat="45.64800332267222" lon="10.896942029603908"><ele>135.0</ele><time>2026-04-26T08:51:17Z</time></trkpt><trkpt lat="45.6478366566792" lon="10.89680543531539"><ele>135.0</ele><time>2026-04-26T08:51:18Z</time></trkpt><trkpt lat="45.64767872487561" lon="10.896671064556378"><ele>135.0</ele><time>2026-04-26T08:51:19Z</time></trkpt><trkpt lat="45.64752534561246" lon="10.896536697198998"><ele>134.33333333333334</ele><time>2026-04-26T08:51:20Z</time></trkpt><trkpt lat="45.6473730745324" lon="10.896398183773503"><ele>133.66666666666669</ele><time>2026-04-26T08:51:21Z</time></trkpt><trkpt lat="45.64722036326632" lon="10.896255854645672"><ele>133.0</ele><time>2026-04-26T08:51:22Z</time></trkpt><trkpt lat="45.646921438179895" lon="10.89596538032014"><ele>132.33333333333334</ele><time>2026-04-26T08:51:24Z</time></trkpt><trkpt lat="45.64677598551532" lon="10.895815921699375"><ele>131.66666666666666</ele><time>2026-04-26T08:51:25Z</time></trkpt><trkpt lat="45.6466360914344" lon="10.895663733308886"><ele>131.0</ele><time>2026-04-26T08:51:26Z</time></trkpt><trkpt lat="45.64650673663588" lon="10.895504348529577"><ele>131.0</ele><time>2026-04-26T08:51:27Z</time></trkpt><trkpt lat="45.64638172548963" lon="10.895331034395767"><ele>131.0</ele><time>2026-04-26T08:51:28Z</time></trkpt><trkpt lat="45.646259803979056" lon="10.895137990908447"><ele>131.0</ele><time>2026-04-26T08:51:29Z</time></trkpt><trkpt lat="45.64613157052014" lon="10.894952198754908"><ele>132.66666666666666</ele><time>2026-04-26T08:51:30Z</time></trkpt><trkpt lat="45.64602706088662" lon="10.89474264599866"><ele>134.33333333333334</ele><time>2026-04-26T08:51:31Z</time></trkpt><trkpt lat="45.645925431352346" lon="10.89455440067257"><ele>136.0</ele><time>2026-04-26T08:51:32Z</time></trkpt><trkpt lat="45.64585530941295" lon="10.894433110474651"><ele>136.0</ele><time>2026-04-26T08:51:34Z</time></trkpt><trkpt lat="45.64581793725067" lon="10.894353327951048"><ele>136.0</ele><time>2026-04-26T08:51:35Z</time></trkpt><trkpt lat="45.64577484890236" lon="10.894263516595405"><ele>136.0</ele><time>2026-04-26T08:51:36Z</time></trkpt><trkpt lat="45.645717707188126" lon="10.894141470935443"><ele>136.0</ele><time>2026-04-26T08:51:37Z</time></trkpt><trkpt lat="45.64565122257576" lon="10.893997874248027"><ele>136.0</ele><time>2026-04-26T08:51:38Z</time></trkpt><trkpt lat="45.64557888149017" lon="10.893834349313853"><ele>133.75</ele><time>2026-04-26T08:51:39Z</time></trkpt><trkpt lat="45.64551240378373" lon="10.893668018298523"><ele>131.5</ele><time>2026-04-26T08:51:40Z</time></trkpt><trkpt lat="45.64545244248344" lon="10.893499648268385"><ele>129.25</ele><time>2026-04-26T08:51:41Z</time></trkpt><trkpt lat="45.64538786157686" lon="10.893325187439858"><ele>127.0</ele><time>2026-04-26T08:51:42Z</time></trkpt><trkpt lat="45.64532360901579" lon="10.893140583493858"><ele>128.66666666666669</ele><time>2026-04-26T08:51:43Z</time></trkpt><trkpt lat="45.64525231578556" lon="10.892947961428561"><ele>130.33333333333334</ele><time>2026-04-26T08:51:44Z</time></trkpt><trkpt lat="45.64517950960922" lon="10.892758462827507"><ele>132.0</ele><time>2026-04-26T08:51:45Z</time></trkpt><trkpt lat="45.64511078939117" lon="10.892574196979629"><ele>132.0</ele><time>2026-04-26T08:51:46Z</time></trkpt><trkpt lat="45.645043153679886" lon="10.89240384199887"><ele>132.0</ele><time>2026-04-26T08:51:47Z</time></trkpt><trkpt lat="45.64498718444231" lon="10.892253641014378"><ele>132.0</ele><time>2026-04-26T08:51:48Z</time></trkpt><trkpt lat="45.64491997813736" lon="10.89209011304497"><ele>132.0</ele><time>2026-04-26T08:51:49Z</time></trkpt><trkpt lat="45.64483204944135" lon="10.891880075450796"><ele>130.66666666666666</ele><time>2026-04-26T08:51:50Z</time></trkpt><trkpt lat="45.64473731243983" lon="10.891670522606304"><ele>129.33333333333331</ele><time>2026-04-26T08:51:51Z</time></trkpt><trkpt lat="45.64461142235762" lon="10.89147255443765"><ele>128.0</ele><time>2026-04-26T08:51:52Z</time></trkpt><trkpt lat="45.64446454931728" lon="10.891278861995733"><ele>129.0</ele><time>2026-04-26T08:51:53Z</time></trkpt><trkpt lat="45.64431025091188" lon="10.89109020602805"><ele>130.0</ele><time>2026-04-26T08:51:54Z</time></trkpt><trkpt lat="45.644155012147024" lon="10.890900489646814"><ele>131.0</ele><time>2026-04-26T08:51:55Z</time></trkpt><trkpt lat="45.6440060928153" lon="10.890721094207233"><ele>131.0</ele><time>2026-04-26T08:51:56Z</time></trkpt><trkpt lat="45.643859712753006" lon="10.890543169679848"><ele>131.0</ele><time>2026-04-26T08:51:57Z</time></trkpt><trkpt lat="45.64370300501053" lon="10.890381015984083"><ele>131.0</ele><time>2026-04-26T08:51:58Z</time></trkpt><trkpt lat="45.64353243219086" lon="10.890251327943052"><ele>132.0</ele><time>2026-04-26T08:51:59Z</time></trkpt><trkpt lat="45.64335944855547" lon="10.890143980389393"><ele>133.0</ele><time>2026-04-26T08:52:00Z</time></trkpt><trkpt lat="45.643214351380664" lon="10.890073713461698"><ele>134.0</ele><time>2026-04-26T08:52:01Z</time></trkpt><trkpt lat="45.64312403459895" lon="10.890034851384481"><ele>135.0</ele><time>2026-04-26T08:52:02Z</time></trkpt><trkpt lat="45.64304208531904" lon="10.889978643479557"><ele>135.0</ele><time>2026-04-26T08:52:04Z</time></trkpt><trkpt lat="45.6430755899109" lon="10.889784155487009"><ele>135.0</ele><time>2026-04-26T08:52:19.001Z</time></trkpt><trkpt lat="45.64309571815555" lon="10.889630365492952"><ele>135.0</ele><time>2026-04-26T08:52:21.001Z</time></trkpt><trkpt lat="45.64310730527378" lon="10.889498962671198"><ele>135.0</ele><time>2026-04-26T08:52:23.001Z</time></trkpt><trkpt lat="45.64311851369047" lon="10.889385668865868"><ele>135.0</ele><time>2026-04-26T08:52:25.001Z</time></trkpt><trkpt lat="45.64313448473665" lon="10.889254430041252"><ele>134.25</ele><time>2026-04-26T08:52:27.001Z</time></trkpt><trkpt lat="45.643156153405194" lon="10.889154256143906"><ele>133.5</ele><time>2026-04-26T08:52:29.001Z</time></trkpt><trkpt lat="45.643153180399935" lon="10.889050299307277"><ele>132.75</ele><time>2026-04-26T08:52:36.001Z</time></trkpt><trkpt lat="45.642899657613206" lon="10.888877683182919"><ele>132.0</ele><time>2026-04-26T08:52:38.001Z</time></trkpt><trkpt lat="45.6428458641487" lon="10.888819016979676"><ele>132.16666666666666</ele><time>2026-04-26T08:52:39.001Z</time></trkpt><trkpt lat="45.642746768919714" lon="10.888711423972714"><ele>132.33333333333334</ele><time>2026-04-26T08:52:41.001Z</time></trkpt><trkpt lat="45.64269502687535" lon="10.888649055914826"><ele>132.5</ele><time>2026-04-26T08:52:42.001Z</time></trkpt><trkpt lat="45.64264025215467" lon="10.888589721408316"><ele>132.66666666666669</ele><time>2026-04-26T08:52:43.001Z</time></trkpt><trkpt lat="45.64258385653288" lon="10.888527621889152"><ele>132.83333333333334</ele><time>2026-04-26T08:52:44.001Z</time></trkpt><trkpt lat="45.642523686767746" lon="10.888462162586702"><ele>133.0</ele><time>2026-04-26T08:52:45.001Z</time></trkpt><trkpt lat="45.64245190379069" lon="10.888383051969432"><ele>132.33333333333334</ele><time>2026-04-26T08:52:46.001Z</time></trkpt><trkpt lat="45.64238640439645" lon="10.888312241214855"><ele>131.66666666666669</ele><time>2026-04-26T08:52:47.001Z</time></trkpt><trkpt lat="45.64232755795244" lon="10.888244187431992"><ele>131.0</ele><time>2026-04-26T08:52:48.001Z</time></trkpt><trkpt lat="45.64227058440662" lon="10.88817560885134"><ele>130.33333333333334</ele><time>2026-04-26T08:52:49.001Z</time></trkpt><trkpt lat="45.64221266969914" lon="10.888113609724037"><ele>129.66666666666666</ele><time>2026-04-26T08:52:50.001Z</time></trkpt><trkpt lat="45.64215843316463" lon="10.888061947768264"><ele>129.0</ele><time>2026-04-26T08:52:51.001Z</time></trkpt><trkpt lat="45.64205784862921" lon="10.887943339214042"><ele>129.0</ele><time>2026-04-26T08:52:53.001Z</time></trkpt><trkpt lat="45.64199960299976" lon="10.887879288070062"><ele>129.0</ele><time>2026-04-26T08:52:54.001Z</time></trkpt><trkpt lat="45.64194437899409" lon="10.887820584848807"><ele>129.0</ele><time>2026-04-26T08:52:55.001Z</time></trkpt><trkpt lat="45.64189279914011" lon="10.887765225345069"><ele>129.0</ele><time>2026-04-26T08:52:56.001Z</time></trkpt><trkpt lat="45.641788878087766" lon="10.887658365154557"><ele>129.0</ele><time>2026-04-26T08:52:58.001Z</time></trkpt><trkpt lat="45.64173607096336" lon="10.887600917593536"><ele>129.0</ele><time>2026-04-26T08:52:59.001Z</time></trkpt><trkpt lat="45.64168208259048" lon="10.887542580565324"><ele>128.5</ele><time>2026-04-26T08:53:00.001Z</time></trkpt><trkpt lat="45.64162489834162" lon="10.887482122888471"><ele>128.0</ele><time>2026-04-26T08:53:01.001Z</time></trkpt><trkpt lat="45.641560526523925" lon="10.887417919567369"><ele>127.5</ele><time>2026-04-26T08:53:02.001Z</time></trkpt><trkpt lat="45.64150079709166" lon="10.887350532192917"><ele>127.0</ele><time>2026-04-26T08:53:03.001Z</time></trkpt><trkpt lat="45.64143607975719" lon="10.887274087727011"><ele>126.5</ele><time>2026-04-26T08:53:04.001Z</time></trkpt><trkpt lat="45.6413519273502" lon="10.887188440978806"><ele>126.0</ele><time>2026-04-26T08:53:05.001Z</time></trkpt><trkpt lat="45.64128012615009" lon="10.887112179364534"><ele>126.0</ele><time>2026-04-26T08:53:06.001Z</time></trkpt><trkpt lat="45.64121498887743" lon="10.887040968968861"><ele>126.0</ele><time>2026-04-26T08:53:07.001Z</time></trkpt><trkpt lat="45.641152752633765" lon="10.886975027365219"><ele>126.0</ele><time>2026-04-26T08:53:08.001Z</time></trkpt><trkpt lat="45.64108316326058" lon="10.886900985571366"><ele>126.0</ele><time>2026-04-26T08:53:09.001Z</time></trkpt><trkpt lat="45.6410177401389" lon="10.886821889895357"><ele>126.0</ele><time>2026-04-26T08:53:10.001Z</time></trkpt><trkpt lat="45.640952325028834" lon="10.886732945178201"><ele>126.0</ele><time>2026-04-26T08:53:11.001Z</time></trkpt><trkpt lat="45.64086783444891" lon="10.886639204090008"><ele>125.25</ele><time>2026-04-26T08:53:12.001Z</time></trkpt><trkpt lat="45.6407755479149" lon="10.886543414159238"><ele>124.5</ele><time>2026-04-26T08:53:13.001Z</time></trkpt><trkpt lat="45.640676583104685" lon="10.886440428099961"><ele>123.75</ele><time>2026-04-26T08:53:14.001Z</time></trkpt><trkpt lat="45.64058998099393" lon="10.886349852732481"><ele>123.0</ele><time>2026-04-26T08:53:15.001Z</time></trkpt><trkpt lat="45.640502187072094" lon="10.886261017548298"><ele>123.0</ele><time>2026-04-26T08:53:16.001Z</time></trkpt><trkpt lat="45.64042323071012" lon="10.886186757720806"><ele>123.00000000000001</ele><time>2026-04-26T08:53:17.001Z</time></trkpt><trkpt lat="45.640350421361575" lon="10.886114014743681"><ele>123.00000000000001</ele><time>2026-04-26T08:53:18.001Z</time></trkpt><trkpt lat="45.64027651275564" lon="10.886049275072804"><ele>123.0</ele><time>2026-04-26T08:53:19.001Z</time></trkpt><trkpt lat="45.64019410457881" lon="10.88597433092533"><ele>123.0</ele><time>2026-04-26T08:53:20.001Z</time></trkpt><trkpt lat="45.640121796011385" lon="10.88588604091189"><ele>123.4</ele><time>2026-04-26T08:53:21.001Z</time></trkpt><trkpt lat="45.64004097037853" lon="10.885798962079246"><ele>123.80000000000001</ele><time>2026-04-26T08:53:22.001Z</time></trkpt><trkpt lat="45.639946550250585" lon="10.885715562758248"><ele>124.2</ele><time>2026-04-26T08:53:23.001Z</time></trkpt><trkpt lat="45.63985863677895" lon="10.885639223653394"><ele>124.6</ele><time>2026-04-26T08:53:24.001Z</time></trkpt><trkpt lat="45.63977352046969" lon="10.885570168746902"><ele>125.0</ele><time>2026-04-26T08:53:25.001Z</time></trkpt><trkpt lat="45.63969187582322" lon="10.885501939536837"><ele>125.0</ele><time>2026-04-26T08:53:26.001Z</time></trkpt><trkpt lat="45.63961929523357" lon="10.885437367410775"><ele>125.0</ele><time>2026-04-26T08:53:27.001Z</time></trkpt><trkpt lat="45.63954920991996" lon="10.8853648650435"><ele>125.0</ele><time>2026-04-26T08:53:28.001Z</time></trkpt><trkpt lat="45.63947332685864" lon="10.88529021433384"><ele>125.0</ele><time>2026-04-26T08:53:29.001Z</time></trkpt><trkpt lat="45.63939014909131" lon="10.885210806215564"><ele>125.0</ele><time>2026-04-26T08:53:30.001Z</time></trkpt><trkpt lat="45.639309923561676" lon="10.885135980315162"><ele>124.83333333333333</ele><time>2026-04-26T08:53:31.001Z</time></trkpt><trkpt lat="45.63922462868728" lon="10.885048073650188"><ele>124.66666666666666</ele><time>2026-04-26T08:53:32.001Z</time></trkpt><trkpt lat="45.63914948018631" lon="10.884970295815815"><ele>124.5</ele><time>2026-04-26T08:53:33.001Z</time></trkpt><trkpt lat="45.63908173819453" lon="10.884910236723316"><ele>124.33333333333334</ele><time>2026-04-26T08:53:34.001Z</time></trkpt><trkpt lat="45.639021097930446" lon="10.88486140462363"><ele>124.16666666666667</ele><time>2026-04-26T08:53:35.001Z</time></trkpt><trkpt lat="45.6389448465939" lon="10.884801992894573"><ele>124.0</ele><time>2026-04-26T08:53:36.001Z</time></trkpt><trkpt lat="45.638885591660866" lon="10.884739155259652"><ele>124.0</ele><time>2026-04-26T08:53:37.001Z</time></trkpt><trkpt lat="45.63882467942886" lon="10.884668295612117"><ele>124.0</ele><time>2026-04-26T08:53:38.001Z</time></trkpt><trkpt lat="45.63874836356708" lon="10.884601825083827"><ele>124.0</ele><time>2026-04-26T08:53:39.001Z</time></trkpt><trkpt lat="45.638669207774164" lon="10.88452497177944"><ele>124.0</ele><time>2026-04-26T08:53:40.001Z</time></trkpt><trkpt lat="45.638590275865226" lon="10.884444361456248"><ele>124.0</ele><time>2026-04-26T08:53:41.001Z</time></trkpt><trkpt lat="45.63850687943994" lon="10.884363649855915"><ele>123.80000000000001</ele><time>2026-04-26T08:53:42.001Z</time></trkpt><trkpt lat="45.638421999402134" lon="10.884289552956842"><ele>123.60000000000001</ele><time>2026-04-26T08:53:43.001Z</time></trkpt><trkpt lat="45.63833963582429" lon="10.88420400839576"><ele>123.4</ele><time>2026-04-26T08:53:44.001Z</time></trkpt><trkpt lat="45.6382557310184" lon="10.884122373945011"><ele>123.2</ele><time>2026-04-26T08:53:45.001Z</time></trkpt><trkpt lat="45.63816892316482" lon="10.884039853720672"><ele>123.0</ele><time>2026-04-26T08:53:46.001Z</time></trkpt><trkpt lat="45.63806767460675" lon="10.883940826460966"><ele>123.0</ele><time>2026-04-26T08:53:47.001Z</time></trkpt><trkpt lat="45.63796427251494" lon="10.883843754862802"><ele>123.0</ele><time>2026-04-26T08:53:48.001Z</time></trkpt><trkpt lat="45.63785707519964" lon="10.88373987414835"><ele>123.0</ele><time>2026-04-26T08:53:49.001Z</time></trkpt><trkpt lat="45.63775721090142" lon="10.883645233658696"><ele>123.0</ele><time>2026-04-26T08:53:50.001Z</time></trkpt><trkpt lat="45.637655102630674" lon="10.88355158271731"><ele>123.0</ele><time>2026-04-26T08:53:51.001Z</time></trkpt><trkpt lat="45.63755791639074" lon="10.883456888308283"><ele>123.0</ele><time>2026-04-26T08:53:52.001Z</time></trkpt><trkpt lat="45.63745689941595" lon="10.883357609081324"><ele>123.0</ele><time>2026-04-26T08:53:53.001Z</time></trkpt><trkpt lat="45.637349367994744" lon="10.883257561860377"><ele>123.0</ele><time>2026-04-26T08:53:54.001Z</time></trkpt><trkpt lat="45.63723623303695" lon="10.883144473214927"><ele>123.0</ele><time>2026-04-26T08:53:55.001Z</time></trkpt><trkpt lat="45.637128427404335" lon="10.883046052426566"><ele>123.0</ele><time>2026-04-26T08:53:56.001Z</time></trkpt><trkpt lat="45.637030702127326" lon="10.882950620559882"><ele>123.0</ele><time>2026-04-26T08:53:57.001Z</time></trkpt><trkpt lat="45.636935063224975" lon="10.882857463047173"><ele>123.0</ele><time>2026-04-26T08:53:58.001Z</time></trkpt><trkpt lat="45.63683460102129" lon="10.882761150508633"><ele>123.25</ele><time>2026-04-26T08:53:59.001Z</time></trkpt><trkpt lat="45.63673169980761" lon="10.882662274809983"><ele>123.5</ele><time>2026-04-26T08:54:00.001Z</time></trkpt><trkpt lat="45.636629533105065" lon="10.882566398305466"><ele>123.75</ele><time>2026-04-26T08:54:01.001Z</time></trkpt><trkpt lat="45.63652405919459" lon="10.88246690012678"><ele>124.0</ele><time>2026-04-26T08:54:02.001Z</time></trkpt><trkpt lat="45.636421414963756" lon="10.88236893793125"><ele>124.0</ele><time>2026-04-26T08:54:03.001Z</time></trkpt><trkpt lat="45.636323652871475" lon="10.882274464899771"><ele>124.0</ele><time>2026-04-26T08:54:04.001Z</time></trkpt><trkpt lat="45.636234175588434" lon="10.882186355187937"><ele>124.0</ele><time>2026-04-26T08:54:05.001Z</time></trkpt><trkpt lat="45.636151007805466" lon="10.882105783410582"><ele>124.0</ele><time>2026-04-26T08:54:06.001Z</time></trkpt><trkpt lat="45.63606746831852" lon="10.882025689379608"><ele>124.0</ele><time>2026-04-26T08:54:07.001Z</time></trkpt><trkpt lat="45.63599147205214" lon="10.88195484165565"><ele>124.00000000000001</ele><time>2026-04-26T08:54:08.001Z</time></trkpt><trkpt lat="45.63592291919652" lon="10.881889934939064"><ele>124.0</ele><time>2026-04-26T08:54:09.001Z</time></trkpt><trkpt lat="45.63586554526769" lon="10.881837103511824"><ele>124.0</ele><time>2026-04-26T08:54:10.001Z</time></trkpt><trkpt lat="45.635807986607794" lon="10.88178618719398"><ele>124.0</ele><time>2026-04-26T08:54:11.001Z</time></trkpt><trkpt lat="45.63574000429026" lon="10.881712195146262"><ele>124.00000000000001</ele><time>2026-04-26T08:54:13.001Z</time></trkpt><trkpt lat="45.635685800392785" lon="10.881799366332242"><ele>124.0</ele><time>2026-04-26T08:54:16.001Z</time></trkpt><trkpt lat="45.63567936799504" lon="10.88199622796713"><ele>124.80000000000001</ele><time>2026-04-26T08:54:18Z</time></trkpt><trkpt lat="45.6356712633887" lon="10.882128081376104"><ele>125.60000000000001</ele><time>2026-04-26T08:54:19Z</time></trkpt><trkpt lat="45.635645152459404" lon="10.882276124533325"><ele>126.4</ele><time>2026-04-26T08:54:20Z</time></trkpt><trkpt lat="45.63561796098891" lon="10.88237238518292"><ele>127.2</ele><time>2026-04-26T08:54:21Z</time></trkpt><trkpt lat="45.635581940071475" lon="10.882474731626466"><ele>128.0</ele><time>2026-04-26T08:54:23Z</time></trkpt><trkpt lat="45.635470898987" lon="10.882460311802149"><ele>127.99999999999999</ele><time>2026-04-26T08:54:27Z</time></trkpt><trkpt lat="45.63542555370802" lon="10.882396586334853"><ele>128.0</ele><time>2026-04-26T08:54:28Z</time></trkpt><trkpt lat="45.63539704872567" lon="10.88227731394725"><ele>128.0</ele><time>2026-04-26T08:54:29Z</time></trkpt><trkpt lat="45.63535043579445" lon="10.882155030971056"><ele>128.0</ele><time>2026-04-26T08:54:30Z</time></trkpt><trkpt lat="45.63530629298372" lon="10.882018949268707"><ele>127.99999999999999</ele><time>2026-04-26T08:54:31Z</time></trkpt><trkpt lat="45.63526009184651" lon="10.881908454789208"><ele>128.0</ele><time>2026-04-26T08:54:32Z</time></trkpt><trkpt lat="45.6352035593821" lon="10.88178359117705"><ele>128.5</ele><time>2026-04-26T08:54:33Z</time></trkpt><trkpt lat="45.63515352117246" lon="10.881640577476128"><ele>129.0</ele><time>2026-04-26T08:54:34Z</time></trkpt><trkpt lat="45.63509590912635" lon="10.881493268913486"><ele>129.5</ele><time>2026-04-26T08:54:35Z</time></trkpt><trkpt lat="45.635034667833914" lon="10.881333589376196"><ele>130.0</ele><time>2026-04-26T08:54:36Z</time></trkpt><trkpt lat="45.634962968018606" lon="10.88119898621616"><ele>130.0</ele><time>2026-04-26T08:54:37Z</time></trkpt><trkpt lat="45.634847612713365" lon="10.881017435649095"><ele>130.0</ele><time>2026-04-26T08:54:38Z</time></trkpt><trkpt lat="45.634696734557686" lon="10.880828742391452"><ele>130.0</ele><time>2026-04-26T08:54:39Z</time></trkpt><trkpt lat="45.6345216411966" lon="10.880649916405256"><ele>129.33333333333334</ele><time>2026-04-26T08:54:40Z</time></trkpt><trkpt lat="45.63432758255974" lon="10.880498534333256"><ele>128.66666666666666</ele><time>2026-04-26T08:54:41Z</time></trkpt><trkpt lat="45.63419897105151" lon="10.880352361539305"><ele>128.0</ele><time>2026-04-26T08:54:42Z</time></trkpt><trkpt lat="45.6340136284288" lon="10.88022793243326"><ele>127.0</ele><time>2026-04-26T08:54:43Z</time></trkpt><trkpt lat="45.63382754439299" lon="10.880098565530446"><ele>126.0</ele><time>2026-04-26T08:54:44Z</time></trkpt><trkpt lat="45.63365719228884" lon="10.880039570890913"><ele>125.0</ele><time>2026-04-26T08:54:45Z</time></trkpt><trkpt lat="45.633485347069985" lon="10.879981396890917"><ele>125.0</ele><time>2026-04-26T08:54:46Z</time></trkpt><trkpt lat="45.63331717772544" lon="10.879941473531687"><ele>125.0</ele><time>2026-04-26T08:54:47Z</time></trkpt><trkpt lat="45.633159754031475" lon="10.879927099857014"><ele>125.0</ele><time>2026-04-26T08:54:48Z</time></trkpt><trkpt lat="45.63300945112128" lon="10.879899074875873"><ele>125.0</ele><time>2026-04-26T08:54:49Z</time></trkpt><trkpt lat="45.632845547965914" lon="10.879872887328686"><ele>125.0</ele><time>2026-04-26T08:54:50Z</time></trkpt><trkpt lat="45.63268165604443" lon="10.87984851744161"><ele>125.0</ele><time>2026-04-26T08:54:51Z</time></trkpt><trkpt lat="45.63251546112052" lon="10.87980437951654"><ele>126.33333333333333</ele><time>2026-04-26T08:54:52Z</time></trkpt><trkpt lat="45.632347431063096" lon="10.879748191452684"><ele>127.66666666666666</ele><time>2026-04-26T08:54:53Z</time></trkpt><trkpt lat="45.63217226668257" lon="10.879676988064801"><ele>129.0</ele><time>2026-04-26T08:54:54Z</time></trkpt><trkpt lat="45.632008187044626" lon="10.879592585008533"><ele>137.0</ele><time>2026-04-26T08:54:55Z</time></trkpt><trkpt lat="45.63185830312177" lon="10.879511689519067"><ele>145.0</ele><time>2026-04-26T08:54:56Z</time></trkpt><trkpt lat="45.631715118476116" lon="10.879424901195947"><ele>153.0</ele><time>2026-04-26T08:54:57Z</time></trkpt><trkpt lat="45.6315860405153" lon="10.87933820906001"><ele>147.20000000000002</ele><time>2026-04-26T08:54:58Z</time></trkpt><trkpt lat="45.63146612243811" lon="10.879252546274403"><ele>141.4</ele><time>2026-04-26T08:54:59Z</time></trkpt><trkpt lat="45.631370726192024" lon="10.879176852262393"><ele>135.60000000000002</ele><time>2026-04-26T08:54:59.999Z</time></trkpt><trkpt lat="45.63130891457069" lon="10.879110873024452"><ele>129.8</ele><time>2026-04-26T08:55:00.999Z</time></trkpt><trkpt lat="45.63123026723683" lon="10.879046188527486"><ele>124.0</ele><time>2026-04-26T08:55:02.999Z</time></trkpt><trkpt lat="45.631176525389954" lon="10.878998080238276"><ele>124.0</ele><time>2026-04-26T08:55:04.999Z</time></trkpt><trkpt lat="45.631220093623085" lon="10.87892505088226"><ele>124.0</ele><time>2026-04-26T08:55:08.999Z</time></trkpt><trkpt lat="45.631294188037685" lon="10.878959518035911"><ele>124.0</ele><time>2026-04-26T08:55:12.999Z</time></trkpt><trkpt lat="45.631384884307984" lon="10.87903649929955"><ele>124.0</ele><time>2026-04-26T08:55:14.999Z</time></trkpt><trkpt lat="45.631476255510584" lon="10.879103136560728"><ele>124.0</ele><time>2026-04-26T08:55:16.999Z</time></trkpt><trkpt lat="45.631572220518756" lon="10.879142568812613"><ele>124.0</ele><time>2026-04-26T08:55:18.999Z</time></trkpt><trkpt lat="45.63163570048335" lon="10.879175879034138"><ele>124.0</ele><time>2026-04-26T08:55:19.999Z</time></trkpt><trkpt lat="45.63174190971021" lon="10.87922948303648"><ele>124.0</ele><time>2026-04-26T08:55:21.999Z</time></trkpt><trkpt lat="45.6318306692482" lon="10.879290795451885"><ele>124.0</ele><time>2026-04-26T08:55:23.999Z</time></trkpt><trkpt lat="45.6319318968529" lon="10.87933235181629"><ele>124.0</ele><time>2026-04-26T08:55:25.999Z</time></trkpt><trkpt lat="45.63199554647259" lon="10.879382651171326"><ele>124.83333333333334</ele><time>2026-04-26T08:55:27.999Z</time></trkpt><trkpt lat="45.63206159122272" lon="10.87944322147618"><ele>125.66666666666667</ele><time>2026-04-26T08:55:29.999Z</time></trkpt><trkpt lat="45.632125232509125" lon="10.879508284374651"><ele>126.5</ele><time>2026-04-26T08:55:31.999Z</time></trkpt><trkpt lat="45.63218874726376" lon="10.87954629186497"><ele>127.33333333333334</ele><time>2026-04-26T08:55:33.999Z</time></trkpt><trkpt lat="45.63224873943469" lon="10.87951676065148"><ele>128.16666666666666</ele><time>2026-04-26T08:55:37.999Z</time></trkpt><trkpt lat="45.6321562703503" lon="10.879450270684991"><ele>129.0</ele><time>2026-04-26T08:55:40.999Z</time></trkpt><trkpt lat="45.63216259234744" lon="10.879333582866687"><ele>125.5</ele><time>2026-04-26T08:55:43.999Z</time></trkpt><trkpt lat="45.63217784994013" lon="10.879241645282118"><ele>122.0</ele><time>2026-04-26T08:55:46.999Z</time></trkpt><trkpt lat="45.63219616995181" lon="10.879145669735632"><ele>118.5</ele><time>2026-04-26T08:55:50.057Z</time></trkpt><trkpt lat="45.63233010598941" lon="10.878742812437807"><ele>115.0</ele><time>2026-04-26T08:56:09Z</time></trkpt><trkpt lat="45.63235772698838" lon="10.87860583872603"><ele>115.00000000000001</ele><time>2026-04-26T08:56:12Z</time></trkpt><trkpt lat="45.63238217912644" lon="10.878489763888192"><ele>115.0</ele><time>2026-04-26T08:56:14Z</time></trkpt><trkpt lat="45.63241025041245" lon="10.8783773549086"><ele>115.0</ele><time>2026-04-26T08:56:16Z</time></trkpt><trkpt lat="45.632444182265445" lon="10.878256089989799"><ele>115.0</ele><time>2026-04-26T08:56:18Z</time></trkpt><trkpt lat="45.63247085917616" lon="10.878169669047049"><ele>115.00000000000001</ele><time>2026-04-26T08:56:19Z</time></trkpt><trkpt lat="45.63249259431885" lon="10.878052459327286"><ele>115.0</ele><time>2026-04-26T08:56:21Z</time></trkpt><trkpt lat="45.63252588393569" lon="10.877930508855945"><ele>114.00000000000001</ele><time>2026-04-26T08:56:23Z</time></trkpt><trkpt lat="45.63255082248337" lon="10.877803718778273"><ele>113.0</ele><time>2026-04-26T08:56:25Z</time></trkpt><trkpt lat="45.63253717104648" lon="10.877713130856211"><ele>112.0</ele><time>2026-04-26T08:56:27Z</time></trkpt><trkpt lat="45.6324325082391" lon="10.877668522855368"><ele>111.0</ele><time>2026-04-26T08:56:29Z</time></trkpt><trkpt lat="45.63235977385394" lon="10.877640076695213"><ele>110.00000000000001</ele><time>2026-04-26T08:56:30Z</time></trkpt><trkpt lat="45.63229435692859" lon="10.877616569296793"><ele>109.0</ele><time>2026-04-26T08:56:31Z</time></trkpt><trkpt lat="45.63216152255705" lon="10.877592167715134"><ele>109.0</ele><time>2026-04-26T08:56:33Z</time></trkpt><trkpt lat="45.63208767912464" lon="10.87758718669045"><ele>109.0</ele><time>2026-04-26T08:56:34Z</time></trkpt><trkpt lat="45.632015151876395" lon="10.8775747996446"><ele>109.0</ele><time>2026-04-26T08:56:35Z</time></trkpt><trkpt lat="45.631943939733716" lon="10.8775648963679"><ele>109.0</ele><time>2026-04-26T08:56:36Z</time></trkpt><trkpt lat="45.63186827959227" lon="10.877558773323031"><ele>109.0</ele><time>2026-04-26T08:56:37Z</time></trkpt><trkpt lat="45.631793064812044" lon="10.877557335988836"><ele>109.0</ele><time>2026-04-26T08:56:38Z</time></trkpt><trkpt lat="45.631726323770465" lon="10.87753731624554"><ele>109.0</ele><time>2026-04-26T08:56:39Z</time></trkpt><trkpt lat="45.631618043741426" lon="10.877527002883216"><ele>109.0</ele><time>2026-04-26T08:56:40Z</time></trkpt><trkpt lat="45.6315168367306" lon="10.877513070151599"><ele>109.0</ele><time>2026-04-26T08:56:41Z</time></trkpt><trkpt lat="45.631426070148656" lon="10.877503195774496"><ele>109.0</ele><time>2026-04-26T08:56:42Z</time></trkpt><trkpt lat="45.63132030009701" lon="10.877497782859022"><ele>109.0</ele><time>2026-04-26T08:56:43Z</time></trkpt><trkpt lat="45.63121382870953" lon="10.877490120066184"><ele>109.0</ele><time>2026-04-26T08:56:44Z</time></trkpt><trkpt lat="45.63111791135162" lon="10.877482889461524"><ele>108.83333333333334</ele><time>2026-04-26T08:56:45Z</time></trkpt><trkpt lat="45.63102581493426" lon="10.87746914795908"><ele>108.66666666666667</ele><time>2026-04-26T08:56:46Z</time></trkpt><trkpt lat="45.6309323894212" lon="10.87745510603108"><ele>108.5</ele><time>2026-04-26T08:56:47Z</time></trkpt><trkpt lat="45.630846028589836" lon="10.87744235506271"><ele>108.33333333333334</ele><time>2026-04-26T08:56:48Z</time></trkpt><trkpt lat="45.630775061972116" lon="10.877429751192537"><ele>108.16666666666667</ele><time>2026-04-26T08:56:49Z</time></trkpt><trkpt lat="45.63070608636384" lon="10.877417425035459"><ele>108.0</ele><time>2026-04-26T08:56:50Z</time></trkpt><trkpt lat="45.630635304502626" lon="10.877392885810094"><ele>108.0</ele><time>2026-04-26T08:56:51Z</time></trkpt><trkpt lat="45.63055746532284" lon="10.877372807581413"><ele>108.0</ele><time>2026-04-26T08:56:52Z</time></trkpt><trkpt lat="45.63048298990444" lon="10.877360360992068"><ele>108.0</ele><time>2026-04-26T08:56:53Z</time></trkpt><trkpt lat="45.63041127222598" lon="10.877343831710942"><ele>108.0</ele><time>2026-04-26T08:56:54Z</time></trkpt><trkpt lat="45.63034017832089" lon="10.877320163167221"><ele>108.0</ele><time>2026-04-26T08:56:55Z</time></trkpt><trkpt lat="45.63026571333599" lon="10.877292276282988"><ele>108.0</ele><time>2026-04-26T08:56:56Z</time></trkpt><trkpt lat="45.6302003466625" lon="10.877264941271545"><ele>108.0</ele><time>2026-04-26T08:56:57Z</time></trkpt><trkpt lat="45.630110317996696" lon="10.877216046534945"><ele>109.66666666666667</ele><time>2026-04-26T08:56:59Z</time></trkpt><trkpt lat="45.63002515936568" lon="10.877243955685747"><ele>111.33333333333334</ele><time>2026-04-26T08:57:02Z</time></trkpt><trkpt lat="45.63001222523863" lon="10.877343804675846"><ele>113.0</ele><time>2026-04-26T08:57:04Z</time></trkpt><trkpt lat="45.63006122862548" lon="10.877439748306914"><ele>114.66666666666667</ele><time>2026-04-26T08:57:06Z</time></trkpt><trkpt lat="45.63015914425885" lon="10.877505810299912"><ele>116.33333333333334</ele><time>2026-04-26T08:57:08Z</time></trkpt><trkpt lat="45.630221197012716" lon="10.877571604017012"><ele>118.0</ele><time>2026-04-26T08:57:10Z</time></trkpt><trkpt lat="45.63028349419718" lon="10.877606108180991"><ele>118.0</ele><time>2026-04-26T08:57:14Z</time></trkpt><trkpt lat="45.63038695472126" lon="10.87765651703218"><ele>118.00000000000001</ele><time>2026-04-26T08:57:28Z</time></trkpt><trkpt lat="45.630461846688206" lon="10.877691635266636"><ele>118.00000000000001</ele><time>2026-04-26T08:57:30Z</time></trkpt><trkpt lat="45.630336806524824" lon="10.877693140783823"><ele>118.0</ele><time>2026-04-26T08:57:42Z</time></trkpt><trkpt lat="45.630219567417626" lon="10.877634839366152"><ele>118.0</ele><time>2026-04-26T08:57:43Z</time></trkpt><trkpt lat="45.63008197721289" lon="10.877523369031843"><ele>118.0</ele><time>2026-04-26T08:57:44Z</time></trkpt><trkpt lat="45.629926861926265" lon="10.877404171329834"><ele>118.0</ele><time>2026-04-26T08:57:45Z</time></trkpt><trkpt lat="45.62979544890056" lon="10.877318900602717"><ele>118.0</ele><time>2026-04-26T08:57:46Z</time></trkpt><trkpt lat="45.62959042997207" lon="10.877446639156664"><ele>118.0</ele><time>2026-04-26T08:57:47Z</time></trkpt><trkpt lat="45.62953449217616" lon="10.877386441939315"><ele>118.00000000000001</ele><time>2026-04-26T08:57:48Z</time></trkpt><trkpt lat="45.629440079714115" lon="10.877284355627333"><ele>118.00000000000001</ele><time>2026-04-26T08:57:50Z</time></trkpt><trkpt lat="45.62936471211201" lon="10.87720078576937"><ele>118.0</ele><time>2026-04-26T08:57:51Z</time></trkpt><trkpt lat="45.62926421933945" lon="10.877089103435145"><ele>118.0</ele><time>2026-04-26T08:57:52Z</time></trkpt><trkpt lat="45.6291585177654" lon="10.876962798880577"><ele>117.75</ele><time>2026-04-26T08:57:53Z</time></trkpt><trkpt lat="45.629053846835966" lon="10.876830280102311"><ele>117.5</ele><time>2026-04-26T08:57:54Z</time></trkpt><trkpt lat="45.628948973625484" lon="10.87669067624361"><ele>117.25</ele><time>2026-04-26T08:57:55Z</time></trkpt><trkpt lat="45.628858009281295" lon="10.876558396606885"><ele>117.0</ele><time>2026-04-26T08:57:56Z</time></trkpt><trkpt lat="45.6287567270104" lon="10.87640679256449"><ele>117.0</ele><time>2026-04-26T08:57:57Z</time></trkpt><trkpt lat="45.62865485885656" lon="10.876246872656642"><ele>117.0</ele><time>2026-04-26T08:57:58Z</time></trkpt><trkpt lat="45.62855481850016" lon="10.87608272937778"><ele>117.0</ele><time>2026-04-26T08:57:59Z</time></trkpt><trkpt lat="45.62846207670261" lon="10.87592759924246"><ele>117.0</ele><time>2026-04-26T08:58:00Z</time></trkpt><trkpt lat="45.62837264001233" lon="10.875777681204315"><ele>118.0</ele><time>2026-04-26T08:58:01Z</time></trkpt><trkpt lat="45.62827872960724" lon="10.87562011493715"><ele>119.0</ele><time>2026-04-26T08:58:02Z</time></trkpt><trkpt lat="45.628183853210274" lon="10.875458643951271"><ele>120.0</ele><time>2026-04-26T08:58:03Z</time></trkpt><trkpt lat="45.62808983904251" lon="10.875297912313584"><ele>121.0</ele><time>2026-04-26T08:58:04Z</time></trkpt><trkpt lat="45.62799445812557" lon="10.875134843985318"><ele>119.0</ele><time>2026-04-26T08:58:05Z</time></trkpt><trkpt lat="45.62789861623573" lon="10.874973004262882"><ele>117.0</ele><time>2026-04-26T08:58:06Z</time></trkpt><trkpt lat="45.62780252750807" lon="10.874812126456522"><ele>115.0</ele><time>2026-04-26T08:58:07Z</time></trkpt><trkpt lat="45.62770814627021" lon="10.874659073076598"><ele>113.0</ele><time>2026-04-26T08:58:08Z</time></trkpt><trkpt lat="45.62762126216498" lon="10.874522747100276"><ele>114.0</ele><time>2026-04-26T08:58:09Z</time></trkpt><trkpt lat="45.62754099192285" lon="10.87440461287539"><ele>115.00000000000001</ele><time>2026-04-26T08:58:10Z</time></trkpt><trkpt lat="45.62746939725448" lon="10.874302740220893"><ele>116.00000000000001</ele><time>2026-04-26T08:58:11Z</time></trkpt><trkpt lat="45.62740624882284" lon="10.874214420258776"><ele>117.0</ele><time>2026-04-26T08:58:12Z</time></trkpt><trkpt lat="45.62733430622003" lon="10.87412044078059"><ele>118.0</ele><time>2026-04-26T08:58:14Z</time></trkpt><trkpt lat="45.627281479603944" lon="10.874055448927992"><ele>118.0</ele><time>2026-04-26T08:58:16Z</time></trkpt><trkpt lat="45.627200462434345" lon="10.873960385645313"><ele>118.00000000000001</ele><time>2026-04-26T08:58:20Z</time></trkpt><trkpt lat="45.627112589094146" lon="10.873858196211312"><ele>118.00000000000001</ele><time>2026-04-26T08:58:22Z</time></trkpt><trkpt lat="45.62704464072379" lon="10.873740135010513"><ele>118.0</ele><time>2026-04-26T08:58:24Z</time></trkpt><trkpt lat="45.62699902617024" lon="10.873664250578523"><ele>118.0</ele><time>2026-04-26T08:58:25Z</time></trkpt><trkpt lat="45.62694029881534" lon="10.873629566573328"><ele>118.60000000000001</ele><time>2026-04-26T08:58:26Z</time></trkpt><trkpt lat="45.62685939581183" lon="10.873571649299437"><ele>119.20000000000002</ele><time>2026-04-26T08:58:27Z</time></trkpt><trkpt lat="45.62678206358862" lon="10.87352242558387"><ele>119.8</ele><time>2026-04-26T08:58:28Z</time></trkpt><trkpt lat="45.6267063099682" lon="10.873396928530386"><ele>120.4</ele><time>2026-04-26T08:58:29Z</time></trkpt><trkpt lat="45.626653927390045" lon="10.873291298311434"><ele>121.0</ele><time>2026-04-26T08:58:30Z</time></trkpt><trkpt lat="45.626621222029314" lon="10.873199079665381"><ele>121.0</ele><time>2026-04-26T08:58:31Z</time></trkpt><trkpt lat="45.62657183763712" lon="10.873085581116776"><ele>121.0</ele><time>2026-04-26T08:58:32Z</time></trkpt><trkpt lat="45.62682264965297" lon="10.872246053381172"><ele>119.19999999999999</ele><time>2026-04-26T08:58:33Z</time></trkpt><trkpt lat="45.62676812795145" lon="10.872128289501582"><ele>117.39999999999999</ele><time>2026-04-26T08:58:34Z</time></trkpt><trkpt lat="45.62671511548183" lon="10.872008221638312"><ele>115.6</ele><time>2026-04-26T08:58:35Z</time></trkpt><trkpt lat="45.62665770789933" lon="10.871899475213146"><ele>113.8</ele><time>2026-04-26T08:58:36Z</time></trkpt><trkpt lat="45.626597576058984" lon="10.871789949889314"><ele>112.0</ele><time>2026-04-26T08:58:37Z</time></trkpt><trkpt lat="45.626524647726406" lon="10.871679512083105"><ele>110.75</ele><time>2026-04-26T08:58:38Z</time></trkpt><trkpt lat="45.62645193349819" lon="10.871588834654952"><ele>109.5</ele><time>2026-04-26T08:58:39Z</time></trkpt><trkpt lat="45.62635714160172" lon="10.871475702038186"><ele>108.25</ele><time>2026-04-26T08:58:40Z</time></trkpt><trkpt lat="45.6262625436038" lon="10.871359302943368"><ele>107.0</ele><time>2026-04-26T08:58:41Z</time></trkpt><trkpt lat="45.62618068027745" lon="10.871258903960982"><ele>107.5</ele><time>2026-04-26T08:58:42Z</time></trkpt><trkpt lat="45.626087193659394" lon="10.87116033570864"><ele>108.0</ele><time>2026-04-26T08:58:43Z</time></trkpt><trkpt lat="45.62597041396484" lon="10.871047068457587"><ele>108.5</ele><time>2026-04-26T08:58:44Z</time></trkpt><trkpt lat="45.62585785846117" lon="10.870939268862466"><ele>109.0</ele><time>2026-04-26T08:58:45Z</time></trkpt><trkpt lat="45.625754177784344" lon="10.870838484178108"><ele>109.0</ele><time>2026-04-26T08:58:46Z</time></trkpt><trkpt lat="45.62564733081202" lon="10.87074091109002"><ele>109.0</ele><time>2026-04-26T08:58:47Z</time></trkpt><trkpt lat="45.625558207192306" lon="10.870646692357324"><ele>109.0</ele><time>2026-04-26T08:58:48Z</time></trkpt><trkpt lat="45.62546985203458" lon="10.870556589365348"><ele>109.0</ele><time>2026-04-26T08:58:49Z</time></trkpt><trkpt lat="45.62537970473048" lon="10.870477715595722"><ele>109.2</ele><time>2026-04-26T08:58:50Z</time></trkpt><trkpt lat="45.62529470813569" lon="10.870410789972"><ele>109.4</ele><time>2026-04-26T08:58:51Z</time></trkpt><trkpt lat="45.6252262825603" lon="10.87035251241283"><ele>109.6</ele><time>2026-04-26T08:58:52Z</time></trkpt><trkpt lat="45.625148560247496" lon="10.870291219823054"><ele>109.8</ele><time>2026-04-26T08:58:53Z</time></trkpt><trkpt lat="45.6250631691145" lon="10.870221736757987"><ele>110.0</ele><time>2026-04-26T08:58:54Z</time></trkpt><trkpt lat="45.62497639218085" lon="10.870147690166311"><ele>109.4</ele><time>2026-04-26T08:58:55Z</time></trkpt><trkpt lat="45.624886329503205" lon="10.870079873219316"><ele>108.8</ele><time>2026-04-26T08:58:56Z</time></trkpt><trkpt lat="45.62479580907619" lon="10.870014170283795"><ele>108.19999999999999</ele><time>2026-04-26T08:58:57Z</time></trkpt><trkpt lat="45.624712218620985" lon="10.869951659961785"><ele>107.6</ele><time>2026-04-26T08:58:58Z</time></trkpt><trkpt lat="45.62464015830193" lon="10.869893141162963"><ele>107.0</ele><time>2026-04-26T08:58:59Z</time></trkpt><trkpt lat="45.62455113726266" lon="10.869840910197533"><ele>107.39999999999999</ele><time>2026-04-26T08:59:00Z</time></trkpt><trkpt lat="45.624474745165934" lon="10.869779269568363"><ele>107.79999999999998</ele><time>2026-04-26T08:59:01Z</time></trkpt><trkpt lat="45.624385494264146" lon="10.869711945557967"><ele>108.2</ele><time>2026-04-26T08:59:02Z</time></trkpt><trkpt lat="45.624302872145975" lon="10.869656255622486"><ele>108.6</ele><time>2026-04-26T08:59:03Z</time></trkpt><trkpt lat="45.624215196359394" lon="10.869594849793618"><ele>109.0</ele><time>2026-04-26T08:59:04Z</time></trkpt><trkpt lat="45.624127407858" lon="10.869529894844343"><ele>109.0</ele><time>2026-04-26T08:59:05Z</time></trkpt><trkpt lat="45.624034047407356" lon="10.869458567832188"><ele>109.0</ele><time>2026-04-26T08:59:06Z</time></trkpt><trkpt lat="45.62394602413978" lon="10.869397679683791"><ele>109.0</ele><time>2026-04-26T08:59:07Z</time></trkpt><trkpt lat="45.623850048705826" lon="10.869330046349134"><ele>109.0</ele><time>2026-04-26T08:59:08Z</time></trkpt><trkpt lat="45.62376956991624" lon="10.869269616817125"><ele>109.0</ele><time>2026-04-26T08:59:09Z</time></trkpt><trkpt lat="45.623679924731775" lon="10.869198047496141"><ele>108.80000000000001</ele><time>2026-04-26T08:59:10Z</time></trkpt><trkpt lat="45.6235904238341" lon="10.869131389606608"><ele>108.60000000000001</ele><time>2026-04-26T08:59:11Z</time></trkpt><trkpt lat="45.623498372129696" lon="10.869057974502885"><ele>108.4</ele><time>2026-04-26T08:59:12Z</time></trkpt><trkpt lat="45.62340568453156" lon="10.868988088304889"><ele>108.2</ele><time>2026-04-26T08:59:13Z</time></trkpt><trkpt lat="45.62331220662598" lon="10.868912626953584"><ele>108.0</ele><time>2026-04-26T08:59:14Z</time></trkpt><trkpt lat="45.62322509289618" lon="10.868842215923365"><ele>108.0</ele><time>2026-04-26T08:59:15Z</time></trkpt><trkpt lat="45.62314209877488" lon="10.868773161614602"><ele>108.00000000000001</ele><time>2026-04-26T08:59:16Z</time></trkpt><trkpt lat="45.623059271441775" lon="10.868684751396227"><ele>108.00000000000001</ele><time>2026-04-26T08:59:17Z</time></trkpt><trkpt lat="45.62297512395437" lon="10.868587482275458"><ele>108.0</ele><time>2026-04-26T08:59:18Z</time></trkpt><trkpt lat="45.62289447667924" lon="10.868505759148343"><ele>108.0</ele><time>2026-04-26T08:59:19Z</time></trkpt><trkpt lat="45.62281394794071" lon="10.868419510776656"><ele>108.33333333333333</ele><time>2026-04-26T08:59:20Z</time></trkpt><trkpt lat="45.62272415879301" lon="10.868328344454817"><ele>108.66666666666666</ele><time>2026-04-26T08:59:21Z</time></trkpt><trkpt lat="45.6226476527516" lon="10.868250139660779"><ele>109.0</ele><time>2026-04-26T08:59:22Z</time></trkpt><trkpt lat="45.62258186208378" lon="10.868182933303236"><ele>109.33333333333333</ele><time>2026-04-26T08:59:23Z</time></trkpt><trkpt lat="45.6225289655796" lon="10.868124106215252"><ele>109.66666666666666</ele><time>2026-04-26T08:59:24Z</time></trkpt><trkpt lat="45.62246377693338" lon="10.868089382744014"><ele>110.0</ele><time>2026-04-26T08:59:25Z</time></trkpt><trkpt lat="45.622356405271255" lon="10.868056186255558"><ele>109.99999999999999</ele><time>2026-04-26T08:59:27Z</time></trkpt><trkpt lat="45.6222743284846" lon="10.8681573842742"><ele>110.0</ele><time>2026-04-26T08:59:29Z</time></trkpt><trkpt lat="45.62224662090244" lon="10.868247368047324"><ele>110.0</ele><time>2026-04-26T08:59:30Z</time></trkpt><trkpt lat="45.622236127117255" lon="10.868341069932514"><ele>110.0</ele><time>2026-04-26T08:59:31Z</time></trkpt><trkpt lat="45.62225618666896" lon="10.86844439709335"><ele>109.99999999999999</ele><time>2026-04-26T08:59:33Z</time></trkpt><trkpt lat="45.62231601050722" lon="10.868505895419453"><ele>110.0</ele><time>2026-04-26T08:59:37Z</time></trkpt><trkpt lat="45.62236633890632" lon="10.868583719159716"><ele>111.33333333333333</ele><time>2026-04-26T08:59:49Z</time></trkpt><trkpt lat="45.62240974089734" lon="10.868691625185079"><ele>112.66666666666666</ele><time>2026-04-26T08:59:59Z</time></trkpt><trkpt lat="45.62245068504888" lon="10.868794521289512"><ele>114.0</ele><time>2026-04-26T09:00:01Z</time></trkpt><trkpt lat="45.62239874960487" lon="10.868692587300584"><ele>115.33333333333334</ele><time>2026-04-26T09:00:21Z</time></trkpt><trkpt lat="45.62231494552141" lon="10.868627444237262"><ele>116.66666666666667</ele><time>2026-04-26T09:00:23Z</time></trkpt><trkpt lat="45.622231779224606" lon="10.86855932746233"><ele>118.0</ele><time>2026-04-26T09:00:24Z</time></trkpt><trkpt lat="45.622165453131366" lon="10.868503621706362"><ele>118.0</ele><time>2026-04-26T09:00:25Z</time></trkpt><trkpt lat="45.622056564315955" lon="10.868450196504538"><ele>118.0</ele><time>2026-04-26T09:00:27Z</time></trkpt><trkpt lat="45.62193408418432" lon="10.868396673007997"><ele>118.0</ele><time>2026-04-26T09:00:29Z</time></trkpt><trkpt lat="45.62183551105872" lon="10.86829311858183"><ele>118.0</ele><time>2026-04-26T09:00:30Z</time></trkpt><trkpt lat="45.621716283881696" lon="10.868168173818484"><ele>117.75</ele><time>2026-04-26T09:00:31Z</time></trkpt><trkpt lat="45.62158025290247" lon="10.86804413833469"><ele>117.5</ele><time>2026-04-26T09:00:32Z</time></trkpt><trkpt lat="45.62146392256328" lon="10.867939965105899"><ele>117.25</ele><time>2026-04-26T09:00:33Z</time></trkpt><trkpt lat="45.62134993863941" lon="10.867839521533394"><ele>117.0</ele><time>2026-04-26T09:00:34Z</time></trkpt><trkpt lat="45.62123138643785" lon="10.867736440282155"><ele>117.5</ele><time>2026-04-26T09:00:35Z</time></trkpt><trkpt lat="45.62111024077073" lon="10.867604770989804"><ele>118.0</ele><time>2026-04-26T09:00:36Z</time></trkpt><trkpt lat="45.62100143424605" lon="10.867466221364788"><ele>118.5</ele><time>2026-04-26T09:00:37Z</time></trkpt><trkpt lat="45.620886055484924" lon="10.867325569354556"><ele>119.0</ele><time>2026-04-26T09:00:38Z</time></trkpt><trkpt lat="45.62076986730454" lon="10.867188158196237"><ele>119.0</ele><time>2026-04-26T09:00:39Z</time></trkpt><trkpt lat="45.620644994089425" lon="10.867046838968964"><ele>119.0</ele><time>2026-04-26T09:00:40Z</time></trkpt><trkpt lat="45.62052016477074" lon="10.866923956200564"><ele>119.0</ele><time>2026-04-26T09:00:41Z</time></trkpt><trkpt lat="45.62039549873529" lon="10.866814311420166"><ele>120.0</ele><time>2026-04-26T09:00:42Z</time></trkpt><trkpt lat="45.62028234712158" lon="10.8667042072423"><ele>121.0</ele><time>2026-04-26T09:00:43Z</time></trkpt><trkpt lat="45.620189207233985" lon="10.866575145788278"><ele>122.0</ele><time>2026-04-26T09:00:44Z</time></trkpt><trkpt lat="45.6199891437727" lon="10.866581614181007"><ele>122.0</ele><time>2026-04-26T09:00:45Z</time></trkpt><trkpt lat="45.619892348678526" lon="10.866431021193508"><ele>122.0</ele><time>2026-04-26T09:00:46Z</time></trkpt><trkpt lat="45.6197996169114" lon="10.866283816311803"><ele>122.0</ele><time>2026-04-26T09:00:47Z</time></trkpt><trkpt lat="45.61970474177731" lon="10.866133209203522"><ele>122.0</ele><time>2026-04-26T09:00:48Z</time></trkpt><trkpt lat="45.61960845673119" lon="10.865975258016453"><ele>124.33333333333333</ele><time>2026-04-26T09:00:49Z</time></trkpt><trkpt lat="45.61951304875639" lon="10.865815250256299"><ele>126.66666666666666</ele><time>2026-04-26T09:00:50Z</time></trkpt><trkpt lat="45.61940907720596" lon="10.865641306449815"><ele>129.0</ele><time>2026-04-26T09:00:51Z</time></trkpt><trkpt lat="45.61929532529411" lon="10.86545441326769"><ele>129.0</ele><time>2026-04-26T09:00:52Z</time></trkpt><trkpt lat="45.61918923134692" lon="10.865279198005867"><ele>129.0</ele><time>2026-04-26T09:00:53Z</time></trkpt><trkpt lat="45.6190960167433" lon="10.86512482338401"><ele>129.0</ele><time>2026-04-26T09:00:54Z</time></trkpt><trkpt lat="45.61901969276707" lon="10.865001999252243"><ele>129.0</ele><time>2026-04-26T09:00:55Z</time></trkpt><trkpt lat="45.61895408269797" lon="10.864906945972471"><ele>128.8</ele><time>2026-04-26T09:00:56Z</time></trkpt><trkpt lat="45.618888866542484" lon="10.864819454375152"><ele>128.60000000000002</ele><time>2026-04-26T09:00:57Z</time></trkpt><trkpt lat="45.618810594660616" lon="10.864729135641786"><ele>128.4</ele><time>2026-04-26T09:00:58Z</time></trkpt><trkpt lat="45.6187212072917" lon="10.864641019201754"><ele>128.20000000000002</ele><time>2026-04-26T09:00:59Z</time></trkpt><trkpt lat="45.61864257600607" lon="10.86458568520333"><ele>128.0</ele><time>2026-04-26T09:01:00Z</time></trkpt><trkpt lat="45.61856773253741" lon="10.864517994857993"><ele>128.0</ele><time>2026-04-26T09:01:01Z</time></trkpt><trkpt lat="45.618480341356545" lon="10.864435532319465"><ele>128.0</ele><time>2026-04-26T09:01:02Z</time></trkpt><trkpt lat="45.61837873606044" lon="10.864337406115814"><ele>128.0</ele><time>2026-04-26T09:01:03Z</time></trkpt><trkpt lat="45.61825408289461" lon="10.864260843500597"><ele>128.0</ele><time>2026-04-26T09:01:04Z</time></trkpt><trkpt lat="45.6181611809942" lon="10.864140369738704"><ele>126.0</ele><time>2026-04-26T09:01:05Z</time></trkpt><trkpt lat="45.618080571841816" lon="10.864022611300069"><ele>124.00000000000001</ele><time>2026-04-26T09:01:06Z</time></trkpt><trkpt lat="45.61800878395412" lon="10.863905936590596"><ele>122.00000000000001</ele><time>2026-04-26T09:01:07Z</time></trkpt><trkpt lat="45.61794802207156" lon="10.863794743145595"><ele>120.0</ele><time>2026-04-26T09:01:08Z</time></trkpt><trkpt lat="45.61790754549636" lon="10.863697088504008"><ele>118.0</ele><time>2026-04-26T09:01:09Z</time></trkpt><trkpt lat="45.61811121150615" lon="10.863018854909996"><ele>116.80000000000001</ele><time>2026-04-26T09:01:10Z</time></trkpt><trkpt lat="45.61807394902719" lon="10.86293382896807"><ele>115.60000000000001</ele><time>2026-04-26T09:01:13Z</time></trkpt><trkpt lat="45.61803481613686" lon="10.862852201349448"><ele>114.39999999999999</ele><time>2026-04-26T09:01:17Z</time></trkpt><trkpt lat="45.618000381542345" lon="10.862742504276238"><ele>113.19999999999999</ele><time>2026-04-26T09:01:19Z</time></trkpt><trkpt lat="45.61795169483034" lon="10.862612135239884"><ele>112.0</ele><time>2026-04-26T09:01:21Z</time></trkpt><trkpt lat="45.61789801201241" lon="10.862453564519317"><ele>111.71428571428571</ele><time>2026-04-26T09:01:23Z</time></trkpt><trkpt lat="45.61786865594276" lon="10.862365420788294"><ele>111.42857142857143</ele><time>2026-04-26T09:01:24Z</time></trkpt><trkpt lat="45.61784202618285" lon="10.862274047941778"><ele>111.14285714285714</ele><time>2026-04-26T09:01:25Z</time></trkpt><trkpt lat="45.61782058798999" lon="10.862183860816634"><ele>110.85714285714286</ele><time>2026-04-26T09:01:26Z</time></trkpt><trkpt lat="45.6177998389657" lon="10.862087836753346"><ele>110.57142857142857</ele><time>2026-04-26T09:01:27Z</time></trkpt><trkpt lat="45.61777503519051" lon="10.861980934432014"><ele>110.28571428571428</ele><time>2026-04-26T09:01:28Z</time></trkpt><trkpt lat="45.617749237292585" lon="10.861862382932902"><ele>110.0</ele><time>2026-04-26T09:01:29Z</time></trkpt><trkpt lat="45.617723670809866" lon="10.861743372628744"><ele>111.33333333333333</ele><time>2026-04-26T09:01:30Z</time></trkpt><trkpt lat="45.61770439343434" lon="10.861612335303542"><ele>112.66666666666666</ele><time>2026-04-26T09:01:31Z</time></trkpt><trkpt lat="45.617689224206984" lon="10.861499410349259"><ele>114.0</ele><time>2026-04-26T09:01:32Z</time></trkpt><trkpt lat="45.61767795853691" lon="10.861389497363907"><ele>115.33333333333334</ele><time>2026-04-26T09:01:33Z</time></trkpt><trkpt lat="45.61766043747099" lon="10.861236295854262"><ele>116.66666666666667</ele><time>2026-04-26T09:01:35Z</time></trkpt><trkpt lat="45.617642837228914" lon="10.861138679447798"><ele>118.0</ele><time>2026-04-26T09:01:37Z</time></trkpt><trkpt lat="45.617641590266196" lon="10.8610155957247"><ele>118.4</ele><time>2026-04-26T09:01:39Z</time></trkpt><trkpt lat="45.61764140810613" lon="10.860899977297558"><ele>118.80000000000001</ele><time>2026-04-26T09:01:40Z</time></trkpt><trkpt lat="45.617636941542955" lon="10.860766339834573"><ele>119.2</ele><time>2026-04-26T09:01:41Z</time></trkpt><trkpt lat="45.617631189828835" lon="10.86060686303245"><ele>119.6</ele><time>2026-04-26T09:01:42Z</time></trkpt><trkpt lat="45.617635909404925" lon="10.860434265821452"><ele>120.0</ele><time>2026-04-26T09:01:43Z</time></trkpt><trkpt lat="45.61764920791193" lon="10.860263606467742"><ele>120.0</ele><time>2026-04-26T09:01:44Z</time></trkpt><trkpt lat="45.617668347830325" lon="10.860097791685275"><ele>120.0</ele><time>2026-04-26T09:01:45Z</time></trkpt><trkpt lat="45.61769555196065" lon="10.859928674437276"><ele>120.0</ele><time>2026-04-26T09:01:46Z</time></trkpt><trkpt lat="45.617730279838476" lon="10.859766578895618"><ele>120.0</ele><time>2026-04-26T09:01:47Z</time></trkpt><trkpt lat="45.61776692250413" lon="10.859613288352687"><ele>120.0</ele><time>2026-04-26T09:01:48Z</time></trkpt><trkpt lat="45.617810337807086" lon="10.859473506048124"><ele>120.0</ele><time>2026-04-26T09:01:49Z</time></trkpt><trkpt lat="45.61786285906507" lon="10.859347672417549"><ele>120.0</ele><time>2026-04-26T09:01:50Z</time></trkpt><trkpt lat="45.61791076588993" lon="10.859236077990259"><ele>120.0</ele><time>2026-04-26T09:01:51Z</time></trkpt><trkpt lat="45.61795987137363" lon="10.8591252903972"><ele>120.0</ele><time>2026-04-26T09:01:52Z</time></trkpt><trkpt lat="45.61801618231467" lon="10.859032957422537"><ele>119.5</ele><time>2026-04-26T09:01:53Z</time></trkpt><trkpt lat="45.61806595031688" lon="10.8589511842391"><ele>119.0</ele><time>2026-04-26T09:01:54Z</time></trkpt><trkpt lat="45.61810410732727" lon="10.858879285909502"><ele>118.5</ele><time>2026-04-26T09:01:55Z</time></trkpt><trkpt lat="45.618114582254385" lon="10.858777245584562"><ele>118.0</ele><time>2026-04-26T09:01:57Z</time></trkpt><trkpt lat="45.618036929800425" lon="10.858656924634705"><ele>117.5</ele><time>2026-04-26T09:01:59Z</time></trkpt><trkpt lat="45.61795850606188" lon="10.858590727485671"><ele>117.0</ele><time>2026-04-26T09:02:00Z</time></trkpt><trkpt lat="45.61797001496774" lon="10.858256329735312"><ele>117.0</ele><time>2026-04-26T09:02:01Z</time></trkpt><trkpt lat="45.617849789443156" lon="10.858140643675661"><ele>117.0</ele><time>2026-04-26T09:02:02Z</time></trkpt><trkpt lat="45.617726893539334" lon="10.858021457436495"><ele>117.0</ele><time>2026-04-26T09:02:03Z</time></trkpt><trkpt lat="45.617601251084004" lon="10.857897382564097"><ele>117.0</ele><time>2026-04-26T09:02:04Z</time></trkpt><trkpt lat="45.617472200562666" lon="10.857769942238365"><ele>117.66666666666666</ele><time>2026-04-26T09:02:05Z</time></trkpt><trkpt lat="45.6173447127588" lon="10.857644045092773"><ele>118.33333333333333</ele><time>2026-04-26T09:02:06Z</time></trkpt><trkpt lat="45.6172175887378" lon="10.857518507221585"><ele>119.0</ele><time>2026-04-26T09:02:07Z</time></trkpt><trkpt lat="45.617094501136" lon="10.857396955607506"><ele>119.0</ele><time>2026-04-26T09:02:08Z</time></trkpt><trkpt lat="45.616989670058324" lon="10.857293432347646"><ele>119.0</ele><time>2026-04-26T09:02:09Z</time></trkpt><trkpt lat="45.616886577431515" lon="10.857191626015373"><ele>119.0</ele><time>2026-04-26T09:02:10Z</time></trkpt><trkpt lat="45.61678233999292" lon="10.857088689092485"><ele>119.0</ele><time>2026-04-26T09:02:11Z</time></trkpt><trkpt lat="45.61667055523237" lon="10.856978299383918"><ele>119.33333333333333</ele><time>2026-04-26T09:02:12Z</time></trkpt><trkpt lat="45.61654826247846" lon="10.856857573121967"><ele>119.66666666666666</ele><time>2026-04-26T09:02:13Z</time></trkpt><trkpt lat="45.61640995666356" lon="10.856722114313332"><ele>120.0</ele><time>2026-04-26T09:02:14Z</time></trkpt><trkpt lat="45.61627788534169" lon="10.856592761668912"><ele>119.75</ele><time>2026-04-26T09:02:15Z</time></trkpt><trkpt lat="45.616165232155865" lon="10.856482420659711"><ele>119.5</ele><time>2026-04-26T09:02:16Z</time></trkpt><trkpt lat="45.616055564019284" lon="10.856374549629919"><ele>119.25</ele><time>2026-04-26T09:02:17Z</time></trkpt><trkpt lat="45.61593751064882" lon="10.856257422929042"><ele>119.0</ele><time>2026-04-26T09:02:18Z</time></trkpt><trkpt lat="45.61579886203056" lon="10.856119862776413"><ele>119.0</ele><time>2026-04-26T09:02:19Z</time></trkpt><trkpt lat="45.615674962392575" lon="10.855997888266549"><ele>119.0</ele><time>2026-04-26T09:02:20Z</time></trkpt><trkpt lat="45.61556652046456" lon="10.855891505256155"><ele>119.0</ele><time>2026-04-26T09:02:21Z</time></trkpt><trkpt lat="45.61546418629649" lon="10.855791113986552"><ele>119.0</ele><time>2026-04-26T09:02:22Z</time></trkpt><trkpt lat="45.6153721192634" lon="10.855700794951565"><ele>119.25</ele><time>2026-04-26T09:02:23Z</time></trkpt><trkpt lat="45.61530403103842" lon="10.855633999440649"><ele>119.5</ele><time>2026-04-26T09:02:24Z</time></trkpt><trkpt lat="45.61524399840551" lon="10.855574493621052"><ele>119.75</ele><time>2026-04-26T09:02:25Z</time></trkpt><trkpt lat="45.615174905941096" lon="10.85550591373284"><ele>120.0</ele><time>2026-04-26T09:02:27Z</time></trkpt><trkpt lat="45.61498896297678" lon="10.855865557348725"><ele>120.0</ele><time>2026-04-26T09:02:29Z</time></trkpt><trkpt lat="45.614913353938555" lon="10.855888247790642"><ele>120.0</ele><time>2026-04-26T09:02:32Z</time></trkpt><trkpt lat="45.61492172836869" lon="10.855785784318915"><ele>120.0</ele><time>2026-04-26T09:02:35Z</time></trkpt><trkpt lat="45.614968782931044" lon="10.855715163147622"><ele>120.0</ele><time>2026-04-26T09:02:36Z</time></trkpt><trkpt lat="45.61505119522794" lon="10.855610572895571"><ele>120.0</ele><time>2026-04-26T09:02:37Z</time></trkpt><trkpt lat="45.61511287920254" lon="10.85547927912001"><ele>120.0</ele><time>2026-04-26T09:02:38Z</time></trkpt><trkpt lat="45.615166362562036" lon="10.855355737802274"><ele>120.0</ele><time>2026-04-26T09:02:39Z</time></trkpt><trkpt lat="45.615221195866496" lon="10.85524704642035"><ele>120.0</ele><time>2026-04-26T09:02:40Z</time></trkpt><trkpt lat="45.61526454108408" lon="10.85515269061126"><ele>120.0</ele><time>2026-04-26T09:02:41Z</time></trkpt><trkpt lat="45.615309676169446" lon="10.855053994225615"><ele>120.0</ele><time>2026-04-26T09:02:42Z</time></trkpt><trkpt lat="45.61534638106688" lon="10.854934659117465"><ele>120.0</ele><time>2026-04-26T09:02:43Z</time></trkpt><trkpt lat="45.61537583611465" lon="10.854809191906662"><ele>120.0</ele><time>2026-04-26T09:02:44Z</time></trkpt><trkpt lat="45.61540891020632" lon="10.854697732226814"><ele>119.4</ele><time>2026-04-26T09:02:45Z</time></trkpt><trkpt lat="45.61546337171836" lon="10.854560089160271"><ele>118.8</ele><time>2026-04-26T09:02:47Z</time></trkpt><trkpt lat="45.61553049841651" lon="10.85450526418712"><ele>118.19999999999999</ele><time>2026-04-26T09:02:49Z</time></trkpt><trkpt lat="45.61565997096391" lon="10.854531103778193"><ele>117.6</ele><time>2026-04-26T09:02:51Z</time></trkpt><trkpt lat="45.615759245037985" lon="10.854550594994711"><ele>117.0</ele><time>2026-04-26T09:02:52Z</time></trkpt><trkpt lat="45.61586978817759" lon="10.854564960590498"><ele>117.0</ele><time>2026-04-26T09:02:53Z</time></trkpt><trkpt lat="45.61597465126746" lon="10.854578919714093"><ele>116.99999999999999</ele><time>2026-04-26T09:02:54Z</time></trkpt><trkpt lat="45.616082060466304" lon="10.854592021340084"><ele>116.99999999999999</ele><time>2026-04-26T09:02:55Z</time></trkpt><trkpt lat="45.61618810348917" lon="10.854610840241998"><ele>117.0</ele><time>2026-04-26T09:02:56Z</time></trkpt><trkpt lat="45.616291497436826" lon="10.85463387543407"><ele>117.0</ele><time>2026-04-26T09:02:57Z</time></trkpt><trkpt lat="45.616393943121366" lon="10.854653696312107"><ele>116.6</ele><time>2026-04-26T09:02:58Z</time></trkpt><trkpt lat="45.61649559126068" lon="10.854668699721712"><ele>116.19999999999999</ele><time>2026-04-26T09:02:59Z</time></trkpt><trkpt lat="45.616597971973285" lon="10.854680485048204"><ele>115.8</ele><time>2026-04-26T09:03:00Z</time></trkpt><trkpt lat="45.616707912060285" lon="10.85469825129615"><ele>115.4</ele><time>2026-04-26T09:03:01Z</time></trkpt><trkpt lat="45.61683890330433" lon="10.854712551939787"><ele>115.0</ele><time>2026-04-26T09:03:02Z</time></trkpt><trkpt lat="45.6169757527353" lon="10.85472391386873"><ele>114.25</ele><time>2026-04-26T09:03:03Z</time></trkpt><trkpt lat="45.61710283128231" lon="10.854726851809225"><ele>113.5</ele><time>2026-04-26T09:03:04Z</time></trkpt><trkpt lat="45.617229457248506" lon="10.854724243395358"><ele>112.75</ele><time>2026-04-26T09:03:05Z</time></trkpt><trkpt lat="45.617346746008394" lon="10.854726294228346"><ele>112.0</ele><time>2026-04-26T09:03:06Z</time></trkpt><trkpt lat="45.61745157598201" lon="10.854730335136862"><ele>112.0</ele><time>2026-04-26T09:03:07Z</time></trkpt><trkpt lat="45.61754142506299" lon="10.854734646956329"><ele>111.99999999999999</ele><time>2026-04-26T09:03:08Z</time></trkpt><trkpt lat="45.61763028648036" lon="10.854746212313284"><ele>111.99999999999999</ele><time>2026-04-26T09:03:09Z</time></trkpt><trkpt lat="45.61772015498413" lon="10.854763764981096"><ele>112.0</ele><time>2026-04-26T09:03:10Z</time></trkpt><trkpt lat="45.617806214968" lon="10.854772133444047"><ele>112.0</ele><time>2026-04-26T09:03:11Z</time></trkpt><trkpt lat="45.61790868402466" lon="10.854772515203637"><ele>112.6</ele><time>2026-04-26T09:03:12Z</time></trkpt><trkpt lat="45.61800397584582" lon="10.854773104141037"><ele>113.19999999999999</ele><time>2026-04-26T09:03:13Z</time></trkpt><trkpt lat="45.61809305343957" lon="10.854770675081294"><ele>113.8</ele><time>2026-04-26T09:03:14Z</time></trkpt><trkpt lat="45.61817602871563" lon="10.854769504079398"><ele>114.4</ele><time>2026-04-26T09:03:15Z</time></trkpt><trkpt lat="45.618245199595876" lon="10.854774046777143"><ele>115.0</ele><time>2026-04-26T09:03:16Z</time></trkpt><trkpt lat="45.618364292499805" lon="10.854793934955389"><ele>115.00000000000001</ele><time>2026-04-26T09:03:18Z</time></trkpt><trkpt lat="45.61843029167736" lon="10.85480356588614"><ele>115.0</ele><time>2026-04-26T09:03:19Z</time></trkpt><trkpt lat="45.61850716332963" lon="10.85481066227826"><ele>115.0</ele><time>2026-04-26T09:03:20Z</time></trkpt><trkpt lat="45.618585976487715" lon="10.854820545284975"><ele>115.0</ele><time>2026-04-26T09:03:21Z</time></trkpt><trkpt lat="45.61866515648268" lon="10.854835022165622"><ele>115.00000000000001</ele><time>2026-04-26T09:03:22Z</time></trkpt><trkpt lat="45.618745748722226" lon="10.85485142274515"><ele>115.0</ele><time>2026-04-26T09:03:23Z</time></trkpt><trkpt lat="45.61881949315974" lon="10.854867624037844"><ele>114.57142857142856</ele><time>2026-04-26T09:03:24Z</time></trkpt><trkpt lat="45.618896398563635" lon="10.854890313581377"><ele>114.14285714285714</ele><time>2026-04-26T09:03:25Z</time></trkpt><trkpt lat="45.61896754701511" lon="10.854917488872003"><ele>113.71428571428571</ele><time>2026-04-26T09:03:26Z</time></trkpt><trkpt lat="45.61903825153534" lon="10.854949361524023"><ele>113.28571428571428</ele><time>2026-04-26T09:03:27Z</time></trkpt><trkpt lat="45.6191032275398" lon="10.854987154229553"><ele>112.85714285714286</ele><time>2026-04-26T09:03:28Z</time></trkpt><trkpt lat="45.619164200704645" lon="10.855028128516501"><ele>112.42857142857143</ele><time>2026-04-26T09:03:29Z</time></trkpt><trkpt lat="45.61923613508816" lon="10.855071363235151"><ele>112.0</ele><time>2026-04-26T09:03:30Z</time></trkpt><trkpt lat="45.619322612223876" lon="10.855118890916431"><ele>112.00000000000001</ele><time>2026-04-26T09:03:31Z</time></trkpt><trkpt lat="45.61940750323251" lon="10.855164670216523"><ele>112.0</ele><time>2026-04-26T09:03:32Z</time></trkpt><trkpt lat="45.619493468932696" lon="10.855210577783117"><ele>112.0</ele><time>2026-04-26T09:03:33Z</time></trkpt><trkpt lat="45.61957445444504" lon="10.85525399587259"><ele>112.0</ele><time>2026-04-26T09:03:34Z</time></trkpt><trkpt lat="45.6196519231649" lon="10.855289773159523"><ele>112.00000000000001</ele><time>2026-04-26T09:03:35Z</time></trkpt><trkpt lat="45.61973148184022" lon="10.855334499325313"><ele>112.0</ele><time>2026-04-26T09:03:36Z</time></trkpt><trkpt lat="45.61979502897464" lon="10.85537963800142"><ele>112.0</ele><time>2026-04-26T09:03:37Z</time></trkpt><trkpt lat="45.619873545883195" lon="10.855500839833335"><ele>111.99999999999999</ele><time>2026-04-26T09:03:39Z</time></trkpt><trkpt lat="45.619912763589" lon="10.855658175262132"><ele>111.99999999999999</ele><time>2026-04-26T09:03:41Z</time></trkpt><trkpt lat="45.61989462935386" lon="10.855803980975061"><ele>112.0</ele><time>2026-04-26T09:03:43Z</time></trkpt><trkpt lat="45.61986861389824" lon="10.85590461384437"><ele>112.0</ele><time>2026-04-26T09:03:45Z</time></trkpt><trkpt lat="45.61986309134499" lon="10.856019843069062"><ele>112.00000000000001</ele><time>2026-04-26T09:03:48Z</time></trkpt><trkpt lat="45.619929207558904" lon="10.856041763501633"><ele>112.0</ele><time>2026-04-26T09:03:51Z</time></trkpt><trkpt lat="45.619969372181735" lon="10.855944083120596"><ele>112.0</ele><time>2026-04-26T09:03:53Z</time></trkpt><trkpt lat="45.619980850768194" lon="10.85582238362248"><ele>112.0</ele><time>2026-04-26T09:03:55Z</time></trkpt><trkpt lat="45.61998751870315" lon="10.855693419282387"><ele>112.00000000000001</ele><time>2026-04-26T09:03:57Z</time></trkpt><trkpt lat="45.61999528109999" lon="10.855573803940414"><ele>112.0</ele><time>2026-04-26T09:03:59Z</time></trkpt><trkpt lat="45.61999223031859" lon="10.855472435260415"><ele>112.00000000000001</ele><time>2026-04-26T09:04:01Z</time></trkpt><trkpt lat="45.61998805103576" lon="10.855342351807263"><ele>112.0</ele><time>2026-04-26T09:04:03Z</time></trkpt><trkpt lat="45.619960431252736" lon="10.855250550877708"><ele>112.0</ele><time>2026-04-26T09:04:05Z</time></trkpt><trkpt lat="45.619901599387575" lon="10.855189794096724"><ele>112.0</ele><time>2026-04-26T09:04:07Z</time></trkpt><trkpt lat="45.61983471341832" lon="10.855137514439118"><ele>112.00000000000001</ele><time>2026-04-26T09:04:09Z</time></trkpt><trkpt lat="45.619745658826176" lon="10.855114459864012"><ele>112.0</ele><time>2026-04-26T09:04:11Z</time></trkpt><trkpt lat="45.619635494112686" lon="10.855068099009086"><ele>112.00000000000001</ele><time>2026-04-26T09:04:13Z</time></trkpt><trkpt lat="45.619577040769194" lon="10.855029880387892"><ele>112.0</ele><time>2026-04-26T09:04:14Z</time></trkpt><trkpt lat="45.61950658936546" lon="10.85499074741131"><ele>112.0</ele><time>2026-04-26T09:04:15Z</time></trkpt><trkpt lat="45.61939974142073" lon="10.854913583487521"><ele>112.0</ele><time>2026-04-26T09:04:17Z</time></trkpt><trkpt lat="45.61932943108487" lon="10.854860223452922"><ele>112.00000000000001</ele><time>2026-04-26T09:04:18Z</time></trkpt><trkpt lat="45.61925559647872" lon="10.854811950554295"><ele>112.0</ele><time>2026-04-26T09:04:19Z</time></trkpt><trkpt lat="45.61918930282489" lon="10.854767657920643"><ele>112.00000000000001</ele><time>2026-04-26T09:04:20Z</time></trkpt><trkpt lat="45.6191226496456" lon="10.854730769626398"><ele>112.0</ele><time>2026-04-26T09:04:21Z</time></trkpt><trkpt lat="45.619067133352054" lon="10.854684061864358"><ele>112.0</ele><time>2026-04-26T09:04:22Z</time></trkpt><trkpt lat="45.61899931016977" lon="10.854643893134075"><ele>112.0</ele><time>2026-04-26T09:04:23Z</time></trkpt><trkpt lat="45.618916355796244" lon="10.854614154051065"><ele>112.00000000000001</ele><time>2026-04-26T09:04:24Z</time></trkpt><trkpt lat="45.61881683384336" lon="10.854578455231342"><ele>112.0</ele><time>2026-04-26T09:04:25Z</time></trkpt><trkpt lat="45.61872615510696" lon="10.854555536867398"><ele>112.50000000000001</ele><time>2026-04-26T09:04:26Z</time></trkpt><trkpt lat="45.61862577611241" lon="10.854534714589507"><ele>113.0</ele><time>2026-04-26T09:04:27Z</time></trkpt><trkpt lat="45.61852941889328" lon="10.854511445534568"><ele>113.5</ele><time>2026-04-26T09:04:28Z</time></trkpt><trkpt lat="45.61845431237155" lon="10.854494466026217"><ele>114.0</ele><time>2026-04-26T09:04:29Z</time></trkpt><trkpt lat="45.61837982630116" lon="10.854490683208207"><ele>114.50000000000001</ele><time>2026-04-26T09:04:30Z</time></trkpt><trkpt lat="45.6183127270419" lon="10.854485340778071"><ele>115.0</ele><time>2026-04-26T09:04:31Z</time></trkpt><trkpt lat="45.61823971825778" lon="10.85448180670356"><ele>115.00000000000001</ele><time>2026-04-26T09:04:32Z</time></trkpt><trkpt lat="45.618153795498266" lon="10.854483119251958"><ele>115.0</ele><time>2026-04-26T09:04:33Z</time></trkpt><trkpt lat="45.61806972205256" lon="10.854488516109695"><ele>115.0</ele><time>2026-04-26T09:04:34Z</time></trkpt><trkpt lat="45.61799237284495" lon="10.85448646461547"><ele>115.0</ele><time>2026-04-26T09:04:35Z</time></trkpt><trkpt lat="45.61791214431972" lon="10.854487263986782"><ele>115.00000000000001</ele><time>2026-04-26T09:04:36Z</time></trkpt><trkpt lat="45.617828440314014" lon="10.854493115993376"><ele>115.0</ele><time>2026-04-26T09:04:37Z</time></trkpt><trkpt lat="45.61773965931973" lon="10.854495578972085"><ele>114.50000000000001</ele><time>2026-04-26T09:04:38Z</time></trkpt><trkpt lat="45.617666366081295" lon="10.854492987556036"><ele>114.0</ele><time>2026-04-26T09:04:39Z</time></trkpt><trkpt lat="45.61759818451507" lon="10.854483896898625"><ele>113.5</ele><time>2026-04-26T09:04:40Z</time></trkpt><trkpt lat="45.617512306629955" lon="10.854480897175682"><ele>113.0</ele><time>2026-04-26T09:04:41Z</time></trkpt><trkpt lat="45.61742627149276" lon="10.854475969409936"><ele>112.50000000000001</ele><time>2026-04-26T09:04:42Z</time></trkpt><trkpt lat="45.617343164824014" lon="10.85447419811767"><ele>112.0</ele><time>2026-04-26T09:04:43Z</time></trkpt><trkpt lat="45.61726762578794" lon="10.854471149475437"><ele>112.00000000000001</ele><time>2026-04-26T09:04:44Z</time></trkpt><trkpt lat="45.617191556682386" lon="10.854471187011663"><ele>112.0</ele><time>2026-04-26T09:04:45Z</time></trkpt><trkpt lat="45.61710624159044" lon="10.85447109787051"><ele>112.0</ele><time>2026-04-26T09:04:46Z</time></trkpt><trkpt lat="45.61703271636095" lon="10.854473125359327"><ele>112.0</ele><time>2026-04-26T09:04:47Z</time></trkpt><trkpt lat="45.61695586073172" lon="10.854472143776023"><ele>112.00000000000001</ele><time>2026-04-26T09:04:48Z</time></trkpt><trkpt lat="45.61687376940111" lon="10.854466345804884"><ele>112.0</ele><time>2026-04-26T09:04:49Z</time></trkpt><trkpt lat="45.616802337270784" lon="10.854458157808544"><ele>112.50000000000001</ele><time>2026-04-26T09:04:50Z</time></trkpt><trkpt lat="45.61673005300984" lon="10.854441441349852"><ele>113.0</ele><time>2026-04-26T09:04:51Z</time></trkpt><trkpt lat="45.616649582839536" lon="10.854427820400018"><ele>113.5</ele><time>2026-04-26T09:04:52Z</time></trkpt><trkpt lat="45.616571121086324" lon="10.854420611412136"><ele>114.0</ele><time>2026-04-26T09:04:53Z</time></trkpt><trkpt lat="45.61650643513245" lon="10.85441046448725"><ele>114.50000000000001</ele><time>2026-04-26T09:04:54Z</time></trkpt><trkpt lat="45.616389202468035" lon="10.854384225391092"><ele>115.0</ele><time>2026-04-26T09:04:56Z</time></trkpt><trkpt lat="45.616321750806065" lon="10.854371395081928"><ele>115.00000000000001</ele><time>2026-04-26T09:04:57Z</time></trkpt><trkpt lat="45.616249410069976" lon="10.854358936935103"><ele>115.0</ele><time>2026-04-26T09:04:58Z</time></trkpt><trkpt lat="45.616187150774664" lon="10.854341447243371"><ele>115.0</ele><time>2026-04-26T09:04:59Z</time></trkpt><trkpt lat="45.616077796085875" lon="10.854283795169897"><ele>115.0</ele><time>2026-04-26T09:05:01Z</time></trkpt><trkpt lat="45.61601363062067" lon="10.854255655019392"><ele>115.00000000000001</ele><time>2026-04-26T09:05:02Z</time></trkpt><trkpt lat="45.61593999775436" lon="10.854241263543454"><ele>115.0</ele><time>2026-04-26T09:05:03Z</time></trkpt><trkpt lat="45.61586424323088" lon="10.854227724428357"><ele>113.50000000000001</ele><time>2026-04-26T09:05:04Z</time></trkpt><trkpt lat="45.61578640291592" lon="10.854214309857857"><ele>112.0</ele><time>2026-04-26T09:05:05Z</time></trkpt><trkpt lat="45.61570152517887" lon="10.85420391355677"><ele>110.5</ele><time>2026-04-26T09:05:06Z</time></trkpt><trkpt lat="45.615625734822274" lon="10.854194174654003"><ele>109.0</ele><time>2026-04-26T09:05:07Z</time></trkpt><trkpt lat="45.615560116785765" lon="10.854192361468108"><ele>107.50000000000001</ele><time>2026-04-26T09:05:08Z</time></trkpt><trkpt lat="45.61549364251648" lon="10.854185778653095"><ele>106.0</ele><time>2026-04-26T09:05:09Z</time></trkpt><trkpt lat="45.61535812820196" lon="10.854169091841975"><ele>106.0</ele><time>2026-04-26T09:05:11Z</time></trkpt><trkpt lat="45.615282968327435" lon="10.854162633844537"><ele>106.0</ele><time>2026-04-26T09:05:12Z</time></trkpt><trkpt lat="45.61521451390269" lon="10.854156564932719"><ele>106.0</ele><time>2026-04-26T09:05:13Z</time></trkpt><trkpt lat="45.61514660569221" lon="10.8541439959695"><ele>106.0</ele><time>2026-04-26T09:05:14Z</time></trkpt><trkpt lat="45.61507671858606" lon="10.854129284212448"><ele>106.0</ele><time>2026-04-26T09:05:15Z</time></trkpt><trkpt lat="45.61500097243615" lon="10.854124598132561"><ele>106.0</ele><time>2026-04-26T09:05:16Z</time></trkpt><trkpt lat="45.614935193993034" lon="10.854117402138817"><ele>106.0</ele><time>2026-04-26T09:05:17Z</time></trkpt><trkpt lat="45.614856805382416" lon="10.85412051563402"><ele>106.0</ele><time>2026-04-26T09:05:18Z</time></trkpt><trkpt lat="45.6147786436579" lon="10.85412371952946"><ele>106.0</ele><time>2026-04-26T09:05:19Z</time></trkpt><trkpt lat="45.614700229082764" lon="10.854125558570885"><ele>106.0</ele><time>2026-04-26T09:05:20Z</time></trkpt><trkpt lat="45.614625600653504" lon="10.854130679332114"><ele>106.0</ele><time>2026-04-26T09:05:21Z</time></trkpt><trkpt lat="45.614555831649206" lon="10.854129665002317"><ele>106.0</ele><time>2026-04-26T09:05:22Z</time></trkpt><trkpt lat="45.6144877754947" lon="10.85413055906045"><ele>106.0</ele><time>2026-04-26T09:05:23Z</time></trkpt><trkpt lat="45.614413900478255" lon="10.854122838739347"><ele>106.0</ele><time>2026-04-26T09:05:24Z</time></trkpt><trkpt lat="45.61434676052759" lon="10.854113793373884"><ele>106.50000000000001</ele><time>2026-04-26T09:05:25Z</time></trkpt><trkpt lat="45.614218315538146" lon="10.854112402583382"><ele>107.0</ele><time>2026-04-26T09:05:27Z</time></trkpt><trkpt lat="45.61414651537486" lon="10.854096781252364"><ele>107.5</ele><time>2026-04-26T09:05:28Z</time></trkpt><trkpt lat="45.61407984877188" lon="10.854108986445953"><ele>108.0</ele><time>2026-04-26T09:05:29Z</time></trkpt><trkpt lat="45.61401007936904" lon="10.854114997477637"><ele>108.50000000000001</ele><time>2026-04-26T09:05:30Z</time></trkpt><trkpt lat="45.613945017081925" lon="10.8541155332221"><ele>109.0</ele><time>2026-04-26T09:05:31Z</time></trkpt><trkpt lat="45.61387354542895" lon="10.854112719211487"><ele>109.00000000000001</ele><time>2026-04-26T09:05:32Z</time></trkpt><trkpt lat="45.61380142639342" lon="10.854120988363402"><ele>109.0</ele><time>2026-04-26T09:05:33Z</time></trkpt><trkpt lat="45.61373333107177" lon="10.854112229882258"><ele>109.0</ele><time>2026-04-26T09:05:34Z</time></trkpt><trkpt lat="45.613660030005846" lon="10.854127014811827"><ele>109.0</ele><time>2026-04-26T09:05:35Z</time></trkpt><trkpt lat="45.61356228595658" lon="10.854126838807774"><ele>109.00000000000001</ele><time>2026-04-26T09:05:36Z</time></trkpt><trkpt lat="45.61346117071215" lon="10.85412496376721"><ele>109.0</ele><time>2026-04-26T09:05:37Z</time></trkpt><trkpt lat="45.61337595933789" lon="10.85413109822063"><ele>108.42857142857143</ele><time>2026-04-26T09:05:38Z</time></trkpt><trkpt lat="45.61330982860244" lon="10.854130349224807"><ele>107.85714285714286</ele><time>2026-04-26T09:05:39Z</time></trkpt><trkpt lat="45.6132399192554" lon="10.854146724953639"><ele>107.28571428571428</ele><time>2026-04-26T09:05:40Z</time></trkpt><trkpt lat="45.61316512013143" lon="10.854169989476556"><ele>106.71428571428572</ele><time>2026-04-26T09:05:41Z</time></trkpt><trkpt lat="45.6130960658999" lon="10.85420804989099"><ele>106.14285714285714</ele><time>2026-04-26T09:05:42Z</time></trkpt><trkpt lat="45.61301868884615" lon="10.854221897562804"><ele>105.57142857142857</ele><time>2026-04-26T09:05:43Z</time></trkpt><trkpt lat="45.61294505891546" lon="10.854234798694801"><ele>105.0</ele><time>2026-04-26T09:05:44Z</time></trkpt><trkpt lat="45.612869988366384" lon="10.85424578052732"><ele>105.33333333333333</ele><time>2026-04-26T09:05:45Z</time></trkpt><trkpt lat="45.61279556898078" lon="10.854278782300867"><ele>105.66666666666666</ele><time>2026-04-26T09:05:46Z</time></trkpt><trkpt lat="45.61271941450278" lon="10.85428213198792"><ele>106.0</ele><time>2026-04-26T09:05:47Z</time></trkpt><trkpt lat="45.612657374175456" lon="10.854303286192108"><ele>106.33333333333333</ele><time>2026-04-26T09:05:48Z</time></trkpt><trkpt lat="45.61259457778098" lon="10.854318729160564"><ele>106.66666666666666</ele><time>2026-04-26T09:05:49Z</time></trkpt><trkpt lat="45.61248536982911" lon="10.854378228851846"><ele>107.0</ele><time>2026-04-26T09:05:51Z</time></trkpt><trkpt lat="45.6124315235304" lon="10.854425957108978"><ele>107.49999999999999</ele><time>2026-04-26T09:05:52Z</time></trkpt><trkpt lat="45.612368533483085" lon="10.854449737285506"><ele>108.0</ele><time>2026-04-26T09:05:53Z</time></trkpt><trkpt lat="45.61229698101957" lon="10.854470485530088"><ele>108.5</ele><time>2026-04-26T09:05:54Z</time></trkpt><trkpt lat="45.612208423893456" lon="10.85449619060688"><ele>109.0</ele><time>2026-04-26T09:05:55Z</time></trkpt><trkpt lat="45.612122700626344" lon="10.854515792343722"><ele>109.49999999999999</ele><time>2026-04-26T09:05:56Z</time></trkpt><trkpt lat="45.6120423221601" lon="10.854540833029457"><ele>110.0</ele><time>2026-04-26T09:05:57Z</time></trkpt><trkpt lat="45.61197012434284" lon="10.854563672892056"><ele>109.99999999999999</ele><time>2026-04-26T09:05:58Z</time></trkpt><trkpt lat="45.61189215506962" lon="10.854589223364881"><ele>110.0</ele><time>2026-04-26T09:05:59Z</time></trkpt><trkpt lat="45.61180403067688" lon="10.854612691573301"><ele>110.0</ele><time>2026-04-26T09:06:00Z</time></trkpt><trkpt lat="45.61172409830379" lon="10.854642515063274"><ele>110.0</ele><time>2026-04-26T09:06:01Z</time></trkpt><trkpt lat="45.61164500977168" lon="10.854674320730632"><ele>109.99999999999999</ele><time>2026-04-26T09:06:02Z</time></trkpt><trkpt lat="45.61156337156761" lon="10.854704796992788"><ele>110.0</ele><time>2026-04-26T09:06:03Z</time></trkpt><trkpt lat="45.6114953946444" lon="10.854734814581072"><ele>109.99999999999999</ele><time>2026-04-26T09:06:04Z</time></trkpt><trkpt lat="45.61142390179357" lon="10.85476616562124"><ele>110.0</ele><time>2026-04-26T09:06:05Z</time></trkpt><trkpt lat="45.61134289991552" lon="10.854794676113201"><ele>110.0</ele><time>2026-04-26T09:06:06Z</time></trkpt><trkpt lat="45.61126204702592" lon="10.854828790270153"><ele>110.0</ele><time>2026-04-26T09:06:07Z</time></trkpt><trkpt lat="45.61118398059291" lon="10.854873140310652"><ele>109.99999999999999</ele><time>2026-04-26T09:06:08Z</time></trkpt><trkpt lat="45.61110688489704" lon="10.854905452313567"><ele>110.0</ele><time>2026-04-26T09:06:09Z</time></trkpt><trkpt lat="45.61103344796128" lon="10.854943226010292"><ele>109.49999999999999</ele><time>2026-04-26T09:06:10Z</time></trkpt><trkpt lat="45.61095927345994" lon="10.85498968526401"><ele>109.0</ele><time>2026-04-26T09:06:11Z</time></trkpt><trkpt lat="45.61088480224671" lon="10.8550386339692"><ele>108.5</ele><time>2026-04-26T09:06:12Z</time></trkpt><trkpt lat="45.61082527948877" lon="10.855089527722033"><ele>108.0</ele><time>2026-04-26T09:06:13Z</time></trkpt><trkpt lat="45.6107662093042" lon="10.855140999944021"><ele>107.49999999999999</ele><time>2026-04-26T09:06:14Z</time></trkpt><trkpt lat="45.610710158371305" lon="10.85518519896725"><ele>107.0</ele><time>2026-04-26T09:06:15Z</time></trkpt><trkpt lat="45.61063326149631" lon="10.855251456269121"><ele>108.49999999999999</ele><time>2026-04-26T09:06:17Z</time></trkpt><trkpt lat="45.610588008622024" lon="10.855336614161832"><ele>110.0</ele><time>2026-04-26T09:06:21Z</time></trkpt><trkpt lat="45.610548046359796" lon="10.855448577992652"><ele>111.5</ele><time>2026-04-26T09:06:29Z</time></trkpt><trkpt lat="45.610521162919575" lon="10.855535101669613"><ele>113.0</ele><time>2026-04-26T09:06:31Z</time></trkpt><trkpt lat="45.61050293774957" lon="10.855635484611284"><ele>114.49999999999999</ele><time>2026-04-26T09:06:33Z</time></trkpt><trkpt lat="45.61049719712267" lon="10.85575464789142"><ele>116.0</ele><time>2026-04-26T09:06:35Z</time></trkpt><trkpt lat="45.61049544047122" lon="10.855864825885401"><ele>116.33333333333333</ele><time>2026-04-26T09:06:37Z</time></trkpt><trkpt lat="45.61047589996869" lon="10.856005139272416"><ele>116.66666666666666</ele><time>2026-04-26T09:06:39Z</time></trkpt><trkpt lat="45.61045159024823" lon="10.85617491236848"><ele>117.0</ele><time>2026-04-26T09:06:41Z</time></trkpt><trkpt lat="45.61043653992474" lon="10.85626715215272"><ele>117.33333333333334</ele><time>2026-04-26T09:06:42Z</time></trkpt><trkpt lat="45.610425489386316" lon="10.856360256405946"><ele>117.66666666666667</ele><time>2026-04-26T09:06:43Z</time></trkpt><trkpt lat="45.61041150964134" lon="10.856454864081293"><ele>118.0</ele><time>2026-04-26T09:06:44Z</time></trkpt><trkpt lat="45.61039777395172" lon="10.85654529842167"><ele>118.00000000000001</ele><time>2026-04-26T09:06:45Z</time></trkpt><trkpt lat="45.61036999564429" lon="10.856661383559016"><ele>118.0</ele><time>2026-04-26T09:06:47Z</time></trkpt><trkpt lat="45.6103191702273" lon="10.856758517021648"><ele>118.0</ele><time>2026-04-26T09:06:49Z</time></trkpt><trkpt lat="45.61025112677138" lon="10.856852987108764"><ele>118.0</ele><time>2026-04-26T09:06:51Z</time></trkpt><trkpt lat="45.610205781399884" lon="10.856938601433209"><ele>118.00000000000001</ele><time>2026-04-26T09:06:53Z</time></trkpt><trkpt lat="45.61015235887396" lon="10.857001662337101"><ele>118.0</ele><time>2026-04-26T09:06:57Z</time></trkpt><trkpt lat="45.61015577117954" lon="10.857238878869389"><ele>117.83333333333334</ele><time>2026-04-26T09:07:00Z</time></trkpt><trkpt lat="45.61025499079808" lon="10.857334048823883"><ele>117.66666666666667</ele><time>2026-04-26T09:07:02Z</time></trkpt><trkpt lat="45.6103278206167" lon="10.857398578540627"><ele>117.5</ele><time>2026-04-26T09:07:04Z</time></trkpt><trkpt lat="45.61039025811142" lon="10.85741602300521"><ele>117.33333333333334</ele><time>2026-04-26T09:07:06Z</time></trkpt><trkpt lat="45.610487490923006" lon="10.857428285363973"><ele>117.16666666666667</ele><time>2026-04-26T09:09:56Z</time></trkpt><trkpt lat="45.610523034090086" lon="10.857526359276612"><ele>117.0</ele><time>2026-04-26T09:10:13Z</time></trkpt><trkpt lat="45.61057791848427" lon="10.857575183703664"><ele>116.83333333333333</ele><time>2026-04-26T09:12:10Z</time></trkpt><trkpt lat="45.6106265512561" lon="10.85764163751407"><ele>116.66666666666666</ele><time>2026-04-26T09:12:17Z</time></trkpt><trkpt lat="45.61068460592464" lon="10.85768328625084"><ele>116.5</ele><time>2026-04-26T09:12:24Z</time></trkpt><trkpt lat="45.610649741575365" lon="10.857761893716294"><ele>116.33333333333333</ele><time>2026-04-26T09:12:35Z</time></trkpt><trkpt lat="45.61071866124666" lon="10.857668218501322"><ele>116.16666666666666</ele><time>2026-04-26T09:18:31Z</time></trkpt><trkpt lat="45.610784205072505" lon="10.857642467779733"><ele>116.0</ele><time>2026-04-26T09:18:38Z</time></trkpt><trkpt lat="45.610899173868276" lon="10.857646877345768"><ele>116.00000000000001</ele><time>2026-04-26T09:19:20Z</time></trkpt><trkpt lat="45.61088160633582" lon="10.857552327533385"><ele>116.0</ele><time>2026-04-26T09:20:16.001Z</time></trkpt><trkpt lat="45.61090501234081" lon="10.857637598956705"><ele>116.00000000000001</ele><time>2026-04-26T09:31:27.999Z</time></trkpt><trkpt lat="45.610836455484005" lon="10.857664627896542"><ele>116.00000000000001</ele><time>2026-04-26T09:31:58.999Z</time></trkpt><trkpt lat="45.61077274389361" lon="10.857648196954935"><ele>116.0</ele><time>2026-04-26T09:33:52.999Z</time></trkpt><trkpt lat="45.61071213420297" lon="10.857684193175782"><ele>116.00000000000001</ele><time>2026-04-26T09:33:56.999Z</time></trkpt><trkpt lat="45.610652118208066" lon="10.857641609202547"><ele>116.00000000000001</ele><time>2026-04-26T09:34:01.999Z</time></trkpt><trkpt lat="45.610596652376515" lon="10.857598986174555"><ele>116.00000000000001</ele><time>2026-04-26T09:34:05.999Z</time></trkpt><trkpt lat="45.610536459741994" lon="10.857557940785739"><ele>116.0</ele><time>2026-04-26T09:34:11Z</time></trkpt><trkpt lat="45.61047782535071" lon="10.857503889430612"><ele>116.00000000000001</ele><time>2026-04-26T09:34:16Z</time></trkpt><trkpt lat="45.61043932925601" lon="10.857426942736026"><ele>116.00000000000001</ele><time>2026-04-26T09:34:23Z</time></trkpt><trkpt lat="45.6103531141169" lon="10.857377644989295"><ele>116.0</ele><time>2026-04-26T09:37:31.999Z</time></trkpt><trkpt lat="45.61032729583281" lon="10.857280083897471"><ele>116.00000000000001</ele><time>2026-04-26T09:37:33.999Z</time></trkpt><trkpt lat="45.610360066636474" lon="10.857185409066213"><ele>116.00000000000001</ele><time>2026-04-26T09:37:35.999Z</time></trkpt><trkpt lat="45.610276727502736" lon="10.857115609143579"><ele>116.0</ele><time>2026-04-26T09:38:06.999Z</time></trkpt><trkpt lat="45.610222672969535" lon="10.857062032391141"><ele>116.0</ele><time>2026-04-26T09:38:07.999Z</time></trkpt><trkpt lat="45.61010928948453" lon="10.857032177140216"><ele>116.0</ele><time>2026-04-26T09:38:09.999Z</time></trkpt><trkpt lat="45.60999541250623" lon="10.857031467514688"><ele>116.0</ele><time>2026-04-26T09:38:11.999Z</time></trkpt><trkpt lat="45.609884818630654" lon="10.857043421554868"><ele>116.0</ele><time>2026-04-26T09:38:13.999Z</time></trkpt><trkpt lat="45.60974850990023" lon="10.857061298707448"><ele>115.99999999999999</ele><time>2026-04-26T09:38:15.999Z</time></trkpt><trkpt lat="45.609678103493515" lon="10.85707411325309"><ele>116.0</ele><time>2026-04-26T09:38:16.999Z</time></trkpt><trkpt lat="45.60961211163139" lon="10.857095190438066"><ele>116.0</ele><time>2026-04-26T09:38:17.999Z</time></trkpt><trkpt lat="45.6095491072108" lon="10.857102662556752"><ele>116.0</ele><time>2026-04-26T09:38:18.999Z</time></trkpt><trkpt lat="45.6094328732329" lon="10.857103142638614"><ele>115.99999999999999</ele><time>2026-04-26T09:38:20.999Z</time></trkpt><trkpt lat="45.60935780733415" lon="10.857106382320667"><ele>116.0</ele><time>2026-04-26T09:38:21.999Z</time></trkpt><trkpt lat="45.60927663350858" lon="10.857106358375727"><ele>115.83333333333333</ele><time>2026-04-26T09:38:22.999Z</time></trkpt><trkpt lat="45.609201350085826" lon="10.857095955859936"><ele>115.66666666666666</ele><time>2026-04-26T09:38:23.999Z</time></trkpt><trkpt lat="45.60912609429681" lon="10.857069705538303"><ele>115.5</ele><time>2026-04-26T09:38:24.999Z</time></trkpt><trkpt lat="45.60905034515632" lon="10.857031772929863"><ele>115.33333333333334</ele><time>2026-04-26T09:38:25.999Z</time></trkpt><trkpt lat="45.60898190564608" lon="10.856989691376043"><ele>115.16666666666667</ele><time>2026-04-26T09:38:26.999Z</time></trkpt><trkpt lat="45.60890545435572" lon="10.856954098267723"><ele>115.0</ele><time>2026-04-26T09:38:27.999Z</time></trkpt><trkpt lat="45.608825106581726" lon="10.856920416078973"><ele>115.00000000000001</ele><time>2026-04-26T09:38:28.999Z</time></trkpt><trkpt lat="45.60873558293061" lon="10.856889422500085"><ele>115.0</ele><time>2026-04-26T09:38:29.999Z</time></trkpt><trkpt lat="45.608653139802364" lon="10.856855383189817"><ele>115.0</ele><time>2026-04-26T09:38:30.999Z</time></trkpt><trkpt lat="45.608575024241894" lon="10.85682644580774"><ele>115.0</ele><time>2026-04-26T09:38:31.999Z</time></trkpt><trkpt lat="45.6084988166963" lon="10.856788520622422"><ele>115.00000000000001</ele><time>2026-04-26T09:38:32.999Z</time></trkpt><trkpt lat="45.60842187291259" lon="10.856751577855556"><ele>115.0</ele><time>2026-04-26T09:38:33.999Z</time></trkpt><trkpt lat="45.60834234050016" lon="10.856714328814874"><ele>113.66666666666667</ele><time>2026-04-26T09:38:34.999Z</time></trkpt><trkpt lat="45.60825700563794" lon="10.856677150607457"><ele>112.33333333333334</ele><time>2026-04-26T09:38:35.999Z</time></trkpt><trkpt lat="45.608171788667185" lon="10.856632966604321"><ele>111.0</ele><time>2026-04-26T09:38:36.999Z</time></trkpt><trkpt lat="45.60808624914071" lon="10.856587248314433"><ele>109.66666666666666</ele><time>2026-04-26T09:38:37.999Z</time></trkpt><trkpt lat="45.60801200863673" lon="10.856544135988848"><ele>108.33333333333333</ele><time>2026-04-26T09:38:38.999Z</time></trkpt><trkpt lat="45.607938973266556" lon="10.856502711807952"><ele>107.0</ele><time>2026-04-26T09:38:39.999Z</time></trkpt><trkpt lat="45.60786623373752" lon="10.85645637568122"><ele>107.39999999999999</ele><time>2026-04-26T09:38:40.999Z</time></trkpt><trkpt lat="45.60780140155374" lon="10.856411827107072"><ele>107.79999999999998</ele><time>2026-04-26T09:38:41.999Z</time></trkpt><trkpt lat="45.60772954395882" lon="10.856325659097397"><ele>108.2</ele><time>2026-04-26T09:38:43.999Z</time></trkpt><trkpt lat="45.60757590590865" lon="10.856515936213132"><ele>108.6</ele><time>2026-04-26T09:38:48.999Z</time></trkpt><trkpt lat="45.6075390349637" lon="10.856594666485806"><ele>109.0</ele><time>2026-04-26T09:38:49.999Z</time></trkpt><trkpt lat="45.60751612887479" lon="10.856696509879953"><ele>109.0</ele><time>2026-04-26T09:38:50.999Z</time></trkpt><trkpt lat="45.60746001292075" lon="10.856780853014419"><ele>109.0</ele><time>2026-04-26T09:38:52.999Z</time></trkpt><trkpt lat="45.60735244058808" lon="10.856689334482889"><ele>109.0</ele><time>2026-04-26T09:38:54.999Z</time></trkpt><trkpt lat="45.607284838489505" lon="10.856650057395004"><ele>109.0</ele><time>2026-04-26T09:38:55.999Z</time></trkpt><trkpt lat="45.60719642311715" lon="10.856644191264747"><ele>109.0</ele><time>2026-04-26T09:38:57.999Z</time></trkpt><trkpt lat="45.60708511216947" lon="10.856652671078336"><ele>109.0</ele><time>2026-04-26T09:38:59.999Z</time></trkpt><trkpt lat="45.6070033578788" lon="10.856589394953774"><ele>109.0</ele><time>2026-04-26T09:39:00.999Z</time></trkpt><trkpt lat="45.60691293497758" lon="10.856509086048904"><ele>109.0</ele><time>2026-04-26T09:39:01.999Z</time></trkpt><trkpt lat="45.60680813746279" lon="10.856418508219909"><ele>109.0</ele><time>2026-04-26T09:39:02.999Z</time></trkpt><trkpt lat="45.60668900988512" lon="10.856324146192014"><ele>109.25</ele><time>2026-04-26T09:39:03.999Z</time></trkpt><trkpt lat="45.606569753164905" lon="10.856224547851133"><ele>109.5</ele><time>2026-04-26T09:39:04.999Z</time></trkpt><trkpt lat="45.60645030662016" lon="10.856126884155113"><ele>109.75</ele><time>2026-04-26T09:39:05.999Z</time></trkpt><trkpt lat="45.60633112395817" lon="10.856016795996297"><ele>110.0</ele><time>2026-04-26T09:39:06.999Z</time></trkpt><trkpt lat="45.60621452975941" lon="10.855893922049917"><ele>112.5</ele><time>2026-04-26T09:39:07.999Z</time></trkpt><trkpt lat="45.606100926833655" lon="10.855759628565933"><ele>115.0</ele><time>2026-04-26T09:39:08.999Z</time></trkpt><trkpt lat="45.60599901486519" lon="10.85561223994387"><ele>117.5</ele><time>2026-04-26T09:39:09.999Z</time></trkpt><trkpt lat="45.605901561619156" lon="10.855462476101641"><ele>120.0</ele><time>2026-04-26T09:39:10.999Z</time></trkpt><trkpt lat="45.605805762834336" lon="10.855305265506633"><ele>120.0</ele><time>2026-04-26T09:39:11.999Z</time></trkpt><trkpt lat="45.60571255350275" lon="10.855140549397468"><ele>120.0</ele><time>2026-04-26T09:39:12.999Z</time></trkpt><trkpt lat="45.60561528698572" lon="10.85496725566148"><ele>120.0</ele><time>2026-04-26T09:39:13.999Z</time></trkpt><trkpt lat="45.60550884575351" lon="10.854798052327823"><ele>121.33333333333334</ele><time>2026-04-26T09:39:14.999Z</time></trkpt><trkpt lat="45.605390447171594" lon="10.854649203758976"><ele>122.66666666666667</ele><time>2026-04-26T09:39:15.999Z</time></trkpt><trkpt lat="45.605264509856" lon="10.85451138273901"><ele>124.0</ele><time>2026-04-26T09:39:16.999Z</time></trkpt><trkpt lat="45.60513495639036" lon="10.854375864267782"><ele>121.0</ele><time>2026-04-26T09:39:17.999Z</time></trkpt><trkpt lat="45.605003326206315" lon="10.854241504273988"><ele>118.0</ele><time>2026-04-26T09:39:18.999Z</time></trkpt><trkpt lat="45.60487499332852" lon="10.854101871110348"><ele>115.0</ele><time>2026-04-26T09:39:19.999Z</time></trkpt><trkpt lat="45.60474922141093" lon="10.853955585027549"><ele>115.0</ele><time>2026-04-26T09:39:20.999Z</time></trkpt><trkpt lat="45.604621874316386" lon="10.85381098079097"><ele>115.0</ele><time>2026-04-26T09:39:21.999Z</time></trkpt><trkpt lat="45.604494102376876" lon="10.853667170174711"><ele>115.0</ele><time>2026-04-26T09:39:22.999Z</time></trkpt><trkpt lat="45.604365268425234" lon="10.85352219578715"><ele>115.33333333333334</ele><time>2026-04-26T09:39:23.999Z</time></trkpt><trkpt lat="45.604232829110984" lon="10.853380805593007"><ele>115.66666666666666</ele><time>2026-04-26T09:39:24.999Z</time></trkpt><trkpt lat="45.60409865712154" lon="10.853252149540232"><ele>116.0</ele><time>2026-04-26T09:39:25.999Z</time></trkpt><trkpt lat="45.603961198771046" lon="10.853121378263333"><ele>116.0</ele><time>2026-04-26T09:39:26.999Z</time></trkpt><trkpt lat="45.603810269656734" lon="10.853002823312533"><ele>116.0</ele><time>2026-04-26T09:39:27.999Z</time></trkpt><trkpt lat="45.603646429352125" lon="10.852892091730153"><ele>116.0</ele><time>2026-04-26T09:39:28.999Z</time></trkpt><trkpt lat="45.603474617390745" lon="10.852788401059899"><ele>115.66666666666666</ele><time>2026-04-26T09:39:29.999Z</time></trkpt><trkpt lat="45.60329526530656" lon="10.852688355075735"><ele>115.33333333333334</ele><time>2026-04-26T09:39:30.999Z</time></trkpt><trkpt lat="45.60311808648714" lon="10.852595913358376"><ele>115.0</ele><time>2026-04-26T09:39:31.999Z</time></trkpt><trkpt lat="45.60294585198825" lon="10.852507864170905"><ele>115.0</ele><time>2026-04-26T09:39:32.999Z</time></trkpt><trkpt lat="45.60277636820173" lon="10.852420236218947"><ele>115.0</ele><time>2026-04-26T09:39:33.999Z</time></trkpt><trkpt lat="45.602612988741285" lon="10.852336327671608"><ele>115.0</ele><time>2026-04-26T09:39:34.999Z</time></trkpt><trkpt lat="45.60245242307803" lon="10.852253845914717"><ele>115.0</ele><time>2026-04-26T09:39:35.999Z</time></trkpt><trkpt lat="45.60229115188141" lon="10.852171767374509"><ele>115.0</ele><time>2026-04-26T09:39:36.999Z</time></trkpt><trkpt lat="45.602133789158835" lon="10.852089342658667"><ele>115.0</ele><time>2026-04-26T09:39:37.999Z</time></trkpt><trkpt lat="45.60198206001293" lon="10.852006008382544"><ele>115.25</ele><time>2026-04-26T09:39:38.999Z</time></trkpt><trkpt lat="45.60183866916473" lon="10.851918317407039"><ele>115.5</ele><time>2026-04-26T09:39:39.999Z</time></trkpt><trkpt lat="45.60170552802846" lon="10.851825142573738"><ele>115.75</ele><time>2026-04-26T09:39:40.999Z</time></trkpt><trkpt lat="45.601583676177" lon="10.851736160644698"><ele>116.0</ele><time>2026-04-26T09:39:41.999Z</time></trkpt><trkpt lat="45.60147187019812" lon="10.851652332760768"><ele>115.49999999999999</ele><time>2026-04-26T09:39:42.999Z</time></trkpt><trkpt lat="45.60138044558199" lon="10.851582967654508"><ele>115.0</ele><time>2026-04-26T09:39:43.999Z</time></trkpt><trkpt lat="45.60130349739727" lon="10.85152379873583"><ele>114.5</ele><time>2026-04-26T09:39:44.999Z</time></trkpt><trkpt lat="45.60124746093871" lon="10.851476685341424"><ele>114.0</ele><time>2026-04-26T09:39:45.999Z</time></trkpt><trkpt lat="45.60123703822919" lon="10.851366458616154"><ele>113.49999999999999</ele><time>2026-04-26T09:39:47.999Z</time></trkpt><trkpt lat="45.601332913426404" lon="10.851289880090945"><ele>113.0</ele><time>2026-04-26T09:39:49.999Z</time></trkpt><trkpt lat="45.60138645057839" lon="10.85122049483534"><ele>112.99999999999999</ele><time>2026-04-26T09:39:50.999Z</time></trkpt><trkpt lat="45.60144215144482" lon="10.851176260713576"><ele>113.0</ele><time>2026-04-26T09:39:51.999Z</time></trkpt><trkpt lat="45.601545852938365" lon="10.85115160482004"><ele>113.0</ele><time>2026-04-26T09:39:53.999Z</time></trkpt><trkpt lat="45.60158934034199" lon="10.851068373870532"><ele>113.0</ele><time>2026-04-26T09:39:54.999Z</time></trkpt><trkpt lat="45.60165188910101" lon="10.851002283872186"><ele>112.99999999999999</ele><time>2026-04-26T09:39:55.999Z</time></trkpt><trkpt lat="45.6017189558687" lon="10.850924206109607"><ele>113.0</ele><time>2026-04-26T09:39:56.999Z</time></trkpt><trkpt lat="45.601763899307585" lon="10.850854714312371"><ele>112.83333333333333</ele><time>2026-04-26T09:39:57.999Z</time></trkpt><trkpt lat="45.60182938511315" lon="10.850791491016443"><ele>112.66666666666666</ele><time>2026-04-26T09:39:59.999Z</time></trkpt><trkpt lat="45.601879744664544" lon="10.850710327722705"><ele>112.5</ele><time>2026-04-26T09:40:01.999Z</time></trkpt><trkpt lat="45.60191909045661" lon="10.85063569534286"><ele>112.33333333333334</ele><time>2026-04-26T09:40:02.999Z</time></trkpt><trkpt lat="45.601948188175996" lon="10.850471363322963"><ele>112.16666666666667</ele><time>2026-04-26T09:40:04.999Z</time></trkpt><trkpt lat="45.601899675652575" lon="10.850378187698986"><ele>112.0</ele><time>2026-04-26T09:40:05.999Z</time></trkpt><trkpt lat="45.601814111721815" lon="10.850330960579754"><ele>112.0</ele><time>2026-04-26T09:40:06.999Z</time></trkpt><trkpt lat="45.601731998409385" lon="10.85029217113637"><ele>111.99999999999999</ele><time>2026-04-26T09:40:07.999Z</time></trkpt><trkpt lat="45.60164112641474" lon="10.850252145793933"><ele>111.99999999999999</ele><time>2026-04-26T09:40:08.999Z</time></trkpt><trkpt lat="45.601539415575466" lon="10.85021845755248"><ele>112.0</ele><time>2026-04-26T09:40:09.999Z</time></trkpt><trkpt lat="45.60143040959251" lon="10.850191798025703"><ele>112.0</ele><time>2026-04-26T09:40:10.999Z</time></trkpt><trkpt lat="45.60131630960094" lon="10.850173730173752"><ele>112.0</ele><time>2026-04-26T09:40:11.999Z</time></trkpt><trkpt lat="45.601190993827416" lon="10.850165678873928"><ele>112.0</ele><time>2026-04-26T09:40:12.999Z</time></trkpt><trkpt lat="45.601055519535095" lon="10.850142436195394"><ele>112.0</ele><time>2026-04-26T09:40:13.999Z</time></trkpt><trkpt lat="45.6009159700077" lon="10.850104019047931"><ele>112.0</ele><time>2026-04-26T09:40:14.999Z</time></trkpt><trkpt lat="45.60077891123999" lon="10.850057089048764"><ele>112.0</ele><time>2026-04-26T09:40:15.999Z</time></trkpt><trkpt lat="45.6006460447176" lon="10.850014256110871"><ele>112.0</ele><time>2026-04-26T09:40:16.999Z</time></trkpt><trkpt lat="45.60051418328781" lon="10.849971205038793"><ele>112.0</ele><time>2026-04-26T09:40:17.999Z</time></trkpt><trkpt lat="45.600391435095645" lon="10.849931868337997"><ele>112.0</ele><time>2026-04-26T09:40:18.999Z</time></trkpt><trkpt lat="45.60027868243736" lon="10.849898712601016"><ele>111.50000000000001</ele><time>2026-04-26T09:40:19.999Z</time></trkpt><trkpt lat="45.60017915401208" lon="10.849870013625056"><ele>111.0</ele><time>2026-04-26T09:40:20.999Z</time></trkpt><trkpt lat="45.60009403918081" lon="10.849841781542185"><ele>110.5</ele><time>2026-04-26T09:40:21.999Z</time></trkpt><trkpt lat="45.60001410537518" lon="10.84981435064062"><ele>110.0</ele><time>2026-04-26T09:40:22.999Z</time></trkpt><trkpt lat="45.59995353164459" lon="10.849786857978115"><ele>109.50000000000001</ele><time>2026-04-26T09:40:23.999Z</time></trkpt><trkpt lat="45.59990369961391" lon="10.84971812377753"><ele>109.0</ele><time>2026-04-26T09:40:25.999Z</time></trkpt><trkpt lat="45.59986457820376" lon="10.849562585813421"><ele>109.0</ele><time>2026-04-26T09:40:29.998Z</time></trkpt><trkpt lat="45.599881828340294" lon="10.849474750463083"><ele>109.0</ele><time>2026-04-26T09:40:30.998Z</time></trkpt><trkpt lat="45.59991387747506" lon="10.84936390718806"><ele>109.0</ele><time>2026-04-26T09:40:31.998Z</time></trkpt><trkpt lat="45.59995789065508" lon="10.84921520472943"><ele>109.0</ele><time>2026-04-26T09:40:32.998Z</time></trkpt><trkpt lat="45.60000063756124" lon="10.8490590715017"><ele>109.0</ele><time>2026-04-26T09:40:33.998Z</time></trkpt><trkpt lat="45.600044824718225" lon="10.848895798943024"><ele>108.5</ele><time>2026-04-26T09:40:34.998Z</time></trkpt><trkpt lat="45.600095581697104" lon="10.848731977876334"><ele>108.0</ele><time>2026-04-26T09:40:35.998Z</time></trkpt><trkpt lat="45.600146025313585" lon="10.848573522907392"><ele>107.5</ele><time>2026-04-26T09:40:36.999Z</time></trkpt><trkpt lat="45.600198221527776" lon="10.848426674191236"><ele>107.0</ele><time>2026-04-26T09:40:37.999Z</time></trkpt><trkpt lat="45.6002453606522" lon="10.848293692669722"><ele>106.8</ele><time>2026-04-26T09:40:38.999Z</time></trkpt><trkpt lat="45.600298782506975" lon="10.848164466285455"><ele>106.6</ele><time>2026-04-26T09:40:39.999Z</time></trkpt><trkpt lat="45.60034610161487" lon="10.848038717878854"><ele>106.39999999999999</ele><time>2026-04-26T09:40:40.999Z</time></trkpt><trkpt lat="45.60038704581141" lon="10.847922847640108"><ele>106.19999999999999</ele><time>2026-04-26T09:40:41.999Z</time></trkpt><trkpt lat="45.60042513095577" lon="10.847814890254803"><ele>106.0</ele><time>2026-04-26T09:40:42.999Z</time></trkpt><trkpt lat="45.600490375838284" lon="10.847730647467575"><ele>105.8</ele><time>2026-04-26T09:40:44.999Z</time></trkpt><trkpt lat="45.60055752304522" lon="10.847624447600994"><ele>105.6</ele><time>2026-04-26T09:40:47.999Z</time></trkpt><trkpt lat="45.60064308653208" lon="10.847540838839198"><ele>105.4</ele><time>2026-04-26T09:40:49.999Z</time></trkpt><trkpt lat="45.600734615398075" lon="10.847399149425886"><ele>105.2</ele><time>2026-04-26T09:40:51.999Z</time></trkpt><trkpt lat="45.600823470656245" lon="10.847394612749094"><ele>105.0</ele><time>2026-04-26T09:40:52.999Z</time></trkpt><trkpt lat="45.60089003814232" lon="10.847310706050832"><ele>105.0</ele><time>2026-04-26T09:40:54.999Z</time></trkpt><trkpt lat="45.600900751033286" lon="10.847192006438597"><ele>105.0</ele><time>2026-04-26T09:40:56.999Z</time></trkpt><trkpt lat="45.600877722096" lon="10.84705087659615"><ele>105.0</ele><time>2026-04-26T09:40:58.999Z</time></trkpt><trkpt lat="45.60094452726231" lon="10.847092722987869"><ele>105.0</ele><time>2026-04-26T09:41:21.999Z</time></trkpt><trkpt lat="45.6009176026643" lon="10.847204053632435"><ele>105.0</ele><time>2026-04-26T09:41:24.999Z</time></trkpt><trkpt lat="45.60087670758916" lon="10.847308531118122"><ele>105.0</ele><time>2026-04-26T09:41:27.999Z</time></trkpt><trkpt lat="45.600801301135945" lon="10.847411165077304"><ele>105.0</ele><time>2026-04-26T09:41:29.999Z</time></trkpt><trkpt lat="45.60072681958118" lon="10.847482396363405"><ele>105.0</ele><time>2026-04-26T09:41:31.999Z</time></trkpt><trkpt lat="45.60062682144047" lon="10.847472702944568"><ele>105.0</ele><time>2026-04-26T09:41:33.999Z</time></trkpt><trkpt lat="45.60051597746448" lon="10.84724437164418"><ele>105.0</ele><time>2026-04-26T09:41:40.999Z</time></trkpt><trkpt lat="45.60046858897081" lon="10.847157383814537"><ele>105.0</ele><time>2026-04-26T09:41:41.999Z</time></trkpt><trkpt lat="45.60041337431332" lon="10.847068138394484"><ele>105.0</ele><time>2026-04-26T09:41:42.999Z</time></trkpt><trkpt lat="45.60034642398124" lon="10.846980307895501"><ele>105.0</ele><time>2026-04-26T09:41:43.999Z</time></trkpt><trkpt lat="45.60027595773775" lon="10.846900451560222"><ele>105.0</ele><time>2026-04-26T09:41:44.999Z</time></trkpt><trkpt lat="45.60021212846406" lon="10.846806390859175"><ele>105.0</ele><time>2026-04-26T09:41:45.999Z</time></trkpt><trkpt lat="45.60015177565478" lon="10.846718270926713"><ele>105.0</ele><time>2026-04-26T09:41:46.999Z</time></trkpt><trkpt lat="45.600090200400686" lon="10.846630727091638"><ele>104.33333333333333</ele><time>2026-04-26T09:41:47.999Z</time></trkpt><trkpt lat="45.60002263093506" lon="10.846553571810416"><ele>103.66666666666666</ele><time>2026-04-26T09:41:48.999Z</time></trkpt><trkpt lat="45.599946319888716" lon="10.846500992717598"><ele>103.0</ele><time>2026-04-26T09:41:49.999Z</time></trkpt><trkpt lat="45.599864106634605" lon="10.846459694443597"><ele>102.33333333333333</ele><time>2026-04-26T09:41:50.999Z</time></trkpt><trkpt lat="45.59977691357355" lon="10.846422863175695"><ele>101.66666666666666</ele><time>2026-04-26T09:41:51.999Z</time></trkpt><trkpt lat="45.59968351087551" lon="10.846373220272739"><ele>101.0</ele><time>2026-04-26T09:41:52.999Z</time></trkpt><trkpt lat="45.599599489701234" lon="10.846308764548358"><ele>101.0</ele><time>2026-04-26T09:41:53.999Z</time></trkpt><trkpt lat="45.59952609405214" lon="10.8462358976151"><ele>101.0</ele><time>2026-04-26T09:41:54.999Z</time></trkpt><trkpt lat="45.599450967252544" lon="10.846165063276429"><ele>101.0</ele><time>2026-04-26T09:41:55.999Z</time></trkpt><trkpt lat="45.5993094574825" lon="10.846250044854628"><ele>101.0</ele><time>2026-04-26T09:41:56.999Z</time></trkpt><trkpt lat="45.59922354427193" lon="10.846191221088892"><ele>101.0</ele><time>2026-04-26T09:41:57.999Z</time></trkpt><trkpt lat="45.59914127446359" lon="10.84613489191636"><ele>100.75</ele><time>2026-04-26T09:41:58.999Z</time></trkpt><trkpt lat="45.5991141280784" lon="10.84589724557279"><ele>100.5</ele><time>2026-04-26T09:41:59.999Z</time></trkpt><trkpt lat="45.599009558944175" lon="10.845841637776223"><ele>100.25</ele><time>2026-04-26T09:42:00.999Z</time></trkpt><trkpt lat="45.598920676750055" lon="10.845785290100816"><ele>100.0</ele><time>2026-04-26T09:42:01.999Z</time></trkpt><trkpt lat="45.59883998660607" lon="10.845730315009574"><ele>100.00000000000001</ele><time>2026-04-26T09:42:02.999Z</time></trkpt><trkpt lat="45.5987711581427" lon="10.84568011396042"><ele>100.0</ele><time>2026-04-26T09:42:03.999Z</time></trkpt><trkpt lat="45.598699158792186" lon="10.84563186215896"><ele>100.0</ele><time>2026-04-26T09:42:04.999Z</time></trkpt><trkpt lat="45.598615530007265" lon="10.845591705726024"><ele>100.0</ele><time>2026-04-26T09:42:05.999Z</time></trkpt><trkpt lat="45.59852339251846" lon="10.845566241037751"><ele>100.00000000000001</ele><time>2026-04-26T09:42:06.999Z</time></trkpt><trkpt lat="45.598435856391916" lon="10.845549564930755"><ele>100.0</ele><time>2026-04-26T09:42:07.999Z</time></trkpt><trkpt lat="45.598354368460114" lon="10.84548769418476"><ele>100.00000000000001</ele><time>2026-04-26T09:42:08.999Z</time></trkpt><trkpt lat="45.59828801225389" lon="10.845411577416723"><ele>100.0</ele><time>2026-04-26T09:42:09.999Z</time></trkpt><trkpt lat="45.59821315633427" lon="10.845345784818814"><ele>100.0</ele><time>2026-04-26T09:42:10.999Z</time></trkpt><trkpt lat="45.5981297100073" lon="10.845294227114426"><ele>100.0</ele><time>2026-04-26T09:42:11.999Z</time></trkpt><trkpt lat="45.59804383964139" lon="10.84523725710215"><ele>100.00000000000001</ele><time>2026-04-26T09:42:12.999Z</time></trkpt><trkpt lat="45.597971453100286" lon="10.845187675241906"><ele>100.0</ele><time>2026-04-26T09:42:13.999Z</time></trkpt><trkpt lat="45.59789589809641" lon="10.845137592810218"><ele>100.16666666666667</ele><time>2026-04-26T09:42:14.999Z</time></trkpt><trkpt lat="45.59783227279815" lon="10.845096102604835"><ele>100.33333333333334</ele><time>2026-04-26T09:42:15.999Z</time></trkpt><trkpt lat="45.59773330734431" lon="10.845043330210887"><ele>100.5</ele><time>2026-04-26T09:42:17.999Z</time></trkpt><trkpt lat="45.597666637236195" lon="10.845004642862936"><ele>100.66666666666666</ele><time>2026-04-26T09:42:19.999Z</time></trkpt><trkpt lat="45.597602647054515" lon="10.845059287664721"><ele>100.83333333333333</ele><time>2026-04-26T09:42:23.999Z</time></trkpt><trkpt lat="45.597598261684254" lon="10.84515513852071"><ele>101.0</ele><time>2026-04-26T09:42:25.999Z</time></trkpt><trkpt lat="45.597674278765155" lon="10.845238163950363"><ele>101.0</ele><time>2026-04-26T09:42:27.999Z</time></trkpt><trkpt lat="45.59777842040038" lon="10.845281384214791"><ele>101.0</ele><time>2026-04-26T09:42:29.999Z</time></trkpt><trkpt lat="45.59786450411164" lon="10.845325361109271"><ele>101.0</ele><time>2026-04-26T09:42:31.999Z</time></trkpt><trkpt lat="45.59794814653784" lon="10.845369584382517"><ele>101.0</ele><time>2026-04-26T09:42:33.999Z</time></trkpt><trkpt lat="45.5980080555966" lon="10.845407034205524"><ele>101.0</ele><time>2026-04-26T09:42:35.999Z</time></trkpt><trkpt lat="45.598103089315686" lon="10.845465683906797"><ele>100.8</ele><time>2026-04-26T09:42:37.999Z</time></trkpt><trkpt lat="45.59819607723039" lon="10.84552646667537"><ele>100.6</ele><time>2026-04-26T09:42:39.999Z</time></trkpt><trkpt lat="45.5982662138377" lon="10.845593688054045"><ele>100.4</ele><time>2026-04-26T09:42:49.999Z</time></trkpt><trkpt lat="45.598221268426364" lon="10.845672255874275"><ele>100.2</ele><time>2026-04-26T09:42:53.999Z</time></trkpt><trkpt lat="45.59814196237814" lon="10.845596953837063"><ele>100.0</ele><time>2026-04-26T09:42:55.999Z</time></trkpt><trkpt lat="45.59804796480959" lon="10.845519284085364"><ele>100.0</ele><time>2026-04-26T09:42:58.999Z</time></trkpt><trkpt lat="45.59794597837402" lon="10.845463614643727"><ele>100.0</ele><time>2026-04-26T09:43:00.999Z</time></trkpt><trkpt lat="45.59783104834555" lon="10.845396554320425"><ele>100.0</ele><time>2026-04-26T09:43:02.999Z</time></trkpt><trkpt lat="45.5977556717593" lon="10.845352787136507"><ele>100.0</ele><time>2026-04-26T09:43:03.999Z</time></trkpt><trkpt lat="45.59768107549028" lon="10.845311933642643"><ele>100.0</ele><time>2026-04-26T09:43:04.999Z</time></trkpt><trkpt lat="45.597616031455665" lon="10.845281747247505"><ele>100.16666666666667</ele><time>2026-04-26T09:43:05.999Z</time></trkpt><trkpt lat="45.59754182776465" lon="10.84524534525239"><ele>100.33333333333334</ele><time>2026-04-26T09:43:06.999Z</time></trkpt><trkpt lat="45.59746257638697" lon="10.845207311077338"><ele>100.5</ele><time>2026-04-26T09:43:07.999Z</time></trkpt><trkpt lat="45.59737473608959" lon="10.845168504709976"><ele>100.66666666666666</ele><time>2026-04-26T09:43:08.999Z</time></trkpt><trkpt lat="45.59729276182551" lon="10.845130928716733"><ele>100.83333333333333</ele><time>2026-04-26T09:43:09.999Z</time></trkpt><trkpt lat="45.597218242621935" lon="10.845095581989137"><ele>101.0</ele><time>2026-04-26T09:43:10.999Z</time></trkpt><trkpt lat="45.59713564266426" lon="10.84505220649905"><ele>101.0</ele><time>2026-04-26T09:43:11.999Z</time></trkpt><trkpt lat="45.597038181087136" lon="10.844994426035946"><ele>101.0</ele><time>2026-04-26T09:43:12.999Z</time></trkpt><trkpt lat="45.596933588126106" lon="10.844929837320299"><ele>101.0</ele><time>2026-04-26T09:43:13.999Z</time></trkpt><trkpt lat="45.59683161637283" lon="10.844866077912611"><ele>101.0</ele><time>2026-04-26T09:43:14.999Z</time></trkpt><trkpt lat="45.59673687735086" lon="10.844809453371978"><ele>101.0</ele><time>2026-04-26T09:43:15.999Z</time></trkpt><trkpt lat="45.596646708550644" lon="10.844750318005985"><ele>101.0</ele><time>2026-04-26T09:43:16.999Z</time></trkpt><trkpt lat="45.596543345107484" lon="10.84468789293484"><ele>101.0</ele><time>2026-04-26T09:43:17.999Z</time></trkpt><trkpt lat="45.59644224664352" lon="10.844624257252473"><ele>101.0</ele><time>2026-04-26T09:43:18.999Z</time></trkpt><trkpt lat="45.59634218563133" lon="10.844568869200073"><ele>101.0</ele><time>2026-04-26T09:43:19.999Z</time></trkpt><trkpt lat="45.59624027770673" lon="10.844517198038632"><ele>101.0</ele><time>2026-04-26T09:43:20.999Z</time></trkpt><trkpt lat="45.596131953676306" lon="10.844464862642171"><ele>101.19999999999999</ele><time>2026-04-26T09:43:21.999Z</time></trkpt><trkpt lat="45.59602260334472" lon="10.844411756435044"><ele>101.39999999999999</ele><time>2026-04-26T09:43:22.999Z</time></trkpt><trkpt lat="45.59591052549382" lon="10.844356533486291"><ele>101.6</ele><time>2026-04-26T09:43:23.999Z</time></trkpt><trkpt lat="45.59581492133758" lon="10.844313174089185"><ele>101.8</ele><time>2026-04-26T09:43:24.999Z</time></trkpt><trkpt lat="45.595712384831806" lon="10.844271057365395"><ele>102.0</ele><time>2026-04-26T09:43:25.999Z</time></trkpt><trkpt lat="45.59559733183644" lon="10.844223081767671"><ele>102.0</ele><time>2026-04-26T09:43:26.999Z</time></trkpt><trkpt lat="45.595493115031864" lon="10.844181010659314"><ele>102.0</ele><time>2026-04-26T09:43:27.999Z</time></trkpt><trkpt lat="45.595392919761004" lon="10.844148511393824"><ele>102.0</ele><time>2026-04-26T09:43:28.999Z</time></trkpt><trkpt lat="45.59530696019101" lon="10.844130587975652"><ele>102.0</ele><time>2026-04-26T09:43:29.999Z</time></trkpt><trkpt lat="45.59522137568747" lon="10.844130398427923"><ele>102.0</ele><time>2026-04-26T09:43:30.999Z</time></trkpt><trkpt lat="45.595114875571504" lon="10.8441250138373"><ele>101.6</ele><time>2026-04-26T09:43:31.999Z</time></trkpt><trkpt lat="45.59500718908541" lon="10.844098360458569"><ele>101.19999999999999</ele><time>2026-04-26T09:43:32.999Z</time></trkpt><trkpt lat="45.59488521257065" lon="10.844048841586407"><ele>100.8</ele><time>2026-04-26T09:43:33.999Z</time></trkpt><trkpt lat="45.59478111347051" lon="10.844017608520044"><ele>100.4</ele><time>2026-04-26T09:43:34.999Z</time></trkpt><trkpt lat="45.594695675654656" lon="10.844001095876864"><ele>100.0</ele><time>2026-04-26T09:43:35.999Z</time></trkpt><trkpt lat="45.59462486499137" lon="10.843985420887277"><ele>100.0</ele><time>2026-04-26T09:43:36.999Z</time></trkpt><trkpt lat="45.594558435766906" lon="10.843968677141827"><ele>100.0</ele><time>2026-04-26T09:43:37.999Z</time></trkpt><trkpt lat="45.59446643670852" lon="10.843981201101649"><ele>100.0</ele><time>2026-04-26T09:43:39.999Z</time></trkpt><trkpt lat="45.5944050184541" lon="10.844108934652366"><ele>100.0</ele><time>2026-04-26T09:43:41.999Z</time></trkpt><trkpt lat="45.59438618882698" lon="10.844229430054952"><ele>100.0</ele><time>2026-04-26T09:43:42.999Z</time></trkpt><trkpt lat="45.59436423753936" lon="10.844398341915797"><ele>100.75</ele><time>2026-04-26T09:43:43.999Z</time></trkpt><trkpt lat="45.59433203283164" lon="10.844592671842067"><ele>101.5</ele><time>2026-04-26T09:43:44.999Z</time></trkpt><trkpt lat="45.59429954137037" lon="10.844774697208495"><ele>102.25</ele><time>2026-04-26T09:43:45.999Z</time></trkpt><trkpt lat="45.59427041420389" lon="10.844932853581378"><ele>103.0</ele><time>2026-04-26T09:43:46.999Z</time></trkpt><trkpt lat="45.59424900244193" lon="10.845058046555803"><ele>102.4</ele><time>2026-04-26T09:43:47.999Z</time></trkpt><trkpt lat="45.59423376874947" lon="10.845150210762794"><ele>101.80000000000001</ele><time>2026-04-26T09:43:48.999Z</time></trkpt><trkpt lat="45.59421609613274" lon="10.845242274302224"><ele>101.2</ele><time>2026-04-26T09:43:49.999Z</time></trkpt><trkpt lat="45.59416447540223" lon="10.845357714854817"><ele>100.6</ele><time>2026-04-26T09:43:51.999Z</time></trkpt><trkpt lat="45.59407363413369" lon="10.845365866573465"><ele>100.0</ele><time>2026-04-26T09:43:53.999Z</time></trkpt><trkpt lat="45.593935592700895" lon="10.845264958844552"><ele>100.0</ele><time>2026-04-26T09:43:55.999Z</time></trkpt><trkpt lat="45.59381986370054" lon="10.845197886545021"><ele>100.0</ele><time>2026-04-26T09:43:56.999Z</time></trkpt><trkpt lat="45.593690877516494" lon="10.845136968065585"><ele>100.0</ele><time>2026-04-26T09:43:57.999Z</time></trkpt><trkpt lat="45.59360353705901" lon="10.845108887927465"><ele>100.0</ele><time>2026-04-26T09:43:58.999Z</time></trkpt><trkpt lat="45.59352106898626" lon="10.845047127389908"><ele>100.0</ele><time>2026-04-26T09:44:00.999Z</time></trkpt><trkpt lat="45.593500463552424" lon="10.844854987698163"><ele>100.4</ele><time>2026-04-26T09:44:02.999Z</time></trkpt><trkpt lat="45.59351795679103" lon="10.84471755680391"><ele>100.8</ele><time>2026-04-26T09:44:03.999Z</time></trkpt><trkpt lat="45.59356253006368" lon="10.844564511187837"><ele>101.19999999999999</ele><time>2026-04-26T09:44:04.999Z</time></trkpt><trkpt lat="45.59359388957613" lon="10.844440106565472"><ele>101.6</ele><time>2026-04-26T09:44:05.999Z</time></trkpt><trkpt lat="45.593589725429325" lon="10.844326918408244"><ele>102.0</ele><time>2026-04-26T09:44:07.999Z</time></trkpt><trkpt lat="45.59349881427913" lon="10.844269223773955"><ele>102.0</ele><time>2026-04-26T09:44:09.999Z</time></trkpt><trkpt lat="45.59341491893145" lon="10.844268536164012"><ele>102.0</ele><time>2026-04-26T09:44:10.999Z</time></trkpt><trkpt lat="45.593311784706565" lon="10.844264647549672"><ele>102.0</ele><time>2026-04-26T09:44:11.999Z</time></trkpt><trkpt lat="45.59321520840861" lon="10.84425977113407"><ele>102.0</ele><time>2026-04-26T09:44:12.999Z</time></trkpt><trkpt lat="45.59312727491601" lon="10.84425265786479"><ele>102.0</ele><time>2026-04-26T09:44:13.999Z</time></trkpt><trkpt lat="45.593008066384286" lon="10.844243313858783"><ele>102.0</ele><time>2026-04-26T09:44:15.999Z</time></trkpt><trkpt lat="45.592908439246365" lon="10.844235988371068"><ele>102.0</ele><time>2026-04-26T09:44:17.999Z</time></trkpt><trkpt lat="45.59286363287998" lon="10.84416999419557"><ele>102.0</ele><time>2026-04-26T09:44:19.999Z</time></trkpt><trkpt lat="45.592884521215375" lon="10.843969102257772"><ele>102.0</ele><time>2026-04-26T09:44:21.999Z</time></trkpt><trkpt lat="45.59288880151696" lon="10.843826281059464"><ele>102.0</ele><time>2026-04-26T09:44:23.999Z</time></trkpt><trkpt lat="45.59279985802538" lon="10.843772123621084"><ele>101.25</ele><time>2026-04-26T09:44:25.999Z</time></trkpt><trkpt lat="45.59271309543948" lon="10.843775447824108"><ele>100.5</ele><time>2026-04-26T09:44:26.999Z</time></trkpt><trkpt lat="45.59259437691059" lon="10.84380016898327"><ele>99.75</ele><time>2026-04-26T09:44:27.999Z</time></trkpt><trkpt lat="45.59243695103524" lon="10.84383308540837"><ele>99.0</ele><time>2026-04-26T09:44:28.999Z</time></trkpt><trkpt lat="45.59229917214509" lon="10.843858786213248"><ele>99.0</ele><time>2026-04-26T09:44:29.999Z</time></trkpt><trkpt lat="45.59214369240556" lon="10.84388305528541"><ele>99.0</ele><time>2026-04-26T09:44:30.999Z</time></trkpt><trkpt lat="45.59197216295289" lon="10.843903420424205"><ele>99.0</ele><time>2026-04-26T09:44:31.999Z</time></trkpt><trkpt lat="45.59181363306893" lon="10.843915806866157"><ele>99.75</ele><time>2026-04-26T09:44:32.999Z</time></trkpt><trkpt lat="45.591678718069" lon="10.843925640106129"><ele>100.5</ele><time>2026-04-26T09:44:33.999Z</time></trkpt><trkpt lat="45.59155173436384" lon="10.843941685236626"><ele>101.25</ele><time>2026-04-26T09:44:34.999Z</time></trkpt><trkpt lat="45.591436662044245" lon="10.843956426599553"><ele>102.0</ele><time>2026-04-26T09:44:35.999Z</time></trkpt><trkpt lat="45.591319900825184" lon="10.843961152501166"><ele>102.0</ele><time>2026-04-26T09:44:36.999Z</time></trkpt><trkpt lat="45.5912253486397" lon="10.843947776578178"><ele>102.0</ele><time>2026-04-26T09:44:37.999Z</time></trkpt><trkpt lat="45.59110645576011" lon="10.843934791853568"><ele>102.0</ele><time>2026-04-26T09:44:38.999Z</time></trkpt><trkpt lat="45.59099376781732" lon="10.843954014190407"><ele>102.0</ele><time>2026-04-26T09:44:39.999Z</time></trkpt><trkpt lat="45.59087703306449" lon="10.843991222290692"><ele>102.0</ele><time>2026-04-26T09:44:40.999Z</time></trkpt><trkpt lat="45.59075809207834" lon="10.844024578956"><ele>101.66666666666666</ele><time>2026-04-26T09:44:41.999Z</time></trkpt><trkpt lat="45.590628607562344" lon="10.844052093809585"><ele>101.33333333333333</ele><time>2026-04-26T09:44:42.999Z</time></trkpt><trkpt lat="45.59046511750703" lon="10.844101768677525"><ele>101.0</ele><time>2026-04-26T09:44:43.999Z</time></trkpt><trkpt lat="45.590282850668245" lon="10.844149904903295"><ele>101.0</ele><time>2026-04-26T09:44:44.999Z</time></trkpt><trkpt lat="45.59012180228282" lon="10.84419006922975"><ele>101.0</ele><time>2026-04-26T09:44:45.999Z</time></trkpt><trkpt lat="45.58997370646737" lon="10.844220672799674"><ele>101.0</ele><time>2026-04-26T09:44:46.999Z</time></trkpt><trkpt lat="45.589838856660606" lon="10.844250789981261"><ele>101.0</ele><time>2026-04-26T09:44:47.999Z</time></trkpt><trkpt lat="45.58969051124632" lon="10.844279474914195"><ele>101.0</ele><time>2026-04-26T09:44:48.999Z</time></trkpt><trkpt lat="45.589542370947" lon="10.844300192523344"><ele>101.0</ele><time>2026-04-26T09:44:49.999Z</time></trkpt><trkpt lat="45.589386406751814" lon="10.844325219085643"><ele>101.0</ele><time>2026-04-26T09:44:50.999Z</time></trkpt><trkpt lat="45.58923948351681" lon="10.844345893435586"><ele>101.0</ele><time>2026-04-26T09:44:51.999Z</time></trkpt><trkpt lat="45.58910406292655" lon="10.844371548636115"><ele>101.0</ele><time>2026-04-26T09:44:52.999Z</time></trkpt><trkpt lat="45.58896980773644" lon="10.844412090168374"><ele>101.0</ele><time>2026-04-26T09:44:53.999Z</time></trkpt><trkpt lat="45.588824860980374" lon="10.844462152993989"><ele>101.0</ele><time>2026-04-26T09:44:54.999Z</time></trkpt><trkpt lat="45.58867795378079" lon="10.844521686096689"><ele>101.0</ele><time>2026-04-26T09:44:55.999Z</time></trkpt><trkpt lat="45.588534048689525" lon="10.84457853790483"><ele>101.0</ele><time>2026-04-26T09:44:56.999Z</time></trkpt><trkpt lat="45.58839752057746" lon="10.844629696490097"><ele>101.0</ele><time>2026-04-26T09:44:57.999Z</time></trkpt><trkpt lat="45.58826459232209" lon="10.84467467410692"><ele>100.8</ele><time>2026-04-26T09:44:58.999Z</time></trkpt><trkpt lat="45.58813923704368" lon="10.844710382984085"><ele>100.6</ele><time>2026-04-26T09:44:59.999Z</time></trkpt><trkpt lat="45.588027912947766" lon="10.844739764125734"><ele>100.4</ele><time>2026-04-26T09:45:00.999Z</time></trkpt><trkpt lat="45.58793603313515" lon="10.844772519133812"><ele>100.2</ele><time>2026-04-26T09:45:01.999Z</time></trkpt><trkpt lat="45.58785536591441" lon="10.844805812850554"><ele>100.0</ele><time>2026-04-26T09:45:02.999Z</time></trkpt><trkpt lat="45.587771172632515" lon="10.844853124661057"><ele>99.66666666666667</ele><time>2026-04-26T09:45:03.999Z</time></trkpt><trkpt lat="45.58769825376808" lon="10.844921299684339"><ele>99.33333333333334</ele><time>2026-04-26T09:45:04.999Z</time></trkpt><trkpt lat="45.58765103812676" lon="10.8450066205169"><ele>99.0</ele><time>2026-04-26T09:45:05.999Z</time></trkpt><trkpt lat="45.58761642668835" lon="10.845106082729883"><ele>98.66666666666666</ele><time>2026-04-26T09:45:06.999Z</time></trkpt><trkpt lat="45.58760314342456" lon="10.845211919562862"><ele>98.33333333333333</ele><time>2026-04-26T09:45:07.999Z</time></trkpt><trkpt lat="45.587591160720415" lon="10.845311464753596"><ele>98.0</ele><time>2026-04-26T09:45:08.999Z</time></trkpt><trkpt lat="45.58757704072823" lon="10.845412690825924"><ele>98.80000000000001</ele><time>2026-04-26T09:45:10.999Z</time></trkpt><trkpt lat="45.58758367232442" lon="10.845532556219394"><ele>99.6</ele><time>2026-04-26T09:45:18Z</time></trkpt><trkpt lat="45.587658196032095" lon="10.845587343314309"><ele>100.4</ele><time>2026-04-26T09:45:20Z</time></trkpt><trkpt lat="45.58779036331579" lon="10.845620485676998"><ele>101.19999999999999</ele><time>2026-04-26T09:45:21Z</time></trkpt><trkpt lat="45.587929093465185" lon="10.845662976331806"><ele>102.0</ele><time>2026-04-26T09:45:22Z</time></trkpt><trkpt lat="45.58806795888365" lon="10.845733339327307"><ele>102.0</ele><time>2026-04-26T09:45:23Z</time></trkpt><trkpt lat="45.58822706355369" lon="10.845792095835604"><ele>102.0</ele><time>2026-04-26T09:45:24Z</time></trkpt><trkpt lat="45.588405718182464" lon="10.845859072728361"><ele>102.0</ele><time>2026-04-26T09:45:25Z</time></trkpt><trkpt lat="45.58860853931407" lon="10.845935109557006"><ele>103.0</ele><time>2026-04-26T09:45:26Z</time></trkpt><trkpt lat="45.588841295795504" lon="10.846015852732336"><ele>104.0</ele><time>2026-04-26T09:45:27Z</time></trkpt><trkpt lat="45.58907250641194" lon="10.846091291794652"><ele>104.0</ele><time>2026-04-26T09:45:28Z</time></trkpt><trkpt lat="45.58928130974916" lon="10.846163311304696"><ele>104.0</ele><time>2026-04-26T09:45:29Z</time></trkpt><trkpt lat="45.589467656454794" lon="10.846228567694455"><ele>104.0</ele><time>2026-04-26T09:45:30Z</time></trkpt><trkpt lat="45.5896450396299" lon="10.846290088759726"><ele>103.33333333333333</ele><time>2026-04-26T09:45:31Z</time></trkpt><trkpt lat="45.58981155838665" lon="10.846320055513214"><ele>102.66666666666666</ele><time>2026-04-26T09:45:32Z</time></trkpt><trkpt lat="45.58996266155995" lon="10.846372821413222"><ele>102.0</ele><time>2026-04-26T09:45:33Z</time></trkpt><trkpt lat="45.59010231235172" lon="10.846422766351836"><ele>102.0</ele><time>2026-04-26T09:45:34Z</time></trkpt><trkpt lat="45.59023021560554" lon="10.846471090299879"><ele>102.0</ele><time>2026-04-26T09:45:35Z</time></trkpt><trkpt lat="45.59034470154081" lon="10.846515102117108"><ele>102.0</ele><time>2026-04-26T09:45:36Z</time></trkpt><trkpt lat="45.59044113328731" lon="10.846557846923758"><ele>102.0</ele><time>2026-04-26T09:45:37Z</time></trkpt><trkpt lat="45.59052065371369" lon="10.846575521113637"><ele>102.0</ele><time>2026-04-26T09:45:38Z</time></trkpt><trkpt lat="45.59060683470484" lon="10.846597613951417"><ele>102.33333333333334</ele><time>2026-04-26T09:45:40Z</time></trkpt><trkpt lat="45.59060825684547" lon="10.846821124268871"><ele>102.66666666666667</ele><time>2026-04-26T09:45:43Z</time></trkpt><trkpt lat="45.59057199951518" lon="10.846996658066194"><ele>103.0</ele><time>2026-04-26T09:45:44Z</time></trkpt><trkpt lat="45.59050539170318" lon="10.847216592190234"><ele>103.0</ele><time>2026-04-26T09:45:45Z</time></trkpt><trkpt lat="45.59046475216658" lon="10.847372627012273"><ele>103.0</ele><time>2026-04-26T09:45:46Z</time></trkpt><trkpt lat="45.590426885117466" lon="10.847495725338064"><ele>103.0</ele><time>2026-04-26T09:45:47Z</time></trkpt><trkpt lat="45.59039876001711" lon="10.847576878524906"><ele>103.0</ele><time>2026-04-26T09:45:48Z</time></trkpt><trkpt lat="45.59035732010748" lon="10.847694475150364"><ele>103.0</ele><time>2026-04-26T09:45:50Z</time></trkpt><trkpt lat="45.59032491798686" lon="10.847857085385721"><ele>104.60000000000001</ele><time>2026-04-26T09:45:52Z</time></trkpt><trkpt lat="45.59024502250411" lon="10.84794031988725"><ele>106.2</ele><time>2026-04-26T09:45:54Z</time></trkpt><trkpt lat="45.590168360959254" lon="10.847916289642614"><ele>107.8</ele><time>2026-04-26T09:45:56Z</time></trkpt><trkpt lat="45.59005036972845" lon="10.84804497424692"><ele>109.4</ele><time>2026-04-26T09:45:57Z</time></trkpt><trkpt lat="45.58995910111246" lon="10.847977470712868"><ele>111.0</ele><time>2026-04-26T09:45:58Z</time></trkpt><trkpt lat="45.58984929321204" lon="10.847905916000563"><ele>111.0</ele><time>2026-04-26T09:45:59Z</time></trkpt><trkpt lat="45.58973495303757" lon="10.847835480885564"><ele>111.0</ele><time>2026-04-26T09:46:00Z</time></trkpt><trkpt lat="45.58962601503208" lon="10.847769095251508"><ele>111.0</ele><time>2026-04-26T09:46:01Z</time></trkpt><trkpt lat="45.58952157805368" lon="10.847705452427038"><ele>111.0</ele><time>2026-04-26T09:46:02Z</time></trkpt><trkpt lat="45.58941105092939" lon="10.84764006411064"><ele>110.75</ele><time>2026-04-26T09:46:03Z</time></trkpt><trkpt lat="45.58928155413783" lon="10.84756923030623"><ele>110.5</ele><time>2026-04-26T09:46:04Z</time></trkpt><trkpt lat="45.58916238763876" lon="10.847507807849402"><ele>110.25</ele><time>2026-04-26T09:46:05Z</time></trkpt><trkpt lat="45.5890494839858" lon="10.847452002387858"><ele>110.0</ele><time>2026-04-26T09:46:06Z</time></trkpt><trkpt lat="45.58894607504157" lon="10.847407680142968"><ele>110.0</ele><time>2026-04-26T09:46:07Z</time></trkpt><trkpt lat="45.58884077702135" lon="10.847367887141376"><ele>110.0</ele><time>2026-04-26T09:46:08Z</time></trkpt><trkpt lat="45.588771056836656" lon="10.847341539321821"><ele>110.0</ele><time>2026-04-26T09:46:09Z</time></trkpt><trkpt lat="45.588647732946775" lon="10.847294934164712"><ele>110.0</ele><time>2026-04-26T09:46:11Z</time></trkpt><trkpt lat="45.58852451367182" lon="10.847247080023365"><ele>110.0</ele><time>2026-04-26T09:46:13Z</time></trkpt><trkpt lat="45.588436574659" lon="10.847209377889785"><ele>110.0</ele><time>2026-04-26T09:46:15Z</time></trkpt><trkpt lat="45.58836642161709" lon="10.8471740234837"><ele>110.0</ele><time>2026-04-26T09:46:18Z</time></trkpt><trkpt lat="45.588450122753244" lon="10.847215851023863"><ele>110.0</ele><time>2026-04-26T09:46:23Z</time></trkpt><trkpt lat="45.58856162787747" lon="10.847262144460107"><ele>110.0</ele><time>2026-04-26T09:46:25Z</time></trkpt><trkpt lat="45.5886723924055" lon="10.847274033823657"><ele>110.0</ele><time>2026-04-26T09:46:27Z</time></trkpt><trkpt lat="45.58869809133584" lon="10.84737858140594"><ele>111.6</ele><time>2026-04-26T09:46:30Z</time></trkpt><trkpt lat="45.58863681543624" lon="10.847431550836992"><ele>113.2</ele><time>2026-04-26T09:46:32Z</time></trkpt><trkpt lat="45.58855911129872" lon="10.847420594584099"><ele>114.80000000000001</ele><time>2026-04-26T09:46:33Z</time></trkpt><trkpt lat="45.588448835133136" lon="10.847327290870098"><ele>116.4</ele><time>2026-04-26T09:46:34Z</time></trkpt><trkpt lat="45.58830051052756" lon="10.847257211631408"><ele>118.0</ele><time>2026-04-26T09:46:35Z</time></trkpt><trkpt lat="45.588138241443005" lon="10.847145659289284"><ele>118.0</ele><time>2026-04-26T09:46:36Z</time></trkpt><trkpt lat="45.587965038808086" lon="10.847019146105573"><ele>118.0</ele><time>2026-04-26T09:46:37Z</time></trkpt><trkpt lat="45.58779490015877" lon="10.846880427833078"><ele>118.0</ele><time>2026-04-26T09:46:38Z</time></trkpt><trkpt lat="45.587625033315575" lon="10.846742486500817"><ele>116.33333333333334</ele><time>2026-04-26T09:46:39Z</time></trkpt><trkpt lat="45.587450406168024" lon="10.846605366848936"><ele>114.66666666666666</ele><time>2026-04-26T09:46:40Z</time></trkpt><trkpt lat="45.587278084141055" lon="10.846466013134995"><ele>113.0</ele><time>2026-04-26T09:46:41Z</time></trkpt><trkpt lat="45.58710861390755" lon="10.846320969868675"><ele>112.0</ele><time>2026-04-26T09:46:42Z</time></trkpt><trkpt lat="45.586941477737234" lon="10.846172696414591"><ele>111.0</ele><time>2026-04-26T09:46:43Z</time></trkpt><trkpt lat="45.58677220024986" lon="10.84602082275372"><ele>110.0</ele><time>2026-04-26T09:46:44Z</time></trkpt><trkpt lat="45.58660501337573" lon="10.845868165324028"><ele>110.0</ele><time>2026-04-26T09:46:45Z</time></trkpt><trkpt lat="45.58644137793631" lon="10.845712931661247"><ele>110.0</ele><time>2026-04-26T09:46:46Z</time></trkpt><trkpt lat="45.586274001371045" lon="10.84555239279441"><ele>110.0</ele><time>2026-04-26T09:46:47Z</time></trkpt><trkpt lat="45.58610358182701" lon="10.845392399343075"><ele>110.33333333333333</ele><time>2026-04-26T09:46:48Z</time></trkpt><trkpt lat="45.58593291850084" lon="10.845235226262536"><ele>110.66666666666666</ele><time>2026-04-26T09:46:49Z</time></trkpt><trkpt lat="45.5857629728645" lon="10.84508036599983"><ele>111.0</ele><time>2026-04-26T09:46:50Z</time></trkpt><trkpt lat="45.58559660561521" lon="10.84492713983341"><ele>111.0</ele><time>2026-04-26T09:46:51Z</time></trkpt><trkpt lat="45.58543377966298" lon="10.844766186284618"><ele>111.0</ele><time>2026-04-26T09:46:52Z</time></trkpt><trkpt lat="45.58527267187074" lon="10.8445983150859"><ele>111.0</ele><time>2026-04-26T09:46:53Z</time></trkpt><trkpt lat="45.58510693534017" lon="10.844422792615614"><ele>111.33333333333334</ele><time>2026-04-26T09:46:54Z</time></trkpt><trkpt lat="45.58494134429549" lon="10.844246542290058"><ele>111.66666666666667</ele><time>2026-04-26T09:46:55Z</time></trkpt><trkpt lat="45.58477514574186" lon="10.844062655333136"><ele>112.0</ele><time>2026-04-26T09:46:56Z</time></trkpt><trkpt lat="45.58461044958373" lon="10.843876139892387"><ele>114.66666666666667</ele><time>2026-04-26T09:46:57Z</time></trkpt><trkpt lat="45.58444369224292" lon="10.843690749135313"><ele>117.33333333333334</ele><time>2026-04-26T09:46:58Z</time></trkpt><trkpt lat="45.584281995530276" lon="10.843495903099122"><ele>120.0</ele><time>2026-04-26T09:46:59Z</time></trkpt><trkpt lat="45.58413418321465" lon="10.843277114837564"><ele>120.0</ele><time>2026-04-26T09:47:00Z</time></trkpt><trkpt lat="45.58399639105964" lon="10.843046932352308"><ele>120.0</ele><time>2026-04-26T09:47:01Z</time></trkpt><trkpt lat="45.583857487508844" lon="10.842813368014797"><ele>120.0</ele><time>2026-04-26T09:47:02Z</time></trkpt><trkpt lat="45.58372169664734" lon="10.842582974359592"><ele>123.0</ele><time>2026-04-26T09:47:03Z</time></trkpt><trkpt lat="45.58359013122149" lon="10.842356082422977"><ele>126.0</ele><time>2026-04-26T09:47:04Z</time></trkpt><trkpt lat="45.58345926162101" lon="10.842134739165406"><ele>129.0</ele><time>2026-04-26T09:47:05Z</time></trkpt><trkpt lat="45.583332547172475" lon="10.841918652477798"><ele>122.66666666666666</ele><time>2026-04-26T09:47:06Z</time></trkpt><trkpt lat="45.583208280346064" lon="10.841697877623016"><ele>116.33333333333333</ele><time>2026-04-26T09:47:07Z</time></trkpt><trkpt lat="45.58309194755532" lon="10.841481683601115"><ele>110.0</ele><time>2026-04-26T09:47:08Z</time></trkpt><trkpt lat="45.58298153089619" lon="10.841267104147981"><ele>110.0</ele><time>2026-04-26T09:47:09Z</time></trkpt><trkpt lat="45.58287153441191" lon="10.841047199288427"><ele>110.0</ele><time>2026-04-26T09:47:10Z</time></trkpt><trkpt lat="45.58276503661374" lon="10.840824116021585"><ele>110.0</ele><time>2026-04-26T09:47:11Z</time></trkpt><trkpt lat="45.582657004289885" lon="10.840588547649105"><ele>110.66666666666666</ele><time>2026-04-26T09:47:12Z</time></trkpt><trkpt lat="45.5825525900083" lon="10.840349053364063"><ele>111.33333333333334</ele><time>2026-04-26T09:47:13Z</time></trkpt><trkpt lat="45.582460062704094" lon="10.840108744242182"><ele>112.0</ele><time>2026-04-26T09:47:14Z</time></trkpt><trkpt lat="45.582384045416454" lon="10.839871264592913"><ele>112.0</ele><time>2026-04-26T09:47:15Z</time></trkpt><trkpt lat="45.582314431118796" lon="10.839642046151665"><ele>112.0</ele><time>2026-04-26T09:47:16Z</time></trkpt><trkpt lat="45.58222992527281" lon="10.83939770396931"><ele>112.0</ele><time>2026-04-26T09:47:17Z</time></trkpt><trkpt lat="45.582146360009666" lon="10.839105902849667"><ele>114.5</ele><time>2026-04-26T09:47:18Z</time></trkpt><trkpt lat="45.58204008017295" lon="10.838783288609246"><ele>117.0</ele><time>2026-04-26T09:47:19Z</time></trkpt><trkpt lat="45.581908980835884" lon="10.838442150899102"><ele>117.0</ele><time>2026-04-26T09:47:20Z</time></trkpt><trkpt lat="45.58179708570778" lon="10.838052801571026"><ele>117.0</ele><time>2026-04-26T09:47:21Z</time></trkpt><trkpt lat="45.58166986496169" lon="10.837668475085856"><ele>112.0</ele><time>2026-04-26T09:47:22Z</time></trkpt><trkpt lat="45.581558453355086" lon="10.837350322631304"><ele>107.0</ele><time>2026-04-26T09:47:23Z</time></trkpt><trkpt lat="45.581464013618415" lon="10.837070555986045"><ele>106.0</ele><time>2026-04-26T09:47:24Z</time></trkpt><trkpt lat="45.58137627880628" lon="10.836799448155615"><ele>105.0</ele><time>2026-04-26T09:47:25Z</time></trkpt><trkpt lat="45.58129278687184" lon="10.83655483875887"><ele>104.0</ele><time>2026-04-26T09:47:26Z</time></trkpt><trkpt lat="45.581220899650646" lon="10.836348110750327"><ele>104.0</ele><time>2026-04-26T09:47:27Z</time></trkpt><trkpt lat="45.58115648560826" lon="10.836167115926045"><ele>104.0</ele><time>2026-04-26T09:47:28Z</time></trkpt><trkpt lat="45.58110210108811" lon="10.8360104825858"><ele>104.0</ele><time>2026-04-26T09:47:29Z</time></trkpt><trkpt lat="45.581066837619936" lon="10.835849995853362"><ele>104.0</ele><time>2026-04-26T09:47:30Z</time></trkpt><trkpt lat="45.581012321699454" lon="10.83573963080812"><ele>103.99999999999999</ele><time>2026-04-26T09:47:31Z</time></trkpt><trkpt lat="45.58098426418108" lon="10.835647834605039"><ele>104.0</ele><time>2026-04-26T09:47:32Z</time></trkpt><trkpt lat="45.58100670371489" lon="10.835559371967252"><ele>104.0</ele><time>2026-04-26T09:47:34Z</time></trkpt><trkpt lat="45.58111068057138" lon="10.835532644437553"><ele>104.0</ele><time>2026-04-26T09:47:36Z</time></trkpt><trkpt lat="45.58119866863536" lon="10.835491905551866"><ele>103.99999999999999</ele><time>2026-04-26T09:47:38Z</time></trkpt><trkpt lat="45.581203418789066" lon="10.835379204006273"><ele>104.0</ele><time>2026-04-26T09:47:40Z</time></trkpt><trkpt lat="45.581176495808904" lon="10.835229748542403"><ele>103.80000000000001</ele><time>2026-04-26T09:47:42Z</time></trkpt><trkpt lat="45.581135471501945" lon="10.835091128566914"><ele>103.60000000000001</ele><time>2026-04-26T09:47:44Z</time></trkpt><trkpt lat="45.58111140470849" lon="10.834985698623976"><ele>103.4</ele><time>2026-04-26T09:47:45Z</time></trkpt><trkpt lat="45.58109050334406" lon="10.834850209802863"><ele>103.2</ele><time>2026-04-26T09:47:46Z</time></trkpt><trkpt lat="45.581066281838545" lon="10.834683178344653"><ele>103.0</ele><time>2026-04-26T09:47:47Z</time></trkpt><trkpt lat="45.58105321953824" lon="10.83449872187518"><ele>103.0</ele><time>2026-04-26T09:47:48Z</time></trkpt><trkpt lat="45.581049564551016" lon="10.83431880695302"><ele>103.0</ele><time>2026-04-26T09:47:49Z</time></trkpt><trkpt lat="45.58104560172095" lon="10.834154017685814"><ele>103.0</ele><time>2026-04-26T09:47:50Z</time></trkpt><trkpt lat="45.58103532237236" lon="10.834010568522618"><ele>103.0</ele><time>2026-04-26T09:47:51Z</time></trkpt><trkpt lat="45.58102617225499" lon="10.833869049890023"><ele>103.0</ele><time>2026-04-26T09:47:52Z</time></trkpt><trkpt lat="45.58102005159795" lon="10.833720201314852"><ele>102.80000000000001</ele><time>2026-04-26T09:47:53Z</time></trkpt><trkpt lat="45.581015313367104" lon="10.83357082032307"><ele>102.6</ele><time>2026-04-26T09:47:54Z</time></trkpt><trkpt lat="45.581003344315" lon="10.83342635359561"><ele>102.4</ele><time>2026-04-26T09:47:55Z</time></trkpt><trkpt lat="45.580998495245616" lon="10.83327513494988"><ele>102.19999999999999</ele><time>2026-04-26T09:47:56Z</time></trkpt><trkpt lat="45.58098694529309" lon="10.833120171112657"><ele>102.0</ele><time>2026-04-26T09:47:57Z</time></trkpt><trkpt lat="45.58097699757639" lon="10.832958147368588"><ele>101.25</ele><time>2026-04-26T09:47:58Z</time></trkpt><trkpt lat="45.58096945656875" lon="10.8327840259348"><ele>100.5</ele><time>2026-04-26T09:47:59Z</time></trkpt><trkpt lat="45.580961618560245" lon="10.832600420461036"><ele>99.75</ele><time>2026-04-26T09:48:00Z</time></trkpt><trkpt lat="45.58095691336688" lon="10.8324121953911"><ele>99.0</ele><time>2026-04-26T09:48:01Z</time></trkpt><trkpt lat="45.580958454503794" lon="10.832218930016525"><ele>98.66666666666666</ele><time>2026-04-26T09:48:02Z</time></trkpt><trkpt lat="45.58096902345508" lon="10.832002450442246"><ele>98.33333333333333</ele><time>2026-04-26T09:48:03Z</time></trkpt><trkpt lat="45.58098207337457" lon="10.83175756559583"><ele>98.0</ele><time>2026-04-26T09:48:04Z</time></trkpt><trkpt lat="45.580999242879" lon="10.831506563849384"><ele>98.0</ele><time>2026-04-26T09:48:05Z</time></trkpt><trkpt lat="45.58105042192209" lon="10.831281168064848"><ele>98.0</ele><time>2026-04-26T09:48:06Z</time></trkpt><trkpt lat="45.58106483243288" lon="10.831065010157698"><ele>98.0</ele><time>2026-04-26T09:48:07Z</time></trkpt><trkpt lat="45.581080127913744" lon="10.830861392985149"><ele>98.0</ele><time>2026-04-26T09:48:08Z</time></trkpt><trkpt lat="45.5810969964711" lon="10.830656883185512"><ele>98.0</ele><time>2026-04-26T09:48:09Z</time></trkpt><trkpt lat="45.58111437227267" lon="10.830464026621422"><ele>98.0</ele><time>2026-04-26T09:48:10Z</time></trkpt><trkpt lat="45.581128662298426" lon="10.830291579630956"><ele>98.0</ele><time>2026-04-26T09:48:11Z</time></trkpt><trkpt lat="45.58111417631948" lon="10.830125180159499"><ele>98.2</ele><time>2026-04-26T09:48:12Z</time></trkpt><trkpt lat="45.58110457392399" lon="10.829973941056377"><ele>98.4</ele><time>2026-04-26T09:48:13Z</time></trkpt><trkpt lat="45.58107044354923" lon="10.82984347794558"><ele>98.60000000000001</ele><time>2026-04-26T09:48:14Z</time></trkpt><trkpt lat="45.58101340029861" lon="10.829722038398254"><ele>98.80000000000001</ele><time>2026-04-26T09:48:15Z</time></trkpt><trkpt lat="45.58094242432593" lon="10.829596842993407"><ele>99.0</ele><time>2026-04-26T09:48:16Z</time></trkpt><trkpt lat="45.58088059357748" lon="10.829430284064403"><ele>99.5</ele><time>2026-04-26T09:48:17Z</time></trkpt><trkpt lat="45.580788700903724" lon="10.829280981055561"><ele>100.0</ele><time>2026-04-26T09:48:18Z</time></trkpt><trkpt lat="45.58071519826689" lon="10.829123764701388"><ele>100.5</ele><time>2026-04-26T09:48:19Z</time></trkpt><trkpt lat="45.5806519805935" lon="10.82898773446127"><ele>101.0</ele><time>2026-04-26T09:48:20Z</time></trkpt><trkpt lat="45.58059430822702" lon="10.828863264849746"><ele>100.99999999999999</ele><time>2026-04-26T09:48:21Z</time></trkpt><trkpt lat="45.58054750631832" lon="10.828745956844571"><ele>101.0</ele><time>2026-04-26T09:48:22Z</time></trkpt><trkpt lat="45.58050076563868" lon="10.82865196941083"><ele>101.0</ele><time>2026-04-26T09:48:23Z</time></trkpt><trkpt lat="45.58044922804488" lon="10.828577761297485"><ele>101.0</ele><time>2026-04-26T09:48:24Z</time></trkpt><trkpt lat="45.58037657692477" lon="10.828550725771636"><ele>100.99999999999999</ele><time>2026-04-26T09:48:25Z</time></trkpt><trkpt lat="45.580308997144144" lon="10.828523718203865"><ele>101.0</ele><time>2026-04-26T09:48:26Z</time></trkpt><trkpt lat="45.580238122540884" lon="10.828472026820117"><ele>100.75</ele><time>2026-04-26T09:48:27Z</time></trkpt><trkpt lat="45.58019307051116" lon="10.828337778495841"><ele>100.5</ele><time>2026-04-26T09:48:28Z</time></trkpt><trkpt lat="45.58011734062614" lon="10.828222482246328"><ele>100.25</ele><time>2026-04-26T09:48:29Z</time></trkpt><trkpt lat="45.580036385929624" lon="10.828097216360574"><ele>100.0</ele><time>2026-04-26T09:48:30Z</time></trkpt><trkpt lat="45.57995707481313" lon="10.827972575377222"><ele>100.0</ele><time>2026-04-26T09:48:31Z</time></trkpt><trkpt lat="45.57988462473784" lon="10.82785871662528"><ele>100.0</ele><time>2026-04-26T09:48:32Z</time></trkpt><trkpt lat="45.57982437311579" lon="10.827764280645443"><ele>100.0</ele><time>2026-04-26T09:48:33Z</time></trkpt><trkpt lat="45.57977413866648" lon="10.827686612944618"><ele>100.0</ele><time>2026-04-26T09:48:34Z</time></trkpt><trkpt lat="45.5798116719504" lon="10.827535858323378"><ele>100.0</ele><time>2026-04-26T09:48:37Z</time></trkpt><trkpt lat="45.57987501719088" lon="10.827441588296029"><ele>100.0</ele><time>2026-04-26T09:48:38Z</time></trkpt><trkpt lat="45.579956198552054" lon="10.827322714617692"><ele>100.0</ele><time>2026-04-26T09:48:39Z</time></trkpt><trkpt lat="45.580043130940545" lon="10.827184902801966"><ele>100.0</ele><time>2026-04-26T09:48:40Z</time></trkpt><trkpt lat="45.580124520103794" lon="10.827045924562245"><ele>100.0</ele><time>2026-04-26T09:48:41Z</time></trkpt><trkpt lat="45.58020480829647" lon="10.826911996004142"><ele>100.0</ele><time>2026-04-26T09:48:42Z</time></trkpt><trkpt lat="45.580288687421564" lon="10.826769685266818"><ele>100.0</ele><time>2026-04-26T09:48:43Z</time></trkpt><trkpt lat="45.58037473225677" lon="10.826626301054851"><ele>100.0</ele><time>2026-04-26T09:48:44Z</time></trkpt><trkpt lat="45.58045709639389" lon="10.826489515180276"><ele>100.0</ele><time>2026-04-26T09:48:45Z</time></trkpt><trkpt lat="45.58053842987577" lon="10.826355088774736"><ele>100.0</ele><time>2026-04-26T09:48:46Z</time></trkpt><trkpt lat="45.58062160533881" lon="10.826218433259811"><ele>100.0</ele><time>2026-04-26T09:48:47Z</time></trkpt><trkpt lat="45.58069301837903" lon="10.826098735318919"><ele>100.0</ele><time>2026-04-26T09:48:48Z</time></trkpt><trkpt lat="45.5807574807872" lon="10.825986706526363"><ele>100.0</ele><time>2026-04-26T09:48:49Z</time></trkpt><trkpt lat="45.580819864756066" lon="10.82587357138407"><ele>100.0</ele><time>2026-04-26T09:48:50Z</time></trkpt><trkpt lat="45.58086829270117" lon="10.825758045705479"><ele>99.8</ele><time>2026-04-26T09:48:51Z</time></trkpt><trkpt lat="45.5809183445432" lon="10.825651292551841"><ele>99.6</ele><time>2026-04-26T09:48:52Z</time></trkpt><trkpt lat="45.58097938178545" lon="10.825571866647847"><ele>99.4</ele><time>2026-04-26T09:48:53Z</time></trkpt><trkpt lat="45.58104295958757" lon="10.825508885879024"><ele>99.2</ele><time>2026-04-26T09:48:54Z</time></trkpt><trkpt lat="45.58110938964811" lon="10.825414168223253"><ele>99.0</ele><time>2026-04-26T09:48:55Z</time></trkpt><trkpt lat="45.58117332631285" lon="10.825280517475797"><ele>99.0</ele><time>2026-04-26T09:48:56Z</time></trkpt><trkpt lat="45.58122283216391" lon="10.825183716600812"><ele>99.0</ele><time>2026-04-26T09:48:57Z</time></trkpt><trkpt lat="45.58129827512104" lon="10.825068574516779"><ele>99.0</ele><time>2026-04-26T09:48:59Z</time></trkpt><trkpt lat="45.581325257219376" lon="10.82496024734235"><ele>99.0</ele><time>2026-04-26T09:49:01Z</time></trkpt><trkpt lat="45.58127463191431" lon="10.82481013823727"><ele>99.0</ele><time>2026-04-26T09:49:03Z</time></trkpt><trkpt lat="45.58122677106575" lon="10.824716535016153"><ele>99.0</ele><time>2026-04-26T09:49:04Z</time></trkpt><trkpt lat="45.58118746029479" lon="10.824615650217915"><ele>99.0</ele><time>2026-04-26T09:49:05Z</time></trkpt><trkpt lat="45.58115290860722" lon="10.824514308811011"><ele>99.0</ele><time>2026-04-26T09:49:06Z</time></trkpt><trkpt lat="45.58110409424109" lon="10.824398821823054"><ele>99.0</ele><time>2026-04-26T09:49:07Z</time></trkpt><trkpt lat="45.581040870218395" lon="10.824262634706312"><ele>99.0</ele><time>2026-04-26T09:49:08Z</time></trkpt><trkpt lat="45.58095477385867" lon="10.824122039546626"><ele>99.4</ele><time>2026-04-26T09:49:09Z</time></trkpt><trkpt lat="45.580863200150006" lon="10.824000934727898"><ele>99.80000000000001</ele><time>2026-04-26T09:49:10Z</time></trkpt><trkpt lat="45.5807758109603" lon="10.823891319016472"><ele>100.19999999999999</ele><time>2026-04-26T09:49:11Z</time></trkpt><trkpt lat="45.580702595660235" lon="10.82379658253812"><ele>100.6</ele><time>2026-04-26T09:49:12Z</time></trkpt><trkpt lat="45.58062008928363" lon="10.823720663207139"><ele>101.0</ele><time>2026-04-26T09:49:13Z</time></trkpt><trkpt lat="45.58052303071864" lon="10.823657866592042"><ele>101.0</ele><time>2026-04-26T09:49:14Z</time></trkpt><trkpt lat="45.58040703235343" lon="10.82359309740383"><ele>101.0</ele><time>2026-04-26T09:49:15Z</time></trkpt><trkpt lat="45.58028860576053" lon="10.823551911725348"><ele>101.0</ele><time>2026-04-26T09:49:16Z</time></trkpt><trkpt lat="45.58016236106565" lon="10.823515372736212"><ele>101.0</ele><time>2026-04-26T09:49:17Z</time></trkpt><trkpt lat="45.58005377844317" lon="10.823481480431454"><ele>100.5</ele><time>2026-04-26T09:49:18Z</time></trkpt><trkpt lat="45.57992897855608" lon="10.823435461350854"><ele>100.0</ele><time>2026-04-26T09:49:19Z</time></trkpt><trkpt lat="45.579787785044566" lon="10.823388945759218"><ele>99.5</ele><time>2026-04-26T09:49:20Z</time></trkpt><trkpt lat="45.57963067571101" lon="10.823353556761301"><ele>99.0</ele><time>2026-04-26T09:49:21Z</time></trkpt><trkpt lat="45.57947175651388" lon="10.823311452599357"><ele>98.25</ele><time>2026-04-26T09:49:22.001Z</time></trkpt><trkpt lat="45.579328561087024" lon="10.823288263852382"><ele>97.5</ele><time>2026-04-26T09:49:23.001Z</time></trkpt><trkpt lat="45.579209115338756" lon="10.823257432285967"><ele>96.75</ele><time>2026-04-26T09:49:24.001Z</time></trkpt><trkpt lat="45.5791007249699" lon="10.823235956644794"><ele>96.0</ele><time>2026-04-26T09:49:25.001Z</time></trkpt><trkpt lat="45.57900137509613" lon="10.823204096532129"><ele>96.0</ele><time>2026-04-26T09:49:26.001Z</time></trkpt><trkpt lat="45.57889810580825" lon="10.82315794662825"><ele>96.0</ele><time>2026-04-26T09:49:27.001Z</time></trkpt><trkpt lat="45.57879851696594" lon="10.82310698297662"><ele>96.0</ele><time>2026-04-26T09:49:28.001Z</time></trkpt><trkpt lat="45.578684345309654" lon="10.823050846494382"><ele>96.0</ele><time>2026-04-26T09:49:29.001Z</time></trkpt><trkpt lat="45.57857337289382" lon="10.822993300562837"><ele>96.0</ele><time>2026-04-26T09:49:30.001Z</time></trkpt><trkpt lat="45.57846211290231" lon="10.822918370863169"><ele>96.0</ele><time>2026-04-26T09:49:31.001Z</time></trkpt><trkpt lat="45.57835815598503" lon="10.822848146881379"><ele>96.0</ele><time>2026-04-26T09:49:32.001Z</time></trkpt><trkpt lat="45.578265334520836" lon="10.822797959701386"><ele>96.0</ele><time>2026-04-26T09:49:33.001Z</time></trkpt><trkpt lat="45.57818405689307" lon="10.822752865703745"><ele>96.0</ele><time>2026-04-26T09:49:34.001Z</time></trkpt><trkpt lat="45.578092565730984" lon="10.822675672094201"><ele>96.0</ele><time>2026-04-26T09:49:35.001Z</time></trkpt><trkpt lat="45.57797877321899" lon="10.822574678662189"><ele>96.0</ele><time>2026-04-26T09:49:36.001Z</time></trkpt><trkpt lat="45.577863294961055" lon="10.822487290302172"><ele>96.0</ele><time>2026-04-26T09:49:37.001Z</time></trkpt><trkpt lat="45.57774893816481" lon="10.822415457276964"><ele>96.0</ele><time>2026-04-26T09:49:38.001Z</time></trkpt><trkpt lat="45.57762897486732" lon="10.822336907854524"><ele>96.0</ele><time>2026-04-26T09:49:39.001Z</time></trkpt><trkpt lat="45.57752377581216" lon="10.82226993190841"><ele>96.0</ele><time>2026-04-26T09:49:40.001Z</time></trkpt><trkpt lat="45.57742528931653" lon="10.822199704352442"><ele>96.0</ele><time>2026-04-26T09:49:41.001Z</time></trkpt><trkpt lat="45.57732540619225" lon="10.822159869479076"><ele>96.0</ele><time>2026-04-26T09:49:42.001Z</time></trkpt><trkpt lat="45.57720732653837" lon="10.822158357326025"><ele>96.0</ele><time>2026-04-26T09:49:43.001Z</time></trkpt><trkpt lat="45.57705144927582" lon="10.822150452473618"><ele>96.5</ele><time>2026-04-26T09:49:44.001Z</time></trkpt><trkpt lat="45.576907652468364" lon="10.822117865497727"><ele>97.0</ele><time>2026-04-26T09:49:45.001Z</time></trkpt><trkpt lat="45.576772086143684" lon="10.822071787506747"><ele>97.5</ele><time>2026-04-26T09:49:46.001Z</time></trkpt><trkpt lat="45.576650777069446" lon="10.822034347533338"><ele>98.0</ele><time>2026-04-26T09:49:47.001Z</time></trkpt><trkpt lat="45.57651655864817" lon="10.82200273377412"><ele>98.0</ele><time>2026-04-26T09:49:48.001Z</time></trkpt><trkpt lat="45.57637675416181" lon="10.821962317006657"><ele>98.0</ele><time>2026-04-26T09:49:49.001Z</time></trkpt><trkpt lat="45.57624597420005" lon="10.82192268313034"><ele>98.0</ele><time>2026-04-26T09:49:50.001Z</time></trkpt><trkpt lat="45.57613735185986" lon="10.821895392821146"><ele>98.0</ele><time>2026-04-26T09:49:51.001Z</time></trkpt><trkpt lat="45.57604013964408" lon="10.821876636458354"><ele>97.75</ele><time>2026-04-26T09:49:52.001Z</time></trkpt><trkpt lat="45.57592478823577" lon="10.821856640711472"><ele>97.5</ele><time>2026-04-26T09:49:53.001Z</time></trkpt><trkpt lat="45.57580135509123" lon="10.821822527685159"><ele>97.25</ele><time>2026-04-26T09:49:54.001Z</time></trkpt><trkpt lat="45.57568745184596" lon="10.821769134812945"><ele>97.0</ele><time>2026-04-26T09:49:55.001Z</time></trkpt><trkpt lat="45.575577447454094" lon="10.82172441389022"><ele>96.33333333333334</ele><time>2026-04-26T09:49:56.001Z</time></trkpt><trkpt lat="45.575436902175475" lon="10.821671898796588"><ele>95.66666666666667</ele><time>2026-04-26T09:49:57.001Z</time></trkpt><trkpt lat="45.575274558629864" lon="10.821591506317237"><ele>95.0</ele><time>2026-04-26T09:49:58.001Z</time></trkpt><trkpt lat="45.575123237514696" lon="10.821513658295864"><ele>95.0</ele><time>2026-04-26T09:49:59.001Z</time></trkpt><trkpt lat="45.57499524938983" lon="10.82145173276244"><ele>95.0</ele><time>2026-04-26T09:50:00.001Z</time></trkpt><trkpt lat="45.57488541802725" lon="10.821405823462808"><ele>95.0</ele><time>2026-04-26T09:50:01.001Z</time></trkpt><trkpt lat="45.574781961514354" lon="10.821361782841846"><ele>95.0</ele><time>2026-04-26T09:50:02.001Z</time></trkpt><trkpt lat="45.57467165431883" lon="10.821315718032388"><ele>95.0</ele><time>2026-04-26T09:50:03.001Z</time></trkpt><trkpt lat="45.57453243596838" lon="10.82127618406683"><ele>95.0</ele><time>2026-04-26T09:50:04.001Z</time></trkpt><trkpt lat="45.574386424216634" lon="10.821249786712988"><ele>95.0</ele><time>2026-04-26T09:50:05.001Z</time></trkpt><trkpt lat="45.574256039201394" lon="10.821211432201615"><ele>95.0</ele><time>2026-04-26T09:50:06.001Z</time></trkpt><trkpt lat="45.5741266271713" lon="10.821140994025097"><ele>95.66666666666667</ele><time>2026-04-26T09:50:07.001Z</time></trkpt><trkpt lat="45.5739831111551" lon="10.821061682227223"><ele>96.33333333333334</ele><time>2026-04-26T09:50:08.001Z</time></trkpt><trkpt lat="45.573819327868435" lon="10.820991468996308"><ele>97.0</ele><time>2026-04-26T09:50:09.001Z</time></trkpt><trkpt lat="45.57366530852453" lon="10.820921221485193"><ele>97.25</ele><time>2026-04-26T09:50:10.001Z</time></trkpt><trkpt lat="45.57353270478592" lon="10.820840711639894"><ele>97.5</ele><time>2026-04-26T09:50:11.001Z</time></trkpt><trkpt lat="45.57340666435058" lon="10.820768511346603"><ele>97.75</ele><time>2026-04-26T09:50:12.001Z</time></trkpt><trkpt lat="45.57326840333471" lon="10.820704119827875"><ele>98.0</ele><time>2026-04-26T09:50:13.001Z</time></trkpt><trkpt lat="45.57313606713781" lon="10.820626024321797"><ele>98.0</ele><time>2026-04-26T09:50:14.001Z</time></trkpt><trkpt lat="45.57301141325911" lon="10.82055441774083"><ele>98.0</ele><time>2026-04-26T09:50:15.001Z</time></trkpt><trkpt lat="45.5728786747264" lon="10.820481220682556"><ele>98.0</ele><time>2026-04-26T09:50:16.001Z</time></trkpt><trkpt lat="45.5727399926789" lon="10.820394693109849"><ele>98.0</ele><time>2026-04-26T09:50:17.001Z</time></trkpt><trkpt lat="45.572607900867524" lon="10.820310236998758"><ele>98.0</ele><time>2026-04-26T09:50:18.001Z</time></trkpt><trkpt lat="45.572495249878614" lon="10.820254813742254"><ele>98.0</ele><time>2026-04-26T09:50:19.001Z</time></trkpt><trkpt lat="45.57238105982797" lon="10.820194301715693"><ele>98.0</ele><time>2026-04-26T09:50:20.001Z</time></trkpt><trkpt lat="45.57229034466379" lon="10.82014217461824"><ele>98.0</ele><time>2026-04-26T09:50:21.001Z</time></trkpt><trkpt lat="45.57218877043689" lon="10.82010633484334"><ele>98.0</ele><time>2026-04-26T09:50:23.001Z</time></trkpt><trkpt lat="45.57211668861983" lon="10.8202179713445"><ele>98.25</ele><time>2026-04-26T09:50:26.001Z</time></trkpt><trkpt lat="45.57209369010626" lon="10.820326960676786"><ele>98.5</ele><time>2026-04-26T09:50:27.001Z</time></trkpt><trkpt lat="45.57206887255681" lon="10.820502509565669"><ele>98.75</ele><time>2026-04-26T09:50:28.001Z</time></trkpt><trkpt lat="45.57204315161339" lon="10.820702437997351"><ele>99.0</ele><time>2026-04-26T09:50:29.001Z</time></trkpt><trkpt lat="45.57201426056031" lon="10.820847831821597"><ele>98.4</ele><time>2026-04-26T09:50:30.001Z</time></trkpt><trkpt lat="45.57199347634477" lon="10.820945336816127"><ele>97.80000000000001</ele><time>2026-04-26T09:50:31.001Z</time></trkpt><trkpt lat="45.57194624830509" lon="10.821019408678053"><ele>97.19999999999999</ele><time>2026-04-26T09:50:33.001Z</time></trkpt><trkpt lat="45.571825929468446" lon="10.820993003643796"><ele>96.6</ele><time>2026-04-26T09:50:35.001Z</time></trkpt><trkpt lat="45.57172637518178" lon="10.820927021892022"><ele>96.0</ele><time>2026-04-26T09:50:36.001Z</time></trkpt><trkpt lat="45.57159678329145" lon="10.820850414957297"><ele>96.0</ele><time>2026-04-26T09:50:37.001Z</time></trkpt><trkpt lat="45.57144501296772" lon="10.820782015293277"><ele>96.0</ele><time>2026-04-26T09:50:38.001Z</time></trkpt><trkpt lat="45.571294360210395" lon="10.820725477623213"><ele>96.0</ele><time>2026-04-26T09:50:39.001Z</time></trkpt><trkpt lat="45.57115565474313" lon="10.820670477775815"><ele>95.5</ele><time>2026-04-26T09:50:40.001Z</time></trkpt><trkpt lat="45.571025169194215" lon="10.820614099366406"><ele>95.0</ele><time>2026-04-26T09:50:41.001Z</time></trkpt><trkpt lat="45.57089797604419" lon="10.820566526700272"><ele>94.5</ele><time>2026-04-26T09:50:42.001Z</time></trkpt><trkpt lat="45.57077605305367" lon="10.820521846203702"><ele>94.0</ele><time>2026-04-26T09:50:43.001Z</time></trkpt><trkpt lat="45.57066165362759" lon="10.820467310490399"><ele>94.0</ele><time>2026-04-26T09:50:44Z</time></trkpt><trkpt lat="45.57054286395027" lon="10.820400773345312"><ele>94.0</ele><time>2026-04-26T09:50:45Z</time></trkpt><trkpt lat="45.570409100483616" lon="10.820334275601065"><ele>94.0</ele><time>2026-04-26T09:50:46Z</time></trkpt><trkpt lat="45.57026343939215" lon="10.820278422931986"><ele>94.0</ele><time>2026-04-26T09:50:47Z</time></trkpt><trkpt lat="45.57012525464074" lon="10.820226837056977"><ele>94.25</ele><time>2026-04-26T09:50:48Z</time></trkpt><trkpt lat="45.569995762613715" lon="10.8201749501497"><ele>94.5</ele><time>2026-04-26T09:50:49Z</time></trkpt><trkpt lat="45.56986988680629" lon="10.82012290538706"><ele>94.75</ele><time>2026-04-26T09:50:50Z</time></trkpt><trkpt lat="45.569754118862456" lon="10.820074051728096"><ele>95.0</ele><time>2026-04-26T09:50:51Z</time></trkpt><trkpt lat="45.56965510131711" lon="10.820034797237414"><ele>95.0</ele><time>2026-04-26T09:50:52Z</time></trkpt><trkpt lat="45.569566881406224" lon="10.82000132424162"><ele>95.0</ele><time>2026-04-26T09:50:53Z</time></trkpt><trkpt lat="45.569492282869824" lon="10.819973142285907"><ele>95.0</ele><time>2026-04-26T09:50:54Z</time></trkpt><trkpt lat="45.56942475728787" lon="10.81994561039739"><ele>95.0</ele><time>2026-04-26T09:50:55Z</time></trkpt><trkpt lat="45.56931555989774" lon="10.819920356385483"><ele>95.0</ele><time>2026-04-26T09:50:57Z</time></trkpt><trkpt lat="45.569252748625516" lon="10.820040923598384"><ele>95.0</ele><time>2026-04-26T09:50:59Z</time></trkpt><trkpt lat="45.56923190124593" lon="10.820165384516994"><ele>95.0</ele><time>2026-04-26T09:51:00Z</time></trkpt><trkpt lat="45.56924996783577" lon="10.820266286316167"><ele>95.0</ele><time>2026-04-26T09:51:01Z</time></trkpt><trkpt lat="45.56929041412898" lon="10.820351788353378"><ele>95.0</ele><time>2026-04-26T09:51:02Z</time></trkpt><trkpt lat="45.56935447393534" lon="10.820451370509815"><ele>95.0</ele><time>2026-04-26T09:51:03Z</time></trkpt><trkpt lat="45.56944543159619" lon="10.820579586222362"><ele>95.0</ele><time>2026-04-26T09:51:04Z</time></trkpt><trkpt lat="45.569550548618906" lon="10.820740616812296"><ele>95.0</ele><time>2026-04-26T09:51:05Z</time></trkpt><trkpt lat="45.5696444152387" lon="10.820902868918921"><ele>95.0</ele><time>2026-04-26T09:51:06Z</time></trkpt><trkpt lat="45.569710688131906" lon="10.821043983296706"><ele>95.0</ele><time>2026-04-26T09:51:07Z</time></trkpt><trkpt lat="45.56976332616747" lon="10.821170939526992"><ele>95.4</ele><time>2026-04-26T09:51:08Z</time></trkpt><trkpt lat="45.569804990499186" lon="10.821283197124261"><ele>95.8</ele><time>2026-04-26T09:51:09Z</time></trkpt><trkpt lat="45.56983960571675" lon="10.821391694024923"><ele>96.19999999999999</ele><time>2026-04-26T09:51:10Z</time></trkpt><trkpt lat="45.56987811480551" lon="10.821538383981713"><ele>96.6</ele><time>2026-04-26T09:51:11Z</time></trkpt><trkpt lat="45.569911182626356" lon="10.821685069901344"><ele>97.0</ele><time>2026-04-26T09:51:12Z</time></trkpt><trkpt lat="45.56993412949957" lon="10.821836453659968"><ele>97.33333333333334</ele><time>2026-04-26T09:51:13Z</time></trkpt><trkpt lat="45.56995049567772" lon="10.821966872075595"><ele>97.66666666666667</ele><time>2026-04-26T09:51:14Z</time></trkpt><trkpt lat="45.5699691874482" lon="10.82208508370191"><ele>98.0</ele><time>2026-04-26T09:51:15Z</time></trkpt><trkpt lat="45.56999222215622" lon="10.82216962211597"><ele>98.33333333333334</ele><time>2026-04-26T09:51:16Z</time></trkpt><trkpt lat="45.57007820552606" lon="10.822269173151701"><ele>98.66666666666667</ele><time>2026-04-26T09:51:18Z</time></trkpt><trkpt lat="45.57016295074391" lon="10.822303769806707"><ele>99.0</ele><time>2026-04-26T09:51:19Z</time></trkpt><trkpt lat="45.57027410553008" lon="10.822351994475023"><ele>98.75</ele><time>2026-04-26T09:51:20Z</time></trkpt><trkpt lat="45.570393781323936" lon="10.822409154419544"><ele>98.5</ele><time>2026-04-26T09:51:21Z</time></trkpt><trkpt lat="45.57043575264312" lon="10.822639020729993"><ele>98.25</ele><time>2026-04-26T09:51:22Z</time></trkpt><trkpt lat="45.57052570409125" lon="10.822699383001815"><ele>98.0</ele><time>2026-04-26T09:51:23Z</time></trkpt><trkpt lat="45.57063760115005" lon="10.822767667588144"><ele>101.0</ele><time>2026-04-26T09:51:24Z</time></trkpt><trkpt lat="45.57077104569543" lon="10.822835745587515"><ele>104.0</ele><time>2026-04-26T09:51:25Z</time></trkpt><trkpt lat="45.5708799410923" lon="10.822899922584673"><ele>107.0</ele><time>2026-04-26T09:51:26Z</time></trkpt><trkpt lat="45.57097896615319" lon="10.822959788315261"><ele>110.0</ele><time>2026-04-26T09:51:27Z</time></trkpt><trkpt lat="45.571071632623344" lon="10.82301560122397"><ele>110.0</ele><time>2026-04-26T09:51:28Z</time></trkpt><trkpt lat="45.57117770980905" lon="10.823077873365206"><ele>110.0</ele><time>2026-04-26T09:51:29Z</time></trkpt><trkpt lat="45.571300549288225" lon="10.823138523054"><ele>110.0</ele><time>2026-04-26T09:51:30Z</time></trkpt><trkpt lat="45.571422321751946" lon="10.823194867104508"><ele>110.0</ele><time>2026-04-26T09:51:31Z</time></trkpt><trkpt lat="45.571524902191406" lon="10.823245499057068"><ele>110.16666666666666</ele><time>2026-04-26T09:51:32Z</time></trkpt><trkpt lat="45.571603484384674" lon="10.823296968970336"><ele>110.33333333333333</ele><time>2026-04-26T09:51:33Z</time></trkpt><trkpt lat="45.57168269676339" lon="10.823392616350075"><ele>110.5</ele><time>2026-04-26T09:51:34Z</time></trkpt><trkpt lat="45.57176865162036" lon="10.823438676176304"><ele>110.66666666666666</ele><time>2026-04-26T09:51:35Z</time></trkpt><trkpt lat="45.57184251429485" lon="10.82347825632552"><ele>110.83333333333333</ele><time>2026-04-26T09:51:36Z</time></trkpt><trkpt lat="45.571915825326585" lon="10.823517540875509"><ele>111.0</ele><time>2026-04-26T09:51:38Z</time></trkpt><trkpt lat="45.57200414616044" lon="10.82356486859771"><ele>108.25</ele><time>2026-04-26T09:51:41Z</time></trkpt><trkpt lat="45.57212361106828" lon="10.823274728063394"><ele>105.5</ele><time>2026-04-26T09:51:42Z</time></trkpt><trkpt lat="45.57219101861862" lon="10.823414021124952"><ele>102.75</ele><time>2026-04-26T09:51:44Z</time></trkpt><trkpt lat="45.572220752959375" lon="10.823504796922142"><ele>100.0</ele><time>2026-04-26T09:51:45Z</time></trkpt><trkpt lat="45.57222433192923" lon="10.823600423314355"><ele>100.0</ele><time>2026-04-26T09:51:46Z</time></trkpt><trkpt lat="45.57217938101469" lon="10.823713254607615"><ele>100.0</ele><time>2026-04-26T09:51:48Z</time></trkpt><trkpt lat="45.57210823905765" lon="10.823819610038367"><ele>100.0</ele><time>2026-04-26T09:51:50Z</time></trkpt><trkpt lat="45.57205798503206" lon="10.823944712242419"><ele>100.0</ele><time>2026-04-26T09:51:52Z</time></trkpt><trkpt lat="45.57192982165681" lon="10.823972627670615"><ele>100.0</ele><time>2026-04-26T09:51:53Z</time></trkpt><trkpt lat="45.57190432353842" lon="10.824102262603414"><ele>102.2</ele><time>2026-04-26T09:51:55Z</time></trkpt><trkpt lat="45.57185630348068" lon="10.824268606709644"><ele>104.4</ele><time>2026-04-26T09:51:57Z</time></trkpt><trkpt lat="45.57185304055006" lon="10.824364930222252"><ele>106.6</ele><time>2026-04-26T09:51:58Z</time></trkpt><trkpt lat="45.57187436389132" lon="10.824237110308006"><ele>108.8</ele><time>2026-04-26T09:52:04Z</time></trkpt><trkpt lat="45.57192159259348" lon="10.824073418747377"><ele>111.0</ele><time>2026-04-26T09:52:05Z</time></trkpt><trkpt lat="45.57192834988467" lon="10.823947860986976"><ele>111.0</ele><time>2026-04-26T09:52:06Z</time></trkpt><trkpt lat="45.57189025921532" lon="10.823798642311193"><ele>111.0</ele><time>2026-04-26T09:52:08Z</time></trkpt><trkpt lat="45.57182029626493" lon="10.823814124834115"><ele>111.0</ele><time>2026-04-26T09:52:10Z</time></trkpt><trkpt lat="45.571896166991685" lon="10.823924491380327"><ele>111.0</ele><time>2026-04-26T09:52:14Z</time></trkpt><trkpt lat="45.571867645874455" lon="10.824184305693745"><ele>111.8</ele><time>2026-04-26T09:52:18Z</time></trkpt><trkpt lat="45.57183813491961" lon="10.824325038244712"><ele>112.6</ele><time>2026-04-26T09:52:20Z</time></trkpt><trkpt lat="45.57183826050189" lon="10.824415496485088"><ele>113.4</ele><time>2026-04-26T09:52:21Z</time></trkpt><trkpt lat="45.57188827069735" lon="10.824593383996659"><ele>114.2</ele><time>2026-04-26T09:52:23Z</time></trkpt><trkpt lat="45.57191968420952" lon="10.82470613621462"><ele>115.0</ele><time>2026-04-26T09:52:24Z</time></trkpt><trkpt lat="45.57182931224243" lon="10.824971863722732"><ele>114.99999999999999</ele><time>2026-04-26T09:52:26Z</time></trkpt><trkpt lat="45.571846056827596" lon="10.825080689129264"><ele>115.0</ele><time>2026-04-26T09:52:28Z</time></trkpt><trkpt lat="45.57186239802768" lon="10.82518541898302"><ele>114.99999999999999</ele><time>2026-04-26T09:52:32Z</time></trkpt><trkpt lat="45.571876968630164" lon="10.825273292279677"><ele>114.99999999999999</ele><time>2026-04-26T09:52:35Z</time></trkpt><trkpt lat="45.57185524264058" lon="10.825364482734734"><ele>115.0</ele><time>2026-04-26T09:53:55Z</time></trkpt><trkpt lat="45.571788631510195" lon="10.82534801232117"><ele>114.99999999999999</ele><time>2026-04-26T09:53:56Z</time></trkpt><trkpt lat="45.571706048828595" lon="10.825366479082739"><ele>114.99999999999999</ele><time>2026-04-26T09:53:57Z</time></trkpt><trkpt lat="45.57161744456111" lon="10.825408297497475"><ele>115.6</ele><time>2026-04-26T09:53:58Z</time></trkpt><trkpt lat="45.57151175433413" lon="10.825433855677476"><ele>116.2</ele><time>2026-04-26T09:53:59Z</time></trkpt><trkpt lat="45.57140431584295" lon="10.825468255973496"><ele>116.80000000000001</ele><time>2026-04-26T09:54:00Z</time></trkpt><trkpt lat="45.571293030614946" lon="10.825501547013083"><ele>117.4</ele><time>2026-04-26T09:54:01Z</time></trkpt><trkpt lat="45.57118342791719" lon="10.825536752190368"><ele>118.0</ele><time>2026-04-26T09:54:02Z</time></trkpt><trkpt lat="45.57107034384944" lon="10.825572653462924"><ele>118.0</ele><time>2026-04-26T09:54:03Z</time></trkpt><trkpt lat="45.57095178114138" lon="10.825610364515002"><ele>118.0</ele><time>2026-04-26T09:54:04Z</time></trkpt><trkpt lat="45.57082659213723" lon="10.825649678788176"><ele>118.0</ele><time>2026-04-26T09:54:05Z</time></trkpt><trkpt lat="45.57070125315704" lon="10.825695291391852"><ele>118.0</ele><time>2026-04-26T09:54:06Z</time></trkpt><trkpt lat="45.57057904911171" lon="10.825739312199122"><ele>118.0</ele><time>2026-04-26T09:54:07Z</time></trkpt><trkpt lat="45.57045069600058" lon="10.825817275728612"><ele>118.0</ele><time>2026-04-26T09:54:08Z</time></trkpt><trkpt lat="45.57033309835381" lon="10.825881336236527"><ele>118.0</ele><time>2026-04-26T09:54:09Z</time></trkpt><trkpt lat="45.57021289587411" lon="10.825941565087213"><ele>118.0</ele><time>2026-04-26T09:54:10Z</time></trkpt><trkpt lat="45.570084423026344" lon="10.826005697267231"><ele>119.75</ele><time>2026-04-26T09:54:11Z</time></trkpt><trkpt lat="45.569956387112605" lon="10.826087714031045"><ele>121.5</ele><time>2026-04-26T09:54:12Z</time></trkpt><trkpt lat="45.56984374252936" lon="10.826199914386635"><ele>123.25</ele><time>2026-04-26T09:54:13Z</time></trkpt><trkpt lat="45.56974599913624" lon="10.826307126042364"><ele>125.0</ele><time>2026-04-26T09:54:14Z</time></trkpt><trkpt lat="45.56966938654316" lon="10.826395171688995"><ele>125.0</ele><time>2026-04-26T09:54:15Z</time></trkpt><trkpt lat="45.569605336823926" lon="10.8264666540452"><ele>125.0</ele><time>2026-04-26T09:54:16Z</time></trkpt><trkpt lat="45.56952101908419" lon="10.826548484700872"><ele>125.0</ele><time>2026-04-26T09:54:18Z</time></trkpt><trkpt lat="45.56947264220938" lon="10.826608627312677"><ele>125.0</ele><time>2026-04-26T09:54:19Z</time></trkpt><trkpt lat="45.56935743313666" lon="10.826639210018495"><ele>125.0</ele><time>2026-04-26T09:54:20Z</time></trkpt><trkpt lat="45.56922482168707" lon="10.826682766706623"><ele>124.33333333333333</ele><time>2026-04-26T09:54:21Z</time></trkpt><trkpt lat="45.569073500374984" lon="10.826735535654727"><ele>123.66666666666666</ele><time>2026-04-26T09:54:22Z</time></trkpt><trkpt lat="45.56890382676333" lon="10.826793285718415"><ele>123.0</ele><time>2026-04-26T09:54:23Z</time></trkpt><trkpt lat="45.56872804228535" lon="10.826846580008242"><ele>137.33333333333334</ele><time>2026-04-26T09:54:24Z</time></trkpt><trkpt lat="45.56854538037352" lon="10.826882661067101"><ele>151.66666666666669</ele><time>2026-04-26T09:54:25Z</time></trkpt><trkpt lat="45.568363393230854" lon="10.82690216918521"><ele>166.0</ele><time>2026-04-26T09:54:26Z</time></trkpt><trkpt lat="45.56818326015249" lon="10.826887987539655"><ele>166.0</ele><time>2026-04-26T09:54:27Z</time></trkpt><trkpt lat="45.568014673931685" lon="10.826829644822372"><ele>166.0</ele><time>2026-04-26T09:54:28Z</time></trkpt><trkpt lat="45.567869112722526" lon="10.82672487170281"><ele>166.0</ele><time>2026-04-26T09:54:29Z</time></trkpt><trkpt lat="45.567737163355815" lon="10.82658823433658"><ele>166.0</ele><time>2026-04-26T09:54:30Z</time></trkpt><trkpt lat="45.567616288794994" lon="10.826510997331216"><ele>166.0</ele><time>2026-04-26T09:54:31Z</time></trkpt><trkpt lat="45.56748861593015" lon="10.82645508654069"><ele>166.0</ele><time>2026-04-26T09:54:32Z</time></trkpt><trkpt lat="45.56722819216846" lon="10.826419694168912"><ele>166.0</ele><time>2026-04-26T09:54:33Z</time></trkpt><trkpt lat="45.567051775395086" lon="10.826378013823483"><ele>166.0</ele><time>2026-04-26T09:54:34Z</time></trkpt><trkpt lat="45.56684407429915" lon="10.826316550021367"><ele>166.0</ele><time>2026-04-26T09:54:35Z</time></trkpt><trkpt lat="45.56665438497157" lon="10.82627574709627"><ele>184.0</ele><time>2026-04-26T09:54:36Z</time></trkpt><trkpt lat="45.566491435327286" lon="10.826247657187508"><ele>202.0</ele><time>2026-04-26T09:54:37Z</time></trkpt><trkpt lat="45.5662936246519" lon="10.826212829992063"><ele>220.0</ele><time>2026-04-26T09:54:38Z</time></trkpt><trkpt lat="45.56609346601191" lon="10.826186455801865"><ele>220.0</ele><time>2026-04-26T09:54:39Z</time></trkpt><trkpt lat="45.56590306963492" lon="10.826144591764146"><ele>220.0</ele><time>2026-04-26T09:54:40Z</time></trkpt><trkpt lat="45.56571203393683" lon="10.826109671800106"><ele>220.0</ele><time>2026-04-26T09:54:41Z</time></trkpt><trkpt lat="45.56551837041548" lon="10.826072426897351"><ele>216.33333333333331</ele><time>2026-04-26T09:54:42Z</time></trkpt><trkpt lat="45.565343655557704" lon="10.826019223276546"><ele>212.66666666666669</ele><time>2026-04-26T09:54:43Z</time></trkpt><trkpt lat="45.56517353172281" lon="10.82600498342485"><ele>209.0</ele><time>2026-04-26T09:54:44Z</time></trkpt><trkpt lat="45.565017874523065" lon="10.825967403904038"><ele>185.0</ele><time>2026-04-26T09:54:45Z</time></trkpt><trkpt lat="45.56486257920719" lon="10.825938474016201"><ele>161.0</ele><time>2026-04-26T09:54:46Z</time></trkpt><trkpt lat="45.56469772998428" lon="10.825903232687995"><ele>137.0</ele><time>2026-04-26T09:54:47Z</time></trkpt><trkpt lat="45.564529216947015" lon="10.82586905148326"><ele>128.66666666666666</ele><time>2026-04-26T09:54:48Z</time></trkpt><trkpt lat="45.56435208222773" lon="10.82585029816916"><ele>120.33333333333334</ele><time>2026-04-26T09:54:49Z</time></trkpt><trkpt lat="45.56417227905025" lon="10.825855901127367"><ele>112.0</ele><time>2026-04-26T09:54:50Z</time></trkpt><trkpt lat="45.56399065054916" lon="10.82587299462108"><ele>112.0</ele><time>2026-04-26T09:54:51Z</time></trkpt><trkpt lat="45.56379932220621" lon="10.82590409594238"><ele>112.0</ele><time>2026-04-26T09:54:52Z</time></trkpt><trkpt lat="45.56361714894033" lon="10.82595781429914"><ele>112.0</ele><time>2026-04-26T09:54:53Z</time></trkpt><trkpt lat="45.563439103577565" lon="10.826032402270888"><ele>115.33333333333334</ele><time>2026-04-26T09:54:54Z</time></trkpt><trkpt lat="45.56326635660271" lon="10.826137892786093"><ele>118.66666666666666</ele><time>2026-04-26T09:54:55Z</time></trkpt><trkpt lat="45.56310787311299" lon="10.8262508545895"><ele>122.0</ele><time>2026-04-26T09:54:56Z</time></trkpt><trkpt lat="45.562962027206574" lon="10.826375970481784"><ele>114.33333333333333</ele><time>2026-04-26T09:54:57Z</time></trkpt><trkpt lat="45.56282613679495" lon="10.826509365797914"><ele>106.66666666666666</ele><time>2026-04-26T09:54:58Z</time></trkpt><trkpt lat="45.56270577143543" lon="10.826658774001821"><ele>99.0</ele><time>2026-04-26T09:54:59Z</time></trkpt><trkpt lat="45.5625944526164" lon="10.826835423945738"><ele>98.33333333333334</ele><time>2026-04-26T09:55:00Z</time></trkpt><trkpt lat="45.56249637494504" lon="10.827016016804532"><ele>97.66666666666667</ele><time>2026-04-26T09:55:01Z</time></trkpt><trkpt lat="45.56239969258585" lon="10.827189157180964"><ele>97.0</ele><time>2026-04-26T09:55:02Z</time></trkpt><trkpt lat="45.56229495041408" lon="10.827353355566645"><ele>97.0</ele><time>2026-04-26T09:55:03Z</time></trkpt><trkpt lat="45.56217951269801" lon="10.827509760087832"><ele>97.0</ele><time>2026-04-26T09:55:04Z</time></trkpt><trkpt lat="45.562058364091136" lon="10.82766010587155"><ele>97.0</ele><time>2026-04-26T09:55:05Z</time></trkpt><trkpt lat="45.561918974088094" lon="10.827773147541137"><ele>104.0</ele><time>2026-04-26T09:55:06Z</time></trkpt><trkpt lat="45.56177963528361" lon="10.827905934141882"><ele>111.0</ele><time>2026-04-26T09:55:07Z</time></trkpt><trkpt lat="45.56164995330328" lon="10.828071250395755"><ele>118.0</ele><time>2026-04-26T09:55:08Z</time></trkpt><trkpt lat="45.56151140840606" lon="10.828235487925186"><ele>118.0</ele><time>2026-04-26T09:55:09Z</time></trkpt><trkpt lat="45.561371714442735" lon="10.828403689482931"><ele>118.0</ele><time>2026-04-26T09:55:10Z</time></trkpt><trkpt lat="45.56123816304742" lon="10.828572097520377"><ele>118.0</ele><time>2026-04-26T09:55:11Z</time></trkpt><trkpt lat="45.561103308088555" lon="10.8287572239847"><ele>118.0</ele><time>2026-04-26T09:55:12Z</time></trkpt><trkpt lat="45.56093935437756" lon="10.828971463974447"><ele>118.0</ele><time>2026-04-26T09:55:13Z</time></trkpt><trkpt lat="45.560777978175985" lon="10.829253695219633"><ele>118.0</ele><time>2026-04-26T09:55:14Z</time></trkpt><trkpt lat="45.560609963175466" lon="10.829581345945726"><ele>118.0</ele><time>2026-04-26T09:55:15Z</time></trkpt><trkpt lat="45.56046018096324" lon="10.829924070199175"><ele>118.0</ele><time>2026-04-26T09:55:16Z</time></trkpt><trkpt lat="45.56030391016978" lon="10.830201868957205"><ele>118.0</ele><time>2026-04-26T09:55:17Z</time></trkpt><trkpt lat="45.560100285815544" lon="10.830394102769873"><ele>118.0</ele><time>2026-04-26T09:55:18Z</time></trkpt><trkpt lat="45.559870851764316" lon="10.83057818789115"><ele>118.0</ele><time>2026-04-26T09:55:19Z</time></trkpt><trkpt lat="45.55962123389847" lon="10.830774907026331"><ele>158.5</ele><time>2026-04-26T09:55:20Z</time></trkpt><trkpt lat="45.55935484866112" lon="10.830993859610233"><ele>199.0</ele><time>2026-04-26T09:55:21Z</time></trkpt><trkpt lat="45.55905640148062" lon="10.831183498630585"><ele>199.0</ele><time>2026-04-26T09:55:22Z</time></trkpt><trkpt lat="45.55875121518092" lon="10.831360474202578"><ele>199.0</ele><time>2026-04-26T09:55:23Z</time></trkpt><trkpt lat="45.5584475184171" lon="10.831525177976426"><ele>209.0</ele><time>2026-04-26T09:55:24Z</time></trkpt><trkpt lat="45.558155265576666" lon="10.831626109418506"><ele>219.0</ele><time>2026-04-26T09:55:25Z</time></trkpt><trkpt lat="45.5578814864968" lon="10.83170506394767"><ele>219.0</ele><time>2026-04-26T09:55:26Z</time></trkpt><trkpt lat="45.55761398372881" lon="10.831726055812712"><ele>219.0</ele><time>2026-04-26T09:55:27Z</time></trkpt><trkpt lat="45.55734462828176" lon="10.831682343095446"><ele>201.5</ele><time>2026-04-26T09:55:28Z</time></trkpt><trkpt lat="45.5570671721934" lon="10.831610303842682"><ele>184.0</ele><time>2026-04-26T09:55:29Z</time></trkpt><trkpt lat="45.556772419193166" lon="10.83154715116938"><ele>184.0</ele><time>2026-04-26T09:55:30Z</time></trkpt><trkpt lat="45.55646339510993" lon="10.831499361947674"><ele>184.0</ele><time>2026-04-26T09:55:31Z</time></trkpt><trkpt lat="45.55617109080173" lon="10.831442350202902"><ele>210.0</ele><time>2026-04-26T09:55:32Z</time></trkpt><trkpt lat="45.55590975790445" lon="10.831341658218442"><ele>236.0</ele><time>2026-04-26T09:55:33Z</time></trkpt><trkpt lat="45.555664857418954" lon="10.831176605459177"><ele>164.5</ele><time>2026-04-26T09:55:34Z</time></trkpt><trkpt lat="45.555443339593516" lon="10.830937728686212"><ele>93.0</ele><time>2026-04-26T09:55:35Z</time></trkpt><trkpt lat="45.55520199441139" lon="10.830710760300853"><ele>93.0</ele><time>2026-04-26T09:55:36Z</time></trkpt><trkpt lat="45.554971512052205" lon="10.830463001479767"><ele>93.0</ele><time>2026-04-26T09:55:37Z</time></trkpt><trkpt lat="45.554740351795886" lon="10.830257601778555"><ele>97.0</ele><time>2026-04-26T09:55:38Z</time></trkpt><trkpt lat="45.554512502572024" lon="10.83009405972475"><ele>101.0</ele><time>2026-04-26T09:55:39Z</time></trkpt><trkpt lat="45.554284955648406" lon="10.829971592730052"><ele>101.0</ele><time>2026-04-26T09:55:40Z</time></trkpt><trkpt lat="45.55406815044004" lon="10.829879889293375"><ele>101.0</ele><time>2026-04-26T09:55:41Z</time></trkpt><trkpt lat="45.55385636630906" lon="10.829798650641008"><ele>101.0</ele><time>2026-04-26T09:55:42Z</time></trkpt><trkpt lat="45.55364125198312" lon="10.829721360835551"><ele>107.5</ele><time>2026-04-26T09:55:43Z</time></trkpt><trkpt lat="45.55342537265571" lon="10.829645453137639"><ele>114.0</ele><time>2026-04-26T09:55:44Z</time></trkpt><trkpt lat="45.55320705872238" lon="10.829550205055924"><ele>114.0</ele><time>2026-04-26T09:55:45Z</time></trkpt><trkpt lat="45.553002973925814" lon="10.82938710137566"><ele>114.0</ele><time>2026-04-26T09:55:46Z</time></trkpt><trkpt lat="45.55279646514262" lon="10.829221517260455"><ele>109.0</ele><time>2026-04-26T09:55:47Z</time></trkpt><trkpt lat="45.552580657452474" lon="10.829043933798198"><ele>104.0</ele><time>2026-04-26T09:55:48Z</time></trkpt><trkpt lat="45.55237999740461" lon="10.828824745831412"><ele>104.0</ele><time>2026-04-26T09:55:49Z</time></trkpt><trkpt lat="45.55218948796329" lon="10.828598609918071"><ele>104.0</ele><time>2026-04-26T09:55:50Z</time></trkpt><trkpt lat="45.55201146843249" lon="10.82838502660008"><ele>110.0</ele><time>2026-04-26T09:55:51Z</time></trkpt><trkpt lat="45.55183496126641" lon="10.828195286142996"><ele>116.0</ele><time>2026-04-26T09:55:52Z</time></trkpt><trkpt lat="45.55165802791633" lon="10.828010330512548"><ele>122.0</ele><time>2026-04-26T09:55:53Z</time></trkpt><trkpt lat="45.551499552250796" lon="10.827811007602609"><ele>115.66666666666666</ele><time>2026-04-26T09:55:54Z</time></trkpt><trkpt lat="45.551366121731405" lon="10.827586072317137"><ele>109.33333333333334</ele><time>2026-04-26T09:55:55Z</time></trkpt><trkpt lat="45.55123770131952" lon="10.827347552104028"><ele>103.0</ele><time>2026-04-26T09:55:56Z</time></trkpt><trkpt lat="45.551101636512946" lon="10.827114418853258"><ele>103.0</ele><time>2026-04-26T09:55:57Z</time></trkpt><trkpt lat="45.55096161648567" lon="10.826884928030768"><ele>103.0</ele><time>2026-04-26T09:55:58Z</time></trkpt><trkpt lat="45.55082511995912" lon="10.826657510014407"><ele>103.0</ele><time>2026-04-26T09:55:59Z</time></trkpt><trkpt lat="45.550692976082" lon="10.82643209569407"><ele>100.33333333333334</ele><time>2026-04-26T09:56:00Z</time></trkpt><trkpt lat="45.55056660532695" lon="10.826214189253898"><ele>97.66666666666667</ele><time>2026-04-26T09:56:01Z</time></trkpt><trkpt lat="45.55044983376324" lon="10.82601623575832"><ele>95.0</ele><time>2026-04-26T09:56:02Z</time></trkpt><trkpt lat="45.55033797288463" lon="10.825832112907902"><ele>95.0</ele><time>2026-04-26T09:56:03Z</time></trkpt><trkpt lat="45.55022799035446" lon="10.825655476277941"><ele>95.0</ele><time>2026-04-26T09:56:04Z</time></trkpt><trkpt lat="45.55011785566573" lon="10.825484789599427"><ele>95.0</ele><time>2026-04-26T09:56:05Z</time></trkpt><trkpt lat="45.55000521154257" lon="10.825319797514311"><ele>95.0</ele><time>2026-04-26T09:56:06Z</time></trkpt><trkpt lat="45.5498873813828" lon="10.825162430633343"><ele>95.0</ele><time>2026-04-26T09:56:07Z</time></trkpt><trkpt lat="45.54975335846086" lon="10.825002573145117"><ele>95.0</ele><time>2026-04-26T09:56:08Z</time></trkpt><trkpt lat="45.549610224545425" lon="10.8248438385504"><ele>95.66666666666667</ele><time>2026-04-26T09:56:09Z</time></trkpt><trkpt lat="45.54947022846438" lon="10.8246880916547"><ele>96.33333333333334</ele><time>2026-04-26T09:56:10Z</time></trkpt><trkpt lat="45.54933549640072" lon="10.824546115853968"><ele>97.0</ele><time>2026-04-26T09:56:11Z</time></trkpt><trkpt lat="45.54920253605428" lon="10.824409703605332"><ele>96.66666666666667</ele><time>2026-04-26T09:56:12Z</time></trkpt><trkpt lat="45.549077681705874" lon="10.824279440199422"><ele>96.33333333333334</ele><time>2026-04-26T09:56:13Z</time></trkpt><trkpt lat="45.5489547710792" lon="10.824147174574232"><ele>96.0</ele><time>2026-04-26T09:56:14Z</time></trkpt><trkpt lat="45.548832409833764" lon="10.824018991605875"><ele>96.0</ele><time>2026-04-26T09:56:15Z</time></trkpt><trkpt lat="45.54870604855841" lon="10.823899383104616"><ele>96.0</ele><time>2026-04-26T09:56:16Z</time></trkpt><trkpt lat="45.548586938491155" lon="10.823802979523142"><ele>96.0</ele><time>2026-04-26T09:56:17Z</time></trkpt><trkpt lat="45.54847180914766" lon="10.823718219591392"><ele>96.0</ele><time>2026-04-26T09:56:18Z</time></trkpt><trkpt lat="45.5483600847289" lon="10.823635572630806"><ele>96.0</ele><time>2026-04-26T09:56:19Z</time></trkpt><trkpt lat="45.54824346197776" lon="10.823553327826962"><ele>96.0</ele><time>2026-04-26T09:56:20Z</time></trkpt><trkpt lat="45.54811916769976" lon="10.823475239564527"><ele>96.0</ele><time>2026-04-26T09:56:21Z</time></trkpt><trkpt lat="45.54798134726651" lon="10.823398458291678"><ele>96.0</ele><time>2026-04-26T09:56:22Z</time></trkpt><trkpt lat="45.54783214192399" lon="10.823324932076732"><ele>97.0</ele><time>2026-04-26T09:56:23Z</time></trkpt><trkpt lat="45.547672315018175" lon="10.823257008350938"><ele>98.0</ele><time>2026-04-26T09:56:24Z</time></trkpt><trkpt lat="45.54750296695891" lon="10.823199999079293"><ele>99.0</ele><time>2026-04-26T09:56:25Z</time></trkpt><trkpt lat="45.547329746483555" lon="10.823158337379276"><ele>99.0</ele><time>2026-04-26T09:56:26Z</time></trkpt><trkpt lat="45.54714847972682" lon="10.823120038231691"><ele>99.0</ele><time>2026-04-26T09:56:27Z</time></trkpt><trkpt lat="45.546979757590016" lon="10.823094238875273"><ele>99.0</ele><time>2026-04-26T09:56:28Z</time></trkpt><trkpt lat="45.54680897722143" lon="10.8230753053239"><ele>100.66666666666666</ele><time>2026-04-26T09:56:29Z</time></trkpt><trkpt lat="45.546639852438766" lon="10.823057094733509"><ele>102.33333333333333</ele><time>2026-04-26T09:56:30Z</time></trkpt><trkpt lat="45.546472990728645" lon="10.823040311242014"><ele>104.0</ele><time>2026-04-26T09:56:31Z</time></trkpt><trkpt lat="45.54630973186844" lon="10.823024759905698"><ele>104.0</ele><time>2026-04-26T09:56:32Z</time></trkpt><trkpt lat="45.546143212473204" lon="10.823012872069757"><ele>104.0</ele><time>2026-04-26T09:56:33Z</time></trkpt><trkpt lat="45.54597848962107" lon="10.823002049565915"><ele>104.0</ele><time>2026-04-26T09:56:34Z</time></trkpt><trkpt lat="45.54582166612323" lon="10.822989803573295"><ele>104.0</ele><time>2026-04-26T09:56:35Z</time></trkpt><trkpt lat="45.545673696957465" lon="10.822973869842567"><ele>104.0</ele><time>2026-04-26T09:56:36Z</time></trkpt><trkpt lat="45.54552418223776" lon="10.822959370257015"><ele>104.0</ele><time>2026-04-26T09:56:37Z</time></trkpt><trkpt lat="45.54538224352337" lon="10.82294982991811"><ele>104.0</ele><time>2026-04-26T09:56:38Z</time></trkpt><trkpt lat="45.54524147811841" lon="10.822943079053612"><ele>104.66666666666666</ele><time>2026-04-26T09:56:39Z</time></trkpt><trkpt lat="45.54509642239406" lon="10.822937525682596"><ele>105.33333333333334</ele><time>2026-04-26T09:56:40Z</time></trkpt><trkpt lat="45.54494836200986" lon="10.822925302086876"><ele>106.0</ele><time>2026-04-26T09:56:41Z</time></trkpt><trkpt lat="45.54478964023962" lon="10.822910492993183"><ele>106.0</ele><time>2026-04-26T09:56:42Z</time></trkpt><trkpt lat="45.544621808696704" lon="10.822893662596305"><ele>106.0</ele><time>2026-04-26T09:56:43Z</time></trkpt><trkpt lat="45.54445949452029" lon="10.822880869371462"><ele>106.0</ele><time>2026-04-26T09:56:44Z</time></trkpt><trkpt lat="45.544303975430765" lon="10.822868526665252"><ele>106.75</ele><time>2026-04-26T09:56:45Z</time></trkpt><trkpt lat="45.54415369080437" lon="10.82285476567934"><ele>107.5</ele><time>2026-04-26T09:56:46Z</time></trkpt><trkpt lat="45.544005939399646" lon="10.822841079273717"><ele>108.25</ele><time>2026-04-26T09:56:47Z</time></trkpt><trkpt lat="45.54386071275385" lon="10.822826732548762"><ele>109.0</ele><time>2026-04-26T09:56:48Z</time></trkpt><trkpt lat="45.543713498615624" lon="10.822815738782323"><ele>109.33333333333334</ele><time>2026-04-26T09:56:49Z</time></trkpt><trkpt lat="45.543564486885266" lon="10.822808077863868"><ele>109.66666666666666</ele><time>2026-04-26T09:56:50Z</time></trkpt><trkpt lat="45.5434138584551" lon="10.82279829492221"><ele>110.0</ele><time>2026-04-26T09:56:51Z</time></trkpt><trkpt lat="45.543262167546395" lon="10.822788907326506"><ele>110.0</ele><time>2026-04-26T09:56:52Z</time></trkpt><trkpt lat="45.543109953701205" lon="10.822774996999062"><ele>110.0</ele><time>2026-04-26T09:56:53Z</time></trkpt><trkpt lat="45.54296495106966" lon="10.822756435647639"><ele>110.0</ele><time>2026-04-26T09:56:54Z</time></trkpt><trkpt lat="45.54281086864635" lon="10.822733853703832"><ele>110.33333333333333</ele><time>2026-04-26T09:56:55Z</time></trkpt><trkpt lat="45.5426523707998" lon="10.822701020059649"><ele>110.66666666666666</ele><time>2026-04-26T09:56:56Z</time></trkpt><trkpt lat="45.542487563571726" lon="10.822657402245273"><ele>111.0</ele><time>2026-04-26T09:56:57Z</time></trkpt><trkpt lat="45.54231153770544" lon="10.822603243470935"><ele>111.33333333333334</ele><time>2026-04-26T09:56:58Z</time></trkpt><trkpt lat="45.54213475151384" lon="10.82253287256612"><ele>111.66666666666667</ele><time>2026-04-26T09:56:59Z</time></trkpt><trkpt lat="45.541955836744144" lon="10.822455867400473"><ele>112.0</ele><time>2026-04-26T09:57:00Z</time></trkpt><trkpt lat="45.541777355520814" lon="10.822369910422319"><ele>112.33333333333334</ele><time>2026-04-26T09:57:01Z</time></trkpt><trkpt lat="45.54159958758482" lon="10.8222783007717"><ele>112.66666666666666</ele><time>2026-04-26T09:57:02Z</time></trkpt><trkpt lat="45.54142201149159" lon="10.822182281669553"><ele>113.0</ele><time>2026-04-26T09:57:03Z</time></trkpt><trkpt lat="45.54124607892618" lon="10.822087748438001"><ele>113.33333333333333</ele><time>2026-04-26T09:57:04Z</time></trkpt><trkpt lat="45.54106807201511" lon="10.821997711057985"><ele>113.66666666666666</ele><time>2026-04-26T09:57:05Z</time></trkpt><trkpt lat="45.54088770828528" lon="10.821904789757253"><ele>114.0</ele><time>2026-04-26T09:57:06Z</time></trkpt><trkpt lat="45.540705782393395" lon="10.821811675471453"><ele>114.33333333333334</ele><time>2026-04-26T09:57:07Z</time></trkpt><trkpt lat="45.54052537390945" lon="10.821716964943231"><ele>114.66666666666667</ele><time>2026-04-26T09:57:08Z</time></trkpt><trkpt lat="45.54034228709009" lon="10.821621807239564"><ele>115.0</ele><time>2026-04-26T09:57:09Z</time></trkpt><trkpt lat="45.54015758268589" lon="10.821527306578469"><ele>114.0</ele><time>2026-04-26T09:57:10Z</time></trkpt><trkpt lat="45.53997456886972" lon="10.821434019880549"><ele>113.0</ele><time>2026-04-26T09:57:11Z</time></trkpt><trkpt lat="45.539790125325645" lon="10.821337678721692"><ele>112.0</ele><time>2026-04-26T09:57:12Z</time></trkpt><trkpt lat="45.539610619815015" lon="10.821242371084764"><ele>112.33333333333334</ele><time>2026-04-26T09:57:13Z</time></trkpt><trkpt lat="45.53943851783181" lon="10.821148699254698"><ele>112.66666666666666</ele><time>2026-04-26T09:57:14Z</time></trkpt><trkpt lat="45.53927272507416" lon="10.821057046337106"><ele>113.0</ele><time>2026-04-26T09:57:15Z</time></trkpt><trkpt lat="45.53910678966974" lon="10.820966155045564"><ele>112.33333333333333</ele><time>2026-04-26T09:57:16Z</time></trkpt><trkpt lat="45.53894325102093" lon="10.820876706988217"><ele>111.66666666666666</ele><time>2026-04-26T09:57:17Z</time></trkpt><trkpt lat="45.53878053887295" lon="10.820785720121743"><ele>111.0</ele><time>2026-04-26T09:57:18Z</time></trkpt><trkpt lat="45.53861769566184" lon="10.820687821918733"><ele>111.0</ele><time>2026-04-26T09:57:19Z</time></trkpt><trkpt lat="45.53845585502695" lon="10.820582309215952"><ele>111.0</ele><time>2026-04-26T09:57:20Z</time></trkpt><trkpt lat="45.53829451405282" lon="10.82046426093764"><ele>111.0</ele><time>2026-04-26T09:57:21Z</time></trkpt><trkpt lat="45.53812929692278" lon="10.82034322602623"><ele>111.0</ele><time>2026-04-26T09:57:22Z</time></trkpt><trkpt lat="45.53795982545273" lon="10.820218163269269"><ele>111.0</ele><time>2026-04-26T09:57:23Z</time></trkpt><trkpt lat="45.53779851915451" lon="10.820072742329314"><ele>111.0</ele><time>2026-04-26T09:57:24Z</time></trkpt><trkpt lat="45.5376251786133" lon="10.819970147704504"><ele>111.66666666666666</ele><time>2026-04-26T09:57:25Z</time></trkpt><trkpt lat="45.53747036425383" lon="10.819851739761008"><ele>112.33333333333333</ele><time>2026-04-26T09:57:26Z</time></trkpt><trkpt lat="45.537314737420566" lon="10.819736345102903"><ele>113.0</ele><time>2026-04-26T09:57:27Z</time></trkpt><trkpt lat="45.5371536893248" lon="10.819619358729271"><ele>112.33333333333333</ele><time>2026-04-26T09:57:28Z</time></trkpt><trkpt lat="45.536990796150675" lon="10.8195072110043"><ele>111.66666666666666</ele><time>2026-04-26T09:57:29Z</time></trkpt><trkpt lat="45.5368243971222" lon="10.819398975728827"><ele>111.0</ele><time>2026-04-26T09:57:30Z</time></trkpt><trkpt lat="45.5366587999196" lon="10.819293391220032"><ele>111.0</ele><time>2026-04-26T09:57:31Z</time></trkpt><trkpt lat="45.53649278528671" lon="10.81918450333799"><ele>111.0</ele><time>2026-04-26T09:57:32Z</time></trkpt><trkpt lat="45.53632738155162" lon="10.819078100976132"><ele>111.0</ele><time>2026-04-26T09:57:33Z</time></trkpt><trkpt lat="45.536164527592874" lon="10.818973883300696"><ele>110.66666666666666</ele><time>2026-04-26T09:57:34Z</time></trkpt><trkpt lat="45.536006789885924" lon="10.81887514898556"><ele>110.33333333333333</ele><time>2026-04-26T09:57:35Z</time></trkpt><trkpt lat="45.53584990753122" lon="10.818782724337172"><ele>110.0</ele><time>2026-04-26T09:57:36Z</time></trkpt><trkpt lat="45.535695682735486" lon="10.81869645927171"><ele>110.0</ele><time>2026-04-26T09:57:37Z</time></trkpt><trkpt lat="45.53553760354779" lon="10.818616406842859"><ele>110.0</ele><time>2026-04-26T09:57:38Z</time></trkpt><trkpt lat="45.53537706310661" lon="10.818551171307435"><ele>110.0</ele><time>2026-04-26T09:57:39Z</time></trkpt><trkpt lat="45.5352127954689" lon="10.81849622398724"><ele>110.0</ele><time>2026-04-26T09:57:40Z</time></trkpt><trkpt lat="45.53504878806146" lon="10.818451068094435"><ele>110.0</ele><time>2026-04-26T09:57:41Z</time></trkpt><trkpt lat="45.53489714390668" lon="10.818422526240711"><ele>110.0</ele><time>2026-04-26T09:57:42Z</time></trkpt><trkpt lat="45.53475908049009" lon="10.818401789462062"><ele>110.0</ele><time>2026-04-26T09:57:43Z</time></trkpt><trkpt lat="45.53462029416311" lon="10.818382487396143"><ele>110.0</ele><time>2026-04-26T09:57:44Z</time></trkpt><trkpt lat="45.53447508964158" lon="10.818364546096081"><ele>110.0</ele><time>2026-04-26T09:57:45Z</time></trkpt><trkpt lat="45.534321653579596" lon="10.818344859025226"><ele>110.0</ele><time>2026-04-26T09:57:46Z</time></trkpt><trkpt lat="45.53416267192827" lon="10.818325460878047"><ele>110.33333333333333</ele><time>2026-04-26T09:57:47Z</time></trkpt><trkpt lat="45.534013148160184" lon="10.818304372168784"><ele>110.66666666666666</ele><time>2026-04-26T09:57:48Z</time></trkpt><trkpt lat="45.53386153786582" lon="10.818284489942274"><ele>111.0</ele><time>2026-04-26T09:57:49Z</time></trkpt><trkpt lat="45.53370627394836" lon="10.818266559331503"><ele>111.5</ele><time>2026-04-26T09:57:50Z</time></trkpt><trkpt lat="45.53355050280012" lon="10.81825013770305"><ele>112.0</ele><time>2026-04-26T09:57:51Z</time></trkpt><trkpt lat="45.53340376361405" lon="10.818237198065484"><ele>112.5</ele><time>2026-04-26T09:57:52Z</time></trkpt><trkpt lat="45.533263256837174" lon="10.81822768137419"><ele>113.0</ele><time>2026-04-26T09:57:53Z</time></trkpt><trkpt lat="45.53312868130458" lon="10.818221265589369"><ele>113.0</ele><time>2026-04-26T09:57:54Z</time></trkpt><trkpt lat="45.53298789170245" lon="10.818216390790724"><ele>113.0</ele><time>2026-04-26T09:57:55Z</time></trkpt><trkpt lat="45.5328434706666" lon="10.81821119854292"><ele>113.0</ele><time>2026-04-26T09:57:56Z</time></trkpt><trkpt lat="45.532696410868816" lon="10.81820660515101"><ele>113.0</ele><time>2026-04-26T09:57:57Z</time></trkpt><trkpt lat="45.53254768076032" lon="10.818201787072283"><ele>112.66666666666666</ele><time>2026-04-26T09:57:58Z</time></trkpt><trkpt lat="45.5323975997145" lon="10.818206164261813"><ele>112.33333333333334</ele><time>2026-04-26T09:57:59Z</time></trkpt><trkpt lat="45.532244636468185" lon="10.818218829560417"><ele>112.0</ele><time>2026-04-26T09:58:00Z</time></trkpt><trkpt lat="45.53208829296241" lon="10.818235128520776"><ele>112.33333333333334</ele><time>2026-04-26T09:58:01Z</time></trkpt><trkpt lat="45.53193295682898" lon="10.81825001663381"><ele>112.66666666666666</ele><time>2026-04-26T09:58:02Z</time></trkpt><trkpt lat="45.531775310401386" lon="10.818262192051375"><ele>113.0</ele><time>2026-04-26T09:58:03Z</time></trkpt><trkpt lat="45.53162556882822" lon="10.818264693640502"><ele>113.0</ele><time>2026-04-26T09:58:04Z</time></trkpt><trkpt lat="45.53148262356757" lon="10.818260629502047"><ele>113.0</ele><time>2026-04-26T09:58:05Z</time></trkpt><trkpt lat="45.53133839294469" lon="10.818250393029361"><ele>113.0</ele><time>2026-04-26T09:58:06Z</time></trkpt><trkpt lat="45.5311886207552" lon="10.81824282283501"><ele>113.0</ele><time>2026-04-26T09:58:07Z</time></trkpt><trkpt lat="45.53103305714253" lon="10.818235545366502"><ele>112.5</ele><time>2026-04-26T09:58:08Z</time></trkpt><trkpt lat="45.530880537520794" lon="10.818231022837763"><ele>112.0</ele><time>2026-04-26T09:58:09Z</time></trkpt><trkpt lat="45.530733255053065" lon="10.81822863880323"><ele>111.5</ele><time>2026-04-26T09:58:10Z</time></trkpt><trkpt lat="45.53059316365391" lon="10.818228578799065"><ele>111.0</ele><time>2026-04-26T09:58:11Z</time></trkpt><trkpt lat="45.53045457914897" lon="10.818236018350664"><ele>111.0</ele><time>2026-04-26T09:58:12Z</time></trkpt><trkpt lat="45.53031137380414" lon="10.818250164022448"><ele>111.0</ele><time>2026-04-26T09:58:13Z</time></trkpt><trkpt lat="45.53016638554626" lon="10.818265212233346"><ele>111.0</ele><time>2026-04-26T09:58:14Z</time></trkpt><trkpt lat="45.530021530913565" lon="10.818281511514778"><ele>111.0</ele><time>2026-04-26T09:58:15Z</time></trkpt><trkpt lat="45.52987505736053" lon="10.818300933741703"><ele>111.0</ele><time>2026-04-26T09:58:16Z</time></trkpt><trkpt lat="45.52972583667549" lon="10.818323884859364"><ele>111.0</ele><time>2026-04-26T09:58:17Z</time></trkpt><trkpt lat="45.52957473072802" lon="10.818350829677042"><ele>111.0</ele><time>2026-04-26T09:58:18Z</time></trkpt><trkpt lat="45.52942926070415" lon="10.818377416365351"><ele>111.0</ele><time>2026-04-26T09:58:19Z</time></trkpt><trkpt lat="45.52928666585029" lon="10.81839616491674"><ele>111.0</ele><time>2026-04-26T09:58:20Z</time></trkpt><trkpt lat="45.52914844691185" lon="10.818401481394762"><ele>111.0</ele><time>2026-04-26T09:58:21Z</time></trkpt><trkpt lat="45.529006891867866" lon="10.818389344827379"><ele>111.0</ele><time>2026-04-26T09:58:22Z</time></trkpt><trkpt lat="45.52885966212427" lon="10.818369496522632"><ele>111.0</ele><time>2026-04-26T09:58:23Z</time></trkpt><trkpt lat="45.52870827027079" lon="10.818349763465474"><ele>111.0</ele><time>2026-04-26T09:58:24Z</time></trkpt><trkpt lat="45.52855559628913" lon="10.818359926798959"><ele>111.0</ele><time>2026-04-26T09:58:25Z</time></trkpt><trkpt lat="45.52840464888918" lon="10.81830872155166"><ele>111.0</ele><time>2026-04-26T09:58:26Z</time></trkpt><trkpt lat="45.52824744674089" lon="10.818298035652045"><ele>111.0</ele><time>2026-04-26T09:58:27Z</time></trkpt><trkpt lat="45.528087433965034" lon="10.818291161942383"><ele>111.0</ele><time>2026-04-26T09:58:28Z</time></trkpt><trkpt lat="45.52793074445904" lon="10.81828744292907"><ele>111.0</ele><time>2026-04-26T09:58:29Z</time></trkpt><trkpt lat="45.52778834672303" lon="10.818282650144239"><ele>112.0</ele><time>2026-04-26T09:58:30Z</time></trkpt><trkpt lat="45.52765750688105" lon="10.818277051400877"><ele>113.0</ele><time>2026-04-26T09:58:31Z</time></trkpt><trkpt lat="45.52753762085437" lon="10.818274489480997"><ele>114.0</ele><time>2026-04-26T09:58:32Z</time></trkpt><trkpt lat="45.52742843351931" lon="10.818272525274706"><ele>115.0</ele><time>2026-04-26T09:58:33Z</time></trkpt><trkpt lat="45.5273235823395" lon="10.818269603134079"><ele>115.00000000000001</ele><time>2026-04-26T09:58:34Z</time></trkpt><trkpt lat="45.52722483119534" lon="10.818265457733121"><ele>115.0</ele><time>2026-04-26T09:58:35Z</time></trkpt><trkpt lat="45.52713534961102" lon="10.818264536681319"><ele>115.0</ele><time>2026-04-26T09:58:36Z</time></trkpt><trkpt lat="45.5270553127919" lon="10.818259085907497"><ele>115.0</ele><time>2026-04-26T09:58:37Z</time></trkpt><trkpt lat="45.526981497698394" lon="10.818241656119683"><ele>115.00000000000001</ele><time>2026-04-26T09:58:38Z</time></trkpt><trkpt lat="45.52690715541119" lon="10.818211571387616"><ele>115.0</ele><time>2026-04-26T09:58:39Z</time></trkpt><trkpt lat="45.52682942803598" lon="10.818186977171798"><ele>115.00000000000001</ele><time>2026-04-26T09:58:40Z</time></trkpt><trkpt lat="45.526762346139314" lon="10.818213057481557"><ele>115.0</ele><time>2026-04-26T09:58:41Z</time></trkpt><trkpt lat="45.52672133807977" lon="10.818290906556056"><ele>115.0</ele><time>2026-04-26T09:58:42Z</time></trkpt><trkpt lat="45.52669551956034" lon="10.818379164904538"><ele>115.0</ele><time>2026-04-26T09:58:43Z</time></trkpt><trkpt lat="45.52672200075898" lon="10.818499476463344"><ele>115.00000000000001</ele><time>2026-04-26T09:58:44Z</time></trkpt><trkpt lat="45.52673641030821" lon="10.818612530680381"><ele>115.0</ele><time>2026-04-26T09:58:45Z</time></trkpt><trkpt lat="45.526740289053585" lon="10.818724189680246"><ele>115.0</ele><time>2026-04-26T09:58:46Z</time></trkpt><trkpt lat="45.52673253289972" lon="10.818821439250756"><ele>115.0</ele><time>2026-04-26T09:58:47Z</time></trkpt><trkpt lat="45.52671194076153" lon="10.818976297600987"><ele>115.0</ele><time>2026-04-26T09:58:49Z</time></trkpt><trkpt lat="45.52668554056347" lon="10.81911869888595"><ele>115.0</ele><time>2026-04-26T09:58:51Z</time></trkpt><trkpt lat="45.52660504282491" lon="10.819274090885479"><ele>115.0</ele><time>2026-04-26T09:58:53Z</time></trkpt><trkpt lat="45.52653534904725" lon="10.819343892477045"><ele>115.0</ele><time>2026-04-26T09:58:54Z</time></trkpt><trkpt lat="45.52644283251815" lon="10.81939496819301"><ele>115.0</ele><time>2026-04-26T09:58:55Z</time></trkpt><trkpt lat="45.526328332186104" lon="10.819408146944538"><ele>115.0</ele><time>2026-04-26T09:58:56Z</time></trkpt><trkpt lat="45.52620745011561" lon="10.819402374174215"><ele>115.0</ele><time>2026-04-26T09:58:57Z</time></trkpt><trkpt lat="45.52607628392775" lon="10.819382760000646"><ele>115.25</ele><time>2026-04-26T09:58:58Z</time></trkpt><trkpt lat="45.52595208499876" lon="10.8193735492476"><ele>115.5</ele><time>2026-04-26T09:58:59Z</time></trkpt><trkpt lat="45.52583766716102" lon="10.819373696063574"><ele>115.75</ele><time>2026-04-26T09:59:00Z</time></trkpt><trkpt lat="45.52572282883157" lon="10.81937561859113"><ele>116.0</ele><time>2026-04-26T09:59:01Z</time></trkpt><trkpt lat="45.5256145894773" lon="10.819380179430741"><ele>115.99999999999999</ele><time>2026-04-26T09:59:02Z</time></trkpt><trkpt lat="45.52550794336911" lon="10.819375810286529"><ele>116.0</ele><time>2026-04-26T09:59:03Z</time></trkpt><trkpt lat="45.52540889305259" lon="10.819388848500028"><ele>116.0</ele><time>2026-04-26T09:59:04Z</time></trkpt><trkpt lat="45.52532128118417" lon="10.819401629349516"><ele>116.0</ele><time>2026-04-26T09:59:05Z</time></trkpt><trkpt lat="45.525243860735905" lon="10.819407810533468"><ele>115.99999999999999</ele><time>2026-04-26T09:59:06Z</time></trkpt><trkpt lat="45.52517937238374" lon="10.819412881118247"><ele>116.0</ele><time>2026-04-26T09:59:07Z</time></trkpt><trkpt lat="45.52505943827929" lon="10.819427621022609"><ele>115.8</ele><time>2026-04-26T09:59:09Z</time></trkpt><trkpt lat="45.52493639835309" lon="10.81947228561807"><ele>115.6</ele><time>2026-04-26T09:59:11Z</time></trkpt><trkpt lat="45.52487571867799" lon="10.819523134228792"><ele>115.4</ele><time>2026-04-26T09:59:12Z</time></trkpt><trkpt lat="45.52485676137351" lon="10.81965862683039"><ele>115.2</ele><time>2026-04-26T09:59:13Z</time></trkpt><trkpt lat="45.52483803086854" lon="10.819797832696098"><ele>115.0</ele><time>2026-04-26T09:59:14Z</time></trkpt><trkpt lat="45.52481505712317" lon="10.819964802285927"><ele>115.0</ele><time>2026-04-26T09:59:15Z</time></trkpt><trkpt lat="45.52478639230076" lon="10.820142795606728"><ele>115.0</ele><time>2026-04-26T09:59:16Z</time></trkpt><trkpt lat="45.52475958739064" lon="10.820318355837259"><ele>115.0</ele><time>2026-04-26T09:59:17Z</time></trkpt><trkpt lat="45.52473608509222" lon="10.820475348005417"><ele>115.0</ele><time>2026-04-26T09:59:18Z</time></trkpt><trkpt lat="45.52471536413093" lon="10.820613991658137"><ele>115.2</ele><time>2026-04-26T09:59:19Z</time></trkpt><trkpt lat="45.52469921125792" lon="10.820748815463554"><ele>115.4</ele><time>2026-04-26T09:59:20Z</time></trkpt><trkpt lat="45.5246698967816" lon="10.820878340131998"><ele>115.6</ele><time>2026-04-26T09:59:21Z</time></trkpt><trkpt lat="45.52463442398143" lon="10.821019016211583"><ele>115.8</ele><time>2026-04-26T09:59:22Z</time></trkpt><trkpt lat="45.5246024677479" lon="10.821152923842881"><ele>116.0</ele><time>2026-04-26T09:59:23Z</time></trkpt><trkpt lat="45.52457571664082" lon="10.821288003973168"><ele>116.19999999999999</ele><time>2026-04-26T09:59:24Z</time></trkpt><trkpt lat="45.52453043903903" lon="10.821426506638463"><ele>116.39999999999999</ele><time>2026-04-26T09:59:25Z</time></trkpt><trkpt lat="45.524474648252564" lon="10.821556246278483"><ele>116.6</ele><time>2026-04-26T09:59:26Z</time></trkpt><trkpt lat="45.52440429919296" lon="10.821671950905609"><ele>116.8</ele><time>2026-04-26T09:59:27Z</time></trkpt><trkpt lat="45.52431897788369" lon="10.821774078715627"><ele>117.0</ele><time>2026-04-26T09:59:28Z</time></trkpt><trkpt lat="45.52422710826904" lon="10.821857656798636"><ele>117.0</ele><time>2026-04-26T09:59:29Z</time></trkpt><trkpt lat="45.5241260192341" lon="10.82193465861128"><ele>117.0</ele><time>2026-04-26T09:59:30Z</time></trkpt><trkpt lat="45.52401561112676" lon="10.822009952552065"><ele>117.0</ele><time>2026-04-26T09:59:31Z</time></trkpt><trkpt lat="45.523908405073996" lon="10.82207022898366"><ele>117.0</ele><time>2026-04-26T09:59:32Z</time></trkpt><trkpt lat="45.52380385332541" lon="10.822119818179337"><ele>117.33333333333334</ele><time>2026-04-26T09:59:33Z</time></trkpt><trkpt lat="45.5236718695958" lon="10.822169946908977"><ele>117.66666666666667</ele><time>2026-04-26T09:59:34Z</time></trkpt><trkpt lat="45.52351430493848" lon="10.822209658367965"><ele>118.0</ele><time>2026-04-26T09:59:35Z</time></trkpt><trkpt lat="45.52334468576974" lon="10.822235542690404"><ele>118.0</ele><time>2026-04-26T09:59:36Z</time></trkpt><trkpt lat="45.523191987413135" lon="10.822253100975617"><ele>118.0</ele><time>2026-04-26T09:59:37Z</time></trkpt><trkpt lat="45.523058667677084" lon="10.82227067704919"><ele>118.0</ele><time>2026-04-26T09:59:38Z</time></trkpt><trkpt lat="45.52293670494871" lon="10.822287160629314"><ele>118.0</ele><time>2026-04-26T09:59:39Z</time></trkpt><trkpt lat="45.52280397346846" lon="10.822298375640067"><ele>118.0</ele><time>2026-04-26T09:59:40Z</time></trkpt><trkpt lat="45.52266059855262" lon="10.822312427956932"><ele>118.0</ele><time>2026-04-26T09:59:41Z</time></trkpt><trkpt lat="45.522527405934355" lon="10.82232199848294"><ele>118.0</ele><time>2026-04-26T09:59:42Z</time></trkpt><trkpt lat="45.52242044091517" lon="10.822302576375396"><ele>118.0</ele><time>2026-04-26T09:59:43Z</time></trkpt><trkpt lat="45.522340574216194" lon="10.822319728811658"><ele>118.00000000000001</ele><time>2026-04-26T09:59:44Z</time></trkpt><trkpt lat="45.52226666828609" lon="10.822318394493642"><ele>118.0</ele><time>2026-04-26T09:59:45Z</time></trkpt><trkpt lat="45.52219376791162" lon="10.822297332831512"><ele>118.0</ele><time>2026-04-26T09:59:46Z</time></trkpt><trkpt lat="45.522113802314486" lon="10.822293244963973"><ele>118.0</ele><time>2026-04-26T09:59:47Z</time></trkpt><trkpt lat="45.522047955145645" lon="10.822319322306958"><ele>118.00000000000001</ele><time>2026-04-26T09:59:48Z</time></trkpt><trkpt lat="45.5219828447885" lon="10.822417138268955"><ele>118.0</ele><time>2026-04-26T09:59:49Z</time></trkpt><trkpt lat="45.521902599245905" lon="10.8224174416538"><ele>117.5</ele><time>2026-04-26T09:59:50Z</time></trkpt><trkpt lat="45.52180035362507" lon="10.82241782821649"><ele>117.0</ele><time>2026-04-26T09:59:51Z</time></trkpt><trkpt lat="45.521689970191" lon="10.822414833918353"><ele>116.5</ele><time>2026-04-26T09:59:52Z</time></trkpt><trkpt lat="45.521563994066376" lon="10.822439672497095"><ele>116.0</ele><time>2026-04-26T09:59:53Z</time></trkpt><trkpt lat="45.521416975799745" lon="10.822457316245496"><ele>116.0</ele><time>2026-04-26T09:59:54Z</time></trkpt><trkpt lat="45.521270988718264" lon="10.822466441485858"><ele>116.0</ele><time>2026-04-26T09:59:55Z</time></trkpt><trkpt lat="45.52115279450407" lon="10.822466391639193"><ele>116.0</ele><time>2026-04-26T09:59:56Z</time></trkpt><trkpt lat="45.52105105511684" lon="10.82246620058848"><ele>116.0</ele><time>2026-04-26T09:59:57Z</time></trkpt><trkpt lat="45.52095651533343" lon="10.822432745085914"><ele>115.83333333333333</ele><time>2026-04-26T09:59:58Z</time></trkpt><trkpt lat="45.52087248033673" lon="10.822432320908337"><ele>115.66666666666666</ele><time>2026-04-26T09:59:59Z</time></trkpt><trkpt lat="45.52078663616994" lon="10.822432320908593"><ele>115.5</ele><time>2026-04-26T10:00:00Z</time></trkpt><trkpt lat="45.52070345605549" lon="10.822432320908119"><ele>115.33333333333334</ele><time>2026-04-26T10:00:01Z</time></trkpt><trkpt lat="45.5206231117491" lon="10.822433142875008"><ele>115.16666666666667</ele><time>2026-04-26T10:00:02Z</time></trkpt><trkpt lat="45.52054542219118" lon="10.822434042030848"><ele>115.0</ele><time>2026-04-26T10:00:03Z</time></trkpt><trkpt lat="45.52046051833471" lon="10.822435024681761"><ele>115.16666666666667</ele><time>2026-04-26T10:00:04Z</time></trkpt><trkpt lat="45.52038015855797" lon="10.822435954738738"><ele>115.33333333333334</ele><time>2026-04-26T10:00:05Z</time></trkpt><trkpt lat="45.52029554396314" lon="10.822436934042033"><ele>115.5</ele><time>2026-04-26T10:00:06Z</time></trkpt><trkpt lat="45.520208951506035" lon="10.822437936233518"><ele>115.66666666666666</ele><time>2026-04-26T10:00:07Z</time></trkpt><trkpt lat="45.52011987164299" lon="10.822438967213817"><ele>115.83333333333333</ele><time>2026-04-26T10:00:08Z</time></trkpt><trkpt lat="45.52003535102162" lon="10.82244095095616"><ele>116.0</ele><time>2026-04-26T10:00:09Z</time></trkpt><trkpt lat="45.519937606468936" lon="10.822443314787353"><ele>116.0</ele><time>2026-04-26T10:00:10Z</time></trkpt><trkpt lat="45.51983728454687" lon="10.822445740955098"><ele>116.0</ele><time>2026-04-26T10:00:11Z</time></trkpt><trkpt lat="45.51972849436816" lon="10.822451276400605"><ele>116.0</ele><time>2026-04-26T10:00:12Z</time></trkpt><trkpt lat="45.519620211764156" lon="10.822471853495264"><ele>116.0</ele><time>2026-04-26T10:00:13Z</time></trkpt><trkpt lat="45.519527432626276" lon="10.822513850424526"><ele>116.0</ele><time>2026-04-26T10:00:14Z</time></trkpt><trkpt lat="45.51942258197731" lon="10.822557608756481"><ele>116.75</ele><time>2026-04-26T10:00:15Z</time></trkpt><trkpt lat="45.519316904027136" lon="10.822631442955329"><ele>117.5</ele><time>2026-04-26T10:00:16Z</time></trkpt><trkpt lat="45.51920212450172" lon="10.822701527933665"><ele>118.25</ele><time>2026-04-26T10:00:17Z</time></trkpt><trkpt lat="45.519113291918416" lon="10.822769722094641"><ele>119.0</ele><time>2026-04-26T10:00:18Z</time></trkpt><trkpt lat="45.519009643254115" lon="10.822858719730103"><ele>119.6</ele><time>2026-04-26T10:00:20Z</time></trkpt><trkpt lat="45.51891462946283" lon="10.822931955725775"><ele>120.2</ele><time>2026-04-26T10:00:22Z</time></trkpt><trkpt lat="45.51884874097325" lon="10.822989207608778"><ele>120.79999999999998</ele><time>2026-04-26T10:00:25Z</time></trkpt><trkpt lat="45.51877952426047" lon="10.823049813773213"><ele>121.39999999999999</ele><time>2026-04-26T10:02:14Z</time></trkpt><trkpt lat="45.51871378512741" lon="10.823100433891433"><ele>122.0</ele><time>2026-04-26T10:02:16Z</time></trkpt><trkpt lat="45.51859784522546" lon="10.823205586155666"><ele>122.0</ele><time>2026-04-26T10:02:19Z</time></trkpt><trkpt lat="45.51855078061936" lon="10.823317893791982"><ele>121.99999999999999</ele><time>2026-04-26T10:02:20Z</time></trkpt><trkpt lat="45.51851847292282" lon="10.823466099572503"><ele>121.99999999999999</ele><time>2026-04-26T10:02:21Z</time></trkpt><trkpt lat="45.51849505879545" lon="10.823624201049347"><ele>122.0</ele><time>2026-04-26T10:02:22Z</time></trkpt><trkpt lat="45.518474074928804" lon="10.823779157070286"><ele>122.0</ele><time>2026-04-26T10:02:23Z</time></trkpt><trkpt lat="45.518453921725744" lon="10.823935195948792"><ele>122.6</ele><time>2026-04-26T10:02:24Z</time></trkpt><trkpt lat="45.5184378801382" lon="10.824097453669701"><ele>123.19999999999999</ele><time>2026-04-26T10:02:25Z</time></trkpt><trkpt lat="45.51842454339336" lon="10.824253167613792"><ele>123.8</ele><time>2026-04-26T10:02:26Z</time></trkpt><trkpt lat="45.518409076472146" lon="10.824405809058502"><ele>124.4</ele><time>2026-04-26T10:02:27Z</time></trkpt><trkpt lat="45.51839957808149" lon="10.824557088454327"><ele>125.0</ele><time>2026-04-26T10:02:28Z</time></trkpt><trkpt lat="45.51839046320388" lon="10.824710276525492"><ele>126.5</ele><time>2026-04-26T10:02:29Z</time></trkpt><trkpt lat="45.51838318757156" lon="10.824885302687841"><ele>128.0</ele><time>2026-04-26T10:02:30Z</time></trkpt><trkpt lat="45.518376219601585" lon="10.825066767586714"><ele>129.5</ele><time>2026-04-26T10:02:31Z</time></trkpt><trkpt lat="45.518368892294646" lon="10.825268030633753"><ele>131.0</ele><time>2026-04-26T10:02:32Z</time></trkpt><trkpt lat="45.51836875374292" lon="10.82548257472519"><ele>131.66666666666666</ele><time>2026-04-26T10:02:33Z</time></trkpt><trkpt lat="45.518377681884374" lon="10.825691818824188"><ele>132.33333333333334</ele><time>2026-04-26T10:02:34Z</time></trkpt><trkpt lat="45.518391122450645" lon="10.825905046378917"><ele>133.0</ele><time>2026-04-26T10:02:35Z</time></trkpt><trkpt lat="45.51840769162441" lon="10.826125031439569"><ele>134.0</ele><time>2026-04-26T10:02:36Z</time></trkpt><trkpt lat="45.51842288961463" lon="10.826354414933384"><ele>135.0</ele><time>2026-04-26T10:02:37Z</time></trkpt><trkpt lat="45.51843677314423" lon="10.826583204327353"><ele>136.0</ele><time>2026-04-26T10:02:38Z</time></trkpt><trkpt lat="45.51844907022496" lon="10.826806010983146"><ele>136.66666666666669</ele><time>2026-04-26T10:02:39Z</time></trkpt><trkpt lat="45.51846368389137" lon="10.82702541957855"><ele>137.33333333333334</ele><time>2026-04-26T10:02:40Z</time></trkpt><trkpt lat="45.51847564881712" lon="10.827244682263046"><ele>138.0</ele><time>2026-04-26T10:02:41Z</time></trkpt><trkpt lat="45.518485364701036" lon="10.827459565668825"><ele>139.0</ele><time>2026-04-26T10:02:42Z</time></trkpt><trkpt lat="45.51849351979713" lon="10.827679087673413"><ele>140.0</ele><time>2026-04-26T10:02:43Z</time></trkpt><trkpt lat="45.518500759231735" lon="10.82789987910771"><ele>141.0</ele><time>2026-04-26T10:02:44Z</time></trkpt><trkpt lat="45.51850636313493" lon="10.828124092682955"><ele>141.0</ele><time>2026-04-26T10:02:45Z</time></trkpt><trkpt lat="45.51851302521152" lon="10.828354958801144"><ele>141.0</ele><time>2026-04-26T10:02:46Z</time></trkpt><trkpt lat="45.5185206698589" lon="10.828587898174801"><ele>141.0</ele><time>2026-04-26T10:02:47Z</time></trkpt><trkpt lat="45.51853141997819" lon="10.82881847242828"><ele>141.0</ele><time>2026-04-26T10:02:48Z</time></trkpt><trkpt lat="45.51853889137964" lon="10.82904625364465"><ele>141.0</ele><time>2026-04-26T10:02:49Z</time></trkpt><trkpt lat="45.51854733716263" lon="10.82926716222089"><ele>141.0</ele><time>2026-04-26T10:02:50Z</time></trkpt><trkpt lat="45.51856514026221" lon="10.829485650686413"><ele>141.33333333333334</ele><time>2026-04-26T10:02:51Z</time></trkpt><trkpt lat="45.518601798353" lon="10.829703285277455"><ele>141.66666666666669</ele><time>2026-04-26T10:02:52Z</time></trkpt><trkpt lat="45.518650289680345" lon="10.829918991384478"><ele>142.0</ele><time>2026-04-26T10:02:53Z</time></trkpt><trkpt lat="45.518705200231835" lon="10.830116329282847"><ele>145.0</ele><time>2026-04-26T10:02:54Z</time></trkpt><trkpt lat="45.51875914053653" lon="10.830283825257908"><ele>148.0</ele><time>2026-04-26T10:02:55Z</time></trkpt><trkpt lat="45.51880534022121" lon="10.830431280622376"><ele>151.0</ele><time>2026-04-26T10:02:56Z</time></trkpt><trkpt lat="45.51883040411599" lon="10.830570366346137"><ele>154.0</ele><time>2026-04-26T10:02:57Z</time></trkpt><trkpt lat="45.51883111442915" lon="10.830698455418423"><ele>157.0</ele><time>2026-04-26T10:02:58Z</time></trkpt><trkpt lat="45.518807115185155" lon="10.830821328530881"><ele>157.0</ele><time>2026-04-26T10:02:59Z</time></trkpt><trkpt lat="45.51878498167614" lon="10.83093900857377"><ele>157.0</ele><time>2026-04-26T10:03:00Z</time></trkpt><trkpt lat="45.51877972248916" lon="10.831048929292123"><ele>157.0</ele><time>2026-04-26T10:03:01Z</time></trkpt><trkpt lat="45.51885554645709" lon="10.831135664664286"><ele>157.0</ele><time>2026-04-26T10:03:02Z</time></trkpt><trkpt lat="45.51892842935116" lon="10.83118215837108"><ele>157.0</ele><time>2026-04-26T10:03:03Z</time></trkpt><trkpt lat="45.51900101649689" lon="10.83118395990368"><ele>157.0</ele><time>2026-04-26T10:03:04Z</time></trkpt><trkpt lat="45.51907244236641" lon="10.831139391841418"><ele>157.0</ele><time>2026-04-26T10:03:05Z</time></trkpt><trkpt lat="45.519137327142325" lon="10.83114216068238"><ele>157.0</ele><time>2026-04-26T10:03:06Z</time></trkpt><trkpt lat="45.51915469096637" lon="10.830927079976451"><ele>157.0</ele><time>2026-04-26T10:03:07Z</time></trkpt><trkpt lat="45.519156685493684" lon="10.83078004939328"><ele>157.0</ele><time>2026-04-26T10:03:08Z</time></trkpt><trkpt lat="45.51917609180355" lon="10.830612595764407"><ele>157.0</ele><time>2026-04-26T10:03:09Z</time></trkpt><trkpt lat="45.519213670417926" lon="10.830423060286996"><ele>157.0</ele><time>2026-04-26T10:03:10Z</time></trkpt><trkpt lat="45.519320932604494" lon="10.83022512818661"><ele>157.0</ele><time>2026-04-26T10:03:11Z</time></trkpt><trkpt lat="45.51940306033363" lon="10.829999248842187"><ele>157.0</ele><time>2026-04-26T10:03:12Z</time></trkpt><trkpt lat="45.519472017751276" lon="10.829773436838657"><ele>157.0</ele><time>2026-04-26T10:03:13Z</time></trkpt><trkpt lat="45.51954425987098" lon="10.82957745918051"><ele>157.0</ele><time>2026-04-26T10:03:14Z</time></trkpt><trkpt lat="45.51961317474274" lon="10.829403714317356"><ele>157.0</ele><time>2026-04-26T10:03:15Z</time></trkpt><trkpt lat="45.51969574388274" lon="10.829236573518797"><ele>157.0</ele><time>2026-04-26T10:03:16Z</time></trkpt><trkpt lat="45.519801581172445" lon="10.82906133654368"><ele>158.33333333333334</ele><time>2026-04-26T10:03:17Z</time></trkpt><trkpt lat="45.51992332138886" lon="10.828865055398245"><ele>159.66666666666666</ele><time>2026-04-26T10:03:18Z</time></trkpt><trkpt lat="45.52003647523989" lon="10.828653647282557"><ele>161.0</ele><time>2026-04-26T10:03:19Z</time></trkpt><trkpt lat="45.52011772349297" lon="10.82842850499904"><ele>161.66666666666666</ele><time>2026-04-26T10:03:20Z</time></trkpt><trkpt lat="45.52017006427898" lon="10.828192648865143"><ele>162.33333333333334</ele><time>2026-04-26T10:03:21Z</time></trkpt><trkpt lat="45.520205919782896" lon="10.827937280013561"><ele>163.0</ele><time>2026-04-26T10:03:22Z</time></trkpt><trkpt lat="45.520235007264375" lon="10.827660471724299"><ele>163.33333333333334</ele><time>2026-04-26T10:03:23Z</time></trkpt><trkpt lat="45.52026432286319" lon="10.827380359468249"><ele>163.66666666666666</ele><time>2026-04-26T10:03:24Z</time></trkpt><trkpt lat="45.52029627672179" lon="10.82710709399938"><ele>164.0</ele><time>2026-04-26T10:03:25Z</time></trkpt><trkpt lat="45.520331761774194" lon="10.82684050918329"><ele>165.33333333333331</ele><time>2026-04-26T10:03:26Z</time></trkpt><trkpt lat="45.52036365272804" lon="10.82659055964249"><ele>166.66666666666666</ele><time>2026-04-26T10:03:27Z</time></trkpt><trkpt lat="45.5203922419419" lon="10.826353259562334"><ele>168.0</ele><time>2026-04-26T10:03:28Z</time></trkpt><trkpt lat="45.52041932160477" lon="10.826129944388276"><ele>171.25</ele><time>2026-04-26T10:03:29Z</time></trkpt><trkpt lat="45.52046506740848" lon="10.825924060795261"><ele>174.5</ele><time>2026-04-26T10:03:30Z</time></trkpt><trkpt lat="45.520523111355196" lon="10.825730989813124"><ele>177.75</ele><time>2026-04-26T10:03:31Z</time></trkpt><trkpt lat="45.52059921088528" lon="10.825562308022212"><ele>181.0</ele><time>2026-04-26T10:03:32Z</time></trkpt><trkpt lat="45.520684751578386" lon="10.825395860002883"><ele>181.0</ele><time>2026-04-26T10:03:33Z</time></trkpt><trkpt lat="45.52081261942427" lon="10.825296150742828"><ele>181.0</ele><time>2026-04-26T10:03:34Z</time></trkpt><trkpt lat="45.52093970809108" lon="10.825189506337873"><ele>181.0</ele><time>2026-04-26T10:03:35Z</time></trkpt><trkpt lat="45.521094623752504" lon="10.825132769701119"><ele>178.0</ele><time>2026-04-26T10:03:36Z</time></trkpt><trkpt lat="45.521252046855224" lon="10.825100327303357"><ele>175.0</ele><time>2026-04-26T10:03:37Z</time></trkpt><trkpt lat="45.521414981339426" lon="10.825112634114014"><ele>172.0</ele><time>2026-04-26T10:03:38Z</time></trkpt><trkpt lat="45.521567584573596" lon="10.825169501243439"><ele>178.0</ele><time>2026-04-26T10:03:39Z</time></trkpt><trkpt lat="45.52170722926463" lon="10.825278858750728"><ele>184.0</ele><time>2026-04-26T10:03:40Z</time></trkpt><trkpt lat="45.52183668055836" lon="10.82541917339626"><ele>190.0</ele><time>2026-04-26T10:03:41Z</time></trkpt><trkpt lat="45.52197301416819" lon="10.825591813262571"><ele>187.66666666666669</ele><time>2026-04-26T10:03:42Z</time></trkpt><trkpt lat="45.52211937521727" lon="10.825778037488025"><ele>185.33333333333334</ele><time>2026-04-26T10:03:43Z</time></trkpt><trkpt lat="45.5222688648466" lon="10.825974129674218"><ele>183.0</ele><time>2026-04-26T10:03:44Z</time></trkpt><trkpt lat="45.52241755139799" lon="10.826165723820322"><ele>188.33333333333331</ele><time>2026-04-26T10:03:45Z</time></trkpt><trkpt lat="45.52256341149887" lon="10.826347942215719"><ele>193.66666666666666</ele><time>2026-04-26T10:03:46Z</time></trkpt><trkpt lat="45.522699162747955" lon="10.826523094909529"><ele>199.0</ele><time>2026-04-26T10:03:47Z</time></trkpt><trkpt lat="45.52281369178348" lon="10.826681579218821"><ele>200.75</ele><time>2026-04-26T10:03:48Z</time></trkpt><trkpt lat="45.52292276139676" lon="10.826820980479146"><ele>202.5</ele><time>2026-04-26T10:03:49Z</time></trkpt><trkpt lat="45.523026890789566" lon="10.826948432813616"><ele>204.25</ele><time>2026-04-26T10:03:50Z</time></trkpt><trkpt lat="45.52313102074504" lon="10.827044951364119"><ele>206.0</ele><time>2026-04-26T10:03:51Z</time></trkpt><trkpt lat="45.523252291071074" lon="10.827099935169297"><ele>206.0</ele><time>2026-04-26T10:03:52Z</time></trkpt><trkpt lat="45.52338226552461" lon="10.827090396021182"><ele>206.0</ele><time>2026-04-26T10:03:53Z</time></trkpt><trkpt lat="45.52351679258011" lon="10.827021277227987"><ele>206.0</ele><time>2026-04-26T10:03:54Z</time></trkpt><trkpt lat="45.52366085439589" lon="10.826896859606634"><ele>206.0</ele><time>2026-04-26T10:03:55Z</time></trkpt><trkpt lat="45.523822280919276" lon="10.826746747356351"><ele>208.0</ele><time>2026-04-26T10:03:56Z</time></trkpt><trkpt lat="45.52399565356443" lon="10.82658653355313"><ele>210.0</ele><time>2026-04-26T10:03:57Z</time></trkpt><trkpt lat="45.52416789007677" lon="10.82643046936433"><ele>212.0</ele><time>2026-04-26T10:03:58Z</time></trkpt><trkpt lat="45.52432498162571" lon="10.826328700615385"><ele>212.0</ele><time>2026-04-26T10:03:59Z</time></trkpt><trkpt lat="45.524473151315085" lon="10.82621703070984"><ele>212.0</ele><time>2026-04-26T10:04:00Z</time></trkpt><trkpt lat="45.52463503413588" lon="10.82612543959707"><ele>212.0</ele><time>2026-04-26T10:04:01Z</time></trkpt><trkpt lat="45.5248047646605" lon="10.826055728177378"><ele>215.33333333333334</ele><time>2026-04-26T10:04:02Z</time></trkpt><trkpt lat="45.5249846308928" lon="10.826055916032201"><ele>218.66666666666669</ele><time>2026-04-26T10:04:03Z</time></trkpt><trkpt lat="45.525184967252116" lon="10.82608601368734"><ele>222.0</ele><time>2026-04-26T10:04:04Z</time></trkpt><trkpt lat="45.525354819198974" lon="10.82610702818153"><ele>222.5</ele><time>2026-04-26T10:04:05Z</time></trkpt><trkpt lat="45.52556830750189" lon="10.826147814991554"><ele>223.0</ele><time>2026-04-26T10:04:06Z</time></trkpt><trkpt lat="45.52582442411008" lon="10.826169862609929"><ele>223.0</ele><time>2026-04-26T10:04:07Z</time></trkpt><trkpt lat="45.52607579515039" lon="10.826247431362816"><ele>223.0</ele><time>2026-04-26T10:04:08Z</time></trkpt><trkpt lat="45.52631075968361" lon="10.826258288073916"><ele>225.33333333333331</ele><time>2026-04-26T10:04:09Z</time></trkpt><trkpt lat="45.52648365751664" lon="10.826291618069126"><ele>227.66666666666669</ele><time>2026-04-26T10:04:10Z</time></trkpt><trkpt lat="45.52670689350579" lon="10.826317026865475"><ele>230.0</ele><time>2026-04-26T10:04:11Z</time></trkpt><trkpt lat="45.52691204042713" lon="10.826327250162283"><ele>231.66666666666669</ele><time>2026-04-26T10:04:12Z</time></trkpt><trkpt lat="45.5271082394443" lon="10.826303425544804"><ele>233.33333333333331</ele><time>2026-04-26T10:04:13Z</time></trkpt><trkpt lat="45.52730074316623" lon="10.826237707674746"><ele>235.0</ele><time>2026-04-26T10:04:14Z</time></trkpt><trkpt lat="45.52748098968666" lon="10.82613976977795"><ele>235.0</ele><time>2026-04-26T10:04:15Z</time></trkpt><trkpt lat="45.52765026795933" lon="10.826010280121519"><ele>235.0</ele><time>2026-04-26T10:04:16Z</time></trkpt><trkpt lat="45.527801537660764" lon="10.825840963664504"><ele>235.0</ele><time>2026-04-26T10:04:17Z</time></trkpt><trkpt lat="45.52796181244576" lon="10.825680189879309"><ele>234.33333333333331</ele><time>2026-04-26T10:04:18Z</time></trkpt><trkpt lat="45.52809127858347" lon="10.82556147858962"><ele>233.66666666666669</ele><time>2026-04-26T10:04:19Z</time></trkpt><trkpt lat="45.52825342842628" lon="10.825494304630302"><ele>233.0</ele><time>2026-04-26T10:04:20Z</time></trkpt><trkpt lat="45.52841057715851" lon="10.82541722311192"><ele>233.0</ele><time>2026-04-26T10:04:21Z</time></trkpt><trkpt lat="45.52855709367224" lon="10.825370698786633"><ele>233.0</ele><time>2026-04-26T10:04:22Z</time></trkpt><trkpt lat="45.52880755029788" lon="10.825308031667495"><ele>233.0</ele><time>2026-04-26T10:04:23Z</time></trkpt><trkpt lat="45.529045584379745" lon="10.82525858975351"><ele>236.66666666666669</ele><time>2026-04-26T10:04:24Z</time></trkpt><trkpt lat="45.52922772164712" lon="10.825220751932202"><ele>240.33333333333331</ele><time>2026-04-26T10:04:25Z</time></trkpt><trkpt lat="45.52939463006616" lon="10.825201676391087"><ele>244.0</ele><time>2026-04-26T10:04:26Z</time></trkpt><trkpt lat="45.52953691377679" lon="10.825214079110784"><ele>244.25</ele><time>2026-04-26T10:04:27Z</time></trkpt><trkpt lat="45.52966704852672" lon="10.825260578652712"><ele>244.5</ele><time>2026-04-26T10:04:28Z</time></trkpt><trkpt lat="45.529801510005775" lon="10.825337981789227"><ele>244.75</ele><time>2026-04-26T10:04:29Z</time></trkpt><trkpt lat="45.529938610557004" lon="10.825431105883991"><ele>245.0</ele><time>2026-04-26T10:04:30Z</time></trkpt><trkpt lat="45.53007786361807" lon="10.825553581277923"><ele>245.0</ele><time>2026-04-26T10:04:31Z</time></trkpt><trkpt lat="45.53024557998147" lon="10.825655086081314"><ele>245.0</ele><time>2026-04-26T10:04:32Z</time></trkpt><trkpt lat="45.5304266354678" lon="10.825734172278024"><ele>245.0</ele><time>2026-04-26T10:04:33Z</time></trkpt><trkpt lat="45.530622404843854" lon="10.825799131807107"><ele>244.66666666666669</ele><time>2026-04-26T10:04:34Z</time></trkpt><trkpt lat="45.53082078220169" lon="10.825879053741147"><ele>244.33333333333331</ele><time>2026-04-26T10:04:35Z</time></trkpt><trkpt lat="45.53101360524891" lon="10.825921465734949"><ele>244.0</ele><time>2026-04-26T10:04:36Z</time></trkpt><trkpt lat="45.53119889351389" lon="10.825982044691894"><ele>248.0</ele><time>2026-04-26T10:04:37Z</time></trkpt><trkpt lat="45.53137305413019" lon="10.826036744072452"><ele>252.0</ele><time>2026-04-26T10:04:38Z</time></trkpt><trkpt lat="45.5315071647974" lon="10.826074750646663"><ele>256.0</ele><time>2026-04-26T10:04:39Z</time></trkpt><trkpt lat="45.531581045222225" lon="10.826122850690133"><ele>260.0</ele><time>2026-04-26T10:04:40Z</time></trkpt><trkpt lat="45.531696588715114" lon="10.82617869100173"><ele>260.0</ele><time>2026-04-26T10:04:42Z</time></trkpt><trkpt lat="45.531775194162826" lon="10.82624899622115"><ele>260.0</ele><time>2026-04-26T10:04:43Z</time></trkpt><trkpt lat="45.531860445619934" lon="10.826315517542318"><ele>260.0</ele><time>2026-04-26T10:04:44Z</time></trkpt><trkpt lat="45.531959474034224" lon="10.826362099425003"><ele>260.0</ele><time>2026-04-26T10:04:45Z</time></trkpt><trkpt lat="45.532027979643" lon="10.826418873009823"><ele>260.0</ele><time>2026-04-26T10:04:46Z</time></trkpt><trkpt lat="45.532104756419514" lon="10.82647265951226"><ele>260.42857142857144</ele><time>2026-04-26T10:04:47Z</time></trkpt><trkpt lat="45.53216877967418" lon="10.826523665042199"><ele>260.8571428571429</ele><time>2026-04-26T10:04:48Z</time></trkpt><trkpt lat="45.53222582651111" lon="10.82658607762773"><ele>261.2857142857143</ele><time>2026-04-26T10:04:49Z</time></trkpt><trkpt lat="45.53228040820052" lon="10.826667662519446"><ele>261.7142857142857</ele><time>2026-04-26T10:04:50Z</time></trkpt><trkpt lat="45.532337055674105" lon="10.826750559438096"><ele>262.1428571428571</ele><time>2026-04-26T10:04:51Z</time></trkpt><trkpt lat="45.53237854105559" lon="10.826831094288956"><ele>262.57142857142856</ele><time>2026-04-26T10:04:52Z</time></trkpt><trkpt lat="45.532395689347155" lon="10.826932514689473"><ele>263.0</ele><time>2026-04-26T10:04:53Z</time></trkpt><trkpt lat="45.53243872640064" lon="10.827042404882427"><ele>263.0</ele><time>2026-04-26T10:04:54Z</time></trkpt><trkpt lat="45.53246768155703" lon="10.827167729676278"><ele>263.0</ele><time>2026-04-26T10:04:55Z</time></trkpt><trkpt lat="45.53248103220529" lon="10.827285923807018"><ele>263.0</ele><time>2026-04-26T10:04:56Z</time></trkpt><trkpt lat="45.532504859495226" lon="10.827373565701983"><ele>263.0</ele><time>2026-04-26T10:04:57Z</time></trkpt><trkpt lat="45.53254356581305" lon="10.827463441750002"><ele>263.0</ele><time>2026-04-26T10:04:58Z</time></trkpt><trkpt lat="45.532583077508576" lon="10.82754042984452"><ele>263.0</ele><time>2026-04-26T10:04:59Z</time></trkpt><trkpt lat="45.53262323490797" lon="10.827625274576413"><ele>263.0</ele><time>2026-04-26T10:05:00Z</time></trkpt><trkpt lat="45.53270534333853" lon="10.827660293947291"><ele>263.0</ele><time>2026-04-26T10:05:01Z</time></trkpt><trkpt lat="45.53277953514506" lon="10.827690189882341"><ele>263.0</ele><time>2026-04-26T10:05:02Z</time></trkpt><trkpt lat="45.53284687050274" lon="10.827701462409648"><ele>263.0</ele><time>2026-04-26T10:05:03Z</time></trkpt><trkpt lat="45.5329651702094" lon="10.8277303928593"><ele>263.0</ele><time>2026-04-26T10:05:05Z</time></trkpt><trkpt lat="45.5330338713196" lon="10.827728056968374"><ele>263.0</ele><time>2026-04-26T10:05:06Z</time></trkpt><trkpt lat="45.53310413343675" lon="10.827724082669068"><ele>263.0</ele><time>2026-04-26T10:05:07Z</time></trkpt><trkpt lat="45.53317557224393" lon="10.827704086905197"><ele>263.0</ele><time>2026-04-26T10:05:08Z</time></trkpt><trkpt lat="45.53324894167475" lon="10.827708585619915"><ele>263.0</ele><time>2026-04-26T10:05:09Z</time></trkpt><trkpt lat="45.53333098792492" lon="10.82772028970113"><ele>263.0</ele><time>2026-04-26T10:05:10Z</time></trkpt><trkpt lat="45.53344057651973" lon="10.827733156801719"><ele>263.0</ele><time>2026-04-26T10:05:11Z</time></trkpt><trkpt lat="45.533535551722174" lon="10.827753158485462"><ele>263.0</ele><time>2026-04-26T10:05:12Z</time></trkpt><trkpt lat="45.533610633245544" lon="10.827769580760904"><ele>263.0</ele><time>2026-04-26T10:05:13Z</time></trkpt><trkpt lat="45.53366584704085" lon="10.827820766842503"><ele>263.0</ele><time>2026-04-26T10:05:14Z</time></trkpt><trkpt lat="45.53372304185861" lon="10.82787534370954"><ele>263.0</ele><time>2026-04-26T10:05:15Z</time></trkpt><trkpt lat="45.53380352575742" lon="10.827934060156865"><ele>263.0</ele><time>2026-04-26T10:05:16Z</time></trkpt><trkpt lat="45.53385623849613" lon="10.828003289694905"><ele>263.0</ele><time>2026-04-26T10:05:17Z</time></trkpt><trkpt lat="45.533908521333615" lon="10.828069713425418"><ele>263.0</ele><time>2026-04-26T10:05:18Z</time></trkpt><trkpt lat="45.533996725636314" lon="10.82816875539893"><ele>262.1666666666667</ele><time>2026-04-26T10:05:20Z</time></trkpt><trkpt lat="45.53405529018855" lon="10.828274398523934"><ele>261.33333333333337</ele><time>2026-04-26T10:05:22Z</time></trkpt><trkpt lat="45.53403862472058" lon="10.828395340719187"><ele>260.5</ele><time>2026-04-26T10:05:24Z</time></trkpt><trkpt lat="45.53404868314133" lon="10.828504625447254"><ele>259.6666666666667</ele><time>2026-04-26T10:05:26Z</time></trkpt><trkpt lat="45.534052105674725" lon="10.828643259528242"><ele>258.8333333333333</ele><time>2026-04-26T10:05:57Z</time></trkpt><trkpt lat="45.534023649549994" lon="10.82872709272279"><ele>258.0</ele><time>2026-04-26T10:05:59Z</time></trkpt><trkpt lat="45.53392773806551" lon="10.828804421435283"><ele>259.0</ele><time>2026-04-26T10:06:01Z</time></trkpt><trkpt lat="45.53386951699858" lon="10.828846171260835"><ele>260.0</ele><time>2026-04-26T10:06:02Z</time></trkpt><trkpt lat="45.533774639224966" lon="10.82892851512166"><ele>261.0</ele><time>2026-04-26T10:06:04Z</time></trkpt><trkpt lat="45.53367625577818" lon="10.82899517053088"><ele>262.0</ele><time>2026-04-26T10:06:06Z</time></trkpt><trkpt lat="45.533557740120834" lon="10.829073306834072"><ele>263.0</ele><time>2026-04-26T10:06:08Z</time></trkpt><trkpt lat="45.53349475289101" lon="10.829122411757156"><ele>263.0</ele><time>2026-04-26T10:06:09Z</time></trkpt><trkpt lat="45.533425555440274" lon="10.829192761119618"><ele>263.0</ele><time>2026-04-26T10:06:10Z</time></trkpt><trkpt lat="45.53336709358926" lon="10.829278507721071"><ele>263.0</ele><time>2026-04-26T10:06:11Z</time></trkpt><trkpt lat="45.53330105262621" lon="10.829370293520194"><ele>263.0</ele><time>2026-04-26T10:06:12Z</time></trkpt><trkpt lat="45.53323562972378" lon="10.829472856717066"><ele>263.0</ele><time>2026-04-26T10:06:13Z</time></trkpt><trkpt lat="45.53316688229772" lon="10.829579334021718"><ele>264.6</ele><time>2026-04-26T10:06:14Z</time></trkpt><trkpt lat="45.533097981822486" lon="10.829678039244008"><ele>266.20000000000005</ele><time>2026-04-26T10:06:15Z</time></trkpt><trkpt lat="45.53303846491387" lon="10.82978649354615"><ele>267.8</ele><time>2026-04-26T10:06:16Z</time></trkpt><trkpt lat="45.53298212161234" lon="10.82990708006203"><ele>269.40000000000003</ele><time>2026-04-26T10:06:17Z</time></trkpt><trkpt lat="45.53292959995033" lon="10.830024042975793"><ele>271.0</ele><time>2026-04-26T10:06:18Z</time></trkpt><trkpt lat="45.53288640970523" lon="10.83013135017732"><ele>269.40000000000003</ele><time>2026-04-26T10:06:19Z</time></trkpt><trkpt lat="45.5328438528902" lon="10.830221647651154"><ele>267.8</ele><time>2026-04-26T10:06:20Z</time></trkpt><trkpt lat="45.532802190877675" lon="10.830316055110552"><ele>266.20000000000005</ele><time>2026-04-26T10:06:21Z</time></trkpt><trkpt lat="45.53274369946472" lon="10.830475840511095"><ele>264.6</ele><time>2026-04-26T10:06:23Z</time></trkpt><trkpt lat="45.53270897093501" lon="10.830598784764415"><ele>263.0</ele><time>2026-04-26T10:06:24Z</time></trkpt><trkpt lat="45.53269060093527" lon="10.830751826236877"><ele>263.0</ele><time>2026-04-26T10:06:25Z</time></trkpt><trkpt lat="45.532668784101986" lon="10.830891878871476"><ele>263.0</ele><time>2026-04-26T10:06:26Z</time></trkpt><trkpt lat="45.53265076441086" lon="10.831015462090072"><ele>263.0</ele><time>2026-04-26T10:06:27Z</time></trkpt><trkpt lat="45.53262688780545" lon="10.831107139629735"><ele>263.0</ele><time>2026-04-26T10:06:28Z</time></trkpt><trkpt lat="45.532588854543405" lon="10.831208086159785"><ele>263.0</ele><time>2026-04-26T10:06:29Z</time></trkpt><trkpt lat="45.53253395025212" lon="10.831332178270499"><ele>263.0</ele><time>2026-04-26T10:06:30Z</time></trkpt><trkpt lat="45.532457796454814" lon="10.831473213402482"><ele>260.5</ele><time>2026-04-26T10:06:31Z</time></trkpt><trkpt lat="45.53237929412489" lon="10.831625281984394"><ele>258.0</ele><time>2026-04-26T10:06:32Z</time></trkpt><trkpt lat="45.532294285434176" lon="10.831780470180563"><ele>255.5</ele><time>2026-04-26T10:06:33Z</time></trkpt><trkpt lat="45.53224254190543" lon="10.8319059470332"><ele>253.0</ele><time>2026-04-26T10:06:34Z</time></trkpt><trkpt lat="45.532190263961155" lon="10.832032254886581"><ele>254.2</ele><time>2026-04-26T10:06:35Z</time></trkpt><trkpt lat="45.532127527580336" lon="10.832164872536255"><ele>255.4</ele><time>2026-04-26T10:06:36Z</time></trkpt><trkpt lat="45.53205725101661" lon="10.832291546745774"><ele>256.59999999999997</ele><time>2026-04-26T10:06:37Z</time></trkpt><trkpt lat="45.53199882056921" lon="10.832414587362356"><ele>257.8</ele><time>2026-04-26T10:06:38Z</time></trkpt><trkpt lat="45.53195824636236" lon="10.832507377026973"><ele>259.0</ele><time>2026-04-26T10:06:39Z</time></trkpt><trkpt lat="45.53191014134567" lon="10.832598826873289"><ele>257.7142857142857</ele><time>2026-04-26T10:06:40Z</time></trkpt><trkpt lat="45.53187379211642" lon="10.83267770367188"><ele>256.42857142857144</ele><time>2026-04-26T10:06:41Z</time></trkpt><trkpt lat="45.53182884532188" lon="10.832772028486767"><ele>255.14285714285714</ele><time>2026-04-26T10:06:42Z</time></trkpt><trkpt lat="45.53177462702205" lon="10.832867087338343"><ele>253.85714285714286</ele><time>2026-04-26T10:06:43Z</time></trkpt><trkpt lat="45.53172340541529" lon="10.832947330984426"><ele>252.57142857142858</ele><time>2026-04-26T10:06:44Z</time></trkpt><trkpt lat="45.53168970763766" lon="10.833030068128958"><ele>251.28571428571428</ele><time>2026-04-26T10:06:45Z</time></trkpt><trkpt lat="45.53166958602626" lon="10.83312928667917"><ele>250.0</ele><time>2026-04-26T10:06:46Z</time></trkpt><trkpt lat="45.531656371227946" lon="10.83327487846797"><ele>250.0</ele><time>2026-04-26T10:06:47Z</time></trkpt><trkpt lat="45.53164011428708" lon="10.833386634658256"><ele>250.0</ele><time>2026-04-26T10:06:48Z</time></trkpt><trkpt lat="45.53160959147981" lon="10.833480595030291"><ele>250.0</ele><time>2026-04-26T10:06:49Z</time></trkpt><trkpt lat="45.53155003585784" lon="10.83357751214033"><ele>250.0</ele><time>2026-04-26T10:06:50Z</time></trkpt><trkpt lat="45.531470431064015" lon="10.833691578189809"><ele>250.0</ele><time>2026-04-26T10:06:51Z</time></trkpt><trkpt lat="45.53139770211344" lon="10.833797829141446"><ele>250.0</ele><time>2026-04-26T10:06:52Z</time></trkpt><trkpt lat="45.53132938241318" lon="10.833884828482894"><ele>250.0</ele><time>2026-04-26T10:06:53Z</time></trkpt><trkpt lat="45.53127598474471" lon="10.833961938206661"><ele>250.0</ele><time>2026-04-26T10:06:54Z</time></trkpt><trkpt lat="45.531231539499196" lon="10.83403913760776"><ele>250.0</ele><time>2026-04-26T10:06:55Z</time></trkpt><trkpt lat="45.53118648351126" lon="10.834162661762955"><ele>250.0</ele><time>2026-04-26T10:06:57Z</time></trkpt><trkpt lat="45.53122939511067" lon="10.834333316919299"><ele>250.6</ele><time>2026-04-26T10:06:59Z</time></trkpt><trkpt lat="45.53127881931129" lon="10.834461619963864"><ele>251.2</ele><time>2026-04-26T10:07:00Z</time></trkpt><trkpt lat="45.531314462337676" lon="10.834557699575207"><ele>251.8</ele><time>2026-04-26T10:07:01Z</time></trkpt><trkpt lat="45.53131656529144" lon="10.834728065898942"><ele>252.4</ele><time>2026-04-26T10:07:03Z</time></trkpt><trkpt lat="45.531258455841474" lon="10.834826284931285"><ele>253.0</ele><time>2026-04-26T10:07:04Z</time></trkpt><trkpt lat="45.531226325915206" lon="10.83497441213864"><ele>253.16666666666666</ele><time>2026-04-26T10:07:05Z</time></trkpt><trkpt lat="45.531181644089564" lon="10.835120716584223"><ele>253.33333333333331</ele><time>2026-04-26T10:07:06Z</time></trkpt><trkpt lat="45.531163357780336" lon="10.835253736060197"><ele>253.5</ele><time>2026-04-26T10:07:07Z</time></trkpt><trkpt lat="45.53114267326077" lon="10.835341048637819"><ele>253.66666666666669</ele><time>2026-04-26T10:07:08Z</time></trkpt><trkpt lat="45.53113156693561" lon="10.835438834565503"><ele>253.83333333333334</ele><time>2026-04-26T10:07:10Z</time></trkpt><trkpt lat="45.53122841450409" lon="10.835401464319188"><ele>254.0</ele><time>2026-04-26T10:07:14Z</time></trkpt><trkpt lat="45.531250275876374" lon="10.835291366550775"><ele>254.0</ele><time>2026-04-26T10:07:15Z</time></trkpt><trkpt lat="45.5312784719956" lon="10.835149309637165"><ele>253.99999999999997</ele><time>2026-04-26T10:07:16Z</time></trkpt><trkpt lat="45.53132040382809" lon="10.835016463059064"><ele>253.99999999999997</ele><time>2026-04-26T10:07:17Z</time></trkpt><trkpt lat="45.53136189302722" lon="10.83490051627492"><ele>254.0</ele><time>2026-04-26T10:07:18Z</time></trkpt><trkpt lat="45.531416242947365" lon="10.83476944441763"><ele>254.0</ele><time>2026-04-26T10:07:19Z</time></trkpt><trkpt lat="45.53149613481069" lon="10.834638786215725"><ele>253.75</ele><time>2026-04-26T10:07:20Z</time></trkpt><trkpt lat="45.53160437930016" lon="10.834531394050822"><ele>253.5</ele><time>2026-04-26T10:07:21Z</time></trkpt><trkpt lat="45.53173459250219" lon="10.83445294346979"><ele>253.25</ele><time>2026-04-26T10:07:22Z</time></trkpt><trkpt lat="45.53186437412749" lon="10.834400110007927"><ele>253.0</ele><time>2026-04-26T10:07:23Z</time></trkpt><trkpt lat="45.53201178175139" lon="10.834377577048057"><ele>255.66666666666666</ele><time>2026-04-26T10:07:24Z</time></trkpt><trkpt lat="45.53217421892141" lon="10.834304649413674"><ele>258.3333333333333</ele><time>2026-04-26T10:07:25Z</time></trkpt><trkpt lat="45.532366479082036" lon="10.834246958028384"><ele>261.0</ele><time>2026-04-26T10:07:26Z</time></trkpt><trkpt lat="45.53255252956975" lon="10.834154915863959"><ele>261.0</ele><time>2026-04-26T10:07:27Z</time></trkpt><trkpt lat="45.53272523988198" lon="10.834041792488772"><ele>261.0</ele><time>2026-04-26T10:07:28Z</time></trkpt><trkpt lat="45.53290986226151" lon="10.833924599261914"><ele>261.0</ele><time>2026-04-26T10:07:29Z</time></trkpt><trkpt lat="45.53309041892647" lon="10.833817072203232"><ele>265.6666666666667</ele><time>2026-04-26T10:07:30Z</time></trkpt><trkpt lat="45.53326301926489" lon="10.83372134470234"><ele>270.33333333333337</ele><time>2026-04-26T10:07:31Z</time></trkpt><trkpt lat="45.53344850091081" lon="10.83362906175107"><ele>275.0</ele><time>2026-04-26T10:07:32Z</time></trkpt><trkpt lat="45.53362314619849" lon="10.833547407252084"><ele>273.0</ele><time>2026-04-26T10:07:33Z</time></trkpt><trkpt lat="45.53377483750455" lon="10.833474825420517"><ele>271.0</ele><time>2026-04-26T10:07:34Z</time></trkpt><trkpt lat="45.533912700716286" lon="10.833408430039592"><ele>269.0</ele><time>2026-04-26T10:07:35Z</time></trkpt><trkpt lat="45.534051352446625" lon="10.83337887747019"><ele>267.0</ele><time>2026-04-26T10:07:36Z</time></trkpt><trkpt lat="45.534184315492354" lon="10.833425297352088"><ele>267.0</ele><time>2026-04-26T10:07:37Z</time></trkpt><trkpt lat="45.53429371283426" lon="10.833437885266433"><ele>267.0</ele><time>2026-04-26T10:07:38Z</time></trkpt><trkpt lat="45.53436227573418" lon="10.833460568039731"><ele>267.0</ele><time>2026-04-26T10:07:39Z</time></trkpt><trkpt lat="45.5344711231458" lon="10.833487177390142"><ele>267.0</ele><time>2026-04-26T10:07:41Z</time></trkpt><trkpt lat="45.53455543261888" lon="10.833479530157405"><ele>267.0</ele><time>2026-04-26T10:07:43Z</time></trkpt><trkpt lat="45.53463431222678" lon="10.833428667967235"><ele>269.0</ele><time>2026-04-26T10:07:52Z</time></trkpt><trkpt lat="45.53472120918697" lon="10.833381971680021"><ele>271.0</ele><time>2026-04-26T10:07:53Z</time></trkpt><trkpt lat="45.53483839027696" lon="10.833327172397318"><ele>273.0</ele><time>2026-04-26T10:07:54Z</time></trkpt><trkpt lat="45.53496222853683" lon="10.833272046980497"><ele>275.0</ele><time>2026-04-26T10:07:55Z</time></trkpt><trkpt lat="45.53509332426523" lon="10.833205904971981"><ele>275.0</ele><time>2026-04-26T10:07:56Z</time></trkpt><trkpt lat="45.53522376607306" lon="10.83315953039664"><ele>275.0</ele><time>2026-04-26T10:07:57Z</time></trkpt><trkpt lat="45.53535329862855" lon="10.833141964150485"><ele>275.0</ele><time>2026-04-26T10:07:58Z</time></trkpt><trkpt lat="45.53548201785186" lon="10.83310740633384"><ele>275.0</ele><time>2026-04-26T10:07:59Z</time></trkpt><trkpt lat="45.53561151979069" lon="10.833003179168204"><ele>274.6666666666667</ele><time>2026-04-26T10:08:00Z</time></trkpt><trkpt lat="45.53574184105977" lon="10.832834950070456"><ele>274.3333333333333</ele><time>2026-04-26T10:08:01Z</time></trkpt><trkpt lat="45.53587206953321" lon="10.832636735059143"><ele>274.0</ele><time>2026-04-26T10:08:02Z</time></trkpt><trkpt lat="45.53597302484971" lon="10.83247438639782"><ele>274.0</ele><time>2026-04-26T10:08:03Z</time></trkpt><trkpt lat="45.53607405644926" lon="10.832363317737052"><ele>274.0</ele><time>2026-04-26T10:08:04Z</time></trkpt><trkpt lat="45.536177902615236" lon="10.83229923324904"><ele>274.0</ele><time>2026-04-26T10:08:05Z</time></trkpt><trkpt lat="45.53631458304631" lon="10.83231428288064"><ele>274.0</ele><time>2026-04-26T10:08:06Z</time></trkpt><trkpt lat="45.5364312376359" lon="10.832368990224234"><ele>277.3333333333333</ele><time>2026-04-26T10:08:07Z</time></trkpt><trkpt lat="45.53654826542488" lon="10.832475027432093"><ele>280.6666666666667</ele><time>2026-04-26T10:08:08Z</time></trkpt><trkpt lat="45.536689072869535" lon="10.832587040511115"><ele>284.0</ele><time>2026-04-26T10:08:09Z</time></trkpt><trkpt lat="45.53684063074095" lon="10.832698330176436"><ele>289.0</ele><time>2026-04-26T10:08:10Z</time></trkpt><trkpt lat="45.536997585504686" lon="10.832789353523093"><ele>294.0</ele><time>2026-04-26T10:08:11Z</time></trkpt><trkpt lat="45.537134246295054" lon="10.832879140154567"><ele>299.0</ele><time>2026-04-26T10:08:12Z</time></trkpt><trkpt lat="45.53726486622072" lon="10.832950631326039"><ele>299.6666666666667</ele><time>2026-04-26T10:08:13Z</time></trkpt><trkpt lat="45.537415819458296" lon="10.83295832103613"><ele>300.3333333333333</ele><time>2026-04-26T10:08:14Z</time></trkpt><trkpt lat="45.5375820133014" lon="10.832876794880661"><ele>301.0</ele><time>2026-04-26T10:08:15Z</time></trkpt><trkpt lat="45.537760192952724" lon="10.832791437150687"><ele>299.0</ele><time>2026-04-26T10:08:16Z</time></trkpt><trkpt lat="45.537928098310296" lon="10.832695004747015"><ele>297.0</ele><time>2026-04-26T10:08:17Z</time></trkpt><trkpt lat="45.53807701316001" lon="10.832572811341146"><ele>295.0</ele><time>2026-04-26T10:08:18Z</time></trkpt><trkpt lat="45.53821202654137" lon="10.83245027667909"><ele>295.0</ele><time>2026-04-26T10:08:19Z</time></trkpt><trkpt lat="45.538355227230866" lon="10.832358115647532"><ele>295.0</ele><time>2026-04-26T10:08:20Z</time></trkpt><trkpt lat="45.538513296414045" lon="10.832315854516459"><ele>295.0</ele><time>2026-04-26T10:08:21Z</time></trkpt><trkpt lat="45.53866882451684" lon="10.832323349638935"><ele>295.3333333333333</ele><time>2026-04-26T10:08:22Z</time></trkpt><trkpt lat="45.538820724733" lon="10.83238077995911"><ele>295.6666666666667</ele><time>2026-04-26T10:08:23Z</time></trkpt><trkpt lat="45.538973295360854" lon="10.832490475642654"><ele>296.0</ele><time>2026-04-26T10:08:24Z</time></trkpt><trkpt lat="45.53911805744335" lon="10.832629176684282"><ele>300.5</ele><time>2026-04-26T10:08:25Z</time></trkpt><trkpt lat="45.539257753964904" lon="10.832764603251036"><ele>305.0</ele><time>2026-04-26T10:08:26Z</time></trkpt><trkpt lat="45.53937258896242" lon="10.832892220952441"><ele>309.5</ele><time>2026-04-26T10:08:27Z</time></trkpt><trkpt lat="45.539450051938935" lon="10.833043450143022"><ele>314.0</ele><time>2026-04-26T10:08:28Z</time></trkpt><trkpt lat="45.53949917075417" lon="10.833229423197348"><ele>314.0</ele><time>2026-04-26T10:08:29Z</time></trkpt><trkpt lat="45.539538682006445" lon="10.833429346081004"><ele>314.0</ele><time>2026-04-26T10:08:30Z</time></trkpt><trkpt lat="45.5396049920544" lon="10.833601321060605"><ele>314.0</ele><time>2026-04-26T10:08:31Z</time></trkpt><trkpt lat="45.53971442874114" lon="10.833728930616502"><ele>314.0</ele><time>2026-04-26T10:08:32Z</time></trkpt><trkpt lat="45.539862787719386" lon="10.833807476961223"><ele>315.0</ele><time>2026-04-26T10:08:33Z</time></trkpt><trkpt lat="45.540048419651555" lon="10.833865867546914"><ele>316.0</ele><time>2026-04-26T10:08:34Z</time></trkpt><trkpt lat="45.540264146764855" lon="10.833891167365937"><ele>317.0</ele><time>2026-04-26T10:08:35Z</time></trkpt><trkpt lat="45.54048662355698" lon="10.833894661208397"><ele>318.6666666666667</ele><time>2026-04-26T10:08:36Z</time></trkpt><trkpt lat="45.54069885048873" lon="10.83389917371517"><ele>320.3333333333333</ele><time>2026-04-26T10:08:37Z</time></trkpt><trkpt lat="45.54090508377298" lon="10.833922566054847"><ele>322.0</ele><time>2026-04-26T10:08:38Z</time></trkpt><trkpt lat="45.54111114001534" lon="10.833955260357312"><ele>322.66666666666663</ele><time>2026-04-26T10:08:39Z</time></trkpt><trkpt lat="45.541312117343175" lon="10.833984339930007"><ele>323.3333333333333</ele><time>2026-04-26T10:08:40Z</time></trkpt><trkpt lat="45.54148904114333" lon="10.833956137139644"><ele>324.0</ele><time>2026-04-26T10:08:41Z</time></trkpt><trkpt lat="45.541647806061235" lon="10.833974913979098"><ele>324.0</ele><time>2026-04-26T10:08:42Z</time></trkpt><trkpt lat="45.541792185311586" lon="10.834009224135368"><ele>324.0</ele><time>2026-04-26T10:08:43Z</time></trkpt><trkpt lat="45.541926736878295" lon="10.83409848722248"><ele>324.0</ele><time>2026-04-26T10:08:44Z</time></trkpt><trkpt lat="45.542043421756134" lon="10.834214125797045"><ele>324.0</ele><time>2026-04-26T10:08:45Z</time></trkpt><trkpt lat="45.54216325598628" lon="10.83433824585707"><ele>327.0</ele><time>2026-04-26T10:08:46Z</time></trkpt><trkpt lat="45.54233567953076" lon="10.834452991787073"><ele>330.0</ele><time>2026-04-26T10:08:47Z</time></trkpt><trkpt lat="45.54249003600602" lon="10.83454499906202"><ele>333.0</ele><time>2026-04-26T10:08:48Z</time></trkpt><trkpt lat="45.542653743820104" lon="10.834616863072515"><ele>333.0</ele><time>2026-04-26T10:08:49Z</time></trkpt><trkpt lat="45.54284206779219" lon="10.83466299497825"><ele>333.0</ele><time>2026-04-26T10:08:50Z</time></trkpt><trkpt lat="45.54303222890727" lon="10.834713241039136"><ele>333.0</ele><time>2026-04-26T10:08:51Z</time></trkpt><trkpt lat="45.543230238722614" lon="10.834751115155624"><ele>332.6666666666667</ele><time>2026-04-26T10:08:52Z</time></trkpt><trkpt lat="45.54342299572556" lon="10.834767063611825"><ele>332.33333333333337</ele><time>2026-04-26T10:08:53Z</time></trkpt><trkpt lat="45.543617522377666" lon="10.834788189669766"><ele>332.0</ele><time>2026-04-26T10:08:54Z</time></trkpt><trkpt lat="45.54380732714558" lon="10.83478067196035"><ele>333.33333333333337</ele><time>2026-04-26T10:08:55Z</time></trkpt><trkpt lat="45.54397221042086" lon="10.834785418949433"><ele>334.6666666666667</ele><time>2026-04-26T10:08:56Z</time></trkpt><trkpt lat="45.544142365304786" lon="10.834770540333475"><ele>336.0</ele><time>2026-04-26T10:08:57Z</time></trkpt><trkpt lat="45.544314525703115" lon="10.834760981369142"><ele>336.0</ele><time>2026-04-26T10:08:58Z</time></trkpt><trkpt lat="45.54447333966807" lon="10.834801290777767"><ele>336.0</ele><time>2026-04-26T10:08:59Z</time></trkpt><trkpt lat="45.54463887082848" lon="10.83481520264338"><ele>336.0</ele><time>2026-04-26T10:09:00Z</time></trkpt><trkpt lat="45.54480795594795" lon="10.834882383475668"><ele>335.6666666666667</ele><time>2026-04-26T10:09:01Z</time></trkpt><trkpt lat="45.54495519192807" lon="10.835000928206457"><ele>335.33333333333337</ele><time>2026-04-26T10:09:02Z</time></trkpt><trkpt lat="45.54508667868382" lon="10.835139134594979"><ele>335.0</ele><time>2026-04-26T10:09:03Z</time></trkpt><trkpt lat="45.54523472367037" lon="10.8353099387141"><ele>336.6666666666667</ele><time>2026-04-26T10:09:04Z</time></trkpt><trkpt lat="45.545347020651334" lon="10.835500359341081"><ele>338.3333333333333</ele><time>2026-04-26T10:09:05Z</time></trkpt><trkpt lat="45.54544466819357" lon="10.835705071892418"><ele>340.0</ele><time>2026-04-26T10:09:06Z</time></trkpt><trkpt lat="45.545502994121016" lon="10.835910125824324"><ele>341.0</ele><time>2026-04-26T10:09:07Z</time></trkpt><trkpt lat="45.54551073285445" lon="10.836094676890552"><ele>342.0</ele><time>2026-04-26T10:09:08Z</time></trkpt><trkpt lat="45.54546935214123" lon="10.836261163251027"><ele>343.0</ele><time>2026-04-26T10:09:09Z</time></trkpt><trkpt lat="45.54538901634007" lon="10.836414357041898"><ele>344.0</ele><time>2026-04-26T10:09:10Z</time></trkpt><trkpt lat="45.54527184690553" lon="10.83654482927863"><ele>346.33333333333337</ele><time>2026-04-26T10:09:11Z</time></trkpt><trkpt lat="45.54512020850805" lon="10.836655533195197"><ele>348.6666666666667</ele><time>2026-04-26T10:09:12Z</time></trkpt><trkpt lat="45.54493615462883" lon="10.836755725347567"><ele>351.0</ele><time>2026-04-26T10:09:13Z</time></trkpt><trkpt lat="45.54472320310638" lon="10.836818162851202"><ele>352.6666666666667</ele><time>2026-04-26T10:09:14Z</time></trkpt><trkpt lat="45.54452708353463" lon="10.836897031281191"><ele>354.33333333333337</ele><time>2026-04-26T10:09:15Z</time></trkpt><trkpt lat="45.54435763529322" lon="10.83696808791878"><ele>356.0</ele><time>2026-04-26T10:09:16Z</time></trkpt><trkpt lat="45.54413941422778" lon="10.837059762665602"><ele>356.0</ele><time>2026-04-26T10:09:17Z</time></trkpt><trkpt lat="45.54395146994445" lon="10.83714134595146"><ele>356.0</ele><time>2026-04-26T10:09:18Z</time></trkpt><trkpt lat="45.543703144759824" lon="10.837265636644727"><ele>361.0</ele><time>2026-04-26T10:09:19Z</time></trkpt><trkpt lat="45.54341409573837" lon="10.837473094820318"><ele>366.0</ele><time>2026-04-26T10:09:20Z</time></trkpt><trkpt lat="45.54333575738066" lon="10.83761483090271"><ele>366.5</ele><time>2026-04-26T10:09:21Z</time></trkpt><trkpt lat="45.543254618171446" lon="10.837810630176609"><ele>367.0</ele><time>2026-04-26T10:09:23Z</time></trkpt><trkpt lat="45.543249689429146" lon="10.837960162504222"><ele>367.5</ele><time>2026-04-26T10:09:25Z</time></trkpt><trkpt lat="45.543188181063464" lon="10.838123894822658"><ele>368.0</ele><time>2026-04-26T10:09:26Z</time></trkpt><trkpt lat="45.54310206349203" lon="10.838232446397901"><ele>368.0</ele><time>2026-04-26T10:09:27Z</time></trkpt><trkpt lat="45.54299116251712" lon="10.838324067412513"><ele>368.0</ele><time>2026-04-26T10:09:28Z</time></trkpt><trkpt lat="45.54289748060092" lon="10.838379471819733"><ele>368.0</ele><time>2026-04-26T10:09:29Z</time></trkpt><trkpt lat="45.542808437517174" lon="10.838456530735424"><ele>368.0</ele><time>2026-04-26T10:09:30Z</time></trkpt><trkpt lat="45.542755105766894" lon="10.838587794558462"><ele>368.0</ele><time>2026-04-26T10:09:31Z</time></trkpt><trkpt lat="45.54274326763296" lon="10.838759159638215"><ele>372.0</ele><time>2026-04-26T10:09:32Z</time></trkpt><trkpt lat="45.5427625112791" lon="10.838927574153333"><ele>376.0</ele><time>2026-04-26T10:09:33Z</time></trkpt><trkpt lat="45.5428019162068" lon="10.839096113324539"><ele>380.0</ele><time>2026-04-26T10:09:34Z</time></trkpt><trkpt lat="45.54283691937943" lon="10.839260328031953"><ele>384.0</ele><time>2026-04-26T10:09:35Z</time></trkpt><trkpt lat="45.542871079893395" lon="10.839413564808444"><ele>384.3333333333333</ele><time>2026-04-26T10:09:36Z</time></trkpt><trkpt lat="45.54290337877256" lon="10.839568680122381"><ele>384.66666666666663</ele><time>2026-04-26T10:09:37Z</time></trkpt><trkpt lat="45.542945238507116" lon="10.839699776063206"><ele>385.0</ele><time>2026-04-26T10:09:38Z</time></trkpt><trkpt lat="45.54299304766547" lon="10.839759295821075"><ele>385.3333333333333</ele><time>2026-04-26T10:09:39Z</time></trkpt><trkpt lat="45.54307589817372" lon="10.839802571123924"><ele>385.66666666666663</ele><time>2026-04-26T10:09:40Z</time></trkpt><trkpt lat="45.5431385448566" lon="10.839821400346176"><ele>386.0</ele><time>2026-04-26T10:09:41Z</time></trkpt><trkpt lat="45.5432167470214" lon="10.83981900464368"><ele>386.0</ele><time>2026-04-26T10:09:44Z</time></trkpt><trkpt lat="45.54294508263152" lon="10.839803552005788"><ele>386.0</ele><time>2026-04-26T10:10:04Z</time></trkpt><trkpt lat="45.542982634088204" lon="10.839670666428928"><ele>386.0</ele><time>2026-04-26T10:10:06Z</time></trkpt><trkpt lat="45.542881027859586" lon="10.839582524268994"><ele>385.6</ele><time>2026-04-26T10:10:08Z</time></trkpt><trkpt lat="45.54283569420901" lon="10.839461795937227"><ele>385.20000000000005</ele><time>2026-04-26T10:10:09Z</time></trkpt><trkpt lat="45.54279733732341" lon="10.839323592884009"><ele>384.79999999999995</ele><time>2026-04-26T10:10:10Z</time></trkpt><trkpt lat="45.542760820767946" lon="10.839187128742433"><ele>384.4</ele><time>2026-04-26T10:10:11Z</time></trkpt><trkpt lat="45.54272468815811" lon="10.839052099527791"><ele>384.0</ele><time>2026-04-26T10:10:12Z</time></trkpt><trkpt lat="45.54268657758076" lon="10.838913088125205"><ele>384.0</ele><time>2026-04-26T10:10:13Z</time></trkpt><trkpt lat="45.54265245299247" lon="10.838805471863333"><ele>384.0</ele><time>2026-04-26T10:10:14Z</time></trkpt><trkpt lat="45.54261020892125" lon="10.838680570301664"><ele>384.0</ele><time>2026-04-26T10:10:15Z</time></trkpt><trkpt lat="45.54258866039052" lon="10.83859339315906"><ele>384.0</ele><time>2026-04-26T10:10:16Z</time></trkpt><trkpt lat="45.543039818214076" lon="10.838326463497257"><ele>380.0</ele><time>2026-04-26T10:10:18Z</time></trkpt><trkpt lat="45.54314065768012" lon="10.838242541909802"><ele>376.0</ele><time>2026-04-26T10:10:19Z</time></trkpt><trkpt lat="45.5432287070392" lon="10.838119426360135"><ele>372.0</ele><time>2026-04-26T10:10:20Z</time></trkpt><trkpt lat="45.54328894327476" lon="10.837972388897706"><ele>368.0</ele><time>2026-04-26T10:10:21Z</time></trkpt><trkpt lat="45.54333764957975" lon="10.837830430396755"><ele>368.0</ele><time>2026-04-26T10:10:22Z</time></trkpt><trkpt lat="45.54338039493947" lon="10.837694408802031"><ele>368.0</ele><time>2026-04-26T10:10:23Z</time></trkpt><trkpt lat="45.5434329282959" lon="10.837569736314288"><ele>368.0</ele><time>2026-04-26T10:10:24Z</time></trkpt><trkpt lat="45.54351713938173" lon="10.837450143374912"><ele>368.0</ele><time>2026-04-26T10:10:25Z</time></trkpt><trkpt lat="45.54363953322663" lon="10.83733997543103"><ele>364.0</ele><time>2026-04-26T10:10:26Z</time></trkpt><trkpt lat="45.54378288666415" lon="10.837246809687914"><ele>360.0</ele><time>2026-04-26T10:10:27Z</time></trkpt><trkpt lat="45.543953236230266" lon="10.837172523697285"><ele>356.0</ele><time>2026-04-26T10:10:28Z</time></trkpt><trkpt lat="45.54412749545089" lon="10.837103250336943"><ele>356.0</ele><time>2026-04-26T10:10:29Z</time></trkpt><trkpt lat="45.54430634888064" lon="10.837029007285949"><ele>356.0</ele><time>2026-04-26T10:10:30Z</time></trkpt><trkpt lat="45.544496346965445" lon="10.83695250090468"><ele>356.0</ele><time>2026-04-26T10:10:31Z</time></trkpt><trkpt lat="45.54469420515792" lon="10.83687941287927"><ele>354.6666666666667</ele><time>2026-04-26T10:10:32Z</time></trkpt><trkpt lat="45.54487466430503" lon="10.836812888815532"><ele>353.3333333333333</ele><time>2026-04-26T10:10:33Z</time></trkpt><trkpt lat="45.54503788033279" lon="10.83675087448196"><ele>352.0</ele><time>2026-04-26T10:10:34Z</time></trkpt><trkpt lat="45.545187323752714" lon="10.836678329547844"><ele>352.0</ele><time>2026-04-26T10:10:35Z</time></trkpt><trkpt lat="45.54532073651199" lon="10.836571655121842"><ele>352.0</ele><time>2026-04-26T10:10:36Z</time></trkpt><trkpt lat="45.54543084398005" lon="10.836429297002454"><ele>352.0</ele><time>2026-04-26T10:10:37Z</time></trkpt><trkpt lat="45.545510089151634" lon="10.836257707609368"><ele>352.0</ele><time>2026-04-26T10:10:38Z</time></trkpt><trkpt lat="45.545546821402574" lon="10.836067303422677"><ele>350.0</ele><time>2026-04-26T10:10:39Z</time></trkpt><trkpt lat="45.54553005893183" lon="10.83587320335636"><ele>348.0</ele><time>2026-04-26T10:10:40Z</time></trkpt><trkpt lat="45.54547093814678" lon="10.835670942950442"><ele>346.0</ele><time>2026-04-26T10:10:41Z</time></trkpt><trkpt lat="45.545376144498285" lon="10.835480892568048"><ele>346.0</ele><time>2026-04-26T10:10:42Z</time></trkpt><trkpt lat="45.545261658457825" lon="10.835293438114453"><ele>346.0</ele><time>2026-04-26T10:10:43Z</time></trkpt><trkpt lat="45.54513801928126" lon="10.835121881124463"><ele>346.0</ele><time>2026-04-26T10:10:44Z</time></trkpt><trkpt lat="45.545014325593755" lon="10.834985689065897"><ele>343.25</ele><time>2026-04-26T10:10:45Z</time></trkpt><trkpt lat="45.54488981508394" lon="10.834881801093529"><ele>340.5</ele><time>2026-04-26T10:10:46Z</time></trkpt><trkpt lat="45.544762079512786" lon="10.834813977952225"><ele>337.75</ele><time>2026-04-26T10:10:47Z</time></trkpt><trkpt lat="45.54464784542685" lon="10.834777685939448"><ele>335.0</ele><time>2026-04-26T10:10:48Z</time></trkpt><trkpt lat="45.54454700584834" lon="10.834761585181216"><ele>335.0</ele><time>2026-04-26T10:10:49Z</time></trkpt><trkpt lat="45.5444626905272" lon="10.834758788523814"><ele>335.0</ele><time>2026-04-26T10:10:50Z</time></trkpt><trkpt lat="45.544396349457855" lon="10.834739036421482"><ele>335.0</ele><time>2026-04-26T10:10:51Z</time></trkpt><trkpt lat="45.54435213196274" lon="10.83466973133285"><ele>335.0</ele><time>2026-04-26T10:10:55Z</time></trkpt><trkpt lat="45.54448821180876" lon="10.83469548128438"><ele>335.0</ele><time>2026-04-26T10:10:58Z</time></trkpt><trkpt lat="45.54455929205172" lon="10.834677762382501"><ele>335.0</ele><time>2026-04-26T10:10:59Z</time></trkpt><trkpt lat="45.54467356281044" lon="10.83470401021771"><ele>335.0</ele><time>2026-04-26T10:11:01Z</time></trkpt><trkpt lat="45.544739498509" lon="10.834721330936985"><ele>335.0</ele><time>2026-04-26T10:11:02Z</time></trkpt><trkpt lat="45.54477923368057" lon="10.834884604083951"><ele>335.0</ele><time>2026-04-26T10:11:03Z</time></trkpt><trkpt lat="45.544908632518414" lon="10.834964525622663"><ele>335.0</ele><time>2026-04-26T10:11:05Z</time></trkpt><trkpt lat="45.54497251398692" lon="10.835014126094121"><ele>335.0</ele><time>2026-04-26T10:11:06Z</time></trkpt><trkpt lat="45.54503609161538" lon="10.835083060921471"><ele>337.2</ele><time>2026-04-26T10:11:07Z</time></trkpt><trkpt lat="45.545143965526854" lon="10.835204334733328"><ele>339.4</ele><time>2026-04-26T10:11:09Z</time></trkpt><trkpt lat="45.54520322426811" lon="10.83528159933408"><ele>341.6</ele><time>2026-04-26T10:11:10Z</time></trkpt><trkpt lat="45.54525986943916" lon="10.835365430826782"><ele>343.8</ele><time>2026-04-26T10:11:11Z</time></trkpt><trkpt lat="45.54531129252804" lon="10.83545057813645"><ele>346.0</ele><time>2026-04-26T10:11:12Z</time></trkpt><trkpt lat="45.54536884131373" lon="10.835550115216137"><ele>344.0</ele><time>2026-04-26T10:11:13Z</time></trkpt><trkpt lat="45.54541133934663" lon="10.835636655650145"><ele>342.0</ele><time>2026-04-26T10:11:14Z</time></trkpt><trkpt lat="45.54547414686948" lon="10.835777319374362"><ele>340.0</ele><time>2026-04-26T10:11:16Z</time></trkpt><trkpt lat="45.546213813105645" lon="10.835618293155058"><ele>338.4</ele><time>2026-04-26T10:12:25Z</time></trkpt><trkpt lat="45.54629397023906" lon="10.835634904720528"><ele>336.8</ele><time>2026-04-26T10:12:26Z</time></trkpt><trkpt lat="45.54637964640072" lon="10.835659343373338"><ele>335.20000000000005</ele><time>2026-04-26T10:12:27Z</time></trkpt><trkpt lat="45.54647702899342" lon="10.835683292617997"><ele>333.6</ele><time>2026-04-26T10:12:28Z</time></trkpt><trkpt lat="45.54658094372212" lon="10.835718759147177"><ele>332.0</ele><time>2026-04-26T10:12:29Z</time></trkpt><trkpt lat="45.546683570246515" lon="10.83576377510964"><ele>332.0</ele><time>2026-04-26T10:12:30Z</time></trkpt><trkpt lat="45.54678290306416" lon="10.835808537117531"><ele>332.0</ele><time>2026-04-26T10:12:31Z</time></trkpt><trkpt lat="45.5468840352382" lon="10.835857537125287"><ele>332.0</ele><time>2026-04-26T10:12:32Z</time></trkpt><trkpt lat="45.54699718598919" lon="10.835901951194518"><ele>332.0</ele><time>2026-04-26T10:12:33Z</time></trkpt><trkpt lat="45.54711847743529" lon="10.835946655885584"><ele>332.40000000000003</ele><time>2026-04-26T10:12:34Z</time></trkpt><trkpt lat="45.54723438064286" lon="10.835986313187496"><ele>332.8</ele><time>2026-04-26T10:12:35Z</time></trkpt><trkpt lat="45.54735172693313" lon="10.836020689542456"><ele>333.2</ele><time>2026-04-26T10:12:36Z</time></trkpt><trkpt lat="45.54746038488456" lon="10.836050289001774"><ele>333.6</ele><time>2026-04-26T10:12:37Z</time></trkpt><trkpt lat="45.54755637054648" lon="10.836070851228785"><ele>334.0</ele><time>2026-04-26T10:12:38Z</time></trkpt><trkpt lat="45.54764181632979" lon="10.83608353471575"><ele>334.0</ele><time>2026-04-26T10:12:39Z</time></trkpt><trkpt lat="45.54772635247186" lon="10.836092069257157"><ele>334.0</ele><time>2026-04-26T10:12:40Z</time></trkpt><trkpt lat="45.54780291506988" lon="10.836100735754886"><ele>334.0</ele><time>2026-04-26T10:12:41Z</time></trkpt><trkpt lat="45.5479131187012" lon="10.83612242823954"><ele>334.0</ele><time>2026-04-26T10:12:43Z</time></trkpt><trkpt lat="45.548040809566345" lon="10.836200927132532"><ele>334.0</ele><time>2026-04-26T10:12:45Z</time></trkpt><trkpt lat="45.54810262793368" lon="10.83624112972623"><ele>333.5</ele><time>2026-04-26T10:12:46Z</time></trkpt><trkpt lat="45.5482110908825" lon="10.836333830681074"><ele>333.0</ele><time>2026-04-26T10:12:48Z</time></trkpt><trkpt lat="45.54827368016302" lon="10.836383090957211"><ele>332.5</ele><time>2026-04-26T10:12:49Z</time></trkpt><trkpt lat="45.54831978426804" lon="10.836469946074846"><ele>332.0</ele><time>2026-04-26T10:12:50Z</time></trkpt><trkpt lat="45.54835254293005" lon="10.83656406256337"><ele>331.5</ele><time>2026-04-26T10:12:51Z</time></trkpt><trkpt lat="45.54837660074362" lon="10.836656449629956"><ele>331.0</ele><time>2026-04-26T10:12:52Z</time></trkpt><trkpt lat="45.54839612495139" lon="10.836744911742787"><ele>331.8</ele><time>2026-04-26T10:12:53Z</time></trkpt><trkpt lat="45.54846020303045" lon="10.836872405411464"><ele>332.6</ele><time>2026-04-26T10:12:55Z</time></trkpt><trkpt lat="45.548550260074556" lon="10.836930117156363"><ele>333.4</ele><time>2026-04-26T10:12:57Z</time></trkpt><trkpt lat="45.548651575588295" lon="10.836906020019489"><ele>334.2</ele><time>2026-04-26T10:12:59Z</time></trkpt><trkpt lat="45.54874508950211" lon="10.836802969275237"><ele>335.0</ele><time>2026-04-26T10:13:01Z</time></trkpt><trkpt lat="45.54878328762652" lon="10.83671690757211"><ele>335.0</ele><time>2026-04-26T10:13:02Z</time></trkpt><trkpt lat="45.54882698201907" lon="10.836605216975329"><ele>335.0</ele><time>2026-04-26T10:13:03Z</time></trkpt><trkpt lat="45.54887249035695" lon="10.836513714150596"><ele>335.0</ele><time>2026-04-26T10:13:04Z</time></trkpt><trkpt lat="45.54892583525592" lon="10.836411102792724"><ele>335.0</ele><time>2026-04-26T10:13:05Z</time></trkpt><trkpt lat="45.54897469032475" lon="10.836318469488402"><ele>335.0</ele><time>2026-04-26T10:13:06Z</time></trkpt><trkpt lat="45.5490223692546" lon="10.83620385965589"><ele>335.0</ele><time>2026-04-26T10:13:07Z</time></trkpt><trkpt lat="45.54907144868842" lon="10.8360970121822"><ele>333.2</ele><time>2026-04-26T10:13:08Z</time></trkpt><trkpt lat="45.54911775372539" lon="10.83596922560584"><ele>331.4</ele><time>2026-04-26T10:13:09Z</time></trkpt><trkpt lat="45.549169233132666" lon="10.835879210173585"><ele>329.6</ele><time>2026-04-26T10:13:10Z</time></trkpt><trkpt lat="45.549243813068216" lon="10.835796827147366"><ele>327.8</ele><time>2026-04-26T10:13:11Z</time></trkpt><trkpt lat="45.54932212004152" lon="10.835675727529008"><ele>326.0</ele><time>2026-04-26T10:13:12Z</time></trkpt><trkpt lat="45.549400712199784" lon="10.835558566084217"><ele>326.0</ele><time>2026-04-26T10:13:13Z</time></trkpt><trkpt lat="45.54946683319506" lon="10.835459665574"><ele>326.0</ele><time>2026-04-26T10:13:14Z</time></trkpt><trkpt lat="45.5495372304375" lon="10.83536670343039"><ele>326.0</ele><time>2026-04-26T10:13:15Z</time></trkpt><trkpt lat="45.5496078284342" lon="10.835309298053781"><ele>326.0</ele><time>2026-04-26T10:13:16Z</time></trkpt><trkpt lat="45.549676970185345" lon="10.835236876354111"><ele>326.0</ele><time>2026-04-26T10:13:17Z</time></trkpt><trkpt lat="45.54974976370976" lon="10.835166061542528"><ele>326.0</ele><time>2026-04-26T10:13:18Z</time></trkpt><trkpt lat="45.549812616968104" lon="10.835105407520244"><ele>325.0</ele><time>2026-04-26T10:13:19Z</time></trkpt><trkpt lat="45.549874605206114" lon="10.835048912599895"><ele>324.0</ele><time>2026-04-26T10:13:20.001Z</time></trkpt><trkpt lat="45.54993642265224" lon="10.835004706913606"><ele>323.0</ele><time>2026-04-26T10:13:21.001Z</time></trkpt><trkpt lat="45.55000145744043" lon="10.834975628437862"><ele>322.0</ele><time>2026-04-26T10:13:22.001Z</time></trkpt><trkpt lat="45.55007836908239" lon="10.83496197199612"><ele>321.0</ele><time>2026-04-26T10:13:23.001Z</time></trkpt><trkpt lat="45.55015829023298" lon="10.834975321197355"><ele>320.0</ele><time>2026-04-26T10:13:24.001Z</time></trkpt><trkpt lat="45.55023646373949" lon="10.835015944282043"><ele>320.0</ele><time>2026-04-26T10:13:25.001Z</time></trkpt><trkpt lat="45.55032606336254" lon="10.835077727192775"><ele>320.0</ele><time>2026-04-26T10:13:26.001Z</time></trkpt><trkpt lat="45.55041944870256" lon="10.835143433101862"><ele>320.0</ele><time>2026-04-26T10:13:27.001Z</time></trkpt><trkpt lat="45.55050370766464" lon="10.835194113892012"><ele>320.0</ele><time>2026-04-26T10:13:28.001Z</time></trkpt><trkpt lat="45.55059468074895" lon="10.835247366452219"><ele>320.0</ele><time>2026-04-26T10:13:29.001Z</time></trkpt><trkpt lat="45.55069528384757" lon="10.835318279788806"><ele>322.4</ele><time>2026-04-26T10:13:30.001Z</time></trkpt><trkpt lat="45.55078029530732" lon="10.8353807546709"><ele>324.8</ele><time>2026-04-26T10:13:31.001Z</time></trkpt><trkpt lat="45.55087345051212" lon="10.835441429699378"><ele>327.20000000000005</ele><time>2026-04-26T10:13:32.001Z</time></trkpt><trkpt lat="45.55096041373209" lon="10.835492827521934"><ele>329.6</ele><time>2026-04-26T10:13:33.001Z</time></trkpt><trkpt lat="45.55105352188942" lon="10.835547902987296"><ele>332.0</ele><time>2026-04-26T10:13:34.001Z</time></trkpt><trkpt lat="45.55115067286221" lon="10.835599859628884"><ele>331.20000000000005</ele><time>2026-04-26T10:13:35.001Z</time></trkpt><trkpt lat="45.551251112563016" lon="10.83564435533309"><ele>330.4</ele><time>2026-04-26T10:13:36.001Z</time></trkpt><trkpt lat="45.55134049241651" lon="10.83568936746031"><ele>329.6</ele><time>2026-04-26T10:13:37.001Z</time></trkpt><trkpt lat="45.551416887633344" lon="10.835744932295656"><ele>328.79999999999995</ele><time>2026-04-26T10:13:38.001Z</time></trkpt><trkpt lat="45.55148911906382" lon="10.83579297006412"><ele>328.0</ele><time>2026-04-26T10:13:39.001Z</time></trkpt><trkpt lat="45.55158100672053" lon="10.83582673615083"><ele>328.0</ele><time>2026-04-26T10:13:40.001Z</time></trkpt><trkpt lat="45.551696993817416" lon="10.835829918830925"><ele>328.0</ele><time>2026-04-26T10:13:41.001Z</time></trkpt><trkpt lat="45.55182507116927" lon="10.835827189914161"><ele>328.0</ele><time>2026-04-26T10:13:42.001Z</time></trkpt><trkpt lat="45.55195761233464" lon="10.835820385570337"><ele>328.0</ele><time>2026-04-26T10:13:43.001Z</time></trkpt><trkpt lat="45.55208742051384" lon="10.835806606472946"><ele>327.25</ele><time>2026-04-26T10:13:44.001Z</time></trkpt><trkpt lat="45.55222780740518" lon="10.835802159983173"><ele>326.5</ele><time>2026-04-26T10:13:45.001Z</time></trkpt><trkpt lat="45.552366093646306" lon="10.835811746823808"><ele>325.75</ele><time>2026-04-26T10:13:46.001Z</time></trkpt><trkpt lat="45.55249881879893" lon="10.835829209376191"><ele>325.0</ele><time>2026-04-26T10:13:47.001Z</time></trkpt><trkpt lat="45.552626044182354" lon="10.835848658469635"><ele>325.0</ele><time>2026-04-26T10:13:48.001Z</time></trkpt><trkpt lat="45.55272913910052" lon="10.83587049949601"><ele>325.0</ele><time>2026-04-26T10:13:49.001Z</time></trkpt><trkpt lat="45.552820779430725" lon="10.83589211614638"><ele>325.0</ele><time>2026-04-26T10:13:50.001Z</time></trkpt><trkpt lat="45.55291278462495" lon="10.835906143006705"><ele>325.0</ele><time>2026-04-26T10:13:51.001Z</time></trkpt><trkpt lat="45.55301151169323" lon="10.835940462939245"><ele>325.0</ele><time>2026-04-26T10:13:52.001Z</time></trkpt><trkpt lat="45.553125828572334" lon="10.835997961232835"><ele>327.75</ele><time>2026-04-26T10:13:53.001Z</time></trkpt><trkpt lat="45.55325528897891" lon="10.836077397112426"><ele>330.5</ele><time>2026-04-26T10:13:54.001Z</time></trkpt><trkpt lat="45.55339797239204" lon="10.836168304540003"><ele>333.25</ele><time>2026-04-26T10:13:55.001Z</time></trkpt><trkpt lat="45.55352388945704" lon="10.836249657349482"><ele>336.0</ele><time>2026-04-26T10:13:56.001Z</time></trkpt><trkpt lat="45.55363702716692" lon="10.836325080513165"><ele>334.25</ele><time>2026-04-26T10:13:57.001Z</time></trkpt><trkpt lat="45.553754876389505" lon="10.836387909560571"><ele>332.5</ele><time>2026-04-26T10:13:58.001Z</time></trkpt><trkpt lat="45.553860171721894" lon="10.836424000816448"><ele>330.75</ele><time>2026-04-26T10:13:59.001Z</time></trkpt><trkpt lat="45.55396125647707" lon="10.836439127161372"><ele>329.0</ele><time>2026-04-26T10:14:00.001Z</time></trkpt><trkpt lat="45.5540828640869" lon="10.83644109449533"><ele>329.0</ele><time>2026-04-26T10:14:01.001Z</time></trkpt><trkpt lat="45.55421437083874" lon="10.83643292683255"><ele>329.0</ele><time>2026-04-26T10:14:02.001Z</time></trkpt><trkpt lat="45.55433745709833" lon="10.836425764152313"><ele>329.0</ele><time>2026-04-26T10:14:03.001Z</time></trkpt><trkpt lat="45.55443677358003" lon="10.836460749190204"><ele>329.0</ele><time>2026-04-26T10:14:04.001Z</time></trkpt><trkpt lat="45.554525535394184" lon="10.836481613045432"><ele>329.0</ele><time>2026-04-26T10:14:05.001Z</time></trkpt><trkpt lat="45.55460550060604" lon="10.83652190211871"><ele>328.75</ele><time>2026-04-26T10:14:06.001Z</time></trkpt><trkpt lat="45.55469626762655" lon="10.83658728461356"><ele>328.5</ele><time>2026-04-26T10:14:07.001Z</time></trkpt><trkpt lat="45.554811015386484" lon="10.836679690251858"><ele>328.25</ele><time>2026-04-26T10:14:08.001Z</time></trkpt><trkpt lat="45.554912267147415" lon="10.83677185185586"><ele>328.0</ele><time>2026-04-26T10:14:09.001Z</time></trkpt><trkpt lat="45.555005103494196" lon="10.836871773906894"><ele>328.0</ele><time>2026-04-26T10:14:10.001Z</time></trkpt><trkpt lat="45.55510818198886" lon="10.83697530905984"><ele>328.0</ele><time>2026-04-26T10:14:11.001Z</time></trkpt><trkpt lat="45.55519179400855" lon="10.837071610662948"><ele>328.0</ele><time>2026-04-26T10:14:12.001Z</time></trkpt><trkpt lat="45.555260459201676" lon="10.83715176364516"><ele>328.0</ele><time>2026-04-26T10:14:13Z</time></trkpt><trkpt lat="45.55531769991233" lon="10.837236344140349"><ele>328.0</ele><time>2026-04-26T10:14:14Z</time></trkpt><trkpt lat="45.55537256034033" lon="10.83733328274845"><ele>326.16666666666663</ele><time>2026-04-26T10:14:15Z</time></trkpt><trkpt lat="45.555411287107326" lon="10.837439713868132"><ele>324.3333333333333</ele><time>2026-04-26T10:14:16Z</time></trkpt><trkpt lat="45.55543806836655" lon="10.837542758715909"><ele>322.5</ele><time>2026-04-26T10:14:17Z</time></trkpt><trkpt lat="45.55546308019821" lon="10.837673806456273"><ele>320.6666666666667</ele><time>2026-04-26T10:14:18Z</time></trkpt><trkpt lat="45.5554774350284" lon="10.837794047069613"><ele>318.83333333333337</ele><time>2026-04-26T10:14:19Z</time></trkpt><trkpt lat="45.55547456589682" lon="10.837903773273826"><ele>317.0</ele><time>2026-04-26T10:14:20Z</time></trkpt><trkpt lat="45.55546354351471" lon="10.83801274026916"><ele>317.0</ele><time>2026-04-26T10:14:21Z</time></trkpt><trkpt lat="45.55544283104811" lon="10.838122445343389"><ele>317.0</ele><time>2026-04-26T10:14:22Z</time></trkpt><trkpt lat="45.55542071156966" lon="10.83824993453873"><ele>317.0</ele><time>2026-04-26T10:14:23Z</time></trkpt><trkpt lat="45.555384975368966" lon="10.838370344232272"><ele>317.0</ele><time>2026-04-26T10:14:24Z</time></trkpt><trkpt lat="45.55533517936195" lon="10.838485608112462"><ele>317.0</ele><time>2026-04-26T10:14:25Z</time></trkpt><trkpt lat="45.55528506901122" lon="10.838587991980967"><ele>317.0</ele><time>2026-04-26T10:14:26Z</time></trkpt><trkpt lat="45.555244486323566" lon="10.83868786876147"><ele>319.33333333333337</ele><time>2026-04-26T10:14:27Z</time></trkpt><trkpt lat="45.5552249712971" lon="10.838824922450916"><ele>321.6666666666667</ele><time>2026-04-26T10:14:29.001Z</time></trkpt><trkpt lat="45.5553094327605" lon="10.838922211882135"><ele>324.0</ele><time>2026-04-26T10:14:31.001Z</time></trkpt><trkpt lat="45.55537212288878" lon="10.838930769686376"><ele>326.3333333333333</ele><time>2026-04-26T10:14:32.001Z</time></trkpt><trkpt lat="45.555440307918936" lon="10.83890078975219"><ele>328.66666666666663</ele><time>2026-04-26T10:14:33.001Z</time></trkpt><trkpt lat="45.55550935553572" lon="10.838836021973824"><ele>331.0</ele><time>2026-04-26T10:14:34.001Z</time></trkpt><trkpt lat="45.55558697258688" lon="10.838760950909855"><ele>331.0</ele><time>2026-04-26T10:14:35.001Z</time></trkpt><trkpt lat="45.55566068508815" lon="10.838696197448153"><ele>331.0</ele><time>2026-04-26T10:14:36.001Z</time></trkpt><trkpt lat="45.55573236153747" lon="10.838654157220457"><ele>331.0</ele><time>2026-04-26T10:14:37.001Z</time></trkpt><trkpt lat="45.55579887615535" lon="10.838644805219584"><ele>331.0</ele><time>2026-04-26T10:14:38.001Z</time></trkpt><trkpt lat="45.55587958442522" lon="10.838647870836128"><ele>331.0</ele><time>2026-04-26T10:14:39.001Z</time></trkpt><trkpt lat="45.55597037714711" lon="10.83866109415328"><ele>331.0</ele><time>2026-04-26T10:14:40.001Z</time></trkpt><trkpt lat="45.55603127066162" lon="10.838695771764227"><ele>331.0</ele><time>2026-04-26T10:14:41.001Z</time></trkpt><trkpt lat="45.55609179628077" lon="10.83875991917035"><ele>331.0</ele><time>2026-04-26T10:14:42.001Z</time></trkpt><trkpt lat="45.55615609661006" lon="10.838867663309431"><ele>331.0</ele><time>2026-04-26T10:14:43.001Z</time></trkpt><trkpt lat="45.55621254350147" lon="10.838989782095556"><ele>331.0</ele><time>2026-04-26T10:14:44.001Z</time></trkpt><trkpt lat="45.55626961217201" lon="10.839111980786969"><ele>331.0</ele><time>2026-04-26T10:14:45.001Z</time></trkpt><trkpt lat="45.55631038720529" lon="10.839230538462628"><ele>331.0</ele><time>2026-04-26T10:14:46.001Z</time></trkpt><trkpt lat="45.55632923771454" lon="10.839334844510045"><ele>331.0</ele><time>2026-04-26T10:14:47.001Z</time></trkpt><trkpt lat="45.55633208792165" lon="10.839444013737742"><ele>331.0</ele><time>2026-04-26T10:14:48.001Z</time></trkpt><trkpt lat="45.55632263935968" lon="10.83954325783855"><ele>331.0</ele><time>2026-04-26T10:14:49.001Z</time></trkpt><trkpt lat="45.55631635627945" lon="10.83963293981419"><ele>331.0</ele><time>2026-04-26T10:14:50.001Z</time></trkpt><trkpt lat="45.556368821323105" lon="10.839727936078937"><ele>331.0</ele><time>2026-04-26T10:14:52.001Z</time></trkpt><trkpt lat="45.556456344661356" lon="10.839717039252184"><ele>331.0</ele><time>2026-04-26T10:14:54.001Z</time></trkpt><trkpt lat="45.55655682644508" lon="10.839628210434894"><ele>331.0</ele><time>2026-04-26T10:14:56.001Z</time></trkpt><trkpt lat="45.55667258390949" lon="10.839589663182343"><ele>331.0</ele><time>2026-04-26T10:14:58.001Z</time></trkpt><trkpt lat="45.55678254643591" lon="10.839659693485558"><ele>331.0</ele><time>2026-04-26T10:15:00.001Z</time></trkpt><trkpt lat="45.55687529840244" lon="10.839793547030117"><ele>331.0</ele><time>2026-04-26T10:15:02.001Z</time></trkpt><trkpt lat="45.556932360652446" lon="10.839922367591589"><ele>331.0</ele><time>2026-04-26T10:15:03.001Z</time></trkpt><trkpt lat="45.55699888597668" lon="10.840082798615388"><ele>331.0</ele><time>2026-04-26T10:15:04.001Z</time></trkpt><trkpt lat="45.557063220292484" lon="10.840225631730474"><ele>331.0</ele><time>2026-04-26T10:15:05.001Z</time></trkpt><trkpt lat="45.5571228267588" lon="10.840329788775877"><ele>333.0</ele><time>2026-04-26T10:15:06.001Z</time></trkpt><trkpt lat="45.557194124023724" lon="10.840423710993957"><ele>335.0</ele><time>2026-04-26T10:15:07.001Z</time></trkpt><trkpt lat="45.55728534557531" lon="10.840520987226313"><ele>337.0</ele><time>2026-04-26T10:15:08.001Z</time></trkpt><trkpt lat="45.55739263159814" lon="10.84062070166125"><ele>339.0</ele><time>2026-04-26T10:15:09.001Z</time></trkpt><trkpt lat="45.5574906482328" lon="10.840697674429526"><ele>339.0</ele><time>2026-04-26T10:15:10.001Z</time></trkpt><trkpt lat="45.557554574308945" lon="10.840764813026817"><ele>339.0</ele><time>2026-04-26T10:15:11.001Z</time></trkpt><trkpt lat="45.557620577540895" lon="10.840804801719193"><ele>339.0</ele><time>2026-04-26T10:15:13.001Z</time></trkpt><trkpt lat="45.55769487098383" lon="10.840765738777046"><ele>339.0</ele><time>2026-04-26T10:15:15.001Z</time></trkpt><trkpt lat="45.55771142243519" lon="10.84061343002842"><ele>339.0</ele><time>2026-04-26T10:15:17.001Z</time></trkpt><trkpt lat="45.55767617865799" lon="10.840520511462753"><ele>339.0</ele><time>2026-04-26T10:15:18.001Z</time></trkpt><trkpt lat="45.55762449347976" lon="10.840438801172459"><ele>339.0</ele><time>2026-04-26T10:15:19.001Z</time></trkpt><trkpt lat="45.55755940343431" lon="10.840329805789834"><ele>339.0</ele><time>2026-04-26T10:15:21.001Z</time></trkpt><trkpt lat="45.55752793690597" lon="10.840216497369594"><ele>339.0</ele><time>2026-04-26T10:15:22.001Z</time></trkpt><trkpt lat="45.55750472025583" lon="10.840102930775554"><ele>339.0</ele><time>2026-04-26T10:15:23.001Z</time></trkpt><trkpt lat="45.55749041533729" lon="10.83999498645306"><ele>339.0</ele><time>2026-04-26T10:15:24.001Z</time></trkpt><trkpt lat="45.55747562662936" lon="10.839858061414981"><ele>339.0</ele><time>2026-04-26T10:15:25.001Z</time></trkpt><trkpt lat="45.55746738860819" lon="10.839708156867948"><ele>336.0</ele><time>2026-04-26T10:15:26.001Z</time></trkpt><trkpt lat="45.557455387844506" lon="10.839528137744336"><ele>333.0</ele><time>2026-04-26T10:15:27.001Z</time></trkpt><trkpt lat="45.55743980537128" lon="10.839322798655635"><ele>330.0</ele><time>2026-04-26T10:15:28.001Z</time></trkpt><trkpt lat="45.5574141287422" lon="10.839137724629351"><ele>327.0</ele><time>2026-04-26T10:15:29.001Z</time></trkpt><trkpt lat="45.55737797509268" lon="10.838953941088102"><ele>326.40000000000003</ele><time>2026-04-26T10:15:30.001Z</time></trkpt><trkpt lat="45.5573341923312" lon="10.838773554119378"><ele>325.8</ele><time>2026-04-26T10:15:31.001Z</time></trkpt><trkpt lat="45.557280472284916" lon="10.838609588192572"><ele>325.2</ele><time>2026-04-26T10:15:32.001Z</time></trkpt><trkpt lat="45.55724529569152" lon="10.83847911744004"><ele>324.6</ele><time>2026-04-26T10:15:33.001Z</time></trkpt><trkpt lat="45.55724041182006" lon="10.8383672724407"><ele>324.0</ele><time>2026-04-26T10:15:34.001Z</time></trkpt><trkpt lat="45.557257029217055" lon="10.838271256737418"><ele>324.0</ele><time>2026-04-26T10:15:35.001Z</time></trkpt><trkpt lat="45.5572954636308" lon="10.838157513804145"><ele>324.0</ele><time>2026-04-26T10:15:36.001Z</time></trkpt><trkpt lat="45.55735019089428" lon="10.838015042593902"><ele>324.0</ele><time>2026-04-26T10:15:37.001Z</time></trkpt><trkpt lat="45.55740767731083" lon="10.837885818204025"><ele>324.0</ele><time>2026-04-26T10:15:38.001Z</time></trkpt><trkpt lat="45.55747780795915" lon="10.837727678123292"><ele>324.0</ele><time>2026-04-26T10:15:39.001Z</time></trkpt><trkpt lat="45.557557432830656" lon="10.837559788103597"><ele>325.25</ele><time>2026-04-26T10:15:40.001Z</time></trkpt><trkpt lat="45.557632723555905" lon="10.837434437728374"><ele>326.5</ele><time>2026-04-26T10:15:41.001Z</time></trkpt><trkpt lat="45.55771104935408" lon="10.837295956687301"><ele>327.75</ele><time>2026-04-26T10:15:42.001Z</time></trkpt><trkpt lat="45.55779928434392" lon="10.837114628196536"><ele>329.0</ele><time>2026-04-26T10:15:43.001Z</time></trkpt><trkpt lat="45.557876700114974" lon="10.836939184243496"><ele>327.0</ele><time>2026-04-26T10:15:44.001Z</time></trkpt><trkpt lat="45.55792382252133" lon="10.83678715324431"><ele>325.0</ele><time>2026-04-26T10:15:45.001Z</time></trkpt><trkpt lat="45.557957571740246" lon="10.836626797523717"><ele>323.0</ele><time>2026-04-26T10:15:46.001Z</time></trkpt><trkpt lat="45.55799091804111" lon="10.836444305219718"><ele>321.0</ele><time>2026-04-26T10:15:47.001Z</time></trkpt><trkpt lat="45.558034254640894" lon="10.836270711519155"><ele>321.0</ele><time>2026-04-26T10:15:48.001Z</time></trkpt><trkpt lat="45.5580878728867" lon="10.83611855323041"><ele>321.0</ele><time>2026-04-26T10:15:49.001Z</time></trkpt><trkpt lat="45.55815135755103" lon="10.835971007668816"><ele>321.0</ele><time>2026-04-26T10:15:50.001Z</time></trkpt><trkpt lat="45.55822202587274" lon="10.835822914224192"><ele>321.0</ele><time>2026-04-26T10:15:51.001Z</time></trkpt><trkpt lat="45.55828057611316" lon="10.835707668141996"><ele>320.1666666666667</ele><time>2026-04-26T10:15:52.001Z</time></trkpt><trkpt lat="45.55834041265286" lon="10.835615454157459"><ele>319.3333333333333</ele><time>2026-04-26T10:15:53.001Z</time></trkpt><trkpt lat="45.55840334983481" lon="10.835557393156364"><ele>318.5</ele><time>2026-04-26T10:15:54.001Z</time></trkpt><trkpt lat="45.55847065148598" lon="10.835514212587647"><ele>317.66666666666663</ele><time>2026-04-26T10:15:55.001Z</time></trkpt><trkpt lat="45.558534095289026" lon="10.835487658037266"><ele>316.8333333333333</ele><time>2026-04-26T10:15:56.001Z</time></trkpt><trkpt lat="45.55860054243326" lon="10.83547849757566"><ele>316.0</ele><time>2026-04-26T10:15:57.001Z</time></trkpt><trkpt lat="45.55872032553886" lon="10.835517984829986"><ele>315.0</ele><time>2026-04-26T10:15:59.001Z</time></trkpt><trkpt lat="45.55877987571255" lon="10.835568500646325"><ele>314.0</ele><time>2026-04-26T10:16:00.001Z</time></trkpt><trkpt lat="45.558833820947605" lon="10.835633220409314"><ele>313.0</ele><time>2026-04-26T10:16:01.001Z</time></trkpt><trkpt lat="45.55887503911377" lon="10.835708304210865"><ele>312.0</ele><time>2026-04-26T10:16:02.001Z</time></trkpt><trkpt lat="45.55891853108109" lon="10.835884552903083"><ele>311.0</ele><time>2026-04-26T10:16:04.001Z</time></trkpt><trkpt lat="45.55894529328168" lon="10.836029758379684"><ele>310.0</ele><time>2026-04-26T10:16:05.001Z</time></trkpt><trkpt lat="45.55897297364009" lon="10.836157425675005"><ele>312.6</ele><time>2026-04-26T10:16:06.001Z</time></trkpt><trkpt lat="45.559012367722666" lon="10.836256980160169"><ele>315.2</ele><time>2026-04-26T10:16:07.001Z</time></trkpt><trkpt lat="45.5590690949864" lon="10.836331454538266"><ele>317.79999999999995</ele><time>2026-04-26T10:16:08.001Z</time></trkpt><trkpt lat="45.55914257123637" lon="10.836385893322154"><ele>320.4</ele><time>2026-04-26T10:16:09.001Z</time></trkpt><trkpt lat="45.559251699986014" lon="10.836453685188252"><ele>323.0</ele><time>2026-04-26T10:16:10.001Z</time></trkpt><trkpt lat="45.55936572911682" lon="10.836515503448982"><ele>323.0</ele><time>2026-04-26T10:16:11.001Z</time></trkpt><trkpt lat="45.5594450706852" lon="10.836592673302375"><ele>323.0</ele><time>2026-04-26T10:16:12.001Z</time></trkpt><trkpt lat="45.559508856890055" lon="10.83668788612777"><ele>323.0</ele><time>2026-04-26T10:16:13.001Z</time></trkpt><trkpt lat="45.55960398918317" lon="10.836813160216153"><ele>323.0</ele><time>2026-04-26T10:16:14.001Z</time></trkpt><trkpt lat="45.55968598635481" lon="10.836921311998795"><ele>323.0</ele><time>2026-04-26T10:16:15.001Z</time></trkpt><trkpt lat="45.559763533585624" lon="10.837021379715178"><ele>323.59999999999997</ele><time>2026-04-26T10:16:16.001Z</time></trkpt><trkpt lat="45.55985692426956" lon="10.837125857076925"><ele>324.2</ele><time>2026-04-26T10:16:17.001Z</time></trkpt><trkpt lat="45.559947337333924" lon="10.83720797890325"><ele>324.8</ele><time>2026-04-26T10:16:18.001Z</time></trkpt><trkpt lat="45.56003821207122" lon="10.837265153083303"><ele>325.4</ele><time>2026-04-26T10:16:19.001Z</time></trkpt><trkpt lat="45.56013476312876" lon="10.83732395091203"><ele>326.0</ele><time>2026-04-26T10:16:20.001Z</time></trkpt><trkpt lat="45.560217866503294" lon="10.837373394901642"><ele>326.0</ele><time>2026-04-26T10:16:21.001Z</time></trkpt><trkpt lat="45.56030134144416" lon="10.83742217682603"><ele>326.0</ele><time>2026-04-26T10:16:22.001Z</time></trkpt><trkpt lat="45.56037244797006" lon="10.83747054998957"><ele>326.0</ele><time>2026-04-26T10:16:23.001Z</time></trkpt><trkpt lat="45.56042860460595" lon="10.837516224993356"><ele>326.0</ele><time>2026-04-26T10:16:24.001Z</time></trkpt><trkpt lat="45.56048714413021" lon="10.837571885145556"><ele>326.0</ele><time>2026-04-26T10:16:25.001Z</time></trkpt><trkpt lat="45.56056306542045" lon="10.837606405231911"><ele>326.0</ele><time>2026-04-26T10:16:26.001Z</time></trkpt><trkpt lat="45.560657050847716" lon="10.837605198881699"><ele>325.6</ele><time>2026-04-26T10:16:27.001Z</time></trkpt><trkpt lat="45.5607524767286" lon="10.837587605928245"><ele>325.20000000000005</ele><time>2026-04-26T10:16:28.001Z</time></trkpt><trkpt lat="45.56083996019552" lon="10.83755744622694"><ele>324.79999999999995</ele><time>2026-04-26T10:16:29.001Z</time></trkpt><trkpt lat="45.56091296572598" lon="10.837516919042878"><ele>324.4</ele><time>2026-04-26T10:16:30.001Z</time></trkpt><trkpt lat="45.56101083862714" lon="10.83741575095483"><ele>324.0</ele><time>2026-04-26T10:16:32.001Z</time></trkpt><trkpt lat="45.56104063276548" lon="10.837252877054464"><ele>324.0</ele><time>2026-04-26T10:16:34.001Z</time></trkpt><trkpt lat="45.56101262492844" lon="10.837133570084"><ele>324.0</ele><time>2026-04-26T10:16:35.001Z</time></trkpt><trkpt lat="45.56098041439268" lon="10.836983999418532"><ele>324.0</ele><time>2026-04-26T10:16:36.001Z</time></trkpt><trkpt lat="45.56094349697504" lon="10.836824596792903"><ele>324.0</ele><time>2026-04-26T10:16:37.001Z</time></trkpt><trkpt lat="45.56093158653762" lon="10.83670470643899"><ele>324.0</ele><time>2026-04-26T10:16:38.001Z</time></trkpt><trkpt lat="45.560930489806886" lon="10.83659669411047"><ele>323.5</ele><time>2026-04-26T10:16:39.001Z</time></trkpt><trkpt lat="45.56094548562187" lon="10.836470246926092"><ele>323.0</ele><time>2026-04-26T10:16:41.001Z</time></trkpt><trkpt lat="45.56096844645079" lon="10.8363339076303"><ele>322.5</ele><time>2026-04-26T10:16:43.001Z</time></trkpt><trkpt lat="45.560996473907004" lon="10.83624490191963"><ele>322.0</ele><time>2026-04-26T10:16:44.001Z</time></trkpt><trkpt lat="45.56103898695343" lon="10.836159540378846"><ele>321.5</ele><time>2026-04-26T10:16:45.001Z</time></trkpt><trkpt lat="45.56109749975186" lon="10.836090592088185"><ele>321.0</ele><time>2026-04-26T10:16:46.001Z</time></trkpt><trkpt lat="45.56115890022986" lon="10.836034070471078"><ele>323.20000000000005</ele><time>2026-04-26T10:16:47.001Z</time></trkpt><trkpt lat="45.56122227559298" lon="10.835997461538968"><ele>325.40000000000003</ele><time>2026-04-26T10:16:48.001Z</time></trkpt><trkpt lat="45.56133229997079" lon="10.836001133954804"><ele>327.6</ele><time>2026-04-26T10:16:50.001Z</time></trkpt><trkpt lat="45.56145503766018" lon="10.836081752109859"><ele>329.8</ele><time>2026-04-26T10:16:52.001Z</time></trkpt><trkpt lat="45.56153676871105" lon="10.836120116615064"><ele>332.0</ele><time>2026-04-26T10:16:53.001Z</time></trkpt><trkpt lat="45.56160212312743" lon="10.836123836538771"><ele>332.0</ele><time>2026-04-26T10:16:54.001Z</time></trkpt><trkpt lat="45.56169138214967" lon="10.836061467531602"><ele>332.0</ele><time>2026-04-26T10:16:56.001Z</time></trkpt><trkpt lat="45.56180271540629" lon="10.835891506957017"><ele>332.0</ele><time>2026-04-26T10:16:58.001Z</time></trkpt><trkpt lat="45.561819745610315" lon="10.835759317217738"><ele>332.0</ele><time>2026-04-26T10:16:59.001Z</time></trkpt><trkpt lat="45.561843257099696" lon="10.835606562040184"><ele>331.6</ele><time>2026-04-26T10:17:00.001Z</time></trkpt><trkpt lat="45.56187316616517" lon="10.835473098041291"><ele>331.20000000000005</ele><time>2026-04-26T10:17:01.001Z</time></trkpt><trkpt lat="45.56191931835336" lon="10.835373534704958"><ele>330.8</ele><time>2026-04-26T10:17:02.001Z</time></trkpt><trkpt lat="45.56196392766146" lon="10.835282218429048"><ele>330.4</ele><time>2026-04-26T10:17:03.001Z</time></trkpt><trkpt lat="45.56204553431167" lon="10.835139313800973"><ele>330.0</ele><time>2026-04-26T10:17:04.001Z</time></trkpt><trkpt lat="45.562118245371366" lon="10.835047736860162"><ele>330.0</ele><time>2026-04-26T10:17:05.001Z</time></trkpt><trkpt lat="45.56217283124617" lon="10.834992329292541"><ele>330.0</ele><time>2026-04-26T10:17:06.001Z</time></trkpt><trkpt lat="45.56225434799599" lon="10.834914244556344"><ele>330.0</ele><time>2026-04-26T10:17:08.001Z</time></trkpt><trkpt lat="45.562361214191235" lon="10.834828979552539"><ele>330.0</ele><time>2026-04-26T10:17:10.001Z</time></trkpt><trkpt lat="45.5624554420756" lon="10.83475197945255"><ele>330.0</ele><time>2026-04-26T10:17:12.001Z</time></trkpt><trkpt lat="45.56253106323077" lon="10.834741662480694"><ele>330.0</ele><time>2026-04-26T10:17:16.001Z</time></trkpt><trkpt lat="45.562580216509645" lon="10.834805749568995"><ele>330.0</ele><time>2026-04-26T10:17:18.001Z</time></trkpt><trkpt lat="45.56260561825086" lon="10.834893019510261"><ele>330.0</ele><time>2026-04-26T10:17:20.001Z</time></trkpt><trkpt lat="45.56263936705271" lon="10.834992171696939"><ele>330.0</ele><time>2026-04-26T10:17:27.001Z</time></trkpt><trkpt lat="45.56267041512609" lon="10.835121797858639"><ele>330.0</ele><time>2026-04-26T10:17:29.001Z</time></trkpt><trkpt lat="45.56271097815915" lon="10.835263291475984"><ele>330.0</ele><time>2026-04-26T10:17:31.001Z</time></trkpt><trkpt lat="45.56276768004025" lon="10.835404957831335"><ele>331.2</ele><time>2026-04-26T10:17:33.001Z</time></trkpt><trkpt lat="45.562831747534474" lon="10.835560240181968"><ele>332.4</ele><time>2026-04-26T10:17:35.001Z</time></trkpt><trkpt lat="45.562897906731706" lon="10.835683617773665"><ele>333.6</ele><time>2026-04-26T10:17:37.001Z</time></trkpt><trkpt lat="45.56298379935221" lon="10.83577299038729"><ele>334.8</ele><time>2026-04-26T10:17:39.001Z</time></trkpt><trkpt lat="45.56304006560906" lon="10.835864548713396"><ele>336.0</ele><time>2026-04-26T10:17:41.001Z</time></trkpt><trkpt lat="45.563068541081115" lon="10.835997835914169"><ele>340.20000000000005</ele><time>2026-04-26T10:17:43.001Z</time></trkpt><trkpt lat="45.563022597551914" lon="10.836122161400871"><ele>344.40000000000003</ele><time>2026-04-26T10:17:45.001Z</time></trkpt><trkpt lat="45.56301554724301" lon="10.836233782067529"><ele>348.6</ele><time>2026-04-26T10:17:47.001Z</time></trkpt><trkpt lat="45.56311332364027" lon="10.836353720170436"><ele>352.8</ele><time>2026-04-26T10:17:49.001Z</time></trkpt><trkpt lat="45.56318636373429" lon="10.836413926458205"><ele>357.0</ele><time>2026-04-26T10:17:50.001Z</time></trkpt><trkpt lat="45.563244157614534" lon="10.836463783620799"><ele>357.0</ele><time>2026-04-26T10:17:51.001Z</time></trkpt><trkpt lat="45.56331974784665" lon="10.836538757414932"><ele>357.0</ele><time>2026-04-26T10:17:53.001Z</time></trkpt><trkpt lat="45.5634171514941" lon="10.836563282375163"><ele>357.0</ele><time>2026-04-26T10:17:55.001Z</time></trkpt><trkpt lat="45.563519244564276" lon="10.83658367418165"><ele>357.0</ele><time>2026-04-26T10:17:57.001Z</time></trkpt><trkpt lat="45.56360721855602" lon="10.836665455380027"><ele>357.0</ele><time>2026-04-26T10:17:59.001Z</time></trkpt><trkpt lat="45.56364427967613" lon="10.836787002881294"><ele>360.3333333333333</ele><time>2026-04-26T10:18:01.001Z</time></trkpt><trkpt lat="45.5636998239589" lon="10.836842445046582"><ele>363.6666666666667</ele><time>2026-04-26T10:18:03.001Z</time></trkpt><trkpt lat="45.56370723596546" lon="10.836984007515303"><ele>367.0</ele><time>2026-04-26T10:18:05Z</time></trkpt><trkpt lat="45.56373515699285" lon="10.837071476618346"><ele>370.33333333333337</ele><time>2026-04-26T10:18:06Z</time></trkpt><trkpt lat="45.56380023875977" lon="10.837204814468556"><ele>373.6666666666667</ele><time>2026-04-26T10:18:08Z</time></trkpt><trkpt lat="45.56384699015375" lon="10.837289324275105"><ele>377.0</ele><time>2026-04-26T10:18:09Z</time></trkpt><trkpt lat="45.56391883387977" lon="10.837407228320517"><ele>377.0</ele><time>2026-04-26T10:18:11Z</time></trkpt><trkpt lat="45.56398665504773" lon="10.837545922924381"><ele>377.0</ele><time>2026-04-26T10:18:13Z</time></trkpt><trkpt lat="45.56403582332495" lon="10.83762409961709"><ele>377.0</ele><time>2026-04-26T10:18:14Z</time></trkpt><trkpt lat="45.56410630333934" lon="10.837713428625552"><ele>377.0</ele><time>2026-04-26T10:18:15Z</time></trkpt><trkpt lat="45.56417455775641" lon="10.837779167286426"><ele>377.0</ele><time>2026-04-26T10:18:16Z</time></trkpt><trkpt lat="45.564222608628555" lon="10.837840272549023"><ele>377.0</ele><time>2026-04-26T10:18:17Z</time></trkpt><trkpt lat="45.56428023945086" lon="10.837969235211128"><ele>377.33333333333337</ele><time>2026-04-26T10:18:19Z</time></trkpt><trkpt lat="45.564276515360035" lon="10.838059918718757"><ele>377.6666666666667</ele><time>2026-04-26T10:18:20Z</time></trkpt><trkpt lat="45.56425602262079" lon="10.83816835975943"><ele>378.0</ele><time>2026-04-26T10:18:21Z</time></trkpt><trkpt lat="45.56422930486861" lon="10.838303428243538"><ele>378.3333333333333</ele><time>2026-04-26T10:18:22Z</time></trkpt><trkpt lat="45.564206490308216" lon="10.838458359510803"><ele>378.66666666666663</ele><time>2026-04-26T10:18:23Z</time></trkpt><trkpt lat="45.56418621626375" lon="10.838590543510882"><ele>379.0</ele><time>2026-04-26T10:18:24Z</time></trkpt><trkpt lat="45.564155159320514" lon="10.838706452606074"><ele>379.3333333333333</ele><time>2026-04-26T10:18:25Z</time></trkpt><trkpt lat="45.56411001071529" lon="10.83881227036369"><ele>379.66666666666663</ele><time>2026-04-26T10:18:26Z</time></trkpt><trkpt lat="45.56406404724622" lon="10.838901187010265"><ele>380.0</ele><time>2026-04-26T10:18:27Z</time></trkpt><trkpt lat="45.56402858973622" lon="10.83899508149926"><ele>380.3333333333333</ele><time>2026-04-26T10:18:28Z</time></trkpt><trkpt lat="45.56399704271767" lon="10.83912347665387"><ele>380.6666666666667</ele><time>2026-04-26T10:18:29Z</time></trkpt><trkpt lat="45.5639852532494" lon="10.83922794099494"><ele>381.0</ele><time>2026-04-26T10:18:30Z</time></trkpt><trkpt lat="45.56401766179459" lon="10.839376104989627"><ele>381.8333333333333</ele><time>2026-04-26T10:18:32Z</time></trkpt><trkpt lat="45.564069474747605" lon="10.83951112392057"><ele>382.66666666666663</ele><time>2026-04-26T10:18:34Z</time></trkpt><trkpt lat="45.56410784539659" lon="10.83958399526747"><ele>383.5</ele><time>2026-04-26T10:18:36Z</time></trkpt><trkpt lat="45.56418495059869" lon="10.839692921915407"><ele>384.3333333333333</ele><time>2026-04-26T10:19:04Z</time></trkpt><trkpt lat="45.56423226177161" lon="10.839769893668066"><ele>385.16666666666663</ele><time>2026-04-26T10:19:05Z</time></trkpt><trkpt lat="45.56428465606857" lon="10.839848964387665"><ele>386.0</ele><time>2026-04-26T10:19:07Z</time></trkpt><trkpt lat="45.564341544932184" lon="10.83992752458784"><ele>385.99999999999994</ele><time>2026-04-26T10:19:17Z</time></trkpt><trkpt lat="45.56446786632157" lon="10.83997332122428"><ele>386.0</ele><time>2026-04-26T10:19:19Z</time></trkpt><trkpt lat="45.564543212821754" lon="10.839986792157253"><ele>386.0</ele><time>2026-04-26T10:19:20Z</time></trkpt><trkpt lat="45.564613762243894" lon="10.839973190821725"><ele>386.0</ele><time>2026-04-26T10:19:21Z</time></trkpt><trkpt lat="45.564688503495184" lon="10.839964243987467"><ele>385.99999999999994</ele><time>2026-04-26T10:19:22Z</time></trkpt><trkpt lat="45.56476968579524" lon="10.839919139024063"><ele>386.0</ele><time>2026-04-26T10:19:23Z</time></trkpt><trkpt lat="45.56484109548395" lon="10.839880638378911"><ele>388.28571428571433</ele><time>2026-04-26T10:19:24Z</time></trkpt><trkpt lat="45.56491095877694" lon="10.839848167811583"><ele>390.57142857142856</ele><time>2026-04-26T10:19:25Z</time></trkpt><trkpt lat="45.56497567888952" lon="10.839824772517892"><ele>392.8571428571429</ele><time>2026-04-26T10:19:26Z</time></trkpt><trkpt lat="45.5650419292345" lon="10.839831593703764"><ele>395.14285714285717</ele><time>2026-04-26T10:19:27Z</time></trkpt><trkpt lat="45.56511181188022" lon="10.839861662946614"><ele>397.42857142857144</ele><time>2026-04-26T10:19:28Z</time></trkpt><trkpt lat="45.56517772027402" lon="10.839914690555087"><ele>399.7142857142857</ele><time>2026-04-26T10:19:29Z</time></trkpt><trkpt lat="45.5652441692046" lon="10.83999768375884"><ele>402.0</ele><time>2026-04-26T10:19:30Z</time></trkpt><trkpt lat="45.56529798439265" lon="10.840106161887322"><ele>405.1666666666667</ele><time>2026-04-26T10:19:31Z</time></trkpt><trkpt lat="45.565378042235075" lon="10.840128037483845"><ele>408.33333333333337</ele><time>2026-04-26T10:19:32Z</time></trkpt><trkpt lat="45.56545197873278" lon="10.840138110917705"><ele>411.5</ele><time>2026-04-26T10:19:33Z</time></trkpt><trkpt lat="45.56555681772993" lon="10.840124750338383"><ele>414.6666666666667</ele><time>2026-04-26T10:19:34Z</time></trkpt><trkpt lat="45.565627162845615" lon="10.840087873642478"><ele>417.83333333333337</ele><time>2026-04-26T10:19:35Z</time></trkpt><trkpt lat="45.56571811071487" lon="10.840038953528943"><ele>421.0</ele><time>2026-04-26T10:19:36Z</time></trkpt><trkpt lat="45.565779251335094" lon="10.83999800459388"><ele>421.0</ele><time>2026-04-26T10:19:37Z</time></trkpt><trkpt lat="45.56584233646247" lon="10.840000784456677"><ele>421.0</ele><time>2026-04-26T10:19:38Z</time></trkpt><trkpt lat="45.56593037554705" lon="10.840026813467974"><ele>421.0</ele><time>2026-04-26T10:19:39Z</time></trkpt><trkpt lat="45.566001894115146" lon="10.840049589392695"><ele>421.0</ele><time>2026-04-26T10:19:40Z</time></trkpt><trkpt lat="45.566126105600894" lon="10.84008464863755"><ele>421.0</ele><time>2026-04-26T10:19:42Z</time></trkpt><trkpt lat="45.56622936027043" lon="10.840082338905626"><ele>425.8</ele><time>2026-04-26T10:19:43Z</time></trkpt><trkpt lat="45.566322581756154" lon="10.840181195509071"><ele>430.6</ele><time>2026-04-26T10:19:45Z</time></trkpt><trkpt lat="45.56636595163071" lon="10.840271773601186"><ele>435.4</ele><time>2026-04-26T10:19:46Z</time></trkpt><trkpt lat="45.56640733821631" lon="10.840376611871434"><ele>440.2</ele><time>2026-04-26T10:19:47Z</time></trkpt><trkpt lat="45.56651859323465" lon="10.840458592573897"><ele>445.0</ele><time>2026-04-26T10:19:49Z</time></trkpt><trkpt lat="45.56657864095928" lon="10.840498700571125"><ele>445.00000000000006</ele><time>2026-04-26T10:19:50Z</time></trkpt><trkpt lat="45.566606689252936" lon="10.84058070893375"><ele>445.0</ele><time>2026-04-26T10:19:51Z</time></trkpt><trkpt lat="45.56663616139876" lon="10.840700653160436"><ele>445.0</ele><time>2026-04-26T10:19:52Z</time></trkpt><trkpt lat="45.5666601653009" lon="10.840805489717802"><ele>445.0</ele><time>2026-04-26T10:19:53Z</time></trkpt><trkpt lat="45.56672655016231" lon="10.84093118615696"><ele>445.00000000000006</ele><time>2026-04-26T10:19:55Z</time></trkpt><trkpt lat="45.56680603616361" lon="10.841016518948383"><ele>445.0</ele><time>2026-04-26T10:19:56Z</time></trkpt><trkpt lat="45.56686785737204" lon="10.841078485230975"><ele>444.8</ele><time>2026-04-26T10:19:57Z</time></trkpt><trkpt lat="45.56694253688809" lon="10.841163417368634"><ele>444.6</ele><time>2026-04-26T10:19:59Z</time></trkpt><trkpt lat="45.566950652346975" lon="10.841262678474896"><ele>444.4</ele><time>2026-04-26T10:20:03Z</time></trkpt><trkpt lat="45.566912561813155" lon="10.841437022289023"><ele>444.2</ele><time>2026-04-26T10:20:05Z</time></trkpt><trkpt lat="45.56689532265302" lon="10.841540947054622"><ele>444.0</ele><time>2026-04-26T10:20:06Z</time></trkpt><trkpt lat="45.566895830735014" lon="10.841659056702749"><ele>444.0</ele><time>2026-04-26T10:20:07Z</time></trkpt><trkpt lat="45.56690105575206" lon="10.841786497592752"><ele>444.0</ele><time>2026-04-26T10:20:08Z</time></trkpt><trkpt lat="45.566908176173165" lon="10.841927239409017"><ele>444.0</ele><time>2026-04-26T10:20:09Z</time></trkpt><trkpt lat="45.56691150280081" lon="10.842071130096476"><ele>444.0</ele><time>2026-04-26T10:20:10Z</time></trkpt><trkpt lat="45.566929782718084" lon="10.84223363845619"><ele>444.0</ele><time>2026-04-26T10:20:11Z</time></trkpt><trkpt lat="45.56696651884135" lon="10.842401840314484"><ele>443.2</ele><time>2026-04-26T10:20:12Z</time></trkpt><trkpt lat="45.56700747807673" lon="10.84255735777825"><ele>442.4</ele><time>2026-04-26T10:20:13Z</time></trkpt><trkpt lat="45.567033204770425" lon="10.842701666239886"><ele>441.6</ele><time>2026-04-26T10:20:14Z</time></trkpt><trkpt lat="45.5670433646782" lon="10.842824977467277"><ele>440.8</ele><time>2026-04-26T10:20:15Z</time></trkpt><trkpt lat="45.567036216363654" lon="10.842936826543365"><ele>440.0</ele><time>2026-04-26T10:20:16Z</time></trkpt><trkpt lat="45.567008651430996" lon="10.843032487098496"><ele>439.99999999999994</ele><time>2026-04-26T10:20:17Z</time></trkpt><trkpt lat="45.56695961910566" lon="10.843107387979543"><ele>440.0</ele><time>2026-04-26T10:20:18Z</time></trkpt><trkpt lat="45.56689346073107" lon="10.843149764566988"><ele>440.0</ele><time>2026-04-26T10:20:19Z</time></trkpt><trkpt lat="45.566819029060255" lon="10.843184717840249"><ele>440.0</ele><time>2026-04-26T10:20:20Z</time></trkpt><trkpt lat="45.56675339260599" lon="10.843225839232124"><ele>439.99999999999994</ele><time>2026-04-26T10:20:21Z</time></trkpt><trkpt lat="45.56667983334985" lon="10.843369711908732"><ele>440.0</ele><time>2026-04-26T10:20:22Z</time></trkpt><trkpt lat="45.56663761028677" lon="10.843533011735973"><ele>440.5</ele><time>2026-04-26T10:20:23Z</time></trkpt><trkpt lat="45.56661026989916" lon="10.8437101726464"><ele>441.0</ele><time>2026-04-26T10:20:24Z</time></trkpt><trkpt lat="45.566581218326846" lon="10.843900340412532"><ele>441.5</ele><time>2026-04-26T10:20:25Z</time></trkpt><trkpt lat="45.56655292172228" lon="10.84408647114508"><ele>442.0</ele><time>2026-04-26T10:20:26Z</time></trkpt><trkpt lat="45.566524072700055" lon="10.844263193584602"><ele>442.33333333333337</ele><time>2026-04-26T10:20:27Z</time></trkpt><trkpt lat="45.566493012080514" lon="10.844436193561581"><ele>442.6666666666667</ele><time>2026-04-26T10:20:28Z</time></trkpt><trkpt lat="45.56646523290298" lon="10.844583564320285"><ele>443.0</ele><time>2026-04-26T10:20:29Z</time></trkpt><trkpt lat="45.56644471378341" lon="10.844692756085346"><ele>443.33333333333337</ele><time>2026-04-26T10:20:30Z</time></trkpt><trkpt lat="45.56642475715439" lon="10.844783839373639"><ele>443.6666666666667</ele><time>2026-04-26T10:20:31Z</time></trkpt><trkpt lat="45.56640432932445" lon="10.844879210710136"><ele>444.0</ele><time>2026-04-26T10:20:32Z</time></trkpt><trkpt lat="45.56639386595122" lon="10.844976606686487"><ele>444.0</ele><time>2026-04-26T10:20:33Z</time></trkpt><trkpt lat="45.566395965437714" lon="10.845075732262314"><ele>444.0</ele><time>2026-04-26T10:20:34Z</time></trkpt><trkpt lat="45.566423358800044" lon="10.845213421260228"><ele>444.0</ele><time>2026-04-26T10:20:36Z</time></trkpt><trkpt lat="45.56646370319947" lon="10.845286275764371"><ele>444.0</ele><time>2026-04-26T10:20:37Z</time></trkpt><trkpt lat="45.56651214206606" lon="10.84535638429993"><ele>444.0</ele><time>2026-04-26T10:20:38Z</time></trkpt><trkpt lat="45.566561464582236" lon="10.845423009676043"><ele>444.0</ele><time>2026-04-26T10:20:39Z</time></trkpt><trkpt lat="45.566609890826655" lon="10.84548898217421"><ele>444.0</ele><time>2026-04-26T10:20:40Z</time></trkpt><trkpt lat="45.56665625526884" lon="10.845557522613767"><ele>444.4</ele><time>2026-04-26T10:20:41Z</time></trkpt><trkpt lat="45.56668739211306" lon="10.845638938851383"><ele>444.79999999999995</ele><time>2026-04-26T10:20:42Z</time></trkpt><trkpt lat="45.566653516265966" lon="10.845769397800856"><ele>445.20000000000005</ele><time>2026-04-26T10:20:44Z</time></trkpt><trkpt lat="45.56672145819967" lon="10.845658498654009"><ele>445.6</ele><time>2026-04-26T10:20:47Z</time></trkpt><trkpt lat="45.56669675841921" lon="10.84553874086432"><ele>446.0</ele><time>2026-04-26T10:20:48Z</time></trkpt><trkpt lat="45.56662263836662" lon="10.845431312900619"><ele>446.0</ele><time>2026-04-26T10:20:49Z</time></trkpt><trkpt lat="45.566527557394195" lon="10.845327298294956"><ele>446.0</ele><time>2026-04-26T10:20:50Z</time></trkpt><trkpt lat="45.566453724089506" lon="10.845223301499718"><ele>446.0</ele><time>2026-04-26T10:20:51Z</time></trkpt><trkpt lat="45.56642048374943" lon="10.845115915358543"><ele>446.0</ele><time>2026-04-26T10:20:52Z</time></trkpt><trkpt lat="45.56641390290079" lon="10.84498037872533"><ele>446.0</ele><time>2026-04-26T10:20:53Z</time></trkpt><trkpt lat="45.56642359457692" lon="10.844826281248157"><ele>445.66666666666663</ele><time>2026-04-26T10:20:54Z</time></trkpt><trkpt lat="45.566448649022995" lon="10.844700095981743"><ele>445.3333333333333</ele><time>2026-04-26T10:20:55Z</time></trkpt><trkpt lat="45.56646686952885" lon="10.844607552229078"><ele>445.0</ele><time>2026-04-26T10:20:56Z</time></trkpt><trkpt lat="45.56655963269253" lon="10.844518903967687"><ele>444.66666666666663</ele><time>2026-04-26T10:20:58Z</time></trkpt><trkpt lat="45.56663138899855" lon="10.8445420163424"><ele>444.3333333333333</ele><time>2026-04-26T10:20:59Z</time></trkpt><trkpt lat="45.56668190120652" lon="10.844613428325529"><ele>444.0</ele><time>2026-04-26T10:21:00Z</time></trkpt><trkpt lat="45.56671467847906" lon="10.84472022281615"><ele>444.0</ele><time>2026-04-26T10:21:01Z</time></trkpt><trkpt lat="45.56674026483251" lon="10.844830697365062"><ele>444.0</ele><time>2026-04-26T10:21:02Z</time></trkpt><trkpt lat="45.56676313923768" lon="10.84492318847029"><ele>444.0</ele><time>2026-04-26T10:21:03Z</time></trkpt><trkpt lat="45.566786735912366" lon="10.845015345759428"><ele>444.0</ele><time>2026-04-26T10:21:04Z</time></trkpt><trkpt lat="45.5667953443451" lon="10.845104846171292"><ele>444.0</ele><time>2026-04-26T10:21:05Z</time></trkpt><trkpt lat="45.56679210428691" lon="10.845197643290593"><ele>444.0</ele><time>2026-04-26T10:21:06Z</time></trkpt><trkpt lat="45.56679243114982" lon="10.845296954906054"><ele>444.0</ele><time>2026-04-26T10:21:07Z</time></trkpt><trkpt lat="45.56679550830336" lon="10.845408970099069"><ele>444.3333333333333</ele><time>2026-04-26T10:21:08Z</time></trkpt><trkpt lat="45.56685327160063" lon="10.845495609472156"><ele>444.66666666666663</ele><time>2026-04-26T10:21:09Z</time></trkpt><trkpt lat="45.566903856955115" lon="10.845569511014805"><ele>445.0</ele><time>2026-04-26T10:21:10Z</time></trkpt><trkpt lat="45.56696161219757" lon="10.845635362623355"><ele>445.3333333333333</ele><time>2026-04-26T10:21:11Z</time></trkpt><trkpt lat="45.56703867802772" lon="10.845719894735927"><ele>445.66666666666663</ele><time>2026-04-26T10:21:12Z</time></trkpt><trkpt lat="45.56713521098915" lon="10.845825404649947"><ele>446.0</ele><time>2026-04-26T10:21:13Z</time></trkpt><trkpt lat="45.56722520134891" lon="10.845961853627811"><ele>450.0</ele><time>2026-04-26T10:21:14Z</time></trkpt><trkpt lat="45.56729835940384" lon="10.846079585197444"><ele>454.0</ele><time>2026-04-26T10:21:15Z</time></trkpt><trkpt lat="45.567338525764114" lon="10.846214149996916"><ele>458.0</ele><time>2026-04-26T10:21:16Z</time></trkpt><trkpt lat="45.567375108116465" lon="10.8463936480699"><ele>462.0</ele><time>2026-04-26T10:21:17Z</time></trkpt><trkpt lat="45.56744932130204" lon="10.846589896534551"><ele>463.25</ele><time>2026-04-26T10:21:18Z</time></trkpt><trkpt lat="45.56750523021201" lon="10.846814747292564"><ele>464.5</ele><time>2026-04-26T10:21:19Z</time></trkpt><trkpt lat="45.56755474293267" lon="10.846985660571372"><ele>465.75</ele><time>2026-04-26T10:21:20Z</time></trkpt><trkpt lat="45.567603548153166" lon="10.847126938459798"><ele>467.0</ele><time>2026-04-26T10:21:21Z</time></trkpt><trkpt lat="45.56763462595694" lon="10.847244326177584"><ele>467.0</ele><time>2026-04-26T10:21:22Z</time></trkpt><trkpt lat="45.567704414414735" lon="10.847343803871627"><ele>467.0</ele><time>2026-04-26T10:21:23Z</time></trkpt><trkpt lat="45.56781227012027" lon="10.84744051034114"><ele>467.0</ele><time>2026-04-26T10:21:24Z</time></trkpt><trkpt lat="45.56789751792027" lon="10.847542146886244"><ele>467.0</ele><time>2026-04-26T10:21:25Z</time></trkpt><trkpt lat="45.5679273183661" lon="10.847728401856497"><ele>473.3333333333333</ele><time>2026-04-26T10:21:26Z</time></trkpt><trkpt lat="45.56800204209477" lon="10.84794945618996"><ele>479.66666666666663</ele><time>2026-04-26T10:21:27Z</time></trkpt><trkpt lat="45.56804898109524" lon="10.848233412927648"><ele>486.0</ele><time>2026-04-26T10:21:28Z</time></trkpt><trkpt lat="45.568116335056295" lon="10.848456222549883"><ele>486.6</ele><time>2026-04-26T10:21:29Z</time></trkpt><trkpt lat="45.568169421922676" lon="10.848631905320529"><ele>487.20000000000005</ele><time>2026-04-26T10:21:30Z</time></trkpt><trkpt lat="45.56822471042676" lon="10.848758634346817"><ele>487.79999999999995</ele><time>2026-04-26T10:21:31Z</time></trkpt><trkpt lat="45.568247729951" lon="10.848848355776921"><ele>488.4</ele><time>2026-04-26T10:21:32Z</time></trkpt><trkpt lat="45.56824394339037" lon="10.848959996786903"><ele>489.0</ele><time>2026-04-26T10:21:34Z</time></trkpt><trkpt lat="45.568123918307165" lon="10.848954185026983"><ele>489.0</ele><time>2026-04-26T10:21:36Z</time></trkpt><trkpt lat="45.56806531506456" lon="10.84888965908936"><ele>489.0</ele><time>2026-04-26T10:21:37Z</time></trkpt><trkpt lat="45.568033796581986" lon="10.84878046142412"><ele>489.0</ele><time>2026-04-26T10:21:38Z</time></trkpt><trkpt lat="45.56797145667759" lon="10.848701960221568"><ele>489.0</ele><time>2026-04-26T10:21:39Z</time></trkpt><trkpt lat="45.567922994428976" lon="10.848608374309357"><ele>489.0</ele><time>2026-04-26T10:21:40Z</time></trkpt><trkpt lat="45.56786093445445" lon="10.848508718120097"><ele>489.0</ele><time>2026-04-26T10:21:41Z</time></trkpt><trkpt lat="45.56780874750557" lon="10.848434629922012"><ele>487.6</ele><time>2026-04-26T10:21:42Z</time></trkpt><trkpt lat="45.567747080790234" lon="10.848369980727998"><ele>486.2</ele><time>2026-04-26T10:21:43Z</time></trkpt><trkpt lat="45.567667680924416" lon="10.848326589781584"><ele>484.80000000000007</ele><time>2026-04-26T10:21:44Z</time></trkpt><trkpt lat="45.567560432125205" lon="10.848329536470013"><ele>483.40000000000003</ele><time>2026-04-26T10:21:45Z</time></trkpt><trkpt lat="45.56744895686146" lon="10.84835600251714"><ele>482.0</ele><time>2026-04-26T10:21:46Z</time></trkpt><trkpt lat="45.56733056274027" lon="10.848383824857555"><ele>482.0</ele><time>2026-04-26T10:21:47Z</time></trkpt><trkpt lat="45.567200544208305" lon="10.84836911929986"><ele>482.0</ele><time>2026-04-26T10:21:48Z</time></trkpt><trkpt lat="45.56706551376885" lon="10.848396243094916"><ele>482.0</ele><time>2026-04-26T10:21:49Z</time></trkpt><trkpt lat="45.566928612519" lon="10.848458800945332"><ele>482.0</ele><time>2026-04-26T10:21:50Z</time></trkpt><trkpt lat="45.56678850337004" lon="10.84850911862552"><ele>486.5</ele><time>2026-04-26T10:21:51Z</time></trkpt><trkpt lat="45.566647384633015" lon="10.848570195941404"><ele>491.0</ele><time>2026-04-26T10:21:52Z</time></trkpt><trkpt lat="45.56651484164273" lon="10.84863064099566"><ele>495.5</ele><time>2026-04-26T10:21:53Z</time></trkpt><trkpt lat="45.566398523296705" lon="10.848644104533097"><ele>500.0</ele><time>2026-04-26T10:21:54Z</time></trkpt><trkpt lat="45.56629588904046" lon="10.848662477873154"><ele>500.6</ele><time>2026-04-26T10:21:55Z</time></trkpt><trkpt lat="45.56618864311022" lon="10.848663504321442"><ele>501.2</ele><time>2026-04-26T10:21:56Z</time></trkpt><trkpt lat="45.566080489600154" lon="10.848651823235672"><ele>501.79999999999995</ele><time>2026-04-26T10:21:57Z</time></trkpt><trkpt lat="45.56596766064274" lon="10.848637061409208"><ele>502.4</ele><time>2026-04-26T10:21:58Z</time></trkpt><trkpt lat="45.56585189276204" lon="10.848619382571194"><ele>503.0</ele><time>2026-04-26T10:21:59Z</time></trkpt><trkpt lat="45.56573545251185" lon="10.848603433580866"><ele>503.0</ele><time>2026-04-26T10:22:00Z</time></trkpt><trkpt lat="45.56561022178404" lon="10.848612557587654"><ele>503.0</ele><time>2026-04-26T10:22:01Z</time></trkpt><trkpt lat="45.56549334581223" lon="10.848614680039521"><ele>503.0</ele><time>2026-04-26T10:22:02Z</time></trkpt><trkpt lat="45.56539740173823" lon="10.848677393666213"><ele>503.0</ele><time>2026-04-26T10:22:03Z</time></trkpt><trkpt lat="45.56531837074963" lon="10.848800083850277"><ele>503.0</ele><time>2026-04-26T10:22:04Z</time></trkpt><trkpt lat="45.565265248826876" lon="10.848945708262052"><ele>502.99999999999994</ele><time>2026-04-26T10:22:05Z</time></trkpt><trkpt lat="45.5652211767927" lon="10.84907357970613"><ele>502.99999999999994</ele><time>2026-04-26T10:22:06Z</time></trkpt><trkpt lat="45.56515521025059" lon="10.849135324176622"><ele>503.0</ele><time>2026-04-26T10:22:07Z</time></trkpt><trkpt lat="45.565070421234836" lon="10.849132680356396"><ele>503.0</ele><time>2026-04-26T10:22:08Z</time></trkpt><trkpt lat="45.564964602431964" lon="10.849179961474139"><ele>503.0</ele><time>2026-04-26T10:22:09Z</time></trkpt><trkpt lat="45.56482871369642" lon="10.849246847599904"><ele>503.0</ele><time>2026-04-26T10:22:10Z</time></trkpt><trkpt lat="45.564648910433725" lon="10.849251336415252"><ele>503.0</ele><time>2026-04-26T10:22:11Z</time></trkpt><trkpt lat="45.56448657137209" lon="10.849264556873008"><ele>504.5</ele><time>2026-04-26T10:22:12Z</time></trkpt><trkpt lat="45.56435009105267" lon="10.849286542182124"><ele>506.0</ele><time>2026-04-26T10:22:13Z</time></trkpt><trkpt lat="45.56421744876135" lon="10.849267408318456"><ele>507.5</ele><time>2026-04-26T10:22:14Z</time></trkpt><trkpt lat="45.56408105804312" lon="10.849259485026803"><ele>509.0</ele><time>2026-04-26T10:22:15Z</time></trkpt><trkpt lat="45.563949320274695" lon="10.849248651563935"><ele>509.0</ele><time>2026-04-26T10:22:16Z</time></trkpt><trkpt lat="45.563834633486735" lon="10.84924077322596"><ele>509.0</ele><time>2026-04-26T10:22:17Z</time></trkpt><trkpt lat="45.563741966799796" lon="10.849245043259804"><ele>509.0</ele><time>2026-04-26T10:22:18Z</time></trkpt><trkpt lat="45.563670257675334" lon="10.849248448652524"><ele>509.0</ele><time>2026-04-26T10:22:19Z</time></trkpt><trkpt lat="45.56360598481202" lon="10.849150998771796"><ele>509.0</ele><time>2026-04-26T10:22:23Z</time></trkpt><trkpt lat="45.56354023264507" lon="10.8490347592156"><ele>508.79999999999995</ele><time>2026-04-26T10:22:38Z</time></trkpt><trkpt lat="45.56345212298552" lon="10.848971429546708"><ele>508.59999999999997</ele><time>2026-04-26T10:22:40Z</time></trkpt><trkpt lat="45.56332172238809" lon="10.848994587687006"><ele>508.4</ele><time>2026-04-26T10:22:42Z</time></trkpt><trkpt lat="45.56323799029723" lon="10.849024134783587"><ele>508.2</ele><time>2026-04-26T10:22:43Z</time></trkpt><trkpt lat="45.5631571368718" lon="10.849053059167085"><ele>508.0</ele><time>2026-04-26T10:22:44Z</time></trkpt><trkpt lat="45.563074843545955" lon="10.849083427526216"><ele>508.0</ele><time>2026-04-26T10:22:45Z</time></trkpt><trkpt lat="45.562979012455074" lon="10.84912021750719"><ele>507.99999999999994</ele><time>2026-04-26T10:22:46Z</time></trkpt><trkpt lat="45.56287904116831" lon="10.849160862925082"><ele>507.99999999999994</ele><time>2026-04-26T10:22:47Z</time></trkpt><trkpt lat="45.56276810748037" lon="10.849205848925171"><ele>508.0</ele><time>2026-04-26T10:22:48Z</time></trkpt><trkpt lat="45.56264378235326" lon="10.84925539429341"><ele>508.0</ele><time>2026-04-26T10:22:49Z</time></trkpt><trkpt lat="45.56251584342479" lon="10.849295192127189"><ele>508.5</ele><time>2026-04-26T10:22:50Z</time></trkpt><trkpt lat="45.56238917504413" lon="10.84927567120932"><ele>509.0</ele><time>2026-04-26T10:22:51Z</time></trkpt><trkpt lat="45.56226985219131" lon="10.849270265569904"><ele>509.5</ele><time>2026-04-26T10:22:52Z</time></trkpt><trkpt lat="45.562163045410784" lon="10.84925426796032"><ele>510.0</ele><time>2026-04-26T10:22:53Z</time></trkpt><trkpt lat="45.56206693258524" lon="10.849292684732658"><ele>506.0</ele><time>2026-04-26T10:22:54Z</time></trkpt><trkpt lat="45.56197419619938" lon="10.849376295194357"><ele>502.0</ele><time>2026-04-26T10:22:55Z</time></trkpt><trkpt lat="45.56189113364486" lon="10.849496266677033"><ele>498.0</ele><time>2026-04-26T10:22:56Z</time></trkpt><trkpt lat="45.561823849420655" lon="10.849645158808059"><ele>494.0</ele><time>2026-04-26T10:22:57Z</time></trkpt><trkpt lat="45.56176984862617" lon="10.8498200915914"><ele>494.0</ele><time>2026-04-26T10:22:58Z</time></trkpt><trkpt lat="45.56173164933244" lon="10.849992743316804"><ele>494.0</ele><time>2026-04-26T10:22:59Z</time></trkpt><trkpt lat="45.56170070118512" lon="10.850153983782011"><ele>494.0</ele><time>2026-04-26T10:23:00Z</time></trkpt><trkpt lat="45.56166758347904" lon="10.850308439777848"><ele>494.0</ele><time>2026-04-26T10:23:01Z</time></trkpt><trkpt lat="45.561635849626356" lon="10.850433628297042"><ele>494.4</ele><time>2026-04-26T10:23:02Z</time></trkpt><trkpt lat="45.56160144777465" lon="10.850566887049064"><ele>494.79999999999995</ele><time>2026-04-26T10:23:03Z</time></trkpt><trkpt lat="45.56156773296937" lon="10.850697479325492"><ele>495.20000000000005</ele><time>2026-04-26T10:23:04Z</time></trkpt><trkpt lat="45.56153452800947" lon="10.850825850074875"><ele>495.6</ele><time>2026-04-26T10:23:05Z</time></trkpt><trkpt lat="45.56150214286964" lon="10.85094739126132"><ele>496.0</ele><time>2026-04-26T10:23:06Z</time></trkpt><trkpt lat="45.56146663100268" lon="10.851065863546445"><ele>496.8</ele><time>2026-04-26T10:23:07Z</time></trkpt><trkpt lat="45.56142485757807" lon="10.851187894923685"><ele>497.6</ele><time>2026-04-26T10:23:08Z</time></trkpt><trkpt lat="45.561373476146954" lon="10.85130402292402"><ele>498.4</ele><time>2026-04-26T10:23:09Z</time></trkpt><trkpt lat="45.56129630241996" lon="10.851374240936876"><ele>499.2</ele><time>2026-04-26T10:23:10Z</time></trkpt><trkpt lat="45.561179997969084" lon="10.851408596451906"><ele>500.0</ele><time>2026-04-26T10:23:11Z</time></trkpt><trkpt lat="45.56104391986045" lon="10.851425098142734"><ele>496.75</ele><time>2026-04-26T10:23:12Z</time></trkpt><trkpt lat="45.56091586817466" lon="10.851418597842935"><ele>493.5</ele><time>2026-04-26T10:23:13Z</time></trkpt><trkpt lat="45.56081103123679" lon="10.8513772077301"><ele>490.25</ele><time>2026-04-26T10:23:14Z</time></trkpt><trkpt lat="45.56074576645214" lon="10.851251193093729"><ele>487.0</ele><time>2026-04-26T10:23:15Z</time></trkpt><trkpt lat="45.56068956141841" lon="10.851125909634868"><ele>487.0</ele><time>2026-04-26T10:23:16Z</time></trkpt><trkpt lat="45.560662172741964" lon="10.850981220791251"><ele>487.00000000000006</ele><time>2026-04-26T10:23:17Z</time></trkpt><trkpt lat="45.56063519383651" lon="10.850824783926022"><ele>487.00000000000006</ele><time>2026-04-26T10:23:18Z</time></trkpt><trkpt lat="45.560621407446554" lon="10.850692519572048"><ele>487.0</ele><time>2026-04-26T10:23:19Z</time></trkpt><trkpt lat="45.56061192431058" lon="10.850582129089743"><ele>487.0</ele><time>2026-04-26T10:23:20Z</time></trkpt><trkpt lat="45.56060613781168" lon="10.850477005300755"><ele>485.6</ele><time>2026-04-26T10:23:21Z</time></trkpt><trkpt lat="45.56058727820848" lon="10.85037876536878"><ele>484.20000000000005</ele><time>2026-04-26T10:23:22Z</time></trkpt><trkpt lat="45.5605953983945" lon="10.850211119065907"><ele>482.8</ele><time>2026-04-26T10:23:24Z</time></trkpt><trkpt lat="45.56060991121582" lon="10.850112955023688"><ele>481.4</ele><time>2026-04-26T10:23:26Z</time></trkpt><trkpt lat="45.56063596041436" lon="10.849992046798503"><ele>480.0</ele><time>2026-04-26T10:23:47Z</time></trkpt><trkpt lat="45.56065172732388" lon="10.849787863445423"><ele>479.0</ele><time>2026-04-26T10:23:49Z</time></trkpt><trkpt lat="45.56067571027896" lon="10.849671971628611"><ele>478.0</ele><time>2026-04-26T10:23:50Z</time></trkpt><trkpt lat="45.560681963978375" lon="10.849497540872466"><ele>477.0</ele><time>2026-04-26T10:23:52Z</time></trkpt><trkpt lat="45.560682914605295" lon="10.849374277149579"><ele>476.0</ele><time>2026-04-26T10:23:54Z</time></trkpt><trkpt lat="45.56068205529748" lon="10.849221434312884"><ele>475.0</ele><time>2026-04-26T10:23:56Z</time></trkpt><trkpt lat="45.56067566176593" lon="10.849039247456725"><ele>475.0</ele><time>2026-04-26T10:23:58Z</time></trkpt><trkpt lat="45.56066776757199" lon="10.848926769564358"><ele>475.0</ele><time>2026-04-26T10:23:59Z</time></trkpt><trkpt lat="45.56065641390941" lon="10.848777647543898"><ele>475.0</ele><time>2026-04-26T10:24:00Z</time></trkpt><trkpt lat="45.560641402000186" lon="10.848580477575469"><ele>475.0</ele><time>2026-04-26T10:24:01Z</time></trkpt><trkpt lat="45.560628939517315" lon="10.848412361769544"><ele>475.0</ele><time>2026-04-26T10:24:02Z</time></trkpt><trkpt lat="45.56062152898884" lon="10.848280631196044"><ele>474.6</ele><time>2026-04-26T10:24:03Z</time></trkpt><trkpt lat="45.56061754107783" lon="10.848152545418387"><ele>474.2</ele><time>2026-04-26T10:24:04Z</time></trkpt><trkpt lat="45.56061544287844" lon="10.848015831277312"><ele>473.79999999999995</ele><time>2026-04-26T10:24:05Z</time></trkpt><trkpt lat="45.56061472597341" lon="10.847897222453936"><ele>473.4</ele><time>2026-04-26T10:24:06Z</time></trkpt><trkpt lat="45.56061410260253" lon="10.84779408899512"><ele>473.0</ele><time>2026-04-26T10:24:07Z</time></trkpt><trkpt lat="45.56061404402894" lon="10.847616593007082"><ele>472.0</ele><time>2026-04-26T10:24:09Z</time></trkpt><trkpt lat="45.56061502202503" lon="10.84743874762687"><ele>470.99999999999994</ele><time>2026-04-26T10:24:11Z</time></trkpt><trkpt lat="45.56060197218795" lon="10.847341658738086"><ele>469.99999999999994</ele><time>2026-04-26T10:24:12Z</time></trkpt><trkpt lat="45.56060907748061" lon="10.847228540371248"><ele>469.0</ele><time>2026-04-26T10:24:13Z</time></trkpt><trkpt lat="45.56063752048971" lon="10.847099275116525"><ele>468.0</ele><time>2026-04-26T10:24:14Z</time></trkpt><trkpt lat="45.56065589655628" lon="10.846952031135327"><ele>468.0</ele><time>2026-04-26T10:24:15Z</time></trkpt><trkpt lat="45.56067790094287" lon="10.84680212754507"><ele>468.0</ele><time>2026-04-26T10:24:16Z</time></trkpt><trkpt lat="45.56070399733863" lon="10.846649516384485"><ele>468.0</ele><time>2026-04-26T10:24:17Z</time></trkpt><trkpt lat="45.56074367025763" lon="10.846472618567676"><ele>468.0</ele><time>2026-04-26T10:24:18Z</time></trkpt><trkpt lat="45.560802964268056" lon="10.846252386132983"><ele>467.0</ele><time>2026-04-26T10:24:19Z</time></trkpt><trkpt lat="45.560877782713696" lon="10.846066918068162"><ele>465.99999999999994</ele><time>2026-04-26T10:24:20Z</time></trkpt><trkpt lat="45.560959700793966" lon="10.845937981893588"><ele>464.99999999999994</ele><time>2026-04-26T10:24:21Z</time></trkpt><trkpt lat="45.56102475746605" lon="10.845836108382318"><ele>464.0</ele><time>2026-04-26T10:24:22Z</time></trkpt><trkpt lat="45.561084656802755" lon="10.845777829204918"><ele>463.0</ele><time>2026-04-26T10:24:23Z</time></trkpt><trkpt lat="45.56112982704798" lon="10.845712488245637"><ele>461.6666666666667</ele><time>2026-04-26T10:24:24Z</time></trkpt><trkpt lat="45.56114488010833" lon="10.845607921465724"><ele>460.33333333333337</ele><time>2026-04-26T10:24:26Z</time></trkpt><trkpt lat="45.561127129536395" lon="10.845517798850793"><ele>459.0</ele><time>2026-04-26T10:24:28Z</time></trkpt><trkpt lat="45.56101101916106" lon="10.845494973835502"><ele>457.66666666666663</ele><time>2026-04-26T10:25:14Z</time></trkpt><trkpt lat="45.560946874169176" lon="10.845469312152677"><ele>456.3333333333333</ele><time>2026-04-26T10:25:15Z</time></trkpt><trkpt lat="45.56086517504649" lon="10.845480088372758"><ele>455.0</ele><time>2026-04-26T10:25:16Z</time></trkpt><trkpt lat="45.5607812385439" lon="10.845498766415204"><ele>455.0</ele><time>2026-04-26T10:25:17Z</time></trkpt><trkpt lat="45.56069290202343" lon="10.845515875027466"><ele>455.0</ele><time>2026-04-26T10:25:18Z</time></trkpt><trkpt lat="45.560588466698206" lon="10.845538847593353"><ele>455.0</ele><time>2026-04-26T10:25:19Z</time></trkpt><trkpt lat="45.56047097522153" lon="10.845571358837455"><ele>455.0</ele><time>2026-04-26T10:25:20Z</time></trkpt><trkpt lat="45.56036224916029" lon="10.845609395820572"><ele>455.0</ele><time>2026-04-26T10:25:21Z</time></trkpt><trkpt lat="45.56025986123213" lon="10.84564830564213"><ele>453.8</ele><time>2026-04-26T10:25:22Z</time></trkpt><trkpt lat="45.56016255321116" lon="10.845687332988444"><ele>452.6</ele><time>2026-04-26T10:25:23Z</time></trkpt><trkpt lat="45.5600679516119" lon="10.845728655509598"><ele>451.4</ele><time>2026-04-26T10:25:24Z</time></trkpt><trkpt lat="45.559980013508195" lon="10.845781610212788"><ele>450.2</ele><time>2026-04-26T10:25:25Z</time></trkpt><trkpt lat="45.55990248073415" lon="10.845861532237722"><ele>449.0</ele><time>2026-04-26T10:25:26Z</time></trkpt><trkpt lat="45.55982484411746" lon="10.845970411911555"><ele>449.0</ele><time>2026-04-26T10:25:27Z</time></trkpt><trkpt lat="45.55974335476666" lon="10.846099113386307"><ele>449.0</ele><time>2026-04-26T10:25:28Z</time></trkpt><trkpt lat="45.559667673638906" lon="10.84624326201961"><ele>449.0</ele><time>2026-04-26T10:25:29Z</time></trkpt><trkpt lat="45.55960197815378" lon="10.846405251754861"><ele>449.0</ele><time>2026-04-26T10:25:30Z</time></trkpt><trkpt lat="45.559554138404614" lon="10.846576524259667"><ele>447.0</ele><time>2026-04-26T10:25:31Z</time></trkpt><trkpt lat="45.559524181904294" lon="10.846728893377326"><ele>445.0</ele><time>2026-04-26T10:25:32Z</time></trkpt><trkpt lat="45.55949410928809" lon="10.84688516181057"><ele>443.0</ele><time>2026-04-26T10:25:33Z</time></trkpt><trkpt lat="45.55945810358574" lon="10.847058040519695"><ele>441.0</ele><time>2026-04-26T10:25:34Z</time></trkpt><trkpt lat="45.55941931114002" lon="10.847233467829165"><ele>441.0</ele><time>2026-04-26T10:25:35Z</time></trkpt><trkpt lat="45.55938836057207" lon="10.847389594895459"><ele>441.0</ele><time>2026-04-26T10:25:36Z</time></trkpt><trkpt lat="45.5593534218461" lon="10.847534140423711"><ele>441.0</ele><time>2026-04-26T10:25:37Z</time></trkpt><trkpt lat="45.55931067903906" lon="10.84766718214017"><ele>441.0</ele><time>2026-04-26T10:25:38Z</time></trkpt><trkpt lat="45.559236293059044" lon="10.847789847787642"><ele>441.0</ele><time>2026-04-26T10:25:39Z</time></trkpt><trkpt lat="45.55912698201439" lon="10.84787829800709"><ele>442.0</ele><time>2026-04-26T10:25:40Z</time></trkpt><trkpt lat="45.55899615367495" lon="10.847917499590402"><ele>443.0</ele><time>2026-04-26T10:25:41Z</time></trkpt><trkpt lat="45.558858172291316" lon="10.847894990313812"><ele>444.0</ele><time>2026-04-26T10:25:42Z</time></trkpt><trkpt lat="45.55872841522405" lon="10.847791500437767"><ele>445.0</ele><time>2026-04-26T10:25:43Z</time></trkpt><trkpt lat="45.558581160544115" lon="10.847713669544303"><ele>443.33333333333337</ele><time>2026-04-26T10:25:44Z</time></trkpt><trkpt lat="45.558437393598766" lon="10.847609665673593"><ele>441.66666666666663</ele><time>2026-04-26T10:25:45Z</time></trkpt><trkpt lat="45.558284172214535" lon="10.847511455630132"><ele>440.0</ele><time>2026-04-26T10:25:46Z</time></trkpt><trkpt lat="45.55813349916538" lon="10.847414509513428"><ele>440.0</ele><time>2026-04-26T10:25:47Z</time></trkpt><trkpt lat="45.55799478871497" lon="10.847309606130885"><ele>440.0</ele><time>2026-04-26T10:25:48Z</time></trkpt><trkpt lat="45.557903660372205" lon="10.847156919688963"><ele>440.0</ele><time>2026-04-26T10:25:49Z</time></trkpt><trkpt lat="45.55783618755929" lon="10.847003473827625"><ele>440.0</ele><time>2026-04-26T10:25:50Z</time></trkpt><trkpt lat="45.55779186608985" lon="10.846829410075198"><ele>440.5</ele><time>2026-04-26T10:25:51Z</time></trkpt><trkpt lat="45.557742110433104" lon="10.846645229949244"><ele>441.0</ele><time>2026-04-26T10:25:52Z</time></trkpt><trkpt lat="45.55771244377764" lon="10.846437316189922"><ele>441.5</ele><time>2026-04-26T10:25:53Z</time></trkpt><trkpt lat="45.55767558922127" lon="10.846217672486166"><ele>442.0</ele><time>2026-04-26T10:25:54Z</time></trkpt><trkpt lat="45.55762837978275" lon="10.845998075881276"><ele>440.0</ele><time>2026-04-26T10:25:55Z</time></trkpt><trkpt lat="45.557572937639236" lon="10.84579132305508"><ele>438.0</ele><time>2026-04-26T10:25:56Z</time></trkpt><trkpt lat="45.55750123245128" lon="10.84560106647746"><ele>436.0</ele><time>2026-04-26T10:25:57Z</time></trkpt><trkpt lat="45.55739234126796" lon="10.84544756070923"><ele>436.0</ele><time>2026-04-26T10:25:58Z</time></trkpt><trkpt lat="45.55725240107203" lon="10.845314816460519"><ele>436.0</ele><time>2026-04-26T10:25:59Z</time></trkpt><trkpt lat="45.55708988615921" lon="10.845223725663123"><ele>436.0</ele><time>2026-04-26T10:26:00Z</time></trkpt><trkpt lat="45.556908201204976" lon="10.845163134477678"><ele>433.33333333333337</ele><time>2026-04-26T10:26:01Z</time></trkpt><trkpt lat="45.5567247284602" lon="10.845115541145692"><ele>430.66666666666663</ele><time>2026-04-26T10:26:02Z</time></trkpt><trkpt lat="45.556550307621755" lon="10.845079034023994"><ele>428.0</ele><time>2026-04-26T10:26:03Z</time></trkpt><trkpt lat="45.55638478132937" lon="10.845090781925723"><ele>432.0</ele><time>2026-04-26T10:26:04Z</time></trkpt><trkpt lat="45.55621481483493" lon="10.845167395055746"><ele>436.0</ele><time>2026-04-26T10:26:05Z</time></trkpt><trkpt lat="45.55605289178676" lon="10.845257197958134"><ele>440.0</ele><time>2026-04-26T10:26:06Z</time></trkpt><trkpt lat="45.55589581446616" lon="10.845256416574674"><ele>441.0</ele><time>2026-04-26T10:26:07Z</time></trkpt><trkpt lat="45.55574669262854" lon="10.84518734747919"><ele>442.0</ele><time>2026-04-26T10:26:08Z</time></trkpt><trkpt lat="45.55558805299535" lon="10.84507875061824"><ele>443.0</ele><time>2026-04-26T10:26:09Z</time></trkpt><trkpt lat="45.55541203902722" lon="10.844977660925"><ele>439.0</ele><time>2026-04-26T10:26:10Z</time></trkpt><trkpt lat="45.55524326475755" lon="10.844852142609138"><ele>435.0</ele><time>2026-04-26T10:26:11Z</time></trkpt><trkpt lat="45.55507336121056" lon="10.84474899738409"><ele>431.0</ele><time>2026-04-26T10:26:12Z</time></trkpt><trkpt lat="45.55491370375455" lon="10.844652504163172"><ele>431.0</ele><time>2026-04-26T10:26:13Z</time></trkpt><trkpt lat="45.554753680615825" lon="10.844557446430537"><ele>431.0</ele><time>2026-04-26T10:26:14Z</time></trkpt><trkpt lat="45.554579097019314" lon="10.84446812532827"><ele>431.0</ele><time>2026-04-26T10:26:15Z</time></trkpt><trkpt lat="45.554392114134316" lon="10.844409205157673"><ele>433.0</ele><time>2026-04-26T10:26:16Z</time></trkpt><trkpt lat="45.55419787171249" lon="10.844381000615645"><ele>435.0</ele><time>2026-04-26T10:26:17Z</time></trkpt><trkpt lat="45.55399280287948" lon="10.844369242191247"><ele>437.0</ele><time>2026-04-26T10:26:18Z</time></trkpt><trkpt lat="45.553802901250556" lon="10.844356917650789"><ele>438.3333333333333</ele><time>2026-04-26T10:26:19Z</time></trkpt><trkpt lat="45.55362473078807" lon="10.84434390674732"><ele>439.66666666666663</ele><time>2026-04-26T10:26:20Z</time></trkpt><trkpt lat="45.55345556971899" lon="10.844334731145961"><ele>441.0</ele><time>2026-04-26T10:26:21Z</time></trkpt><trkpt lat="45.55329951558205" lon="10.84432043066907"><ele>438.5</ele><time>2026-04-26T10:26:22Z</time></trkpt><trkpt lat="45.55315602912968" lon="10.844250281167477"><ele>436.0</ele><time>2026-04-26T10:26:23Z</time></trkpt><trkpt lat="45.55304764078244" lon="10.844130578832692"><ele>433.5</ele><time>2026-04-26T10:26:24Z</time></trkpt><trkpt lat="45.55296846243321" lon="10.843972609594427"><ele>431.0</ele><time>2026-04-26T10:26:25Z</time></trkpt><trkpt lat="45.55286478856372" lon="10.843809447022428"><ele>431.0</ele><time>2026-04-26T10:26:26Z</time></trkpt><trkpt lat="45.55277199124033" lon="10.843656262168357"><ele>431.0</ele><time>2026-04-26T10:26:27Z</time></trkpt><trkpt lat="45.552638958189526" lon="10.843554038363331"><ele>431.0</ele><time>2026-04-26T10:26:28Z</time></trkpt><trkpt lat="45.55247593713961" lon="10.843489204777685"><ele>431.0</ele><time>2026-04-26T10:26:29Z</time></trkpt><trkpt lat="45.55230035759894" lon="10.843463157318084"><ele>431.0</ele><time>2026-04-26T10:26:30Z</time></trkpt><trkpt lat="45.55211536932661" lon="10.843482831880559"><ele>431.0</ele><time>2026-04-26T10:26:31Z</time></trkpt><trkpt lat="45.55193138473101" lon="10.843543792182167"><ele>430.0</ele><time>2026-04-26T10:26:32Z</time></trkpt><trkpt lat="45.55175699212283" lon="10.843635732987154"><ele>429.0</ele><time>2026-04-26T10:26:33Z</time></trkpt><trkpt lat="45.55159250063374" lon="10.843735571272598"><ele>428.0</ele><time>2026-04-26T10:26:34Z</time></trkpt><trkpt lat="45.55144219148645" lon="10.843811573471896"><ele>428.0</ele><time>2026-04-26T10:26:35Z</time></trkpt><trkpt lat="45.551292796949646" lon="10.843832604452864"><ele>428.0</ele><time>2026-04-26T10:26:36Z</time></trkpt><trkpt lat="45.55116806479322" lon="10.843776482464287"><ele>428.0</ele><time>2026-04-26T10:26:37Z</time></trkpt><trkpt lat="45.5510961287724" lon="10.84364263162154"><ele>428.0</ele><time>2026-04-26T10:26:38Z</time></trkpt><trkpt lat="45.55105481585022" lon="10.843497575200821"><ele>425.5</ele><time>2026-04-26T10:26:39Z</time></trkpt><trkpt lat="45.55108817197315" lon="10.843344051602003"><ele>423.0</ele><time>2026-04-26T10:26:40Z</time></trkpt><trkpt lat="45.55111052096336" lon="10.843156321224106"><ele>420.5</ele><time>2026-04-26T10:26:41Z</time></trkpt><trkpt lat="45.55112724446545" lon="10.842964713683752"><ele>418.0</ele><time>2026-04-26T10:26:42Z</time></trkpt><trkpt lat="45.55113313795357" lon="10.842779763046012"><ele>416.0</ele><time>2026-04-26T10:26:43Z</time></trkpt><trkpt lat="45.55110470600235" lon="10.842608134602841"><ele>414.0</ele><time>2026-04-26T10:26:44Z</time></trkpt><trkpt lat="45.55105395121291" lon="10.842435272723533"><ele>412.0</ele><time>2026-04-26T10:26:45Z</time></trkpt><trkpt lat="45.55097801832259" lon="10.842271839721898"><ele>410.0</ele><time>2026-04-26T10:26:46Z</time></trkpt><trkpt lat="45.55087180410963" lon="10.842156332292364"><ele>410.0</ele><time>2026-04-26T10:26:47Z</time></trkpt><trkpt lat="45.550736479403916" lon="10.842098315659074"><ele>410.0</ele><time>2026-04-26T10:26:48Z</time></trkpt><trkpt lat="45.55058490423562" lon="10.84208671855117"><ele>410.0</ele><time>2026-04-26T10:26:49Z</time></trkpt><trkpt lat="45.550418831875476" lon="10.842078911925736"><ele>411.0</ele><time>2026-04-26T10:26:50Z</time></trkpt><trkpt lat="45.55023585677216" lon="10.84205137646773"><ele>412.0</ele><time>2026-04-26T10:26:51Z</time></trkpt><trkpt lat="45.55004237063368" lon="10.842020321037172"><ele>413.0</ele><time>2026-04-26T10:26:52Z</time></trkpt><trkpt lat="45.549843426031856" lon="10.841991573784224"><ele>413.0</ele><time>2026-04-26T10:26:53Z</time></trkpt><trkpt lat="45.54964272190579" lon="10.84197112162439"><ele>413.0</ele><time>2026-04-26T10:26:54Z</time></trkpt><trkpt lat="45.549451973407436" lon="10.841959365321378"><ele>413.0</ele><time>2026-04-26T10:26:55Z</time></trkpt><trkpt lat="45.549276994492985" lon="10.841952555710183"><ele>412.66666666666663</ele><time>2026-04-26T10:26:56Z</time></trkpt><trkpt lat="45.549114280028626" lon="10.841964112026966"><ele>412.33333333333337</ele><time>2026-04-26T10:26:57Z</time></trkpt><trkpt lat="45.548963856462315" lon="10.842005585421285"><ele>412.0</ele><time>2026-04-26T10:26:58Z</time></trkpt><trkpt lat="45.5488176295595" lon="10.842065302401005"><ele>412.75</ele><time>2026-04-26T10:26:59Z</time></trkpt><trkpt lat="45.548673698810326" lon="10.842104869718609"><ele>413.5</ele><time>2026-04-26T10:27:00Z</time></trkpt><trkpt lat="45.54854981862181" lon="10.842044630324231"><ele>414.25</ele><time>2026-04-26T10:27:01Z</time></trkpt><trkpt lat="45.5484468548786" lon="10.841972658836873"><ele>415.0</ele><time>2026-04-26T10:27:02Z</time></trkpt><trkpt lat="45.548422786117385" lon="10.841778282258863"><ele>412.5</ele><time>2026-04-26T10:27:03Z</time></trkpt><trkpt lat="45.54834976034966" lon="10.841609383384943"><ele>410.0</ele><time>2026-04-26T10:27:04Z</time></trkpt><trkpt lat="45.54824900979607" lon="10.841471534971031"><ele>407.5</ele><time>2026-04-26T10:27:05Z</time></trkpt><trkpt lat="45.54812976332482" lon="10.841379197640434"><ele>405.0</ele><time>2026-04-26T10:27:06Z</time></trkpt><trkpt lat="45.54800275849899" lon="10.841314025047891"><ele>405.5</ele><time>2026-04-26T10:27:07Z</time></trkpt><trkpt lat="45.54787158292797" lon="10.841244255275235"><ele>406.0</ele><time>2026-04-26T10:27:08Z</time></trkpt><trkpt lat="45.547729779590924" lon="10.841181496901946"><ele>406.5</ele><time>2026-04-26T10:27:09Z</time></trkpt><trkpt lat="45.54757677589297" lon="10.841129931623716"><ele>407.0</ele><time>2026-04-26T10:27:10Z</time></trkpt><trkpt lat="45.5474218239893" lon="10.841091159263547"><ele>407.0</ele><time>2026-04-26T10:27:11Z</time></trkpt><trkpt lat="45.54726753397395" lon="10.841075948228786"><ele>407.0</ele><time>2026-04-26T10:27:12Z</time></trkpt><trkpt lat="45.547105801868675" lon="10.841107040973995"><ele>407.0</ele><time>2026-04-26T10:27:13Z</time></trkpt><trkpt lat="45.546939573170214" lon="10.841169659397304"><ele>406.3333333333333</ele><time>2026-04-26T10:27:14Z</time></trkpt><trkpt lat="45.54677476938495" lon="10.841237271978175"><ele>405.66666666666663</ele><time>2026-04-26T10:27:15Z</time></trkpt><trkpt lat="45.54661868365521" lon="10.841283069682078"><ele>405.0</ele><time>2026-04-26T10:27:16Z</time></trkpt><trkpt lat="45.54646665941439" lon="10.841299934962494"><ele>405.0</ele><time>2026-04-26T10:27:17Z</time></trkpt><trkpt lat="45.546319272234264" lon="10.84125057935186"><ele>405.0</ele><time>2026-04-26T10:27:18Z</time></trkpt><trkpt lat="45.546174212014776" lon="10.84116854586559"><ele>405.0</ele><time>2026-04-26T10:27:19Z</time></trkpt><trkpt lat="45.546044525001186" lon="10.841032656120912"><ele>400.33333333333337</ele><time>2026-04-26T10:27:20Z</time></trkpt><trkpt lat="45.54592047241249" lon="10.840865561239685"><ele>395.6666666666667</ele><time>2026-04-26T10:27:21Z</time></trkpt><trkpt lat="45.54578799788493" lon="10.84071247474547"><ele>391.0</ele><time>2026-04-26T10:27:22Z</time></trkpt><trkpt lat="45.54566624474639" lon="10.840546807142399"><ele>391.0</ele><time>2026-04-26T10:27:23Z</time></trkpt><trkpt lat="45.54554248829409" lon="10.840387478821812"><ele>391.0</ele><time>2026-04-26T10:27:24Z</time></trkpt><trkpt lat="45.54541558105594" lon="10.840227987251216"><ele>391.0</ele><time>2026-04-26T10:27:25Z</time></trkpt><trkpt lat="45.545270845633574" lon="10.840086774503598"><ele>389.6666666666667</ele><time>2026-04-26T10:27:26Z</time></trkpt><trkpt lat="45.54510892600178" lon="10.839967882604762"><ele>388.33333333333337</ele><time>2026-04-26T10:27:27Z</time></trkpt><trkpt lat="45.54493341172066" lon="10.839860550893066"><ele>387.0</ele><time>2026-04-26T10:27:28Z</time></trkpt><trkpt lat="45.54475529383364" lon="10.839743719576065"><ele>387.0</ele><time>2026-04-26T10:27:29Z</time></trkpt><trkpt lat="45.54458776564601" lon="10.83962318080328"><ele>387.0</ele><time>2026-04-26T10:27:30Z</time></trkpt><trkpt lat="45.5444269560815" lon="10.839528160165717"><ele>387.0</ele><time>2026-04-26T10:27:31Z</time></trkpt><trkpt lat="45.54426859987106" lon="10.839472636853014"><ele>387.66666666666663</ele><time>2026-04-26T10:27:32Z</time></trkpt><trkpt lat="45.544102200264646" lon="10.839450590176778"><ele>388.3333333333333</ele><time>2026-04-26T10:27:33Z</time></trkpt><trkpt lat="45.54393183516969" lon="10.839455961929335"><ele>389.0</ele><time>2026-04-26T10:27:34Z</time></trkpt><trkpt lat="45.54376175106222" lon="10.839499881020792"><ele>388.0</ele><time>2026-04-26T10:27:35Z</time></trkpt><trkpt lat="45.5435970023932" lon="10.839583115462114"><ele>387.0</ele><time>2026-04-26T10:27:36Z</time></trkpt><trkpt lat="45.543436908175515" lon="10.839678662073238"><ele>386.0</ele><time>2026-04-26T10:27:37Z</time></trkpt><trkpt lat="45.54328416856432" lon="10.839724765657751"><ele>386.0</ele><time>2026-04-26T10:27:38Z</time></trkpt><trkpt lat="45.543152743001876" lon="10.839770953252845"><ele>386.0</ele><time>2026-04-26T10:27:39Z</time></trkpt><trkpt lat="45.5430422949007" lon="10.839741700850112"><ele>386.0</ele><time>2026-04-26T10:27:40Z</time></trkpt><trkpt lat="45.5429648092124" lon="10.839662336327843"><ele>386.0</ele><time>2026-04-26T10:27:41Z</time></trkpt><trkpt lat="45.542908385664745" lon="10.839526846670672"><ele>386.0</ele><time>2026-04-26T10:27:42Z</time></trkpt><trkpt lat="45.542886492392704" lon="10.839324732904792"><ele>386.0</ele><time>2026-04-26T10:27:43Z</time></trkpt><trkpt lat="45.54283278712093" lon="10.83911673557398"><ele>386.0</ele><time>2026-04-26T10:27:44Z</time></trkpt><trkpt lat="45.54279280664954" lon="10.83890557699755"><ele>385.6</ele><time>2026-04-26T10:27:45Z</time></trkpt><trkpt lat="45.542769075093105" lon="10.838712596856224"><ele>385.20000000000005</ele><time>2026-04-26T10:27:46Z</time></trkpt><trkpt lat="45.542784818619516" lon="10.838552389061762"><ele>384.79999999999995</ele><time>2026-04-26T10:27:47Z</time></trkpt><trkpt lat="45.542843129162584" lon="10.838449196023129"><ele>384.4</ele><time>2026-04-26T10:27:48Z</time></trkpt><trkpt lat="45.54293328792705" lon="10.838384528429488"><ele>384.0</ele><time>2026-04-26T10:27:49Z</time></trkpt><trkpt lat="45.54304831435073" lon="10.838311520231702"><ele>378.6666666666667</ele><time>2026-04-26T10:27:50Z</time></trkpt><trkpt lat="45.54317302278543" lon="10.838194791756369"><ele>373.33333333333337</ele><time>2026-04-26T10:27:51Z</time></trkpt><trkpt lat="45.54327470471852" lon="10.838022007464893"><ele>368.0</ele><time>2026-04-26T10:27:52Z</time></trkpt><trkpt lat="45.54334874260024" lon="10.837794948132595"><ele>367.33333333333337</ele><time>2026-04-26T10:27:53Z</time></trkpt><trkpt lat="45.54344897406935" lon="10.837587817024403"><ele>366.6666666666667</ele><time>2026-04-26T10:27:54Z</time></trkpt><trkpt lat="45.54355576947601" lon="10.837428127539317"><ele>366.0</ele><time>2026-04-26T10:27:55Z</time></trkpt><trkpt lat="45.54370038049613" lon="10.83731948169118"><ele>362.6666666666667</ele><time>2026-04-26T10:27:56Z</time></trkpt><trkpt lat="45.543868430227995" lon="10.837228857008759"><ele>359.33333333333337</ele><time>2026-04-26T10:27:57Z</time></trkpt><trkpt lat="45.54405614763756" lon="10.837129213908188"><ele>356.0</ele><time>2026-04-26T10:27:58Z</time></trkpt><trkpt lat="45.54427010422202" lon="10.837042262676018"><ele>356.0</ele><time>2026-04-26T10:27:59Z</time></trkpt><trkpt lat="45.544488843102904" lon="10.836952939529517"><ele>356.0</ele><time>2026-04-26T10:28:00Z</time></trkpt><trkpt lat="45.544694225739384" lon="10.836877306210035"><ele>356.0</ele><time>2026-04-26T10:28:01Z</time></trkpt><trkpt lat="45.54488815328498" lon="10.836808264161387"><ele>354.6666666666667</ele><time>2026-04-26T10:28:02Z</time></trkpt><trkpt lat="45.54506059589531" lon="10.836739638672189"><ele>353.3333333333333</ele><time>2026-04-26T10:28:03Z</time></trkpt><trkpt lat="45.54521576118851" lon="10.836657544593999"><ele>352.0</ele><time>2026-04-26T10:28:04Z</time></trkpt><trkpt lat="45.545348592045904" lon="10.836542481876329"><ele>349.3333333333333</ele><time>2026-04-26T10:28:05Z</time></trkpt><trkpt lat="45.54545845393796" lon="10.836383303863139"><ele>346.6666666666667</ele><time>2026-04-26T10:28:06Z</time></trkpt><trkpt lat="45.54553159056676" lon="10.83618770677478"><ele>344.0</ele><time>2026-04-26T10:28:07Z</time></trkpt><trkpt lat="45.54555125318017" lon="10.835975387316939"><ele>344.6666666666667</ele><time>2026-04-26T10:28:08Z</time></trkpt><trkpt lat="45.545514856212144" lon="10.835773356048925"><ele>345.3333333333333</ele><time>2026-04-26T10:28:09Z</time></trkpt><trkpt lat="45.5454295199335" lon="10.835574724163619"><ele>346.0</ele><time>2026-04-26T10:28:10Z</time></trkpt><trkpt lat="45.545308007698196" lon="10.835367074176602"><ele>346.0</ele><time>2026-04-26T10:28:11Z</time></trkpt><trkpt lat="45.54517562202782" lon="10.83516640001744"><ele>346.0</ele><time>2026-04-26T10:28:12Z</time></trkpt><trkpt lat="45.54504038766199" lon="10.83499230500074"><ele>346.0</ele><time>2026-04-26T10:28:13Z</time></trkpt><trkpt lat="45.54471436837134" lon="10.834794559400713"><ele>342.66666666666663</ele><time>2026-04-26T10:28:15Z</time></trkpt><trkpt lat="45.54452536193467" lon="10.834755075657716"><ele>339.3333333333333</ele><time>2026-04-26T10:28:16Z</time></trkpt><trkpt lat="45.54432019473199" lon="10.834731819060266"><ele>336.0</ele><time>2026-04-26T10:28:17Z</time></trkpt><trkpt lat="45.544112152052456" lon="10.834720194498324"><ele>336.0</ele><time>2026-04-26T10:28:18Z</time></trkpt><trkpt lat="45.543891820527186" lon="10.834721086245164"><ele>336.0</ele><time>2026-04-26T10:28:19Z</time></trkpt><trkpt lat="45.543662614153426" lon="10.834719569209708"><ele>334.0</ele><time>2026-04-26T10:28:20Z</time></trkpt><trkpt lat="45.54342786672681" lon="10.83470600396851"><ele>332.0</ele><time>2026-04-26T10:28:21Z</time></trkpt><trkpt lat="45.543190728920536" lon="10.834678053122657"><ele>332.0</ele><time>2026-04-26T10:28:22Z</time></trkpt><trkpt lat="45.54295701606718" lon="10.834640542139779"><ele>332.0</ele><time>2026-04-26T10:28:23Z</time></trkpt><trkpt lat="45.54273538528058" lon="10.834598217239417"><ele>332.33333333333337</ele><time>2026-04-26T10:28:24Z</time></trkpt><trkpt lat="45.54252633768139" lon="10.83454187098928"><ele>332.6666666666667</ele><time>2026-04-26T10:28:25Z</time></trkpt><trkpt lat="45.542342572558816" lon="10.83442653145906"><ele>333.0</ele><time>2026-04-26T10:28:26Z</time></trkpt><trkpt lat="45.5421712235712" lon="10.834289779399112"><ele>330.0</ele><time>2026-04-26T10:28:27Z</time></trkpt><trkpt lat="45.542009233555326" lon="10.834146136175777"><ele>327.0</ele><time>2026-04-26T10:28:28Z</time></trkpt><trkpt lat="45.54187642641395" lon="10.834000895962816"><ele>324.0</ele><time>2026-04-26T10:28:29Z</time></trkpt><trkpt lat="45.54172536642323" lon="10.833927055307276"><ele>324.0</ele><time>2026-04-26T10:28:30Z</time></trkpt><trkpt lat="45.541550993302835" lon="10.833913054200037"><ele>324.0</ele><time>2026-04-26T10:28:31Z</time></trkpt><trkpt lat="45.54136273797888" lon="10.833924493206645"><ele>324.0</ele><time>2026-04-26T10:28:32Z</time></trkpt><trkpt lat="45.541163743904754" lon="10.83391865314982"><ele>323.3333333333333</ele><time>2026-04-26T10:28:33Z</time></trkpt><trkpt lat="45.54095012676921" lon="10.833882423275876"><ele>322.66666666666663</ele><time>2026-04-26T10:28:34Z</time></trkpt><trkpt lat="45.54073171367424" lon="10.833848667959684"><ele>322.0</ele><time>2026-04-26T10:28:35Z</time></trkpt><trkpt lat="45.540520955625844" lon="10.833833208369876"><ele>320.3333333333333</ele><time>2026-04-26T10:28:36Z</time></trkpt><trkpt lat="45.540325882588675" lon="10.833828633982659"><ele>318.6666666666667</ele><time>2026-04-26T10:28:37Z</time></trkpt><trkpt lat="45.54014220407122" lon="10.833818612740103"><ele>317.0</ele><time>2026-04-26T10:28:38Z</time></trkpt><trkpt lat="45.53996736841247" lon="10.83378777815709"><ele>317.0</ele><time>2026-04-26T10:28:39Z</time></trkpt><trkpt lat="45.5398033124249" lon="10.833721241263348"><ele>317.0</ele><time>2026-04-26T10:28:40Z</time></trkpt><trkpt lat="45.53966046146353" lon="10.833621260510277"><ele>317.0</ele><time>2026-04-26T10:28:41Z</time></trkpt><trkpt lat="45.53959154493133" lon="10.833473832391267"><ele>316.25</ele><time>2026-04-26T10:28:42Z</time></trkpt><trkpt lat="45.53955521079969" lon="10.833337651115238"><ele>315.5</ele><time>2026-04-26T10:28:43Z</time></trkpt><trkpt lat="45.53951609152055" lon="10.833158143863216"><ele>314.75</ele><time>2026-04-26T10:28:44Z</time></trkpt><trkpt lat="45.53945377274365" lon="10.832982583041789"><ele>314.0</ele><time>2026-04-26T10:28:45Z</time></trkpt><trkpt lat="45.53936379480136" lon="10.83282156293735"><ele>314.0</ele><time>2026-04-26T10:28:46Z</time></trkpt><trkpt lat="45.53923019210245" lon="10.832686755245334"><ele>314.0</ele><time>2026-04-26T10:28:47Z</time></trkpt><trkpt lat="45.539072306362414" lon="10.832550775338378"><ele>314.0</ele><time>2026-04-26T10:28:48Z</time></trkpt><trkpt lat="45.538914835044345" lon="10.832410604019943"><ele>308.0</ele><time>2026-04-26T10:28:49Z</time></trkpt><trkpt lat="45.538764975099426" lon="10.832310502094167"><ele>302.0</ele><time>2026-04-26T10:28:50Z</time></trkpt><trkpt lat="45.53860824415289" lon="10.832275270293168"><ele>296.0</ele><time>2026-04-26T10:28:51Z</time></trkpt><trkpt lat="45.53843547802937" lon="10.832286039908857"><ele>295.6666666666667</ele><time>2026-04-26T10:28:52Z</time></trkpt><trkpt lat="45.53826241565301" lon="10.83235581159279"><ele>295.3333333333333</ele><time>2026-04-26T10:28:53Z</time></trkpt><trkpt lat="45.53809825143049" lon="10.832478268188046"><ele>295.0</ele><time>2026-04-26T10:28:54Z</time></trkpt><trkpt lat="45.53792895067364" lon="10.83263119698698"><ele>297.0</ele><time>2026-04-26T10:28:55Z</time></trkpt><trkpt lat="45.53775390927969" lon="10.832766778307464"><ele>299.0</ele><time>2026-04-26T10:28:56Z</time></trkpt><trkpt lat="45.53758393661974" lon="10.832813148929615"><ele>301.0</ele><time>2026-04-26T10:28:57Z</time></trkpt><trkpt lat="45.537446019478274" lon="10.83287932808769"><ele>301.0</ele><time>2026-04-26T10:28:58Z</time></trkpt><trkpt lat="45.53732128938248" lon="10.83289802005742"><ele>301.0</ele><time>2026-04-26T10:28:59Z</time></trkpt><trkpt lat="45.537198613077244" lon="10.832870519815353"><ele>301.0</ele><time>2026-04-26T10:29:00Z</time></trkpt><trkpt lat="45.537068463652766" lon="10.832778416302672"><ele>301.0</ele><time>2026-04-26T10:29:01Z</time></trkpt><trkpt lat="45.53691295174576" lon="10.832704321517168"><ele>295.3333333333333</ele><time>2026-04-26T10:29:02Z</time></trkpt><trkpt lat="45.5367602909131" lon="10.832606247452832"><ele>289.6666666666667</ele><time>2026-04-26T10:29:03Z</time></trkpt><trkpt lat="45.536625119599975" lon="10.83250374838383"><ele>284.0</ele><time>2026-04-26T10:29:04Z</time></trkpt><trkpt lat="45.53650426899867" lon="10.832394432073366"><ele>284.0</ele><time>2026-04-26T10:29:05Z</time></trkpt><trkpt lat="45.536385024488084" lon="10.832295815889891"><ele>284.0</ele><time>2026-04-26T10:29:06Z</time></trkpt><trkpt lat="45.53625288481467" lon="10.832246583816941"><ele>284.0</ele><time>2026-04-26T10:29:07Z</time></trkpt><trkpt lat="45.53611939938273" lon="10.8322690732767"><ele>284.0</ele><time>2026-04-26T10:29:08Z</time></trkpt><trkpt lat="45.53599274572636" lon="10.83235845833047"><ele>285.33333333333337</ele><time>2026-04-26T10:29:09Z</time></trkpt><trkpt lat="45.535874433740474" lon="10.83250286152266"><ele>286.6666666666667</ele><time>2026-04-26T10:29:10Z</time></trkpt><trkpt lat="45.53576722173948" lon="10.832682473363144"><ele>288.0</ele><time>2026-04-26T10:29:11Z</time></trkpt><trkpt lat="45.53565774800951" lon="10.832861811286872"><ele>288.0</ele><time>2026-04-26T10:29:12Z</time></trkpt><trkpt lat="45.535545611324736" lon="10.833000902626733"><ele>288.0</ele><time>2026-04-26T10:29:13Z</time></trkpt><trkpt lat="45.53541620147276" lon="10.833091100287106"><ele>288.0</ele><time>2026-04-26T10:29:14Z</time></trkpt><trkpt lat="45.53526172864993" lon="10.83314241111792"><ele>283.6666666666667</ele><time>2026-04-26T10:29:15Z</time></trkpt><trkpt lat="45.5350921142429" lon="10.833173706316664"><ele>279.33333333333337</ele><time>2026-04-26T10:29:16Z</time></trkpt><trkpt lat="45.534926386598094" lon="10.833229111689223"><ele>275.0</ele><time>2026-04-26T10:29:17Z</time></trkpt><trkpt lat="45.534777419766456" lon="10.833311969586243"><ele>275.0</ele><time>2026-04-26T10:29:18Z</time></trkpt><trkpt lat="45.53463226089851" lon="10.833384408460379"><ele>275.0</ele><time>2026-04-26T10:29:19Z</time></trkpt><trkpt lat="45.53448146955829" lon="10.83343339559938"><ele>275.0</ele><time>2026-04-26T10:29:20Z</time></trkpt><trkpt lat="45.53432177981342" lon="10.833419002771539"><ele>272.33333333333337</ele><time>2026-04-26T10:29:21Z</time></trkpt><trkpt lat="45.53416502824974" lon="10.833395659886287"><ele>269.6666666666667</ele><time>2026-04-26T10:29:22Z</time></trkpt><trkpt lat="45.53401324191521" lon="10.833352985904655"><ele>267.0</ele><time>2026-04-26T10:29:23Z</time></trkpt><trkpt lat="45.53385304333532" lon="10.833377118342261"><ele>269.6666666666667</ele><time>2026-04-26T10:29:24Z</time></trkpt><trkpt lat="45.53367854565422" lon="10.833466577709537"><ele>272.33333333333337</ele><time>2026-04-26T10:29:25Z</time></trkpt><trkpt lat="45.53349562846608" lon="10.833572513566425"><ele>275.0</ele><time>2026-04-26T10:29:26Z</time></trkpt><trkpt lat="45.53330451677958" lon="10.833667734754291"><ele>275.0</ele><time>2026-04-26T10:29:27Z</time></trkpt><trkpt lat="45.5331114913809" lon="10.833767731904954"><ele>275.0</ele><time>2026-04-26T10:29:28Z</time></trkpt><trkpt lat="45.53292377835076" lon="10.833880751297256"><ele>275.0</ele><time>2026-04-26T10:29:29Z</time></trkpt><trkpt lat="45.53274779477919" lon="10.833985598199135"><ele>270.33333333333337</ele><time>2026-04-26T10:29:30Z</time></trkpt><trkpt lat="45.53258783061391" lon="10.834073169422728"><ele>265.6666666666667</ele><time>2026-04-26T10:29:31Z</time></trkpt><trkpt lat="45.53244023843847" lon="10.834156636178896"><ele>261.0</ele><time>2026-04-26T10:29:32Z</time></trkpt><trkpt lat="45.5322947142446" lon="10.834236246804657"><ele>259.0</ele><time>2026-04-26T10:29:33Z</time></trkpt><trkpt lat="45.53215129122029" lon="10.83430663762037"><ele>257.0</ele><time>2026-04-26T10:29:34Z</time></trkpt><trkpt lat="45.53200351094861" lon="10.83433166299465"><ele>255.0</ele><time>2026-04-26T10:29:35Z</time></trkpt><trkpt lat="45.53186845130003" lon="10.834388407449428"><ele>253.0</ele><time>2026-04-26T10:29:36Z</time></trkpt><trkpt lat="45.53173583222136" lon="10.834430558820229"><ele>253.0</ele><time>2026-04-26T10:29:37Z</time></trkpt><trkpt lat="45.53159981126164" lon="10.83449518093718"><ele>253.0</ele><time>2026-04-26T10:29:38Z</time></trkpt><trkpt lat="45.53148027565736" lon="10.834599214656707"><ele>253.0</ele><time>2026-04-26T10:29:39Z</time></trkpt><trkpt lat="45.53137829479067" lon="10.834761677403002"><ele>253.0</ele><time>2026-04-26T10:29:40Z</time></trkpt><trkpt lat="45.5312949486746" lon="10.834976684184188"><ele>253.33333333333331</ele><time>2026-04-26T10:29:41Z</time></trkpt><trkpt lat="45.531229647879016" lon="10.835212999674988"><ele>253.66666666666669</ele><time>2026-04-26T10:29:42Z</time></trkpt><trkpt lat="45.53116852207427" lon="10.835457069045539"><ele>254.0</ele><time>2026-04-26T10:29:43Z</time></trkpt><trkpt lat="45.53111255159625" lon="10.83570262373934"><ele>249.0</ele><time>2026-04-26T10:29:44Z</time></trkpt><trkpt lat="45.53106263385654" lon="10.835958048380085"><ele>244.0</ele><time>2026-04-26T10:29:45Z</time></trkpt><trkpt lat="45.53101357487163" lon="10.836199841772656"><ele>239.0</ele><time>2026-04-26T10:29:46Z</time></trkpt><trkpt lat="45.53096890210758" lon="10.836427517068003"><ele>239.0</ele><time>2026-04-26T10:29:47Z</time></trkpt><trkpt lat="45.530928069720744" lon="10.836631308800003"><ele>239.0</ele><time>2026-04-26T10:29:48Z</time></trkpt><trkpt lat="45.530897416596645" lon="10.836833075664247"><ele>239.0</ele><time>2026-04-26T10:29:49Z</time></trkpt><trkpt lat="45.53088288002351" lon="10.837031943456529"><ele>239.0</ele><time>2026-04-26T10:29:50Z</time></trkpt><trkpt lat="45.53086149517184" lon="10.837221903475017"><ele>237.0</ele><time>2026-04-26T10:29:51Z</time></trkpt><trkpt lat="45.53081614990684" lon="10.837416622125792"><ele>235.0</ele><time>2026-04-26T10:29:52Z</time></trkpt><trkpt lat="45.53073926495291" lon="10.837613343269327"><ele>233.0</ele><time>2026-04-26T10:29:53Z</time></trkpt><trkpt lat="45.53065346189441" lon="10.837806158934026"><ele>230.66666666666669</ele><time>2026-04-26T10:29:54Z</time></trkpt><trkpt lat="45.53055411641724" lon="10.837987730599506"><ele>228.33333333333331</ele><time>2026-04-26T10:29:55Z</time></trkpt><trkpt lat="45.53042713474864" lon="10.83814383611738"><ele>226.0</ele><time>2026-04-26T10:29:56Z</time></trkpt><trkpt lat="45.53028461260361" lon="10.838294441667465"><ele>226.0</ele><time>2026-04-26T10:29:57Z</time></trkpt><trkpt lat="45.53016055312439" lon="10.838459870096495"><ele>226.0</ele><time>2026-04-26T10:29:58Z</time></trkpt><trkpt lat="45.53005978946937" lon="10.838639891946531"><ele>226.0</ele><time>2026-04-26T10:29:59Z</time></trkpt><trkpt lat="45.529951199133514" lon="10.838802418452968"><ele>218.33333333333331</ele><time>2026-04-26T10:30:00Z</time></trkpt><trkpt lat="45.52982455370662" lon="10.838923301064076"><ele>210.66666666666669</ele><time>2026-04-26T10:30:01Z</time></trkpt><trkpt lat="45.529679258545926" lon="10.839008719785701"><ele>203.0</ele><time>2026-04-26T10:30:02Z</time></trkpt><trkpt lat="45.529523714728946" lon="10.839016499589704"><ele>201.33333333333334</ele><time>2026-04-26T10:30:03Z</time></trkpt><trkpt lat="45.52936859591158" lon="10.839017116783824"><ele>199.66666666666669</ele><time>2026-04-26T10:30:04Z</time></trkpt><trkpt lat="45.52922398032352" lon="10.8389465895849"><ele>198.0</ele><time>2026-04-26T10:30:05Z</time></trkpt><trkpt lat="45.529080734057494" lon="10.838840577111053"><ele>198.0</ele><time>2026-04-26T10:30:06Z</time></trkpt><trkpt lat="45.52893853259224" lon="10.838702964687108"><ele>198.0</ele><time>2026-04-26T10:30:07Z</time></trkpt><trkpt lat="45.52880115108981" lon="10.838549189315007"><ele>198.0</ele><time>2026-04-26T10:30:08Z</time></trkpt><trkpt lat="45.52865870733743" lon="10.838385022817157"><ele>196.66666666666669</ele><time>2026-04-26T10:30:09Z</time></trkpt><trkpt lat="45.5285161992136" lon="10.838248963494252"><ele>195.33333333333334</ele><time>2026-04-26T10:30:10Z</time></trkpt><trkpt lat="45.528373850346085" lon="10.838147454018229"><ele>194.0</ele><time>2026-04-26T10:30:11Z</time></trkpt><trkpt lat="45.52825087049398" lon="10.838030888726564"><ele>194.0</ele><time>2026-04-26T10:30:12Z</time></trkpt><trkpt lat="45.52813779747" lon="10.837870078980918"><ele>194.0</ele><time>2026-04-26T10:30:13Z</time></trkpt><trkpt lat="45.52802280251411" lon="10.83769013977518"><ele>194.0</ele><time>2026-04-26T10:30:14Z</time></trkpt><trkpt lat="45.527896896041746" lon="10.837541165519552"><ele>191.25</ele><time>2026-04-26T10:30:15Z</time></trkpt><trkpt lat="45.52778291255888" lon="10.8373930054594"><ele>188.5</ele><time>2026-04-26T10:30:16Z</time></trkpt><trkpt lat="45.527672027443735" lon="10.83725900324056"><ele>185.75</ele><time>2026-04-26T10:30:17Z</time></trkpt><trkpt lat="45.52757365083404" lon="10.837152570306541"><ele>183.0</ele><time>2026-04-26T10:30:18Z</time></trkpt><trkpt lat="45.527464619794635" lon="10.837102974650492"><ele>183.0</ele><time>2026-04-26T10:30:19Z</time></trkpt><trkpt lat="45.52734961866918" lon="10.837115749971764"><ele>183.0</ele><time>2026-04-26T10:30:20Z</time></trkpt><trkpt lat="45.527232746842024" lon="10.837179989785069"><ele>183.0</ele><time>2026-04-26T10:30:21Z</time></trkpt><trkpt lat="45.52713281765654" lon="10.83729758010168"><ele>183.0</ele><time>2026-04-26T10:30:22Z</time></trkpt><trkpt lat="45.52706244890511" lon="10.837457592090612"><ele>181.25</ele><time>2026-04-26T10:30:23Z</time></trkpt><trkpt lat="45.52700875415582" lon="10.837610368094225"><ele>179.5</ele><time>2026-04-26T10:30:24Z</time></trkpt><trkpt lat="45.52692952195282" lon="10.837707807453988"><ele>177.75</ele><time>2026-04-26T10:30:25Z</time></trkpt><trkpt lat="45.526820448324585" lon="10.83773547093782"><ele>176.0</ele><time>2026-04-26T10:30:26Z</time></trkpt><trkpt lat="45.5267099495874" lon="10.837799517804804"><ele>176.0</ele><time>2026-04-26T10:30:27Z</time></trkpt><trkpt lat="45.52657926990189" lon="10.837851719169459"><ele>176.0</ele><time>2026-04-26T10:30:28Z</time></trkpt><trkpt lat="45.52643600214475" lon="10.837914747465048"><ele>176.0</ele><time>2026-04-26T10:30:29Z</time></trkpt><trkpt lat="45.52627695915907" lon="10.837983148438608"><ele>173.66666666666666</ele><time>2026-04-26T10:30:30Z</time></trkpt><trkpt lat="45.526106967762466" lon="10.838054099863596"><ele>171.33333333333334</ele><time>2026-04-26T10:30:31Z</time></trkpt><trkpt lat="45.52593225772078" lon="10.838126066993294"><ele>169.0</ele><time>2026-04-26T10:30:32Z</time></trkpt><trkpt lat="45.52575970452487" lon="10.838193757281248"><ele>169.0</ele><time>2026-04-26T10:30:33Z</time></trkpt><trkpt lat="45.52559447167557" lon="10.838257056392369"><ele>169.0</ele><time>2026-04-26T10:30:34Z</time></trkpt><trkpt lat="45.52544501708047" lon="10.838315622403266"><ele>169.0</ele><time>2026-04-26T10:30:35Z</time></trkpt><trkpt lat="45.52530224525534" lon="10.838373466977078"><ele>168.0</ele><time>2026-04-26T10:30:36Z</time></trkpt><trkpt lat="45.525171072517665" lon="10.838421340701148"><ele>167.0</ele><time>2026-04-26T10:30:37Z</time></trkpt><trkpt lat="45.52504520690839" lon="10.838457471374896"><ele>166.0</ele><time>2026-04-26T10:30:38Z</time></trkpt><trkpt lat="45.524923909631575" lon="10.838477556686012"><ele>165.0</ele><time>2026-04-26T10:30:39Z</time></trkpt><trkpt lat="45.52479779115097" lon="10.838488171679424"><ele>165.0</ele><time>2026-04-26T10:30:40Z</time></trkpt><trkpt lat="45.52466052757503" lon="10.838501869836694"><ele>165.0</ele><time>2026-04-26T10:30:41Z</time></trkpt><trkpt lat="45.52452486282538" lon="10.838518342768602"><ele>165.0</ele><time>2026-04-26T10:30:42Z</time></trkpt><trkpt lat="45.524382639044795" lon="10.838527758331963"><ele>165.0</ele><time>2026-04-26T10:30:43Z</time></trkpt><trkpt lat="45.524231794351316" lon="10.838529283005029"><ele>164.25</ele><time>2026-04-26T10:30:44Z</time></trkpt><trkpt lat="45.52408128671431" lon="10.838517666856438"><ele>163.5</ele><time>2026-04-26T10:30:45Z</time></trkpt><trkpt lat="45.52393443203451" lon="10.838493038624716"><ele>162.75</ele><time>2026-04-26T10:30:46Z</time></trkpt><trkpt lat="45.52378950624999" lon="10.838458822290562"><ele>162.0</ele><time>2026-04-26T10:30:47Z</time></trkpt><trkpt lat="45.5236423537793" lon="10.838424549459171"><ele>161.33333333333334</ele><time>2026-04-26T10:30:48Z</time></trkpt><trkpt lat="45.52348346862756" lon="10.838399683959606"><ele>160.66666666666669</ele><time>2026-04-26T10:30:49Z</time></trkpt><trkpt lat="45.52332567626304" lon="10.83837032822676"><ele>160.0</ele><time>2026-04-26T10:30:50Z</time></trkpt><trkpt lat="45.523166461836524" lon="10.83833988220512"><ele>160.0</ele><time>2026-04-26T10:30:51Z</time></trkpt><trkpt lat="45.523011273011896" lon="10.838305677602724"><ele>160.0</ele><time>2026-04-26T10:30:52Z</time></trkpt><trkpt lat="45.5228604499142" lon="10.838272835628494"><ele>160.0</ele><time>2026-04-26T10:30:53Z</time></trkpt><trkpt lat="45.522712993845296" lon="10.838243167901771"><ele>159.5</ele><time>2026-04-26T10:30:54Z</time></trkpt><trkpt lat="45.52257783520067" lon="10.838218192388755"><ele>159.0</ele><time>2026-04-26T10:30:55Z</time></trkpt><trkpt lat="45.52245140623559" lon="10.838194421227817"><ele>158.5</ele><time>2026-04-26T10:30:56Z</time></trkpt><trkpt lat="45.522331590283486" lon="10.838170423515749"><ele>158.0</ele><time>2026-04-26T10:30:57Z</time></trkpt><trkpt lat="45.52222067105665" lon="10.83814778701385"><ele>158.0</ele><time>2026-04-26T10:30:58Z</time></trkpt><trkpt lat="45.52211841539183" lon="10.838131937356511"><ele>158.0</ele><time>2026-04-26T10:30:59Z</time></trkpt><trkpt lat="45.52202187336929" lon="10.838128144021391"><ele>158.0</ele><time>2026-04-26T10:31:00Z</time></trkpt><trkpt lat="45.52193037318229" lon="10.838136727268378"><ele>158.0</ele><time>2026-04-26T10:31:01Z</time></trkpt><trkpt lat="45.52185080985143" lon="10.838148362903702"><ele>158.0</ele><time>2026-04-26T10:31:02Z</time></trkpt><trkpt lat="45.52178340874882" lon="10.838122073963195"><ele>158.0</ele><time>2026-04-26T10:31:03Z</time></trkpt><trkpt lat="45.52172391569221" lon="10.83805220787828"><ele>157.75</ele><time>2026-04-26T10:31:04Z</time></trkpt><trkpt lat="45.52167390517227" lon="10.837935778502704"><ele>157.5</ele><time>2026-04-26T10:31:05Z</time></trkpt><trkpt lat="45.52165550443568" lon="10.837788488994544"><ele>157.25</ele><time>2026-04-26T10:31:06Z</time></trkpt><trkpt lat="45.52169363296418" lon="10.837618983890795"><ele>157.0</ele><time>2026-04-26T10:31:07Z</time></trkpt><trkpt lat="45.521716368227814" lon="10.837409660318942"><ele>157.0</ele><time>2026-04-26T10:31:08Z</time></trkpt><trkpt lat="45.521752073023116" lon="10.837174522715898"><ele>157.0</ele><time>2026-04-26T10:31:09Z</time></trkpt><trkpt lat="45.52177799954164" lon="10.836919133603523"><ele>157.0</ele><time>2026-04-26T10:31:10Z</time></trkpt><trkpt lat="45.52180268849274" lon="10.83664824412321"><ele>157.0</ele><time>2026-04-26T10:31:11Z</time></trkpt><trkpt lat="45.521831074666125" lon="10.836371491309775"><ele>157.0</ele><time>2026-04-26T10:31:12Z</time></trkpt><trkpt lat="45.5218604572959" lon="10.836109357351987"><ele>157.0</ele><time>2026-04-26T10:31:13Z</time></trkpt><trkpt lat="45.52188643526949" lon="10.835873157976017"><ele>157.0</ele><time>2026-04-26T10:31:14Z</time></trkpt><trkpt lat="45.52190973060363" lon="10.835659241361503"><ele>157.0</ele><time>2026-04-26T10:31:15Z</time></trkpt><trkpt lat="45.52192867998105" lon="10.835457173066926"><ele>157.0</ele><time>2026-04-26T10:31:16Z</time></trkpt><trkpt lat="45.52194640846173" lon="10.8352594020025"><ele>157.0</ele><time>2026-04-26T10:31:17Z</time></trkpt><trkpt lat="45.52196366100181" lon="10.835080100906469"><ele>157.0</ele><time>2026-04-26T10:31:18Z</time></trkpt><trkpt lat="45.521982348847246" lon="10.834911893570018"><ele>157.0</ele><time>2026-04-26T10:31:19Z</time></trkpt><trkpt lat="45.52202021753822" lon="10.834765786944217"><ele>157.0</ele><time>2026-04-26T10:31:20Z</time></trkpt><trkpt lat="45.52208783148" lon="10.834655946500915"><ele>157.0</ele><time>2026-04-26T10:31:21Z</time></trkpt><trkpt lat="45.52216415929735" lon="10.834565844801286"><ele>157.0</ele><time>2026-04-26T10:31:22Z</time></trkpt><trkpt lat="45.5221955753797" lon="10.834449633146406"><ele>157.75</ele><time>2026-04-26T10:31:23Z</time></trkpt><trkpt lat="45.52217137096118" lon="10.834292811080315"><ele>158.5</ele><time>2026-04-26T10:31:24Z</time></trkpt><trkpt lat="45.52209414245657" lon="10.834161637449943"><ele>159.25</ele><time>2026-04-26T10:31:25Z</time></trkpt><trkpt lat="45.52205730284392" lon="10.833997865930282"><ele>160.0</ele><time>2026-04-26T10:31:26Z</time></trkpt><trkpt lat="45.52204777351258" lon="10.833805683310079"><ele>160.0</ele><time>2026-04-26T10:31:27Z</time></trkpt><trkpt lat="45.52203500768925" lon="10.833593584232515"><ele>160.0</ele><time>2026-04-26T10:31:28Z</time></trkpt><trkpt lat="45.52199236465669" lon="10.833381438728827"><ele>160.0</ele><time>2026-04-26T10:31:29Z</time></trkpt><trkpt lat="45.521929839268836" lon="10.833183383779993"><ele>160.0</ele><time>2026-04-26T10:31:30Z</time></trkpt><trkpt lat="45.52188018960492" lon="10.832995933028922"><ele>160.0</ele><time>2026-04-26T10:31:31Z</time></trkpt><trkpt lat="45.52178445233866" lon="10.832850394988993"><ele>160.0</ele><time>2026-04-26T10:31:32Z</time></trkpt><trkpt lat="45.521693917826084" lon="10.832692828418603"><ele>160.0</ele><time>2026-04-26T10:31:33Z</time></trkpt><trkpt lat="45.521585254842954" lon="10.83254295243375"><ele>160.0</ele><time>2026-04-26T10:31:34Z</time></trkpt><trkpt lat="45.52145115781172" lon="10.83241854724958"><ele>160.0</ele><time>2026-04-26T10:31:35Z</time></trkpt><trkpt lat="45.52130389246108" lon="10.832328453981505"><ele>160.0</ele><time>2026-04-26T10:31:36Z</time></trkpt><trkpt lat="45.52114967196467" lon="10.832247844624915"><ele>160.0</ele><time>2026-04-26T10:31:37Z</time></trkpt><trkpt lat="45.52099787045151" lon="10.832162829029787"><ele>160.0</ele><time>2026-04-26T10:31:38Z</time></trkpt><trkpt lat="45.52084971087904" lon="10.832073252267053"><ele>160.0</ele><time>2026-04-26T10:31:39Z</time></trkpt><trkpt lat="45.52070085144731" lon="10.831984319899272"><ele>160.0</ele><time>2026-04-26T10:31:40Z</time></trkpt><trkpt lat="45.520557074182776" lon="10.831900070035621"><ele>160.0</ele><time>2026-04-26T10:31:41Z</time></trkpt><trkpt lat="45.520414482543735" lon="10.83181836680104"><ele>160.0</ele><time>2026-04-26T10:31:42Z</time></trkpt><trkpt lat="45.52027376078359" lon="10.831736327121048"><ele>160.0</ele><time>2026-04-26T10:31:43Z</time></trkpt><trkpt lat="45.52014019373937" lon="10.831656278000544"><ele>160.0</ele><time>2026-04-26T10:31:44Z</time></trkpt><trkpt lat="45.52000627830267" lon="10.831576627712733"><ele>160.0</ele><time>2026-04-26T10:31:45Z</time></trkpt><trkpt lat="45.519867014414324" lon="10.831495003397965"><ele>160.0</ele><time>2026-04-26T10:31:46Z</time></trkpt><trkpt lat="45.51972733317459" lon="10.831416606757175"><ele>160.0</ele><time>2026-04-26T10:31:47Z</time></trkpt><trkpt lat="45.519601570325605" lon="10.83134859372697"><ele>160.0</ele><time>2026-04-26T10:31:48Z</time></trkpt><trkpt lat="45.51948614475228" lon="10.831291366792627"><ele>160.0</ele><time>2026-04-26T10:31:49Z</time></trkpt><trkpt lat="45.51938328281348" lon="10.831230640503083"><ele>160.0</ele><time>2026-04-26T10:31:50Z</time></trkpt><trkpt lat="45.51929117653917" lon="10.831164165406275"><ele>159.25</ele><time>2026-04-26T10:31:51Z</time></trkpt><trkpt lat="45.51921024027434" lon="10.831085263299975"><ele>158.5</ele><time>2026-04-26T10:31:52Z</time></trkpt><trkpt lat="45.519103734194616" lon="10.830868729762768"><ele>157.75</ele><time>2026-04-26T10:31:54Z</time></trkpt><trkpt lat="45.519061819759415" lon="10.830742162163045"><ele>157.0</ele><time>2026-04-26T10:31:55Z</time></trkpt><trkpt lat="45.518986759504706" lon="10.830651140474973"><ele>157.0</ele><time>2026-04-26T10:31:56Z</time></trkpt><trkpt lat="45.51889677290787" lon="10.830560823765085"><ele>157.0</ele><time>2026-04-26T10:31:57Z</time></trkpt><trkpt lat="45.51882276425609" lon="10.830417780908121"><ele>157.0</ele><time>2026-04-26T10:31:58Z</time></trkpt><trkpt lat="45.518772886944085" lon="10.830219868422017"><ele>157.0</ele><time>2026-04-26T10:31:59Z</time></trkpt><trkpt lat="45.5187084238821" lon="10.830014627796018"><ele>152.0</ele><time>2026-04-26T10:32:00Z</time></trkpt><trkpt lat="45.51864952083724" lon="10.829803854806688"><ele>147.0</ele><time>2026-04-26T10:32:01Z</time></trkpt><trkpt lat="45.51860851025505" lon="10.829577397220996"><ele>142.0</ele><time>2026-04-26T10:32:02Z</time></trkpt><trkpt lat="45.51858429298082" lon="10.8293403034263"><ele>141.66666666666669</ele><time>2026-04-26T10:32:03Z</time></trkpt><trkpt lat="45.5185728598545" lon="10.829087741428157"><ele>141.33333333333334</ele><time>2026-04-26T10:32:04Z</time></trkpt><trkpt lat="45.51856422300954" lon="10.828837216575938"><ele>141.0</ele><time>2026-04-26T10:32:05Z</time></trkpt><trkpt lat="45.518542971311696" lon="10.828598472812697"><ele>141.0</ele><time>2026-04-26T10:32:06Z</time></trkpt><trkpt lat="45.518534411723955" lon="10.82837575790607"><ele>141.0</ele><time>2026-04-26T10:32:07Z</time></trkpt><trkpt lat="45.518541497508984" lon="10.828170312637896"><ele>141.0</ele><time>2026-04-26T10:32:08Z</time></trkpt><trkpt lat="45.51853488199065" lon="10.827977170116844"><ele>141.0</ele><time>2026-04-26T10:32:09Z</time></trkpt><trkpt lat="45.51852783572439" lon="10.827790968712534"><ele>140.25</ele><time>2026-04-26T10:32:10Z</time></trkpt><trkpt lat="45.51850453769699" lon="10.827608982049608"><ele>139.5</ele><time>2026-04-26T10:32:11Z</time></trkpt><trkpt lat="45.51850463967628" lon="10.82743215382225"><ele>138.75</ele><time>2026-04-26T10:32:12Z</time></trkpt><trkpt lat="45.51849752188356" lon="10.827257761312596"><ele>138.0</ele><time>2026-04-26T10:32:13Z</time></trkpt><trkpt lat="45.51848880129227" lon="10.827089510823557"><ele>138.0</ele><time>2026-04-26T10:32:14Z</time></trkpt><trkpt lat="45.5184911520068" lon="10.826922782874448"><ele>138.0</ele><time>2026-04-26T10:32:15Z</time></trkpt><trkpt lat="45.51848263820976" lon="10.826761028207772"><ele>138.0</ele><time>2026-04-26T10:32:16Z</time></trkpt><trkpt lat="45.51847396352251" lon="10.826602050042716"><ele>138.0</ele><time>2026-04-26T10:32:17Z</time></trkpt><trkpt lat="45.51846353860293" lon="10.826435443179427"><ele>137.5</ele><time>2026-04-26T10:32:18Z</time></trkpt><trkpt lat="45.51843636675328" lon="10.826254246322156"><ele>137.0</ele><time>2026-04-26T10:32:19Z</time></trkpt><trkpt lat="45.51842771020226" lon="10.826060148563178"><ele>136.5</ele><time>2026-04-26T10:32:20Z</time></trkpt><trkpt lat="45.51841777949564" lon="10.8258678260852"><ele>136.0</ele><time>2026-04-26T10:32:21Z</time></trkpt><trkpt lat="45.51840807923016" lon="10.825683802523926"><ele>135.25</ele><time>2026-04-26T10:32:22Z</time></trkpt><trkpt lat="45.51839848048936" lon="10.825504827697893"><ele>134.5</ele><time>2026-04-26T10:32:23Z</time></trkpt><trkpt lat="45.51839159390313" lon="10.825330911337923"><ele>133.75</ele><time>2026-04-26T10:32:24Z</time></trkpt><trkpt lat="45.518387123364036" lon="10.8251617865493"><ele>133.0</ele><time>2026-04-26T10:32:25Z</time></trkpt><trkpt lat="45.51839050461114" lon="10.82499809721238"><ele>132.5</ele><time>2026-04-26T10:32:26Z</time></trkpt><trkpt lat="45.51839865296592" lon="10.824826340472978"><ele>132.0</ele><time>2026-04-26T10:32:27Z</time></trkpt><trkpt lat="45.518412167409586" lon="10.824648990684347"><ele>131.5</ele><time>2026-04-26T10:32:28Z</time></trkpt><trkpt lat="45.51843108450033" lon="10.824459953402938"><ele>131.0</ele><time>2026-04-26T10:32:29Z</time></trkpt><trkpt lat="45.51845194030595" lon="10.824265998726156"><ele>129.0</ele><time>2026-04-26T10:32:30Z</time></trkpt><trkpt lat="45.51847956661549" lon="10.82406332135794"><ele>127.0</ele><time>2026-04-26T10:32:31Z</time></trkpt><trkpt lat="45.518509732029386" lon="10.823849723861676"><ele>125.0</ele><time>2026-04-26T10:32:32Z</time></trkpt><trkpt lat="45.51854038947752" lon="10.823629096227926"><ele>124.0</ele><time>2026-04-26T10:32:33Z</time></trkpt><trkpt lat="45.51857850421257" lon="10.823411017314815"><ele>123.0</ele><time>2026-04-26T10:32:34Z</time></trkpt><trkpt lat="45.51862829791816" lon="10.823202840310529"><ele>122.0</ele><time>2026-04-26T10:32:35Z</time></trkpt><trkpt lat="45.518682189360504" lon="10.823007139230624"><ele>122.0</ele><time>2026-04-26T10:32:36Z</time></trkpt><trkpt lat="45.51873276945991" lon="10.822818189529634"><ele>122.0</ele><time>2026-04-26T10:32:37Z</time></trkpt><trkpt lat="45.518777371122674" lon="10.822634845875209"><ele>122.0</ele><time>2026-04-26T10:32:38Z</time></trkpt><trkpt lat="45.51881780458096" lon="10.822457219596629"><ele>122.0</ele><time>2026-04-26T10:32:39Z</time></trkpt><trkpt lat="45.518852057412424" lon="10.822284304084533"><ele>121.25</ele><time>2026-04-26T10:32:40Z</time></trkpt><trkpt lat="45.51888233333277" lon="10.822107856844687"><ele>120.5</ele><time>2026-04-26T10:32:41Z</time></trkpt><trkpt lat="45.51891162336304" lon="10.821919939032307"><ele>119.75</ele><time>2026-04-26T10:32:42Z</time></trkpt><trkpt lat="45.518936336897774" lon="10.821730936958986"><ele>119.0</ele><time>2026-04-26T10:32:43Z</time></trkpt><trkpt lat="45.518956597912116" lon="10.821533806446414"><ele>118.25</ele><time>2026-04-26T10:32:44Z</time></trkpt><trkpt lat="45.51897343236915" lon="10.821328814484529"><ele>117.5</ele><time>2026-04-26T10:32:45Z</time></trkpt><trkpt lat="45.51898223959792" lon="10.821145580538603"><ele>116.75</ele><time>2026-04-26T10:32:46Z</time></trkpt><trkpt lat="45.51898434739154" lon="10.820968060750248"><ele>116.0</ele><time>2026-04-26T10:32:47Z</time></trkpt><trkpt lat="45.51898131276927" lon="10.820792309452836"><ele>115.66666666666666</ele><time>2026-04-26T10:32:48Z</time></trkpt><trkpt lat="45.518975520344576" lon="10.82062912174482"><ele>115.33333333333333</ele><time>2026-04-26T10:32:49Z</time></trkpt><trkpt lat="45.51896482424026" lon="10.820484102793374"><ele>115.0</ele><time>2026-04-26T10:32:50Z</time></trkpt><trkpt lat="45.51897121088538" lon="10.820387727992477"><ele>114.66666666666666</ele><time>2026-04-26T10:32:51Z</time></trkpt><trkpt lat="45.5189629824182" lon="10.820251629526846"><ele>114.33333333333333</ele><time>2026-04-26T10:32:53Z</time></trkpt><trkpt lat="45.51895595872864" lon="10.820160228691245"><ele>114.0</ele><time>2026-04-26T10:32:55Z</time></trkpt><trkpt lat="45.51893738768891" lon="10.820065389077955"><ele>114.0</ele><time>2026-04-26T10:32:58Z</time></trkpt><trkpt lat="45.51892730258889" lon="10.819945350944744"><ele>114.0</ele><time>2026-04-26T10:33:00Z</time></trkpt><trkpt lat="45.51891778052963" lon="10.819799930474687"><ele>114.0</ele><time>2026-04-26T10:33:02Z</time></trkpt><trkpt lat="45.51893058980954" lon="10.819708238171167"><ele>114.0</ele><time>2026-04-26T10:33:03Z</time></trkpt><trkpt lat="45.51896405814391" lon="10.819611655152432"><ele>114.0</ele><time>2026-04-26T10:33:04Z</time></trkpt><trkpt lat="45.519001457667486" lon="10.819445431735115"><ele>114.0</ele><time>2026-04-26T10:33:06Z</time></trkpt><trkpt lat="45.51901614777369" lon="10.819348282660377"><ele>114.0</ele><time>2026-04-26T10:33:07Z</time></trkpt><trkpt lat="45.51895596813655" lon="10.819230798209988"><ele>114.0</ele><time>2026-04-26T10:33:08Z</time></trkpt><trkpt lat="45.518907185798504" lon="10.819110605260528"><ele>114.0</ele><time>2026-04-26T10:33:09Z</time></trkpt><trkpt lat="45.51885508203335" lon="10.818968129399044"><ele>114.0</ele><time>2026-04-26T10:33:10Z</time></trkpt><trkpt lat="45.5188439461489" lon="10.818796724741029"><ele>114.0</ele><time>2026-04-26T10:33:11Z</time></trkpt><trkpt lat="45.5188180655198" lon="10.818620772644486"><ele>114.0</ele><time>2026-04-26T10:33:12Z</time></trkpt><trkpt lat="45.51879386829894" lon="10.818435154571496"><ele>114.0</ele><time>2026-04-26T10:33:13Z</time></trkpt><trkpt lat="45.518755558129925" lon="10.818246592672788"><ele>114.0</ele><time>2026-04-26T10:33:14Z</time></trkpt><trkpt lat="45.51873259886988" lon="10.818042984561666"><ele>114.25</ele><time>2026-04-26T10:33:15Z</time></trkpt><trkpt lat="45.51870371360815" lon="10.81783897242521"><ele>114.5</ele><time>2026-04-26T10:33:16Z</time></trkpt><trkpt lat="45.518679088158116" lon="10.817626311722936"><ele>114.75</ele><time>2026-04-26T10:33:17Z</time></trkpt><trkpt lat="45.518670619228025" lon="10.817410228143851"><ele>115.0</ele><time>2026-04-26T10:33:18Z</time></trkpt><trkpt lat="45.518647316660676" lon="10.817190094974654"><ele>115.0</ele><time>2026-04-26T10:33:19Z</time></trkpt><trkpt lat="45.51862445919958" lon="10.81696561094728"><ele>115.0</ele><time>2026-04-26T10:33:20Z</time></trkpt><trkpt lat="45.518604813323556" lon="10.816740796632722"><ele>115.0</ele><time>2026-04-26T10:33:21Z</time></trkpt><trkpt lat="45.518586744481055" lon="10.81651258511347"><ele>114.66666666666667</ele><time>2026-04-26T10:33:22Z</time></trkpt><trkpt lat="45.51855607811438" lon="10.816286193870823"><ele>114.33333333333334</ele><time>2026-04-26T10:33:23Z</time></trkpt><trkpt lat="45.51853924991133" lon="10.816053393520042"><ele>114.0</ele><time>2026-04-26T10:33:24Z</time></trkpt><trkpt lat="45.518523985127814" lon="10.815820305042495"><ele>114.0</ele><time>2026-04-26T10:33:25Z</time></trkpt><trkpt lat="45.51850852402713" lon="10.815590828312088"><ele>114.0</ele><time>2026-04-26T10:33:26Z</time></trkpt><trkpt lat="45.51850876559978" lon="10.815364050645087"><ele>114.0</ele><time>2026-04-26T10:33:27Z</time></trkpt><trkpt lat="45.51849234778459" lon="10.815137964792946"><ele>114.66666666666666</ele><time>2026-04-26T10:33:28Z</time></trkpt><trkpt lat="45.5184736026731" lon="10.814902313505087"><ele>115.33333333333333</ele><time>2026-04-26T10:33:29Z</time></trkpt><trkpt lat="45.51845077103512" lon="10.814669068010819"><ele>116.0</ele><time>2026-04-26T10:33:30Z</time></trkpt><trkpt lat="45.5184114774417" lon="10.814438277066595"><ele>116.0</ele><time>2026-04-26T10:33:31Z</time></trkpt><trkpt lat="45.51838643384011" lon="10.814191911069676"><ele>116.0</ele><time>2026-04-26T10:33:32Z</time></trkpt><trkpt lat="45.51835811892584" lon="10.8139446252176"><ele>116.0</ele><time>2026-04-26T10:33:33Z</time></trkpt><trkpt lat="45.5183304699958" lon="10.813705889584561"><ele>115.66666666666666</ele><time>2026-04-26T10:33:34Z</time></trkpt><trkpt lat="45.51832258378397" lon="10.813472187305068"><ele>115.33333333333334</ele><time>2026-04-26T10:33:35Z</time></trkpt><trkpt lat="45.51830343906712" lon="10.81325811451668"><ele>115.0</ele><time>2026-04-26T10:33:36Z</time></trkpt><trkpt lat="45.518285463280485" lon="10.813057112641136"><ele>115.0</ele><time>2026-04-26T10:33:37Z</time></trkpt><trkpt lat="45.51827045285011" lon="10.81287810102066"><ele>115.0</ele><time>2026-04-26T10:33:38Z</time></trkpt><trkpt lat="45.5182655809934" lon="10.812722593554653"><ele>115.0</ele><time>2026-04-26T10:33:39Z</time></trkpt><trkpt lat="45.51826323634901" lon="10.81257412926703"><ele>115.0</ele><time>2026-04-26T10:33:40Z</time></trkpt><trkpt lat="45.518317107747" lon="10.812455319010825"><ele>115.0</ele><time>2026-04-26T10:33:41Z</time></trkpt><trkpt lat="45.51843642043042" lon="10.812269584500065"><ele>115.2</ele><time>2026-04-26T10:33:43Z</time></trkpt><trkpt lat="45.51848338097768" lon="10.812185057626774"><ele>115.4</ele><time>2026-04-26T10:33:44Z</time></trkpt><trkpt lat="45.51854116890092" lon="10.812109239902407"><ele>115.6</ele><time>2026-04-26T10:33:45Z</time></trkpt><trkpt lat="45.518623345098874" lon="10.81205366665954"><ele>115.8</ele><time>2026-04-26T10:33:46Z</time></trkpt><trkpt lat="45.518728396158444" lon="10.812021603297614"><ele>116.0</ele><time>2026-04-26T10:33:47Z</time></trkpt><trkpt lat="45.51884662894991" lon="10.81200015442118"><ele>115.5</ele><time>2026-04-26T10:33:48Z</time></trkpt><trkpt lat="45.518976876377245" lon="10.811980489182986"><ele>115.0</ele><time>2026-04-26T10:33:49Z</time></trkpt><trkpt lat="45.51912298712698" lon="10.811965148229842"><ele>114.5</ele><time>2026-04-26T10:33:50Z</time></trkpt><trkpt lat="45.519272989888606" lon="10.811954350696192"><ele>114.0</ele><time>2026-04-26T10:33:51Z</time></trkpt><trkpt lat="45.519422623621885" lon="10.811947206879083"><ele>114.0</ele><time>2026-04-26T10:33:52Z</time></trkpt><trkpt lat="45.519561594358" lon="10.811941084116308"><ele>114.0</ele><time>2026-04-26T10:33:53Z</time></trkpt><trkpt lat="45.51968942316681" lon="10.81193615756592"><ele>114.0</ele><time>2026-04-26T10:33:54Z</time></trkpt><trkpt lat="45.51980039226083" lon="10.81193107406446"><ele>114.0</ele><time>2026-04-26T10:33:55Z</time></trkpt><trkpt lat="45.51990060921888" lon="10.811927360828438"><ele>114.0</ele><time>2026-04-26T10:33:56Z</time></trkpt><trkpt lat="45.519995901383716" lon="10.811927717389173"><ele>114.0</ele><time>2026-04-26T10:33:57Z</time></trkpt><trkpt lat="45.52008401100791" lon="10.811936404339557"><ele>114.0</ele><time>2026-04-26T10:33:58Z</time></trkpt><trkpt lat="45.52016320453334" lon="10.811947889085477"><ele>114.0</ele><time>2026-04-26T10:33:59Z</time></trkpt><trkpt lat="45.520237952429376" lon="10.811955792471926"><ele>114.0</ele><time>2026-04-26T10:34:00Z</time></trkpt><trkpt lat="45.52030481956676" lon="10.811962853707767"><ele>114.0</ele><time>2026-04-26T10:34:01Z</time></trkpt><trkpt lat="45.52041611745903" lon="10.811996774672778"><ele>113.66666666666667</ele><time>2026-04-26T10:34:03Z</time></trkpt><trkpt lat="45.52047893267779" lon="10.812006173485306"><ele>113.33333333333334</ele><time>2026-04-26T10:34:04Z</time></trkpt><trkpt lat="45.52054184635754" lon="10.811982396030107"><ele>113.0</ele><time>2026-04-26T10:34:05Z</time></trkpt><trkpt lat="45.52063232500604" lon="10.811880030728366"><ele>112.66666666666667</ele><time>2026-04-26T10:34:07Z</time></trkpt><trkpt lat="45.520702665698764" lon="10.81182731050533"><ele>112.33333333333334</ele><time>2026-04-26T10:34:09Z</time></trkpt><trkpt lat="45.52076774923855" lon="10.811815530823667"><ele>112.0</ele><time>2026-04-26T10:34:10Z</time></trkpt><trkpt lat="45.52086560183628" lon="10.811837543644012"><ele>112.0</ele><time>2026-04-26T10:34:11Z</time></trkpt><trkpt lat="45.52099392962267" lon="10.811845330741559"><ele>112.0</ele><time>2026-04-26T10:34:12Z</time></trkpt><trkpt lat="45.52114147452143" lon="10.811854746629201"><ele>112.0</ele><time>2026-04-26T10:34:13Z</time></trkpt><trkpt lat="45.52131405141593" lon="10.811867063496432"><ele>112.0</ele><time>2026-04-26T10:34:14Z</time></trkpt><trkpt lat="45.52149450940154" lon="10.81188412070503"><ele>112.66666666666667</ele><time>2026-04-26T10:34:15Z</time></trkpt><trkpt lat="45.521679415429915" lon="10.811939073194484"><ele>113.33333333333334</ele><time>2026-04-26T10:34:16Z</time></trkpt><trkpt lat="45.52186098505523" lon="10.811985547216736"><ele>114.0</ele><time>2026-04-26T10:34:17Z</time></trkpt><trkpt lat="45.52204805674814" lon="10.812016193427098"><ele>113.66666666666666</ele><time>2026-04-26T10:34:18Z</time></trkpt><trkpt lat="45.5222355089596" lon="10.812016184683063"><ele>113.33333333333333</ele><time>2026-04-26T10:34:19Z</time></trkpt><trkpt lat="45.52242579325784" lon="10.811978668766981"><ele>113.0</ele><time>2026-04-26T10:34:20Z</time></trkpt><trkpt lat="45.52260756389152" lon="10.811926275224613"><ele>113.0</ele><time>2026-04-26T10:34:21Z</time></trkpt><trkpt lat="45.52277337559132" lon="10.811877735393885"><ele>113.0</ele><time>2026-04-26T10:34:22Z</time></trkpt><trkpt lat="45.522923358241854" lon="10.811837365892872"><ele>113.0</ele><time>2026-04-26T10:34:23Z</time></trkpt><trkpt lat="45.523057587976226" lon="10.811801203256799"><ele>112.60000000000001</ele><time>2026-04-26T10:34:24Z</time></trkpt><trkpt lat="45.523173875214916" lon="10.811766781336319"><ele>112.20000000000002</ele><time>2026-04-26T10:34:25Z</time></trkpt><trkpt lat="45.523281792375016" lon="10.811733695435898"><ele>111.8</ele><time>2026-04-26T10:34:26Z</time></trkpt><trkpt lat="45.523373335592005" lon="10.81170435450685"><ele>111.4</ele><time>2026-04-26T10:34:27Z</time></trkpt><trkpt lat="45.52344794480645" lon="10.811681680150135"><ele>111.0</ele><time>2026-04-26T10:34:28Z</time></trkpt><trkpt lat="45.5235175874827" lon="10.811657090204585"><ele>111.0</ele><time>2026-04-26T10:34:29Z</time></trkpt><trkpt lat="45.523603799980506" lon="10.811616255560203"><ele>111.0</ele><time>2026-04-26T10:34:31Z</time></trkpt><trkpt lat="45.523691264742794" lon="10.811550609454317"><ele>111.0</ele><time>2026-04-26T10:34:40Z</time></trkpt><trkpt lat="45.523694024874324" lon="10.811315487967828"><ele>111.0</ele><time>2026-04-26T10:34:42Z</time></trkpt><trkpt lat="45.52364706852431" lon="10.811170368144563"><ele>111.0</ele><time>2026-04-26T10:34:43Z</time></trkpt><trkpt lat="45.523562045774845" lon="10.810995254681856"><ele>111.0</ele><time>2026-04-26T10:34:44Z</time></trkpt><trkpt lat="45.52346251108707" lon="10.810766880831348"><ele>111.0</ele><time>2026-04-26T10:34:45Z</time></trkpt><trkpt lat="45.52337699182746" lon="10.810464521162398"><ele>111.0</ele><time>2026-04-26T10:34:46Z</time></trkpt><trkpt lat="45.52326953070209" lon="10.810133577979842"><ele>111.0</ele><time>2026-04-26T10:34:47Z</time></trkpt><trkpt lat="45.52317500394837" lon="10.809832381322225"><ele>111.0</ele><time>2026-04-26T10:34:48Z</time></trkpt><trkpt lat="45.52310563395776" lon="10.809607829911187"><ele>111.0</ele><time>2026-04-26T10:34:49Z</time></trkpt><trkpt lat="45.52304605566434" lon="10.80941386909356"><ele>111.0</ele><time>2026-04-26T10:34:50Z</time></trkpt><trkpt lat="45.52299333153491" lon="10.80924244055074"><ele>111.5</ele><time>2026-04-26T10:34:51Z</time></trkpt><trkpt lat="45.52293992238257" lon="10.809067883731199"><ele>112.0</ele><time>2026-04-26T10:34:52Z</time></trkpt><trkpt lat="45.52288321568383" lon="10.808882663807546"><ele>112.5</ele><time>2026-04-26T10:34:53Z</time></trkpt><trkpt lat="45.52281560852613" lon="10.808708110854502"><ele>113.0</ele><time>2026-04-26T10:34:54Z</time></trkpt><trkpt lat="45.52276349287097" lon="10.808524909570039"><ele>112.25</ele><time>2026-04-26T10:34:55Z</time></trkpt><trkpt lat="45.522707456305206" lon="10.80833803655729"><ele>111.5</ele><time>2026-04-26T10:34:56Z</time></trkpt><trkpt lat="45.522645448003885" lon="10.808145754906747"><ele>110.75</ele><time>2026-04-26T10:34:57Z</time></trkpt><trkpt lat="45.522581180685535" lon="10.807960714760927"><ele>110.0</ele><time>2026-04-26T10:34:58Z</time></trkpt><trkpt lat="45.52251510561715" lon="10.807791379427416"><ele>109.75</ele><time>2026-04-26T10:34:59Z</time></trkpt><trkpt lat="45.52244546305234" lon="10.807625777372959"><ele>109.5</ele><time>2026-04-26T10:35:00Z</time></trkpt><trkpt lat="45.52238437214244" lon="10.807419413350662"><ele>109.25</ele><time>2026-04-26T10:35:01Z</time></trkpt><trkpt lat="45.522310209064976" lon="10.807223890851594"><ele>109.0</ele><time>2026-04-26T10:35:02Z</time></trkpt><trkpt lat="45.52224126141668" lon="10.807034317037147"><ele>109.0</ele><time>2026-04-26T10:35:03Z</time></trkpt><trkpt lat="45.52216233505612" lon="10.806865183210038"><ele>109.0</ele><time>2026-04-26T10:35:04Z</time></trkpt><trkpt lat="45.52211372418366" lon="10.806683646399323"><ele>109.0</ele><time>2026-04-26T10:35:05Z</time></trkpt><trkpt lat="45.52208252630178" lon="10.806490520896018"><ele>109.0</ele><time>2026-04-26T10:35:06Z</time></trkpt><trkpt lat="45.522071504491244" lon="10.80628538291966"><ele>107.0</ele><time>2026-04-26T10:35:07Z</time></trkpt><trkpt lat="45.52208024142794" lon="10.806074788728342"><ele>105.0</ele><time>2026-04-26T10:35:08Z</time></trkpt><trkpt lat="45.522117165596015" lon="10.805864360777603"><ele>103.0</ele><time>2026-04-26T10:35:09Z</time></trkpt><trkpt lat="45.52216621141869" lon="10.805646602894218"><ele>100.33333333333334</ele><time>2026-04-26T10:35:10Z</time></trkpt><trkpt lat="45.522212371340345" lon="10.805424178466309"><ele>97.66666666666667</ele><time>2026-04-26T10:35:11Z</time></trkpt><trkpt lat="45.52225776734832" lon="10.805201331984307"><ele>95.0</ele><time>2026-04-26T10:35:12Z</time></trkpt><trkpt lat="45.522300758008086" lon="10.804991731489322"><ele>95.0</ele><time>2026-04-26T10:35:13Z</time></trkpt><trkpt lat="45.52234511989649" lon="10.804789086760925"><ele>95.0</ele><time>2026-04-26T10:35:14Z</time></trkpt><trkpt lat="45.522409276435965" lon="10.804583226712506"><ele>95.0</ele><time>2026-04-26T10:35:15Z</time></trkpt><trkpt lat="45.52247338757401" lon="10.804329656212646"><ele>95.0</ele><time>2026-04-26T10:35:16Z</time></trkpt><trkpt lat="45.52254851823629" lon="10.804043566934574"><ele>95.0</ele><time>2026-04-26T10:35:17Z</time></trkpt><trkpt lat="45.52261034630238" lon="10.803776249862535"><ele>95.0</ele><time>2026-04-26T10:35:18Z</time></trkpt><trkpt lat="45.52268548436615" lon="10.803546342772567"><ele>95.5</ele><time>2026-04-26T10:35:19Z</time></trkpt><trkpt lat="45.52275536662012" lon="10.803340800766078"><ele>96.0</ele><time>2026-04-26T10:35:20Z</time></trkpt><trkpt lat="45.5228380187577" lon="10.803176589536259"><ele>96.5</ele><time>2026-04-26T10:35:21Z</time></trkpt><trkpt lat="45.522915048692674" lon="10.803053952588341"><ele>97.0</ele><time>2026-04-26T10:35:22Z</time></trkpt><trkpt lat="45.522967900405945" lon="10.802955938128624"><ele>97.0</ele><time>2026-04-26T10:35:23Z</time></trkpt><trkpt lat="45.522981276831764" lon="10.802860875594714"><ele>97.0</ele><time>2026-04-26T10:35:24Z</time></trkpt><trkpt lat="45.522911639621306" lon="10.802760472374347"><ele>97.0</ele><time>2026-04-26T10:35:25Z</time></trkpt><trkpt lat="45.52282043549345" lon="10.802725255656044"><ele>97.0</ele><time>2026-04-26T10:35:26Z</time></trkpt><trkpt lat="45.522730186376066" lon="10.802684804341618"><ele>97.0</ele><time>2026-04-26T10:35:27Z</time></trkpt><trkpt lat="45.52262777060875" lon="10.802777246795253"><ele>97.0</ele><time>2026-04-26T10:35:28Z</time></trkpt><trkpt lat="45.5224988204096" lon="10.802726223278832"><ele>97.0</ele><time>2026-04-26T10:35:29Z</time></trkpt><trkpt lat="45.522371095117" lon="10.802673495085754"><ele>97.0</ele><time>2026-04-26T10:35:30Z</time></trkpt><trkpt lat="45.52223996365361" lon="10.802659716013261"><ele>97.0</ele><time>2026-04-26T10:35:31Z</time></trkpt><trkpt lat="45.5221177068521" lon="10.802632548176296"><ele>97.0</ele><time>2026-04-26T10:35:32Z</time></trkpt><trkpt lat="45.52199143469766" lon="10.802585107242557"><ele>97.0</ele><time>2026-04-26T10:35:33Z</time></trkpt><trkpt lat="45.52184375979003" lon="10.802550242020404"><ele>97.0</ele><time>2026-04-26T10:35:34Z</time></trkpt><trkpt lat="45.52166979922106" lon="10.802508776690763"><ele>97.0</ele><time>2026-04-26T10:35:35Z</time></trkpt><trkpt lat="45.521489113091434" lon="10.802490360917385"><ele>97.0</ele><time>2026-04-26T10:35:36Z</time></trkpt><trkpt lat="45.5213053174331" lon="10.802432632544395"><ele>97.0</ele><time>2026-04-26T10:35:37Z</time></trkpt><trkpt lat="45.521116007516156" lon="10.80238780868915"><ele>96.33333333333334</ele><time>2026-04-26T10:35:38Z</time></trkpt><trkpt lat="45.5209186964806" lon="10.802347172492153"><ele>95.66666666666667</ele><time>2026-04-26T10:35:39Z</time></trkpt><trkpt lat="45.52071742285988" lon="10.802306215810422"><ele>95.0</ele><time>2026-04-26T10:35:40Z</time></trkpt><trkpt lat="45.520516435035525" lon="10.802263073086703"><ele>94.33333333333334</ele><time>2026-04-26T10:35:41Z</time></trkpt><trkpt lat="45.52032837238564" lon="10.802219040293794"><ele>93.66666666666667</ele><time>2026-04-26T10:35:42Z</time></trkpt><trkpt lat="45.52014723894425" lon="10.802174394388627"><ele>93.0</ele><time>2026-04-26T10:35:43Z</time></trkpt><trkpt lat="45.51996762205779" lon="10.802124783501986"><ele>93.0</ele><time>2026-04-26T10:35:44Z</time></trkpt><trkpt lat="45.51979830929872" lon="10.802070910082392"><ele>93.0</ele><time>2026-04-26T10:35:45Z</time></trkpt><trkpt lat="45.519646419541665" lon="10.80201407429336"><ele>93.0</ele><time>2026-04-26T10:35:46Z</time></trkpt><trkpt lat="45.519501999781895" lon="10.80195878567952"><ele>93.33333333333333</ele><time>2026-04-26T10:35:47Z</time></trkpt><trkpt lat="45.51935125276298" lon="10.801896103044685"><ele>93.66666666666666</ele><time>2026-04-26T10:35:48Z</time></trkpt><trkpt lat="45.51919059580423" lon="10.80182653520258"><ele>94.0</ele><time>2026-04-26T10:35:49Z</time></trkpt><trkpt lat="45.51902620502994" lon="10.801767325629957"><ele>94.66666666666666</ele><time>2026-04-26T10:35:50Z</time></trkpt><trkpt lat="45.51885854621553" lon="10.801745659521021"><ele>95.33333333333333</ele><time>2026-04-26T10:35:51Z</time></trkpt><trkpt lat="45.51868654234845" lon="10.801775281857788"><ele>96.0</ele><time>2026-04-26T10:35:52Z</time></trkpt><trkpt lat="45.518513867675104" lon="10.801847781359172"><ele>96.0</ele><time>2026-04-26T10:35:53Z</time></trkpt><trkpt lat="45.51833507917763" lon="10.801943519788814"><ele>96.0</ele><time>2026-04-26T10:35:54Z</time></trkpt><trkpt lat="45.51816784040753" lon="10.80205796058309"><ele>96.0</ele><time>2026-04-26T10:35:55Z</time></trkpt><trkpt lat="45.518012011036916" lon="10.80215655394334"><ele>96.0</ele><time>2026-04-26T10:35:56Z</time></trkpt><trkpt lat="45.517869391921806" lon="10.802223808298066"><ele>96.0</ele><time>2026-04-26T10:35:57Z</time></trkpt><trkpt lat="45.5177167384965" lon="10.802222220007529"><ele>96.0</ele><time>2026-04-26T10:35:58Z</time></trkpt><trkpt lat="45.51756948185972" lon="10.802227282530524"><ele>96.0</ele><time>2026-04-26T10:35:59Z</time></trkpt><trkpt lat="45.5174353422247" lon="10.80221818829364"><ele>96.0</ele><time>2026-04-26T10:36:00Z</time></trkpt><trkpt lat="45.517322910470696" lon="10.80215374651473"><ele>96.0</ele><time>2026-04-26T10:36:01Z</time></trkpt><trkpt lat="45.5171995736" lon="10.80204737554827"><ele>96.0</ele><time>2026-04-26T10:36:02Z</time></trkpt><trkpt lat="45.517049622048596" lon="10.801946416273184"><ele>97.0</ele><time>2026-04-26T10:36:03Z</time></trkpt><trkpt lat="45.51689902446528" lon="10.801829002845391"><ele>98.0</ele><time>2026-04-26T10:36:04Z</time></trkpt><trkpt lat="45.516754991754674" lon="10.80169506930418"><ele>99.0</ele><time>2026-04-26T10:36:05Z</time></trkpt><trkpt lat="45.51661044472591" lon="10.801563695988415"><ele>99.0</ele><time>2026-04-26T10:36:06Z</time></trkpt><trkpt lat="45.516482116245086" lon="10.801402454047418"><ele>99.0</ele><time>2026-04-26T10:36:07Z</time></trkpt><trkpt lat="45.51635570222299" lon="10.801248217063964"><ele>99.0</ele><time>2026-04-26T10:36:08Z</time></trkpt><trkpt lat="45.51623640140101" lon="10.801102499367556"><ele>99.25</ele><time>2026-04-26T10:36:09Z</time></trkpt><trkpt lat="45.516126929229394" lon="10.800969011069078"><ele>99.5</ele><time>2026-04-26T10:36:10Z</time></trkpt><trkpt lat="45.51602433601218" lon="10.800845038250165"><ele>99.75</ele><time>2026-04-26T10:36:11Z</time></trkpt><trkpt lat="45.51593118268817" lon="10.80070153198708"><ele>100.0</ele><time>2026-04-26T10:36:12Z</time></trkpt><trkpt lat="45.51583862320916" lon="10.800584828635968"><ele>100.0</ele><time>2026-04-26T10:36:13Z</time></trkpt><trkpt lat="45.51574523961189" lon="10.800497741302403"><ele>100.0</ele><time>2026-04-26T10:36:14Z</time></trkpt><trkpt lat="45.51567181941089" lon="10.800401984910264"><ele>100.0</ele><time>2026-04-26T10:36:15Z</time></trkpt><trkpt lat="45.51560483235723" lon="10.800313965542541"><ele>100.0</ele><time>2026-04-26T10:36:16Z</time></trkpt><trkpt lat="45.51554878036209" lon="10.800231734257206"><ele>100.0</ele><time>2026-04-26T10:36:17Z</time></trkpt><trkpt lat="45.515514409899595" lon="10.80013883286616"><ele>100.0</ele><time>2026-04-26T10:36:18Z</time></trkpt><trkpt lat="45.5154804381618" lon="10.800032625654998"><ele>100.0</ele><time>2026-04-26T10:36:19Z</time></trkpt><trkpt lat="45.51542126425264" lon="10.799951358606439"><ele>100.0</ele><time>2026-04-26T10:36:20Z</time></trkpt><trkpt lat="45.51533292934949" lon="10.799909976380818"><ele>100.0</ele><time>2026-04-26T10:36:21Z</time></trkpt><trkpt lat="45.51522631206736" lon="10.799877986437826"><ele>100.0</ele><time>2026-04-26T10:36:22Z</time></trkpt><trkpt lat="45.51511933382858" lon="10.799814323961535"><ele>99.6</ele><time>2026-04-26T10:36:23Z</time></trkpt><trkpt lat="45.51503360227935" lon="10.799676459837897"><ele>99.2</ele><time>2026-04-26T10:36:24Z</time></trkpt><trkpt lat="45.514938080408804" lon="10.799574294063158"><ele>98.80000000000001</ele><time>2026-04-26T10:36:25Z</time></trkpt><trkpt lat="45.514853259572895" lon="10.7995055759032"><ele>98.4</ele><time>2026-04-26T10:36:26Z</time></trkpt><trkpt lat="45.514779972678895" lon="10.79942855484203"><ele>98.0</ele><time>2026-04-26T10:36:27Z</time></trkpt><trkpt lat="45.51469834352825" lon="10.799353370627216"><ele>98.0</ele><time>2026-04-26T10:36:28Z</time></trkpt><trkpt lat="45.51461091666261" lon="10.79927374396786"><ele>98.0</ele><time>2026-04-26T10:36:29Z</time></trkpt><trkpt lat="45.51451903710607" lon="10.799187230431967"><ele>98.0</ele><time>2026-04-26T10:36:30Z</time></trkpt><trkpt lat="45.51441145228043" lon="10.799086473086104"><ele>98.0</ele><time>2026-04-26T10:36:31Z</time></trkpt><trkpt lat="45.51429424441023" lon="10.798978510683835"><ele>98.66666666666666</ele><time>2026-04-26T10:36:32Z</time></trkpt><trkpt lat="45.51416636619699" lon="10.798866482501065"><ele>99.33333333333334</ele><time>2026-04-26T10:36:33Z</time></trkpt><trkpt lat="45.51402619154716" lon="10.7987483718308"><ele>100.0</ele><time>2026-04-26T10:36:34Z</time></trkpt><trkpt lat="45.51387640474775" lon="10.798625961931942"><ele>100.66666666666667</ele><time>2026-04-26T10:36:35Z</time></trkpt><trkpt lat="45.51371790054366" lon="10.798499686204428"><ele>101.33333333333334</ele><time>2026-04-26T10:36:36Z</time></trkpt><trkpt lat="45.51355243738246" lon="10.798378029462546"><ele>102.0</ele><time>2026-04-26T10:36:37Z</time></trkpt><trkpt lat="45.513377911422324" lon="10.798253960861187"><ele>102.0</ele><time>2026-04-26T10:36:38Z</time></trkpt><trkpt lat="45.51319805876659" lon="10.798127028168052"><ele>102.0</ele><time>2026-04-26T10:36:39Z</time></trkpt><trkpt lat="45.513013734348604" lon="10.7979968088265"><ele>102.0</ele><time>2026-04-26T10:36:40Z</time></trkpt><trkpt lat="45.51282439421833" lon="10.797869591545277"><ele>102.33333333333334</ele><time>2026-04-26T10:36:41Z</time></trkpt><trkpt lat="45.512634785786794" lon="10.797761901043268"><ele>102.66666666666667</ele><time>2026-04-26T10:36:42Z</time></trkpt><trkpt lat="45.51244059966425" lon="10.797677014226606"><ele>103.0</ele><time>2026-04-26T10:36:43Z</time></trkpt><trkpt lat="45.512242502611045" lon="10.79761594268472"><ele>106.0</ele><time>2026-04-26T10:36:44Z</time></trkpt><trkpt lat="45.51204556831295" lon="10.797568293684039"><ele>109.0</ele><time>2026-04-26T10:36:45Z</time></trkpt><trkpt lat="45.51185041173769" lon="10.797520305054116"><ele>112.0</ele><time>2026-04-26T10:36:46Z</time></trkpt><trkpt lat="45.511662293296794" lon="10.797449830686787"><ele>112.0</ele><time>2026-04-26T10:36:47Z</time></trkpt><trkpt lat="45.51147649975798" lon="10.79739670769212"><ele>112.0</ele><time>2026-04-26T10:36:48Z</time></trkpt><trkpt lat="45.51131146568161" lon="10.79734952033898"><ele>112.0</ele><time>2026-04-26T10:36:49Z</time></trkpt><trkpt lat="45.511158594214464" lon="10.797305810579331"><ele>112.5</ele><time>2026-04-26T10:36:50Z</time></trkpt><trkpt lat="45.51101506934177" lon="10.797277921271858"><ele>113.0</ele><time>2026-04-26T10:36:51Z</time></trkpt><trkpt lat="45.51087163544864" lon="10.79722299055178"><ele>113.5</ele><time>2026-04-26T10:36:52Z</time></trkpt><trkpt lat="45.51072318743502" lon="10.797181636639367"><ele>114.0</ele><time>2026-04-26T10:36:53Z</time></trkpt><trkpt lat="45.510571545048165" lon="10.79715543186002"><ele>114.0</ele><time>2026-04-26T10:36:54Z</time></trkpt><trkpt lat="45.51041631423517" lon="10.797148827650682"><ele>114.0</ele><time>2026-04-26T10:36:55Z</time></trkpt><trkpt lat="45.51025575236116" lon="10.797163153998387"><ele>114.0</ele><time>2026-04-26T10:36:56Z</time></trkpt><trkpt lat="45.51008839815426" lon="10.797197207808754"><ele>115.0</ele><time>2026-04-26T10:36:57Z</time></trkpt><trkpt lat="45.50991320874422" lon="10.797237241238959"><ele>116.0</ele><time>2026-04-26T10:36:58Z</time></trkpt><trkpt lat="45.50974032561949" lon="10.797275241102547"><ele>117.0</ele><time>2026-04-26T10:36:59Z</time></trkpt><trkpt lat="45.509575709653696" lon="10.797310844401178"><ele>118.5</ele><time>2026-04-26T10:37:00Z</time></trkpt><trkpt lat="45.50942999463188" lon="10.797342324918807"><ele>120.0</ele><time>2026-04-26T10:37:01Z</time></trkpt><trkpt lat="45.50930368482643" lon="10.797368771842622"><ele>121.5</ele><time>2026-04-26T10:37:02Z</time></trkpt><trkpt lat="45.50919237396084" lon="10.797350966173358"><ele>123.0</ele><time>2026-04-26T10:37:03Z</time></trkpt><trkpt lat="45.50910220617392" lon="10.797328470463178"><ele>123.0</ele><time>2026-04-26T10:37:04Z</time></trkpt><trkpt lat="45.509011349011104" lon="10.797288369665402"><ele>123.00000000000001</ele><time>2026-04-26T10:37:05Z</time></trkpt><trkpt lat="45.5089591074353" lon="10.797201519035283"><ele>123.00000000000001</ele><time>2026-04-26T10:37:06Z</time></trkpt><trkpt lat="45.508888219869775" lon="10.797121843596774"><ele>123.0</ele><time>2026-04-26T10:37:07Z</time></trkpt><trkpt lat="45.50881176128586" lon="10.797035680123138"><ele>123.0</ele><time>2026-04-26T10:37:08Z</time></trkpt><trkpt lat="45.5087367154544" lon="10.796946955825488"><ele>124.0</ele><time>2026-04-26T10:37:09Z</time></trkpt><trkpt lat="45.50866138016608" lon="10.79685751526586"><ele>125.00000000000001</ele><time>2026-04-26T10:37:10Z</time></trkpt><trkpt lat="45.50858752694786" lon="10.796765052145947"><ele>126.00000000000001</ele><time>2026-04-26T10:37:11Z</time></trkpt><trkpt lat="45.50851466520557" lon="10.796661221331862"><ele>127.0</ele><time>2026-04-26T10:37:12Z</time></trkpt><trkpt lat="45.508439792668554" lon="10.796540610448314"><ele>128.0</ele><time>2026-04-26T10:37:13Z</time></trkpt><trkpt lat="45.50834438577214" lon="10.796417442421516"><ele>130.75</ele><time>2026-04-26T10:37:14Z</time></trkpt><trkpt lat="45.50826432451397" lon="10.796257406188733"><ele>133.5</ele><time>2026-04-26T10:37:15Z</time></trkpt><trkpt lat="45.50817337485061" lon="10.79610506404196"><ele>136.25</ele><time>2026-04-26T10:37:16Z</time></trkpt><trkpt lat="45.50807366133652" lon="10.795974398567427"><ele>139.0</ele><time>2026-04-26T10:37:17Z</time></trkpt><trkpt lat="45.50796799189561" lon="10.795856798404543"><ele>141.5</ele><time>2026-04-26T10:37:18Z</time></trkpt><trkpt lat="45.507868761953745" lon="10.795760702318647"><ele>144.0</ele><time>2026-04-26T10:37:19Z</time></trkpt><trkpt lat="45.50776796815586" lon="10.795671431823756"><ele>146.5</ele><time>2026-04-26T10:37:20Z</time></trkpt><trkpt lat="45.507660033387076" lon="10.795588792478926"><ele>149.0</ele><time>2026-04-26T10:37:21Z</time></trkpt><trkpt lat="45.50755160495682" lon="10.79550895372103"><ele>149.0</ele><time>2026-04-26T10:37:22Z</time></trkpt><trkpt lat="45.507444208259415" lon="10.795428259008407"><ele>149.0</ele><time>2026-04-26T10:37:23Z</time></trkpt><trkpt lat="45.5073371395205" lon="10.795347824883919"><ele>149.0</ele><time>2026-04-26T10:37:24Z</time></trkpt><trkpt lat="45.50723656234649" lon="10.79527189600047"><ele>149.0</ele><time>2026-04-26T10:37:25Z</time></trkpt><trkpt lat="45.50714273135669" lon="10.79519446658708"><ele>149.0</ele><time>2026-04-26T10:37:26Z</time></trkpt><trkpt lat="45.507060151534695" lon="10.795109300887733"><ele>149.0</ele><time>2026-04-26T10:37:27Z</time></trkpt><trkpt lat="45.50700722403763" lon="10.794995243191458"><ele>149.0</ele><time>2026-04-26T10:37:28Z</time></trkpt><trkpt lat="45.50699436524694" lon="10.79485761690878"><ele>149.0</ele><time>2026-04-26T10:37:29Z</time></trkpt><trkpt lat="45.50704055770954" lon="10.794737728221994"><ele>149.0</ele><time>2026-04-26T10:37:30Z</time></trkpt><trkpt lat="45.50711004362361" lon="10.794633054188715"><ele>149.0</ele><time>2026-04-26T10:37:31Z</time></trkpt><trkpt lat="45.50719182559367" lon="10.794531905354708"><ele>149.0</ele><time>2026-04-26T10:37:32Z</time></trkpt><trkpt lat="45.50727279908038" lon="10.794412438546251"><ele>149.0</ele><time>2026-04-26T10:37:33Z</time></trkpt><trkpt lat="45.50736421727118" lon="10.79429776352448"><ele>149.0</ele><time>2026-04-26T10:37:34Z</time></trkpt><trkpt lat="45.50746551722552" lon="10.794183907845678"><ele>149.5</ele><time>2026-04-26T10:37:35Z</time></trkpt><trkpt lat="45.507556077784784" lon="10.794076926625785"><ele>150.0</ele><time>2026-04-26T10:37:36Z</time></trkpt><trkpt lat="45.507646919093816" lon="10.793965857755403"><ele>150.5</ele><time>2026-04-26T10:37:37Z</time></trkpt><trkpt lat="45.507753028879876" lon="10.793843151316436"><ele>151.0</ele><time>2026-04-26T10:37:38Z</time></trkpt><trkpt lat="45.5078583417887" lon="10.793718261087319"><ele>151.0</ele><time>2026-04-26T10:37:39Z</time></trkpt><trkpt lat="45.507972251949745" lon="10.793586297701257"><ele>151.0</ele><time>2026-04-26T10:37:40Z</time></trkpt><trkpt lat="45.50809058312873" lon="10.793447115072974"><ele>151.0</ele><time>2026-04-26T10:37:41Z</time></trkpt><trkpt lat="45.50821095801017" lon="10.793310866597254"><ele>151.0</ele><time>2026-04-26T10:37:42Z</time></trkpt><trkpt lat="45.508333326586175" lon="10.793169206201716"><ele>151.0</ele><time>2026-04-26T10:37:43Z</time></trkpt><trkpt lat="45.50845829124528" lon="10.793027697218665"><ele>151.0</ele><time>2026-04-26T10:37:44Z</time></trkpt><trkpt lat="45.50858668455989" lon="10.792886090689908"><ele>151.0</ele><time>2026-04-26T10:37:45Z</time></trkpt><trkpt lat="45.508723454697474" lon="10.792738071656688"><ele>151.0</ele><time>2026-04-26T10:37:46Z</time></trkpt><trkpt lat="45.50886466084348" lon="10.79258490975905"><ele>151.0</ele><time>2026-04-26T10:37:47Z</time></trkpt><trkpt lat="45.50900727589399" lon="10.792423791752988"><ele>151.33333333333334</ele><time>2026-04-26T10:37:48Z</time></trkpt><trkpt lat="45.5091378901268" lon="10.792252860917754"><ele>151.66666666666666</ele><time>2026-04-26T10:37:49Z</time></trkpt><trkpt lat="45.509248783424134" lon="10.792059611036876"><ele>152.0</ele><time>2026-04-26T10:37:50Z</time></trkpt><trkpt lat="45.509338565318345" lon="10.791846199936248"><ele>151.66666666666666</ele><time>2026-04-26T10:37:51Z</time></trkpt><trkpt lat="45.5094129792633" lon="10.791628379774926"><ele>151.33333333333334</ele><time>2026-04-26T10:37:52Z</time></trkpt><trkpt lat="45.509479861867014" lon="10.79141272526778"><ele>151.0</ele><time>2026-04-26T10:37:53Z</time></trkpt><trkpt lat="45.50953879247419" lon="10.791181403299666"><ele>151.66666666666669</ele><time>2026-04-26T10:37:54Z</time></trkpt><trkpt lat="45.509582099144104" lon="10.790938040491781"><ele>152.33333333333334</ele><time>2026-04-26T10:37:55Z</time></trkpt><trkpt lat="45.50960359148699" lon="10.790684436911587"><ele>153.0</ele><time>2026-04-26T10:37:56Z</time></trkpt><trkpt lat="45.509610707852275" lon="10.790422493229421"><ele>153.33333333333334</ele><time>2026-04-26T10:37:57Z</time></trkpt><trkpt lat="45.5096036142034" lon="10.790164258366877"><ele>153.66666666666669</ele><time>2026-04-26T10:37:58Z</time></trkpt><trkpt lat="45.50959556191379" lon="10.78990376136871"><ele>154.0</ele><time>2026-04-26T10:37:59Z</time></trkpt><trkpt lat="45.50959192356203" lon="10.789649167175847"><ele>154.0</ele><time>2026-04-26T10:38:00Z</time></trkpt><trkpt lat="45.509596174824324" lon="10.789397712982927"><ele>154.0</ele><time>2026-04-26T10:38:01Z</time></trkpt><trkpt lat="45.50961391720652" lon="10.78915016193307"><ele>154.0</ele><time>2026-04-26T10:38:02Z</time></trkpt><trkpt lat="45.50963942012453" lon="10.788904035513223"><ele>153.33333333333334</ele><time>2026-04-26T10:38:03Z</time></trkpt><trkpt lat="45.509674934485595" lon="10.788658324826518"><ele>152.66666666666666</ele><time>2026-04-26T10:38:04Z</time></trkpt><trkpt lat="45.50973203201426" lon="10.788424956701313"><ele>152.0</ele><time>2026-04-26T10:38:05Z</time></trkpt><trkpt lat="45.50977021497101" lon="10.78817787361933"><ele>151.66666666666666</ele><time>2026-04-26T10:38:06Z</time></trkpt><trkpt lat="45.50976742606436" lon="10.787920985135194"><ele>151.33333333333334</ele><time>2026-04-26T10:38:07Z</time></trkpt><trkpt lat="45.509753575313646" lon="10.78766599287412"><ele>151.0</ele><time>2026-04-26T10:38:08Z</time></trkpt><trkpt lat="45.5097234044706" lon="10.787423712485419"><ele>151.33333333333334</ele><time>2026-04-26T10:38:09Z</time></trkpt><trkpt lat="45.509685762815636" lon="10.78719937556975"><ele>151.66666666666666</ele><time>2026-04-26T10:38:10Z</time></trkpt><trkpt lat="45.509645777119154" lon="10.786992554299776"><ele>152.0</ele><time>2026-04-26T10:38:11Z</time></trkpt><trkpt lat="45.50960056207933" lon="10.786782821344985"><ele>151.5</ele><time>2026-04-26T10:38:12Z</time></trkpt><trkpt lat="45.509547395682524" lon="10.786578860796267"><ele>151.0</ele><time>2026-04-26T10:38:13Z</time></trkpt><trkpt lat="45.509488448919655" lon="10.786379337243211"><ele>150.5</ele><time>2026-04-26T10:38:14Z</time></trkpt><trkpt lat="45.50943246840251" lon="10.786193885493622"><ele>150.0</ele><time>2026-04-26T10:38:15Z</time></trkpt><trkpt lat="45.50938020562966" lon="10.786021378021111"><ele>150.4</ele><time>2026-04-26T10:38:16Z</time></trkpt><trkpt lat="45.50933412513279" lon="10.78587504041966"><ele>150.8</ele><time>2026-04-26T10:38:17Z</time></trkpt><trkpt lat="45.50931215532433" lon="10.785731459766476"><ele>151.2</ele><time>2026-04-26T10:38:18Z</time></trkpt><trkpt lat="45.509281611637824" lon="10.78559272193878"><ele>151.6</ele><time>2026-04-26T10:38:19Z</time></trkpt><trkpt lat="45.50925772212926" lon="10.785450728860624"><ele>152.0</ele><time>2026-04-26T10:38:20Z</time></trkpt><trkpt lat="45.50923883867519" lon="10.785298783788273"><ele>152.4</ele><time>2026-04-26T10:38:21Z</time></trkpt><trkpt lat="45.50921085246234" lon="10.785148711744272"><ele>152.79999999999998</ele><time>2026-04-26T10:38:22Z</time></trkpt><trkpt lat="45.509206212919146" lon="10.7850023066475"><ele>153.2</ele><time>2026-04-26T10:38:23Z</time></trkpt><trkpt lat="45.50920497938557" lon="10.784858617817187"><ele>153.6</ele><time>2026-04-26T10:38:24Z</time></trkpt><trkpt lat="45.50922585006223" lon="10.784711931324642"><ele>154.0</ele><time>2026-04-26T10:38:25Z</time></trkpt><trkpt lat="45.5092332583775" lon="10.784561518917732"><ele>154.0</ele><time>2026-04-26T10:38:26Z</time></trkpt><trkpt lat="45.50924117382611" lon="10.784410835031771"><ele>154.0</ele><time>2026-04-26T10:38:27Z</time></trkpt><trkpt lat="45.50924815618826" lon="10.784276272067972"><ele>154.0</ele><time>2026-04-26T10:38:28Z</time></trkpt><trkpt lat="45.509255021984764" lon="10.784143978622167"><ele>154.0</ele><time>2026-04-26T10:38:29Z</time></trkpt><trkpt lat="45.50926291755587" lon="10.783992917844405"><ele>154.0</ele><time>2026-04-26T10:38:30Z</time></trkpt><trkpt lat="45.509271134745276" lon="10.783830902294623"><ele>154.0</ele><time>2026-04-26T10:38:31Z</time></trkpt><trkpt lat="45.5092798597206" lon="10.783655897918148"><ele>154.0</ele><time>2026-04-26T10:38:32Z</time></trkpt><trkpt lat="45.50927469809015" lon="10.783474693745648"><ele>154.0</ele><time>2026-04-26T10:38:33Z</time></trkpt><trkpt lat="45.509290218811884" lon="10.783282755564265"><ele>154.0</ele><time>2026-04-26T10:38:34Z</time></trkpt><trkpt lat="45.5092985143952" lon="10.783068310735736"><ele>154.0</ele><time>2026-04-26T10:38:35Z</time></trkpt><trkpt lat="45.509310017452606" lon="10.782827538365321"><ele>154.0</ele><time>2026-04-26T10:38:36Z</time></trkpt><trkpt lat="45.509320267095404" lon="10.782578361035116"><ele>154.0</ele><time>2026-04-26T10:38:37Z</time></trkpt><trkpt lat="45.509318159379575" lon="10.782317804588978"><ele>154.0</ele><time>2026-04-26T10:38:38Z</time></trkpt><trkpt lat="45.50930790809069" lon="10.782058030631864"><ele>154.0</ele><time>2026-04-26T10:38:39Z</time></trkpt><trkpt lat="45.50927292928471" lon="10.781793550130597"><ele>154.0</ele><time>2026-04-26T10:38:40Z</time></trkpt><trkpt lat="45.50925497660716" lon="10.78152008099413"><ele>154.0</ele><time>2026-04-26T10:38:41Z</time></trkpt><trkpt lat="45.50923191272039" lon="10.781302846174096"><ele>154.0</ele><time>2026-04-26T10:38:42Z</time></trkpt><trkpt lat="45.50920979361793" lon="10.781098868785321"><ele>154.0</ele><time>2026-04-26T10:38:43Z</time></trkpt><trkpt lat="45.509193424562795" lon="10.780908457804784"><ele>154.0</ele><time>2026-04-26T10:38:44Z</time></trkpt><trkpt lat="45.50917467492616" lon="10.780714729503762"><ele>154.75</ele><time>2026-04-26T10:38:45Z</time></trkpt><trkpt lat="45.50916034783376" lon="10.780533870742776"><ele>155.5</ele><time>2026-04-26T10:38:46Z</time></trkpt><trkpt lat="45.50914635736127" lon="10.780367553242357"><ele>156.25</ele><time>2026-04-26T10:38:47Z</time></trkpt><trkpt lat="45.50913054266881" lon="10.78020086483854"><ele>157.0</ele><time>2026-04-26T10:38:48Z</time></trkpt><trkpt lat="45.50911222988248" lon="10.780042608125886"><ele>158.25</ele><time>2026-04-26T10:38:49Z</time></trkpt><trkpt lat="45.509094107678514" lon="10.779887504146066"><ele>159.5</ele><time>2026-04-26T10:38:50Z</time></trkpt><trkpt lat="45.50906428361868" lon="10.77972222320965"><ele>160.75</ele><time>2026-04-26T10:38:51Z</time></trkpt><trkpt lat="45.509019851820895" lon="10.779554879200527"><ele>162.0</ele><time>2026-04-26T10:38:52Z</time></trkpt><trkpt lat="45.50896570783473" lon="10.779379906266067"><ele>161.75</ele><time>2026-04-26T10:38:53Z</time></trkpt><trkpt lat="45.50890858939831" lon="10.779195855585412"><ele>161.5</ele><time>2026-04-26T10:38:54Z</time></trkpt><trkpt lat="45.50883992060977" lon="10.77900684308976"><ele>161.25</ele><time>2026-04-26T10:38:55Z</time></trkpt><trkpt lat="45.508776556062045" lon="10.778825712871283"><ele>161.0</ele><time>2026-04-26T10:38:56Z</time></trkpt><trkpt lat="45.50872166323723" lon="10.77867278215346"><ele>161.0</ele><time>2026-04-26T10:38:57Z</time></trkpt><trkpt lat="45.50867042047107" lon="10.778536861283992"><ele>161.0</ele><time>2026-04-26T10:38:58Z</time></trkpt><trkpt lat="45.50864723297418" lon="10.778390962758875"><ele>161.0</ele><time>2026-04-26T10:38:59Z</time></trkpt><trkpt lat="45.50865391616733" lon="10.778254557239665"><ele>161.0</ele><time>2026-04-26T10:39:00Z</time></trkpt><trkpt lat="45.50870794131839" lon="10.778130588674841"><ele>161.0</ele><time>2026-04-26T10:39:01Z</time></trkpt><trkpt lat="45.50878897209222" lon="10.778020538337266"><ele>161.75</ele><time>2026-04-26T10:39:02Z</time></trkpt><trkpt lat="45.50888976920784" lon="10.777921831217084"><ele>162.5</ele><time>2026-04-26T10:39:03Z</time></trkpt><trkpt lat="45.509005871773454" lon="10.777834712359986"><ele>163.25</ele><time>2026-04-26T10:39:04Z</time></trkpt><trkpt lat="45.509133331251235" lon="10.77774280633906"><ele>164.0</ele><time>2026-04-26T10:39:05Z</time></trkpt><trkpt lat="45.509266584922216" lon="10.777638888284974"><ele>162.66666666666666</ele><time>2026-04-26T10:39:06Z</time></trkpt><trkpt lat="45.509400270998775" lon="10.777533443870842"><ele>161.33333333333334</ele><time>2026-04-26T10:39:07Z</time></trkpt><trkpt lat="45.509530195321645" lon="10.77742532859087"><ele>160.0</ele><time>2026-04-26T10:39:08Z</time></trkpt><trkpt lat="45.50966062247536" lon="10.777316879168813"><ele>160.0</ele><time>2026-04-26T10:39:09Z</time></trkpt><trkpt lat="45.50979829458105" lon="10.777200994020541"><ele>160.0</ele><time>2026-04-26T10:39:10Z</time></trkpt><trkpt lat="45.509933848686465" lon="10.777082992649959"><ele>160.0</ele><time>2026-04-26T10:39:11Z</time></trkpt><trkpt lat="45.510073441756134" lon="10.776952257705473"><ele>159.33333333333334</ele><time>2026-04-26T10:39:12Z</time></trkpt><trkpt lat="45.51020772311714" lon="10.776805259348249"><ele>158.66666666666666</ele><time>2026-04-26T10:39:13Z</time></trkpt><trkpt lat="45.51033250219306" lon="10.776644520804417"><ele>158.0</ele><time>2026-04-26T10:39:14Z</time></trkpt><trkpt lat="45.51045130695513" lon="10.77647437691888"><ele>158.0</ele><time>2026-04-26T10:39:15Z</time></trkpt><trkpt lat="45.510562566953425" lon="10.776309642682687"><ele>158.0</ele><time>2026-04-26T10:39:16Z</time></trkpt><trkpt lat="45.510661930313" lon="10.776157946869574"><ele>158.0</ele><time>2026-04-26T10:39:17Z</time></trkpt><trkpt lat="45.510752865435165" lon="10.776005563073033"><ele>158.0</ele><time>2026-04-26T10:39:18Z</time></trkpt><trkpt lat="45.510837738139415" lon="10.775836066630108"><ele>157.75</ele><time>2026-04-26T10:39:19Z</time></trkpt><trkpt lat="45.510914952778165" lon="10.775650399255955"><ele>157.5</ele><time>2026-04-26T10:39:20Z</time></trkpt><trkpt lat="45.51097871618644" lon="10.77545620940892"><ele>157.25</ele><time>2026-04-26T10:39:21Z</time></trkpt><trkpt lat="45.511028634482166" lon="10.775273098667451"><ele>157.0</ele><time>2026-04-26T10:39:22Z</time></trkpt><trkpt lat="45.51107582640661" lon="10.77511188839003"><ele>157.6</ele><time>2026-04-26T10:39:23Z</time></trkpt><trkpt lat="45.5111210298229" lon="10.77496553836621"><ele>158.2</ele><time>2026-04-26T10:39:24Z</time></trkpt><trkpt lat="45.51116413603665" lon="10.77483259473113"><ele>158.8</ele><time>2026-04-26T10:39:25Z</time></trkpt><trkpt lat="45.511207153619985" lon="10.774708343467253"><ele>159.4</ele><time>2026-04-26T10:39:26Z</time></trkpt><trkpt lat="45.51125466091429" lon="10.774594625576006"><ele>160.0</ele><time>2026-04-26T10:39:27Z</time></trkpt><trkpt lat="45.51132656375517" lon="10.77450139728569"><ele>160.0</ele><time>2026-04-26T10:39:28Z</time></trkpt><trkpt lat="45.51139973597048" lon="10.774392262685874"><ele>160.0</ele><time>2026-04-26T10:39:29Z</time></trkpt><trkpt lat="45.51149797513482" lon="10.77425823952606"><ele>160.0</ele><time>2026-04-26T10:39:30Z</time></trkpt><trkpt lat="45.51161007114956" lon="10.774085029549536"><ele>160.0</ele><time>2026-04-26T10:39:31Z</time></trkpt><trkpt lat="45.51175871240609" lon="10.773919378962493"><ele>159.66666666666669</ele><time>2026-04-26T10:39:32Z</time></trkpt><trkpt lat="45.51192442856101" lon="10.773735939351775"><ele>159.33333333333334</ele><time>2026-04-26T10:39:33Z</time></trkpt><trkpt lat="45.512090914558904" lon="10.77354320161898"><ele>159.0</ele><time>2026-04-26T10:39:34Z</time></trkpt><trkpt lat="45.512250735676716" lon="10.77333812353629"><ele>158.0</ele><time>2026-04-26T10:39:35Z</time></trkpt><trkpt lat="45.51239850662055" lon="10.773111042815952"><ele>157.0</ele><time>2026-04-26T10:39:36Z</time></trkpt><trkpt lat="45.51253417714654" lon="10.772861502095894"><ele>156.0</ele><time>2026-04-26T10:39:37Z</time></trkpt><trkpt lat="45.51266500450348" lon="10.772589916430393"><ele>155.0</ele><time>2026-04-26T10:39:38Z</time></trkpt><trkpt lat="45.512799028679616" lon="10.77231153054004"><ele>154.0</ele><time>2026-04-26T10:39:39Z</time></trkpt><trkpt lat="45.51293324829521" lon="10.772054419435017"><ele>153.0</ele><time>2026-04-26T10:39:40Z</time></trkpt><trkpt lat="45.51305865932242" lon="10.771828051049601"><ele>152.0</ele><time>2026-04-26T10:39:41Z</time></trkpt><trkpt lat="45.51318134115935" lon="10.771604363200348"><ele>151.0</ele><time>2026-04-26T10:39:42Z</time></trkpt><trkpt lat="45.5133108281366" lon="10.771367220291003"><ele>151.0</ele><time>2026-04-26T10:39:43Z</time></trkpt><trkpt lat="45.51347413596648" lon="10.77112390655339"><ele>151.0</ele><time>2026-04-26T10:39:44Z</time></trkpt><trkpt lat="45.513625120349765" lon="10.770861799887026"><ele>151.66666666666669</ele><time>2026-04-26T10:39:45Z</time></trkpt><trkpt lat="45.513754514903916" lon="10.770604651670249"><ele>152.33333333333334</ele><time>2026-04-26T10:39:46Z</time></trkpt><trkpt lat="45.513892390329175" lon="10.77039788683745"><ele>153.0</ele><time>2026-04-26T10:39:47Z</time></trkpt><trkpt lat="45.514013425023734" lon="10.770187867507456"><ele>153.33333333333334</ele><time>2026-04-26T10:39:48Z</time></trkpt><trkpt lat="45.51411978089071" lon="10.769954477887469"><ele>153.66666666666669</ele><time>2026-04-26T10:39:49Z</time></trkpt><trkpt lat="45.5142138897282" lon="10.769706571036895"><ele>154.0</ele><time>2026-04-26T10:39:50Z</time></trkpt><trkpt lat="45.51430124565135" lon="10.769453965472374"><ele>154.33333333333334</ele><time>2026-04-26T10:39:51Z</time></trkpt><trkpt lat="45.51438198997046" lon="10.769214182151282"><ele>154.66666666666666</ele><time>2026-04-26T10:39:52Z</time></trkpt><trkpt lat="45.514455236356206" lon="10.768992821932118"><ele>155.0</ele><time>2026-04-26T10:39:53Z</time></trkpt><trkpt lat="45.51451738694125" lon="10.768785246215678"><ele>155.0</ele><time>2026-04-26T10:39:54Z</time></trkpt><trkpt lat="45.51456443551031" lon="10.768603613032893"><ele>155.0</ele><time>2026-04-26T10:39:55Z</time></trkpt><trkpt lat="45.51459871055235" lon="10.768450822433012"><ele>155.0</ele><time>2026-04-26T10:39:56Z</time></trkpt><trkpt lat="45.51462817392264" lon="10.768342491713568"><ele>155.0</ele><time>2026-04-26T10:39:57Z</time></trkpt><trkpt lat="45.51468079765797" lon="10.768266501903557"><ele>155.0</ele><time>2026-04-26T10:39:58Z</time></trkpt><trkpt lat="45.514871367719095" lon="10.76823323968772"><ele>155.5</ele><time>2026-04-26T10:40:00Z</time></trkpt><trkpt lat="45.51499762945893" lon="10.76827321669253"><ele>156.0</ele><time>2026-04-26T10:40:01Z</time></trkpt><trkpt lat="45.51512992772898" lon="10.768313726094828"><ele>156.5</ele><time>2026-04-26T10:40:02Z</time></trkpt><trkpt lat="45.515258162644436" lon="10.768333576798625"><ele>157.0</ele><time>2026-04-26T10:40:03Z</time></trkpt><trkpt lat="45.515366571878054" lon="10.768342116558156"><ele>156.33333333333334</ele><time>2026-04-26T10:40:04Z</time></trkpt><trkpt lat="45.51545961702465" lon="10.768355816880709"><ele>155.66666666666669</ele><time>2026-04-26T10:40:05Z</time></trkpt><trkpt lat="45.51554275283049" lon="10.768379609191475"><ele>155.0</ele><time>2026-04-26T10:40:06Z</time></trkpt><trkpt lat="45.51561534852513" lon="10.768423107695671"><ele>154.33333333333334</ele><time>2026-04-26T10:40:07Z</time></trkpt><trkpt lat="45.515674541848256" lon="10.768488637751528"><ele>153.66666666666666</ele><time>2026-04-26T10:40:08Z</time></trkpt><trkpt lat="45.515713654131204" lon="10.768569774690334"><ele>153.0</ele><time>2026-04-26T10:40:09Z</time></trkpt><trkpt lat="45.51573283742453" lon="10.768665252395348"><ele>153.0</ele><time>2026-04-26T10:40:10Z</time></trkpt><trkpt lat="45.51573380659493" lon="10.768760119603721"><ele>153.0</ele><time>2026-04-26T10:40:11Z</time></trkpt><trkpt lat="45.515689712930936" lon="10.768927818588342"><ele>153.0</ele><time>2026-04-26T10:40:13Z</time></trkpt><trkpt lat="45.51564093036661" lon="10.769012972497045"><ele>153.0</ele><time>2026-04-26T10:40:14Z</time></trkpt><trkpt lat="45.51557630452044" lon="10.769081163275176"><ele>153.0</ele><time>2026-04-26T10:40:15Z</time></trkpt><trkpt lat="45.515492283221164" lon="10.769117280337342"><ele>153.0</ele><time>2026-04-26T10:40:16Z</time></trkpt><trkpt lat="45.51540768630308" lon="10.76915406659353"><ele>153.25</ele><time>2026-04-26T10:40:17Z</time></trkpt><trkpt lat="45.51529206850463" lon="10.76909283024946"><ele>153.5</ele><time>2026-04-26T10:40:18Z</time></trkpt><trkpt lat="45.51518244420616" lon="10.76907240843714"><ele>153.75</ele><time>2026-04-26T10:40:19Z</time></trkpt><trkpt lat="45.515069857792334" lon="10.769063448753238"><ele>154.0</ele><time>2026-04-26T10:40:20Z</time></trkpt><trkpt lat="45.5149463081626" lon="10.769066009192057"><ele>154.0</ele><time>2026-04-26T10:40:21Z</time></trkpt><trkpt lat="45.51480275367441" lon="10.769071375425202"><ele>154.0</ele><time>2026-04-26T10:40:22Z</time></trkpt><trkpt lat="45.514628582406864" lon="10.769060168073665"><ele>154.0</ele><time>2026-04-26T10:40:23Z</time></trkpt><trkpt lat="45.5144283372647" lon="10.769022616875924"><ele>154.33333333333334</ele><time>2026-04-26T10:40:24Z</time></trkpt><trkpt lat="45.514217166634175" lon="10.768967976228508"><ele>154.66666666666666</ele><time>2026-04-26T10:40:25Z</time></trkpt><trkpt lat="45.51399508438301" lon="10.768908063670736"><ele>155.0</ele><time>2026-04-26T10:40:26Z</time></trkpt><trkpt lat="45.51374979694453" lon="10.768848803014926"><ele>154.5</ele><time>2026-04-26T10:40:27Z</time></trkpt><trkpt lat="45.51349395950616" lon="10.768796111292735"><ele>154.0</ele><time>2026-04-26T10:40:28Z</time></trkpt><trkpt lat="45.513223114131826" lon="10.76875103460707"><ele>154.0</ele><time>2026-04-26T10:40:29Z</time></trkpt><trkpt lat="45.51295235273547" lon="10.768706401322312"><ele>154.0</ele><time>2026-04-26T10:40:30Z</time></trkpt><trkpt lat="45.512684032600035" lon="10.768660285957314"><ele>155.5</ele><time>2026-04-26T10:40:31Z</time></trkpt><trkpt lat="45.512417008200686" lon="10.768613859350364"><ele>157.0</ele><time>2026-04-26T10:40:32Z</time></trkpt><trkpt lat="45.51216472797836" lon="10.768571790045259"><ele>157.5</ele><time>2026-04-26T10:40:33Z</time></trkpt><trkpt lat="45.511915957809585" lon="10.768531718318068"><ele>158.0</ele><time>2026-04-26T10:40:34Z</time></trkpt><trkpt lat="45.5116615778182" lon="10.768492766970695"><ele>154.0</ele><time>2026-04-26T10:40:35Z</time></trkpt><trkpt lat="45.51139827790944" lon="10.76845303337292"><ele>150.0</ele><time>2026-04-26T10:40:36Z</time></trkpt><trkpt lat="45.51112940113821" lon="10.768411383915856"><ele>146.5</ele><time>2026-04-26T10:40:37Z</time></trkpt><trkpt lat="45.51085164790699" lon="10.768371759765438"><ele>143.0</ele><time>2026-04-26T10:40:38Z</time></trkpt><trkpt lat="45.51057049446962" lon="10.76833581436208"><ele>141.0</ele><time>2026-04-26T10:40:39Z</time></trkpt><trkpt lat="45.51028409769254" lon="10.768298761061207"><ele>139.0</ele><time>2026-04-26T10:40:40Z</time></trkpt><trkpt lat="45.50999807979199" lon="10.768260260829392"><ele>139.0</ele><time>2026-04-26T10:40:41Z</time></trkpt><trkpt lat="45.50971515086515" lon="10.768216587737939"><ele>139.0</ele><time>2026-04-26T10:40:42Z</time></trkpt><trkpt lat="45.50942185579564" lon="10.768163320032258"><ele>137.5</ele><time>2026-04-26T10:40:43Z</time></trkpt><trkpt lat="45.50912343477878" lon="10.768097800536234"><ele>136.0</ele><time>2026-04-26T10:40:44Z</time></trkpt><trkpt lat="45.508829389725676" lon="10.768020196275854"><ele>136.0</ele><time>2026-04-26T10:40:45Z</time></trkpt><trkpt lat="45.50854041243242" lon="10.767957039842083"><ele>136.0</ele><time>2026-04-26T10:40:46Z</time></trkpt><trkpt lat="45.508254580439655" lon="10.767931141444913"><ele>136.0</ele><time>2026-04-26T10:40:47Z</time></trkpt><trkpt lat="45.5079772143606" lon="10.76792850834903"><ele>136.0</ele><time>2026-04-26T10:40:48Z</time></trkpt><trkpt lat="45.50769993122797" lon="10.767934435456214"><ele>135.5</ele><time>2026-04-26T10:40:49Z</time></trkpt><trkpt lat="45.50742069469262" lon="10.767949248336262"><ele>135.0</ele><time>2026-04-26T10:40:50Z</time></trkpt><trkpt lat="45.50714226481183" lon="10.76796884666974"><ele>135.0</ele><time>2026-04-26T10:40:51Z</time></trkpt><trkpt lat="45.50685922319904" lon="10.76798990914388"><ele>135.0</ele><time>2026-04-26T10:40:52Z</time></trkpt><trkpt lat="45.506575910056824" lon="10.768002490786834"><ele>135.0</ele><time>2026-04-26T10:40:53Z</time></trkpt><trkpt lat="45.506306698518586" lon="10.768006197408457"><ele>135.0</ele><time>2026-04-26T10:40:54Z</time></trkpt><trkpt lat="45.50603247932184" lon="10.768010335933765"><ele>135.0</ele><time>2026-04-26T10:40:55Z</time></trkpt><trkpt lat="45.50575861221985" lon="10.768016623494677"><ele>135.0</ele><time>2026-04-26T10:40:56Z</time></trkpt><trkpt lat="45.50548205147828" lon="10.768025369775273"><ele>137.0</ele><time>2026-04-26T10:40:57Z</time></trkpt><trkpt lat="45.50520758240611" lon="10.768037961458948"><ele>139.0</ele><time>2026-04-26T10:40:58Z</time></trkpt><trkpt lat="45.504931000017855" lon="10.768050043406383"><ele>139.0</ele><time>2026-04-26T10:40:59Z</time></trkpt><trkpt lat="45.504651910749516" lon="10.768062963686514"><ele>139.0</ele><time>2026-04-26T10:41:00Z</time></trkpt><trkpt lat="45.50437698282039" lon="10.76807542842428"><ele>141.0</ele><time>2026-04-26T10:41:01Z</time></trkpt><trkpt lat="45.50410616778757" lon="10.76808798762935"><ele>143.0</ele><time>2026-04-26T10:41:02Z</time></trkpt><trkpt lat="45.503845486600675" lon="10.768094591481669"><ele>142.0</ele><time>2026-04-26T10:41:03Z</time></trkpt><trkpt lat="45.50358626648852" lon="10.768100536149479"><ele>141.0</ele><time>2026-04-26T10:41:04Z</time></trkpt><trkpt lat="45.503329797471935" lon="10.768108012413032"><ele>141.0</ele><time>2026-04-26T10:41:05Z</time></trkpt><trkpt lat="45.50307248906837" lon="10.76811606283392"><ele>141.0</ele><time>2026-04-26T10:41:06Z</time></trkpt><trkpt lat="45.50281673129064" lon="10.768120233047531"><ele>139.5</ele><time>2026-04-26T10:41:07Z</time></trkpt><trkpt lat="45.50256359277562" lon="10.768125745389597"><ele>138.0</ele><time>2026-04-26T10:41:08Z</time></trkpt><trkpt lat="45.50230339930491" lon="10.768133260005827"><ele>135.5</ele><time>2026-04-26T10:41:09Z</time></trkpt><trkpt lat="45.502044548299914" lon="10.768140439784577"><ele>133.0</ele><time>2026-04-26T10:41:10Z</time></trkpt><trkpt lat="45.50177830898821" lon="10.76815506689575"><ele>133.0</ele><time>2026-04-26T10:41:11Z</time></trkpt><trkpt lat="45.5015097632293" lon="10.768163144644635"><ele>133.0</ele><time>2026-04-26T10:41:12Z</time></trkpt><trkpt lat="45.50124363016869" lon="10.768173619779732"><ele>133.0</ele><time>2026-04-26T10:41:13Z</time></trkpt><trkpt lat="45.500972757344705" lon="10.768181472855298"><ele>133.0</ele><time>2026-04-26T10:41:14Z</time></trkpt><trkpt lat="45.500704699768306" lon="10.768194106030686"><ele>133.0</ele><time>2026-04-26T10:41:15Z</time></trkpt><trkpt lat="45.50043266902438" lon="10.768205180439931"><ele>133.0</ele><time>2026-04-26T10:41:16Z</time></trkpt><trkpt lat="45.50016512359925" lon="10.768216588901277"><ele>132.5</ele><time>2026-04-26T10:41:17Z</time></trkpt><trkpt lat="45.499898224588925" lon="10.768226897689532"><ele>132.0</ele><time>2026-04-26T10:41:18Z</time></trkpt><trkpt lat="45.49963634753583" lon="10.768237926666364"><ele>130.5</ele><time>2026-04-26T10:41:19Z</time></trkpt><trkpt lat="45.49937085868573" lon="10.768244993703552"><ele>129.0</ele><time>2026-04-26T10:41:20Z</time></trkpt><trkpt lat="45.49910852011903" lon="10.768250196309616"><ele>129.0</ele><time>2026-04-26T10:41:21Z</time></trkpt><trkpt lat="45.49885071848049" lon="10.768256174758015"><ele>129.0</ele><time>2026-04-26T10:41:22Z</time></trkpt><trkpt lat="45.4985940769276" lon="10.768262764499696"><ele>130.0</ele><time>2026-04-26T10:41:23Z</time></trkpt><trkpt lat="45.49833802923384" lon="10.768269348717972"><ele>131.0</ele><time>2026-04-26T10:41:24Z</time></trkpt><trkpt lat="45.49808500819351" lon="10.768279821253849"><ele>129.0</ele><time>2026-04-26T10:41:25Z</time></trkpt><trkpt lat="45.49782943236377" lon="10.768289873531225"><ele>127.0</ele><time>2026-04-26T10:41:26Z</time></trkpt><trkpt lat="45.4975708078957" lon="10.768300298503327"><ele>127.0</ele><time>2026-04-26T10:41:27Z</time></trkpt><trkpt lat="45.497314552450824" lon="10.768311803979804"><ele>127.0</ele><time>2026-04-26T10:41:28Z</time></trkpt><trkpt lat="45.49706105228827" lon="10.768323966043052"><ele>128.0</ele><time>2026-04-26T10:41:29Z</time></trkpt><trkpt lat="45.49680188573124" lon="10.768332684113009"><ele>129.0</ele><time>2026-04-26T10:41:30Z</time></trkpt><trkpt lat="45.49654284391744" lon="10.76834027831448"><ele>129.0</ele><time>2026-04-26T10:41:31Z</time></trkpt><trkpt lat="45.49628579455855" lon="10.768346817079095"><ele>129.0</ele><time>2026-04-26T10:41:32Z</time></trkpt><trkpt lat="45.49603758367975" lon="10.768352320817568"><ele>128.0</ele><time>2026-04-26T10:41:33Z</time></trkpt><trkpt lat="45.49578960452255" lon="10.768355179047006"><ele>127.0</ele><time>2026-04-26T10:41:34Z</time></trkpt><trkpt lat="45.495547764803085" lon="10.768353791813892"><ele>128.0</ele><time>2026-04-26T10:41:35Z</time></trkpt><trkpt lat="45.49531067993886" lon="10.768338586047713"><ele>129.0</ele><time>2026-04-26T10:41:36Z</time></trkpt><trkpt lat="45.49508425029481" lon="10.768311553665049"><ele>129.0</ele><time>2026-04-26T10:41:37Z</time></trkpt><trkpt lat="45.4948513701494" lon="10.768277743148321"><ele>129.0</ele><time>2026-04-26T10:41:38Z</time></trkpt><trkpt lat="45.49461681605819" lon="10.768237561939436"><ele>128.0</ele><time>2026-04-26T10:41:39Z</time></trkpt><trkpt lat="45.494381174943534" lon="10.768183948625039"><ele>127.0</ele><time>2026-04-26T10:41:40Z</time></trkpt><trkpt lat="45.49414614443415" lon="10.768123691061088"><ele>127.0</ele><time>2026-04-26T10:41:41Z</time></trkpt><trkpt lat="45.49390556271532" lon="10.76805876210388"><ele>127.0</ele><time>2026-04-26T10:41:42Z</time></trkpt><trkpt lat="45.49366552465689" lon="10.767992673288221"><ele>126.5</ele><time>2026-04-26T10:41:43Z</time></trkpt><trkpt lat="45.49342598920144" lon="10.767928653898267"><ele>126.0</ele><time>2026-04-26T10:41:44Z</time></trkpt><trkpt lat="45.49318328987102" lon="10.767865684056968"><ele>126.0</ele><time>2026-04-26T10:41:45Z</time></trkpt><trkpt lat="45.49293998867413" lon="10.767801471330552"><ele>126.0</ele><time>2026-04-26T10:41:46Z</time></trkpt><trkpt lat="45.4927007070843" lon="10.767737975571402"><ele>126.5</ele><time>2026-04-26T10:41:47Z</time></trkpt><trkpt lat="45.49246182744877" lon="10.767677902499202"><ele>127.0</ele><time>2026-04-26T10:41:48Z</time></trkpt><trkpt lat="45.49222318282236" lon="10.767620609376333"><ele>126.5</ele><time>2026-04-26T10:41:49Z</time></trkpt><trkpt lat="45.491979898960956" lon="10.767561593154312"><ele>126.0</ele><time>2026-04-26T10:41:50Z</time></trkpt><trkpt lat="45.49173583847742" lon="10.767497697628528"><ele>126.0</ele><time>2026-04-26T10:41:51Z</time></trkpt><trkpt lat="45.49149101881812" lon="10.767429554404838"><ele>126.0</ele><time>2026-04-26T10:41:52Z</time></trkpt><trkpt lat="45.49124238950307" lon="10.767358673904313"><ele>128.5</ele><time>2026-04-26T10:41:53Z</time></trkpt><trkpt lat="45.49099287125426" lon="10.767286886378878"><ele>131.0</ele><time>2026-04-26T10:41:54Z</time></trkpt><trkpt lat="45.490743182865906" lon="10.767219154234066"><ele>131.0</ele><time>2026-04-26T10:41:55Z</time></trkpt><trkpt lat="45.49049191703911" lon="10.767155452384513"><ele>131.0</ele><time>2026-04-26T10:41:56Z</time></trkpt><trkpt lat="45.49024288933376" lon="10.76708932697688"><ele>131.5</ele><time>2026-04-26T10:41:57Z</time></trkpt><trkpt lat="45.48999404727644" lon="10.767024179874145"><ele>132.0</ele><time>2026-04-26T10:41:58Z</time></trkpt><trkpt lat="45.489750845645624" lon="10.766962767851993"><ele>128.0</ele><time>2026-04-26T10:41:59Z</time></trkpt><trkpt lat="45.489253219500675" lon="10.76682790337998"><ele>128.0</ele><time>2026-04-26T10:42:01Z</time></trkpt><trkpt lat="45.4890067902032" lon="10.766762150156627"><ele>128.0</ele><time>2026-04-26T10:42:02Z</time></trkpt><trkpt lat="45.48875982438141" lon="10.766701049730912"><ele>127.5</ele><time>2026-04-26T10:42:03Z</time></trkpt><trkpt lat="45.48851199908491" lon="10.766637541730251"><ele>127.0</ele><time>2026-04-26T10:42:04Z</time></trkpt><trkpt lat="45.48826399309043" lon="10.766573560465"><ele>127.0</ele><time>2026-04-26T10:42:05Z</time></trkpt><trkpt lat="45.48801514100051" lon="10.766505803857475"><ele>127.0</ele><time>2026-04-26T10:42:06Z</time></trkpt><trkpt lat="45.487763381285625" lon="10.766436263776331"><ele>129.0</ele><time>2026-04-26T10:42:07Z</time></trkpt><trkpt lat="45.48751330610711" lon="10.766364547751945"><ele>131.0</ele><time>2026-04-26T10:42:08Z</time></trkpt><trkpt lat="45.487262392600954" lon="10.7662945121434"><ele>130.5</ele><time>2026-04-26T10:42:09Z</time></trkpt><trkpt lat="45.487013119350806" lon="10.766229365399141"><ele>130.0</ele><time>2026-04-26T10:42:10Z</time></trkpt><trkpt lat="45.48676249868866" lon="10.766163965653814"><ele>130.0</ele><time>2026-04-26T10:42:11Z</time></trkpt><trkpt lat="45.48651395792419" lon="10.766101892778117"><ele>130.0</ele><time>2026-04-26T10:42:12Z</time></trkpt><trkpt lat="45.48626514137486" lon="10.766040099294816"><ele>127.5</ele><time>2026-04-26T10:42:13Z</time></trkpt><trkpt lat="45.48601859680457" lon="10.76597832033912"><ele>125.0</ele><time>2026-04-26T10:42:14Z</time></trkpt><trkpt lat="45.48577395058647" lon="10.765916018940443"><ele>125.0</ele><time>2026-04-26T10:42:15Z</time></trkpt><trkpt lat="45.48552824238279" lon="10.765849743570255"><ele>125.0</ele><time>2026-04-26T10:42:16Z</time></trkpt><trkpt lat="45.48528060862156" lon="10.765778770948675"><ele>123.5</ele><time>2026-04-26T10:42:17Z</time></trkpt><trkpt lat="45.48503046939281" lon="10.76570882299176"><ele>122.0</ele><time>2026-04-26T10:42:18Z</time></trkpt><trkpt lat="45.484781134790744" lon="10.765644662400783"><ele>122.0</ele><time>2026-04-26T10:42:19Z</time></trkpt><trkpt lat="45.484532935343516" lon="10.76558118095134"><ele>122.0</ele><time>2026-04-26T10:42:20Z</time></trkpt><trkpt lat="45.4842836010423" lon="10.7655162524561"><ele>122.0</ele><time>2026-04-26T10:42:21Z</time></trkpt><trkpt lat="45.48403275275629" lon="10.76544877238361"><ele>122.0</ele><time>2026-04-26T10:42:22Z</time></trkpt><trkpt lat="45.48378712715306" lon="10.765384791511229"><ele>122.0</ele><time>2026-04-26T10:42:23Z</time></trkpt><trkpt lat="45.48353832036921" lon="10.765316354757223"><ele>122.0</ele><time>2026-04-26T10:42:24Z</time></trkpt><trkpt lat="45.48329053328618" lon="10.765247605122388"><ele>122.0</ele><time>2026-04-26T10:42:25Z</time></trkpt><trkpt lat="45.48304237288261" lon="10.765178410530341"><ele>122.0</ele><time>2026-04-26T10:42:26Z</time></trkpt><trkpt lat="45.48279571140164" lon="10.765109512994874"><ele>121.0</ele><time>2026-04-26T10:42:27Z</time></trkpt><trkpt lat="45.48254576696155" lon="10.765042866123672"><ele>120.0</ele><time>2026-04-26T10:42:28Z</time></trkpt><trkpt lat="45.4822942998433" lon="10.764979856857982"><ele>121.0</ele><time>2026-04-26T10:42:29Z</time></trkpt><trkpt lat="45.482047053834776" lon="10.764917218979384"><ele>122.0</ele><time>2026-04-26T10:42:30Z</time></trkpt><trkpt lat="45.481797007377565" lon="10.764854127328109"><ele>122.0</ele><time>2026-04-26T10:42:31Z</time></trkpt><trkpt lat="45.48154985089932" lon="10.764787861663564"><ele>122.0</ele><time>2026-04-26T10:42:32Z</time></trkpt><trkpt lat="45.48130103307682" lon="10.76472169370627"><ele>120.0</ele><time>2026-04-26T10:42:33Z</time></trkpt><trkpt lat="45.48105216072254" lon="10.764655547366221"><ele>118.0</ele><time>2026-04-26T10:42:34Z</time></trkpt><trkpt lat="45.480804543824675" lon="10.764587377124608"><ele>118.0</ele><time>2026-04-26T10:42:35Z</time></trkpt><trkpt lat="45.48055612910211" lon="10.764519837737915"><ele>118.0</ele><time>2026-04-26T10:42:36Z</time></trkpt><trkpt lat="45.48030739319492" lon="10.764453347696106"><ele>118.5</ele><time>2026-04-26T10:42:37Z</time></trkpt><trkpt lat="45.48005773585465" lon="10.764385924959578"><ele>119.0</ele><time>2026-04-26T10:42:38Z</time></trkpt><trkpt lat="45.4798094137537" lon="10.764318797685561"><ele>118.0</ele><time>2026-04-26T10:42:39Z</time></trkpt><trkpt lat="45.47956144486214" lon="10.764252300670822"><ele>117.0</ele><time>2026-04-26T10:42:40Z</time></trkpt><trkpt lat="45.47933013204753" lon="10.764194026331257"><ele>117.0</ele><time>2026-04-26T10:42:41Z</time></trkpt><trkpt lat="45.47909720438644" lon="10.764130920388382"><ele>117.0</ele><time>2026-04-26T10:42:42Z</time></trkpt><trkpt lat="45.47885890820591" lon="10.764068250614633"><ele>116.5</ele><time>2026-04-26T10:42:43Z</time></trkpt><trkpt lat="45.478621783885394" lon="10.764006798703235"><ele>116.0</ele><time>2026-04-26T10:42:44Z</time></trkpt><trkpt lat="45.478379731128044" lon="10.763945058815883"><ele>116.0</ele><time>2026-04-26T10:42:45Z</time></trkpt><trkpt lat="45.47813540508013" lon="10.763881430012884"><ele>116.0</ele><time>2026-04-26T10:42:46Z</time></trkpt><trkpt lat="45.477889626847514" lon="10.763817010604354"><ele>117.5</ele><time>2026-04-26T10:42:47Z</time></trkpt><trkpt lat="45.4776457651316" lon="10.763752547255356"><ele>119.0</ele><time>2026-04-26T10:42:48Z</time></trkpt><trkpt lat="45.47740080720316" lon="10.763685020276583"><ele>119.0</ele><time>2026-04-26T10:42:49.001Z</time></trkpt><trkpt lat="45.477152182898394" lon="10.76361294204914"><ele>119.0</ele><time>2026-04-26T10:42:50.001Z</time></trkpt><trkpt lat="45.47688295233051" lon="10.763534563069467"><ele>118.5</ele><time>2026-04-26T10:42:51.001Z</time></trkpt><trkpt lat="45.47659818082302" lon="10.763443200002765"><ele>118.0</ele><time>2026-04-26T10:42:52.001Z</time></trkpt><trkpt lat="45.476311703685624" lon="10.763341910193095"><ele>120.5</ele><time>2026-04-26T10:42:53.001Z</time></trkpt><trkpt lat="45.47602631960845" lon="10.763235359993974"><ele>123.0</ele><time>2026-04-26T10:42:54.001Z</time></trkpt><trkpt lat="45.475746041949236" lon="10.763133234525217"><ele>123.0</ele><time>2026-04-26T10:42:55.001Z</time></trkpt><trkpt lat="45.4754683652762" lon="10.763033934787162"><ele>123.0</ele><time>2026-04-26T10:42:56.001Z</time></trkpt><trkpt lat="45.47519725417992" lon="10.762937232395736"><ele>123.5</ele><time>2026-04-26T10:42:57.001Z</time></trkpt><trkpt lat="45.47493154126892" lon="10.762843240138617"><ele>124.0</ele><time>2026-04-26T10:42:58.001Z</time></trkpt><trkpt lat="45.47466606690655" lon="10.76274468016441"><ele>124.0</ele><time>2026-04-26T10:42:59.001Z</time></trkpt><trkpt lat="45.47440324419711" lon="10.762650020771256"><ele>124.0</ele><time>2026-04-26T10:43:00.001Z</time></trkpt><trkpt lat="45.47413981288246" lon="10.762554240536735"><ele>124.0</ele><time>2026-04-26T10:43:01.001Z</time></trkpt><trkpt lat="45.473868713358975" lon="10.76245787269745"><ele>124.0</ele><time>2026-04-26T10:43:02.001Z</time></trkpt><trkpt lat="45.47359507404139" lon="10.762358854279338"><ele>122.5</ele><time>2026-04-26T10:43:03.001Z</time></trkpt><trkpt lat="45.47332282682408" lon="10.762259206766856"><ele>121.0</ele><time>2026-04-26T10:43:04.001Z</time></trkpt><trkpt lat="45.473048154080594" lon="10.762160448735507"><ele>121.0</ele><time>2026-04-26T10:43:05.001Z</time></trkpt><trkpt lat="45.47277636719056" lon="10.76206396147187"><ele>121.0</ele><time>2026-04-26T10:43:06.001Z</time></trkpt><trkpt lat="45.472511571416746" lon="10.761971414456339"><ele>121.0</ele><time>2026-04-26T10:43:07.001Z</time></trkpt><trkpt lat="45.4722522062643" lon="10.761877091941173"><ele>121.0</ele><time>2026-04-26T10:43:08.001Z</time></trkpt><trkpt lat="45.47199460761908" lon="10.76178417129237"><ele>119.5</ele><time>2026-04-26T10:43:09.001Z</time></trkpt><trkpt lat="45.47174387718263" lon="10.761696462100051"><ele>118.0</ele><time>2026-04-26T10:43:10.001Z</time></trkpt><trkpt lat="45.471500685937755" lon="10.761608995109878"><ele>117.0</ele><time>2026-04-26T10:43:11.001Z</time></trkpt><trkpt lat="45.47125777922167" lon="10.76152319207906"><ele>116.0</ele><time>2026-04-26T10:43:12.001Z</time></trkpt><trkpt lat="45.471019798493934" lon="10.76144058187665"><ele>116.0</ele><time>2026-04-26T10:43:13.001Z</time></trkpt><trkpt lat="45.4707823447705" lon="10.761361903539838"><ele>116.0</ele><time>2026-04-26T10:43:14.001Z</time></trkpt><trkpt lat="45.47054289769241" lon="10.76129369448929"><ele>114.0</ele><time>2026-04-26T10:43:15.001Z</time></trkpt><trkpt lat="45.47030356329084" lon="10.761231182579847"><ele>112.0</ele><time>2026-04-26T10:43:16.001Z</time></trkpt><trkpt lat="45.470063114635245" lon="10.761172300815144"><ele>112.0</ele><time>2026-04-26T10:43:17.001Z</time></trkpt><trkpt lat="45.46982859720299" lon="10.761112865427627"><ele>112.0</ele><time>2026-04-26T10:43:18.001Z</time></trkpt><trkpt lat="45.4695984855487" lon="10.761052462999277"><ele>113.5</ele><time>2026-04-26T10:43:19.001Z</time></trkpt><trkpt lat="45.46936962914" lon="10.760992078788602"><ele>115.0</ele><time>2026-04-26T10:43:20.001Z</time></trkpt><trkpt lat="45.469138828550264" lon="10.76093144674358"><ele>115.0</ele><time>2026-04-26T10:43:21.001Z</time></trkpt><trkpt lat="45.46891331338916" lon="10.760869526598087"><ele>115.0</ele><time>2026-04-26T10:43:22.001Z</time></trkpt><trkpt lat="45.46870018264182" lon="10.760812498197193"><ele>115.0</ele><time>2026-04-26T10:43:23.001Z</time></trkpt><trkpt lat="45.46850197431947" lon="10.760757933299049"><ele>114.66666666666667</ele><time>2026-04-26T10:43:24.001Z</time></trkpt><trkpt lat="45.46831645296667" lon="10.760697115244442"><ele>114.33333333333334</ele><time>2026-04-26T10:43:25.001Z</time></trkpt><trkpt lat="45.46813949635388" lon="10.760639316987538"><ele>114.0</ele><time>2026-04-26T10:43:26.001Z</time></trkpt><trkpt lat="45.46796867949976" lon="10.760594386398628"><ele>115.0</ele><time>2026-04-26T10:43:27.001Z</time></trkpt><trkpt lat="45.46782949499459" lon="10.760562423766862"><ele>116.0</ele><time>2026-04-26T10:43:28.001Z</time></trkpt><trkpt lat="45.46771933033274" lon="10.760526347983271"><ele>117.0</ele><time>2026-04-26T10:43:29.001Z</time></trkpt><trkpt lat="45.46762478955542" lon="10.760472375001825"><ele>118.0</ele><time>2026-04-26T10:43:30Z</time></trkpt><trkpt lat="45.46754566200795" lon="10.760443895151088"><ele>119.0</ele><time>2026-04-26T10:43:31Z</time></trkpt><trkpt lat="45.467507766512796" lon="10.760247562287585"><ele>119.0</ele><time>2026-04-26T10:43:32.001Z</time></trkpt><trkpt lat="45.46750003321573" lon="10.760087389218906"><ele>119.0</ele><time>2026-04-26T10:43:33.001Z</time></trkpt><trkpt lat="45.46751316040665" lon="10.759922772391167"><ele>119.0</ele><time>2026-04-26T10:43:34.001Z</time></trkpt><trkpt lat="45.46750479157863" lon="10.759759144898123"><ele>119.0</ele><time>2026-04-26T10:43:35.001Z</time></trkpt><trkpt lat="45.46744135460994" lon="10.759607267779469"><ele>119.0</ele><time>2026-04-26T10:43:36.001Z</time></trkpt><trkpt lat="45.467337111411545" lon="10.759481192447383"><ele>119.0</ele><time>2026-04-26T10:43:37.001Z</time></trkpt><trkpt lat="45.4672130192281" lon="10.759369137544658"><ele>119.0</ele><time>2026-04-26T10:43:38.001Z</time></trkpt><trkpt lat="45.467091523036714" lon="10.759253677458606"><ele>119.0</ele><time>2026-04-26T10:43:39.001Z</time></trkpt><trkpt lat="45.46700290647436" lon="10.75913324390746"><ele>119.49999999999999</ele><time>2026-04-26T10:43:40.001Z</time></trkpt><trkpt lat="45.46692332123069" lon="10.759044559166382"><ele>120.0</ele><time>2026-04-26T10:43:41.001Z</time></trkpt><trkpt lat="45.466847670216126" lon="10.758989504099121"><ele>120.5</ele><time>2026-04-26T10:43:42.001Z</time></trkpt><trkpt lat="45.46679975635807" lon="10.758928226521101"><ele>121.0</ele><time>2026-04-26T10:43:43.001Z</time></trkpt><trkpt lat="45.466751796884104" lon="10.75883778493232"><ele>121.49999999999999</ele><time>2026-04-26T10:43:45.001Z</time></trkpt><trkpt lat="45.46669240899794" lon="10.758772214096565"><ele>122.0</ele><time>2026-04-26T10:43:47.001Z</time></trkpt><trkpt lat="45.466786873145146" lon="10.758565984413982"><ele>121.75</ele><time>2026-04-26T10:43:48.001Z</time></trkpt><trkpt lat="45.466820113043426" lon="10.758385694886131"><ele>121.5</ele><time>2026-04-26T10:43:49.001Z</time></trkpt><trkpt lat="45.4668740802583" lon="10.758193299557187"><ele>121.25</ele><time>2026-04-26T10:43:50.001Z</time></trkpt><trkpt lat="45.466920544530254" lon="10.757979920148728"><ele>121.0</ele><time>2026-04-26T10:43:51.001Z</time></trkpt><trkpt lat="45.46696093478277" lon="10.757771549833596"><ele>120.66666666666667</ele><time>2026-04-26T10:43:52.001Z</time></trkpt><trkpt lat="45.46700188789625" lon="10.757569680796237"><ele>120.33333333333334</ele><time>2026-04-26T10:43:53.001Z</time></trkpt><trkpt lat="45.46704589854446" lon="10.757358937510407"><ele>120.0</ele><time>2026-04-26T10:43:54.001Z</time></trkpt><trkpt lat="45.46709605587748" lon="10.757128853779289"><ele>120.0</ele><time>2026-04-26T10:43:55.001Z</time></trkpt><trkpt lat="45.46714748065894" lon="10.756888172580846"><ele>120.0</ele><time>2026-04-26T10:43:56.001Z</time></trkpt><trkpt lat="45.46719641116609" lon="10.756649071601503"><ele>120.0</ele><time>2026-04-26T10:43:57.001Z</time></trkpt><trkpt lat="45.46723914941337" lon="10.756426620385769"><ele>120.0</ele><time>2026-04-26T10:43:58.001Z</time></trkpt><trkpt lat="45.46727757384108" lon="10.75622652714548"><ele>120.0</ele><time>2026-04-26T10:43:59.001Z</time></trkpt><trkpt lat="45.46732193970794" lon="10.756042893911543"><ele>120.0</ele><time>2026-04-26T10:44:00.001Z</time></trkpt><trkpt lat="45.46739567743725" lon="10.755888613714017"><ele>120.0</ele><time>2026-04-26T10:44:01.001Z</time></trkpt><trkpt lat="45.46750263137192" lon="10.755742784331263"><ele>119.66666666666666</ele><time>2026-04-26T10:44:02.001Z</time></trkpt><trkpt lat="45.46762096596226" lon="10.755592628465003"><ele>119.33333333333333</ele><time>2026-04-26T10:44:03.001Z</time></trkpt><trkpt lat="45.4677379660725" lon="10.755429217165894"><ele>119.0</ele><time>2026-04-26T10:44:04.001Z</time></trkpt><trkpt lat="45.467850686503105" lon="10.755263767555372"><ele>118.33333333333333</ele><time>2026-04-26T10:44:05.001Z</time></trkpt><trkpt lat="45.46796385626528" lon="10.75509761568042"><ele>117.66666666666666</ele><time>2026-04-26T10:44:06.001Z</time></trkpt><trkpt lat="45.46806856683863" lon="10.754944804006954"><ele>117.0</ele><time>2026-04-26T10:44:07.001Z</time></trkpt><trkpt lat="45.46816525019497" lon="10.754805016562251"><ele>117.0</ele><time>2026-04-26T10:44:08.001Z</time></trkpt><trkpt lat="45.46825371418696" lon="10.75467425119363"><ele>117.0</ele><time>2026-04-26T10:44:09.001Z</time></trkpt><trkpt lat="45.46833633643517" lon="10.754554976574983"><ele>117.0</ele><time>2026-04-26T10:44:10.001Z</time></trkpt><trkpt lat="45.468421300402284" lon="10.754437583542613"><ele>117.0</ele><time>2026-04-26T10:44:11.001Z</time></trkpt><trkpt lat="45.46852001022083" lon="10.754313633309023"><ele>116.66666666666666</ele><time>2026-04-26T10:44:12.001Z</time></trkpt><trkpt lat="45.468643604766356" lon="10.75418575431371"><ele>116.33333333333333</ele><time>2026-04-26T10:44:13.001Z</time></trkpt><trkpt lat="45.46879947770837" lon="10.754038349853777"><ele>116.0</ele><time>2026-04-26T10:44:14.001Z</time></trkpt><trkpt lat="45.46896353149133" lon="10.753884035577904"><ele>115.66666666666666</ele><time>2026-04-26T10:44:15.001Z</time></trkpt><trkpt lat="45.46911957678961" lon="10.75373603278267"><ele>115.33333333333334</ele><time>2026-04-26T10:44:16.001Z</time></trkpt><trkpt lat="45.4692689575844" lon="10.753587953938316"><ele>115.0</ele><time>2026-04-26T10:44:17.001Z</time></trkpt><trkpt lat="45.469411343549524" lon="10.753444584178235"><ele>115.0</ele><time>2026-04-26T10:44:18.001Z</time></trkpt><trkpt lat="45.4695462273887" lon="10.75331240990892"><ele>115.0</ele><time>2026-04-26T10:44:19.001Z</time></trkpt><trkpt lat="45.469666701404876" lon="10.753195188711084"><ele>115.0</ele><time>2026-04-26T10:44:20.001Z</time></trkpt><trkpt lat="45.46977984559088" lon="10.753085490773653"><ele>115.0</ele><time>2026-04-26T10:44:21.001Z</time></trkpt><trkpt lat="45.469880042573266" lon="10.752988192557996"><ele>115.0</ele><time>2026-04-26T10:44:22.001Z</time></trkpt><trkpt lat="45.46997530101958" lon="10.752894572570474"><ele>115.0</ele><time>2026-04-26T10:44:23.001Z</time></trkpt><trkpt lat="45.4700750896357" lon="10.752792177001238"><ele>115.0</ele><time>2026-04-26T10:44:24.001Z</time></trkpt><trkpt lat="45.47017516866031" lon="10.752694569376187"><ele>115.0</ele><time>2026-04-26T10:44:25.001Z</time></trkpt><trkpt lat="45.47027891757091" lon="10.752604652011069"><ele>114.5</ele><time>2026-04-26T10:44:26.001Z</time></trkpt><trkpt lat="45.47038644658757" lon="10.752510558159761"><ele>114.0</ele><time>2026-04-26T10:44:27.001Z</time></trkpt><trkpt lat="45.47049837307202" lon="10.752403819459296"><ele>113.5</ele><time>2026-04-26T10:44:28.001Z</time></trkpt><trkpt lat="45.47062015579342" lon="10.752283990196595"><ele>113.0</ele><time>2026-04-26T10:44:29.001Z</time></trkpt><trkpt lat="45.4707409563567" lon="10.752162513802956"><ele>113.75</ele><time>2026-04-26T10:44:30.001Z</time></trkpt><trkpt lat="45.470860320836806" lon="10.752049002051177"><ele>114.5</ele><time>2026-04-26T10:44:31.001Z</time></trkpt><trkpt lat="45.47097230983153" lon="10.75194358064708"><ele>115.25</ele><time>2026-04-26T10:44:32.001Z</time></trkpt><trkpt lat="45.471070507775586" lon="10.751854735046312"><ele>116.0</ele><time>2026-04-26T10:44:33.001Z</time></trkpt><trkpt lat="45.47115791791278" lon="10.751777977097712"><ele>116.0</ele><time>2026-04-26T10:44:34.001Z</time></trkpt><trkpt lat="45.47125676167158" lon="10.751687696888165"><ele>116.0</ele><time>2026-04-26T10:44:35.001Z</time></trkpt><trkpt lat="45.471350227487946" lon="10.751597201851867"><ele>116.0</ele><time>2026-04-26T10:44:36.001Z</time></trkpt><trkpt lat="45.47144070089895" lon="10.75150525926876"><ele>116.0</ele><time>2026-04-26T10:44:37.001Z</time></trkpt><trkpt lat="45.47152729585731" lon="10.751415965839055"><ele>116.0</ele><time>2026-04-26T10:44:38.001Z</time></trkpt><trkpt lat="45.47160991567222" lon="10.751320454511173"><ele>116.19999999999999</ele><time>2026-04-26T10:44:39.001Z</time></trkpt><trkpt lat="45.47167888355084" lon="10.751206010283362"><ele>116.39999999999999</ele><time>2026-04-26T10:44:40.001Z</time></trkpt><trkpt lat="45.47173434818838" lon="10.751070348936809"><ele>116.6</ele><time>2026-04-26T10:44:41.001Z</time></trkpt><trkpt lat="45.4717881787291" lon="10.750925280910277"><ele>116.8</ele><time>2026-04-26T10:44:42.001Z</time></trkpt><trkpt lat="45.47181074714333" lon="10.750762643153358"><ele>117.0</ele><time>2026-04-26T10:44:43.001Z</time></trkpt><trkpt lat="45.47184897908184" lon="10.750622705388565"><ele>117.0</ele><time>2026-04-26T10:44:44.001Z</time></trkpt><trkpt lat="45.47187986733519" lon="10.75049317714626"><ele>116.99999999999999</ele><time>2026-04-26T10:44:45.001Z</time></trkpt><trkpt lat="45.47190630269541" lon="10.750365096669965"><ele>116.99999999999999</ele><time>2026-04-26T10:44:46.001Z</time></trkpt><trkpt lat="45.471937248303625" lon="10.750228902909173"><ele>117.0</ele><time>2026-04-26T10:44:47.001Z</time></trkpt><trkpt lat="45.471963078439025" lon="10.750107490902817"><ele>117.0</ele><time>2026-04-26T10:44:48.001Z</time></trkpt><trkpt lat="45.4719874938384" lon="10.749998096134709"><ele>117.0</ele><time>2026-04-26T10:44:49.001Z</time></trkpt><trkpt lat="45.472023063496536" lon="10.749896418240025"><ele>117.0</ele><time>2026-04-26T10:44:50.001Z</time></trkpt><trkpt lat="45.47207935538313" lon="10.749795488905088"><ele>117.0</ele><time>2026-04-26T10:44:51.001Z</time></trkpt><trkpt lat="45.47213351638378" lon="10.749692433752356"><ele>117.0</ele><time>2026-04-26T10:44:52.001Z</time></trkpt><trkpt lat="45.47218032708767" lon="10.74959553397746"><ele>117.0</ele><time>2026-04-26T10:44:53.001Z</time></trkpt><trkpt lat="45.47223949642687" lon="10.749470406379825"><ele>117.0</ele><time>2026-04-26T10:44:54.001Z</time></trkpt><trkpt lat="45.47229493798549" lon="10.749360286195092"><ele>117.0</ele><time>2026-04-26T10:44:55.001Z</time></trkpt><trkpt lat="45.472346096348474" lon="10.74925530846711"><ele>116.99999999999999</ele><time>2026-04-26T10:44:56.001Z</time></trkpt><trkpt lat="45.47238825443565" lon="10.749155650295084"><ele>116.99999999999999</ele><time>2026-04-26T10:44:57.001Z</time></trkpt><trkpt lat="45.47244179759783" lon="10.749044840984316"><ele>117.0</ele><time>2026-04-26T10:44:58.001Z</time></trkpt><trkpt lat="45.47245310858806" lon="10.748894335905957"><ele>117.0</ele><time>2026-04-26T10:44:59.001Z</time></trkpt><trkpt lat="45.47247067360633" lon="10.748761749148237"><ele>117.0</ele><time>2026-04-26T10:45:00.001Z</time></trkpt><trkpt lat="45.472489199854806" lon="10.748630745212171"><ele>116.99999999999999</ele><time>2026-04-26T10:45:01.001Z</time></trkpt><trkpt lat="45.472517666693136" lon="10.748455068062905"><ele>116.99999999999999</ele><time>2026-04-26T10:45:02.001Z</time></trkpt><trkpt lat="45.47253755868924" lon="10.74828891040198"><ele>117.0</ele><time>2026-04-26T10:45:03.001Z</time></trkpt><trkpt lat="45.472567528370426" lon="10.748153569017017"><ele>117.0</ele><time>2026-04-26T10:45:04.001Z</time></trkpt><trkpt lat="45.472575727971936" lon="10.748001391326806"><ele>117.25</ele><time>2026-04-26T10:45:05.001Z</time></trkpt><trkpt lat="45.47256485222006" lon="10.74783848942559"><ele>117.5</ele><time>2026-04-26T10:45:06.001Z</time></trkpt><trkpt lat="45.47258784534761" lon="10.747685921202418"><ele>117.75</ele><time>2026-04-26T10:45:07.001Z</time></trkpt><trkpt lat="45.47269251639821" lon="10.747543429657675"><ele>118.0</ele><time>2026-04-26T10:45:08.001Z</time></trkpt><trkpt lat="45.47274973384139" lon="10.747406475755069"><ele>118.0</ele><time>2026-04-26T10:45:09.001Z</time></trkpt><trkpt lat="45.472815853337906" lon="10.747247628031356"><ele>118.00000000000001</ele><time>2026-04-26T10:45:10.001Z</time></trkpt><trkpt lat="45.47289158419558" lon="10.747134850913561"><ele>118.00000000000001</ele><time>2026-04-26T10:45:11.001Z</time></trkpt><trkpt lat="45.472951565703866" lon="10.74702292000349"><ele>118.0</ele><time>2026-04-26T10:45:12.001Z</time></trkpt><trkpt lat="45.473015799696874" lon="10.746895390281075"><ele>118.0</ele><time>2026-04-26T10:45:13.001Z</time></trkpt><trkpt lat="45.473092704746286" lon="10.746778779562025"><ele>119.25</ele><time>2026-04-26T10:45:14.001Z</time></trkpt><trkpt lat="45.47316575926627" lon="10.746670095864648"><ele>120.5</ele><time>2026-04-26T10:45:15.001Z</time></trkpt><trkpt lat="45.473229694334215" lon="10.746530219595297"><ele>121.75</ele><time>2026-04-26T10:45:16.001Z</time></trkpt><trkpt lat="45.47329664369495" lon="10.746396039611554"><ele>123.0</ele><time>2026-04-26T10:45:17.001Z</time></trkpt><trkpt lat="45.473344459978875" lon="10.746238339174386"><ele>123.0</ele><time>2026-04-26T10:45:18.001Z</time></trkpt><trkpt lat="45.473390050335446" lon="10.746092134910826"><ele>123.0</ele><time>2026-04-26T10:45:19.001Z</time></trkpt><trkpt lat="45.473444736694624" lon="10.745942966180401"><ele>123.0</ele><time>2026-04-26T10:45:20.001Z</time></trkpt><trkpt lat="45.47349622790988" lon="10.745798641224495"><ele>123.0</ele><time>2026-04-26T10:45:21.001Z</time></trkpt><trkpt lat="45.473538813916136" lon="10.745643378901248"><ele>122.60000000000001</ele><time>2026-04-26T10:45:22.001Z</time></trkpt><trkpt lat="45.473557494222916" lon="10.745480863274976"><ele>122.20000000000002</ele><time>2026-04-26T10:45:23.001Z</time></trkpt><trkpt lat="45.473579692264536" lon="10.74532412914669"><ele>121.8</ele><time>2026-04-26T10:45:24.001Z</time></trkpt><trkpt lat="45.473595467227426" lon="10.745175314244761"><ele>121.4</ele><time>2026-04-26T10:45:25.001Z</time></trkpt><trkpt lat="45.473604835332026" lon="10.745042000508391"><ele>121.0</ele><time>2026-04-26T10:45:26Z</time></trkpt><trkpt lat="45.47358065530195" lon="10.744939534571227"><ele>122.00000000000001</ele><time>2026-04-26T10:45:27Z</time></trkpt><trkpt lat="45.47351763592312" lon="10.744854832005485"><ele>123.0</ele><time>2026-04-26T10:45:28Z</time></trkpt><trkpt lat="45.47342829730242" lon="10.744817138561759"><ele>124.0</ele><time>2026-04-26T10:45:29Z</time></trkpt><trkpt lat="45.47333535639441" lon="10.744824659957604"><ele>125.0</ele><time>2026-04-26T10:45:30Z</time></trkpt><trkpt lat="45.473252911198294" lon="10.744796225971072"><ele>126.00000000000001</ele><time>2026-04-26T10:45:31Z</time></trkpt><trkpt lat="45.473178559578095" lon="10.744791651996866"><ele>127.0</ele><time>2026-04-26T10:45:32Z</time></trkpt><trkpt lat="45.473131051134764" lon="10.744695193592552"><ele>127.0</ele><time>2026-04-26T10:45:33Z</time></trkpt><trkpt lat="45.47310519655686" lon="10.744577919168176"><ele>126.99999999999999</ele><time>2026-04-26T10:45:34Z</time></trkpt><trkpt lat="45.473140514971" lon="10.74443730777303"><ele>126.99999999999999</ele><time>2026-04-26T10:45:35Z</time></trkpt><trkpt lat="45.47320841184761" lon="10.744285218865524"><ele>127.0</ele><time>2026-04-26T10:45:36Z</time></trkpt><trkpt lat="45.47326906408096" lon="10.744124982816382"><ele>127.0</ele><time>2026-04-26T10:45:37Z</time></trkpt><trkpt lat="45.47328430324225" lon="10.74400658202975"><ele>128.2</ele><time>2026-04-26T10:45:38Z</time></trkpt><trkpt lat="45.47334108032879" lon="10.743844904524495"><ele>129.39999999999998</ele><time>2026-04-26T10:45:40Z</time></trkpt><trkpt lat="45.473406137944586" lon="10.743723817008796"><ele>130.60000000000002</ele><time>2026-04-26T10:45:42Z</time></trkpt><trkpt lat="45.47344897762411" lon="10.743652697612703"><ele>131.8</ele><time>2026-04-26T10:45:43Z</time></trkpt><trkpt lat="45.47350695541923" lon="10.743578475665267"><ele>133.0</ele><time>2026-04-26T10:45:45Z</time></trkpt><trkpt lat="45.473570750895874" lon="10.743503970833686"><ele>134.0</ele><time>2026-04-26T10:45:48Z</time></trkpt><trkpt lat="45.473636818688064" lon="10.74342364593963"><ele>134.0</ele><time>2026-04-26T10:45:52Z</time></trkpt><trkpt lat="45.47369641359334" lon="10.743378066133968"><ele>134.0</ele><time>2026-04-26T10:45:55Z</time></trkpt><trkpt lat="45.47375912636796" lon="10.743324304376578"><ele>134.0</ele><time>2026-04-26T10:46:05Z</time></trkpt><trkpt lat="45.473841827939445" lon="10.743321051589648"><ele>135.0</ele><time>2026-04-26T10:46:09Z</time></trkpt></trkseg></trk></gpx>